<?xml version="1.0" encoding="utf-8"?>
<gpx version="1.1" creator="com.bodunov.galileo/v5.9.2" xmlns:xsi="http://www.w3.org/2001/XMLSchema-instance" xmlns="http://www.topografix.com/GPX/1/1" xmlns:gom="https://gurumaps.app/gpx/v3" xsi:schemaLocation="http://www.topografix.com/GPX/1/1 http://www.topografix.com/GPX/1/1/gpx.xsd https://gurumaps.app/gpx/v3 https://gurumaps.app/gpx/v3/schema.xsd">
 <trk>
  <name>бабушка с низовской</name>
  <type>TrackStyle_2196F3C8</type>
  <extensions>
   <gom:time>2026-04-20T17:13:02.476Z</gom:time>
   <line xmlns="http://www.topografix.com/GPX/gpx_style/0/2">
    <color>2196F3</color>
   </line>
  </extensions>
  <trkseg>
   <trkpt lat="59.0629300682" lon="30.0248708878"><ele>94.332</ele><time>2026-04-20T17:13:04.037Z</time><hdop>7.687</hdop><vdop>8.312</vdop><extensions><gom:speed>0.0</gom:speed></extensions></trkpt>
   <trkpt lat="59.0629285595" lon="30.024838366"><ele>91.091</ele><time>2026-04-20T17:13:05.049Z</time><hdop>7.125</hdop><vdop>7.062</vdop><extensions><gom:speed>0.0</gom:speed></extensions></trkpt>
   <trkpt lat="59.0629447784" lon="30.024820764"><ele>90.679</ele><time>2026-04-20T17:13:06.049Z</time><hdop>6.687</hdop><vdop>6.187</vdop><extensions><gom:speed>0.0</gom:speed></extensions></trkpt>
   <trkpt lat="59.0629445689" lon="30.0248104543"><ele>91.221</ele><time>2026-04-20T17:13:07.047Z</time><hdop>6.312</hdop><vdop>5.375</vdop><extensions><gom:speed>0.0</gom:speed></extensions></trkpt>
   <trkpt lat="59.0629527832" lon="30.0248061795"><ele>91.569</ele><time>2026-04-20T17:13:08.075Z</time><hdop>6.0</hdop><vdop>4.5</vdop><extensions><gom:speed>0.0</gom:speed></extensions></trkpt>
   <trkpt lat="59.0629558845" lon="30.024800396"><ele>92.241</ele><time>2026-04-20T17:13:09.075Z</time><hdop>5.312</hdop><vdop>3.937</vdop><extensions><gom:speed>0.0</gom:speed></extensions></trkpt>
   <trkpt lat="59.0629562616" lon="30.024789751"><ele>93.056</ele><time>2026-04-20T17:13:10.076Z</time><hdop>4.812</hdop><vdop>3.687</vdop><extensions><gom:speed>0.0</gom:speed></extensions></trkpt>
   <trkpt lat="59.0629590696" lon="30.024786985"><ele>93.773</ele><time>2026-04-20T17:13:11.075Z</time><hdop>4.375</hdop><vdop>3.437</vdop><extensions><gom:speed>0.0</gom:speed></extensions></trkpt>
   <trkpt lat="59.0629619613" lon="30.0247804471"><ele>94.272</ele><time>2026-04-20T17:13:12.075Z</time><hdop>4.062</hdop><vdop>3.437</vdop><extensions><gom:speed>0.0</gom:speed></extensions></trkpt>
   <trkpt lat="59.0629612908" lon="30.0247760885"><ele>94.711</ele><time>2026-04-20T17:13:13.075Z</time><hdop>4.0</hdop><vdop>3.5</vdop><extensions><gom:speed>0.0</gom:speed></extensions></trkpt>
   <trkpt lat="59.0629624643" lon="30.0247735739"><ele>95.109</ele><time>2026-04-20T17:13:14.076Z</time><hdop>3.875</hdop><vdop>3.562</vdop><extensions><gom:speed>0.0</gom:speed></extensions></trkpt>
   <trkpt lat="59.06296259" lon="30.0247722328"><ele>95.346</ele><time>2026-04-20T17:13:15.075Z</time><hdop>3.812</hdop><vdop>3.687</vdop><extensions><gom:speed>0.0</gom:speed></extensions></trkpt>
   <trkpt lat="59.0629629672" lon="30.0247701373"><ele>95.58</ele><time>2026-04-20T17:13:16.075Z</time><hdop>3.75</hdop><vdop>3.5</vdop><extensions><gom:speed>0.0</gom:speed></extensions></trkpt>
   <trkpt lat="59.0629641825" lon="30.0247683771"><ele>95.841</ele><time>2026-04-20T17:13:17.075Z</time><hdop>3.75</hdop><vdop>3.437</vdop><extensions><gom:speed>0.0</gom:speed></extensions></trkpt>
   <trkpt lat="59.0629649788" lon="30.0247676228"><ele>96.049</ele><time>2026-04-20T17:13:18.075Z</time><hdop>3.75</hdop><vdop>3.312</vdop><extensions><gom:speed>0.0</gom:speed></extensions></trkpt>
   <trkpt lat="59.0629652722" lon="30.024767958"><ele>96.179</ele><time>2026-04-20T17:13:19.075Z</time><hdop>3.75</hdop><vdop>3.375</vdop><extensions><gom:speed>0.0</gom:speed></extensions></trkpt>
   <trkpt lat="59.0629656913" lon="30.0247674551"><ele>96.267</ele><time>2026-04-20T17:13:20.076Z</time><hdop>3.75</hdop><vdop>3.375</vdop><extensions><gom:speed>0.0</gom:speed></extensions></trkpt>
   <trkpt lat="59.0629664876" lon="30.0247671199"><ele>96.329</ele><time>2026-04-20T17:13:21.075Z</time><hdop>3.75</hdop><vdop>3.187</vdop><extensions><gom:speed>0.0</gom:speed></extensions></trkpt>
   <trkpt lat="59.0629669905" lon="30.0247674551"><ele>96.348</ele><time>2026-04-20T17:13:22.076Z</time><hdop>3.75</hdop><vdop>2.937</vdop><extensions><gom:speed>0.0</gom:speed></extensions></trkpt>
   <trkpt lat="59.0629674934" lon="30.0247664493"><ele>96.385</ele><time>2026-04-20T17:13:23.075Z</time><hdop>3.75</hdop><vdop>3.062</vdop><extensions><gom:speed>0.0</gom:speed></extensions></trkpt>
   <trkpt lat="59.0629674934" lon="30.0247667846"><ele>96.397</ele><time>2026-04-20T17:13:24.075Z</time><hdop>3.75</hdop><vdop>3.0</vdop><extensions><gom:speed>0.0</gom:speed></extensions></trkpt>
   <trkpt lat="59.0629679963" lon="30.0247659464"><ele>96.409</ele><time>2026-04-20T17:13:25.075Z</time><hdop>3.75</hdop><vdop>3.062</vdop><extensions><gom:speed>0.0</gom:speed></extensions></trkpt>
   <trkpt lat="59.0629686669" lon="30.0247662817"><ele>96.414</ele><time>2026-04-20T17:13:26.076Z</time><hdop>3.75</hdop><vdop>2.937</vdop><extensions><gom:speed>0.0</gom:speed></extensions></trkpt>
   <trkpt lat="59.0629688764" lon="30.0247662817"><ele>96.414</ele><time>2026-04-20T17:13:27.076Z</time><hdop>3.75</hdop><vdop>2.875</vdop><extensions><gom:speed>0.0</gom:speed></extensions></trkpt>
   <trkpt lat="59.062969086" lon="30.0247664493"><ele>96.417</ele><time>2026-04-20T17:13:28.076Z</time><hdop>3.75</hdop><vdop>2.875</vdop><extensions><gom:speed>0.0</gom:speed></extensions></trkpt>
   <trkpt lat="59.0629694631" lon="30.0247668684"><ele>96.402</ele><time>2026-04-20T17:13:29.076Z</time><hdop>3.75</hdop><vdop>2.937</vdop><extensions><gom:speed>0.0</gom:speed></extensions></trkpt>
   <trkpt lat="59.0629695889" lon="30.024767036"><ele>96.384</ele><time>2026-04-20T17:13:30.075Z</time><hdop>3.75</hdop><vdop>3.0</vdop><extensions><gom:speed>0.0</gom:speed></extensions></trkpt>
   <trkpt lat="59.0629694631" lon="30.0247674551"><ele>96.351</ele><time>2026-04-20T17:13:31.075Z</time><hdop>3.75</hdop><vdop>3.0</vdop><extensions><gom:speed>0.0</gom:speed></extensions></trkpt>
   <trkpt lat="59.0629695889" lon="30.0247674551"><ele>96.329</ele><time>2026-04-20T17:13:32.075Z</time><hdop>3.75</hdop><vdop>2.937</vdop><extensions><gom:speed>0.0</gom:speed></extensions></trkpt>
   <trkpt lat="59.0629696727" lon="30.024767539"><ele>96.308</ele><time>2026-04-20T17:13:33.075Z</time><hdop>3.75</hdop><vdop>2.937</vdop><extensions><gom:speed>0.0</gom:speed></extensions></trkpt>
   <trkpt lat="59.0629696727" lon="30.0247674551"><ele>96.29</ele><time>2026-04-20T17:13:34.075Z</time><hdop>3.75</hdop><vdop>2.937</vdop><extensions><gom:speed>0.0</gom:speed></extensions></trkpt>
   <trkpt lat="59.0629696727" lon="30.0247674551"><ele>96.276</ele><time>2026-04-20T17:13:35.075Z</time><hdop>3.75</hdop><vdop>2.937</vdop><extensions><gom:speed>0.0</gom:speed></extensions></trkpt>
   <trkpt lat="59.0629697984" lon="30.024767539"><ele>96.263</ele><time>2026-04-20T17:13:36.075Z</time><hdop>3.75</hdop><vdop>2.937</vdop><extensions><gom:speed>0.0</gom:speed></extensions></trkpt>
   <trkpt lat="59.0629697984" lon="30.0247676228"><ele>96.248</ele><time>2026-04-20T17:13:37.075Z</time><hdop>3.75</hdop><vdop>2.937</vdop><extensions><gom:speed>0.0</gom:speed></extensions></trkpt>
   <trkpt lat="59.0629697984" lon="30.0247676228"><ele>96.238</ele><time>2026-04-20T17:13:38.075Z</time><hdop>3.75</hdop><vdop>2.937</vdop><extensions><gom:speed>0.0</gom:speed></extensions></trkpt>
   <trkpt lat="59.0629698822" lon="30.0247677904"><ele>96.231</ele><time>2026-04-20T17:13:39.075Z</time><hdop>3.75</hdop><vdop>2.937</vdop><extensions><gom:speed>0.0</gom:speed></extensions></trkpt>
   <trkpt lat="59.0629698822" lon="30.0247677904"><ele>96.225</ele><time>2026-04-20T17:13:40.075Z</time><hdop>3.75</hdop><vdop>3.0</vdop><extensions><gom:speed>0.0</gom:speed></extensions></trkpt>
   <trkpt lat="59.0629698822" lon="30.0247678742"><ele>96.218</ele><time>2026-04-20T17:13:41.075Z</time><hdop>3.75</hdop><vdop>3.187</vdop><extensions><gom:speed>0.0</gom:speed></extensions></trkpt>
   <trkpt lat="59.0629699661" lon="30.024767958"><ele>96.213</ele><time>2026-04-20T17:13:42.075Z</time><hdop>3.75</hdop><vdop>3.375</vdop><extensions><gom:speed>0.0</gom:speed></extensions></trkpt>
   <trkpt lat="59.0629700918" lon="30.0247680419"><ele>96.212</ele><time>2026-04-20T17:13:43.075Z</time><hdop>3.75</hdop><vdop>3.437</vdop><extensions><gom:speed>0.0</gom:speed></extensions></trkpt>
   <trkpt lat="59.0629702594" lon="30.0247680419"><ele>96.208</ele><time>2026-04-20T17:13:44.075Z</time><hdop>3.75</hdop><vdop>3.562</vdop><extensions><gom:speed>0.0</gom:speed></extensions></trkpt>
   <trkpt lat="59.0629703852" lon="30.0247681257"><ele>96.203</ele><time>2026-04-20T17:13:45.076Z</time><hdop>3.75</hdop><vdop>3.562</vdop><extensions><gom:speed>0.0</gom:speed></extensions></trkpt>
   <trkpt lat="59.062970469" lon="30.0247683771"><ele>96.194</ele><time>2026-04-20T17:13:46.075Z</time><hdop>3.75</hdop><vdop>3.562</vdop><extensions><gom:speed>0.0</gom:speed></extensions></trkpt>
   <trkpt lat="59.0629705947" lon="30.0247685448"><ele>96.186</ele><time>2026-04-20T17:13:47.075Z</time><hdop>3.75</hdop><vdop>3.5</vdop><extensions><gom:speed>0.0</gom:speed></extensions></trkpt>
   <trkpt lat="59.0629706785" lon="30.0247687962"><ele>96.175</ele><time>2026-04-20T17:13:48.075Z</time><hdop>3.75</hdop><vdop>3.5</vdop><extensions><gom:speed>0.0</gom:speed></extensions></trkpt>
   <trkpt lat="59.0629707623" lon="30.0247688801"><ele>96.165</ele><time>2026-04-20T17:13:49.076Z</time><hdop>3.75</hdop><vdop>3.562</vdop><extensions><gom:speed>0.0</gom:speed></extensions></trkpt>
   <trkpt lat="59.0629708881" lon="30.0247688801"><ele>96.155</ele><time>2026-04-20T17:13:50.075Z</time><hdop>3.75</hdop><vdop>3.375</vdop><extensions><gom:speed>0.0</gom:speed></extensions></trkpt>
   <trkpt lat="59.0629714748" lon="30.0247686286"><ele>96.114</ele><time>2026-04-20T17:13:51.075Z</time><hdop>3.75</hdop><vdop>3.312</vdop><extensions><gom:speed>0.0</gom:speed></extensions></trkpt>
   <trkpt lat="59.0629721873" lon="30.0247683771"><ele>96.04</ele><time>2026-04-20T17:13:52.076Z</time><hdop>3.75</hdop><vdop>3.437</vdop><extensions><gom:speed>0.0</gom:speed></extensions></trkpt>
   <trkpt lat="59.0629723968" lon="30.024768461"><ele>95.985</ele><time>2026-04-20T17:13:53.075Z</time><hdop>3.75</hdop><vdop>3.687</vdop><extensions><gom:speed>0.0</gom:speed></extensions></trkpt>
   <trkpt lat="59.06297927" lon="30.0247612525"><ele>95.952</ele><time>2026-04-20T17:13:53.998Z</time><hdop>3.625</hdop><vdop>3.687</vdop><extensions><gom:speed>0.332</gom:speed></extensions></trkpt>
   <trkpt lat="59.0629787671" lon="30.0247618393"><ele>95.872</ele><time>2026-04-20T17:13:55.075Z</time><hdop>3.437</hdop><vdop>3.75</vdop><extensions><gom:speed>0.242</gom:speed></extensions></trkpt>
   <trkpt lat="59.0629780965" lon="30.0247606658"><ele>95.811</ele><time>2026-04-20T17:13:56.075Z</time><hdop>3.312</hdop><vdop>3.625</vdop><extensions><gom:speed>0.194</gom:speed></extensions></trkpt>
   <trkpt lat="59.0629776774" lon="30.0247601629"><ele>95.748</ele><time>2026-04-20T17:13:57.075Z</time><hdop>3.187</hdop><vdop>3.687</vdop><extensions><gom:speed>0.183</gom:speed></extensions></trkpt>
   <trkpt lat="59.0629777612" lon="30.0247593247"><ele>95.71</ele><time>2026-04-20T17:13:57.775Z</time><hdop>3.062</hdop><vdop>3.687</vdop><extensions><gom:speed>0.188</gom:speed></extensions></trkpt>
   <trkpt lat="59.062977384" lon="30.0247609173"><ele>95.679</ele><time>2026-04-20T17:13:58.428Z</time><hdop>3.0</hdop><vdop>3.687</vdop><extensions><gom:speed>0.151</gom:speed></extensions></trkpt>
   <trkpt lat="59.0629770907" lon="30.0247617554"><ele>95.648</ele><time>2026-04-20T17:13:59.076Z</time><hdop>3.0</hdop><vdop>3.812</vdop><extensions><gom:speed>0.126</gom:speed></extensions></trkpt>
   <trkpt lat="59.0629835867" lon="30.0247623422"><ele>95.332</ele><time>2026-04-20T17:14:00.075Z</time><hdop>3.0</hdop><vdop>3.312</vdop><extensions><gom:speed>0.227</gom:speed></extensions></trkpt>
   <trkpt lat="59.0629946927" lon="30.0247616716"><ele>94.609</ele><time>2026-04-20T17:14:01.076Z</time><hdop>3.0</hdop><vdop>2.812</vdop><extensions><gom:speed>0.358</gom:speed></extensions></trkpt>
   <trkpt lat="59.0630098639" lon="30.0247619231"><ele>94.047</ele><time>2026-04-20T17:14:02.075Z</time><hdop>3.0</hdop><vdop>2.5</vdop><extensions><gom:speed>0.532</gom:speed></extensions></trkpt>
   <trkpt lat="59.0630295614" lon="30.0247655273"><ele>94.08</ele><time>2026-04-20T17:14:03.075Z</time><hdop>3.0</hdop><vdop>2.5</vdop><extensions><gom:speed>0.668</gom:speed></extensions></trkpt>
   <trkpt lat="59.0630506838" lon="30.0247686286"><ele>94.063</ele><time>2026-04-20T17:14:04.075Z</time><hdop>3.0</hdop><vdop>2.5</vdop><extensions><gom:speed>0.648</gom:speed></extensions></trkpt>
   <trkpt lat="59.0630673638" lon="30.0247752503"><ele>93.965</ele><time>2026-04-20T17:14:05.075Z</time><hdop>3.0</hdop><vdop>2.5</vdop><extensions><gom:speed>0.574</gom:speed></extensions></trkpt>
   <trkpt lat="59.0630772963" lon="30.0247864821"><ele>93.703</ele><time>2026-04-20T17:14:06.075Z</time><hdop>3.0</hdop><vdop>2.5</vdop><extensions><gom:speed>0.58</gom:speed></extensions></trkpt>
   <trkpt lat="59.0630834989" lon="30.0247955345"><ele>93.674</ele><time>2026-04-20T17:14:07.075Z</time><hdop>3.0</hdop><vdop>2.5</vdop><extensions><gom:speed>0.44</gom:speed></extensions></trkpt>
   <trkpt lat="59.0630911684" lon="30.0247939419"><ele>93.825</ele><time>2026-04-20T17:14:08.075Z</time><hdop>3.0</hdop><vdop>4.562</vdop><extensions><gom:speed>0.329</gom:speed></extensions></trkpt>
   <trkpt lat="59.0630979996" lon="30.0247854762"><ele>94.09</ele><time>2026-04-20T17:14:09.075Z</time><hdop>3.0</hdop><vdop>4.625</vdop><extensions><gom:speed>0.26</gom:speed></extensions></trkpt>
   <trkpt lat="59.063101059" lon="30.0247820396"><ele>94.374</ele><time>2026-04-20T17:14:10.075Z</time><hdop>3.0</hdop><vdop>4.437</vdop><extensions><gom:speed>0.204</gom:speed></extensions></trkpt>
   <trkpt lat="59.0631034898" lon="30.0247802794"><ele>94.72</ele><time>2026-04-20T17:14:11.075Z</time><hdop>3.0</hdop><vdop>4.437</vdop><extensions><gom:speed>0.158</gom:speed></extensions></trkpt>
   <trkpt lat="59.0631050823" lon="30.0247791898"><ele>95.107</ele><time>2026-04-20T17:14:12.075Z</time><hdop>3.0</hdop><vdop>4.187</vdop><extensions><gom:speed>0.109</gom:speed></extensions></trkpt>
   <trkpt lat="59.0631054595" lon="30.0247795251"><ele>95.447</ele><time>2026-04-20T17:14:13.055Z</time><hdop>3.0</hdop><vdop>4.125</vdop><extensions><gom:speed>0.094</gom:speed></extensions></trkpt>
   <trkpt lat="59.0631076807" lon="30.0247786869"><ele>95.696</ele><time>2026-04-20T17:14:14.075Z</time><hdop>3.0</hdop><vdop>4.0</vdop><extensions><gom:speed>0.125</gom:speed></extensions></trkpt>
   <trkpt lat="59.0631109916" lon="30.024778184"><ele>95.786</ele><time>2026-04-20T17:14:15.075Z</time><hdop>3.062</hdop><vdop>3.875</vdop><extensions><gom:speed>0.151</gom:speed></extensions></trkpt>
   <trkpt lat="59.0631156854" lon="30.0247770943"><ele>95.966</ele><time>2026-04-20T17:14:16.075Z</time><hdop>3.125</hdop><vdop>3.812</vdop><extensions><gom:speed>0.206</gom:speed></extensions></trkpt>
   <trkpt lat="59.0631217623" lon="30.0247749988"><ele>96.219</ele><time>2026-04-20T17:14:17.076Z</time><hdop>3.25</hdop><vdop>3.812</vdop><extensions><gom:speed>0.304</gom:speed></extensions></trkpt>
   <trkpt lat="59.0631281745" lon="30.024773071"><ele>96.382</ele><time>2026-04-20T17:14:18.075Z</time><hdop>3.312</hdop><vdop>3.562</vdop><extensions><gom:speed>0.367</gom:speed></extensions></trkpt>
   <trkpt lat="59.0631346705" lon="30.0247710594"><ele>96.472</ele><time>2026-04-20T17:14:19.075Z</time><hdop>3.437</hdop><vdop>3.375</vdop><extensions><gom:speed>0.384</gom:speed></extensions></trkpt>
   <trkpt lat="59.063139993" lon="30.024769383"><ele>96.459</ele><time>2026-04-20T17:14:20.075Z</time><hdop>3.562</hdop><vdop>3.5</vdop><extensions><gom:speed>0.329</gom:speed></extensions></trkpt>
   <trkpt lat="59.0631455669" lon="30.0247667846"><ele>96.461</ele><time>2026-04-20T17:14:21.076Z</time><hdop>3.75</hdop><vdop>3.375</vdop><extensions><gom:speed>0.324</gom:speed></extensions></trkpt>
   <trkpt lat="59.0631511828" lon="30.0247627613"><ele>96.477</ele><time>2026-04-20T17:14:22.075Z</time><hdop>3.875</hdop><vdop>3.312</vdop><extensions><gom:speed>0.34</gom:speed></extensions></trkpt>
   <trkpt lat="59.0631535716" lon="30.0247616716"><ele>96.487</ele><time>2026-04-20T17:14:22.532Z</time><hdop>4.0</hdop><vdop>3.312</vdop><extensions><gom:speed>0.362</gom:speed></extensions></trkpt>
   <trkpt lat="59.0631584751" lon="30.0247598276"><ele>96.492</ele><time>2026-04-20T17:14:23.075Z</time><hdop>4.0</hdop><vdop>3.25</vdop><extensions><gom:speed>0.385</gom:speed></extensions></trkpt>
   <trkpt lat="59.0631624984" lon="30.0247573969"><ele>96.5</ele><time>2026-04-20T17:14:24.075Z</time><hdop>4.062</hdop><vdop>3.312</vdop><extensions><gom:speed>0.387</gom:speed></extensions></trkpt>
   <trkpt lat="59.063165893" lon="30.0247548823"><ele>96.504</ele><time>2026-04-20T17:14:24.596Z</time><hdop>4.125</hdop><vdop>3.312</vdop><extensions><gom:speed>0.499</gom:speed></extensions></trkpt>
   <trkpt lat="59.0631682819" lon="30.0247528706"><ele>96.515</ele><time>2026-04-20T17:14:25.075Z</time><hdop>4.125</hdop><vdop>3.25</vdop><extensions><gom:speed>0.483</gom:speed></extensions></trkpt>
   <trkpt lat="59.0631716766" lon="30.024751781"><ele>96.522</ele><time>2026-04-20T17:14:25.672Z</time><hdop>4.187</hdop><vdop>3.25</vdop><extensions><gom:speed>0.504</gom:speed></extensions></trkpt>
   <trkpt lat="59.0631772924" lon="30.0247493502"><ele>96.571</ele><time>2026-04-20T17:14:26.738Z</time><hdop>4.25</hdop><vdop>3.437</vdop><extensions><gom:speed>0.512</gom:speed></extensions></trkpt>
   <trkpt lat="59.0631803937" lon="30.0247460813"><ele>96.605</ele><time>2026-04-20T17:14:28.075Z</time><hdop>4.312</hdop><vdop>3.562</vdop><extensions><gom:speed>0.407</gom:speed></extensions></trkpt>
   <trkpt lat="59.0631803937" lon="30.0247456622"><ele>96.625</ele><time>2026-04-20T17:14:28.808Z</time><hdop>4.312</hdop><vdop>3.562</vdop><extensions><gom:speed>0.367</gom:speed></extensions></trkpt>
   <trkpt lat="59.0631783821" lon="30.024744824"><ele>96.634</ele><time>2026-04-20T17:14:30.075Z</time><hdop>4.375</hdop><vdop>3.625</vdop><extensions><gom:speed>0.189</gom:speed></extensions></trkpt>
   <trkpt lat="59.0631769991" lon="30.0247436505"><ele>96.638</ele><time>2026-04-20T17:14:31.076Z</time><hdop>4.312</hdop><vdop>3.625</vdop><extensions><gom:speed>0.157</gom:speed></extensions></trkpt>
   <trkpt lat="59.0631758675" lon="30.0247428962"><ele>96.644</ele><time>2026-04-20T17:14:32.075Z</time><hdop>4.25</hdop><vdop>3.5</vdop><extensions><gom:speed>0.16</gom:speed></extensions></trkpt>
   <trkpt lat="59.0631760771" lon="30.0247424771"><ele>96.648</ele><time>2026-04-20T17:14:32.819Z</time><hdop>4.187</hdop><vdop>3.5</vdop><extensions><gom:speed>0.143</gom:speed></extensions></trkpt>
   <trkpt lat="59.0631759932" lon="30.024742058"><ele>96.688</ele><time>2026-04-20T17:14:34.076Z</time><hdop>4.125</hdop><vdop>3.562</vdop><extensions><gom:speed>0.161</gom:speed></extensions></trkpt>
   <trkpt lat="59.0631763704" lon="30.0247418903"><ele>96.713</ele><time>2026-04-20T17:14:34.968Z</time><hdop>4.062</hdop><vdop>3.562</vdop><extensions><gom:speed>0.167</gom:speed></extensions></trkpt>
   <trkpt lat="59.06317658" lon="30.0247405492"><ele>96.738</ele><time>2026-04-20T17:14:35.799Z</time><hdop>4.0</hdop><vdop>3.5</vdop><extensions><gom:speed>0.159</gom:speed></extensions></trkpt>
   <trkpt lat="59.0631769991" lon="30.0247398787"><ele>96.751</ele><time>2026-04-20T17:14:36.661Z</time><hdop>4.0</hdop><vdop>3.562</vdop><extensions><gom:speed>0.2</gom:speed></extensions></trkpt>
   <trkpt lat="59.0631777953" lon="30.0247408845"><ele>96.762</ele><time>2026-04-20T17:14:37.616Z</time><hdop>4.0</hdop><vdop>3.75</vdop><extensions><gom:speed>0.27</gom:speed></extensions></trkpt>
   <trkpt lat="59.0631778792" lon="30.024742058"><ele>96.77</ele><time>2026-04-20T17:14:38.075Z</time><hdop>4.0</hdop><vdop>3.687</vdop><extensions><gom:speed>0.253</gom:speed></extensions></trkpt>
   <trkpt lat="59.0631818606" lon="30.0247459975"><ele>97.661</ele><time>2026-04-20T17:14:39.075Z</time><hdop>4.0</hdop><vdop>3.125</vdop><extensions><gom:speed>0.334</gom:speed></extensions></trkpt>
   <trkpt lat="59.0631911645" lon="30.0247491826"><ele>98.809</ele><time>2026-04-20T17:14:40.075Z</time><hdop>4.0</hdop><vdop>2.812</vdop><extensions><gom:speed>0.466</gom:speed></extensions></trkpt>
   <trkpt lat="59.0632027734" lon="30.024749937"><ele>100.189</ele><time>2026-04-20T17:14:41.075Z</time><hdop>4.0</hdop><vdop>2.625</vdop><extensions><gom:speed>0.524</gom:speed></extensions></trkpt>
   <trkpt lat="59.0632142985" lon="30.0247468357"><ele>100.624</ele><time>2026-04-20T17:14:42.075Z</time><hdop>4.062</hdop><vdop>2.5</vdop><extensions><gom:speed>0.507</gom:speed></extensions></trkpt>
   <trkpt lat="59.0632255722" lon="30.0247399625"><ele>101.036</ele><time>2026-04-20T17:14:43.075Z</time><hdop>4.125</hdop><vdop>4.562</vdop><extensions><gom:speed>0.503</gom:speed></extensions></trkpt>
   <trkpt lat="59.0632363849" lon="30.024732335"><ele>101.188</ele><time>2026-04-20T17:14:44.075Z</time><hdop>4.187</hdop><vdop>4.687</vdop><extensions><gom:speed>0.501</gom:speed></extensions></trkpt>
   <trkpt lat="59.0632485805" lon="30.0247240369"><ele>101.122</ele><time>2026-04-20T17:14:45.075Z</time><hdop>4.312</hdop><vdop>4.687</vdop><extensions><gom:speed>0.565</gom:speed></extensions></trkpt>
   <trkpt lat="59.0632606924" lon="30.0247167446"><ele>101.167</ele><time>2026-04-20T17:14:46.075Z</time><hdop>4.437</hdop><vdop>4.437</vdop><extensions><gom:speed>0.526</gom:speed></extensions></trkpt>
   <trkpt lat="59.0632658891" lon="30.0247152359"><ele>101.194</ele><time>2026-04-20T17:14:46.678Z</time><hdop>4.5</hdop><vdop>4.437</vdop><extensions><gom:speed>0.528</gom:speed></extensions></trkpt>
   <trkpt lat="59.0632725947" lon="30.024712386"><ele>101.439</ele><time>2026-04-20T17:14:47.351Z</time><hdop>4.562</hdop><vdop>4.312</vdop><extensions><gom:speed>0.472</gom:speed></extensions></trkpt>
   <trkpt lat="59.0632819824" lon="30.0247092847"><ele>101.724</ele><time>2026-04-20T17:14:48.075Z</time><hdop>4.625</hdop><vdop>4.125</vdop><extensions><gom:speed>0.439</gom:speed></extensions></trkpt>
   <trkpt lat="59.0632836588" lon="30.0247082789"><ele>101.895</ele><time>2026-04-20T17:14:48.958Z</time><hdop>4.75</hdop><vdop>4.125</vdop><extensions><gom:speed>0.319</gom:speed></extensions></trkpt>
   <trkpt lat="59.063289568" lon="30.0247041718"><ele>101.96</ele><time>2026-04-20T17:14:49.875Z</time><hdop>4.812</hdop><vdop>3.937</vdop><extensions><gom:speed>0.352</gom:speed></extensions></trkpt>
   <trkpt lat="59.0632971956" lon="30.0246967957"><ele>102.007</ele><time>2026-04-20T17:14:50.814Z</time><hdop>4.875</hdop><vdop>3.875</vdop><extensions><gom:speed>0.436</gom:speed></extensions></trkpt>
   <trkpt lat="59.0633026857" lon="30.0246896711"><ele>101.966</ele><time>2026-04-20T17:14:51.726Z</time><hdop>4.937</hdop><vdop>3.625</vdop><extensions><gom:speed>0.459</gom:speed></extensions></trkpt>
   <trkpt lat="59.0633104809" lon="30.0246856478"><ele>101.931</ele><time>2026-04-20T17:14:52.639Z</time><hdop>4.937</hdop><vdop>3.5</vdop><extensions><gom:speed>0.52</gom:speed></extensions></trkpt>
   <trkpt lat="59.0633179827" lon="30.0246839714"><ele>101.969</ele><time>2026-04-20T17:14:53.499Z</time><hdop>4.937</hdop><vdop>3.25</vdop><extensions><gom:speed>0.55</gom:speed></extensions></trkpt>
   <trkpt lat="59.0633243948" lon="30.0246828817"><ele>101.871</ele><time>2026-04-20T17:14:54.075Z</time><hdop>4.875</hdop><vdop>3.187</vdop><extensions><gom:speed>0.535</gom:speed></extensions></trkpt>
   <trkpt lat="59.0633269932" lon="30.0246819597"><ele>101.812</ele><time>2026-04-20T17:14:54.693Z</time><hdop>4.875</hdop><vdop>3.187</vdop><extensions><gom:speed>0.536</gom:speed></extensions></trkpt>
   <trkpt lat="59.0633329863" lon="30.0246800319"><ele>101.775</ele><time>2026-04-20T17:14:55.723Z</time><hdop>4.875</hdop><vdop>3.25</vdop><extensions><gom:speed>0.548</gom:speed></extensions></trkpt>
   <trkpt lat="59.0633397756" lon="30.0246783555"><ele>101.699</ele><time>2026-04-20T17:14:57.076Z</time><hdop>4.75</hdop><vdop>3.375</vdop><extensions><gom:speed>0.51</gom:speed></extensions></trkpt>
   <trkpt lat="59.0633428769" lon="30.0246765953"><ele>101.665</ele><time>2026-04-20T17:14:58.076Z</time><hdop>4.687</hdop><vdop>3.187</vdop><extensions><gom:speed>0.433</gom:speed></extensions></trkpt>
   <trkpt lat="59.0633449724" lon="30.0246767629"><ele>101.68</ele><time>2026-04-20T17:14:59.075Z</time><hdop>4.687</hdop><vdop>3.25</vdop><extensions><gom:speed>0.349</gom:speed></extensions></trkpt>
   <trkpt lat="59.0633456849" lon="30.0246772659"><ele>101.689</ele><time>2026-04-20T17:14:59.723Z</time><hdop>4.687</hdop><vdop>3.25</vdop><extensions><gom:speed>0.312</gom:speed></extensions></trkpt>
   <trkpt lat="59.0633473612" lon="30.0246774335"><ele>101.682</ele><time>2026-04-20T17:15:00.415Z</time><hdop>4.625</hdop><vdop>3.312</vdop><extensions><gom:speed>0.276</gom:speed></extensions></trkpt>
   <trkpt lat="59.0633482833" lon="30.0246784393"><ele>101.692</ele><time>2026-04-20T17:15:01.075Z</time><hdop>4.625</hdop><vdop>3.25</vdop><extensions><gom:speed>0.277</gom:speed></extensions></trkpt>
   <trkpt lat="59.0633509655" lon="30.0246794452"><ele>101.7</ele><time>2026-04-20T17:15:02.075Z</time><hdop>4.562</hdop><vdop>3.437</vdop><extensions><gom:speed>0.303</gom:speed></extensions></trkpt>
   <trkpt lat="59.0633547792" lon="30.0246805348"><ele>101.704</ele><time>2026-04-20T17:15:03.084Z</time><hdop>4.562</hdop><vdop>3.437</vdop><extensions><gom:speed>0.349</gom:speed></extensions></trkpt>
   <trkpt lat="59.0633566652" lon="30.0246838876"><ele>101.731</ele><time>2026-04-20T17:15:04.075Z</time><hdop>4.5</hdop><vdop>3.5</vdop><extensions><gom:speed>0.342</gom:speed></extensions></trkpt>
   <trkpt lat="59.0633593893" lon="30.024685061"><ele>101.748</ele><time>2026-04-20T17:15:05.075Z</time><hdop>4.5</hdop><vdop>3.375</vdop><extensions><gom:speed>0.375</gom:speed></extensions></trkpt>
   <trkpt lat="59.0633605627" lon="30.024685061"><ele>101.758</ele><time>2026-04-20T17:15:05.883Z</time><hdop>4.437</hdop><vdop>3.375</vdop><extensions><gom:speed>0.39</gom:speed></extensions></trkpt>
   <trkpt lat="59.0633662624" lon="30.0246853963"><ele>101.762</ele><time>2026-04-20T17:15:07.061Z</time><hdop>4.375</hdop><vdop>3.375</vdop><extensions><gom:speed>0.419</gom:speed></extensions></trkpt>
   <trkpt lat="59.0633702858" lon="30.0246868212"><ele>101.768</ele><time>2026-04-20T17:15:07.998Z</time><hdop>4.375</hdop><vdop>3.25</vdop><extensions><gom:speed>0.519</gom:speed></extensions></trkpt>
   <trkpt lat="59.0633731775" lon="30.0246874918"><ele>101.773</ele><time>2026-04-20T17:15:08.858Z</time><hdop>4.375</hdop><vdop>3.25</vdop><extensions><gom:speed>0.536</gom:speed></extensions></trkpt>
   <trkpt lat="59.0633742672" lon="30.0246871565"><ele>101.779</ele><time>2026-04-20T17:15:09.498Z</time><hdop>4.375</hdop><vdop>3.25</vdop><extensions><gom:speed>0.521</gom:speed></extensions></trkpt>
   <trkpt lat="59.0633746863" lon="30.0246863183"><ele>101.781</ele><time>2026-04-20T17:15:10.075Z</time><hdop>4.312</hdop><vdop>3.25</vdop><extensions><gom:speed>0.479</gom:speed></extensions></trkpt>
   <trkpt lat="59.0633764884" lon="30.0246837199"><ele>101.782</ele><time>2026-04-20T17:15:10.596Z</time><hdop>4.312</hdop><vdop>3.25</vdop><extensions><gom:speed>0.514</gom:speed></extensions></trkpt>
   <trkpt lat="59.0633758597" lon="30.0246812892"><ele>101.782</ele><time>2026-04-20T17:15:11.075Z</time><hdop>4.312</hdop><vdop>3.187</vdop><extensions><gom:speed>0.471</gom:speed></extensions></trkpt>
   <trkpt lat="59.0633741833" lon="30.024675338"><ele>101.781</ele><time>2026-04-20T17:15:12.075Z</time><hdop>4.375</hdop><vdop>3.125</vdop><extensions><gom:speed>0.463</gom:speed></extensions></trkpt>
   <trkpt lat="59.0633730937" lon="30.0246711471"><ele>101.78</ele><time>2026-04-20T17:15:13.075Z</time><hdop>4.375</hdop><vdop>3.125</vdop><extensions><gom:speed>0.445</gom:speed></extensions></trkpt>
   <trkpt lat="59.0633736804" lon="30.0246676267"><ele>101.777</ele><time>2026-04-20T17:15:14.075Z</time><hdop>4.312</hdop><vdop>3.125</vdop><extensions><gom:speed>0.457</gom:speed></extensions></trkpt>
   <trkpt lat="59.0633753987" lon="30.0246651959"><ele>101.774</ele><time>2026-04-20T17:15:15.075Z</time><hdop>4.312</hdop><vdop>3.187</vdop><extensions><gom:speed>0.495</gom:speed></extensions></trkpt>
   <trkpt lat="59.0633773685" lon="30.0246649445"><ele>101.776</ele><time>2026-04-20T17:15:16.075Z</time><hdop>4.312</hdop><vdop>3.437</vdop><extensions><gom:speed>0.487</gom:speed></extensions></trkpt>
   <trkpt lat="59.0633792963" lon="30.0246626813"><ele>101.778</ele><time>2026-04-20T17:15:16.675Z</time><hdop>4.312</hdop><vdop>3.437</vdop><extensions><gom:speed>0.488</gom:speed></extensions></trkpt>
   <trkpt lat="59.0633793801" lon="30.0246599991"><ele>101.776</ele><time>2026-04-20T17:15:17.553Z</time><hdop>4.25</hdop><vdop>3.562</vdop><extensions><gom:speed>0.471</gom:speed></extensions></trkpt>
   <trkpt lat="59.0633796735" lon="30.0246579875"><ele>102.021</ele><time>2026-04-20T17:15:18.075Z</time><hdop>4.25</hdop><vdop>3.25</vdop><extensions><gom:speed>0.461</gom:speed></extensions></trkpt>
   <trkpt lat="59.0633825652" lon="30.024653126"><ele>101.451</ele><time>2026-04-20T17:15:19.075Z</time><hdop>4.25</hdop><vdop>2.687</vdop><extensions><gom:speed>0.443</gom:speed></extensions></trkpt>
   <trkpt lat="59.0633864628" lon="30.0246530422"><ele>101.079</ele><time>2026-04-20T17:15:20.076Z</time><hdop>4.25</hdop><vdop>2.5</vdop><extensions><gom:speed>0.375</gom:speed></extensions></trkpt>
   <trkpt lat="59.0633919949" lon="30.02465497"><ele>100.719</ele><time>2026-04-20T17:15:21.075Z</time><hdop>4.25</hdop><vdop>2.5</vdop><extensions><gom:speed>0.361</gom:speed></extensions></trkpt>
   <trkpt lat="59.063393797" lon="30.0246569817"><ele>100.503</ele><time>2026-04-20T17:15:21.541Z</time><hdop>4.312</hdop><vdop>2.5</vdop><extensions><gom:speed>0.331</gom:speed></extensions></trkpt>
   <trkpt lat="59.0633976946" lon="30.0246587419"><ele>100.279</ele><time>2026-04-20T17:15:22.075Z</time><hdop>4.312</hdop><vdop>2.5</vdop><extensions><gom:speed>0.354</gom:speed></extensions></trkpt>
   <trkpt lat="59.0634050707" lon="30.0246601668"><ele>100.19</ele><time>2026-04-20T17:15:23.075Z</time><hdop>4.375</hdop><vdop>2.5</vdop><extensions><gom:speed>0.394</gom:speed></extensions></trkpt>
   <trkpt lat="59.0634083815" lon="30.0246606697"><ele>100.136</ele><time>2026-04-20T17:15:23.554Z</time><hdop>4.375</hdop><vdop>2.5</vdop><extensions><gom:speed>0.4</gom:speed></extensions></trkpt>
   <trkpt lat="59.0634142907" lon="30.0246618432"><ele>100.294</ele><time>2026-04-20T17:15:24.075Z</time><hdop>4.437</hdop><vdop>2.5</vdop><extensions><gom:speed>0.432</gom:speed></extensions></trkpt>
   <trkpt lat="59.0634201581" lon="30.0246635195"><ele>100.388</ele><time>2026-04-20T17:15:24.699Z</time><hdop>4.5</hdop><vdop>2.5</vdop><extensions><gom:speed>0.438</gom:speed></extensions></trkpt>
   <trkpt lat="59.0634352874" lon="30.024662849"><ele>100.611</ele><time>2026-04-20T17:15:26.075Z</time><hdop>4.5</hdop><vdop>2.5</vdop><extensions><gom:speed>0.437</gom:speed></extensions></trkpt>
   <trkpt lat="59.063445681" lon="30.0246588257"><ele>100.657</ele><time>2026-04-20T17:15:27.075Z</time><hdop>4.562</hdop><vdop>4.312</vdop><extensions><gom:speed>0.406</gom:speed></extensions></trkpt>
   <trkpt lat="59.0634543982" lon="30.0246545509"><ele>100.817</ele><time>2026-04-20T17:15:28.075Z</time><hdop>4.625</hdop><vdop>4.062</vdop><extensions><gom:speed>0.296</gom:speed></extensions></trkpt>
   <trkpt lat="59.0634565774" lon="30.0246505276"><ele>100.913</ele><time>2026-04-20T17:15:28.817Z</time><hdop>4.75</hdop><vdop>4.062</vdop><extensions><gom:speed>0.24</gom:speed></extensions></trkpt>
   <trkpt lat="59.0634719582" lon="30.0246438221"><ele>101.179</ele><time>2026-04-20T17:15:30.076Z</time><hdop>4.812</hdop><vdop>3.937</vdop><extensions><gom:speed>0.221</gom:speed></extensions></trkpt>
   <trkpt lat="59.0634740956" lon="30.0246430677"><ele>101.338</ele><time>2026-04-20T17:15:30.638Z</time><hdop>4.812</hdop><vdop>3.937</vdop><extensions><gom:speed>0.203</gom:speed></extensions></trkpt>
   <trkpt lat="59.0634865847" lon="30.0246411399"><ele>101.338</ele><time>2026-04-20T17:15:31.699Z</time><hdop>4.875</hdop><vdop>4.0</vdop><extensions><gom:speed>0.198</gom:speed></extensions></trkpt>
   <trkpt lat="59.0634947989" lon="30.0246412237"><ele>101.421</ele><time>2026-04-20T17:15:32.635Z</time><hdop>4.812</hdop><vdop>4.0</vdop><extensions><gom:speed>0.198</gom:speed></extensions></trkpt>
   <trkpt lat="59.0635023845" lon="30.024641056"><ele>101.389</ele><time>2026-04-20T17:15:33.455Z</time><hdop>4.625</hdop><vdop>3.875</vdop><extensions><gom:speed>0.214</gom:speed></extensions></trkpt>
   <trkpt lat="59.0635073718" lon="30.024640134"><ele>101.35</ele><time>2026-04-20T17:15:34.076Z</time><hdop>4.5</hdop><vdop>3.75</vdop><extensions><gom:speed>0.222</gom:speed></extensions></trkpt>
   <trkpt lat="59.0635138678" lon="30.02463829"><ele>101.406</ele><time>2026-04-20T17:15:35.076Z</time><hdop>4.25</hdop><vdop>3.687</vdop><extensions><gom:speed>0.283</gom:speed></extensions></trkpt>
   <trkpt lat="59.0635199865" lon="30.0246354402"><ele>101.538</ele><time>2026-04-20T17:15:36.075Z</time><hdop>4.062</hdop><vdop>3.625</vdop><extensions><gom:speed>0.32</gom:speed></extensions></trkpt>
   <trkpt lat="59.0635229621" lon="30.0246341829"><ele>101.616</ele><time>2026-04-20T17:15:36.798Z</time><hdop>3.937</hdop><vdop>3.625</vdop><extensions><gom:speed>0.367</gom:speed></extensions></trkpt>
   <trkpt lat="59.0635293743" lon="30.0246318359"><ele>101.709</ele><time>2026-04-20T17:15:37.254Z</time><hdop>3.75</hdop><vdop>3.562</vdop><extensions><gom:speed>0.407</gom:speed></extensions></trkpt>
   <trkpt lat="59.0635348644" lon="30.0246296566"><ele>101.759</ele><time>2026-04-20T17:15:38.075Z</time><hdop>3.687</hdop><vdop>3.625</vdop><extensions><gom:speed>0.483</gom:speed></extensions></trkpt>
   <trkpt lat="59.0635411928" lon="30.0246262201"><ele>101.792</ele><time>2026-04-20T17:15:39.075Z</time><hdop>3.625</hdop><vdop>3.687</vdop><extensions><gom:speed>0.493</gom:speed></extensions></trkpt>
   <trkpt lat="59.0635454675" lon="30.0246199336"><ele>101.811</ele><time>2026-04-20T17:15:40.075Z</time><hdop>3.625</hdop><vdop>3.687</vdop><extensions><gom:speed>0.444</gom:speed></extensions></trkpt>
   <trkpt lat="59.0635492813" lon="30.0246147369"><ele>101.82</ele><time>2026-04-20T17:15:41.075Z</time><hdop>3.75</hdop><vdop>3.687</vdop><extensions><gom:speed>0.404</gom:speed></extensions></trkpt>
   <trkpt lat="59.0635510834" lon="30.0246129767"><ele>101.826</ele><time>2026-04-20T17:15:41.540Z</time><hdop>3.875</hdop><vdop>3.687</vdop><extensions><gom:speed>0.415</gom:speed></extensions></trkpt>
   <trkpt lat="59.0635528855" lon="30.0246117194"><ele>101.856</ele><time>2026-04-20T17:15:42.076Z</time><hdop>3.875</hdop><vdop>3.687</vdop><extensions><gom:speed>0.402</gom:speed></extensions></trkpt>
   <trkpt lat="59.0635571603" lon="30.0246088695"><ele>101.863</ele><time>2026-04-20T17:15:43.075Z</time><hdop>3.937</hdop><vdop>3.625</vdop><extensions><gom:speed>0.409</gom:speed></extensions></trkpt>
   <trkpt lat="59.0635602616" lon="30.0246103783"><ele>101.867</ele><time>2026-04-20T17:15:44.075Z</time><hdop>4.062</hdop><vdop>3.562</vdop><extensions><gom:speed>0.362</gom:speed></extensions></trkpt>
   <trkpt lat="59.0635627762" lon="30.0246139825"><ele>101.865</ele><time>2026-04-20T17:15:45.075Z</time><hdop>4.062</hdop><vdop>3.687</vdop><extensions><gom:speed>0.374</gom:speed></extensions></trkpt>
   <trkpt lat="59.0635643687" lon="30.0246165809"><ele>101.817</ele><time>2026-04-20T17:15:46.076Z</time><hdop>4.125</hdop><vdop>3.75</vdop><extensions><gom:speed>0.359</gom:speed></extensions></trkpt>
   <trkpt lat="59.0635663804" lon="30.0246168323"><ele>101.786</ele><time>2026-04-20T17:15:47.076Z</time><hdop>4.125</hdop><vdop>3.75</vdop><extensions><gom:speed>0.364</gom:speed></extensions></trkpt>
   <trkpt lat="59.0635684759" lon="30.0246170838"><ele>101.768</ele><time>2026-04-20T17:15:48.075Z</time><hdop>4.187</hdop><vdop>3.625</vdop><extensions><gom:speed>0.37</gom:speed></extensions></trkpt>
   <trkpt lat="59.0635679729" lon="30.0246183411"><ele>101.761</ele><time>2026-04-20T17:15:49.076Z</time><hdop>4.25</hdop><vdop>3.5</vdop><extensions><gom:speed>0.309</gom:speed></extensions></trkpt>
   <trkpt lat="59.0635691883" lon="30.024619766"><ele>101.757</ele><time>2026-04-20T17:15:49.684Z</time><hdop>4.25</hdop><vdop>3.5</vdop><extensions><gom:speed>0.305</gom:speed></extensions></trkpt>
   <trkpt lat="59.063569775" lon="30.0246195984"><ele>101.709</ele><time>2026-04-20T17:15:50.700Z</time><hdop>4.312</hdop><vdop>3.375</vdop><extensions><gom:speed>0.315</gom:speed></extensions></trkpt>
   <trkpt lat="59.0635689788" lon="30.0246157427"><ele>101.679</ele><time>2026-04-20T17:15:52.075Z</time><hdop>4.312</hdop><vdop>3.625</vdop><extensions><gom:speed>0.26</gom:speed></extensions></trkpt>
   <trkpt lat="59.0635681825" lon="30.0246158265"><ele>101.656</ele><time>2026-04-20T17:15:53.075Z</time><hdop>4.312</hdop><vdop>3.75</vdop><extensions><gom:speed>0.201</gom:speed></extensions></trkpt>
   <trkpt lat="59.0635675958" lon="30.0246163294"><ele>101.671</ele><time>2026-04-20T17:15:54.075Z</time><hdop>4.312</hdop><vdop>3.75</vdop><extensions><gom:speed>0.193</gom:speed></extensions></trkpt>
   <trkpt lat="59.0635665899" lon="30.0246149883"><ele>101.679</ele><time>2026-04-20T17:15:55.076Z</time><hdop>4.312</hdop><vdop>4.0</vdop><extensions><gom:speed>0.181</gom:speed></extensions></trkpt>
   <trkpt lat="59.0635661708" lon="30.0246148207"><ele>101.714</ele><time>2026-04-20T17:15:56.076Z</time><hdop>4.25</hdop><vdop>4.062</vdop><extensions><gom:speed>0.174</gom:speed></extensions></trkpt>
   <trkpt lat="59.0635667995" lon="30.0246152398"><ele>101.747</ele><time>2026-04-20T17:15:57.076Z</time><hdop>4.25</hdop><vdop>4.0</vdop><extensions><gom:speed>0.205</gom:speed></extensions></trkpt>
   <trkpt lat="59.063568392" lon="30.0246153236"><ele>101.767</ele><time>2026-04-20T17:15:58.053Z</time><hdop>4.187</hdop><vdop>4.0</vdop><extensions><gom:speed>0.206</gom:speed></extensions></trkpt>
   <trkpt lat="59.063568392" lon="30.0246162456"><ele>101.781</ele><time>2026-04-20T17:15:59.075Z</time><hdop>4.187</hdop><vdop>4.062</vdop><extensions><gom:speed>0.232</gom:speed></extensions></trkpt>
   <trkpt lat="59.0635691883" lon="30.0246181734"><ele>101.791</ele><time>2026-04-20T17:16:00.075Z</time><hdop>4.125</hdop><vdop>4.062</vdop><extensions><gom:speed>0.272</gom:speed></extensions></trkpt>
   <trkpt lat="59.0635707809" lon="30.0246200175"><ele>101.796</ele><time>2026-04-20T17:16:01.075Z</time><hdop>4.125</hdop><vdop>3.937</vdop><extensions><gom:speed>0.298</gom:speed></extensions></trkpt>
   <trkpt lat="59.0635715772" lon="30.0246203527"><ele>101.799</ele><time>2026-04-20T17:16:01.554Z</time><hdop>4.125</hdop><vdop>3.937</vdop><extensions><gom:speed>0.302</gom:speed></extensions></trkpt>
   <trkpt lat="59.0635723734" lon="30.0246214424"><ele>101.801</ele><time>2026-04-20T17:16:02.075Z</time><hdop>4.125</hdop><vdop>3.75</vdop><extensions><gom:speed>0.287</gom:speed></extensions></trkpt>
   <trkpt lat="59.0635734631" lon="30.024622532"><ele>101.793</ele><time>2026-04-20T17:16:03.075Z</time><hdop>4.125</hdop><vdop>3.562</vdop><extensions><gom:speed>0.336</gom:speed></extensions></trkpt>
   <trkpt lat="59.0635752652" lon="30.0246235379"><ele>101.789</ele><time>2026-04-20T17:16:03.620Z</time><hdop>4.187</hdop><vdop>3.562</vdop><extensions><gom:speed>0.344</gom:speed></extensions></trkpt>
   <trkpt lat="59.0635752652" lon="30.0246245437"><ele>101.787</ele><time>2026-04-20T17:16:04.075Z</time><hdop>4.187</hdop><vdop>3.437</vdop><extensions><gom:speed>0.321</gom:speed></extensions></trkpt>
   <trkpt lat="59.0635764806" lon="30.0246251304"><ele>101.786</ele><time>2026-04-20T17:16:05.076Z</time><hdop>4.187</hdop><vdop>3.437</vdop><extensions><gom:speed>0.317</gom:speed></extensions></trkpt>
   <trkpt lat="59.0635756843" lon="30.024624879"><ele>101.783</ele><time>2026-04-20T17:16:06.075Z</time><hdop>4.25</hdop><vdop>3.437</vdop><extensions><gom:speed>0.264</gom:speed></extensions></trkpt>
   <trkpt lat="59.0635768997" lon="30.0246252981"><ele>100.757</ele><time>2026-04-20T17:16:07.076Z</time><hdop>4.25</hdop><vdop>3.0</vdop><extensions><gom:speed>0.302</gom:speed></extensions></trkpt>
   <trkpt lat="59.0635784922" lon="30.0246255495"><ele>100.144</ele><time>2026-04-20T17:16:07.713Z</time><hdop>4.312</hdop><vdop>3.0</vdop><extensions><gom:speed>0.352</gom:speed></extensions></trkpt>
   <trkpt lat="59.063590185" lon="30.024628567"><ele>98.8</ele><time>2026-04-20T17:16:09.020Z</time><hdop>4.375</hdop><vdop>2.5</vdop><extensions><gom:speed>0.481</gom:speed></extensions></trkpt>
   <trkpt lat="59.0635996984" lon="30.0246308301"><ele>98.209</ele><time>2026-04-20T17:16:10.075Z</time><hdop>4.437</hdop><vdop>2.5</vdop><extensions><gom:speed>0.437</gom:speed></extensions></trkpt>
   <trkpt lat="59.0636067812" lon="30.0246286508"><ele>97.904</ele><time>2026-04-20T17:16:11.075Z</time><hdop>4.375</hdop><vdop>2.5</vdop><extensions><gom:speed>0.369</gom:speed></extensions></trkpt>
   <trkpt lat="59.0636075774" lon="30.0246270583"><ele>97.722</ele><time>2026-04-20T17:16:11.578Z</time><hdop>4.375</hdop><vdop>2.5</vdop><extensions><gom:speed>0.27</gom:speed></extensions></trkpt>
   <trkpt lat="59.0636120618" lon="30.0246269744"><ele>97.518</ele><time>2026-04-20T17:16:12.075Z</time><hdop>4.375</hdop><vdop>2.5</vdop><extensions><gom:speed>0.298</gom:speed></extensions></trkpt>
   <trkpt lat="59.0636141991" lon="30.0246266392"><ele>97.397</ele><time>2026-04-20T17:16:12.681Z</time><hdop>4.375</hdop><vdop>2.5</vdop><extensions><gom:speed>0.257</gom:speed></extensions></trkpt>
   <trkpt lat="59.0636212818" lon="30.0246274774"><ele>97.852</ele><time>2026-04-20T17:16:13.599Z</time><hdop>4.312</hdop><vdop>2.5</vdop><extensions><gom:speed>0.25</gom:speed></extensions></trkpt>
   <trkpt lat="59.0636284903" lon="30.0246289861"><ele>98.44</ele><time>2026-04-20T17:16:14.075Z</time><hdop>4.25</hdop><vdop>2.5</vdop><extensions><gom:speed>0.274</gom:speed></extensions></trkpt>
   <trkpt lat="59.0636297895" lon="30.0246284832"><ele>98.791</ele><time>2026-04-20T17:16:14.677Z</time><hdop>4.187</hdop><vdop>2.5</vdop><extensions><gom:speed>0.242</gom:speed></extensions></trkpt>
   <trkpt lat="59.0636369979" lon="30.0246284832"><ele>99.229</ele><time>2026-04-20T17:16:15.781Z</time><hdop>4.187</hdop><vdop>2.5</vdop><extensions><gom:speed>0.222</gom:speed></extensions></trkpt>
   <trkpt lat="59.0636456732" lon="30.0246310816"><ele>99.199</ele><time>2026-04-20T17:16:16.540Z</time><hdop>4.187</hdop><vdop>2.562</vdop><extensions><gom:speed>0.285</gom:speed></extensions></trkpt>
   <trkpt lat="59.0636481878" lon="30.0246317521"><ele>99.181</ele><time>2026-04-20T17:16:17.034Z</time><hdop>4.25</hdop><vdop>2.562</vdop><extensions><gom:speed>0.315</gom:speed></extensions></trkpt>
   <trkpt lat="59.0636553962" lon="30.0246346858"><ele>99.421</ele><time>2026-04-20T17:16:17.597Z</time><hdop>4.25</hdop><vdop>2.562</vdop><extensions><gom:speed>0.283</gom:speed></extensions></trkpt>
   <trkpt lat="59.0636612635" lon="30.0246372842"><ele>99.547</ele><time>2026-04-20T17:16:18.075Z</time><hdop>4.25</hdop><vdop>2.625</vdop><extensions><gom:speed>0.293</gom:speed></extensions></trkpt>
   <trkpt lat="59.0636649935" lon="30.0246392958"><ele>99.623</ele><time>2026-04-20T17:16:19.059Z</time><hdop>4.25</hdop><vdop>2.625</vdop><extensions><gom:speed>0.254</gom:speed></extensions></trkpt>
   <trkpt lat="59.0636776921" lon="30.0246479292"><ele>98.384</ele><time>2026-04-20T17:16:20.076Z</time><hdop>4.25</hdop><vdop>2.562</vdop><extensions><gom:speed>0.313</gom:speed></extensions></trkpt>
   <trkpt lat="59.0636817992" lon="30.0246514496"><ele>97.644</ele><time>2026-04-20T17:16:20.756Z</time><hdop>4.312</hdop><vdop>2.562</vdop><extensions><gom:speed>0.318</gom:speed></extensions></trkpt>
   <trkpt lat="59.0636892591" lon="30.0246639386"><ele>96.785</ele><time>2026-04-20T17:16:22.075Z</time><hdop>4.312</hdop><vdop>5.687</vdop><extensions><gom:speed>0.219</gom:speed></extensions></trkpt>
   <trkpt lat="59.0636886723" lon="30.0246649445"><ele>96.272</ele><time>2026-04-20T17:16:22.917Z</time><hdop>4.312</hdop><vdop>5.687</vdop><extensions><gom:speed>0.115</gom:speed></extensions></trkpt>
   <trkpt lat="59.0636877922" lon="30.0246651959"><ele>96.459</ele><time>2026-04-20T17:16:23.431Z</time><hdop>4.25</hdop><vdop>5.375</vdop><extensions><gom:speed>0.06</gom:speed></extensions></trkpt>
   <trkpt lat="59.0636915641" lon="30.0246715662"><ele>96.642</ele><time>2026-04-20T17:16:24.075Z</time><hdop>4.25</hdop><vdop>5.125</vdop><extensions><gom:speed>0.105</gom:speed></extensions></trkpt>
   <trkpt lat="59.0636934919" lon="30.0246750866"><ele>96.752</ele><time>2026-04-20T17:16:25.082Z</time><hdop>4.187</hdop><vdop>5.125</vdop><extensions><gom:speed>0.127</gom:speed></extensions></trkpt>
   <trkpt lat="59.0636936596" lon="30.0246758409"><ele>96.81</ele><time>2026-04-20T17:16:26.073Z</time><hdop>4.187</hdop><vdop>4.687</vdop><extensions><gom:speed>0.133</gom:speed></extensions></trkpt>
   <trkpt lat="59.0636939949" lon="30.024677182"><ele>96.844</ele><time>2026-04-20T17:16:27.055Z</time><hdop>4.187</hdop><vdop>4.687</vdop><extensions><gom:speed>0.123</gom:speed></extensions></trkpt>
   <trkpt lat="59.0636942882" lon="30.0246788584"><ele>96.785</ele><time>2026-04-20T17:16:28.059Z</time><hdop>4.25</hdop><vdop>4.562</vdop><extensions><gom:speed>0.136</gom:speed></extensions></trkpt>
   <trkpt lat="59.0636945816" lon="30.0246801995"><ele>96.737</ele><time>2026-04-20T17:16:28.938Z</time><hdop>4.375</hdop><vdop>4.437</vdop><extensions><gom:speed>0.182</gom:speed></extensions></trkpt>
   <trkpt lat="59.063699485" lon="30.0246900902"><ele>96.631</ele><time>2026-04-20T17:16:30.075Z</time><hdop>4.5</hdop><vdop>4.312</vdop><extensions><gom:speed>0.205</gom:speed></extensions></trkpt>
   <trkpt lat="59.0637010776" lon="30.0246934429"><ele>96.568</ele><time>2026-04-20T17:16:30.695Z</time><hdop>4.625</hdop><vdop>4.312</vdop><extensions><gom:speed>0.217</gom:speed></extensions></trkpt>
   <trkpt lat="59.0637028797" lon="30.0246999808"><ele>96.598</ele><time>2026-04-20T17:16:31.995Z</time><hdop>4.687</hdop><vdop>4.375</vdop><extensions><gom:speed>0.287</gom:speed></extensions></trkpt>
   <trkpt lat="59.0637037598" lon="30.0247050938"><ele>96.616</ele><time>2026-04-20T17:16:32.943Z</time><hdop>4.812</hdop><vdop>4.375</vdop><extensions><gom:speed>0.337</gom:speed></extensions></trkpt>
   <trkpt lat="59.0637067773" lon="30.0247337599"><ele>96.584</ele><time>2026-04-20T17:16:34.010Z</time><hdop>5.062</hdop><vdop>4.437</vdop><extensions><gom:speed>0.66</gom:speed></extensions></trkpt>
   <trkpt lat="59.0637083698" lon="30.0247544632"><ele>96.539</ele><time>2026-04-20T17:16:35.075Z</time><hdop>5.25</hdop><vdop>4.437</vdop><extensions><gom:speed>0.725</gom:speed></extensions></trkpt>
   <trkpt lat="59.0637104653" lon="30.0247645215"><ele>96.512</ele><time>2026-04-20T17:16:35.837Z</time><hdop>5.5</hdop><vdop>4.437</vdop><extensions><gom:speed>0.729</gom:speed></extensions></trkpt>
   <trkpt lat="59.0637139857" lon="30.0247727357"><ele>96.578</ele><time>2026-04-20T17:16:36.970Z</time><hdop>5.937</hdop><vdop>4.062</vdop><extensions><gom:speed>0.6</gom:speed></extensions></trkpt>
   <trkpt lat="59.0637142791" lon="30.024756391"><ele>96.522</ele><time>2026-04-20T17:16:38.037Z</time><hdop>6.25</hdop><vdop>3.812</vdop><extensions><gom:speed>0.288</gom:speed></extensions></trkpt>
   <trkpt lat="59.0637148658" lon="30.0247493502"><ele>96.394</ele><time>2026-04-20T17:16:38.983Z</time><hdop>6.437</hdop><vdop>3.687</vdop><extensions><gom:speed>0.301</gom:speed></extensions></trkpt>
   <trkpt lat="59.0637143629" lon="30.024751781"><ele>96.318</ele><time>2026-04-20T17:16:39.994Z</time><hdop>6.75</hdop><vdop>3.687</vdop><extensions><gom:speed>0.341</gom:speed></extensions></trkpt>
   <trkpt lat="59.0637174642" lon="30.0247464166"><ele>96.122</ele><time>2026-04-20T17:16:41.076Z</time><hdop>6.75</hdop><vdop>3.562</vdop><extensions><gom:speed>0.232</gom:speed></extensions></trkpt>
   <trkpt lat="59.0637175899" lon="30.0247459975"><ele>95.987</ele><time>2026-04-20T17:16:42.063Z</time><hdop>6.687</hdop><vdop>3.937</vdop><extensions><gom:speed>0.209</gom:speed></extensions></trkpt>
   <trkpt lat="59.0637206912" lon="30.0247474224"><ele>95.855</ele><time>2026-04-20T17:16:43.075Z</time><hdop>6.375</hdop><vdop>3.812</vdop><extensions><gom:speed>0.18</gom:speed></extensions></trkpt>
   <trkpt lat="59.0637242954" lon="30.0247485959"><ele>95.761</ele><time>2026-04-20T17:16:44.076Z</time><hdop>6.125</hdop><vdop>3.875</vdop><extensions><gom:speed>0.173</gom:speed></extensions></trkpt>
   <trkpt lat="59.0637266843" lon="30.0247511942"><ele>95.638</ele><time>2026-04-20T17:16:45.075Z</time><hdop>5.437</hdop><vdop>4.0</vdop><extensions><gom:speed>0.164</gom:speed></extensions></trkpt>
   <trkpt lat="59.0637290731" lon="30.0247556367"><ele>95.501</ele><time>2026-04-20T17:16:46.075Z</time><hdop>5.062</hdop><vdop>4.062</vdop><extensions><gom:speed>0.176</gom:speed></extensions></trkpt>
   <trkpt lat="59.0637311686" lon="30.0247594923"><ele>95.381</ele><time>2026-04-20T17:16:47.075Z</time><hdop>4.937</hdop><vdop>3.875</vdop><extensions><gom:speed>0.215</gom:speed></extensions></trkpt>
   <trkpt lat="59.0637331803" lon="30.0247626775"><ele>95.283</ele><time>2026-04-20T17:16:48.075Z</time><hdop>4.75</hdop><vdop>3.875</vdop><extensions><gom:speed>0.239</gom:speed></extensions></trkpt>
   <trkpt lat="59.0637356948" lon="30.0247630965"><ele>95.224</ele><time>2026-04-20T17:16:48.995Z</time><hdop>4.625</hdop><vdop>3.875</vdop><extensions><gom:speed>0.274</gom:speed></extensions></trkpt>
   <trkpt lat="59.0637391733" lon="30.0247610849"><ele>95.163</ele><time>2026-04-20T17:16:49.799Z</time><hdop>4.562</hdop><vdop>3.812</vdop><extensions><gom:speed>0.359</gom:speed></extensions></trkpt>
   <trkpt lat="59.0637446635" lon="30.0247568939"><ele>95.151</ele><time>2026-04-20T17:16:50.594Z</time><hdop>4.5</hdop><vdop>3.75</vdop><extensions><gom:speed>0.52</gom:speed></extensions></trkpt>
   <trkpt lat="59.0637467589" lon="30.0247550499"><ele>95.132</ele><time>2026-04-20T17:16:51.075Z</time><hdop>4.5</hdop><vdop>3.875</vdop><extensions><gom:speed>0.501</gom:speed></extensions></trkpt>
   <trkpt lat="59.063749064" lon="30.0247538765"><ele>95.121</ele><time>2026-04-20T17:16:51.539Z</time><hdop>4.562</hdop><vdop>3.875</vdop><extensions><gom:speed>0.531</gom:speed></extensions></trkpt>
   <trkpt lat="59.0637518719" lon="30.0247531221"><ele>95.112</ele><time>2026-04-20T17:16:52.076Z</time><hdop>4.562</hdop><vdop>3.937</vdop><extensions><gom:speed>0.512</gom:speed></extensions></trkpt>
   <trkpt lat="59.0637577811" lon="30.0247530383"><ele>95.107</ele><time>2026-04-20T17:16:52.856Z</time><hdop>4.562</hdop><vdop>3.937</vdop><extensions><gom:speed>0.644</gom:speed></extensions></trkpt>
   <trkpt lat="59.0637632713" lon="30.0247561396"><ele>95.102</ele><time>2026-04-20T17:16:53.596Z</time><hdop>4.562</hdop><vdop>3.875</vdop><extensions><gom:speed>0.748</gom:speed></extensions></trkpt>
   <trkpt lat="59.0637645705" lon="30.0247599952"><ele>95.097</ele><time>2026-04-20T17:16:54.075Z</time><hdop>4.562</hdop><vdop>3.75</vdop><extensions><gom:speed>0.717</gom:speed></extensions></trkpt>
   <trkpt lat="59.0637685938" lon="30.0247628451"><ele>95.092</ele><time>2026-04-20T17:16:55.075Z</time><hdop>4.562</hdop><vdop>3.875</vdop><extensions><gom:speed>0.686</gom:speed></extensions></trkpt>
   <trkpt lat="59.0637736648" lon="30.0247593247"><ele>95.089</ele><time>2026-04-20T17:16:55.856Z</time><hdop>4.625</hdop><vdop>3.875</vdop><extensions><gom:speed>0.749</gom:speed></extensions></trkpt>
   <trkpt lat="59.0637760956" lon="30.0247538765"><ele>95.086</ele><time>2026-04-20T17:16:56.655Z</time><hdop>4.625</hdop><vdop>3.937</vdop><extensions><gom:speed>0.818</gom:speed></extensions></trkpt>
   <trkpt lat="59.0637776882" lon="30.0247490988"><ele>95.082</ele><time>2026-04-20T17:16:57.476Z</time><hdop>4.625</hdop><vdop>4.125</vdop><extensions><gom:speed>0.832</gom:speed></extensions></trkpt>
   <trkpt lat="59.0637820887" lon="30.0247424771"><ele>95.077</ele><time>2026-04-20T17:16:57.935Z</time><hdop>4.687</hdop><vdop>4.187</vdop><extensions><gom:speed>0.841</gom:speed></extensions></trkpt>
   <trkpt lat="59.0637887942" lon="30.0247365259"><ele>95.074</ele><time>2026-04-20T17:16:59.036Z</time><hdop>4.75</hdop><vdop>4.187</vdop><extensions><gom:speed>0.862</gom:speed></extensions></trkpt>
   <trkpt lat="59.063791183" lon="30.0247377832"><ele>95.072</ele><time>2026-04-20T17:16:59.964Z</time><hdop>4.875</hdop><vdop>4.125</vdop><extensions><gom:speed>0.846</gom:speed></extensions></trkpt>
   <trkpt lat="59.063791183" lon="30.0247430638"><ele>95.074</ele><time>2026-04-20T17:17:00.821Z</time><hdop>4.937</hdop><vdop>4.0</vdop><extensions><gom:speed>0.813</gom:speed></extensions></trkpt>
   <trkpt lat="59.0637896743" lon="30.0247474224"><ele>95.077</ele><time>2026-04-20T17:17:01.699Z</time><hdop>5.0</hdop><vdop>3.937</vdop><extensions><gom:speed>0.712</gom:speed></extensions></trkpt>
   <trkpt lat="59.0637878722" lon="30.0247516972"><ele>95.086</ele><time>2026-04-20T17:17:02.597Z</time><hdop>5.125</hdop><vdop>3.937</vdop><extensions><gom:speed>0.638</gom:speed></extensions></trkpt>
   <trkpt lat="59.0637852738" lon="30.0247538765"><ele>95.093</ele><time>2026-04-20T17:17:03.075Z</time><hdop>5.062</hdop><vdop>3.812</vdop><extensions><gom:speed>0.563</gom:speed></extensions></trkpt>
   <trkpt lat="59.0637877884" lon="30.0247555528"><ele>95.097</ele><time>2026-04-20T17:17:03.556Z</time><hdop>5.125</hdop><vdop>3.812</vdop><extensions><gom:speed>0.653</gom:speed></extensions></trkpt>
   <trkpt lat="59.0637860701" lon="30.0247581512"><ele>95.099</ele><time>2026-04-20T17:17:04.076Z</time><hdop>5.125</hdop><vdop>3.687</vdop><extensions><gom:speed>0.586</gom:speed></extensions></trkpt>
   <trkpt lat="59.0637841841" lon="30.0247606658"><ele>95.1</ele><time>2026-04-20T17:17:05.075Z</time><hdop>5.125</hdop><vdop>3.562</vdop><extensions><gom:speed>0.547</gom:speed></extensions></trkpt>
   <trkpt lat="59.0637803704" lon="30.0247593247"><ele>95.103</ele><time>2026-04-20T17:17:06.075Z</time><hdop>5.062</hdop><vdop>3.437</vdop><extensions><gom:speed>0.442</gom:speed></extensions></trkpt>
   <trkpt lat="59.0637783587" lon="30.0247565587"><ele>95.102</ele><time>2026-04-20T17:17:07.075Z</time><hdop>5.062</hdop><vdop>3.375</vdop><extensions><gom:speed>0.42</gom:speed></extensions></trkpt>
   <trkpt lat="59.0637822982" lon="30.0247556367"><ele>95.102</ele><time>2026-04-20T17:17:07.859Z</time><hdop>4.937</hdop><vdop>3.375</vdop><extensions><gom:speed>0.537</gom:speed></extensions></trkpt>
   <trkpt lat="59.0637824658" lon="30.0247573969"><ele>95.103</ele><time>2026-04-20T17:17:08.638Z</time><hdop>4.812</hdop><vdop>3.375</vdop><extensions><gom:speed>0.59</gom:speed></extensions></trkpt>
   <trkpt lat="59.0637826754" lon="30.0247614202"><ele>95.113</ele><time>2026-04-20T17:17:09.581Z</time><hdop>4.75</hdop><vdop>3.375</vdop><extensions><gom:speed>0.621</gom:speed></extensions></trkpt>
   <trkpt lat="59.0637815857" lon="30.024762426"><ele>95.111</ele><time>2026-04-20T17:17:10.075Z</time><hdop>4.687</hdop><vdop>3.312</vdop><extensions><gom:speed>0.572</gom:speed></extensions></trkpt>
   <trkpt lat="59.0637811666" lon="30.0247625936"><ele>95.111</ele><time>2026-04-20T17:17:11.076Z</time><hdop>4.562</hdop><vdop>3.312</vdop><extensions><gom:speed>0.534</gom:speed></extensions></trkpt>
   <trkpt lat="59.0637839746" lon="30.0247638509"><ele>95.127</ele><time>2026-04-20T17:17:12.075Z</time><hdop>4.5</hdop><vdop>3.187</vdop><extensions><gom:speed>0.756</gom:speed></extensions></trkpt>
   <trkpt lat="59.0637868663" lon="30.0247626775"><ele>95.153</ele><time>2026-04-20T17:17:13.075Z</time><hdop>4.437</hdop><vdop>3.25</vdop><extensions><gom:speed>0.828</gom:speed></extensions></trkpt>
   <trkpt lat="59.0637885846" lon="30.0247564748"><ele>95.171</ele><time>2026-04-20T17:17:14.075Z</time><hdop>4.437</hdop><vdop>3.187</vdop><extensions><gom:speed>0.758</gom:speed></extensions></trkpt>
   <trkpt lat="59.0637890875" lon="30.0247469195"><ele>95.176</ele><time>2026-04-20T17:17:15.075Z</time><hdop>4.5</hdop><vdop>3.125</vdop><extensions><gom:speed>0.719</gom:speed></extensions></trkpt>
   <trkpt lat="59.0637880817" lon="30.024736023"><ele>95.175</ele><time>2026-04-20T17:17:16.075Z</time><hdop>4.5</hdop><vdop>3.0</vdop><extensions><gom:speed>0.664</gom:speed></extensions></trkpt>
   <trkpt lat="59.0637903867" lon="30.0247258809"><ele>95.174</ele><time>2026-04-20T17:17:17.041Z</time><hdop>4.562</hdop><vdop>3.0</vdop><extensions><gom:speed>0.71</gom:speed></extensions></trkpt>
   <trkpt lat="59.0637872854" lon="30.0247260485"><ele>93.927</ele><time>2026-04-20T17:17:18.075Z</time><hdop>4.562</hdop><vdop>3.125</vdop><extensions><gom:speed>0.541</gom:speed></extensions></trkpt>
   <trkpt lat="59.0637873693" lon="30.0247319997"><ele>92.644</ele><time>2026-04-20T17:17:19.075Z</time><hdop>4.562</hdop><vdop>2.875</vdop><extensions><gom:speed>0.491</gom:speed></extensions></trkpt>
   <trkpt lat="59.0637891714" lon="30.024741136"><ele>91.218</ele><time>2026-04-20T17:17:20.075Z</time><hdop>4.562</hdop><vdop>2.562</vdop><extensions><gom:speed>0.448</gom:speed></extensions></trkpt>
   <trkpt lat="59.0637924822" lon="30.0247519486"><ele>89.593</ele><time>2026-04-20T17:17:21.075Z</time><hdop>4.625</hdop><vdop>2.5</vdop><extensions><gom:speed>0.42</gom:speed></extensions></trkpt>
   <trkpt lat="59.0637987686" lon="30.0247619231"><ele>88.617</ele><time>2026-04-20T17:17:22.075Z</time><hdop>4.625</hdop><vdop>2.5</vdop><extensions><gom:speed>0.448</gom:speed></extensions></trkpt>
   <trkpt lat="59.063810168" lon="30.0247735739"><ele>88.276</ele><time>2026-04-20T17:17:23.075Z</time><hdop>4.812</hdop><vdop>2.5</vdop><extensions><gom:speed>0.472</gom:speed></extensions></trkpt>
   <trkpt lat="59.0638192624" lon="30.0247814529"><ele>89.034</ele><time>2026-04-20T17:17:24.075Z</time><hdop>4.937</hdop><vdop>2.5</vdop><extensions><gom:speed>0.489</gom:speed></extensions></trkpt>
   <trkpt lat="59.0638302846" lon="30.0247891643"><ele>90.153</ele><time>2026-04-20T17:17:25.076Z</time><hdop>5.062</hdop><vdop>2.5</vdop><extensions><gom:speed>0.467</gom:speed></extensions></trkpt>
   <trkpt lat="59.0638370739" lon="30.0247862306"><ele>90.822</ele><time>2026-04-20T17:17:26.022Z</time><hdop>5.187</hdop><vdop>2.5</vdop><extensions><gom:speed>0.554</gom:speed></extensions></trkpt>
   <trkpt lat="59.0638472999" lon="30.0247893319"><ele>91.276</ele><time>2026-04-20T17:17:26.840Z</time><hdop>5.25</hdop><vdop>2.5</vdop><extensions><gom:speed>0.603</gom:speed></extensions></trkpt>
   <trkpt lat="59.063860669" lon="30.0247965403"><ele>91.924</ele><time>2026-04-20T17:17:27.777Z</time><hdop>5.125</hdop><vdop>2.5</vdop><extensions><gom:speed>0.687</gom:speed></extensions></trkpt>
   <trkpt lat="59.0638728647" lon="30.0248105381"><ele>92.459</ele><time>2026-04-20T17:17:28.696Z</time><hdop>4.875</hdop><vdop>2.5</vdop><extensions><gom:speed>0.724</gom:speed></extensions></trkpt>
   <trkpt lat="59.0638834678" lon="30.0248294812"><ele>93.8</ele><time>2026-04-20T17:17:29.742Z</time><hdop>4.562</hdop><vdop>2.5</vdop><extensions><gom:speed>0.739</gom:speed></extensions></trkpt>
   <trkpt lat="59.0638952863" lon="30.0248420541"><ele>94.714</ele><time>2026-04-20T17:17:30.761Z</time><hdop>4.312</hdop><vdop>2.5</vdop><extensions><gom:speed>0.713</gom:speed></extensions></trkpt>
   <trkpt lat="59.0639087811" lon="30.0248534535"><ele>94.971</ele><time>2026-04-20T17:17:31.834Z</time><hdop>4.062</hdop><vdop>2.5</vdop><extensions><gom:speed>0.727</gom:speed></extensions></trkpt>
   <trkpt lat="59.0639284786" lon="30.024865691"><ele>94.768</ele><time>2026-04-20T17:17:33.075Z</time><hdop>3.812</hdop><vdop>2.5</vdop><extensions><gom:speed>0.729</gom:speed></extensions></trkpt>
   <trkpt lat="59.0639408838" lon="30.0248740729"><ele>94.399</ele><time>2026-04-20T17:17:34.076Z</time><hdop>3.75</hdop><vdop>2.5</vdop><extensions><gom:speed>0.684</gom:speed></extensions></trkpt>
   <trkpt lat="59.0639431888" lon="30.0248761684"><ele>94.179</ele><time>2026-04-20T17:17:34.773Z</time><hdop>3.812</hdop><vdop>2.5</vdop><extensions><gom:speed>0.649</gom:speed></extensions></trkpt>
   <trkpt lat="59.0639625929" lon="30.0248903338"><ele>94.276</ele><time>2026-04-20T17:17:36.075Z</time><hdop>3.937</hdop><vdop>3.75</vdop><extensions><gom:speed>0.504</gom:speed></extensions></trkpt>
   <trkpt lat="59.063964898" lon="30.0248883222"><ele>94.334</ele><time>2026-04-20T17:17:36.919Z</time><hdop>4.062</hdop><vdop>3.75</vdop><extensions><gom:speed>0.351</gom:speed></extensions></trkpt>
   <trkpt lat="59.063975082" lon="30.024892094"><ele>94.43</ele><time>2026-04-20T17:17:38.075Z</time><hdop>4.125</hdop><vdop>3.5</vdop><extensions><gom:speed>0.298</gom:speed></extensions></trkpt>
   <trkpt lat="59.0639776804" lon="30.02489025"><ele>94.487</ele><time>2026-04-20T17:17:39.040Z</time><hdop>4.25</hdop><vdop>3.5</vdop><extensions><gom:speed>0.244</gom:speed></extensions></trkpt>
   <trkpt lat="59.0639846793" lon="30.0248952792"><ele>94.464</ele><time>2026-04-20T17:17:40.017Z</time><hdop>4.437</hdop><vdop>3.5</vdop><extensions><gom:speed>0.266</gom:speed></extensions></trkpt>
   <trkpt lat="59.0639953662" lon="30.0249030743"><ele>94.562</ele><time>2026-04-20T17:17:40.935Z</time><hdop>4.5</hdop><vdop>3.5</vdop><extensions><gom:speed>0.413</gom:speed></extensions></trkpt>
   <trkpt lat="59.0640078971" lon="30.0249170721"><ele>94.643</ele><time>2026-04-20T17:17:42.075Z</time><hdop>4.562</hdop><vdop>3.562</vdop><extensions><gom:speed>0.435</gom:speed></extensions></trkpt>
   <trkpt lat="59.064012591" lon="30.0249261246"><ele>94.638</ele><time>2026-04-20T17:17:43.075Z</time><hdop>4.562</hdop><vdop>3.562</vdop><extensions><gom:speed>0.358</gom:speed></extensions></trkpt>
   <trkpt lat="59.064013974" lon="30.0249322434"><ele>94.645</ele><time>2026-04-20T17:17:44.075Z</time><hdop>4.5</hdop><vdop>3.625</vdop><extensions><gom:speed>0.197</gom:speed></extensions></trkpt>
   <trkpt lat="59.0640149798" lon="30.024935177"><ele>94.586</ele><time>2026-04-20T17:17:45.075Z</time><hdop>4.312</hdop><vdop>3.625</vdop><extensions><gom:speed>0.128</gom:speed></extensions></trkpt>
   <trkpt lat="59.0640173687" lon="30.0249372725"><ele>94.49</ele><time>2026-04-20T17:17:46.075Z</time><hdop>4.0</hdop><vdop>3.562</vdop><extensions><gom:speed>0.089</gom:speed></extensions></trkpt>
   <trkpt lat="59.0640195899" lon="30.0249398709"><ele>94.403</ele><time>2026-04-20T17:17:47.075Z</time><hdop>3.875</hdop><vdop>3.562</vdop><extensions><gom:speed>0.109</gom:speed></extensions></trkpt>
   <trkpt lat="59.0640215596" lon="30.024943056"><ele>94.35</ele><time>2026-04-20T17:17:48.076Z</time><hdop>3.625</hdop><vdop>3.5</vdop><extensions><gom:speed>0.063</gom:speed></extensions></trkpt>
   <trkpt lat="59.0640220625" lon="30.0249442295"><ele>94.305</ele><time>2026-04-20T17:17:49.105Z</time><hdop>3.562</hdop><vdop>3.5</vdop><extensions><gom:speed>0.085</gom:speed></extensions></trkpt>
   <trkpt lat="59.0640225655" lon="30.0249461573"><ele>94.278</ele><time>2026-04-20T17:17:49.641Z</time><hdop>3.5</hdop><vdop>3.5</vdop><extensions><gom:speed>0.114</gom:speed></extensions></trkpt>
   <trkpt lat="59.0640232779" lon="30.0249497615"><ele>94.258</ele><time>2026-04-20T17:17:50.501Z</time><hdop>3.437</hdop><vdop>3.687</vdop><extensions><gom:speed>0.19</gom:speed></extensions></trkpt>
   <trkpt lat="59.0640232779" lon="30.0249517732"><ele>94.242</ele><time>2026-04-20T17:17:51.076Z</time><hdop>3.437</hdop><vdop>3.875</vdop><extensions><gom:speed>0.195</gom:speed></extensions></trkpt>
   <trkpt lat="59.064021392" lon="30.0249562994"><ele>94.225</ele><time>2026-04-20T17:17:52.075Z</time><hdop>3.437</hdop><vdop>4.062</vdop><extensions><gom:speed>0.348</gom:speed></extensions></trkpt>
   <trkpt lat="59.0640156923" lon="30.0249632564"><ele>94.215</ele><time>2026-04-20T17:17:52.880Z</time><hdop>3.5</hdop><vdop>4.062</vdop><extensions><gom:speed>0.595</gom:speed></extensions></trkpt>
   <trkpt lat="59.0640121719" lon="30.0249669444"><ele>94.23</ele><time>2026-04-20T17:17:53.369Z</time><hdop>3.562</hdop><vdop>4.125</vdop><extensions><gom:speed>0.632</gom:speed></extensions></trkpt>
   <trkpt lat="59.0640056759" lon="30.0249770865"><ele>94.24</ele><time>2026-04-20T17:17:53.975Z</time><hdop>3.625</hdop><vdop>4.125</vdop><extensions><gom:speed>0.684</gom:speed></extensions></trkpt>
   <trkpt lat="59.0640066818" lon="30.0249860552"><ele>94.231</ele><time>2026-04-20T17:17:54.794Z</time><hdop>3.75</hdop><vdop>3.937</vdop><extensions><gom:speed>0.725</gom:speed></extensions></trkpt>
   <trkpt lat="59.0640068913" lon="30.0249971193"><ele>94.229</ele><time>2026-04-20T17:17:55.613Z</time><hdop>3.937</hdop><vdop>4.25</vdop><extensions><gom:speed>0.815</gom:speed></extensions></trkpt>
   <trkpt lat="59.0640008982" lon="30.0250094407"><ele>94.235</ele><time>2026-04-20T17:17:56.488Z</time><hdop>4.125</hdop><vdop>4.375</vdop><extensions><gom:speed>0.829</gom:speed></extensions></trkpt>
   <trkpt lat="59.0640001858" lon="30.0250100274"><ele>94.232</ele><time>2026-04-20T17:17:57.075Z</time><hdop>4.187</hdop><vdop>4.0</vdop><extensions><gom:speed>0.734</gom:speed></extensions></trkpt>
   <trkpt lat="59.0640012754" lon="30.0250113685"><ele>94.233</ele><time>2026-04-20T17:17:58.075Z</time><hdop>4.437</hdop><vdop>3.875</vdop><extensions><gom:speed>0.622</gom:speed></extensions></trkpt>
   <trkpt lat="59.0640015688" lon="30.0250226841"><ele>94.233</ele><time>2026-04-20T17:17:58.762Z</time><hdop>4.562</hdop><vdop>3.875</vdop><extensions><gom:speed>0.841</gom:speed></extensions></trkpt>
   <trkpt lat="59.0640072685" lon="30.0250249472"><ele>94.263</ele><time>2026-04-20T17:17:59.530Z</time><hdop>4.625</hdop><vdop>3.562</vdop><extensions><gom:speed>0.792</gom:speed></extensions></trkpt>
   <trkpt lat="59.0640169915" lon="30.0250258692"><ele>94.276</ele><time>2026-04-20T17:18:00.075Z</time><hdop>4.687</hdop><vdop>3.375</vdop><extensions><gom:speed>0.788</gom:speed></extensions></trkpt>
   <trkpt lat="59.0640216854" lon="30.0250247796"><ele>94.284</ele><time>2026-04-20T17:18:00.598Z</time><hdop>4.687</hdop><vdop>3.375</vdop><extensions><gom:speed>0.8</gom:speed></extensions></trkpt>
   <trkpt lat="59.064026463" lon="30.0250221812"><ele>94.295</ele><time>2026-04-20T17:18:01.075Z</time><hdop>4.687</hdop><vdop>3.187</vdop><extensions><gom:speed>0.752</gom:speed></extensions></trkpt>
   <trkpt lat="59.0640331686" lon="30.0250236899"><ele>94.312</ele><time>2026-04-20T17:18:02.076Z</time><hdop>4.687</hdop><vdop>3.125</vdop><extensions><gom:speed>0.718</gom:speed></extensions></trkpt>
   <trkpt lat="59.064038072" lon="30.0250233546"><ele>94.321</ele><time>2026-04-20T17:18:03.075Z</time><hdop>4.625</hdop><vdop>3.125</vdop><extensions><gom:speed>0.603</gom:speed></extensions></trkpt>
   <trkpt lat="59.0640420953" lon="30.0250252825"><ele>94.327</ele><time>2026-04-20T17:18:03.914Z</time><hdop>4.625</hdop><vdop>3.125</vdop><extensions><gom:speed>0.602</gom:speed></extensions></trkpt>
   <trkpt lat="59.0640460767" lon="30.0250151404"><ele>94.332</ele><time>2026-04-20T17:18:05.075Z</time><hdop>4.687</hdop><vdop>3.187</vdop><extensions><gom:speed>0.444</gom:speed></extensions></trkpt>
   <trkpt lat="59.0640471663" lon="30.0250131287"><ele>94.335</ele><time>2026-04-20T17:18:05.688Z</time><hdop>4.75</hdop><vdop>3.187</vdop><extensions><gom:speed>0.438</gom:speed></extensions></trkpt>
   <trkpt lat="59.0640516926" lon="30.0250096921"><ele>94.339</ele><time>2026-04-20T17:18:06.620Z</time><hdop>4.812</hdop><vdop>3.312</vdop><extensions><gom:speed>0.45</gom:speed></extensions></trkpt>
   <trkpt lat="59.0640555902" lon="30.0250121229"><ele>94.345</ele><time>2026-04-20T17:18:07.426Z</time><hdop>4.937</hdop><vdop>3.375</vdop><extensions><gom:speed>0.491</gom:speed></extensions></trkpt>
   <trkpt lat="59.0640584819" lon="30.0250145536"><ele>94.349</ele><time>2026-04-20T17:18:07.939Z</time><hdop>4.937</hdop><vdop>3.5</vdop><extensions><gom:speed>0.515</gom:speed></extensions></trkpt>
   <trkpt lat="59.0640639721" lon="30.02501623"><ele>94.361</ele><time>2026-04-20T17:18:09.006Z</time><hdop>5.125</hdop><vdop>3.437</vdop><extensions><gom:speed>0.529</gom:speed></extensions></trkpt>
   <trkpt lat="59.0640684983" lon="30.025013464"><ele>94.368</ele><time>2026-04-20T17:18:09.952Z</time><hdop>5.312</hdop><vdop>3.5</vdop><extensions><gom:speed>0.521</gom:speed></extensions></trkpt>
   <trkpt lat="59.0640716834" lon="30.0250075967"><ele>94.373</ele><time>2026-04-20T17:18:11.018Z</time><hdop>5.562</hdop><vdop>3.687</vdop><extensions><gom:speed>0.525</gom:speed></extensions></trkpt>
   <trkpt lat="59.0640719768" lon="30.0250049983"><ele>94.376</ele><time>2026-04-20T17:18:11.966Z</time><hdop>5.75</hdop><vdop>3.687</vdop><extensions><gom:speed>0.527</gom:speed></extensions></trkpt>
   <trkpt lat="59.0640742818" lon="30.0249902461"><ele>94.379</ele><time>2026-04-20T17:18:13.015Z</time><hdop>6.062</hdop><vdop>3.75</vdop><extensions><gom:speed>0.526</gom:speed></extensions></trkpt>
   <trkpt lat="59.0640733598" lon="30.0249761645"><ele>94.453</ele><time>2026-04-20T17:18:13.815Z</time><hdop>6.187</hdop><vdop>3.75</vdop><extensions><gom:speed>0.633</gom:speed></extensions></trkpt>
   <trkpt lat="59.0640762935" lon="30.0249609933"><ele>94.454</ele><time>2026-04-20T17:18:14.555Z</time><hdop>6.187</hdop><vdop>3.125</vdop><extensions><gom:speed>0.781</gom:speed></extensions></trkpt>
   <trkpt lat="59.0640802749" lon="30.0249548745"><ele>94.609</ele><time>2026-04-20T17:18:15.075Z</time><hdop>6.125</hdop><vdop>3.187</vdop><extensions><gom:speed>0.815</gom:speed></extensions></trkpt>
   <trkpt lat="59.0640906684" lon="30.0249474984"><ele>95.166</ele><time>2026-04-20T17:18:16.076Z</time><hdop>6.0</hdop><vdop>2.75</vdop><extensions><gom:speed>0.906</gom:speed></extensions></trkpt>
   <trkpt lat="59.0640992599" lon="30.024938446"><ele>95.499</ele><time>2026-04-20T17:18:16.954Z</time><hdop>5.937</hdop><vdop>2.75</vdop><extensions><gom:speed>0.991</gom:speed></extensions></trkpt>
   <trkpt lat="59.0641090667" lon="30.0249357638"><ele>95.91</ele><time>2026-04-20T17:18:17.694Z</time><hdop>5.875</hdop><vdop>2.687</vdop><extensions><gom:speed>1.034</gom:speed></extensions></trkpt>
   <trkpt lat="59.0641245732" lon="30.0249388651"><ele>95.902</ele><time>2026-04-20T17:18:18.516Z</time><hdop>5.75</hdop><vdop>2.562</vdop><extensions><gom:speed>1.005</gom:speed></extensions></trkpt>
   <trkpt lat="59.0641308596" lon="30.0249471631"><ele>96.088</ele><time>2026-04-20T17:18:19.075Z</time><hdop>5.687</hdop><vdop>2.5</vdop><extensions><gom:speed>0.981</gom:speed></extensions></trkpt>
   <trkpt lat="59.0641409598" lon="30.0249633402"><ele>96.079</ele><time>2026-04-20T17:18:20.076Z</time><hdop>5.625</hdop><vdop>2.5</vdop><extensions><gom:speed>0.896</gom:speed></extensions></trkpt>
   <trkpt lat="59.0641478749" lon="30.0249765836"><ele>96.073</ele><time>2026-04-20T17:18:21.040Z</time><hdop>5.625</hdop><vdop>2.5</vdop><extensions><gom:speed>0.912</gom:speed></extensions></trkpt>
   <trkpt lat="59.064152485" lon="30.0249936827"><ele>95.26</ele><time>2026-04-20T17:18:21.800Z</time><hdop>5.562</hdop><vdop>2.5</vdop><extensions><gom:speed>0.896</gom:speed></extensions></trkpt>
   <trkpt lat="59.0641583942" lon="30.0250130449"><ele>95.195</ele><time>2026-04-20T17:18:22.561Z</time><hdop>5.437</hdop><vdop>2.5</vdop><extensions><gom:speed>0.967</gom:speed></extensions></trkpt>
   <trkpt lat="59.0641630881" lon="30.0250266236"><ele>95.17</ele><time>2026-04-20T17:18:23.075Z</time><hdop>5.375</hdop><vdop>2.5</vdop><extensions><gom:speed>0.982</gom:speed></extensions></trkpt>
   <trkpt lat="59.0641713861" lon="30.0250481651"><ele>95.229</ele><time>2026-04-20T17:18:24.075Z</time><hdop>5.25</hdop><vdop>2.5</vdop><extensions><gom:speed>0.911</gom:speed></extensions></trkpt>
   <trkpt lat="59.0641812768" lon="30.0250618276"><ele>95.263</ele><time>2026-04-20T17:18:25.040Z</time><hdop>5.187</hdop><vdop>2.5</vdop><extensions><gom:speed>0.833</gom:speed></extensions></trkpt>
   <trkpt lat="59.0641863898" lon="30.0250679464"><ele>95.208</ele><time>2026-04-20T17:18:25.861Z</time><hdop>5.187</hdop><vdop>2.5</vdop><extensions><gom:speed>0.772</gom:speed></extensions></trkpt>
   <trkpt lat="59.0641935982" lon="30.0250758254"><ele>95.335</ele><time>2026-04-20T17:18:26.637Z</time><hdop>5.125</hdop><vdop>2.5</vdop><extensions><gom:speed>0.774</gom:speed></extensions></trkpt>
   <trkpt lat="59.0642018963" lon="30.0250812736"><ele>95.098</ele><time>2026-04-20T17:18:27.519Z</time><hdop>5.062</hdop><vdop>2.5</vdop><extensions><gom:speed>0.764</gom:speed></extensions></trkpt>
   <trkpt lat="59.0642072607" lon="30.0250835367"><ele>95.177</ele><time>2026-04-20T17:18:28.075Z</time><hdop>5.062</hdop><vdop>2.5</vdop><extensions><gom:speed>0.759</gom:speed></extensions></trkpt>
   <trkpt lat="59.0642151816" lon="30.0250874762"><ele>94.939</ele><time>2026-04-20T17:18:29.075Z</time><hdop>5.0</hdop><vdop>2.5</vdop><extensions><gom:speed>0.687</gom:speed></extensions></trkpt>
   <trkpt lat="59.0642203784" lon="30.0250928406"><ele>94.797</ele><time>2026-04-20T17:18:30.012Z</time><hdop>5.0</hdop><vdop>2.5</vdop><extensions><gom:speed>0.621</gom:speed></extensions></trkpt>
   <trkpt lat="59.0642268743" lon="30.0251087662"><ele>95.078</ele><time>2026-04-20T17:18:31.075Z</time><hdop>4.875</hdop><vdop>4.687</vdop><extensions><gom:speed>0.59</gom:speed></extensions></trkpt>
   <trkpt lat="59.0642293889" lon="30.025113963"><ele>95.367</ele><time>2026-04-20T17:18:31.984Z</time><hdop>4.875</hdop><vdop>4.687</vdop><extensions><gom:speed>0.497</gom:speed></extensions></trkpt>
   <trkpt lat="59.0642309815" lon="30.0251189922"><ele>95.626</ele><time>2026-04-20T17:18:33.075Z</time><hdop>4.875</hdop><vdop>4.687</vdop><extensions><gom:speed>0.272</gom:speed></extensions></trkpt>
   <trkpt lat="59.0642298918" lon="30.0251200818"><ele>95.899</ele><time>2026-04-20T17:18:33.997Z</time><hdop>4.875</hdop><vdop>4.562</vdop><extensions><gom:speed>0.148</gom:speed></extensions></trkpt>
   <trkpt lat="59.0642297661" lon="30.0251239375"><ele>96.085</ele><time>2026-04-20T17:18:35.075Z</time><hdop>4.875</hdop><vdop>4.437</vdop><extensions><gom:speed>0.114</gom:speed></extensions></trkpt>
   <trkpt lat="59.0642307719" lon="30.0251280446"><ele>96.116</ele><time>2026-04-20T17:18:36.075Z</time><hdop>4.812</hdop><vdop>4.25</vdop><extensions><gom:speed>0.069</gom:speed></extensions></trkpt>
   <trkpt lat="59.0642310653" lon="30.0251288828"><ele>96.134</ele><time>2026-04-20T17:18:36.722Z</time><hdop>4.75</hdop><vdop>4.25</vdop><extensions><gom:speed>0.041</gom:speed></extensions></trkpt>
   <trkpt lat="59.0642334961" lon="30.0251375162"><ele>96.345</ele><time>2026-04-20T17:18:38.076Z</time><hdop>4.625</hdop><vdop>3.937</vdop><extensions><gom:speed>0.092</gom:speed></extensions></trkpt>
   <trkpt lat="59.0642341666" lon="30.025141288"><ele>96.535</ele><time>2026-04-20T17:18:39.075Z</time><hdop>4.5</hdop><vdop>3.875</vdop><extensions><gom:speed>0.117</gom:speed></extensions></trkpt>
   <trkpt lat="59.0642356753" lon="30.0251444731"><ele>96.787</ele><time>2026-04-20T17:18:40.075Z</time><hdop>4.375</hdop><vdop>3.625</vdop><extensions><gom:speed>0.107</gom:speed></extensions></trkpt>
   <trkpt lat="59.0642366812" lon="30.0251455628"><ele>96.937</ele><time>2026-04-20T17:18:40.906Z</time><hdop>4.25</hdop><vdop>3.625</vdop><extensions><gom:speed>0.124</gom:speed></extensions></trkpt>
   <trkpt lat="59.0642397825" lon="30.0251485803"><ele>97.119</ele><time>2026-04-20T17:18:42.076Z</time><hdop>4.187</hdop><vdop>3.437</vdop><extensions><gom:speed>0.166</gom:speed></extensions></trkpt>
   <trkpt lat="59.0642403692" lon="30.0251486641"><ele>97.227</ele><time>2026-04-20T17:18:42.882Z</time><hdop>4.187</hdop><vdop>3.437</vdop><extensions><gom:speed>0.169</gom:speed></extensions></trkpt>
   <trkpt lat="59.064244183" lon="30.0251511787"><ele>97.306</ele><time>2026-04-20T17:18:44.075Z</time><hdop>4.062</hdop><vdop>3.625</vdop><extensions><gom:speed>0.159</gom:speed></extensions></trkpt>
   <trkpt lat="59.0642453984" lon="30.0251525198"><ele>97.353</ele><time>2026-04-20T17:18:44.937Z</time><hdop>4.062</hdop><vdop>3.625</vdop><extensions><gom:speed>0.181</gom:speed></extensions></trkpt>
   <trkpt lat="59.064246488" lon="30.0251553696"><ele>97.38</ele><time>2026-04-20T17:18:46.075Z</time><hdop>4.0</hdop><vdop>3.25</vdop><extensions><gom:speed>0.18</gom:speed></extensions></trkpt>
   <trkpt lat="59.0642479967" lon="30.0251562916"><ele>97.34</ele><time>2026-04-20T17:18:47.075Z</time><hdop>3.937</hdop><vdop>3.187</vdop><extensions><gom:speed>0.161</gom:speed></extensions></trkpt>
   <trkpt lat="59.0642484997" lon="30.0251582195"><ele>97.311</ele><time>2026-04-20T17:18:48.075Z</time><hdop>3.937</hdop><vdop>3.187</vdop><extensions><gom:speed>0.168</gom:speed></extensions></trkpt>
   <trkpt lat="59.0642483739" lon="30.0251609855"><ele>97.248</ele><time>2026-04-20T17:18:49.075Z</time><hdop>3.937</hdop><vdop>3.187</vdop><extensions><gom:speed>0.158</gom:speed></extensions></trkpt>
   <trkpt lat="59.0642479967" lon="30.025161656"><ele>97.192</ele><time>2026-04-20T17:18:50.075Z</time><hdop>3.875</hdop><vdop>3.125</vdop><extensions><gom:speed>0.101</gom:speed></extensions></trkpt>
   <trkpt lat="59.0642481644" lon="30.0251608179"><ele>97.156</ele><time>2026-04-20T17:18:51.075Z</time><hdop>3.875</hdop><vdop>2.875</vdop><extensions><gom:speed>0.098</gom:speed></extensions></trkpt>
   <trkpt lat="59.064248793" lon="30.0251602311"><ele>97.149</ele><time>2026-04-20T17:18:52.075Z</time><hdop>3.875</hdop><vdop>2.75</vdop><extensions><gom:speed>0.111</gom:speed></extensions></trkpt>
   <trkpt lat="59.0642488768" lon="30.0251605664"><ele>97.146</ele><time>2026-04-20T17:18:52.656Z</time><hdop>3.875</hdop><vdop>2.75</vdop><extensions><gom:speed>0.095</gom:speed></extensions></trkpt>
   <trkpt lat="59.0642490864" lon="30.0251611531"><ele>97.145</ele><time>2026-04-20T17:18:53.556Z</time><hdop>3.875</hdop><vdop>2.875</vdop><extensions><gom:speed>0.051</gom:speed></extensions></trkpt>
   <trkpt lat="59.0642492959" lon="30.0251614884"><ele>97.146</ele><time>2026-04-20T17:18:54.075Z</time><hdop>3.875</hdop><vdop>2.875</vdop><extensions><gom:speed>0.083</gom:speed></extensions></trkpt>
   <trkpt lat="59.0642498827" lon="30.0251622428"><ele>97.14</ele><time>2026-04-20T17:18:55.075Z</time><hdop>3.875</hdop><vdop>2.812</vdop><extensions><gom:speed>0.145</gom:speed></extensions></trkpt>
   <trkpt lat="59.0642511819" lon="30.0251617399"><ele>97.137</ele><time>2026-04-20T17:18:55.836Z</time><hdop>3.875</hdop><vdop>2.812</vdop><extensions><gom:speed>0.174</gom:speed></extensions></trkpt>
   <trkpt lat="59.0642533612" lon="30.0251598958"><ele>97.134</ele><time>2026-04-20T17:18:56.674Z</time><hdop>3.875</hdop><vdop>2.875</vdop><extensions><gom:speed>0.266</gom:speed></extensions></trkpt>
   <trkpt lat="59.0642555824" lon="30.0251571298"><ele>97.127</ele><time>2026-04-20T17:18:57.434Z</time><hdop>3.937</hdop><vdop>2.875</vdop><extensions><gom:speed>0.307</gom:speed></extensions></trkpt>
   <trkpt lat="59.0642569654" lon="30.0251558725"><ele>97.122</ele><time>2026-04-20T17:18:58.075Z</time><hdop>3.937</hdop><vdop>2.875</vdop><extensions><gom:speed>0.302</gom:speed></extensions></trkpt>
   <trkpt lat="59.0642615754" lon="30.0251543638"><ele>97.12</ele><time>2026-04-20T17:18:59.104Z</time><hdop>4.0</hdop><vdop>2.875</vdop><extensions><gom:speed>0.43</gom:speed></extensions></trkpt>
   <trkpt lat="59.0642641738" lon="30.0251544476"><ele>97.115</ele><time>2026-04-20T17:19:00.075Z</time><hdop>4.0</hdop><vdop>2.875</vdop><extensions><gom:speed>0.435</gom:speed></extensions></trkpt>
   <trkpt lat="59.064266395" lon="30.0251551182"><ele>97.11</ele><time>2026-04-20T17:19:01.075Z</time><hdop>4.125</hdop><vdop>2.875</vdop><extensions><gom:speed>0.413</gom:speed></extensions></trkpt>
   <trkpt lat="59.0642681971" lon="30.0251563754"><ele>97.11</ele><time>2026-04-20T17:19:02.075Z</time><hdop>4.187</hdop><vdop>3.062</vdop><extensions><gom:speed>0.38</gom:speed></extensions></trkpt>
   <trkpt lat="59.0642700831" lon="30.0251580518"><ele>97.11</ele><time>2026-04-20T17:19:03.099Z</time><hdop>4.375</hdop><vdop>3.062</vdop><extensions><gom:speed>0.358</gom:speed></extensions></trkpt>
   <trkpt lat="59.064269664" lon="30.0251608179"><ele>96.678</ele><time>2026-04-20T17:19:04.075Z</time><hdop>4.375</hdop><vdop>3.25</vdop><extensions><gom:speed>0.308</gom:speed></extensions></trkpt>
   <trkpt lat="59.0642710889" lon="30.0251634162"><ele>96.499</ele><time>2026-04-20T17:19:05.076Z</time><hdop>4.375</hdop><vdop>3.375</vdop><extensions><gom:speed>0.275</gom:speed></extensions></trkpt>
   <trkpt lat="59.0642741902" lon="30.0251629971"><ele>96.164</ele><time>2026-04-20T17:19:06.076Z</time><hdop>4.437</hdop><vdop>3.25</vdop><extensions><gom:speed>0.245</gom:speed></extensions></trkpt>
   <trkpt lat="59.064275196" lon="30.0251633324"><ele>95.963</ele><time>2026-04-20T17:19:06.782Z</time><hdop>4.437</hdop><vdop>3.25</vdop><extensions><gom:speed>0.228</gom:speed></extensions></trkpt>
   <trkpt lat="59.0642794708" lon="30.0251623266"><ele>95.975</ele><time>2026-04-20T17:19:07.637Z</time><hdop>4.5</hdop><vdop>3.187</vdop><extensions><gom:speed>0.268</gom:speed></extensions></trkpt>
   <trkpt lat="59.0642855896" lon="30.0251618237"><ele>95.856</ele><time>2026-04-20T17:19:09.062Z</time><hdop>4.562</hdop><vdop>3.187</vdop><extensions><gom:speed>0.19</gom:speed></extensions></trkpt>
   <trkpt lat="59.0642893614" lon="30.0251625781"><ele>95.613</ele><time>2026-04-20T17:19:10.078Z</time><hdop>4.5</hdop><vdop>3.25</vdop><extensions><gom:speed>0.172</gom:speed></extensions></trkpt>
   <trkpt lat="59.0642973662" lon="30.0251626619"><ele>95.433</ele><time>2026-04-20T17:19:11.075Z</time><hdop>4.5</hdop><vdop>3.375</vdop><extensions><gom:speed>0.213</gom:speed></extensions></trkpt>
   <trkpt lat="59.0643023953" lon="30.0251622428"><ele>95.346</ele><time>2026-04-20T17:19:12.075Z</time><hdop>4.437</hdop><vdop>3.437</vdop><extensions><gom:speed>0.169</gom:speed></extensions></trkpt>
   <trkpt lat="59.0643061672" lon="30.0251620751"><ele>95.583</ele><time>2026-04-20T17:19:13.076Z</time><hdop>4.375</hdop><vdop>3.5</vdop><extensions><gom:speed>0.121</gom:speed></extensions></trkpt>
   <trkpt lat="59.0643067958" lon="30.0251618237"><ele>95.724</ele><time>2026-04-20T17:19:13.797Z</time><hdop>4.312</hdop><vdop>3.5</vdop><extensions><gom:speed>0.111</gom:speed></extensions></trkpt>
   <trkpt lat="59.0643114897" lon="30.0251643383"><ele>95.941</ele><time>2026-04-20T17:19:14.856Z</time><hdop>4.25</hdop><vdop>3.625</vdop><extensions><gom:speed>0.127</gom:speed></extensions></trkpt>
   <trkpt lat="59.0643141719" lon="30.0251659308"><ele>96.05</ele><time>2026-04-20T17:19:15.943Z</time><hdop>4.25</hdop><vdop>3.5</vdop><extensions><gom:speed>0.117</gom:speed></extensions></trkpt>
   <trkpt lat="59.0643190753" lon="30.0251678586"><ele>96.011</ele><time>2026-04-20T17:19:17.075Z</time><hdop>4.187</hdop><vdop>3.312</vdop><extensions><gom:speed>0.136</gom:speed></extensions></trkpt>
   <trkpt lat="59.0643222604" lon="30.0251703732"><ele>95.946</ele><time>2026-04-20T17:19:18.076Z</time><hdop>4.187</hdop><vdop>3.375</vdop><extensions><gom:speed>0.182</gom:speed></extensions></trkpt>
   <trkpt lat="59.0643257808" lon="30.0251740613"><ele>95.96</ele><time>2026-04-20T17:19:19.075Z</time><hdop>4.187</hdop><vdop>3.187</vdop><extensions><gom:speed>0.163</gom:speed></extensions></trkpt>
   <trkpt lat="59.0643274991" lon="30.0251738936"><ele>95.968</ele><time>2026-04-20T17:19:19.800Z</time><hdop>4.25</hdop><vdop>3.187</vdop><extensions><gom:speed>0.18</gom:speed></extensions></trkpt>
   <trkpt lat="59.064332193" lon="30.0251717981"><ele>96.0</ele><time>2026-04-20T17:19:21.075Z</time><hdop>4.187</hdop><vdop>3.25</vdop><extensions><gom:speed>0.165</gom:speed></extensions></trkpt>
   <trkpt lat="59.0643342884" lon="30.025170457"><ele>96.0</ele><time>2026-04-20T17:19:22.075Z</time><hdop>4.187</hdop><vdop>3.375</vdop><extensions><gom:speed>0.149</gom:speed></extensions></trkpt>
   <trkpt lat="59.0643359648" lon="30.0251697865"><ele>95.992</ele><time>2026-04-20T17:19:23.076Z</time><hdop>4.187</hdop><vdop>3.5</vdop><extensions><gom:speed>0.103</gom:speed></extensions></trkpt>
   <trkpt lat="59.0643377669" lon="30.0251710438"><ele>95.985</ele><time>2026-04-20T17:19:24.075Z</time><hdop>4.125</hdop><vdop>3.562</vdop><extensions><gom:speed>0.086</gom:speed></extensions></trkpt>
   <trkpt lat="59.0643392757" lon="30.0251711276"><ele>95.993</ele><time>2026-04-20T17:19:25.075Z</time><hdop>4.0</hdop><vdop>3.687</vdop><extensions><gom:speed>0.122</gom:speed></extensions></trkpt>
   <trkpt lat="59.064340491" lon="30.0251705409"><ele>95.997</ele><time>2026-04-20T17:19:25.558Z</time><hdop>4.0</hdop><vdop>3.687</vdop><extensions><gom:speed>0.1</gom:speed></extensions></trkpt>
   <trkpt lat="59.0643417902" lon="30.0251700379"><ele>95.999</ele><time>2026-04-20T17:19:26.075Z</time><hdop>4.0</hdop><vdop>3.687</vdop><extensions><gom:speed>0.13</gom:speed></extensions></trkpt>
   <trkpt lat="59.0643443886" lon="30.0251693674"><ele>96.0</ele><time>2026-04-20T17:19:27.075Z</time><hdop>4.0</hdop><vdop>3.625</vdop><extensions><gom:speed>0.104</gom:speed></extensions></trkpt>
   <trkpt lat="59.0643456878" lon="30.0251680263"><ele>96.013</ele><time>2026-04-20T17:19:28.075Z</time><hdop>3.937</hdop><vdop>3.562</vdop><extensions><gom:speed>0.112</gom:speed></extensions></trkpt>
   <trkpt lat="59.0643471966" lon="30.0251674396"><ele>96.02</ele><time>2026-04-20T17:19:29.075Z</time><hdop>3.937</hdop><vdop>3.375</vdop><extensions><gom:speed>0.157</gom:speed></extensions></trkpt>
   <trkpt lat="59.06434837" lon="30.0251679425"><ele>96.015</ele><time>2026-04-20T17:19:30.075Z</time><hdop>4.0</hdop><vdop>3.25</vdop><extensions><gom:speed>0.185</gom:speed></extensions></trkpt>
   <trkpt lat="59.0643494597" lon="30.0251685292"><ele>96.012</ele><time>2026-04-20T17:19:31.075Z</time><hdop>4.0</hdop><vdop>3.187</vdop><extensions><gom:speed>0.153</gom:speed></extensions></trkpt>
   <trkpt lat="59.0643493759" lon="30.0251689483"><ele>96.01</ele><time>2026-04-20T17:19:31.558Z</time><hdop>4.062</hdop><vdop>3.187</vdop><extensions><gom:speed>0.135</gom:speed></extensions></trkpt>
   <trkpt lat="59.0643495854" lon="30.0251693674"><ele>96.029</ele><time>2026-04-20T17:19:32.075Z</time><hdop>4.062</hdop><vdop>3.125</vdop><extensions><gom:speed>0.16</gom:speed></extensions></trkpt>
   <trkpt lat="59.0643515971" lon="30.0251702894"><ele>96.042</ele><time>2026-04-20T17:19:33.075Z</time><hdop>4.125</hdop><vdop>3.062</vdop><extensions><gom:speed>0.234</gom:speed></extensions></trkpt>
   <trkpt lat="59.0643522676" lon="30.0251699541"><ele>96.052</ele><time>2026-04-20T17:19:34.075Z</time><hdop>4.187</hdop><vdop>3.0</vdop><extensions><gom:speed>0.216</gom:speed></extensions></trkpt>
   <trkpt lat="59.0643535668" lon="30.0251697865"><ele>96.057</ele><time>2026-04-20T17:19:34.953Z</time><hdop>4.187</hdop><vdop>3.0</vdop><extensions><gom:speed>0.216</gom:speed></extensions></trkpt>
   <trkpt lat="59.0643550756" lon="30.0251701218"><ele>96.062</ele><time>2026-04-20T17:19:35.920Z</time><hdop>4.187</hdop><vdop>3.0</vdop><extensions><gom:speed>0.231</gom:speed></extensions></trkpt>
   <trkpt lat="59.0643560814" lon="30.0251722172"><ele>96.067</ele><time>2026-04-20T17:19:36.956Z</time><hdop>4.187</hdop><vdop>3.0</vdop><extensions><gom:speed>0.271</gom:speed></extensions></trkpt>
   <trkpt lat="59.0643575901" lon="30.0251759891"><ele>96.067</ele><time>2026-04-20T17:19:37.996Z</time><hdop>4.187</hdop><vdop>3.125</vdop><extensions><gom:speed>0.327</gom:speed></extensions></trkpt>
   <trkpt lat="59.0643591827" lon="30.0251780846"><ele>95.014</ele><time>2026-04-20T17:19:38.552Z</time><hdop>4.187</hdop><vdop>2.812</vdop><extensions><gom:speed>0.374</gom:speed></extensions></trkpt>
   <trkpt lat="59.0643644633" lon="30.0251846225"><ele>93.786</ele><time>2026-04-20T17:19:39.075Z</time><hdop>4.25</hdop><vdop>2.687</vdop><extensions><gom:speed>0.453</gom:speed></extensions></trkpt>
   <trkpt lat="59.0643720908" lon="30.0251939264"><ele>93.052</ele><time>2026-04-20T17:19:39.957Z</time><hdop>4.25</hdop><vdop>2.687</vdop><extensions><gom:speed>0.633</gom:speed></extensions></trkpt>
   <trkpt lat="59.0643819815" lon="30.0252141268"><ele>92.653</ele><time>2026-04-20T17:19:40.876Z</time><hdop>4.312</hdop><vdop>2.562</vdop><extensions><gom:speed>0.897</gom:speed></extensions></trkpt>
   <trkpt lat="59.0643952668" lon="30.0252395239"><ele>92.304</ele><time>2026-04-20T17:19:42.075Z</time><hdop>4.437</hdop><vdop>2.5</vdop><extensions><gom:speed>0.975</gom:speed></extensions></trkpt>
   <trkpt lat="59.0644069595" lon="30.0252530188"><ele>92.012</ele><time>2026-04-20T17:19:43.075Z</time><hdop>4.5</hdop><vdop>2.5</vdop><extensions><gom:speed>0.925</gom:speed></extensions></trkpt>
   <trkpt lat="59.0644169759" lon="30.0252625742"><ele>91.466</ele><time>2026-04-20T17:19:44.076Z</time><hdop>4.562</hdop><vdop>2.5</vdop><extensions><gom:speed>0.85</gom:speed></extensions></trkpt>
   <trkpt lat="59.0644185685" lon="30.0252644182"><ele>91.139</ele><time>2026-04-20T17:19:44.711Z</time><hdop>4.687</hdop><vdop>2.5</vdop><extensions><gom:speed>0.775</gom:speed></extensions></trkpt>
   <trkpt lat="59.0644272857" lon="30.0252740574"><ele>90.734</ele><time>2026-04-20T17:19:45.701Z</time><hdop>4.687</hdop><vdop>2.5</vdop><extensions><gom:speed>0.536</gom:speed></extensions></trkpt>
   <trkpt lat="59.0644343684" lon="30.0252766558"><ele>90.616</ele><time>2026-04-20T17:19:47.075Z</time><hdop>4.625</hdop><vdop>2.5</vdop><extensions><gom:speed>0.388</gom:speed></extensions></trkpt>
   <trkpt lat="59.0644366734" lon="30.0252785836"><ele>90.849</ele><time>2026-04-20T17:19:48.075Z</time><hdop>4.5</hdop><vdop>2.5</vdop><extensions><gom:speed>0.233</gom:speed></extensions></trkpt>
   <trkpt lat="59.0644369668" lon="30.0252803438"><ele>91.203</ele><time>2026-04-20T17:19:49.075Z</time><hdop>4.312</hdop><vdop>2.5</vdop><extensions><gom:speed>0.134</gom:speed></extensions></trkpt>
   <trkpt lat="59.0644385593" lon="30.0252810982"><ele>91.844</ele><time>2026-04-20T17:19:50.075Z</time><hdop>4.062</hdop><vdop>4.375</vdop><extensions><gom:speed>0.11</gom:speed></extensions></trkpt>
   <trkpt lat="59.0644387689" lon="30.0252812658"><ele>92.227</ele><time>2026-04-20T17:19:50.989Z</time><hdop>4.062</hdop><vdop>4.375</vdop><extensions><gom:speed>0.089</gom:speed></extensions></trkpt>
   <trkpt lat="59.0644439656" lon="30.0252789189"><ele>92.647</ele><time>2026-04-20T17:19:52.075Z</time><hdop>3.687</hdop><vdop>3.937</vdop><extensions><gom:speed>0.068</gom:speed></extensions></trkpt>
   <trkpt lat="59.0644473603" lon="30.0252775778"><ele>93.0</ele><time>2026-04-20T17:19:53.076Z</time><hdop>3.625</hdop><vdop>3.812</vdop><extensions><gom:speed>0.064</gom:speed></extensions></trkpt>
   <trkpt lat="59.0644504616" lon="30.0252767396"><ele>93.175</ele><time>2026-04-20T17:19:54.076Z</time><hdop>3.562</hdop><vdop>3.75</vdop><extensions><gom:speed>0.097</gom:speed></extensions></trkpt>
   <trkpt lat="59.0644515932" lon="30.0252755661"><ele>93.28</ele><time>2026-04-20T17:19:54.635Z</time><hdop>3.562</hdop><vdop>3.75</vdop><extensions><gom:speed>0.094</gom:speed></extensions></trkpt>
   <trkpt lat="59.064455365" lon="30.0252747279"><ele>93.403</ele><time>2026-04-20T17:19:55.821Z</time><hdop>3.562</hdop><vdop>3.75</vdop><extensions><gom:speed>0.102</gom:speed></extensions></trkpt>
   <trkpt lat="59.0644595979" lon="30.0252745603"><ele>93.563</ele><time>2026-04-20T17:19:57.053Z</time><hdop>3.625</hdop><vdop>3.75</vdop><extensions><gom:speed>0.117</gom:speed></extensions></trkpt>
   <trkpt lat="59.0644668901" lon="30.0252752308"><ele>93.699</ele><time>2026-04-20T17:19:58.075Z</time><hdop>3.687</hdop><vdop>3.562</vdop><extensions><gom:speed>0.15</gom:speed></extensions></trkpt>
   <trkpt lat="59.0644696981" lon="30.0252761528"><ele>93.829</ele><time>2026-04-20T17:19:59.075Z</time><hdop>3.687</hdop><vdop>3.562</vdop><extensions><gom:speed>0.141</gom:speed></extensions></trkpt>
   <trkpt lat="59.0644730928" lon="30.025276991"><ele>93.877</ele><time>2026-04-20T17:20:00.075Z</time><hdop>3.687</hdop><vdop>3.625</vdop><extensions><gom:speed>0.154</gom:speed></extensions></trkpt>
   <trkpt lat="59.0644741824" lon="30.0252758176"><ele>93.906</ele><time>2026-04-20T17:20:00.638Z</time><hdop>3.687</hdop><vdop>3.625</vdop><extensions><gom:speed>0.129</gom:speed></extensions></trkpt>
   <trkpt lat="59.0644773675" lon="30.0252757337"><ele>93.938</ele><time>2026-04-20T17:20:01.554Z</time><hdop>3.687</hdop><vdop>3.625</vdop><extensions><gom:speed>0.144</gom:speed></extensions></trkpt>
   <trkpt lat="59.0644795887" lon="30.0252768234"><ele>93.958</ele><time>2026-04-20T17:20:02.075Z</time><hdop>3.687</hdop><vdop>3.625</vdop><extensions><gom:speed>0.174</gom:speed></extensions></trkpt>
   <trkpt lat="59.064481768" lon="30.0252806791"><ele>93.97</ele><time>2026-04-20T17:20:02.721Z</time><hdop>3.687</hdop><vdop>3.625</vdop><extensions><gom:speed>0.246</gom:speed></extensions></trkpt>
   <trkpt lat="59.0644844921" lon="30.025285792"><ele>93.984</ele><time>2026-04-20T17:20:03.351Z</time><hdop>3.75</hdop><vdop>3.5</vdop><extensions><gom:speed>0.317</gom:speed></extensions></trkpt>
   <trkpt lat="59.0644890603" lon="30.0252955989"><ele>93.865</ele><time>2026-04-20T17:20:04.076Z</time><hdop>3.875</hdop><vdop>3.562</vdop><extensions><gom:speed>0.444</gom:speed></extensions></trkpt>
   <trkpt lat="59.0645017589" lon="30.0253072497"><ele>93.449</ele><time>2026-04-20T17:20:05.075Z</time><hdop>4.125</hdop><vdop>3.187</vdop><extensions><gom:speed>0.751</gom:speed></extensions></trkpt>
   <trkpt lat="59.064514667" lon="30.0253105186"><ele>93.201</ele><time>2026-04-20T17:20:06.016Z</time><hdop>4.312</hdop><vdop>3.187</vdop><extensions><gom:speed>0.923</gom:speed></extensions></trkpt>
   <trkpt lat="59.0645255635" lon="30.0253047351"><ele>92.972</ele><time>2026-04-20T17:20:06.974Z</time><hdop>4.625</hdop><vdop>3.062</vdop><extensions><gom:speed>0.922</gom:speed></extensions></trkpt>
   <trkpt lat="59.0645344902" lon="30.0253043999"><ele>92.437</ele><time>2026-04-20T17:20:07.881Z</time><hdop>4.937</hdop><vdop>3.562</vdop><extensions><gom:speed>0.868</gom:speed></extensions></trkpt>
   <trkpt lat="59.0645434588" lon="30.0253122788"><ele>92.073</ele><time>2026-04-20T17:20:08.997Z</time><hdop>5.187</hdop><vdop>3.437</vdop><extensions><gom:speed>0.798</gom:speed></extensions></trkpt>
   <trkpt lat="59.0645446742" lon="30.0253153801"><ele>91.824</ele><time>2026-04-20T17:20:09.467Z</time><hdop>5.187</hdop><vdop>3.375</vdop><extensions><gom:speed>0.72</gom:speed></extensions></trkpt>
   <trkpt lat="59.064550793" lon="30.0253235944"><ele>91.836</ele><time>2026-04-20T17:20:10.076Z</time><hdop>5.25</hdop><vdop>3.437</vdop><extensions><gom:speed>0.619</gom:speed></extensions></trkpt>
   <trkpt lat="59.0645536848" lon="30.0253290426"><ele>92.057</ele><time>2026-04-20T17:20:11.075Z</time><hdop>5.25</hdop><vdop>3.437</vdop><extensions><gom:speed>0.489</gom:speed></extensions></trkpt>
   <trkpt lat="59.0645568699" lon="30.0253350776"><ele>92.188</ele><time>2026-04-20T17:20:12.076Z</time><hdop>5.187</hdop><vdop>3.437</vdop><extensions><gom:speed>0.494</gom:speed></extensions></trkpt>
   <trkpt lat="59.0645603903" lon="30.0253435433"><ele>92.444</ele><time>2026-04-20T17:20:12.898Z</time><hdop>5.125</hdop><vdop>3.125</vdop><extensions><gom:speed>0.528</gom:speed></extensions></trkpt>
   <trkpt lat="59.0645663833" lon="30.0253618997"><ele>92.77</ele><time>2026-04-20T17:20:14.002Z</time><hdop>5.0</hdop><vdop>3.437</vdop><extensions><gom:speed>0.625</gom:speed></extensions></trkpt>
   <trkpt lat="59.0645758968" lon="30.0253840279"><ele>93.907</ele><time>2026-04-20T17:20:15.075Z</time><hdop>4.937</hdop><vdop>3.687</vdop><extensions><gom:speed>0.623</gom:speed></extensions></trkpt>
   <trkpt lat="59.0645772798" lon="30.0253850338"><ele>94.586</ele><time>2026-04-20T17:20:15.745Z</time><hdop>4.937</hdop><vdop>3.687</vdop><extensions><gom:speed>0.555</gom:speed></extensions></trkpt>
   <trkpt lat="59.0645872962" lon="30.0253956788"><ele>95.24</ele><time>2026-04-20T17:20:17.075Z</time><hdop>4.937</hdop><vdop>3.75</vdop><extensions><gom:speed>0.441</gom:speed></extensions></trkpt>
   <trkpt lat="59.0645899784" lon="30.0254007917"><ele>95.423</ele><time>2026-04-20T17:20:18.075Z</time><hdop>4.875</hdop><vdop>3.687</vdop><extensions><gom:speed>0.298</gom:speed></extensions></trkpt>
   <trkpt lat="59.064591068" lon="30.0254063238"><ele>95.375</ele><time>2026-04-20T17:20:19.075Z</time><hdop>4.75</hdop><vdop>3.625</vdop><extensions><gom:speed>0.215</gom:speed></extensions></trkpt>
   <trkpt lat="59.0645923672" lon="30.0254105986"><ele>95.209</ele><time>2026-04-20T17:20:20.076Z</time><hdop>4.625</hdop><vdop>3.437</vdop><extensions><gom:speed>0.122</gom:speed></extensions></trkpt>
   <trkpt lat="59.064593876" lon="30.025415963"><ele>95.069</ele><time>2026-04-20T17:20:21.076Z</time><hdop>4.5</hdop><vdop>3.437</vdop><extensions><gom:speed>0.103</gom:speed></extensions></trkpt>
   <trkpt lat="59.0645941693" lon="30.0254165497"><ele>94.985</ele><time>2026-04-20T17:20:22.024Z</time><hdop>4.5</hdop><vdop>3.437</vdop><extensions><gom:speed>0.083</gom:speed></extensions></trkpt>
   <trkpt lat="59.0645986956" lon="30.0254249316"><ele>94.841</ele><time>2026-04-20T17:20:23.076Z</time><hdop>4.312</hdop><vdop>3.312</vdop><extensions><gom:speed>0.099</gom:speed></extensions></trkpt>
   <trkpt lat="59.0645992823" lon="30.0254261889"><ele>94.754</ele><time>2026-04-20T17:20:24.060Z</time><hdop>4.25</hdop><vdop>3.312</vdop><extensions><gom:speed>0.071</gom:speed></extensions></trkpt>
   <trkpt lat="59.0646022998" lon="30.0254324753"><ele>94.665</ele><time>2026-04-20T17:20:25.075Z</time><hdop>4.125</hdop><vdop>3.25</vdop><extensions><gom:speed>0.084</gom:speed></extensions></trkpt>
   <trkpt lat="59.0646046886" lon="30.0254364986"><ele>94.683</ele><time>2026-04-20T17:20:26.076Z</time><hdop>4.062</hdop><vdop>3.437</vdop><extensions><gom:speed>0.116</gom:speed></extensions></trkpt>
   <trkpt lat="59.0646065746" lon="30.0254404381"><ele>94.77</ele><time>2026-04-20T17:20:27.075Z</time><hdop>4.0</hdop><vdop>3.437</vdop><extensions><gom:speed>0.079</gom:speed></extensions></trkpt>
   <trkpt lat="59.0646078738" lon="30.0254437909"><ele>94.885</ele><time>2026-04-20T17:20:28.075Z</time><hdop>4.0</hdop><vdop>3.5</vdop><extensions><gom:speed>0.077</gom:speed></extensions></trkpt>
   <trkpt lat="59.0646092987" lon="30.0254453835"><ele>94.978</ele><time>2026-04-20T17:20:29.075Z</time><hdop>3.937</hdop><vdop>3.562</vdop><extensions><gom:speed>0.085</gom:speed></extensions></trkpt>
   <trkpt lat="59.0646107655" lon="30.0254458864"><ele>95.067</ele><time>2026-04-20T17:20:30.075Z</time><hdop>3.937</hdop><vdop>3.625</vdop><extensions><gom:speed>0.117</gom:speed></extensions></trkpt>
   <trkpt lat="59.0646123581" lon="30.0254461378"><ele>95.152</ele><time>2026-04-20T17:20:31.075Z</time><hdop>3.875</hdop><vdop>3.687</vdop><extensions><gom:speed>0.101</gom:speed></extensions></trkpt>
   <trkpt lat="59.0646141602" lon="30.0254470598"><ele>95.192</ele><time>2026-04-20T17:20:32.075Z</time><hdop>3.875</hdop><vdop>3.625</vdop><extensions><gom:speed>0.136</gom:speed></extensions></trkpt>
   <trkpt lat="59.064616088" lon="30.0254466407"><ele>95.207</ele><time>2026-04-20T17:20:33.076Z</time><hdop>3.812</hdop><vdop>3.625</vdop><extensions><gom:speed>0.184</gom:speed></extensions></trkpt>
   <trkpt lat="59.0646184769" lon="30.0254459702"><ele>95.22</ele><time>2026-04-20T17:20:34.075Z</time><hdop>3.812</hdop><vdop>3.687</vdop><extensions><gom:speed>0.215</gom:speed></extensions></trkpt>
   <trkpt lat="59.0646203628" lon="30.0254463893"><ele>95.227</ele><time>2026-04-20T17:20:34.779Z</time><hdop>3.875</hdop><vdop>3.687</vdop><extensions><gom:speed>0.219</gom:speed></extensions></trkpt>
   <trkpt lat="59.0646224583" lon="30.0254461378"><ele>95.233</ele><time>2026-04-20T17:20:35.875Z</time><hdop>3.875</hdop><vdop>3.75</vdop><extensions><gom:speed>0.255</gom:speed></extensions></trkpt>
   <trkpt lat="59.0646244699" lon="30.0254477304"><ele>95.252</ele><time>2026-04-20T17:20:36.694Z</time><hdop>3.937</hdop><vdop>3.75</vdop><extensions><gom:speed>0.259</gom:speed></extensions></trkpt>
   <trkpt lat="59.0646267749" lon="30.0254556932"><ele>95.273</ele><time>2026-04-20T17:20:38.075Z</time><hdop>3.937</hdop><vdop>3.125</vdop><extensions><gom:speed>0.351</gom:speed></extensions></trkpt>
   <trkpt lat="59.0646295829" lon="30.0254706968"><ele>95.808</ele><time>2026-04-20T17:20:39.075Z</time><hdop>3.937</hdop><vdop>2.812</vdop><extensions><gom:speed>0.611</gom:speed></extensions></trkpt>
   <trkpt lat="59.0646387611" lon="30.0254835211"><ele>95.301</ele><time>2026-04-20T17:20:40.075Z</time><hdop>3.937</hdop><vdop>2.562</vdop><extensions><gom:speed>0.819</gom:speed></extensions></trkpt>
   <trkpt lat="59.0646435807" lon="30.0254833535"><ele>94.998</ele><time>2026-04-20T17:20:40.619Z</time><hdop>3.875</hdop><vdop>2.562</vdop><extensions><gom:speed>0.867</gom:speed></extensions></trkpt>
   <trkpt lat="59.0646515854" lon="30.0254770671"><ele>94.889</ele><time>2026-04-20T17:20:41.075Z</time><hdop>3.875</hdop><vdop>2.5</vdop><extensions><gom:speed>0.87</gom:speed></extensions></trkpt>
   <trkpt lat="59.0646586681" lon="30.0254685175"><ele>94.305</ele><time>2026-04-20T17:20:42.076Z</time><hdop>3.812</hdop><vdop>2.5</vdop><extensions><gom:speed>0.853</gom:speed></extensions></trkpt>
   <trkpt lat="59.0646667985" lon="30.0254605547"><ele>94.068</ele><time>2026-04-20T17:20:43.075Z</time><hdop>3.812</hdop><vdop>2.5</vdop><extensions><gom:speed>0.827</gom:speed></extensions></trkpt>
   <trkpt lat="59.0646718696" lon="30.0254565314"><ele>93.97</ele><time>2026-04-20T17:20:44.076Z</time><hdop>3.875</hdop><vdop>2.5</vdop><extensions><gom:speed>0.652</gom:speed></extensions></trkpt>
   <trkpt lat="59.0646736717" lon="30.0254542683"><ele>93.893</ele><time>2026-04-20T17:20:45.075Z</time><hdop>3.937</hdop><vdop>2.5</vdop><extensions><gom:speed>0.458</gom:speed></extensions></trkpt>
   <trkpt lat="59.0646755995" lon="30.0254523404"><ele>93.855</ele><time>2026-04-20T17:20:46.075Z</time><hdop>4.0</hdop><vdop>2.5</vdop><extensions><gom:speed>0.35</gom:speed></extensions></trkpt>
   <trkpt lat="59.0646755995" lon="30.025452089"><ele>93.833</ele><time>2026-04-20T17:20:46.779Z</time><hdop>4.187</hdop><vdop>2.5</vdop><extensions><gom:speed>0.311</gom:speed></extensions></trkpt>
   <trkpt lat="59.0646819698" lon="30.0254472275"><ele>93.328</ele><time>2026-04-20T17:20:48.075Z</time><hdop>4.312</hdop><vdop>2.5</vdop><extensions><gom:speed>0.308</gom:speed></extensions></trkpt>
   <trkpt lat="59.0646874599" lon="30.0254458864"><ele>93.11</ele><time>2026-04-20T17:20:49.075Z</time><hdop>4.375</hdop><vdop>4.437</vdop><extensions><gom:speed>0.325</gom:speed></extensions></trkpt>
   <trkpt lat="59.0646930758" lon="30.0254462217"><ele>93.024</ele><time>2026-04-20T17:20:50.075Z</time><hdop>4.375</hdop><vdop>4.312</vdop><extensions><gom:speed>0.342</gom:speed></extensions></trkpt>
   <trkpt lat="59.0647002842" lon="30.0254462217"><ele>93.054</ele><time>2026-04-20T17:20:51.075Z</time><hdop>4.437</hdop><vdop>4.187</vdop><extensions><gom:speed>0.408</gom:speed></extensions></trkpt>
   <trkpt lat="59.0647048943" lon="30.0254459702"><ele>93.073</ele><time>2026-04-20T17:20:51.717Z</time><hdop>4.5</hdop><vdop>4.187</vdop><extensions><gom:speed>0.5</gom:speed></extensions></trkpt>
   <trkpt lat="59.0647132762" lon="30.0254462217"><ele>93.023</ele><time>2026-04-20T17:20:52.714Z</time><hdop>4.5</hdop><vdop>4.187</vdop><extensions><gom:speed>0.587</gom:speed></extensions></trkpt>
   <trkpt lat="59.0647201913" lon="30.0254485686"><ele>93.226</ele><time>2026-04-20T17:20:54.075Z</time><hdop>4.562</hdop><vdop>4.0</vdop><extensions><gom:speed>0.464</gom:speed></extensions></trkpt>
   <trkpt lat="59.0647202751" lon="30.0254504964"><ele>93.36</ele><time>2026-04-20T17:20:55.075Z</time><hdop>4.562</hdop><vdop>4.0</vdop><extensions><gom:speed>0.345</gom:speed></extensions></trkpt>
   <trkpt lat="59.0647196883" lon="30.0254516699"><ele>93.422</ele><time>2026-04-20T17:20:56.075Z</time><hdop>4.562</hdop><vdop>4.0</vdop><extensions><gom:speed>0.243</gom:speed></extensions></trkpt>
   <trkpt lat="59.0647178862" lon="30.0254521728"><ele>93.445</ele><time>2026-04-20T17:20:57.075Z</time><hdop>4.437</hdop><vdop>3.937</vdop><extensions><gom:speed>0.138</gom:speed></extensions></trkpt>
   <trkpt lat="59.06471709" lon="30.0254521728"><ele>93.459</ele><time>2026-04-20T17:20:57.720Z</time><hdop>4.25</hdop><vdop>3.937</vdop><extensions><gom:speed>0.118</gom:speed></extensions></trkpt>
   <trkpt lat="59.0647176767" lon="30.0254506641"><ele>93.562</ele><time>2026-04-20T17:20:59.075Z</time><hdop>4.062</hdop><vdop>3.937</vdop><extensions><gom:speed>0.135</gom:speed></extensions></trkpt>
   <trkpt lat="59.0647181796" lon="30.0254494906"><ele>93.682</ele><time>2026-04-20T17:21:00.076Z</time><hdop>3.937</hdop><vdop>3.875</vdop><extensions><gom:speed>0.123</gom:speed></extensions></trkpt>
   <trkpt lat="59.0647186825" lon="30.0254487362"><ele>93.762</ele><time>2026-04-20T17:21:01.076Z</time><hdop>3.875</hdop><vdop>3.937</vdop><extensions><gom:speed>0.141</gom:speed></extensions></trkpt>
   <trkpt lat="59.0647190597" lon="30.0254465569"><ele>93.854</ele><time>2026-04-20T17:21:02.076Z</time><hdop>3.75</hdop><vdop>3.687</vdop><extensions><gom:speed>0.173</gom:speed></extensions></trkpt>
   <trkpt lat="59.0647194788" lon="30.0254443776"><ele>93.907</ele><time>2026-04-20T17:21:03.075Z</time><hdop>3.687</hdop><vdop>3.437</vdop><extensions><gom:speed>0.169</gom:speed></extensions></trkpt>
   <trkpt lat="59.064720778" lon="30.0254436233"><ele>93.944</ele><time>2026-04-20T17:21:04.076Z</time><hdop>3.687</hdop><vdop>3.5</vdop><extensions><gom:speed>0.184</gom:speed></extensions></trkpt>
   <trkpt lat="59.0647215743" lon="30.0254438747"><ele>93.966</ele><time>2026-04-20T17:21:04.541Z</time><hdop>3.75</hdop><vdop>3.5</vdop><extensions><gom:speed>0.194</gom:speed></extensions></trkpt>
   <trkpt lat="59.0647227896" lon="30.0254443776"><ele>93.981</ele><time>2026-04-20T17:21:05.075Z</time><hdop>3.75</hdop><vdop>3.5</vdop><extensions><gom:speed>0.208</gom:speed></extensions></trkpt>
   <trkpt lat="59.0647266872" lon="30.0254463893"><ele>93.991</ele><time>2026-04-20T17:21:06.075Z</time><hdop>3.75</hdop><vdop>3.437</vdop><extensions><gom:speed>0.274</gom:speed></extensions></trkpt>
   <trkpt lat="59.0647291599" lon="30.0254480657"><ele>94.001</ele><time>2026-04-20T17:21:07.075Z</time><hdop>3.75</hdop><vdop>3.5</vdop><extensions><gom:speed>0.294</gom:speed></extensions></trkpt>
   <trkpt lat="59.064731884" lon="30.0254474789"><ele>94.036</ele><time>2026-04-20T17:21:08.075Z</time><hdop>3.75</hdop><vdop>3.437</vdop><extensions><gom:speed>0.324</gom:speed></extensions></trkpt>
   <trkpt lat="59.0647342729" lon="30.0254456349"><ele>94.059</ele><time>2026-04-20T17:21:09.075Z</time><hdop>3.812</hdop><vdop>3.562</vdop><extensions><gom:speed>0.313</gom:speed></extensions></trkpt>
   <trkpt lat="59.0647364941" lon="30.025443288"><ele>94.072</ele><time>2026-04-20T17:21:10.075Z</time><hdop>3.812</hdop><vdop>3.562</vdop><extensions><gom:speed>0.347</gom:speed></extensions></trkpt>
   <trkpt lat="59.0647395954" lon="30.0254429527"><ele>93.849</ele><time>2026-04-20T17:21:11.075Z</time><hdop>3.812</hdop><vdop>3.062</vdop><extensions><gom:speed>0.376</gom:speed></extensions></trkpt>
   <trkpt lat="59.0647407688" lon="30.0254450482"><ele>93.716</ele><time>2026-04-20T17:21:11.536Z</time><hdop>3.875</hdop><vdop>3.062</vdop><extensions><gom:speed>0.392</gom:speed></extensions></trkpt>
   <trkpt lat="59.0647439959" lon="30.0254528434"><ele>93.687</ele><time>2026-04-20T17:21:12.075Z</time><hdop>3.875</hdop><vdop>2.75</vdop><extensions><gom:speed>0.414</gom:speed></extensions></trkpt>
   <trkpt lat="59.064747181" lon="30.0254604709"><ele>93.425</ele><time>2026-04-20T17:21:13.075Z</time><hdop>3.937</hdop><vdop>2.5</vdop><extensions><gom:speed>0.389</gom:speed></extensions></trkpt>
   <trkpt lat="59.0647526711" lon="30.0254660868"><ele>92.436</ele><time>2026-04-20T17:21:14.075Z</time><hdop>4.0</hdop><vdop>2.5</vdop><extensions><gom:speed>0.427</gom:speed></extensions></trkpt>
   <trkpt lat="59.0647600891" lon="30.0254718703"><ele>91.782</ele><time>2026-04-20T17:21:15.075Z</time><hdop>4.0</hdop><vdop>2.5</vdop><extensions><gom:speed>0.508</gom:speed></extensions></trkpt>
   <trkpt lat="59.0647673814" lon="30.0254737981"><ele>91.391</ele><time>2026-04-20T17:21:15.980Z</time><hdop>4.125</hdop><vdop>2.5</vdop><extensions><gom:speed>0.61</gom:speed></extensions></trkpt>
   <trkpt lat="59.0647778588" lon="30.0254789949"><ele>91.506</ele><time>2026-04-20T17:21:16.918Z</time><hdop>4.187</hdop><vdop>2.5</vdop><extensions><gom:speed>0.695</gom:speed></extensions></trkpt>
   <trkpt lat="59.0647839775" lon="30.025485449"><ele>91.503</ele><time>2026-04-20T17:21:17.694Z</time><hdop>4.312</hdop><vdop>2.5</vdop><extensions><gom:speed>0.724</gom:speed></extensions></trkpt>
   <trkpt lat="59.0647989811" lon="30.0254996982"><ele>91.578</ele><time>2026-04-20T17:21:18.881Z</time><hdop>4.5</hdop><vdop>2.5</vdop><extensions><gom:speed>0.655</gom:speed></extensions></trkpt>
   <trkpt lat="59.0648116797" lon="30.0255147856"><ele>91.84</ele><time>2026-04-20T17:21:20.075Z</time><hdop>4.625</hdop><vdop>2.5</vdop><extensions><gom:speed>0.605</gom:speed></extensions></trkpt>
   <trkpt lat="59.064819894" lon="30.0255203177"><ele>92.022</ele><time>2026-04-20T17:21:21.075Z</time><hdop>4.75</hdop><vdop>4.625</vdop><extensions><gom:speed>0.534</gom:speed></extensions></trkpt>
   <trkpt lat="59.0648265995" lon="30.0255233352"><ele>92.164</ele><time>2026-04-20T17:21:22.075Z</time><hdop>4.812</hdop><vdop>4.625</vdop><extensions><gom:speed>0.468</gom:speed></extensions></trkpt>
   <trkpt lat="59.0648287788" lon="30.0255236704"><ele>92.165</ele><time>2026-04-20T17:21:23.025Z</time><hdop>4.812</hdop><vdop>4.437</vdop><extensions><gom:speed>0.304</gom:speed></extensions></trkpt>
   <trkpt lat="59.0648281921" lon="30.0255233352"><ele>92.166</ele><time>2026-04-20T17:21:23.972Z</time><hdop>4.812</hdop><vdop>4.437</vdop><extensions><gom:speed>0.193</gom:speed></extensions></trkpt>
   <trkpt lat="59.0648313772" lon="30.0255249277"><ele>92.092</ele><time>2026-04-20T17:21:25.076Z</time><hdop>4.875</hdop><vdop>4.625</vdop><extensions><gom:speed>0.111</gom:speed></extensions></trkpt>
   <trkpt lat="59.0648317963" lon="30.0255240895"><ele>91.98</ele><time>2026-04-20T17:21:25.986Z</time><hdop>4.875</hdop><vdop>4.687</vdop><extensions><gom:speed>0.086</gom:speed></extensions></trkpt>
   <trkpt lat="59.064832383" lon="30.0255237543"><ele>91.919</ele><time>2026-04-20T17:21:27.051Z</time><hdop>4.937</hdop><vdop>4.687</vdop><extensions><gom:speed>0.107</gom:speed></extensions></trkpt>
   <trkpt lat="59.0648369931" lon="30.0255248439"><ele>91.955</ele><time>2026-04-20T17:21:28.075Z</time><hdop>5.0</hdop><vdop>4.687</vdop><extensions><gom:speed>0.144</gom:speed></extensions></trkpt>
   <trkpt lat="59.0648396753" lon="30.0255240895"><ele>91.977</ele><time>2026-04-20T17:21:29.041Z</time><hdop>5.0</hdop><vdop>4.687</vdop><extensions><gom:speed>0.213</gom:speed></extensions></trkpt>
   <trkpt lat="59.0648449978" lon="30.0255222455"><ele>92.122</ele><time>2026-04-20T17:21:30.075Z</time><hdop>5.0</hdop><vdop>4.437</vdop><extensions><gom:speed>0.279</gom:speed></extensions></trkpt>
   <trkpt lat="59.0648496917" lon="30.0255176355"><ele>92.348</ele><time>2026-04-20T17:21:30.960Z</time><hdop>5.0</hdop><vdop>4.562</vdop><extensions><gom:speed>0.364</gom:speed></extensions></trkpt>
   <trkpt lat="59.0648535892" lon="30.0255134445"><ele>92.483</ele><time>2026-04-20T17:21:32.001Z</time><hdop>5.062</hdop><vdop>4.562</vdop><extensions><gom:speed>0.428</gom:speed></extensions></trkpt>
   <trkpt lat="59.0648591632" lon="30.0255090859"><ele>92.658</ele><time>2026-04-20T17:21:32.974Z</time><hdop>5.0</hdop><vdop>4.75</vdop><extensions><gom:speed>0.436</gom:speed></extensions></trkpt>
   <trkpt lat="59.0648632703" lon="30.025503973"><ele>92.762</ele><time>2026-04-20T17:21:33.957Z</time><hdop>5.062</hdop><vdop>4.75</vdop><extensions><gom:speed>0.479</gom:speed></extensions></trkpt>
   <trkpt lat="59.0648679642" lon="30.0255001173"><ele>92.835</ele><time>2026-04-20T17:21:34.961Z</time><hdop>5.062</hdop><vdop>4.875</vdop><extensions><gom:speed>0.508</gom:speed></extensions></trkpt>
   <trkpt lat="59.0648728676" lon="30.0254984409"><ele>92.893</ele><time>2026-04-20T17:21:35.919Z</time><hdop>5.187</hdop><vdop>4.937</vdop><extensions><gom:speed>0.513</gom:speed></extensions></trkpt>
   <trkpt lat="59.064879196" lon="30.0254931603"><ele>92.944</ele><time>2026-04-20T17:21:36.936Z</time><hdop>5.312</hdop><vdop>4.875</vdop><extensions><gom:speed>0.531</gom:speed></extensions></trkpt>
   <trkpt lat="59.0648841832" lon="30.0254958425"><ele>92.988</ele><time>2026-04-20T17:21:37.794Z</time><hdop>5.375</hdop><vdop>5.0</vdop><extensions><gom:speed>0.611</gom:speed></extensions></trkpt>
   <trkpt lat="59.0648913916" lon="30.02549425"><ele>93.038</ele><time>2026-04-20T17:21:38.840Z</time><hdop>5.5</hdop><vdop>4.812</vdop><extensions><gom:speed>0.667</gom:speed></extensions></trkpt>
   <trkpt lat="59.0648977619" lon="30.0254905619"><ele>93.071</ele><time>2026-04-20T17:21:39.818Z</time><hdop>5.625</hdop><vdop>4.75</vdop><extensions><gom:speed>0.637</gom:speed></extensions></trkpt>
   <trkpt lat="59.0649037968" lon="30.0254857842"><ele>93.09</ele><time>2026-04-20T17:21:40.934Z</time><hdop>5.812</hdop><vdop>4.562</vdop><extensions><gom:speed>0.578</gom:speed></extensions></trkpt>
   <trkpt lat="59.0649085745" lon="30.0254817609"><ele>93.102</ele><time>2026-04-20T17:21:41.880Z</time><hdop>6.0</hdop><vdop>4.562</vdop><extensions><gom:speed>0.561</gom:speed></extensions></trkpt>
   <trkpt lat="59.0649100833" lon="30.0254799169"><ele>93.118</ele><time>2026-04-20T17:21:42.451Z</time><hdop>6.125</hdop><vdop>4.5</vdop><extensions><gom:speed>0.569</gom:speed></extensions></trkpt>
   <trkpt lat="59.0649160763" lon="30.025476648"><ele>93.127</ele><time>2026-04-20T17:21:42.937Z</time><hdop>6.312</hdop><vdop>4.5</vdop><extensions><gom:speed>0.578</gom:speed></extensions></trkpt>
   <trkpt lat="59.0649204768" lon="30.025476145"><ele>93.138</ele><time>2026-04-20T17:21:43.874Z</time><hdop>6.562</hdop><vdop>4.375</vdop><extensions><gom:speed>0.59</gom:speed></extensions></trkpt>
   <trkpt lat="59.064926889" lon="30.0254767318"><ele>93.158</ele><time>2026-04-20T17:21:45.060Z</time><hdop>6.75</hdop><vdop>4.25</vdop><extensions><gom:speed>0.622</gom:speed></extensions></trkpt>
   <trkpt lat="59.0649321696" lon="30.025476648"><ele>93.194</ele><time>2026-04-20T17:21:46.004Z</time><hdop>6.937</hdop><vdop>4.25</vdop><extensions><gom:speed>0.584</gom:speed></extensions></trkpt>
   <trkpt lat="59.0649322953" lon="30.0254830182"><ele>93.77</ele><time>2026-04-20T17:21:47.075Z</time><hdop>7.062</hdop><vdop>3.5</vdop><extensions><gom:speed>0.529</gom:speed></extensions></trkpt>
   <trkpt lat="59.0649336783" lon="30.0254831858"><ele>94.114</ele><time>2026-04-20T17:21:47.883Z</time><hdop>7.062</hdop><vdop>3.5</vdop><extensions><gom:speed>0.568</gom:speed></extensions></trkpt>
   <trkpt lat="59.0649350613" lon="30.0254865386"><ele>94.783</ele><time>2026-04-20T17:21:48.609Z</time><hdop>6.812</hdop><vdop>2.812</vdop><extensions><gom:speed>0.586</gom:speed></extensions></trkpt>
   <trkpt lat="59.0649410963" lon="30.025484946"><ele>95.334</ele><time>2026-04-20T17:21:49.075Z</time><hdop>6.625</hdop><vdop>2.687</vdop><extensions><gom:speed>0.614</gom:speed></extensions></trkpt>
   <trkpt lat="59.0649486819" lon="30.0254829344"><ele>95.983</ele><time>2026-04-20T17:21:50.075Z</time><hdop>6.375</hdop><vdop>2.5</vdop><extensions><gom:speed>0.554</gom:speed></extensions></trkpt>
   <trkpt lat="59.0649578601" lon="30.0254785758"><ele>96.341</ele><time>2026-04-20T17:21:51.075Z</time><hdop>6.125</hdop><vdop>2.5</vdop><extensions><gom:speed>0.588</gom:speed></extensions></trkpt>
   <trkpt lat="59.0649682956" lon="30.0254750554"><ele>96.602</ele><time>2026-04-20T17:21:52.075Z</time><hdop>5.687</hdop><vdop>2.5</vdop><extensions><gom:speed>0.606</gom:speed></extensions></trkpt>
   <trkpt lat="59.0649788987" lon="30.0254731276"><ele>96.702</ele><time>2026-04-20T17:21:53.075Z</time><hdop>5.25</hdop><vdop>2.5</vdop><extensions><gom:speed>0.594</gom:speed></extensions></trkpt>
   <trkpt lat="59.0649827963" lon="30.0254716188"><ele>96.761</ele><time>2026-04-20T17:21:53.538Z</time><hdop>5.125</hdop><vdop>2.5</vdop><extensions><gom:speed>0.591</gom:speed></extensions></trkpt>
   <trkpt lat="59.0649897952" lon="30.0254701939"><ele>96.936</ele><time>2026-04-20T17:21:54.075Z</time><hdop>5.0</hdop><vdop>2.5</vdop><extensions><gom:speed>0.642</gom:speed></extensions></trkpt>
   <trkpt lat="59.0649929803" lon="30.0254697748"><ele>97.04</ele><time>2026-04-20T17:21:54.768Z</time><hdop>4.937</hdop><vdop>2.5</vdop><extensions><gom:speed>0.645</gom:speed></extensions></trkpt>
   <trkpt lat="59.0650118815" lon="30.025471535"><ele>96.819</ele><time>2026-04-20T17:21:56.075Z</time><hdop>4.937</hdop><vdop>5.375</vdop><extensions><gom:speed>0.57</gom:speed></extensions></trkpt>
   <trkpt lat="59.0650229875" lon="30.0254801684"><ele>96.602</ele><time>2026-04-20T17:21:57.075Z</time><hdop>4.875</hdop><vdop>5.125</vdop><extensions><gom:speed>0.65</gom:speed></extensions></trkpt>
   <trkpt lat="59.0650298607" lon="30.0254950881"><ele>96.472</ele><time>2026-04-20T17:21:57.980Z</time><hdop>4.875</hdop><vdop>5.125</vdop><extensions><gom:speed>0.856</gom:speed></extensions></trkpt>
   <trkpt lat="59.0650399609" lon="30.0255106785"><ele>96.217</ele><time>2026-04-20T17:21:59.033Z</time><hdop>4.875</hdop><vdop>4.625</vdop><extensions><gom:speed>0.855</gom:speed></extensions></trkpt>
   <trkpt lat="59.0650478818" lon="30.0255178869"><ele>96.093</ele><time>2026-04-20T17:22:00.075Z</time><hdop>4.875</hdop><vdop>4.5</vdop><extensions><gom:speed>0.651</gom:speed></extensions></trkpt>
   <trkpt lat="59.065050564" lon="30.0255176355"><ele>95.92</ele><time>2026-04-20T17:22:01.046Z</time><hdop>4.875</hdop><vdop>4.5</vdop><extensions><gom:speed>0.437</gom:speed></extensions></trkpt>
   <trkpt lat="59.0650520727" lon="30.0255158753"><ele>95.826</ele><time>2026-04-20T17:22:02.075Z</time><hdop>4.812</hdop><vdop>4.5</vdop><extensions><gom:speed>0.262</gom:speed></extensions></trkpt>
   <trkpt lat="59.0650516955" lon="30.0255143665"><ele>95.769</ele><time>2026-04-20T17:22:02.978Z</time><hdop>4.812</hdop><vdop>4.5</vdop><extensions><gom:speed>0.186</gom:speed></extensions></trkpt>
   <trkpt lat="59.0650511926" lon="30.0255117681"><ele>95.787</ele><time>2026-04-20T17:22:04.021Z</time><hdop>4.75</hdop><vdop>4.312</vdop><extensions><gom:speed>0.148</gom:speed></extensions></trkpt>
   <trkpt lat="59.065050564" lon="30.0255108461"><ele>95.819</ele><time>2026-04-20T17:22:04.702Z</time><hdop>4.687</hdop><vdop>4.125</vdop><extensions><gom:speed>0.098</gom:speed></extensions></trkpt>
   <trkpt lat="59.0650529947" lon="30.0255110976"><ele>95.832</ele><time>2026-04-20T17:22:05.195Z</time><hdop>4.562</hdop><vdop>4.062</vdop><extensions><gom:speed>0.13</gom:speed></extensions></trkpt>
   <trkpt lat="59.0650562637" lon="30.025511852"><ele>95.816</ele><time>2026-04-20T17:22:06.075Z</time><hdop>4.5</hdop><vdop>4.062</vdop><extensions><gom:speed>0.16</gom:speed></extensions></trkpt>
   <trkpt lat="59.065060287" lon="30.0255142827"><ele>95.811</ele><time>2026-04-20T17:22:07.075Z</time><hdop>4.437</hdop><vdop>4.062</vdop><extensions><gom:speed>0.164</gom:speed></extensions></trkpt>
   <trkpt lat="59.0650633883" lon="30.0255169649"><ele>95.844</ele><time>2026-04-20T17:22:08.075Z</time><hdop>4.312</hdop><vdop>3.937</vdop><extensions><gom:speed>0.133</gom:speed></extensions></trkpt>
   <trkpt lat="59.0650646875" lon="30.025519228"><ele>95.833</ele><time>2026-04-20T17:22:09.075Z</time><hdop>4.25</hdop><vdop>3.812</vdop><extensions><gom:speed>0.113</gom:speed></extensions></trkpt>
   <trkpt lat="59.0650668668" lon="30.0255199824"><ele>95.833</ele><time>2026-04-20T17:22:10.075Z</time><hdop>4.25</hdop><vdop>3.875</vdop><extensions><gom:speed>0.148</gom:speed></extensions></trkpt>
   <trkpt lat="59.0650688784" lon="30.0255188928"><ele>95.834</ele><time>2026-04-20T17:22:10.979Z</time><hdop>4.187</hdop><vdop>3.875</vdop><extensions><gom:speed>0.188</gom:speed></extensions></trkpt>
   <trkpt lat="59.0650723988" lon="30.0255174678"><ele>95.861</ele><time>2026-04-20T17:22:11.898Z</time><hdop>4.187</hdop><vdop>3.937</vdop><extensions><gom:speed>0.276</gom:speed></extensions></trkpt>
   <trkpt lat="59.0650742848" lon="30.0255167973"><ele>95.878</ele><time>2026-04-20T17:22:12.460Z</time><hdop>4.187</hdop><vdop>3.812</vdop><extensions><gom:speed>0.259</gom:speed></extensions></trkpt>
   <trkpt lat="59.0650749972" lon="30.0255154562"><ele>95.888</ele><time>2026-04-20T17:22:12.953Z</time><hdop>4.25</hdop><vdop>3.812</vdop><extensions><gom:speed>0.275</gom:speed></extensions></trkpt>
   <trkpt lat="59.0650777632" lon="30.0255131931"><ele>95.927</ele><time>2026-04-20T17:22:14.075Z</time><hdop>4.25</hdop><vdop>3.75</vdop><extensions><gom:speed>0.283</gom:speed></extensions></trkpt>
   <trkpt lat="59.0650784757" lon="30.0255116843"><ele>95.949</ele><time>2026-04-20T17:22:15.075Z</time><hdop>4.312</hdop><vdop>3.812</vdop><extensions><gom:speed>0.237</gom:speed></extensions></trkpt>
   <trkpt lat="59.0650795654" lon="30.025511349"><ele>95.963</ele><time>2026-04-20T17:22:16.075Z</time><hdop>4.312</hdop><vdop>3.875</vdop><extensions><gom:speed>0.228</gom:speed></extensions></trkpt>
   <trkpt lat="59.0650813675" lon="30.0255111814"><ele>95.974</ele><time>2026-04-20T17:22:17.075Z</time><hdop>4.312</hdop><vdop>3.875</vdop><extensions><gom:speed>0.25</gom:speed></extensions></trkpt>
   <trkpt lat="59.0650827924" lon="30.0255108461"><ele>95.98</ele><time>2026-04-20T17:22:17.702Z</time><hdop>4.312</hdop><vdop>3.875</vdop><extensions><gom:speed>0.271</gom:speed></extensions></trkpt>
   <trkpt lat="59.0650844688" lon="30.0255112652"><ele>95.985</ele><time>2026-04-20T17:22:18.817Z</time><hdop>4.25</hdop><vdop>3.812</vdop><extensions><gom:speed>0.26</gom:speed></extensions></trkpt>
   <trkpt lat="59.0650841754" lon="30.0255108461"><ele>95.99</ele><time>2026-04-20T17:22:19.643Z</time><hdop>4.25</hdop><vdop>3.75</vdop><extensions><gom:speed>0.244</gom:speed></extensions></trkpt>
   <trkpt lat="59.0650840916" lon="30.0255092536"><ele>96.0</ele><time>2026-04-20T17:22:21.076Z</time><hdop>4.187</hdop><vdop>3.75</vdop><extensions><gom:speed>0.238</gom:speed></extensions></trkpt>
   <trkpt lat="59.0650853908" lon="30.0255098403"><ele>96.005</ele><time>2026-04-20T17:22:21.778Z</time><hdop>4.187</hdop><vdop>3.75</vdop><extensions><gom:speed>0.243</gom:speed></extensions></trkpt>
   <trkpt lat="59.0650867738" lon="30.0255138636"><ele>96.021</ele><time>2026-04-20T17:22:23.076Z</time><hdop>4.125</hdop><vdop>3.75</vdop><extensions><gom:speed>0.191</gom:speed></extensions></trkpt>
   <trkpt lat="59.0650868995" lon="30.0255158753"><ele>96.045</ele><time>2026-04-20T17:22:24.075Z</time><hdop>4.062</hdop><vdop>3.687</vdop><extensions><gom:speed>0.164</gom:speed></extensions></trkpt>
   <trkpt lat="59.0650878634" lon="30.0255178869"><ele>95.876</ele><time>2026-04-20T17:22:25.075Z</time><hdop>4.0</hdop><vdop>3.125</vdop><extensions><gom:speed>0.177</gom:speed></extensions></trkpt>
   <trkpt lat="59.0650890788" lon="30.0255176355"><ele>95.776</ele><time>2026-04-20T17:22:25.803Z</time><hdop>4.0</hdop><vdop>3.125</vdop><extensions><gom:speed>0.205</gom:speed></extensions></trkpt>
   <trkpt lat="59.0650932698" lon="30.0255211559"><ele>95.302</ele><time>2026-04-20T17:22:26.635Z</time><hdop>4.0</hdop><vdop>2.687</vdop><extensions><gom:speed>0.275</gom:speed></extensions></trkpt>
   <trkpt lat="59.0650986761" lon="30.0255284481"><ele>95.201</ele><time>2026-04-20T17:22:27.621Z</time><hdop>4.062</hdop><vdop>3.625</vdop><extensions><gom:speed>0.349</gom:speed></extensions></trkpt>
   <trkpt lat="59.0651026994" lon="30.0255346507"><ele>94.96</ele><time>2026-04-20T17:22:28.075Z</time><hdop>4.062</hdop><vdop>3.75</vdop><extensions><gom:speed>0.367</gom:speed></extensions></trkpt>
   <trkpt lat="59.0651124643" lon="30.025547475"><ele>94.038</ele><time>2026-04-20T17:22:29.075Z</time><hdop>4.187</hdop><vdop>3.312</vdop><extensions><gom:speed>0.506</gom:speed></extensions></trkpt>
   <trkpt lat="59.0651236961" lon="30.0255600479"><ele>93.317</ele><time>2026-04-20T17:22:30.075Z</time><hdop>4.312</hdop><vdop>3.187</vdop><extensions><gom:speed>0.585</gom:speed></extensions></trkpt>
   <trkpt lat="59.0651323713" lon="30.0255693518"><ele>92.816</ele><time>2026-04-20T17:22:31.075Z</time><hdop>4.375</hdop><vdop>4.062</vdop><extensions><gom:speed>0.49</gom:speed></extensions></trkpt>
   <trkpt lat="59.0651332934" lon="30.0255703576"><ele>92.517</ele><time>2026-04-20T17:22:31.961Z</time><hdop>4.437</hdop><vdop>4.062</vdop><extensions><gom:speed>0.414</gom:speed></extensions></trkpt>
   <trkpt lat="59.065139496" lon="30.0255799968"><ele>92.74</ele><time>2026-04-20T17:22:33.028Z</time><hdop>4.562</hdop><vdop>4.375</vdop><extensions><gom:speed>0.227</gom:speed></extensions></trkpt>
   <trkpt lat="59.0651410885" lon="30.0255865347"><ele>92.93</ele><time>2026-04-20T17:22:34.075Z</time><hdop>4.625</hdop><vdop>4.562</vdop><extensions><gom:speed>0.145</gom:speed></extensions></trkpt>
   <trkpt lat="59.0651401665" lon="30.0255891331"><ele>93.024</ele><time>2026-04-20T17:22:35.041Z</time><hdop>4.687</hdop><vdop>4.75</vdop><extensions><gom:speed>0.077</gom:speed></extensions></trkpt>
   <trkpt lat="59.0651402922" lon="30.0255904742"><ele>93.129</ele><time>2026-04-20T17:22:35.990Z</time><hdop>4.75</hdop><vdop>4.875</vdop><extensions><gom:speed>0.065</gom:speed></extensions></trkpt>
   <trkpt lat="59.0651412981" lon="30.0255910609"><ele>93.176</ele><time>2026-04-20T17:22:37.056Z</time><hdop>4.875</hdop><vdop>4.687</vdop><extensions><gom:speed>0.107</gom:speed></extensions></trkpt>
   <trkpt lat="59.0651448604" lon="30.0255959224"><ele>93.226</ele><time>2026-04-20T17:22:38.075Z</time><hdop>4.875</hdop><vdop>4.75</vdop><extensions><gom:speed>0.072</gom:speed></extensions></trkpt>
   <trkpt lat="59.0651465787" lon="30.0255986885"><ele>93.328</ele><time>2026-04-20T17:22:39.068Z</time><hdop>4.875</hdop><vdop>4.687</vdop><extensions><gom:speed>0.073</gom:speed></extensions></trkpt>
   <trkpt lat="59.0651467882" lon="30.0255983532"><ele>93.369</ele><time>2026-04-20T17:22:40.016Z</time><hdop>4.937</hdop><vdop>4.75</vdop><extensions><gom:speed>0.069</gom:speed></extensions></trkpt>
   <trkpt lat="59.0651504763" lon="30.0256016221"><ele>93.543</ele><time>2026-04-20T17:22:41.076Z</time><hdop>5.0</hdop><vdop>4.687</vdop><extensions><gom:speed>0.111</gom:speed></extensions></trkpt>
   <trkpt lat="59.0651527813" lon="30.0256030471"><ele>93.701</ele><time>2026-04-20T17:22:42.030Z</time><hdop>5.062</hdop><vdop>4.562</vdop><extensions><gom:speed>0.099</gom:speed></extensions></trkpt>
   <trkpt lat="59.0651537871" lon="30.0256027956"><ele>93.795</ele><time>2026-04-20T17:22:43.059Z</time><hdop>5.125</hdop><vdop>4.562</vdop><extensions><gom:speed>0.13</gom:speed></extensions></trkpt>
   <trkpt lat="59.0651543738" lon="30.0256023765"><ele>93.915</ele><time>2026-04-20T17:22:44.017Z</time><hdop>5.25</hdop><vdop>4.5</vdop><extensions><gom:speed>0.175</gom:speed></extensions></trkpt>
   <trkpt lat="59.0651560921" lon="30.025599359"><ele>93.993</ele><time>2026-04-20T17:22:44.991Z</time><hdop>5.437</hdop><vdop>4.687</vdop><extensions><gom:speed>0.194</gom:speed></extensions></trkpt>
   <trkpt lat="59.0651583972" lon="30.0255957548"><ele>94.04</ele><time>2026-04-20T17:22:45.980Z</time><hdop>5.562</hdop><vdop>4.687</vdop><extensions><gom:speed>0.294</gom:speed></extensions></trkpt>
   <trkpt lat="59.0651623786" lon="30.0255921506"><ele>94.068</ele><time>2026-04-20T17:22:46.997Z</time><hdop>5.75</hdop><vdop>4.687</vdop><extensions><gom:speed>0.372</gom:speed></extensions></trkpt>
   <trkpt lat="59.0651684974" lon="30.0255950843"><ele>94.111</ele><time>2026-04-20T17:22:47.955Z</time><hdop>5.875</hdop><vdop>4.625</vdop><extensions><gom:speed>0.368</gom:speed></extensions></trkpt>
   <trkpt lat="59.0651750771" lon="30.0255992752"><ele>94.163</ele><time>2026-04-20T17:22:48.833Z</time><hdop>5.812</hdop><vdop>4.562</vdop><extensions><gom:speed>0.453</gom:speed></extensions></trkpt>
   <trkpt lat="59.0651815731" lon="30.0256060645"><ele>94.198</ele><time>2026-04-20T17:22:49.742Z</time><hdop>5.75</hdop><vdop>4.562</vdop><extensions><gom:speed>0.567</gom:speed></extensions></trkpt>
   <trkpt lat="59.065184884" lon="30.0256127701"><ele>94.22</ele><time>2026-04-20T17:22:50.558Z</time><hdop>5.625</hdop><vdop>4.5</vdop><extensions><gom:speed>0.597</gom:speed></extensions></trkpt>
   <trkpt lat="59.0651898712" lon="30.0256209843"><ele>94.237</ele><time>2026-04-20T17:22:51.076Z</time><hdop>5.5</hdop><vdop>4.375</vdop><extensions><gom:speed>0.612</gom:speed></extensions></trkpt>
   <trkpt lat="59.0651921762" lon="30.0256253429"><ele>94.248</ele><time>2026-04-20T17:22:51.580Z</time><hdop>5.375</hdop><vdop>4.375</vdop><extensions><gom:speed>0.648</gom:speed></extensions></trkpt>
   <trkpt lat="59.0651946908" lon="30.0256328866"><ele>93.973</ele><time>2026-04-20T17:22:52.075Z</time><hdop>5.25</hdop><vdop>4.375</vdop><extensions><gom:speed>0.688</gom:speed></extensions></trkpt>
   <trkpt lat="59.0651971635" lon="30.025637832"><ele>93.809</ele><time>2026-04-20T17:22:52.555Z</time><hdop>5.187</hdop><vdop>4.375</vdop><extensions><gom:speed>0.674</gom:speed></extensions></trkpt>
   <trkpt lat="59.0652004743" lon="30.0256437831"><ele>94.493</ele><time>2026-04-20T17:22:53.076Z</time><hdop>5.062</hdop><vdop>3.562</vdop><extensions><gom:speed>0.656</gom:speed></extensions></trkpt>
   <trkpt lat="59.0652041623" lon="30.0256468844"><ele>94.902</ele><time>2026-04-20T17:22:53.642Z</time><hdop>5.0</hdop><vdop>3.562</vdop><extensions><gom:speed>0.676</gom:speed></extensions></trkpt>
   <trkpt lat="59.0652106583" lon="30.0256517459"><ele>95.089</ele><time>2026-04-20T17:22:54.420Z</time><hdop>4.875</hdop><vdop>3.187</vdop><extensions><gom:speed>0.712</gom:speed></extensions></trkpt>
   <trkpt lat="59.0652162742" lon="30.025655434"><ele>96.071</ele><time>2026-04-20T17:22:55.075Z</time><hdop>4.812</hdop><vdop>3.187</vdop><extensions><gom:speed>0.701</gom:speed></extensions></trkpt>
   <trkpt lat="59.0652236922" lon="30.0256579485"><ele>96.905</ele><time>2026-04-20T17:22:56.075Z</time><hdop>4.687</hdop><vdop>2.687</vdop><extensions><gom:speed>0.631</gom:speed></extensions></trkpt>
   <trkpt lat="59.0652259972" lon="30.0256552663"><ele>97.403</ele><time>2026-04-20T17:22:56.602Z</time><hdop>4.625</hdop><vdop>2.687</vdop><extensions><gom:speed>0.564</gom:speed></extensions></trkpt>
   <trkpt lat="59.0652305653" lon="30.0256515783"><ele>97.772</ele><time>2026-04-20T17:22:57.075Z</time><hdop>4.562</hdop><vdop>2.5</vdop><extensions><gom:speed>0.566</gom:speed></extensions></trkpt>
   <trkpt lat="59.0652320741" lon="30.0256473873"><ele>97.992</ele><time>2026-04-20T17:22:57.757Z</time><hdop>4.562</hdop><vdop>2.5</vdop><extensions><gom:speed>0.549</gom:speed></extensions></trkpt>
   <trkpt lat="59.0652380671" lon="30.02564152"><ele>98.302</ele><time>2026-04-20T17:22:58.734Z</time><hdop>4.5</hdop><vdop>2.5</vdop><extensions><gom:speed>0.578</gom:speed></extensions></trkpt>
   <trkpt lat="59.0652489636" lon="30.025635485"><ele>99.031</ele><time>2026-04-20T17:23:00.075Z</time><hdop>4.437</hdop><vdop>2.5</vdop><extensions><gom:speed>0.505</gom:speed></extensions></trkpt>
   <trkpt lat="59.0652537832" lon="30.0256332219"><ele>99.467</ele><time>2026-04-20T17:23:01.074Z</time><hdop>4.375</hdop><vdop>2.5</vdop><extensions><gom:speed>0.465</gom:speed></extensions></trkpt>
   <trkpt lat="59.065261285" lon="30.0256332219"><ele>99.918</ele><time>2026-04-20T17:23:02.041Z</time><hdop>4.375</hdop><vdop>2.5</vdop><extensions><gom:speed>0.481</gom:speed></extensions></trkpt>
   <trkpt lat="59.0652653922" lon="30.0256346468"><ele>100.22</ele><time>2026-04-20T17:23:02.878Z</time><hdop>4.375</hdop><vdop>2.5</vdop><extensions><gom:speed>0.507</gom:speed></extensions></trkpt>
   <trkpt lat="59.0652786775" lon="30.0256399274"><ele>100.339</ele><time>2026-04-20T17:23:04.075Z</time><hdop>4.312</hdop><vdop>2.5</vdop><extensions><gom:speed>0.467</gom:speed></extensions></trkpt>
   <trkpt lat="59.0652856764" lon="30.025638754"><ele>100.354</ele><time>2026-04-20T17:23:05.075Z</time><hdop>4.312</hdop><vdop>2.5</vdop><extensions><gom:speed>0.446</gom:speed></extensions></trkpt>
   <trkpt lat="59.0652926752" lon="30.0256353174"><ele>100.184</ele><time>2026-04-20T17:23:06.076Z</time><hdop>4.312</hdop><vdop>2.5</vdop><extensions><gom:speed>0.465</gom:speed></extensions></trkpt>
   <trkpt lat="59.065300177" lon="30.0256326352"><ele>100.033</ele><time>2026-04-20T17:23:07.075Z</time><hdop>4.312</hdop><vdop>2.5</vdop><extensions><gom:speed>0.443</gom:speed></extensions></trkpt>
   <trkpt lat="59.0653083913" lon="30.0256297853"><ele>100.124</ele><time>2026-04-20T17:23:08.075Z</time><hdop>4.375</hdop><vdop>2.5</vdop><extensions><gom:speed>0.486</gom:speed></extensions></trkpt>
   <trkpt lat="59.0653153902" lon="30.0256275222"><ele>100.178</ele><time>2026-04-20T17:23:09.000Z</time><hdop>4.437</hdop><vdop>2.5</vdop><extensions><gom:speed>0.547</gom:speed></extensions></trkpt>
   <trkpt lat="59.0653241912" lon="30.0256287795"><ele>100.273</ele><time>2026-04-20T17:23:10.076Z</time><hdop>4.5</hdop><vdop>2.5</vdop><extensions><gom:speed>0.57</gom:speed></extensions></trkpt>
   <trkpt lat="59.0653331598" lon="30.0256348983"><ele>100.238</ele><time>2026-04-20T17:23:11.075Z</time><hdop>4.5</hdop><vdop>2.5</vdop><extensions><gom:speed>0.528</gom:speed></extensions></trkpt>
   <trkpt lat="59.0653400749" lon="30.025639676"><ele>100.217</ele><time>2026-04-20T17:23:12.059Z</time><hdop>4.562</hdop><vdop>2.5</vdop><extensions><gom:speed>0.575</gom:speed></extensions></trkpt>
   <trkpt lat="59.0653503846" lon="30.0256457948"><ele>99.406</ele><time>2026-04-20T17:23:13.075Z</time><hdop>4.562</hdop><vdop>2.5</vdop><extensions><gom:speed>0.584</gom:speed></extensions></trkpt>
   <trkpt lat="59.0653581798" lon="30.0256498181"><ele>99.251</ele><time>2026-04-20T17:23:14.075Z</time><hdop>4.562</hdop><vdop>5.187</vdop><extensions><gom:speed>0.526</gom:speed></extensions></trkpt>
   <trkpt lat="59.0653665617" lon="30.0256522488"><ele>99.27</ele><time>2026-04-20T17:23:15.075Z</time><hdop>4.562</hdop><vdop>5.187</vdop><extensions><gom:speed>0.53</gom:speed></extensions></trkpt>
   <trkpt lat="59.0653753627" lon="30.0256516621"><ele>99.452</ele><time>2026-04-20T17:23:16.076Z</time><hdop>4.562</hdop><vdop>5.187</vdop><extensions><gom:speed>0.516</gom:speed></extensions></trkpt>
   <trkpt lat="59.0653803919" lon="30.025650321"><ele>99.691</ele><time>2026-04-20T17:23:16.972Z</time><hdop>4.625</hdop><vdop>5.25</vdop><extensions><gom:speed>0.481</gom:speed></extensions></trkpt>
   <trkpt lat="59.0653829903" lon="30.0256523327"><ele>99.833</ele><time>2026-04-20T17:23:17.736Z</time><hdop>4.687</hdop><vdop>5.25</vdop><extensions><gom:speed>0.442</gom:speed></extensions></trkpt>
   <trkpt lat="59.0653887738" lon="30.0256602955"><ele>100.125</ele><time>2026-04-20T17:23:18.987Z</time><hdop>4.812</hdop><vdop>5.062</vdop><extensions><gom:speed>0.374</gom:speed></extensions></trkpt>
   <trkpt lat="59.065392378" lon="30.0256630615"><ele>100.299</ele><time>2026-04-20T17:23:20.094Z</time><hdop>5.062</hdop><vdop>5.062</vdop><extensions><gom:speed>0.388</gom:speed></extensions></trkpt>
   <trkpt lat="59.0653978681" lon="30.025660966"><ele>100.447</ele><time>2026-04-20T17:23:20.999Z</time><hdop>5.125</hdop><vdop>4.75</vdop><extensions><gom:speed>0.362</gom:speed></extensions></trkpt>
   <trkpt lat="59.0653992931" lon="30.0256603793"><ele>100.535</ele><time>2026-04-20T17:23:21.473Z</time><hdop>5.25</hdop><vdop>4.75</vdop><extensions><gom:speed>0.372</gom:speed></extensions></trkpt>
   <trkpt lat="59.0654059986" lon="30.0256579485"><ele>100.583</ele><time>2026-04-20T17:23:22.075Z</time><hdop>5.312</hdop><vdop>4.75</vdop><extensions><gom:speed>0.379</gom:speed></extensions></trkpt>
   <trkpt lat="59.0654092675" lon="30.0256569427"><ele>100.555</ele><time>2026-04-20T17:23:23.013Z</time><hdop>5.375</hdop><vdop>4.5</vdop><extensions><gom:speed>0.358</gom:speed></extensions></trkpt>
   <trkpt lat="59.065411363" lon="30.0256581162"><ele>100.539</ele><time>2026-04-20T17:23:23.579Z</time><hdop>5.437</hdop><vdop>4.5</vdop><extensions><gom:speed>0.39</gom:speed></extensions></trkpt>
   <trkpt lat="59.06541459" lon="30.0256602955"><ele>100.536</ele><time>2026-04-20T17:23:24.076Z</time><hdop>5.437</hdop><vdop>4.187</vdop><extensions><gom:speed>0.385</gom:speed></extensions></trkpt>
   <trkpt lat="59.0654166855" lon="30.0256624748"><ele>100.534</ele><time>2026-04-20T17:23:24.844Z</time><hdop>5.5</hdop><vdop>4.187</vdop><extensions><gom:speed>0.323</gom:speed></extensions></trkpt>
   <trkpt lat="59.0654196611" lon="30.0256686774"><ele>100.48</ele><time>2026-04-20T17:23:25.819Z</time><hdop>5.437</hdop><vdop>4.0</vdop><extensions><gom:speed>0.378</gom:speed></extensions></trkpt>
   <trkpt lat="59.0654219661" lon="30.0256782327"><ele>100.31</ele><time>2026-04-20T17:23:26.876Z</time><hdop>5.437</hdop><vdop>4.125</vdop><extensions><gom:speed>0.545</gom:speed></extensions></trkpt>
   <trkpt lat="59.0654248998" lon="30.0256834295"><ele>100.234</ele><time>2026-04-20T17:23:27.632Z</time><hdop>5.375</hdop><vdop>4.437</vdop><extensions><gom:speed>0.6</gom:speed></extensions></trkpt>
   <trkpt lat="59.0654347904" lon="30.0257042166"><ele>100.156</ele><time>2026-04-20T17:23:28.634Z</time><hdop>5.312</hdop><vdop>4.625</vdop><extensions><gom:speed>0.845</gom:speed></extensions></trkpt>
   <trkpt lat="59.0654439686" lon="30.0257190526"><ele>100.056</ele><time>2026-04-20T17:23:30.001Z</time><hdop>5.312</hdop><vdop>4.437</vdop><extensions><gom:speed>0.75</gom:speed></extensions></trkpt>
   <trkpt lat="59.0654494587" lon="30.0257243332"><ele>100.017</ele><time>2026-04-20T17:23:30.950Z</time><hdop>5.375</hdop><vdop>4.5</vdop><extensions><gom:speed>0.643</gom:speed></extensions></trkpt>
   <trkpt lat="59.0654536916" lon="30.0257237465"><ele>99.991</ele><time>2026-04-20T17:23:32.015Z</time><hdop>5.5</hdop><vdop>4.437</vdop><extensions><gom:speed>0.539</gom:speed></extensions></trkpt>
   <trkpt lat="59.0654573796" lon="30.0257215672"><ele>99.992</ele><time>2026-04-20T17:23:32.963Z</time><hdop>5.625</hdop><vdop>4.312</vdop><extensions><gom:speed>0.512</gom:speed></extensions></trkpt>
   <trkpt lat="59.0654589722" lon="30.0257217348"><ele>99.992</ele><time>2026-04-20T17:23:33.792Z</time><hdop>5.75</hdop><vdop>4.312</vdop><extensions><gom:speed>0.476</gom:speed></extensions></trkpt>
   <trkpt lat="59.0654590979" lon="30.0257212319"><ele>99.279</ele><time>2026-04-20T17:23:34.260Z</time><hdop>5.687</hdop><vdop>3.437</vdop><extensions><gom:speed>0.442</gom:speed></extensions></trkpt>
   <trkpt lat="59.0654602714" lon="30.0257248361"><ele>98.461</ele><time>2026-04-20T17:23:35.075Z</time><hdop>5.625</hdop><vdop>2.875</vdop><extensions><gom:speed>0.472</gom:speed></extensions></trkpt>
   <trkpt lat="59.0654624926" lon="30.0257314578"><ele>98.243</ele><time>2026-04-20T17:23:36.075Z</time><hdop>5.562</hdop><vdop>2.562</vdop><extensions><gom:speed>0.479</gom:speed></extensions></trkpt>
   <trkpt lat="59.0654661806" lon="30.0257404265"><ele>98.307</ele><time>2026-04-20T17:23:37.076Z</time><hdop>5.5</hdop><vdop>2.5</vdop><extensions><gom:speed>0.474</gom:speed></extensions></trkpt>
   <trkpt lat="59.065470162" lon="30.0257461261"><ele>98.65</ele><time>2026-04-20T17:23:38.075Z</time><hdop>5.25</hdop><vdop>2.5</vdop><extensions><gom:speed>0.376</gom:speed></extensions></trkpt>
   <trkpt lat="59.0654737663" lon="30.0257493951"><ele>99.353</ele><time>2026-04-20T17:23:39.075Z</time><hdop>5.0</hdop><vdop>2.5</vdop><extensions><gom:speed>0.298</gom:speed></extensions></trkpt>
   <trkpt lat="59.0654767837" lon="30.0257546757"><ele>99.952</ele><time>2026-04-20T17:23:40.075Z</time><hdop>4.875</hdop><vdop>4.937</vdop><extensions><gom:speed>0.236</gom:speed></extensions></trkpt>
   <trkpt lat="59.0654796755" lon="30.0257618841"><ele>100.375</ele><time>2026-04-20T17:23:41.075Z</time><hdop>4.625</hdop><vdop>5.0</vdop><extensions><gom:speed>0.163</gom:speed></extensions></trkpt>
   <trkpt lat="59.0654822739" lon="30.0257672485"><ele>100.665</ele><time>2026-04-20T17:23:42.075Z</time><hdop>4.562</hdop><vdop>5.0</vdop><extensions><gom:speed>0.098</gom:speed></extensions></trkpt>
   <trkpt lat="59.0654831959" lon="30.0257689249"><ele>101.03</ele><time>2026-04-20T17:23:43.032Z</time><hdop>4.437</hdop><vdop>5.062</vdop><extensions><gom:speed>0.074</gom:speed></extensions></trkpt>
   <trkpt lat="59.0654833635" lon="30.0257696793"><ele>101.248</ele><time>2026-04-20T17:23:43.962Z</time><hdop>4.437</hdop><vdop>5.062</vdop><extensions><gom:speed>0.078</gom:speed></extensions></trkpt>
   <trkpt lat="59.0654858781" lon="30.0257731997"><ele>101.49</ele><time>2026-04-20T17:23:44.999Z</time><hdop>4.437</hdop><vdop>5.125</vdop><extensions><gom:speed>0.118</gom:speed></extensions></trkpt>
   <trkpt lat="59.0654867582" lon="30.0257739541"><ele>101.676</ele><time>2026-04-20T17:23:46.035Z</time><hdop>4.437</hdop><vdop>5.062</vdop><extensions><gom:speed>0.138</gom:speed></extensions></trkpt>
   <trkpt lat="59.0654913683" lon="30.0257786479"><ele>101.839</ele><time>2026-04-20T17:23:47.002Z</time><hdop>4.5</hdop><vdop>4.937</vdop><extensions><gom:speed>0.152</gom:speed></extensions></trkpt>
   <trkpt lat="59.0654983672" lon="30.0257858564"><ele>102.152</ele><time>2026-04-20T17:23:48.075Z</time><hdop>4.5</hdop><vdop>4.75</vdop><extensions><gom:speed>0.201</gom:speed></extensions></trkpt>
   <trkpt lat="59.0655038992" lon="30.0257904664"><ele>102.363</ele><time>2026-04-20T17:23:49.075Z</time><hdop>4.437</hdop><vdop>4.687</vdop><extensions><gom:speed>0.217</gom:speed></extensions></trkpt>
   <trkpt lat="59.0655094732" lon="30.0257939868"><ele>102.5</ele><time>2026-04-20T17:23:50.075Z</time><hdop>4.5</hdop><vdop>4.562</vdop><extensions><gom:speed>0.293</gom:speed></extensions></trkpt>
   <trkpt lat="59.06551467" lon="30.0257967528"><ele>102.51</ele><time>2026-04-20T17:23:51.075Z</time><hdop>4.437</hdop><vdop>4.375</vdop><extensions><gom:speed>0.3</gom:speed></extensions></trkpt>
   <trkpt lat="59.0655164721" lon="30.0257979263"><ele>102.516</ele><time>2026-04-20T17:23:51.761Z</time><hdop>4.437</hdop><vdop>4.375</vdop><extensions><gom:speed>0.284</gom:speed></extensions></trkpt>
   <trkpt lat="59.0655184837" lon="30.0257992674"><ele>102.563</ele><time>2026-04-20T17:23:52.388Z</time><hdop>4.437</hdop><vdop>4.312</vdop><extensions><gom:speed>0.262</gom:speed></extensions></trkpt>
   <trkpt lat="59.0655217946" lon="30.0258009438"><ele>102.573</ele><time>2026-04-20T17:23:53.075Z</time><hdop>4.437</hdop><vdop>4.187</vdop><extensions><gom:speed>0.262</gom:speed></extensions></trkpt>
   <trkpt lat="59.0655230938" lon="30.0258018658"><ele>102.579</ele><time>2026-04-20T17:23:53.773Z</time><hdop>4.5</hdop><vdop>4.187</vdop><extensions><gom:speed>0.258</gom:speed></extensions></trkpt>
   <trkpt lat="59.0655251892" lon="30.0258043804"><ele>102.519</ele><time>2026-04-20T17:23:55.075Z</time><hdop>4.5</hdop><vdop>4.125</vdop><extensions><gom:speed>0.224</gom:speed></extensions></trkpt>
   <trkpt lat="59.0655263627" lon="30.0258050509"><ele>102.525</ele><time>2026-04-20T17:23:56.075Z</time><hdop>4.437</hdop><vdop>4.125</vdop><extensions><gom:speed>0.191</gom:speed></extensions></trkpt>
   <trkpt lat="59.0655279972" lon="30.0258050509"><ele>102.568</ele><time>2026-04-20T17:23:57.008Z</time><hdop>4.437</hdop><vdop>4.5</vdop><extensions><gom:speed>0.222</gom:speed></extensions></trkpt>
   <trkpt lat="59.0655311823" lon="30.02580547"><ele>102.28</ele><time>2026-04-20T17:23:58.075Z</time><hdop>4.437</hdop><vdop>3.937</vdop><extensions><gom:speed>0.243</gom:speed></extensions></trkpt>
   <trkpt lat="59.0655327749" lon="30.0258058891"><ele>102.109</ele><time>2026-04-20T17:23:58.602Z</time><hdop>4.437</hdop><vdop>3.937</vdop><extensions><gom:speed>0.263</gom:speed></extensions></trkpt>
   <trkpt lat="59.06553596" lon="30.0258066435"><ele>102.4</ele><time>2026-04-20T17:23:59.076Z</time><hdop>4.437</hdop><vdop>3.437</vdop><extensions><gom:speed>0.271</gom:speed></extensions></trkpt>
   <trkpt lat="59.0655394804" lon="30.0258073979"><ele>102.574</ele><time>2026-04-20T17:23:59.616Z</time><hdop>4.5</hdop><vdop>3.437</vdop><extensions><gom:speed>0.327</gom:speed></extensions></trkpt>
   <trkpt lat="59.0655436713" lon="30.0258091581"><ele>101.95</ele><time>2026-04-20T17:24:00.076Z</time><hdop>4.5</hdop><vdop>3.0</vdop><extensions><gom:speed>0.333</gom:speed></extensions></trkpt>
   <trkpt lat="59.065547066" lon="30.0258109183"><ele>101.578</ele><time>2026-04-20T17:24:00.762Z</time><hdop>4.562</hdop><vdop>3.0</vdop><extensions><gom:speed>0.344</gom:speed></extensions></trkpt>
   <trkpt lat="59.0655545678" lon="30.025814271"><ele>101.496</ele><time>2026-04-20T17:24:01.680Z</time><hdop>4.687</hdop><vdop>2.687</vdop><extensions><gom:speed>0.4</gom:speed></extensions></trkpt>
   <trkpt lat="59.0655629916" lon="30.0258178752"><ele>101.394</ele><time>2026-04-20T17:24:02.558Z</time><hdop>4.75</hdop><vdop>2.5</vdop><extensions><gom:speed>0.499</gom:speed></extensions></trkpt>
   <trkpt lat="59.0655691942" lon="30.0258208927"><ele>101.378</ele><time>2026-04-20T17:24:03.075Z</time><hdop>4.75</hdop><vdop>2.5</vdop><extensions><gom:speed>0.515</gom:speed></extensions></trkpt>
   <trkpt lat="59.0655787915" lon="30.0258245808"><ele>101.697</ele><time>2026-04-20T17:24:04.075Z</time><hdop>4.812</hdop><vdop>2.5</vdop><extensions><gom:speed>0.513</gom:speed></extensions></trkpt>
   <trkpt lat="59.0655812642" lon="30.025825419"><ele>101.888</ele><time>2026-04-20T17:24:04.825Z</time><hdop>4.875</hdop><vdop>2.5</vdop><extensions><gom:speed>0.528</gom:speed></extensions></trkpt>
   <trkpt lat="59.0655972736" lon="30.0258353934"><ele>101.778</ele><time>2026-04-20T17:24:06.075Z</time><hdop>4.875</hdop><vdop>5.875</vdop><extensions><gom:speed>0.542</gom:speed></extensions></trkpt>
   <trkpt lat="59.0656014646" lon="30.0258398358"><ele>101.856</ele><time>2026-04-20T17:24:07.076Z</time><hdop>4.937</hdop><vdop>6.0</vdop><extensions><gom:speed>0.482</gom:speed></extensions></trkpt>
   <trkpt lat="59.0656050688" lon="30.0258455355"><ele>101.723</ele><time>2026-04-20T17:24:08.075Z</time><hdop>4.875</hdop><vdop>6.062</vdop><extensions><gom:speed>0.211</gom:speed></extensions></trkpt>
   <trkpt lat="59.0656037696" lon="30.0258459546"><ele>101.746</ele><time>2026-04-20T17:24:08.972Z</time><hdop>4.75</hdop><vdop>6.25</vdop><extensions><gom:speed>0.089</gom:speed></extensions></trkpt>
   <trkpt lat="59.0656052783" lon="30.0258481339"><ele>101.812</ele><time>2026-04-20T17:24:10.075Z</time><hdop>4.687</hdop><vdop>6.312</vdop><extensions><gom:speed>0.104</gom:speed></extensions></trkpt>
   <trkpt lat="59.0656051945" lon="30.0258475472"><ele>101.851</ele><time>2026-04-20T17:24:10.985Z</time><hdop>4.687</hdop><vdop>6.312</vdop><extensions><gom:speed>0.077</gom:speed></extensions></trkpt>
   <trkpt lat="59.0656047754" lon="30.0258477986"><ele>101.903</ele><time>2026-04-20T17:24:12.051Z</time><hdop>4.625</hdop><vdop>6.375</vdop><extensions><gom:speed>0.072</gom:speed></extensions></trkpt>
   <trkpt lat="59.0656070804" lon="30.0258500617"><ele>102.088</ele><time>2026-04-20T17:24:13.075Z</time><hdop>4.562</hdop><vdop>6.062</vdop><extensions><gom:speed>0.079</gom:speed></extensions></trkpt>
   <trkpt lat="59.0656079605" lon="30.0258508999"><ele>102.473</ele><time>2026-04-20T17:24:13.946Z</time><hdop>4.562</hdop><vdop>5.75</vdop><extensions><gom:speed>0.059</gom:speed></extensions></trkpt>
   <trkpt lat="59.0656078767" lon="30.0258510676"><ele>102.597</ele><time>2026-04-20T17:24:15.012Z</time><hdop>4.625</hdop><vdop>5.5</vdop><extensions><gom:speed>0.061</gom:speed></extensions></trkpt>
   <trkpt lat="59.0656075833" lon="30.0258499779"><ele>102.602</ele><time>2026-04-20T17:24:16.079Z</time><hdop>4.687</hdop><vdop>5.625</vdop><extensions><gom:speed>0.07</gom:speed></extensions></trkpt>
   <trkpt lat="59.0656106847" lon="30.0258521572"><ele>102.698</ele><time>2026-04-20T17:24:17.075Z</time><hdop>4.75</hdop><vdop>5.437</vdop><extensions><gom:speed>0.08</gom:speed></extensions></trkpt>
   <trkpt lat="59.0656125706" lon="30.0258534983"><ele>102.732</ele><time>2026-04-20T17:24:17.973Z</time><hdop>4.75</hdop><vdop>5.25</vdop><extensions><gom:speed>0.072</gom:speed></extensions></trkpt>
   <trkpt lat="59.0656135764" lon="30.0258546718"><ele>102.796</ele><time>2026-04-20T17:24:19.039Z</time><hdop>4.812</hdop><vdop>5.25</vdop><extensions><gom:speed>0.084</gom:speed></extensions></trkpt>
   <trkpt lat="59.0656141631" lon="30.0258551747"><ele>102.761</ele><time>2026-04-20T17:24:19.988Z</time><hdop>4.937</hdop><vdop>5.187</vdop><extensions><gom:speed>0.099</gom:speed></extensions></trkpt>
   <trkpt lat="59.0656153785" lon="30.0258550909"><ele>102.65</ele><time>2026-04-20T17:24:21.053Z</time><hdop>5.062</hdop><vdop>5.25</vdop><extensions><gom:speed>0.125</gom:speed></extensions></trkpt>
   <trkpt lat="59.0656153785" lon="30.0258534983"><ele>102.647</ele><time>2026-04-20T17:24:22.001Z</time><hdop>5.187</hdop><vdop>5.125</vdop><extensions><gom:speed>0.111</gom:speed></extensions></trkpt>
   <trkpt lat="59.0656161748" lon="30.0258542527"><ele>102.576</ele><time>2026-04-20T17:24:22.948Z</time><hdop>5.312</hdop><vdop>4.875</vdop><extensions><gom:speed>0.174</gom:speed></extensions></trkpt>
   <trkpt lat="59.0656177674" lon="30.0258579407"><ele>102.533</ele><time>2026-04-20T17:24:23.725Z</time><hdop>5.375</hdop><vdop>4.875</vdop><extensions><gom:speed>0.303</gom:speed></extensions></trkpt>
   <trkpt lat="59.0656202819" lon="30.0258623831"><ele>102.52</ele><time>2026-04-20T17:24:24.561Z</time><hdop>5.5</hdop><vdop>4.687</vdop><extensions><gom:speed>0.477</gom:speed></extensions></trkpt>
   <trkpt lat="59.0656255625" lon="30.025869843"><ele>102.487</ele><time>2026-04-20T17:24:25.597Z</time><hdop>5.625</hdop><vdop>4.562</vdop><extensions><gom:speed>0.595</gom:speed></extensions></trkpt>
   <trkpt lat="59.0656331901" lon="30.0258739502"><ele>103.902</ele><time>2026-04-20T17:24:26.075Z</time><hdop>5.625</hdop><vdop>3.625</vdop><extensions><gom:speed>0.6</gom:speed></extensions></trkpt>
   <trkpt lat="59.065639686" lon="30.0258783926"><ele>104.747</ele><time>2026-04-20T17:24:26.702Z</time><hdop>5.687</hdop><vdop>3.625</vdop><extensions><gom:speed>0.626</gom:speed></extensions></trkpt>
   <trkpt lat="59.0656520913" lon="30.0258831703"><ele>103.743</ele><time>2026-04-20T17:24:27.603Z</time><hdop>5.687</hdop><vdop>2.75</vdop><extensions><gom:speed>0.633</gom:speed></extensions></trkpt>
   <trkpt lat="59.0656587968" lon="30.025883757"><ele>103.12</ele><time>2026-04-20T17:24:28.076Z</time><hdop>5.625</hdop><vdop>2.625</vdop><extensions><gom:speed>0.632</gom:speed></extensions></trkpt>
   <trkpt lat="59.0656641612" lon="30.0258832541"><ele>102.747</ele><time>2026-04-20T17:24:28.696Z</time><hdop>5.562</hdop><vdop>2.625</vdop><extensions><gom:speed>0.626</gom:speed></extensions></trkpt>
   <trkpt lat="59.0656734651" lon="30.0258830864"><ele>102.666</ele><time>2026-04-20T17:24:29.556Z</time><hdop>5.5</hdop><vdop>2.5</vdop><extensions><gom:speed>0.615</gom:speed></extensions></trkpt>
   <trkpt lat="59.065681386" lon="30.0258845952"><ele>102.375</ele><time>2026-04-20T17:24:30.076Z</time><hdop>5.437</hdop><vdop>2.5</vdop><extensions><gom:speed>0.584</gom:speed></extensions></trkpt>
   <trkpt lat="59.0656840682" lon="30.0258839246"><ele>102.201</ele><time>2026-04-20T17:24:30.564Z</time><hdop>5.375</hdop><vdop>2.5</vdop><extensions><gom:speed>0.582</gom:speed></extensions></trkpt>
   <trkpt lat="59.0656887621" lon="30.0258857687"><ele>102.425</ele><time>2026-04-20T17:24:31.075Z</time><hdop>5.312</hdop><vdop>5.062</vdop><extensions><gom:speed>0.573</gom:speed></extensions></trkpt>
   <trkpt lat="59.065698066" lon="30.0258893729"><ele>103.02</ele><time>2026-04-20T17:24:32.075Z</time><hdop>5.25</hdop><vdop>5.375</vdop><extensions><gom:speed>0.578</gom:speed></extensions></trkpt>
   <trkpt lat="59.065705484" lon="30.0258919713"><ele>103.098</ele><time>2026-04-20T17:24:33.016Z</time><hdop>5.312</hdop><vdop>5.5</vdop><extensions><gom:speed>0.622</gom:speed></extensions></trkpt>
   <trkpt lat="59.0657090882" lon="30.025892558"><ele>103.144</ele><time>2026-04-20T17:24:33.532Z</time><hdop>5.312</hdop><vdop>5.5</vdop><extensions><gom:speed>0.639</gom:speed></extensions></trkpt>
   <trkpt lat="59.0657139916" lon="30.0258956593"><ele>103.036</ele><time>2026-04-20T17:24:34.075Z</time><hdop>5.375</hdop><vdop>5.5</vdop><extensions><gom:speed>0.618</gom:speed></extensions></trkpt>
   <trkpt lat="59.065717973" lon="30.0258964975"><ele>102.972</ele><time>2026-04-20T17:24:34.559Z</time><hdop>5.375</hdop><vdop>5.5</vdop><extensions><gom:speed>0.632</gom:speed></extensions></trkpt>
   <trkpt lat="59.0657212839" lon="30.0258963299"><ele>102.841</ele><time>2026-04-20T17:24:35.030Z</time><hdop>5.437</hdop><vdop>5.437</vdop><extensions><gom:speed>0.633</gom:speed></extensions></trkpt>
   <trkpt lat="59.0657249719" lon="30.025895324"><ele>102.763</ele><time>2026-04-20T17:24:35.694Z</time><hdop>5.5</hdop><vdop>5.437</vdop><extensions><gom:speed>0.598</gom:speed></extensions></trkpt>
   <trkpt lat="59.0657320965" lon="30.0258951564"><ele>102.741</ele><time>2026-04-20T17:24:36.682Z</time><hdop>5.562</hdop><vdop>5.5</vdop><extensions><gom:speed>0.575</gom:speed></extensions></trkpt>
   <trkpt lat="59.0657371676" lon="30.0258935638"><ele>102.803</ele><time>2026-04-20T17:24:37.501Z</time><hdop>5.625</hdop><vdop>5.25</vdop><extensions><gom:speed>0.632</gom:speed></extensions></trkpt>
   <trkpt lat="59.0657415681" lon="30.0258936476"><ele>102.977</ele><time>2026-04-20T17:24:38.075Z</time><hdop>5.625</hdop><vdop>5.062</vdop><extensions><gom:speed>0.625</gom:speed></extensions></trkpt>
   <trkpt lat="59.065745759" lon="30.0258935638"><ele>103.08</ele><time>2026-04-20T17:24:38.717Z</time><hdop>5.625</hdop><vdop>5.062</vdop><extensions><gom:speed>0.602</gom:speed></extensions></trkpt>
   <trkpt lat="59.0657519616" lon="30.0258943182"><ele>103.184</ele><time>2026-04-20T17:24:39.652Z</time><hdop>5.687</hdop><vdop>4.875</vdop><extensions><gom:speed>0.632</gom:speed></extensions></trkpt>
   <trkpt lat="59.0657591701" lon="30.0258965813"><ele>103.175</ele><time>2026-04-20T17:24:40.856Z</time><hdop>5.687</hdop><vdop>4.687</vdop><extensions><gom:speed>0.596</gom:speed></extensions></trkpt>
   <trkpt lat="59.0657629838" lon="30.0259000179"><ele>103.234</ele><time>2026-04-20T17:24:41.755Z</time><hdop>5.812</hdop><vdop>4.625</vdop><extensions><gom:speed>0.554</gom:speed></extensions></trkpt>
   <trkpt lat="59.0657690607" lon="30.0259040412"><ele>103.182</ele><time>2026-04-20T17:24:42.980Z</time><hdop>5.875</hdop><vdop>4.687</vdop><extensions><gom:speed>0.495</gom:speed></extensions></trkpt>
   <trkpt lat="59.0657698989" lon="30.0259043765"><ele>103.273</ele><time>2026-04-20T17:24:43.759Z</time><hdop>5.875</hdop><vdop>4.812</vdop><extensions><gom:speed>0.413</gom:speed></extensions></trkpt>
   <trkpt lat="59.0657726649" lon="30.0259070587"><ele>103.09</ele><time>2026-04-20T17:24:44.980Z</time><hdop>5.812</hdop><vdop>5.062</vdop><extensions><gom:speed>0.321</gom:speed></extensions></trkpt>
   <trkpt lat="59.0657745928" lon="30.0259086513"><ele>103.007</ele><time>2026-04-20T17:24:46.046Z</time><hdop>5.812</hdop><vdop>5.062</vdop><extensions><gom:speed>0.302</gom:speed></extensions></trkpt>
   <trkpt lat="59.0657729583" lon="30.0259080645"><ele>102.913</ele><time>2026-04-20T17:24:47.075Z</time><hdop>5.75</hdop><vdop>5.0</vdop><extensions><gom:speed>0.205</gom:speed></extensions></trkpt>
   <trkpt lat="59.0657709886" lon="30.0259080645"><ele>102.826</ele><time>2026-04-20T17:24:47.941Z</time><hdop>5.687</hdop><vdop>5.062</vdop><extensions><gom:speed>0.114</gom:speed></extensions></trkpt>
   <trkpt lat="59.065770779" lon="30.0259080645"><ele>102.75</ele><time>2026-04-20T17:24:49.007Z</time><hdop>5.687</hdop><vdop>5.0</vdop><extensions><gom:speed>0.091</gom:speed></extensions></trkpt>
   <trkpt lat="59.065770779" lon="30.0259086513"><ele>102.698</ele><time>2026-04-20T17:24:50.073Z</time><hdop>5.75</hdop><vdop>5.0</vdop><extensions><gom:speed>0.086</gom:speed></extensions></trkpt>
   <trkpt lat="59.0657706952" lon="30.0259076454"><ele>102.671</ele><time>2026-04-20T17:24:51.021Z</time><hdop>5.812</hdop><vdop>4.875</vdop><extensions><gom:speed>0.097</gom:speed></extensions></trkpt>
   <trkpt lat="59.0657712819" lon="30.025905969"><ele>102.657</ele><time>2026-04-20T17:24:51.968Z</time><hdop>5.812</hdop><vdop>4.812</vdop><extensions><gom:speed>0.096</gom:speed></extensions></trkpt>
   <trkpt lat="59.0657723716" lon="30.0259045441"><ele>102.65</ele><time>2026-04-20T17:24:53.034Z</time><hdop>5.937</hdop><vdop>4.687</vdop><extensions><gom:speed>0.141</gom:speed></extensions></trkpt>
   <trkpt lat="59.0657735869" lon="30.0259044603"><ele>102.64</ele><time>2026-04-20T17:24:53.982Z</time><hdop>6.0</hdop><vdop>4.812</vdop><extensions><gom:speed>0.209</gom:speed></extensions></trkpt>
   <trkpt lat="59.0657765625" lon="30.0259042927"><ele>102.643</ele><time>2026-04-20T17:24:55.049Z</time><hdop>6.125</hdop><vdop>5.062</vdop><extensions><gom:speed>0.304</gom:speed></extensions></trkpt>
   <trkpt lat="59.0657815917" lon="30.0259028677"><ele>102.675</ele><time>2026-04-20T17:24:55.995Z</time><hdop>6.312</hdop><vdop>5.062</vdop><extensions><gom:speed>0.383</gom:speed></extensions></trkpt>
   <trkpt lat="59.065787459" lon="30.0259017781"><ele>102.72</ele><time>2026-04-20T17:24:56.943Z</time><hdop>6.375</hdop><vdop>5.125</vdop><extensions><gom:speed>0.435</gom:speed></extensions></trkpt>
   <trkpt lat="59.0657938711" lon="30.0259001855"><ele>102.761</ele><time>2026-04-20T17:24:58.009Z</time><hdop>6.562</hdop><vdop>5.187</vdop><extensions><gom:speed>0.488</gom:speed></extensions></trkpt>
   <trkpt lat="59.0657953799" lon="30.0258972519"><ele>101.922</ele><time>2026-04-20T17:24:59.075Z</time><hdop>6.687</hdop><vdop>4.375</vdop><extensions><gom:speed>0.486</gom:speed></extensions></trkpt>
   <trkpt lat="59.0657970982" lon="30.0258929771"><ele>101.735</ele><time>2026-04-20T17:25:00.076Z</time><hdop>6.687</hdop><vdop>3.875</vdop><extensions><gom:speed>0.43</gom:speed></extensions></trkpt>
   <trkpt lat="59.0657996966" lon="30.0258870259"><ele>101.624</ele><time>2026-04-20T17:25:00.657Z</time><hdop>6.562</hdop><vdop>3.875</vdop><extensions><gom:speed>0.476</gom:speed></extensions></trkpt>
   <trkpt lat="59.065803678" lon="30.0258824997"><ele>102.765</ele><time>2026-04-20T17:25:01.774Z</time><hdop>6.375</hdop><vdop>3.5</vdop><extensions><gom:speed>0.469</gom:speed></extensions></trkpt>
   <trkpt lat="59.0658143649" lon="30.0258811586"><ele>103.478</ele><time>2026-04-20T17:25:03.075Z</time><hdop>6.0</hdop><vdop>5.375</vdop><extensions><gom:speed>0.392</gom:speed></extensions></trkpt>
   <trkpt lat="59.0658223696" lon="30.0258834217"><ele>103.748</ele><time>2026-04-20T17:25:04.076Z</time><hdop>5.75</hdop><vdop>5.312</vdop><extensions><gom:speed>0.293</gom:speed></extensions></trkpt>
   <trkpt lat="59.0658303743" lon="30.0258860201"><ele>103.692</ele><time>2026-04-20T17:25:05.076Z</time><hdop>5.562</hdop><vdop>5.25</vdop><extensions><gom:speed>0.233</gom:speed></extensions></trkpt>
   <trkpt lat="59.0658336852" lon="30.0258861878"><ele>103.658</ele><time>2026-04-20T17:25:05.863Z</time><hdop>5.375</hdop><vdop>5.25</vdop><extensions><gom:speed>0.203</gom:speed></extensions></trkpt>
   <trkpt lat="59.0658383791" lon="30.025887948"><ele>103.611</ele><time>2026-04-20T17:25:06.656Z</time><hdop>5.25</hdop><vdop>5.125</vdop><extensions><gom:speed>0.19</gom:speed></extensions></trkpt>
   <trkpt lat="59.0658494851" lon="30.0258896243"><ele>103.38</ele><time>2026-04-20T17:25:08.075Z</time><hdop>5.0</hdop><vdop>5.0</vdop><extensions><gom:speed>0.141</gom:speed></extensions></trkpt>
   <trkpt lat="59.0658552686" lon="30.0258902949"><ele>103.473</ele><time>2026-04-20T17:25:09.075Z</time><hdop>4.937</hdop><vdop>5.25</vdop><extensions><gom:speed>0.131</gom:speed></extensions></trkpt>
   <trkpt lat="59.0658566935" lon="30.0258901272"><ele>103.642</ele><time>2026-04-20T17:25:09.972Z</time><hdop>4.875</hdop><vdop>5.312</vdop><extensions><gom:speed>0.121</gom:speed></extensions></trkpt>
   <trkpt lat="59.0658604654" lon="30.0258898758"><ele>103.942</ele><time>2026-04-20T17:25:11.075Z</time><hdop>4.687</hdop><vdop>5.25</vdop><extensions><gom:speed>0.109</gom:speed></extensions></trkpt>
   <trkpt lat="59.0658649916" lon="30.0258899596"><ele>104.228</ele><time>2026-04-20T17:25:12.075Z</time><hdop>4.5</hdop><vdop>4.875</vdop><extensions><gom:speed>0.098</gom:speed></extensions></trkpt>
   <trkpt lat="59.0658661651" lon="30.0258893729"><ele>104.399</ele><time>2026-04-20T17:25:12.877Z</time><hdop>4.437</hdop><vdop>4.875</vdop><extensions><gom:speed>0.083</gom:speed></extensions></trkpt>
   <trkpt lat="59.0658717809" lon="30.0258898758"><ele>104.724</ele><time>2026-04-20T17:25:14.000Z</time><hdop>4.375</hdop><vdop>4.562</vdop><extensions><gom:speed>0.096</gom:speed></extensions></trkpt>
   <trkpt lat="59.0658727868" lon="30.0258893729"><ele>104.918</ele><time>2026-04-20T17:25:15.084Z</time><hdop>4.312</hdop><vdop>4.562</vdop><extensions><gom:speed>0.128</gom:speed></extensions></trkpt>
   <trkpt lat="59.0658772711" lon="30.0258893729"><ele>105.107</ele><time>2026-04-20T17:25:15.996Z</time><hdop>4.312</hdop><vdop>4.562</vdop><extensions><gom:speed>0.169</gom:speed></extensions></trkpt>
   <trkpt lat="59.0658805819" lon="30.0258869421"><ele>105.289</ele><time>2026-04-20T17:25:16.962Z</time><hdop>4.375</hdop><vdop>4.312</vdop><extensions><gom:speed>0.246</gom:speed></extensions></trkpt>
   <trkpt lat="59.0658855692" lon="30.0258820806"><ele>105.397</ele><time>2026-04-20T17:25:17.960Z</time><hdop>4.5</hdop><vdop>4.312</vdop><extensions><gom:speed>0.409</gom:speed></extensions></trkpt>
   <trkpt lat="59.0658908917" lon="30.0258739502"><ele>105.434</ele><time>2026-04-20T17:25:18.918Z</time><hdop>4.625</hdop><vdop>4.187</vdop><extensions><gom:speed>0.504</gom:speed></extensions></trkpt>
   <trkpt lat="59.0658966752" lon="30.0258608744"><ele>105.458</ele><time>2026-04-20T17:25:19.857Z</time><hdop>4.875</hdop><vdop>4.125</vdop><extensions><gom:speed>0.588</gom:speed></extensions></trkpt>
   <trkpt lat="59.065902794" lon="30.0258540851"><ele>105.468</ele><time>2026-04-20T17:25:20.982Z</time><hdop>4.937</hdop><vdop>4.062</vdop><extensions><gom:speed>0.61</gom:speed></extensions></trkpt>
   <trkpt lat="59.0659086613" lon="30.0258470443"><ele>105.471</ele><time>2026-04-20T17:25:21.919Z</time><hdop>5.062</hdop><vdop>4.062</vdop><extensions><gom:speed>0.656</gom:speed></extensions></trkpt>
   <trkpt lat="59.0659168756" lon="30.0258368183"><ele>104.873</ele><time>2026-04-20T17:25:22.996Z</time><hdop>5.125</hdop><vdop>3.562</vdop><extensions><gom:speed>0.686</gom:speed></extensions></trkpt>
   <trkpt lat="59.0659248803" lon="30.0258286879"><ele>104.668</ele><time>2026-04-20T17:25:23.815Z</time><hdop>5.062</hdop><vdop>3.375</vdop><extensions><gom:speed>0.728</gom:speed></extensions></trkpt>
   <trkpt lat="59.0659339747" lon="30.0258172885"><ele>104.295</ele><time>2026-04-20T17:25:24.880Z</time><hdop>4.937</hdop><vdop>3.062</vdop><extensions><gom:speed>0.722</gom:speed></extensions></trkpt>
   <trkpt lat="59.065943991" lon="30.0258060568"><ele>104.384</ele><time>2026-04-20T17:25:25.819Z</time><hdop>4.812</hdop><vdop>3.187</vdop><extensions><gom:speed>0.71</gom:speed></extensions></trkpt>
   <trkpt lat="59.0659524987" lon="30.0257993512"><ele>104.341</ele><time>2026-04-20T17:25:26.776Z</time><hdop>4.75</hdop><vdop>2.875</vdop><extensions><gom:speed>0.743</gom:speed></extensions></trkpt>
   <trkpt lat="59.0659613835" lon="30.025792059"><ele>104.99</ele><time>2026-04-20T17:25:27.693Z</time><hdop>4.687</hdop><vdop>2.75</vdop><extensions><gom:speed>0.688</gom:speed></extensions></trkpt>
   <trkpt lat="59.0659712741" lon="30.0257902988"><ele>105.436</ele><time>2026-04-20T17:25:28.760Z</time><hdop>4.625</hdop><vdop>2.687</vdop><extensions><gom:speed>0.592</gom:speed></extensions></trkpt>
   <trkpt lat="59.0659796979" lon="30.0257882871"><ele>105.65</ele><time>2026-04-20T17:25:29.638Z</time><hdop>4.562</hdop><vdop>2.5</vdop><extensions><gom:speed>0.623</gom:speed></extensions></trkpt>
   <trkpt lat="59.0659872836" lon="30.0257816654"><ele>105.583</ele><time>2026-04-20T17:25:30.427Z</time><hdop>4.562</hdop><vdop>2.5</vdop><extensions><gom:speed>0.602</gom:speed></extensions></trkpt>
   <trkpt lat="59.0659932766" lon="30.0257763848"><ele>105.558</ele><time>2026-04-20T17:25:31.075Z</time><hdop>4.5</hdop><vdop>2.5</vdop><extensions><gom:speed>0.611</gom:speed></extensions></trkpt>
   <trkpt lat="59.0660040893" lon="30.0257664942"><ele>105.706</ele><time>2026-04-20T17:25:32.076Z</time><hdop>4.5</hdop><vdop>2.5</vdop><extensions><gom:speed>0.623</gom:speed></extensions></trkpt>
   <trkpt lat="59.0660118844" lon="30.0257602916"><ele>105.962</ele><time>2026-04-20T17:25:33.075Z</time><hdop>4.375</hdop><vdop>2.5</vdop><extensions><gom:speed>0.641</gom:speed></extensions></trkpt>
   <trkpt lat="59.0660225714" lon="30.0257524964"><ele>106.566</ele><time>2026-04-20T17:25:34.075Z</time><hdop>4.375</hdop><vdop>2.5</vdop><extensions><gom:speed>0.736</gom:speed></extensions></trkpt>
   <trkpt lat="59.0660329649" lon="30.0257446174"><ele>106.545</ele><time>2026-04-20T17:25:35.076Z</time><hdop>4.312</hdop><vdop>2.5</vdop><extensions><gom:speed>0.669</gom:speed></extensions></trkpt>
   <trkpt lat="59.0660425622" lon="30.0257389177"><ele>106.786</ele><time>2026-04-20T17:25:36.075Z</time><hdop>4.312</hdop><vdop>2.5</vdop><extensions><gom:speed>0.634</gom:speed></extensions></trkpt>
   <trkpt lat="59.0660496868" lon="30.0257369899"><ele>106.931</ele><time>2026-04-20T17:25:36.982Z</time><hdop>4.312</hdop><vdop>2.5</vdop><extensions><gom:speed>0.652</gom:speed></extensions></trkpt>
   <trkpt lat="59.066053291" lon="30.0257340562"><ele>106.704</ele><time>2026-04-20T17:25:37.691Z</time><hdop>4.375</hdop><vdop>2.5</vdop><extensions><gom:speed>0.646</gom:speed></extensions></trkpt>
   <trkpt lat="59.0660700968" lon="30.0257255905"><ele>106.631</ele><time>2026-04-20T17:25:39.075Z</time><hdop>4.5</hdop><vdop>2.5</vdop><extensions><gom:speed>0.677</gom:speed></extensions></trkpt>
   <trkpt lat="59.0660790654" lon="30.0257215672"><ele>106.825</ele><time>2026-04-20T17:25:40.076Z</time><hdop>4.562</hdop><vdop>5.125</vdop><extensions><gom:speed>0.684</gom:speed></extensions></trkpt>
   <trkpt lat="59.0660867768" lon="30.0257218186"><ele>106.967</ele><time>2026-04-20T17:25:41.006Z</time><hdop>4.625</hdop><vdop>5.375</vdop><extensions><gom:speed>0.665</gom:speed></extensions></trkpt>
   <trkpt lat="59.0660932727" lon="30.025724417"><ele>107.062</ele><time>2026-04-20T17:25:42.075Z</time><hdop>4.75</hdop><vdop>5.187</vdop><extensions><gom:speed>0.636</gom:speed></extensions></trkpt>
   <trkpt lat="59.06609826" lon="30.025726764"><ele>107.085</ele><time>2026-04-20T17:25:43.021Z</time><hdop>4.875</hdop><vdop>5.187</vdop><extensions><gom:speed>0.594</gom:speed></extensions></trkpt>
   <trkpt lat="59.0660997687" lon="30.0257270992"><ele>107.099</ele><time>2026-04-20T17:25:43.849Z</time><hdop>5.0</hdop><vdop>5.187</vdop><extensions><gom:speed>0.587</gom:speed></extensions></trkpt>
   <trkpt lat="59.0661074801" lon="30.0257336371"><ele>107.02</ele><time>2026-04-20T17:25:45.033Z</time><hdop>5.125</hdop><vdop>5.125</vdop><extensions><gom:speed>0.524</gom:speed></extensions></trkpt>
   <trkpt lat="59.0661088631" lon="30.0257374928"><ele>106.973</ele><time>2026-04-20T17:25:45.618Z</time><hdop>5.187</hdop><vdop>5.125</vdop><extensions><gom:speed>0.512</gom:speed></extensions></trkpt>
   <trkpt lat="59.0661100784" lon="30.0257406779"><ele>106.933</ele><time>2026-04-20T17:25:46.076Z</time><hdop>5.187</hdop><vdop>5.0</vdop><extensions><gom:speed>0.497</gom:speed></extensions></trkpt>
   <trkpt lat="59.0661123835" lon="30.025742941"><ele>106.909</ele><time>2026-04-20T17:25:46.616Z</time><hdop>5.25</hdop><vdop>5.0</vdop><extensions><gom:speed>0.469</gom:speed></extensions></trkpt>
   <trkpt lat="59.0661161972" lon="30.0257437792"><ele>106.873</ele><time>2026-04-20T17:25:47.496Z</time><hdop>5.312</hdop><vdop>5.125</vdop><extensions><gom:speed>0.456</gom:speed></extensions></trkpt>
   <trkpt lat="59.0661177898" lon="30.0257435278"><ele>106.887</ele><time>2026-04-20T17:25:48.075Z</time><hdop>5.312</hdop><vdop>5.062</vdop><extensions><gom:speed>0.448</gom:speed></extensions></trkpt>
   <trkpt lat="59.0661197595" lon="30.0257426896"><ele>106.896</ele><time>2026-04-20T17:25:48.541Z</time><hdop>5.312</hdop><vdop>5.062</vdop><extensions><gom:speed>0.492</gom:speed></extensions></trkpt>
   <trkpt lat="59.0661244953" lon="30.0257408456"><ele>106.773</ele><time>2026-04-20T17:25:49.481Z</time><hdop>5.375</hdop><vdop>5.0</vdop><extensions><gom:speed>0.587</gom:speed></extensions></trkpt>
   <trkpt lat="59.0661267584" lon="30.0257415999"><ele>106.532</ele><time>2026-04-20T17:25:50.076Z</time><hdop>5.375</hdop><vdop>4.937</vdop><extensions><gom:speed>0.548</gom:speed></extensions></trkpt>
   <trkpt lat="59.0661317876" lon="30.0257421867"><ele>106.274</ele><time>2026-04-20T17:25:50.956Z</time><hdop>5.375</hdop><vdop>4.875</vdop><extensions><gom:speed>0.611</gom:speed></extensions></trkpt>
   <trkpt lat="59.0661344698" lon="30.0257427734"><ele>106.12</ele><time>2026-04-20T17:25:51.432Z</time><hdop>5.437</hdop><vdop>4.875</vdop><extensions><gom:speed>0.614</gom:speed></extensions></trkpt>
   <trkpt lat="59.0661378645" lon="30.025744785"><ele>105.276</ele><time>2026-04-20T17:25:52.076Z</time><hdop>5.437</hdop><vdop>4.187</vdop><extensions><gom:speed>0.599</gom:speed></extensions></trkpt>
   <trkpt lat="59.0661434803" lon="30.0257460423"><ele>105.62</ele><time>2026-04-20T17:25:53.075Z</time><hdop>5.437</hdop><vdop>3.875</vdop><extensions><gom:speed>0.598</gom:speed></extensions></trkpt>
   <trkpt lat="59.0661497668" lon="30.0257457909"><ele>106.736</ele><time>2026-04-20T17:25:54.075Z</time><hdop>5.375</hdop><vdop>3.375</vdop><extensions><gom:speed>0.587</gom:speed></extensions></trkpt>
   <trkpt lat="59.0661527842" lon="30.0257446174"><ele>107.402</ele><time>2026-04-20T17:25:54.762Z</time><hdop>5.375</hdop><vdop>3.375</vdop><extensions><gom:speed>0.489</gom:speed></extensions></trkpt>
   <trkpt lat="59.0661599927" lon="30.0257451203"><ele>108.196</ele><time>2026-04-20T17:25:55.875Z</time><hdop>5.312</hdop><vdop>3.25</vdop><extensions><gom:speed>0.515</gom:speed></extensions></trkpt>
   <trkpt lat="59.066169087" lon="30.0257456232"><ele>108.474</ele><time>2026-04-20T17:25:57.075Z</time><hdop>5.125</hdop><vdop>3.187</vdop><extensions><gom:speed>0.392</gom:speed></extensions></trkpt>
   <trkpt lat="59.0661728589" lon="30.0257485569"><ele>108.45</ele><time>2026-04-20T17:25:58.075Z</time><hdop>5.0</hdop><vdop>3.312</vdop><extensions><gom:speed>0.348</gom:speed></extensions></trkpt>
   <trkpt lat="59.0661751639" lon="30.0257504847"><ele>108.436</ele><time>2026-04-20T17:25:58.738Z</time><hdop>4.937</hdop><vdop>3.312</vdop><extensions><gom:speed>0.34</gom:speed></extensions></trkpt>
   <trkpt lat="59.0661809893" lon="30.0257534184"><ele>107.577</ele><time>2026-04-20T17:25:59.852Z</time><hdop>4.812</hdop><vdop>3.437</vdop><extensions><gom:speed>0.324</gom:speed></extensions></trkpt>
   <trkpt lat="59.0661873596" lon="30.0257549271"><ele>107.549</ele><time>2026-04-20T17:26:00.919Z</time><hdop>4.687</hdop><vdop>3.375</vdop><extensions><gom:speed>0.375</gom:speed></extensions></trkpt>
   <trkpt lat="59.0661955739" lon="30.0257553462"><ele>107.608</ele><time>2026-04-20T17:26:01.856Z</time><hdop>4.625</hdop><vdop>3.312</vdop><extensions><gom:speed>0.454</gom:speed></extensions></trkpt>
   <trkpt lat="59.0662004773" lon="30.0257562683"><ele>107.334</ele><time>2026-04-20T17:26:02.446Z</time><hdop>4.625</hdop><vdop>3.25</vdop><extensions><gom:speed>0.463</gom:speed></extensions></trkpt>
   <trkpt lat="59.0662060931" lon="30.0257522449"><ele>107.171</ele><time>2026-04-20T17:26:03.003Z</time><hdop>4.562</hdop><vdop>3.25</vdop><extensions><gom:speed>0.479</gom:speed></extensions></trkpt>
   <trkpt lat="59.0662123796" lon="30.0257482216"><ele>107.119</ele><time>2026-04-20T17:26:03.880Z</time><hdop>4.562</hdop><vdop>3.125</vdop><extensions><gom:speed>0.547</gom:speed></extensions></trkpt>
   <trkpt lat="59.0662207615" lon="30.0257437792"><ele>106.811</ele><time>2026-04-20T17:26:04.858Z</time><hdop>4.562</hdop><vdop>3.187</vdop><extensions><gom:speed>0.604</gom:speed></extensions></trkpt>
   <trkpt lat="59.0662305683" lon="30.0257417676"><ele>106.68</ele><time>2026-04-20T17:26:05.776Z</time><hdop>4.562</hdop><vdop>3.25</vdop><extensions><gom:speed>0.62</gom:speed></extensions></trkpt>
   <trkpt lat="59.0662397884" lon="30.0257389177"><ele>106.972</ele><time>2026-04-20T17:26:06.920Z</time><hdop>4.562</hdop><vdop>3.25</vdop><extensions><gom:speed>0.586</gom:speed></extensions></trkpt>
   <trkpt lat="59.0662474997" lon="30.0257373252"><ele>107.028</ele><time>2026-04-20T17:26:07.839Z</time><hdop>4.562</hdop><vdop>3.25</vdop><extensions><gom:speed>0.613</gom:speed></extensions></trkpt>
   <trkpt lat="59.0662520679" lon="30.0257363193"><ele>107.417</ele><time>2026-04-20T17:26:08.605Z</time><hdop>4.562</hdop><vdop>3.125</vdop><extensions><gom:speed>0.592</gom:speed></extensions></trkpt>
   <trkpt lat="59.0662596954" lon="30.0257328827"><ele>107.898</ele><time>2026-04-20T17:26:09.075Z</time><hdop>4.5</hdop><vdop>3.0</vdop><extensions><gom:speed>0.55</gom:speed></extensions></trkpt>
   <trkpt lat="59.0662647665" lon="30.0257321284"><ele>108.337</ele><time>2026-04-20T17:26:10.075Z</time><hdop>4.5</hdop><vdop>2.937</vdop><extensions><gom:speed>0.44</gom:speed></extensions></trkpt>
   <trkpt lat="59.0662689993" lon="30.0257309549"><ele>108.506</ele><time>2026-04-20T17:26:11.076Z</time><hdop>4.5</hdop><vdop>2.812</vdop><extensions><gom:speed>0.367</gom:speed></extensions></trkpt>
   <trkpt lat="59.0662729807" lon="30.025724417"><ele>108.397</ele><time>2026-04-20T17:26:12.076Z</time><hdop>4.5</hdop><vdop>5.5</vdop><extensions><gom:speed>0.326</gom:speed></extensions></trkpt>
   <trkpt lat="59.0662738608" lon="30.0257189688"><ele>108.332</ele><time>2026-04-20T17:26:13.060Z</time><hdop>4.562</hdop><vdop>5.5</vdop><extensions><gom:speed>0.297</gom:speed></extensions></trkpt>
   <trkpt lat="59.0662768783" lon="30.0257141911"><ele>108.092</ele><time>2026-04-20T17:26:14.075Z</time><hdop>4.562</hdop><vdop>5.125</vdop><extensions><gom:speed>0.284</gom:speed></extensions></trkpt>
   <trkpt lat="59.0662774651" lon="30.0257132691"><ele>107.948</ele><time>2026-04-20T17:26:14.764Z</time><hdop>4.562</hdop><vdop>5.125</vdop><extensions><gom:speed>0.29</gom:speed></extensions></trkpt>
   <trkpt lat="59.0662794767" lon="30.0257095811"><ele>107.522</ele><time>2026-04-20T17:26:15.320Z</time><hdop>4.687</hdop><vdop>4.75</vdop><extensions><gom:speed>0.306</gom:speed></extensions></trkpt>
   <trkpt lat="59.0662827876" lon="30.0257038814"><ele>107.254</ele><time>2026-04-20T17:26:16.075Z</time><hdop>4.687</hdop><vdop>4.5</vdop><extensions><gom:speed>0.362</gom:speed></extensions></trkpt>
   <trkpt lat="59.0662844639" lon="30.0256994389"><ele>107.093</ele><time>2026-04-20T17:26:16.535Z</time><hdop>4.75</hdop><vdop>4.5</vdop><extensions><gom:speed>0.378</gom:speed></extensions></trkpt>
   <trkpt lat="59.0662855955" lon="30.025695248"><ele>106.879</ele><time>2026-04-20T17:26:17.015Z</time><hdop>4.75</hdop><vdop>4.25</vdop><extensions><gom:speed>0.39</gom:speed></extensions></trkpt>
   <trkpt lat="59.0662868947" lon="30.0256907218"><ele>106.751</ele><time>2026-04-20T17:26:17.481Z</time><hdop>4.875</hdop><vdop>4.25</vdop><extensions><gom:speed>0.436</gom:speed></extensions></trkpt>
   <trkpt lat="59.0662886968" lon="30.0256848544"><ele>106.638</ele><time>2026-04-20T17:26:18.075Z</time><hdop>4.875</hdop><vdop>4.187</vdop><extensions><gom:speed>0.426</gom:speed></extensions></trkpt>
   <trkpt lat="59.0662897864" lon="30.0256814179"><ele>106.57</ele><time>2026-04-20T17:26:18.558Z</time><hdop>4.875</hdop><vdop>4.187</vdop><extensions><gom:speed>0.404</gom:speed></extensions></trkpt>
   <trkpt lat="59.0662909599" lon="30.0256783166"><ele>106.523</ele><time>2026-04-20T17:26:19.029Z</time><hdop>4.937</hdop><vdop>4.187</vdop><extensions><gom:speed>0.394</gom:speed></extensions></trkpt>
   <trkpt lat="59.0662919657" lon="30.0256755505"><ele>106.494</ele><time>2026-04-20T17:26:19.480Z</time><hdop>5.0</hdop><vdop>4.187</vdop><extensions><gom:speed>0.4</gom:speed></extensions></trkpt>
   <trkpt lat="59.0662935583" lon="30.0256724492"><ele>106.462</ele><time>2026-04-20T17:26:19.976Z</time><hdop>5.062</hdop><vdop>4.187</vdop><extensions><gom:speed>0.413</gom:speed></extensions></trkpt>
   <trkpt lat="59.066296492" lon="30.0256684259"><ele>106.505</ele><time>2026-04-20T17:26:21.075Z</time><hdop>5.062</hdop><vdop>4.312</vdop><extensions><gom:speed>0.39</gom:speed></extensions></trkpt>
   <trkpt lat="59.06630018" lon="30.025664235"><ele>106.586</ele><time>2026-04-20T17:26:21.990Z</time><hdop>5.187</hdop><vdop>4.312</vdop><extensions><gom:speed>0.413</gom:speed></extensions></trkpt>
   <trkpt lat="59.0663046643" lon="30.0256622233"><ele>106.635</ele><time>2026-04-20T17:26:23.098Z</time><hdop>5.375</hdop><vdop>4.312</vdop><extensions><gom:speed>0.433</gom:speed></extensions></trkpt>
   <trkpt lat="59.0663095677" lon="30.0256604631"><ele>106.685</ele><time>2026-04-20T17:26:23.917Z</time><hdop>5.5</hdop><vdop>4.375</vdop><extensions><gom:speed>0.521</gom:speed></extensions></trkpt>
   <trkpt lat="59.0663132977" lon="30.0256567751"><ele>106.761</ele><time>2026-04-20T17:26:24.757Z</time><hdop>5.625</hdop><vdop>4.562</vdop><extensions><gom:speed>0.566</gom:speed></extensions></trkpt>
   <trkpt lat="59.0663174886" lon="30.0256496504"><ele>106.792</ele><time>2026-04-20T17:26:25.518Z</time><hdop>5.687</hdop><vdop>4.437</vdop><extensions><gom:speed>0.684</gom:speed></extensions></trkpt>
   <trkpt lat="59.0663205899" lon="30.0256435317"><ele>106.831</ele><time>2026-04-20T17:26:26.018Z</time><hdop>5.687</hdop><vdop>4.312</vdop><extensions><gom:speed>0.689</gom:speed></extensions></trkpt>
   <trkpt lat="59.0663269602" lon="30.0256338925"><ele>106.847</ele><time>2026-04-20T17:26:26.965Z</time><hdop>5.875</hdop><vdop>4.125</vdop><extensions><gom:speed>0.734</gom:speed></extensions></trkpt>
   <trkpt lat="59.0663331628" lon="30.0256254267"><ele>106.856</ele><time>2026-04-20T17:26:28.035Z</time><hdop>6.062</hdop><vdop>4.125</vdop><extensions><gom:speed>0.777</gom:speed></extensions></trkpt>
   <trkpt lat="59.0663392816" lon="30.0256191403"><ele>106.861</ele><time>2026-04-20T17:26:28.922Z</time><hdop>6.187</hdop><vdop>4.0</vdop><extensions><gom:speed>0.785</gom:speed></extensions></trkpt>
   <trkpt lat="59.0663387787" lon="30.0256175478"><ele>106.865</ele><time>2026-04-20T17:26:29.845Z</time><hdop>6.25</hdop><vdop>3.812</vdop><extensions><gom:speed>0.707</gom:speed></extensions></trkpt>
   <trkpt lat="59.0663369766" lon="30.0256118481"><ele>106.231</ele><time>2026-04-20T17:26:30.837Z</time><hdop>6.25</hdop><vdop>3.375</vdop><extensions><gom:speed>0.723</gom:speed></extensions></trkpt>
   <trkpt lat="59.0663378986" lon="30.0256045558"><ele>106.462</ele><time>2026-04-20T17:26:31.715Z</time><hdop>6.125</hdop><vdop>4.062</vdop><extensions><gom:speed>0.697</gom:speed></extensions></trkpt>
   <trkpt lat="59.0663417962" lon="30.0255968445"><ele>106.783</ele><time>2026-04-20T17:26:32.762Z</time><hdop>5.875</hdop><vdop>3.937</vdop><extensions><gom:speed>0.612</gom:speed></extensions></trkpt>
   <trkpt lat="59.0663451908" lon="30.0255943299"><ele>106.925</ele><time>2026-04-20T17:26:33.835Z</time><hdop>5.625</hdop><vdop>3.875</vdop><extensions><gom:speed>0.556</gom:speed></extensions></trkpt>
   <trkpt lat="59.0663530698" lon="30.0255837687"><ele>106.72</ele><time>2026-04-20T17:26:34.914Z</time><hdop>5.25</hdop><vdop>3.75</vdop><extensions><gom:speed>0.563</gom:speed></extensions></trkpt>
   <trkpt lat="59.066356674" lon="30.0255750515"><ele>106.652</ele><time>2026-04-20T17:26:35.803Z</time><hdop>5.062</hdop><vdop>3.687</vdop><extensions><gom:speed>0.564</gom:speed></extensions></trkpt>
   <trkpt lat="59.0663584761" lon="30.0255659991"><ele>106.416</ele><time>2026-04-20T17:26:36.660Z</time><hdop>4.875</hdop><vdop>3.625</vdop><extensions><gom:speed>0.561</gom:speed></extensions></trkpt>
   <trkpt lat="59.0663616613" lon="30.0255570304"><ele>106.237</ele><time>2026-04-20T17:26:37.579Z</time><hdop>4.687</hdop><vdop>3.687</vdop><extensions><gom:speed>0.572</gom:speed></extensions></trkpt>
   <trkpt lat="59.0663641758" lon="30.0255532586"><ele>106.218</ele><time>2026-04-20T17:26:38.076Z</time><hdop>4.625</hdop><vdop>3.625</vdop><extensions><gom:speed>0.553</gom:speed></extensions></trkpt>
   <trkpt lat="59.0663665647" lon="30.0255493191"><ele>106.207</ele><time>2026-04-20T17:26:38.655Z</time><hdop>4.562</hdop><vdop>3.625</vdop><extensions><gom:speed>0.492</gom:speed></extensions></trkpt>
   <trkpt lat="59.0663687859" lon="30.0255442899"><ele>106.174</ele><time>2026-04-20T17:26:39.455Z</time><hdop>4.5</hdop><vdop>3.5</vdop><extensions><gom:speed>0.436</gom:speed></extensions></trkpt>
   <trkpt lat="59.0663697917" lon="30.0255402666"><ele>106.241</ele><time>2026-04-20T17:26:40.076Z</time><hdop>4.437</hdop><vdop>3.5</vdop><extensions><gom:speed>0.421</gom:speed></extensions></trkpt>
   <trkpt lat="59.0663704623" lon="30.0255326391"><ele>106.062</ele><time>2026-04-20T17:26:41.075Z</time><hdop>4.375</hdop><vdop>3.562</vdop><extensions><gom:speed>0.443</gom:speed></extensions></trkpt>
   <trkpt lat="59.066371971" lon="30.0255247601"><ele>105.97</ele><time>2026-04-20T17:26:42.075Z</time><hdop>4.375</hdop><vdop>3.5</vdop><extensions><gom:speed>0.449</gom:speed></extensions></trkpt>
   <trkpt lat="59.0663749885" lon="30.025516462"><ele>105.915</ele><time>2026-04-20T17:26:43.080Z</time><hdop>4.375</hdop><vdop>3.5</vdop><extensions><gom:speed>0.496</gom:speed></extensions></trkpt>
   <trkpt lat="59.0663794728" lon="30.0255097565"><ele>105.959</ele><time>2026-04-20T17:26:44.035Z</time><hdop>4.375</hdop><vdop>3.437</vdop><extensions><gom:speed>0.543</gom:speed></extensions></trkpt>
   <trkpt lat="59.0663848791" lon="30.0255027995"><ele>106.073</ele><time>2026-04-20T17:26:45.022Z</time><hdop>4.375</hdop><vdop>3.437</vdop><extensions><gom:speed>0.614</gom:speed></extensions></trkpt>
   <trkpt lat="59.0663907884" lon="30.0254969322"><ele>106.133</ele><time>2026-04-20T17:26:46.079Z</time><hdop>4.437</hdop><vdop>3.437</vdop><extensions><gom:speed>0.621</gom:speed></extensions></trkpt>
   <trkpt lat="59.066396069" lon="30.025496094"><ele>106.154</ele><time>2026-04-20T17:26:46.995Z</time><hdop>4.437</hdop><vdop>3.312</vdop><extensions><gom:speed>0.592</gom:speed></extensions></trkpt>
   <trkpt lat="59.0663973682" lon="30.0254970998"><ele>106.154</ele><time>2026-04-20T17:26:48.075Z</time><hdop>4.437</hdop><vdop>3.312</vdop><extensions><gom:speed>0.478</gom:speed></extensions></trkpt>
   <trkpt lat="59.0663991703" lon="30.0254946691"><ele>106.155</ele><time>2026-04-20T17:26:49.002Z</time><hdop>4.437</hdop><vdop>3.312</vdop><extensions><gom:speed>0.434</gom:speed></extensions></trkpt>
   <trkpt lat="59.0664012658" lon="30.0254944176"><ele>106.174</ele><time>2026-04-20T17:26:49.860Z</time><hdop>4.437</hdop><vdop>3.562</vdop><extensions><gom:speed>0.474</gom:speed></extensions></trkpt>
   <trkpt lat="59.0664042832" lon="30.0254949205"><ele>106.177</ele><time>2026-04-20T17:26:50.717Z</time><hdop>4.437</hdop><vdop>3.687</vdop><extensions><gom:speed>0.531</gom:speed></extensions></trkpt>
   <trkpt lat="59.0664081808" lon="30.0254940823"><ele>105.223</ele><time>2026-04-20T17:26:51.596Z</time><hdop>4.375</hdop><vdop>3.25</vdop><extensions><gom:speed>0.569</gom:speed></extensions></trkpt>
   <trkpt lat="59.0664109888" lon="30.0254924898"><ele>104.952</ele><time>2026-04-20T17:26:52.075Z</time><hdop>4.375</hdop><vdop>3.125</vdop><extensions><gom:speed>0.586</gom:speed></extensions></trkpt>
   <trkpt lat="59.0664171914" lon="30.0254827668"><ele>104.969</ele><time>2026-04-20T17:26:53.075Z</time><hdop>4.437</hdop><vdop>3.0</vdop><extensions><gom:speed>0.588</gom:speed></extensions></trkpt>
   <trkpt lat="59.0664202927" lon="30.0254725408"><ele>104.979</ele><time>2026-04-20T17:26:54.053Z</time><hdop>4.437</hdop><vdop>3.0</vdop><extensions><gom:speed>0.638</gom:speed></extensions></trkpt>
   <trkpt lat="59.0664257828" lon="30.0254595489"><ele>104.9</ele><time>2026-04-20T17:26:54.961Z</time><hdop>4.5</hdop><vdop>2.812</vdop><extensions><gom:speed>0.687</gom:speed></extensions></trkpt>
   <trkpt lat="59.0664322788" lon="30.0254480657"><ele>104.983</ele><time>2026-04-20T17:26:55.785Z</time><hdop>4.562</hdop><vdop>2.687</vdop><extensions><gom:speed>0.682</gom:speed></extensions></trkpt>
   <trkpt lat="59.0664401997" lon="30.0254354928"><ele>104.914</ele><time>2026-04-20T17:26:56.758Z</time><hdop>4.562</hdop><vdop>2.75</vdop><extensions><gom:speed>0.714</gom:speed></extensions></trkpt>
   <trkpt lat="59.0664482882" lon="30.0254244287"><ele>104.982</ele><time>2026-04-20T17:26:57.658Z</time><hdop>4.625</hdop><vdop>2.812</vdop><extensions><gom:speed>0.726</gom:speed></extensions></trkpt>
   <trkpt lat="59.0664550776" lon="30.0254195672"><ele>105.33</ele><time>2026-04-20T17:26:58.591Z</time><hdop>4.625</hdop><vdop>2.75</vdop><extensions><gom:speed>0.686</gom:speed></extensions></trkpt>
   <trkpt lat="59.0664634595" lon="30.0254161306"><ele>105.47</ele><time>2026-04-20T17:26:59.075Z</time><hdop>4.687</hdop><vdop>2.812</vdop><extensions><gom:speed>0.668</gom:speed></extensions></trkpt>
   <trkpt lat="59.0664675666" lon="30.0254142866"><ele>105.554</ele><time>2026-04-20T17:26:59.660Z</time><hdop>4.687</hdop><vdop>2.812</vdop><extensions><gom:speed>0.655</gom:speed></extensions></trkpt>
   <trkpt lat="59.0664757809" lon="30.0254054856"><ele>105.736</ele><time>2026-04-20T17:27:00.522Z</time><hdop>4.687</hdop><vdop>2.812</vdop><extensions><gom:speed>0.661</gom:speed></extensions></trkpt>
   <trkpt lat="59.066481271" lon="30.0253991992"><ele>105.748</ele><time>2026-04-20T17:27:01.075Z</time><hdop>4.687</hdop><vdop>2.875</vdop><extensions><gom:speed>0.649</gom:speed></extensions></trkpt>
   <trkpt lat="59.0664904911" lon="30.0253924937"><ele>105.367</ele><time>2026-04-20T17:27:02.076Z</time><hdop>4.687</hdop><vdop>2.812</vdop><extensions><gom:speed>0.618</gom:speed></extensions></trkpt>
   <trkpt lat="59.0665004656" lon="30.0253874645"><ele>105.419</ele><time>2026-04-20T17:27:03.075Z</time><hdop>4.625</hdop><vdop>2.687</vdop><extensions><gom:speed>0.659</gom:speed></extensions></trkpt>
   <trkpt lat="59.0665109849" lon="30.0253819325"><ele>105.533</ele><time>2026-04-20T17:27:04.075Z</time><hdop>4.562</hdop><vdop>2.75</vdop><extensions><gom:speed>0.69</gom:speed></extensions></trkpt>
   <trkpt lat="59.0665149663" lon="30.0253797532"><ele>105.601</ele><time>2026-04-20T17:27:04.750Z</time><hdop>4.562</hdop><vdop>2.75</vdop><extensions><gom:speed>0.688</gom:speed></extensions></trkpt>
   <trkpt lat="59.0665301794" lon="30.0253687729"><ele>105.675</ele><time>2026-04-20T17:27:06.056Z</time><hdop>4.5</hdop><vdop>2.812</vdop><extensions><gom:speed>0.737</gom:speed></extensions></trkpt>
   <trkpt lat="59.0665392738" lon="30.0253616483"><ele>105.871</ele><time>2026-04-20T17:27:06.956Z</time><hdop>4.437</hdop><vdop>2.875</vdop><extensions><gom:speed>0.771</gom:speed></extensions></trkpt>
   <trkpt lat="59.0665488711" lon="30.0253559486"><ele>105.563</ele><time>2026-04-20T17:27:07.834Z</time><hdop>4.437</hdop><vdop>2.937</vdop><extensions><gom:speed>0.805</gom:speed></extensions></trkpt>
   <trkpt lat="59.0665589713" lon="30.0253486563"><ele>105.767</ele><time>2026-04-20T17:27:08.761Z</time><hdop>4.5</hdop><vdop>2.875</vdop><extensions><gom:speed>0.807</gom:speed></extensions></trkpt>
   <trkpt lat="59.0665709993" lon="30.0253426213"><ele>105.706</ele><time>2026-04-20T17:27:10.075Z</time><hdop>4.5</hdop><vdop>2.875</vdop><extensions><gom:speed>0.687</gom:speed></extensions></trkpt>
   <trkpt lat="59.0665726757" lon="30.0253425375"><ele>105.669</ele><time>2026-04-20T17:27:10.911Z</time><hdop>4.5</hdop><vdop>2.875</vdop><extensions><gom:speed>0.637</gom:speed></extensions></trkpt>
   <trkpt lat="59.0665833626" lon="30.025337676"><ele>105.565</ele><time>2026-04-20T17:27:12.075Z</time><hdop>4.562</hdop><vdop>3.0</vdop><extensions><gom:speed>0.5</gom:speed></extensions></trkpt>
   <trkpt lat="59.0665869668" lon="30.0253361673"><ele>105.697</ele><time>2026-04-20T17:27:13.076Z</time><hdop>4.562</hdop><vdop>3.062</vdop><extensions><gom:speed>0.354</gom:speed></extensions></trkpt>
   <trkpt lat="59.0665881822" lon="30.0253351614"><ele>105.57</ele><time>2026-04-20T17:27:14.075Z</time><hdop>4.562</hdop><vdop>3.0</vdop><extensions><gom:speed>0.219</gom:speed></extensions></trkpt>
   <trkpt lat="59.0665898586" lon="30.025332563"><ele>105.65</ele><time>2026-04-20T17:27:15.075Z</time><hdop>4.437</hdop><vdop>5.437</vdop><extensions><gom:speed>0.184</gom:speed></extensions></trkpt>
   <trkpt lat="59.0665897748" lon="30.025331641"><ele>105.671</ele><time>2026-04-20T17:27:16.003Z</time><hdop>4.375</hdop><vdop>5.25</vdop><extensions><gom:speed>0.129</gom:speed></extensions></trkpt>
   <trkpt lat="59.0665920798" lon="30.0253317249"><ele>105.486</ele><time>2026-04-20T17:27:17.075Z</time><hdop>4.375</hdop><vdop>5.187</vdop><extensions><gom:speed>0.099</gom:speed></extensions></trkpt>
   <trkpt lat="59.0665936723" lon="30.025332144"><ele>105.053</ele><time>2026-04-20T17:27:18.016Z</time><hdop>4.375</hdop><vdop>4.937</vdop><extensions><gom:speed>0.091</gom:speed></extensions></trkpt>
   <trkpt lat="59.066595684" lon="30.025332144"><ele>104.554</ele><time>2026-04-20T17:27:19.075Z</time><hdop>4.437</hdop><vdop>4.812</vdop><extensions><gom:speed>0.112</gom:speed></extensions></trkpt>
   <trkpt lat="59.0665961869" lon="30.0253324792"><ele>104.283</ele><time>2026-04-20T17:27:20.030Z</time><hdop>4.5</hdop><vdop>4.812</vdop><extensions><gom:speed>0.075</gom:speed></extensions></trkpt>
   <trkpt lat="59.0665953906" lon="30.025333066"><ele>104.204</ele><time>2026-04-20T17:27:20.978Z</time><hdop>4.625</hdop><vdop>4.687</vdop><extensions><gom:speed>0.079</gom:speed></extensions></trkpt>
   <trkpt lat="59.0665952649" lon="30.0253326469"><ele>104.254</ele><time>2026-04-20T17:27:22.044Z</time><hdop>4.687</hdop><vdop>4.5</vdop><extensions><gom:speed>0.11</gom:speed></extensions></trkpt>
   <trkpt lat="59.0665977795" lon="30.0253323954"><ele>104.378</ele><time>2026-04-20T17:27:23.076Z</time><hdop>4.75</hdop><vdop>4.437</vdop><extensions><gom:speed>0.08</gom:speed></extensions></trkpt>
   <trkpt lat="59.0666010903" lon="30.0253308867"><ele>104.566</ele><time>2026-04-20T17:27:24.075Z</time><hdop>4.75</hdop><vdop>4.437</vdop><extensions><gom:speed>0.075</gom:speed></extensions></trkpt>
   <trkpt lat="59.0666042755" lon="30.0253295456"><ele>104.799</ele><time>2026-04-20T17:27:25.075Z</time><hdop>4.75</hdop><vdop>4.375</vdop><extensions><gom:speed>0.081</gom:speed></extensions></trkpt>
   <trkpt lat="59.0666063709" lon="30.0253292941"><ele>104.986</ele><time>2026-04-20T17:27:26.076Z</time><hdop>4.75</hdop><vdop>4.25</vdop><extensions><gom:speed>0.103</gom:speed></extensions></trkpt>
   <trkpt lat="59.0666082988" lon="30.0253280368"><ele>105.12</ele><time>2026-04-20T17:27:27.075Z</time><hdop>4.625</hdop><vdop>4.25</vdop><extensions><gom:speed>0.071</gom:speed></extensions></trkpt>
   <trkpt lat="59.0666097656" lon="30.0253277854"><ele>105.201</ele><time>2026-04-20T17:27:28.075Z</time><hdop>4.5</hdop><vdop>4.25</vdop><extensions><gom:speed>0.07</gom:speed></extensions></trkpt>
   <trkpt lat="59.066610981" lon="30.0253281206"><ele>105.255</ele><time>2026-04-20T17:27:29.075Z</time><hdop>4.375</hdop><vdop>4.25</vdop><extensions><gom:speed>0.102</gom:speed></extensions></trkpt>
   <trkpt lat="59.0666124897" lon="30.0253287912"><ele>105.289</ele><time>2026-04-20T17:27:30.075Z</time><hdop>4.312</hdop><vdop>4.312</vdop><extensions><gom:speed>0.158</gom:speed></extensions></trkpt>
   <trkpt lat="59.0666140823" lon="30.0253290426"><ele>105.336</ele><time>2026-04-20T17:27:31.075Z</time><hdop>4.25</hdop><vdop>4.312</vdop><extensions><gom:speed>0.199</gom:speed></extensions></trkpt>
   <trkpt lat="59.0666158844" lon="30.0253293779"><ele>105.385</ele><time>2026-04-20T17:27:32.075Z</time><hdop>4.187</hdop><vdop>4.437</vdop><extensions><gom:speed>0.221</gom:speed></extensions></trkpt>
   <trkpt lat="59.0666176865" lon="30.0253293779"><ele>105.439</ele><time>2026-04-20T17:27:33.075Z</time><hdop>4.187</hdop><vdop>4.5</vdop><extensions><gom:speed>0.24</gom:speed></extensions></trkpt>
   <trkpt lat="59.0666192791" lon="30.0253287912"><ele>105.471</ele><time>2026-04-20T17:27:33.882Z</time><hdop>4.187</hdop><vdop>4.5</vdop><extensions><gom:speed>0.241</gom:speed></extensions></trkpt>
   <trkpt lat="59.0666213745" lon="30.0253267795"><ele>105.524</ele><time>2026-04-20T17:27:35.081Z</time><hdop>4.25</hdop><vdop>4.562</vdop><extensions><gom:speed>0.276</gom:speed></extensions></trkpt>
   <trkpt lat="59.0666218775" lon="30.0253265281"><ele>105.55</ele><time>2026-04-20T17:27:35.785Z</time><hdop>4.312</hdop><vdop>4.687</vdop><extensions><gom:speed>0.296</gom:speed></extensions></trkpt>
   <trkpt lat="59.0666249788" lon="30.0253239297"><ele>105.563</ele><time>2026-04-20T17:27:36.943Z</time><hdop>4.375</hdop><vdop>4.687</vdop><extensions><gom:speed>0.329</gom:speed></extensions></trkpt>
   <trkpt lat="59.0666261941" lon="30.0253218342"><ele>105.574</ele><time>2026-04-20T17:27:37.899Z</time><hdop>4.5</hdop><vdop>4.5</vdop><extensions><gom:speed>0.326</gom:speed></extensions></trkpt>
   <trkpt lat="59.0666297983" lon="30.0253157992"><ele>105.581</ele><time>2026-04-20T17:27:38.600Z</time><hdop>4.625</hdop><vdop>4.437</vdop><extensions><gom:speed>0.484</gom:speed></extensions></trkpt>
   <trkpt lat="59.0666358752" lon="30.025305741"><ele>105.582</ele><time>2026-04-20T17:27:39.618Z</time><hdop>4.875</hdop><vdop>4.375</vdop><extensions><gom:speed>0.583</gom:speed></extensions></trkpt>
   <trkpt lat="59.066641994" lon="30.0252982811"><ele>105.57</ele><time>2026-04-20T17:27:40.496Z</time><hdop>5.125</hdop><vdop>4.562</vdop><extensions><gom:speed>0.652</gom:speed></extensions></trkpt>
   <trkpt lat="59.0666455982" lon="30.0252954312"><ele>105.587</ele><time>2026-04-20T17:27:40.997Z</time><hdop>5.312</hdop><vdop>4.687</vdop><extensions><gom:speed>0.672</gom:speed></extensions></trkpt>
   <trkpt lat="59.0666492863" lon="30.0252920785"><ele>105.597</ele><time>2026-04-20T17:27:41.943Z</time><hdop>5.625</hdop><vdop>4.687</vdop><extensions><gom:speed>0.697</gom:speed></extensions></trkpt>
   <trkpt lat="59.066656369" lon="30.0252874684"><ele>105.614</ele><time>2026-04-20T17:27:42.418Z</time><hdop>5.875</hdop><vdop>4.75</vdop><extensions><gom:speed>0.681</gom:speed></extensions></trkpt>
   <trkpt lat="59.0666589674" lon="30.0252841995"><ele>105.629</ele><time>2026-04-20T17:27:43.010Z</time><hdop>6.125</hdop><vdop>4.687</vdop><extensions><gom:speed>0.684</gom:speed></extensions></trkpt>
   <trkpt lat="59.0666636612" lon="30.0252775778"><ele>105.641</ele><time>2026-04-20T17:27:43.957Z</time><hdop>6.625</hdop><vdop>4.687</vdop><extensions><gom:speed>0.685</gom:speed></extensions></trkpt>
   <trkpt lat="59.0666696962" lon="30.0252717942"><ele>105.652</ele><time>2026-04-20T17:27:45.024Z</time><hdop>7.125</hdop><vdop>4.687</vdop><extensions><gom:speed>0.682</gom:speed></extensions></trkpt>
   <trkpt lat="59.0666759826" lon="30.0252675195"><ele>105.658</ele><time>2026-04-20T17:27:45.971Z</time><hdop>7.687</hdop><vdop>4.687</vdop><extensions><gom:speed>0.643</gom:speed></extensions></trkpt>
   <trkpt lat="59.0666788744" lon="30.0252724648"><ele>105.831</ele><time>2026-04-20T17:27:47.076Z</time><hdop>8.0</hdop><vdop>3.75</vdop><extensions><gom:speed>0.586</gom:speed></extensions></trkpt>
   <trkpt lat="59.0666801736" lon="30.0252773263"><ele>105.068</ele><time>2026-04-20T17:27:48.075Z</time><hdop>7.875</hdop><vdop>3.687</vdop><extensions><gom:speed>0.561</gom:speed></extensions></trkpt>
   <trkpt lat="59.0666829815" lon="30.0252785836"><ele>105.304</ele><time>2026-04-20T17:27:49.075Z</time><hdop>7.687</hdop><vdop>3.25</vdop><extensions><gom:speed>0.55</gom:speed></extensions></trkpt>
   <trkpt lat="59.0666881783" lon="30.0252729677"><ele>105.445</ele><time>2026-04-20T17:27:50.022Z</time><hdop>7.375</hdop><vdop>3.25</vdop><extensions><gom:speed>0.632</gom:speed></extensions></trkpt>
   <trkpt lat="59.0666954706" lon="30.0252658431"><ele>106.202</ele><time>2026-04-20T17:27:50.999Z</time><hdop>6.937</hdop><vdop>3.062</vdop><extensions><gom:speed>0.714</gom:speed></extensions></trkpt>
   <trkpt lat="59.0667033915" lon="30.025259389"><ele>106.813</ele><time>2026-04-20T17:27:51.994Z</time><hdop>6.375</hdop><vdop>3.0</vdop><extensions><gom:speed>0.715</gom:speed></extensions></trkpt>
   <trkpt lat="59.0667125696" lon="30.0252515939"><ele>107.147</ele><time>2026-04-20T17:27:53.075Z</time><hdop>6.0</hdop><vdop>2.75</vdop><extensions><gom:speed>0.626</gom:speed></extensions></trkpt>
   <trkpt lat="59.0667189818" lon="30.0252438825"><ele>107.646</ele><time>2026-04-20T17:27:54.075Z</time><hdop>5.687</hdop><vdop>2.875</vdop><extensions><gom:speed>0.532</gom:speed></extensions></trkpt>
   <trkpt lat="59.0667247653" lon="30.0252346624"><ele>107.682</ele><time>2026-04-20T17:27:55.075Z</time><hdop>5.375</hdop><vdop>2.812</vdop><extensions><gom:speed>0.462</gom:speed></extensions></trkpt>
   <trkpt lat="59.0667255616" lon="30.025232986"><ele>107.703</ele><time>2026-04-20T17:27:55.540Z</time><hdop>5.312</hdop><vdop>2.812</vdop><extensions><gom:speed>0.452</gom:speed></extensions></trkpt>
   <trkpt lat="59.0667286629" lon="30.0252276216"><ele>107.218</ele><time>2026-04-20T17:27:56.075Z</time><hdop>5.125</hdop><vdop>2.812</vdop><extensions><gom:speed>0.481</gom:speed></extensions></trkpt>
   <trkpt lat="59.0667303812" lon="30.0252237659"><ele>106.929</ele><time>2026-04-20T17:27:56.634Z</time><hdop>5.062</hdop><vdop>2.812</vdop><extensions><gom:speed>0.39</gom:speed></extensions></trkpt>
   <trkpt lat="59.0667347817" lon="30.0252134562"><ele>106.23</ele><time>2026-04-20T17:27:57.641Z</time><hdop>4.812</hdop><vdop>2.562</vdop><extensions><gom:speed>0.39</gom:speed></extensions></trkpt>
   <trkpt lat="59.0667384697" lon="30.0252024759"><ele>105.905</ele><time>2026-04-20T17:27:58.579Z</time><hdop>4.687</hdop><vdop>2.5</vdop><extensions><gom:speed>0.449</gom:speed></extensions></trkpt>
   <trkpt lat="59.0667409843" lon="30.0251950998"><ele>105.734</ele><time>2026-04-20T17:27:59.075Z</time><hdop>4.625</hdop><vdop>2.562</vdop><extensions><gom:speed>0.474</gom:speed></extensions></trkpt>
   <trkpt lat="59.0667435827" lon="30.025189484"><ele>105.631</ele><time>2026-04-20T17:27:59.865Z</time><hdop>4.625</hdop><vdop>2.562</vdop><extensions><gom:speed>0.408</gom:speed></extensions></trkpt>
   <trkpt lat="59.0667470612" lon="30.0251855445"><ele>105.294</ele><time>2026-04-20T17:28:00.422Z</time><hdop>4.562</hdop><vdop>2.687</vdop><extensions><gom:speed>0.403</gom:speed></extensions></trkpt>
   <trkpt lat="59.0667529704" lon="30.0251808506"><ele>105.22</ele><time>2026-04-20T17:28:01.075Z</time><hdop>4.437</hdop><vdop>4.875</vdop><extensions><gom:speed>0.38</gom:speed></extensions></trkpt>
   <trkpt lat="59.0667551916" lon="30.0251786713"><ele>105.176</ele><time>2026-04-20T17:28:01.541Z</time><hdop>4.437</hdop><vdop>4.875</vdop><extensions><gom:speed>0.407</gom:speed></extensions></trkpt>
   <trkpt lat="59.0667589635" lon="30.0251741451"><ele>105.233</ele><time>2026-04-20T17:28:02.420Z</time><hdop>4.437</hdop><vdop>4.812</vdop><extensions><gom:speed>0.443</gom:speed></extensions></trkpt>
   <trkpt lat="59.0667637831" lon="30.0251684454"><ele>105.291</ele><time>2026-04-20T17:28:03.075Z</time><hdop>4.437</hdop><vdop>4.687</vdop><extensions><gom:speed>0.443</gom:speed></extensions></trkpt>
   <trkpt lat="59.0667706981" lon="30.0251598958"><ele>105.364</ele><time>2026-04-20T17:28:04.076Z</time><hdop>4.437</hdop><vdop>4.5</vdop><extensions><gom:speed>0.471</gom:speed></extensions></trkpt>
   <trkpt lat="59.0667769846" lon="30.0251483288"><ele>105.396</ele><time>2026-04-20T17:28:05.076Z</time><hdop>4.5</hdop><vdop>4.437</vdop><extensions><gom:speed>0.505</gom:speed></extensions></trkpt>
   <trkpt lat="59.0667808822" lon="30.0251355883"><ele>105.415</ele><time>2026-04-20T17:28:06.002Z</time><hdop>4.562</hdop><vdop>4.437</vdop><extensions><gom:speed>0.629</gom:speed></extensions></trkpt>
   <trkpt lat="59.0667830614" lon="30.0251293857"><ele>105.306</ele><time>2026-04-20T17:28:06.699Z</time><hdop>4.562</hdop><vdop>3.875</vdop><extensions><gom:speed>0.651</gom:speed></extensions></trkpt>
   <trkpt lat="59.0667889707" lon="30.0251043238"><ele>105.561</ele><time>2026-04-20T17:28:07.858Z</time><hdop>4.562</hdop><vdop>3.562</vdop><extensions><gom:speed>0.723</gom:speed></extensions></trkpt>
   <trkpt lat="59.0667945866" lon="30.0250889849"><ele>105.563</ele><time>2026-04-20T17:28:08.895Z</time><hdop>4.562</hdop><vdop>3.187</vdop><extensions><gom:speed>0.722</gom:speed></extensions></trkpt>
   <trkpt lat="59.0667999929" lon="30.0250749872"><ele>105.641</ele><time>2026-04-20T17:28:09.753Z</time><hdop>4.562</hdop><vdop>3.187</vdop><extensions><gom:speed>0.748</gom:speed></extensions></trkpt>
   <trkpt lat="59.0668068661" lon="30.0250579719"><ele>105.785</ele><time>2026-04-20T17:28:10.780Z</time><hdop>4.562</hdop><vdop>3.0</vdop><extensions><gom:speed>0.79</gom:speed></extensions></trkpt>
   <trkpt lat="59.0668128591" lon="30.0250436388"><ele>105.745</ele><time>2026-04-20T17:28:11.638Z</time><hdop>4.625</hdop><vdop>2.875</vdop><extensions><gom:speed>0.755</gom:speed></extensions></trkpt>
   <trkpt lat="59.0668181816" lon="30.0250281323"><ele>105.383</ele><time>2026-04-20T17:28:12.557Z</time><hdop>4.625</hdop><vdop>2.937</vdop><extensions><gom:speed>0.76</gom:speed></extensions></trkpt>
   <trkpt lat="59.0668226659" lon="30.0250138831"><ele>105.322</ele><time>2026-04-20T17:28:13.075Z</time><hdop>4.625</hdop><vdop>2.875</vdop><extensions><gom:speed>0.772</gom:speed></extensions></trkpt>
   <trkpt lat="59.066827276" lon="30.0249998853"><ele>105.152</ele><time>2026-04-20T17:28:14.075Z</time><hdop>4.625</hdop><vdop>2.625</vdop><extensions><gom:speed>0.766</gom:speed></extensions></trkpt>
   <trkpt lat="59.0668327661" lon="30.0249846302"><ele>104.973</ele><time>2026-04-20T17:28:15.075Z</time><hdop>4.625</hdop><vdop>2.562</vdop><extensions><gom:speed>0.742</gom:speed></extensions></trkpt>
   <trkpt lat="59.0668391783" lon="30.0249719736"><ele>104.922</ele><time>2026-04-20T17:28:16.075Z</time><hdop>4.562</hdop><vdop>2.625</vdop><extensions><gom:speed>0.716</gom:speed></extensions></trkpt>
   <trkpt lat="59.0668447942" lon="30.0249618315"><ele>104.892</ele><time>2026-04-20T17:28:16.997Z</time><hdop>4.562</hdop><vdop>2.625</vdop><extensions><gom:speed>0.754</gom:speed></extensions></trkpt>
   <trkpt lat="59.0668507872" lon="30.0249507674"><ele>104.898</ele><time>2026-04-20T17:28:17.975Z</time><hdop>4.562</hdop><vdop>2.687</vdop><extensions><gom:speed>0.74</gom:speed></extensions></trkpt>
   <trkpt lat="59.0668574927" lon="30.024937524"><ele>105.089</ele><time>2026-04-20T17:28:19.075Z</time><hdop>4.5</hdop><vdop>2.75</vdop><extensions><gom:speed>0.673</gom:speed></extensions></trkpt>
   <trkpt lat="59.0668629829" lon="30.0249267951"><ele>105.259</ele><time>2026-04-20T17:28:20.075Z</time><hdop>4.5</hdop><vdop>2.625</vdop><extensions><gom:speed>0.607</gom:speed></extensions></trkpt>
   <trkpt lat="59.0668671738" lon="30.0249177427"><ele>105.208</ele><time>2026-04-20T17:28:21.075Z</time><hdop>4.437</hdop><vdop>4.0</vdop><extensions><gom:speed>0.476</gom:speed></extensions></trkpt>
   <trkpt lat="59.066868976" lon="30.0249117915"><ele>104.951</ele><time>2026-04-20T17:28:22.075Z</time><hdop>4.375</hdop><vdop>3.875</vdop><extensions><gom:speed>0.315</gom:speed></extensions></trkpt>
   <trkpt lat="59.0668701913" lon="30.0249083549"><ele>105.097</ele><time>2026-04-20T17:28:23.075Z</time><hdop>4.375</hdop><vdop>3.5</vdop><extensions><gom:speed>0.215</gom:speed></extensions></trkpt>
   <trkpt lat="59.0668710714" lon="30.0249075167"><ele>105.442</ele><time>2026-04-20T17:28:24.076Z</time><hdop>4.375</hdop><vdop>3.437</vdop><extensions><gom:speed>0.187</gom:speed></extensions></trkpt>
   <trkpt lat="59.0668713648" lon="30.0249071815"><ele>105.649</ele><time>2026-04-20T17:28:24.579Z</time><hdop>4.375</hdop><vdop>3.437</vdop><extensions><gom:speed>0.146</gom:speed></extensions></trkpt>
   <trkpt lat="59.0668723706" lon="30.0249046669"><ele>105.9</ele><time>2026-04-20T17:28:25.075Z</time><hdop>4.375</hdop><vdop>3.375</vdop><extensions><gom:speed>0.144</gom:speed></extensions></trkpt>
   <trkpt lat="59.0668734603" lon="30.0249030743"><ele>106.05</ele><time>2026-04-20T17:28:25.575Z</time><hdop>4.375</hdop><vdop>3.375</vdop><extensions><gom:speed>0.13</gom:speed></extensions></trkpt>
   <trkpt lat="59.0668750947" lon="30.0248998892"><ele>106.457</ele><time>2026-04-20T17:28:26.075Z</time><hdop>4.375</hdop><vdop>3.25</vdop><extensions><gom:speed>0.169</gom:speed></extensions></trkpt>
   <trkpt lat="59.066875891" lon="30.0248979614"><ele>106.7</ele><time>2026-04-20T17:28:26.573Z</time><hdop>4.375</hdop><vdop>3.25</vdop><extensions><gom:speed>0.207</gom:speed></extensions></trkpt>
   <trkpt lat="59.0668782799" lon="30.0248936866"><ele>106.625</ele><time>2026-04-20T17:28:27.076Z</time><hdop>4.375</hdop><vdop>3.187</vdop><extensions><gom:speed>0.229</gom:speed></extensions></trkpt>
   <trkpt lat="59.0668808783" lon="30.0248887413"><ele>106.581</ele><time>2026-04-20T17:28:27.718Z</time><hdop>4.437</hdop><vdop>3.187</vdop><extensions><gom:speed>0.309</gom:speed></extensions></trkpt>
   <trkpt lat="59.0668868713" lon="30.0248765875"><ele>106.518</ele><time>2026-04-20T17:28:28.655Z</time><hdop>4.437</hdop><vdop>3.187</vdop><extensions><gom:speed>0.431</gom:speed></extensions></trkpt>
   <trkpt lat="59.0668936607" lon="30.0248646852"><ele>106.601</ele><time>2026-04-20T17:28:29.682Z</time><hdop>4.437</hdop><vdop>3.125</vdop><extensions><gom:speed>0.519</gom:speed></extensions></trkpt>
   <trkpt lat="59.0669004919" lon="30.0248554651"><ele>106.5</ele><time>2026-04-20T17:28:30.780Z</time><hdop>4.437</hdop><vdop>3.187</vdop><extensions><gom:speed>0.494</gom:speed></extensions></trkpt>
   <trkpt lat="59.0669038866" lon="30.0248507713"><ele>106.138</ele><time>2026-04-20T17:28:31.455Z</time><hdop>4.5</hdop><vdop>3.062</vdop><extensions><gom:speed>0.515</gom:speed></extensions></trkpt>
   <trkpt lat="59.0669097958" lon="30.0248455745"><ele>105.898</ele><time>2026-04-20T17:28:32.075Z</time><hdop>4.5</hdop><vdop>2.875</vdop><extensions><gom:speed>0.499</gom:speed></extensions></trkpt>
   <trkpt lat="59.0669127714" lon="30.0248420541"><ele>105.754</ele><time>2026-04-20T17:28:32.721Z</time><hdop>4.562</hdop><vdop>2.875</vdop><extensions><gom:speed>0.504</gom:speed></extensions></trkpt>
   <trkpt lat="59.0669179682" lon="30.0248354324"><ele>105.848</ele><time>2026-04-20T17:28:33.600Z</time><hdop>4.562</hdop><vdop>2.812</vdop><extensions><gom:speed>0.585</gom:speed></extensions></trkpt>
   <trkpt lat="59.0669211952" lon="30.0248321634"><ele>106.25</ele><time>2026-04-20T17:28:34.075Z</time><hdop>4.562</hdop><vdop>2.875</vdop><extensions><gom:speed>0.572</gom:speed></extensions></trkpt>
   <trkpt lat="59.0669237936" lon="30.0248294812"><ele>106.491</ele><time>2026-04-20T17:28:34.577Z</time><hdop>4.625</hdop><vdop>2.875</vdop><extensions><gom:speed>0.58</gom:speed></extensions></trkpt>
   <trkpt lat="59.0669267692" lon="30.0248261285"><ele>106.404</ele><time>2026-04-20T17:28:35.075Z</time><hdop>4.625</hdop><vdop>2.75</vdop><extensions><gom:speed>0.583</gom:speed></extensions></trkpt>
   <trkpt lat="59.0669290742" lon="30.0248224404"><ele>106.351</ele><time>2026-04-20T17:28:35.576Z</time><hdop>4.687</hdop><vdop>2.75</vdop><extensions><gom:speed>0.576</gom:speed></extensions></trkpt>
   <trkpt lat="59.0669315888" lon="30.0248168245"><ele>106.445</ele><time>2026-04-20T17:28:36.075Z</time><hdop>4.687</hdop><vdop>2.812</vdop><extensions><gom:speed>0.578</gom:speed></extensions></trkpt>
   <trkpt lat="59.0669355702" lon="30.0248055928"><ele>106.033</ele><time>2026-04-20T17:28:37.076Z</time><hdop>4.687</hdop><vdop>2.687</vdop><extensions><gom:speed>0.58</gom:speed></extensions></trkpt>
   <trkpt lat="59.0669372885" lon="30.0248008989"><ele>105.787</ele><time>2026-04-20T17:28:37.615Z</time><hdop>4.687</hdop><vdop>2.687</vdop><extensions><gom:speed>0.587</gom:speed></extensions></trkpt>
   <trkpt lat="59.0669412699" lon="30.024791595"><ele>105.808</ele><time>2026-04-20T17:28:38.075Z</time><hdop>4.687</hdop><vdop>2.562</vdop><extensions><gom:speed>0.589</gom:speed></extensions></trkpt>
   <trkpt lat="59.0669444969" lon="30.0247840513"><ele>105.774</ele><time>2026-04-20T17:28:39.076Z</time><hdop>4.687</hdop><vdop>2.5</vdop><extensions><gom:speed>0.515</gom:speed></extensions></trkpt>
   <trkpt lat="59.0669448741" lon="30.0247789383"><ele>105.753</ele><time>2026-04-20T17:28:39.681Z</time><hdop>4.687</hdop><vdop>2.5</vdop><extensions><gom:speed>0.508</gom:speed></extensions></trkpt>
   <trkpt lat="59.0669450836" lon="30.0247705564"><ele>105.387</ele><time>2026-04-20T17:28:40.599Z</time><hdop>4.625</hdop><vdop>2.5</vdop><extensions><gom:speed>0.47</gom:speed></extensions></trkpt>
   <trkpt lat="59.0669468857" lon="30.0247647729"><ele>105.143</ele><time>2026-04-20T17:28:41.075Z</time><hdop>4.625</hdop><vdop>2.5</vdop><extensions><gom:speed>0.516</gom:speed></extensions></trkpt>
   <trkpt lat="59.0669532979" lon="30.0247544632"><ele>105.199</ele><time>2026-04-20T17:28:42.075Z</time><hdop>4.562</hdop><vdop>2.5</vdop><extensions><gom:speed>0.53</gom:speed></extensions></trkpt>
   <trkpt lat="59.066956483" lon="30.0247522839"><ele>105.233</ele><time>2026-04-20T17:28:42.613Z</time><hdop>4.5</hdop><vdop>2.5</vdop><extensions><gom:speed>0.49</gom:speed></extensions></trkpt>
   <trkpt lat="59.0669605902" lon="30.0247501884"><ele>105.199</ele><time>2026-04-20T17:28:43.076Z</time><hdop>4.5</hdop><vdop>2.5</vdop><extensions><gom:speed>0.484</gom:speed></extensions></trkpt>
   <trkpt lat="59.0669647811" lon="30.0247473386"><ele>105.178</ele><time>2026-04-20T17:28:43.778Z</time><hdop>4.5</hdop><vdop>2.5</vdop><extensions><gom:speed>0.491</gom:speed></extensions></trkpt>
   <trkpt lat="59.0669712771" lon="30.0247422256"><ele>105.432</ele><time>2026-04-20T17:28:44.676Z</time><hdop>4.5</hdop><vdop>6.625</vdop><extensions><gom:speed>0.517</gom:speed></extensions></trkpt>
   <trkpt lat="59.0669777731" lon="30.024737867"><ele>105.758</ele><time>2026-04-20T17:28:45.516Z</time><hdop>4.437</hdop><vdop>6.562</vdop><extensions><gom:speed>0.545</gom:speed></extensions></trkpt>
   <trkpt lat="59.0669809582" lon="30.0247349334"><ele>105.96</ele><time>2026-04-20T17:28:46.025Z</time><hdop>4.5</hdop><vdop>6.312</vdop><extensions><gom:speed>0.546</gom:speed></extensions></trkpt>
   <trkpt lat="59.0669840595" lon="30.0247319997"><ele>106.081</ele><time>2026-04-20T17:28:46.600Z</time><hdop>4.562</hdop><vdop>6.312</vdop><extensions><gom:speed>0.525</gom:speed></extensions></trkpt>
   <trkpt lat="59.066987077" lon="30.0247293175"><ele>105.981</ele><time>2026-04-20T17:28:47.075Z</time><hdop>4.562</hdop><vdop>6.25</vdop><extensions><gom:speed>0.513</gom:speed></extensions></trkpt>
   <trkpt lat="59.0669901783" lon="30.0247243722"><ele>105.921</ele><time>2026-04-20T17:28:47.874Z</time><hdop>4.625</hdop><vdop>6.25</vdop><extensions><gom:speed>0.47</gom:speed></extensions></trkpt>
   <trkpt lat="59.0669920642" lon="30.0247187563"><ele>105.787</ele><time>2026-04-20T17:28:48.556Z</time><hdop>4.75</hdop><vdop>5.937</vdop><extensions><gom:speed>0.414</gom:speed></extensions></trkpt>
   <trkpt lat="59.0669957942" lon="30.0247126375"><ele>105.807</ele><time>2026-04-20T17:28:49.779Z</time><hdop>5.0</hdop><vdop>5.937</vdop><extensions><gom:speed>0.379</gom:speed></extensions></trkpt>
   <trkpt lat="59.0670006976" lon="30.0247120508"><ele>105.774</ele><time>2026-04-20T17:28:50.895Z</time><hdop>5.187</hdop><vdop>5.75</vdop><extensions><gom:speed>0.372</gom:speed></extensions></trkpt>
   <trkpt lat="59.0670037989" lon="30.0247121346"><ele>105.729</ele><time>2026-04-20T17:28:51.982Z</time><hdop>5.437</hdop><vdop>5.812</vdop><extensions><gom:speed>0.399</gom:speed></extensions></trkpt>
   <trkpt lat="59.0670074869" lon="30.0247082789"><ele>105.702</ele><time>2026-04-20T17:28:52.937Z</time><hdop>5.687</hdop><vdop>5.937</vdop><extensions><gom:speed>0.416</gom:speed></extensions></trkpt>
   <trkpt lat="59.0670114683" lon="30.0247046747"><ele>105.628</ele><time>2026-04-20T17:28:53.895Z</time><hdop>5.875</hdop><vdop>6.125</vdop><extensions><gom:speed>0.475</gom:speed></extensions></trkpt>
   <trkpt lat="59.0670158688" lon="30.0246986397"><ele>105.667</ele><time>2026-04-20T17:28:54.813Z</time><hdop>6.0</hdop><vdop>5.875</vdop><extensions><gom:speed>0.562</gom:speed></extensions></trkpt>
   <trkpt lat="59.0670211913" lon="30.024690174"><ele>105.58</ele><time>2026-04-20T17:28:55.761Z</time><hdop>6.062</hdop><vdop>5.75</vdop><extensions><gom:speed>0.66</gom:speed></extensions></trkpt>
   <trkpt lat="59.0670298666" lon="30.0246770982"><ele>105.494</ele><time>2026-04-20T17:28:56.778Z</time><hdop>6.25</hdop><vdop>5.5</vdop><extensions><gom:speed>0.68</gom:speed></extensions></trkpt>
   <trkpt lat="59.067031082" lon="30.024677182"><ele>105.43</ele><time>2026-04-20T17:28:57.962Z</time><hdop>6.25</hdop><vdop>5.625</vdop><extensions><gom:speed>0.574</gom:speed></extensions></trkpt>
   <trkpt lat="59.0670326745" lon="30.0246699736"><ele>105.398</ele><time>2026-04-20T17:28:58.998Z</time><hdop>6.437</hdop><vdop>5.5</vdop><extensions><gom:speed>0.553</gom:speed></extensions></trkpt>
   <trkpt lat="59.0670327583" lon="30.0246621784"><ele>105.415</ele><time>2026-04-20T17:29:00.016Z</time><hdop>6.562</hdop><vdop>5.437</vdop><extensions><gom:speed>0.51</gom:speed></extensions></trkpt>
   <trkpt lat="59.0670319621" lon="30.0246559758"><ele>105.384</ele><time>2026-04-20T17:29:00.913Z</time><hdop>6.687</hdop><vdop>5.25</vdop><extensions><gom:speed>0.442</gom:speed></extensions></trkpt>
   <trkpt lat="59.0670340994" lon="30.0246503599"><ele>105.335</ele><time>2026-04-20T17:29:02.016Z</time><hdop>6.812</hdop><vdop>4.625</vdop><extensions><gom:speed>0.381</gom:speed></extensions></trkpt>
   <trkpt lat="59.0670361949" lon="30.0246441573"><ele>105.288</ele><time>2026-04-20T17:29:02.964Z</time><hdop>7.187</hdop><vdop>4.562</vdop><extensions><gom:speed>0.372</gom:speed></extensions></trkpt>
   <trkpt lat="59.0670362787" lon="30.0246407208"><ele>105.26</ele><time>2026-04-20T17:29:04.030Z</time><hdop>7.437</hdop><vdop>4.625</vdop><extensions><gom:speed>0.361</gom:speed></extensions></trkpt>
   <trkpt lat="59.0670383742" lon="30.0246380386"><ele>105.243</ele><time>2026-04-20T17:29:05.059Z</time><hdop>7.5</hdop><vdop>4.625</vdop><extensions><gom:speed>0.342</gom:speed></extensions></trkpt>
   <trkpt lat="59.0670406792" lon="30.0246375356"><ele>105.234</ele><time>2026-04-20T17:29:06.017Z</time><hdop>7.562</hdop><vdop>4.562</vdop><extensions><gom:speed>0.294</gom:speed></extensions></trkpt>
   <trkpt lat="59.0670423975" lon="30.0246365298"><ele>105.238</ele><time>2026-04-20T17:29:06.992Z</time><hdop>7.625</hdop><vdop>4.562</vdop><extensions><gom:speed>0.326</gom:speed></extensions></trkpt>
   <trkpt lat="59.067041266" lon="30.0246486836"><ele>105.244</ele><time>2026-04-20T17:29:08.075Z</time><hdop>7.562</hdop><vdop>4.375</vdop><extensions><gom:speed>0.321</gom:speed></extensions></trkpt>
   <trkpt lat="59.0670404697" lon="30.0246543833"><ele>105.248</ele><time>2026-04-20T17:29:08.530Z</time><hdop>7.375</hdop><vdop>4.375</vdop><extensions><gom:speed>0.352</gom:speed></extensions></trkpt>
   <trkpt lat="59.0670401763" lon="30.0246582389"><ele>104.674</ele><time>2026-04-20T17:29:09.075Z</time><hdop>7.187</hdop><vdop>3.75</vdop><extensions><gom:speed>0.388</gom:speed></extensions></trkpt>
   <trkpt lat="59.0670416851" lon="30.0246568978"><ele>103.902</ele><time>2026-04-20T17:29:10.075Z</time><hdop>6.687</hdop><vdop>4.312</vdop><extensions><gom:speed>0.414</gom:speed></extensions></trkpt>
   <trkpt lat="59.0670429843" lon="30.024648935"><ele>103.442</ele><time>2026-04-20T17:29:11.085Z</time><hdop>6.25</hdop><vdop>4.312</vdop><extensions><gom:speed>0.472</gom:speed></extensions></trkpt>
   <trkpt lat="59.0670461694" lon="30.0246370327"><ele>103.053</ele><time>2026-04-20T17:29:12.058Z</time><hdop>6.187</hdop><vdop>4.187</vdop><extensions><gom:speed>0.491</gom:speed></extensions></trkpt>
   <trkpt lat="59.0670533778" lon="30.0246215262"><ele>103.233</ele><time>2026-04-20T17:29:13.055Z</time><hdop>5.625</hdop><vdop>4.125</vdop><extensions><gom:speed>0.458</gom:speed></extensions></trkpt>
   <trkpt lat="59.0670654897" lon="30.0246024993"><ele>103.843</ele><time>2026-04-20T17:29:14.075Z</time><hdop>5.312</hdop><vdop>3.75</vdop><extensions><gom:speed>0.4</gom:speed></extensions></trkpt>
   <trkpt lat="59.0670683814" lon="30.0245988951"><ele>104.208</ele><time>2026-04-20T17:29:14.690Z</time><hdop>5.125</hdop><vdop>3.75</vdop><extensions><gom:speed>0.381</gom:speed></extensions></trkpt>
   <trkpt lat="59.0670752965" lon="30.0245904293"><ele>104.571</ele><time>2026-04-20T17:29:15.158Z</time><hdop>4.937</hdop><vdop>4.062</vdop><extensions><gom:speed>0.374</gom:speed></extensions></trkpt>
   <trkpt lat="59.0670808705" lon="30.0245846458"><ele>104.416</ele><time>2026-04-20T17:29:16.075Z</time><hdop>4.875</hdop><vdop>4.312</vdop><extensions><gom:speed>0.352</gom:speed></extensions></trkpt>
   <trkpt lat="59.0670855643" lon="30.0245797843"><ele>104.324</ele><time>2026-04-20T17:29:16.956Z</time><hdop>4.812</hdop><vdop>4.312</vdop><extensions><gom:speed>0.443</gom:speed></extensions></trkpt>
   <trkpt lat="59.0670938624" lon="30.0245687202"><ele>104.214</ele><time>2026-04-20T17:29:17.864Z</time><hdop>4.75</hdop><vdop>4.375</vdop><extensions><gom:speed>0.558</gom:speed></extensions></trkpt>
   <trkpt lat="59.0671029987" lon="30.0245549739"><ele>104.366</ele><time>2026-04-20T17:29:18.760Z</time><hdop>4.687</hdop><vdop>4.437</vdop><extensions><gom:speed>0.692</gom:speed></extensions></trkpt>
   <trkpt lat="59.0671120931" lon="30.0245429878"><ele>104.768</ele><time>2026-04-20T17:29:19.638Z</time><hdop>4.687</hdop><vdop>4.562</vdop><extensions><gom:speed>0.722</gom:speed></extensions></trkpt>
   <trkpt lat="59.0671206845" lon="30.0245312531"><ele>105.258</ele><time>2026-04-20T17:29:20.517Z</time><hdop>4.812</hdop><vdop>4.687</vdop><extensions><gom:speed>0.74</gom:speed></extensions></trkpt>
   <trkpt lat="59.0671256717" lon="30.0245231227"><ele>105.616</ele><time>2026-04-20T17:29:20.968Z</time><hdop>4.875</hdop><vdop>4.75</vdop><extensions><gom:speed>0.741</gom:speed></extensions></trkpt>
   <trkpt lat="59.0671272643" lon="30.0245197699"><ele>105.829</ele><time>2026-04-20T17:29:21.455Z</time><hdop>5.0</hdop><vdop>4.75</vdop><extensions><gom:speed>0.749</gom:speed></extensions></trkpt>
   <trkpt lat="59.0671324611" lon="30.024515998"><ele>105.926</ele><time>2026-04-20T17:29:22.076Z</time><hdop>5.0</hdop><vdop>4.875</vdop><extensions><gom:speed>0.722</gom:speed></extensions></trkpt>
   <trkpt lat="59.06713946" lon="30.0245107174"><ele>106.138</ele><time>2026-04-20T17:29:22.982Z</time><hdop>5.125</hdop><vdop>5.0</vdop><extensions><gom:speed>0.732</gom:speed></extensions></trkpt>
   <trkpt lat="59.067146375" lon="30.0245038443"><ele>106.254</ele><time>2026-04-20T17:29:24.047Z</time><hdop>5.312</hdop><vdop>5.187</vdop><extensions><gom:speed>0.737</gom:speed></extensions></trkpt>
   <trkpt lat="59.0671517814" lon="30.0244944565"><ele>106.274</ele><time>2026-04-20T17:29:24.995Z</time><hdop>5.5</hdop><vdop>5.187</vdop><extensions><gom:speed>0.72</gom:speed></extensions></trkpt>
   <trkpt lat="59.0671566848" lon="30.0244867452"><ele>106.328</ele><time>2026-04-20T17:29:26.076Z</time><hdop>5.687</hdop><vdop>5.187</vdop><extensions><gom:speed>0.658</gom:speed></extensions></trkpt>
   <trkpt lat="59.0671610853" lon="30.0244791177"><ele>106.358</ele><time>2026-04-20T17:29:27.010Z</time><hdop>5.75</hdop><vdop>5.5</vdop><extensions><gom:speed>0.653</gom:speed></extensions></trkpt>
   <trkpt lat="59.0671647733" lon="30.0244683888"><ele>106.376</ele><time>2026-04-20T17:29:28.079Z</time><hdop>6.0</hdop><vdop>5.5</vdop><extensions><gom:speed>0.65</gom:speed></extensions></trkpt>
   <trkpt lat="59.0671677908" lon="30.0244575762"><ele>106.344</ele><time>2026-04-20T17:29:29.078Z</time><hdop>6.062</hdop><vdop>5.375</vdop><extensions><gom:speed>0.656</gom:speed></extensions></trkpt>
   <trkpt lat="59.0671710597" lon="30.0244492781"><ele>106.419</ele><time>2026-04-20T17:29:29.973Z</time><hdop>6.187</hdop><vdop>5.187</vdop><extensions><gom:speed>0.638</gom:speed></extensions></trkpt>
   <trkpt lat="59.0671759632" lon="30.024439136"><ele>106.506</ele><time>2026-04-20T17:29:31.059Z</time><hdop>6.312</hdop><vdop>4.937</vdop><extensions><gom:speed>0.665</gom:speed></extensions></trkpt>
   <trkpt lat="59.0671835907" lon="30.0244376272"><ele>105.302</ele><time>2026-04-20T17:29:32.075Z</time><hdop>6.437</hdop><vdop>3.312</vdop><extensions><gom:speed>0.616</gom:speed></extensions></trkpt>
   <trkpt lat="59.0671901705" lon="30.0244333525"><ele>104.605</ele><time>2026-04-20T17:29:33.075Z</time><hdop>6.437</hdop><vdop>2.937</vdop><extensions><gom:speed>0.467</gom:speed></extensions></trkpt>
   <trkpt lat="59.0671971694" lon="30.0244287424"><ele>104.532</ele><time>2026-04-20T17:29:34.075Z</time><hdop>6.187</hdop><vdop>2.75</vdop><extensions><gom:speed>0.309</gom:speed></extensions></trkpt>
   <trkpt lat="59.0672032882" lon="30.0244263955"><ele>105.594</ele><time>2026-04-20T17:29:35.075Z</time><hdop>5.875</hdop><vdop>5.125</vdop><extensions><gom:speed>0.185</gom:speed></extensions></trkpt>
   <trkpt lat="59.0672086945" lon="30.024423378"><ele>106.885</ele><time>2026-04-20T17:29:36.076Z</time><hdop>5.437</hdop><vdop>5.125</vdop><extensions><gom:speed>0.099</gom:speed></extensions></trkpt>
   <trkpt lat="59.067213095" lon="30.0244183489"><ele>107.731</ele><time>2026-04-20T17:29:37.076Z</time><hdop>5.125</hdop><vdop>5.0</vdop><extensions><gom:speed>0.077</gom:speed></extensions></trkpt>
   <trkpt lat="59.0672172859" lon="30.0244128168"><ele>108.499</ele><time>2026-04-20T17:29:38.075Z</time><hdop>4.625</hdop><vdop>5.0</vdop><extensions><gom:speed>0.085</gom:speed></extensions></trkpt>
   <trkpt lat="59.0672214769" lon="30.0244070333"><ele>108.932</ele><time>2026-04-20T17:29:39.075Z</time><hdop>4.187</hdop><vdop>5.062</vdop><extensions><gom:speed>0.121</gom:speed></extensions></trkpt>
   <trkpt lat="59.0672237819" lon="30.024404854"><ele>108.944</ele><time>2026-04-20T17:29:40.038Z</time><hdop>3.875</hdop><vdop>5.187</vdop><extensions><gom:speed>0.124</gom:speed></extensions></trkpt>
   <trkpt lat="59.06722747" lon="30.0244028423"><ele>108.546</ele><time>2026-04-20T17:29:41.075Z</time><hdop>3.75</hdop><vdop>5.437</vdop><extensions><gom:speed>0.178</gom:speed></extensions></trkpt>
   <trkpt lat="59.0672301941" lon="30.0244021718"><ele>108.044</ele><time>2026-04-20T17:29:42.052Z</time><hdop>3.75</hdop><vdop>5.687</vdop><extensions><gom:speed>0.195</gom:speed></extensions></trkpt>
   <trkpt lat="59.0672340917" lon="30.0244018365"><ele>107.711</ele><time>2026-04-20T17:29:43.075Z</time><hdop>3.687</hdop><vdop>5.562</vdop><extensions><gom:speed>0.164</gom:speed></extensions></trkpt>
   <trkpt lat="59.0672353909" lon="30.0244015851"><ele>107.677</ele><time>2026-04-20T17:29:43.947Z</time><hdop>3.75</hdop><vdop>5.5</vdop><extensions><gom:speed>0.138</gom:speed></extensions></trkpt>
   <trkpt lat="59.0672382826" lon="30.0244000763"><ele>107.782</ele><time>2026-04-20T17:29:45.075Z</time><hdop>3.875</hdop><vdop>5.562</vdop><extensions><gom:speed>0.101</gom:speed></extensions></trkpt>
   <trkpt lat="59.0672387855" lon="30.0243992381"><ele>107.845</ele><time>2026-04-20T17:29:45.605Z</time><hdop>3.875</hdop><vdop>5.562</vdop><extensions><gom:speed>0.08</gom:speed></extensions></trkpt>
   <trkpt lat="59.0672418868" lon="30.024398819"><ele>107.353</ele><time>2026-04-20T17:29:47.075Z</time><hdop>3.937</hdop><vdop>5.75</vdop><extensions><gom:speed>0.076</gom:speed></extensions></trkpt>
   <trkpt lat="59.0672418868" lon="30.0243993219"><ele>106.858</ele><time>2026-04-20T17:29:47.975Z</time><hdop>4.0</hdop><vdop>5.687</vdop><extensions><gom:speed>0.066</gom:speed></extensions></trkpt>
   <trkpt lat="59.0672432698" lon="30.0244013336"><ele>106.417</ele><time>2026-04-20T17:29:49.076Z</time><hdop>4.062</hdop><vdop>5.687</vdop><extensions><gom:speed>0.096</gom:speed></extensions></trkpt>
   <trkpt lat="59.0672447786" lon="30.0244029262"><ele>106.221</ele><time>2026-04-20T17:29:49.989Z</time><hdop>4.125</hdop><vdop>5.75</vdop><extensions><gom:speed>0.068</gom:speed></extensions></trkpt>
   <trkpt lat="59.067245994" lon="30.0244033453"><ele>105.968</ele><time>2026-04-20T17:29:51.075Z</time><hdop>4.125</hdop><vdop>5.75</vdop><extensions><gom:speed>0.07</gom:speed></extensions></trkpt>
   <trkpt lat="59.0672458682" lon="30.0244028423"><ele>105.817</ele><time>2026-04-20T17:29:51.883Z</time><hdop>4.187</hdop><vdop>5.75</vdop><extensions><gom:speed>0.068</gom:speed></extensions></trkpt>
   <trkpt lat="59.067247377" lon="30.0244044349"><ele>105.443</ele><time>2026-04-20T17:29:53.075Z</time><hdop>4.25</hdop><vdop>5.75</vdop><extensions><gom:speed>0.145</gom:speed></extensions></trkpt>
   <trkpt lat="59.0672484666" lon="30.0244068657"><ele>105.123</ele><time>2026-04-20T17:29:54.076Z</time><hdop>4.25</hdop><vdop>5.75</vdop><extensions><gom:speed>0.19</gom:speed></extensions></trkpt>
   <trkpt lat="59.067249682" lon="30.0244096317"><ele>104.843</ele><time>2026-04-20T17:29:55.075Z</time><hdop>4.25</hdop><vdop>6.375</vdop><extensions><gom:speed>0.232</gom:speed></extensions></trkpt>
   <trkpt lat="59.0672513584" lon="30.0244117272"><ele>104.682</ele><time>2026-04-20T17:29:56.075Z</time><hdop>4.187</hdop><vdop>6.75</vdop><extensions><gom:speed>0.272</gom:speed></extensions></trkpt>
   <trkpt lat="59.0672531605" lon="30.0244122301"><ele>104.585</ele><time>2026-04-20T17:29:56.774Z</time><hdop>4.187</hdop><vdop>6.75</vdop><extensions><gom:speed>0.281</gom:speed></extensions></trkpt>
   <trkpt lat="59.0672555912" lon="30.0244114757"><ele>104.53</ele><time>2026-04-20T17:29:57.918Z</time><hdop>4.187</hdop><vdop>6.625</vdop><extensions><gom:speed>0.286</gom:speed></extensions></trkpt>
   <trkpt lat="59.0672574772" lon="30.0244097993"><ele>104.47</ele><time>2026-04-20T17:29:58.796Z</time><hdop>4.25</hdop><vdop>6.5</vdop><extensions><gom:speed>0.298</gom:speed></extensions></trkpt>
   <trkpt lat="59.067260788" lon="30.0244081229"><ele>104.409</ele><time>2026-04-20T17:29:59.596Z</time><hdop>4.375</hdop><vdop>6.562</vdop><extensions><gom:speed>0.404</gom:speed></extensions></trkpt>
   <trkpt lat="59.0672652723" lon="30.0244074524"><ele>104.327</ele><time>2026-04-20T17:30:00.417Z</time><hdop>4.5</hdop><vdop>6.5</vdop><extensions><gom:speed>0.534</gom:speed></extensions></trkpt>
   <trkpt lat="59.0672688766" lon="30.0244078715"><ele>104.264</ele><time>2026-04-20T17:30:01.004Z</time><hdop>4.625</hdop><vdop>6.437</vdop><extensions><gom:speed>0.558</gom:speed></extensions></trkpt>
   <trkpt lat="59.067275163" lon="30.0244064466"><ele>104.214</ele><time>2026-04-20T17:30:01.953Z</time><hdop>4.875</hdop><vdop>6.312</vdop><extensions><gom:speed>0.608</gom:speed></extensions></trkpt>
   <trkpt lat="59.0672819942" lon="30.0244023394"><ele>104.176</ele><time>2026-04-20T17:30:03.018Z</time><hdop>5.187</hdop><vdop>6.312</vdop><extensions><gom:speed>0.617</gom:speed></extensions></trkpt>
   <trkpt lat="59.0672882807" lon="30.024398819"><ele>104.158</ele><time>2026-04-20T17:30:03.965Z</time><hdop>5.5</hdop><vdop>6.25</vdop><extensions><gom:speed>0.639</gom:speed></extensions></trkpt>
   <trkpt lat="59.06729507" lon="30.0243945443"><ele>104.136</ele><time>2026-04-20T17:30:05.031Z</time><hdop>5.875</hdop><vdop>6.312</vdop><extensions><gom:speed>0.633</gom:speed></extensions></trkpt>
   <trkpt lat="59.0673013983" lon="30.02439094"><ele>104.124</ele><time>2026-04-20T17:30:06.060Z</time><hdop>6.25</hdop><vdop>6.312</vdop><extensions><gom:speed>0.627</gom:speed></extensions></trkpt>
   <trkpt lat="59.0673063856" lon="30.0243877549"><ele>104.104</ele><time>2026-04-20T17:30:07.045Z</time><hdop>6.562</hdop><vdop>6.5</vdop><extensions><gom:speed>0.578</gom:speed></extensions></trkpt>
   <trkpt lat="59.0673098641" lon="30.0243851565"><ele>104.075</ele><time>2026-04-20T17:30:07.993Z</time><hdop>6.937</hdop><vdop>6.687</vdop><extensions><gom:speed>0.506</gom:speed></extensions></trkpt>
   <trkpt lat="59.0673145998" lon="30.0243810494"><ele>104.058</ele><time>2026-04-20T17:30:09.085Z</time><hdop>7.375</hdop><vdop>6.687</vdop><extensions><gom:speed>0.548</gom:speed></extensions></trkpt>
   <trkpt lat="59.0673198804" lon="30.0243758526"><ele>104.045</ele><time>2026-04-20T17:30:10.019Z</time><hdop>7.625</hdop><vdop>6.875</vdop><extensions><gom:speed>0.579</gom:speed></extensions></trkpt>
   <trkpt lat="59.0673215987" lon="30.0243735895"><ele>103.999</ele><time>2026-04-20T17:30:10.480Z</time><hdop>7.687</hdop><vdop>6.812</vdop><extensions><gom:speed>0.599</gom:speed></extensions></trkpt>
   <trkpt lat="59.0673287653" lon="30.0243661296"><ele>103.972</ele><time>2026-04-20T17:30:11.036Z</time><hdop>8.0</hdop><vdop>6.812</vdop><extensions><gom:speed>0.609</gom:speed></extensions></trkpt>
   <trkpt lat="59.0673333753" lon="30.0243605976"><ele>103.939</ele><time>2026-04-20T17:30:12.020Z</time><hdop>8.187</hdop><vdop>6.25</vdop><extensions><gom:speed>0.556</gom:speed></extensions></trkpt>
   <trkpt lat="59.0673387816" lon="30.0243559875"><ele>103.919</ele><time>2026-04-20T17:30:13.084Z</time><hdop>8.687</hdop><vdop>6.25</vdop><extensions><gom:speed>0.559</gom:speed></extensions></trkpt>
   <trkpt lat="59.067344188" lon="30.024380295"><ele>104.954</ele><time>2026-04-20T17:30:14.075Z</time><hdop>8.5</hdop><vdop>4.812</vdop><extensions><gom:speed>0.606</gom:speed></extensions></trkpt>
   <trkpt lat="59.0673505582" lon="30.0243899342"><ele>105.573</ele><time>2026-04-20T17:30:15.035Z</time><hdop>8.062</hdop><vdop>4.812</vdop><extensions><gom:speed>0.637</gom:speed></extensions></trkpt>
   <trkpt lat="59.0673609937" lon="30.0244045187"><ele>107.938</ele><time>2026-04-20T17:30:15.988Z</time><hdop>7.687</hdop><vdop>4.562</vdop><extensions><gom:speed>0.647</gom:speed></extensions></trkpt>
   <trkpt lat="59.067369166" lon="30.0244128168"><ele>108.705</ele><time>2026-04-20T17:30:16.639Z</time><hdop>7.25</hdop><vdop>6.812</vdop><extensions><gom:speed>0.627</gom:speed></extensions></trkpt>
   <trkpt lat="59.0673938926" lon="30.0244183489"><ele>109.356</ele><time>2026-04-20T17:30:18.054Z</time><hdop>6.687</hdop><vdop>6.687</vdop><extensions><gom:speed>0.636</gom:speed></extensions></trkpt>
   <trkpt lat="59.0674102793" lon="30.0244211987"><ele>109.811</ele><time>2026-04-20T17:30:18.912Z</time><hdop>6.312</hdop><vdop>6.375</vdop><extensions><gom:speed>0.715</gom:speed></extensions></trkpt>
   <trkpt lat="59.0674267916" lon="30.0244210311"><ele>110.285</ele><time>2026-04-20T17:30:19.880Z</time><hdop>6.187</hdop><vdop>6.0</vdop><extensions><gom:speed>0.746</gom:speed></extensions></trkpt>
   <trkpt lat="59.0674416695" lon="30.024417846"><ele>110.639</ele><time>2026-04-20T17:30:20.838Z</time><hdop>5.937</hdop><vdop>5.812</vdop><extensions><gom:speed>0.754</gom:speed></extensions></trkpt>
   <trkpt lat="59.0674541585" lon="30.0244130683"><ele>110.884</ele><time>2026-04-20T17:30:21.657Z</time><hdop>5.75</hdop><vdop>5.562</vdop><extensions><gom:speed>0.812</gom:speed></extensions></trkpt>
   <trkpt lat="59.0674656836" lon="30.0244065304"><ele>111.01</ele><time>2026-04-20T17:30:22.497Z</time><hdop>5.625</hdop><vdop>5.75</vdop><extensions><gom:speed>0.82</gom:speed></extensions></trkpt>
   <trkpt lat="59.0674754905" lon="30.024399741"><ele>111.131</ele><time>2026-04-20T17:30:23.075Z</time><hdop>5.5</hdop><vdop>5.562</vdop><extensions><gom:speed>0.8</gom:speed></extensions></trkpt>
   <trkpt lat="59.0674843753" lon="30.0243944604"><ele>111.024</ele><time>2026-04-20T17:30:24.075Z</time><hdop>5.437</hdop><vdop>5.437</vdop><extensions><gom:speed>0.778</gom:speed></extensions></trkpt>
   <trkpt lat="59.0674884824" lon="30.0243921973"><ele>110.96</ele><time>2026-04-20T17:30:24.559Z</time><hdop>5.375</hdop><vdop>5.437</vdop><extensions><gom:speed>0.798</gom:speed></extensions></trkpt>
   <trkpt lat="59.0674955651" lon="30.0243888446"><ele>110.658</ele><time>2026-04-20T17:30:25.459Z</time><hdop>5.375</hdop><vdop>5.312</vdop><extensions><gom:speed>0.801</gom:speed></extensions></trkpt>
   <trkpt lat="59.0675018935" lon="30.0243902695"><ele>110.475</ele><time>2026-04-20T17:30:26.076Z</time><hdop>5.375</hdop><vdop>5.187</vdop><extensions><gom:speed>0.77</gom:speed></extensions></trkpt>
   <trkpt lat="59.0675092695" lon="30.0243905209"><ele>110.213</ele><time>2026-04-20T17:30:26.945Z</time><hdop>5.437</hdop><vdop>5.375</vdop><extensions><gom:speed>0.752</gom:speed></extensions></trkpt>
   <trkpt lat="59.0675118679" lon="30.0243891798"><ele>110.057</ele><time>2026-04-20T17:30:27.520Z</time><hdop>5.5</hdop><vdop>5.375</vdop><extensions><gom:speed>0.697</gom:speed></extensions></trkpt>
   <trkpt lat="59.0675151788" lon="30.024387252"><ele>110.02</ele><time>2026-04-20T17:30:28.011Z</time><hdop>5.562</hdop><vdop>5.375</vdop><extensions><gom:speed>0.693</gom:speed></extensions></trkpt>
   <trkpt lat="59.0675174838" lon="30.0243852404"><ele>109.997</ele><time>2026-04-20T17:30:28.577Z</time><hdop>5.625</hdop><vdop>5.375</vdop><extensions><gom:speed>0.623</gom:speed></extensions></trkpt>
   <trkpt lat="59.0675239798" lon="30.024377529"><ele>109.808</ele><time>2026-04-20T17:30:30.024Z</time><hdop>5.875</hdop><vdop>5.375</vdop><extensions><gom:speed>0.518</gom:speed></extensions></trkpt>
   <trkpt lat="59.0675239798" lon="30.0243760203"><ele>109.694</ele><time>2026-04-20T17:30:30.659Z</time><hdop>6.0</hdop><vdop>5.375</vdop><extensions><gom:speed>0.42</gom:speed></extensions></trkpt>
   <trkpt lat="59.0675243989" lon="30.0243723322"><ele>109.683</ele><time>2026-04-20T17:30:31.482Z</time><hdop>6.187</hdop><vdop>5.375</vdop><extensions><gom:speed>0.375</gom:speed></extensions></trkpt>
   <trkpt lat="59.0675247761" lon="30.0243689795"><ele>109.725</ele><time>2026-04-20T17:30:32.039Z</time><hdop>6.187</hdop><vdop>5.25</vdop><extensions><gom:speed>0.387</gom:speed></extensions></trkpt>
   <trkpt lat="59.067527584" lon="30.0243647885"><ele>109.797</ele><time>2026-04-20T17:30:32.987Z</time><hdop>6.437</hdop><vdop>5.125</vdop><extensions><gom:speed>0.379</gom:speed></extensions></trkpt>
   <trkpt lat="59.0675307691" lon="30.0243637827"><ele>109.509</ele><time>2026-04-20T17:30:33.934Z</time><hdop>6.625</hdop><vdop>4.937</vdop><extensions><gom:speed>0.373</gom:speed></extensions></trkpt>
   <trkpt lat="59.0675332837" lon="30.0243671354"><ele>109.336</ele><time>2026-04-20T17:30:34.994Z</time><hdop>6.687</hdop><vdop>4.937</vdop><extensions><gom:speed>0.334</gom:speed></extensions></trkpt>
   <trkpt lat="59.0675372651" lon="30.0243666325"><ele>109.239</ele><time>2026-04-20T17:30:35.900Z</time><hdop>6.937</hdop><vdop>4.812</vdop><extensions><gom:speed>0.38</gom:speed></extensions></trkpt>
   <trkpt lat="59.0675399892" lon="30.0243606814"><ele>109.188</ele><time>2026-04-20T17:30:37.016Z</time><hdop>7.125</hdop><vdop>4.812</vdop><extensions><gom:speed>0.413</gom:speed></extensions></trkpt>
   <trkpt lat="59.067537768" lon="30.0243654591"><ele>109.16</ele><time>2026-04-20T17:30:37.934Z</time><hdop>7.125</hdop><vdop>4.812</vdop><extensions><gom:speed>0.41</gom:speed></extensions></trkpt>
   <trkpt lat="59.067540073" lon="30.0243642856"><ele>109.142</ele><time>2026-04-20T17:30:38.793Z</time><hdop>7.125</hdop><vdop>4.75</vdop><extensions><gom:speed>0.47</gom:speed></extensions></trkpt>
   <trkpt lat="59.0675443897" lon="30.024360849"><ele>109.151</ele><time>2026-04-20T17:30:39.515Z</time><hdop>7.125</hdop><vdop>4.625</vdop><extensions><gom:speed>0.556</gom:speed></extensions></trkpt>
   <trkpt lat="59.0675478682" lon="30.0243587535"><ele>109.158</ele><time>2026-04-20T17:30:39.974Z</time><hdop>7.187</hdop><vdop>4.625</vdop><extensions><gom:speed>0.572</gom:speed></extensions></trkpt>
   <trkpt lat="59.0675518915" lon="30.0243567419"><ele>109.162</ele><time>2026-04-20T17:30:40.488Z</time><hdop>7.187</hdop><vdop>4.625</vdop><extensions><gom:speed>0.652</gom:speed></extensions></trkpt>
   <trkpt lat="59.0675566692" lon="30.0243551493"><ele>109.094</ele><time>2026-04-20T17:30:41.040Z</time><hdop>7.25</hdop><vdop>4.562</vdop><extensions><gom:speed>0.675</gom:speed></extensions></trkpt>
   <trkpt lat="59.0675689906" lon="30.0243524671"><ele>108.823</ele><time>2026-04-20T17:30:41.988Z</time><hdop>7.375</hdop><vdop>4.5</vdop><extensions><gom:speed>0.742</gom:speed></extensions></trkpt>
   <trkpt lat="59.0675746903" lon="30.0243504555"><ele>108.662</ele><time>2026-04-20T17:30:43.038Z</time><hdop>7.625</hdop><vdop>4.5</vdop><extensions><gom:speed>0.745</gom:speed></extensions></trkpt>
   <trkpt lat="59.0675721757" lon="30.024351126"><ele>108.351</ele><time>2026-04-20T17:30:43.915Z</time><hdop>7.687</hdop><vdop>4.0</vdop><extensions><gom:speed>0.752</gom:speed></extensions></trkpt>
   <trkpt lat="59.067571589" lon="30.0243452587"><ele>107.545</ele><time>2026-04-20T17:30:44.933Z</time><hdop>7.562</hdop><vdop>3.625</vdop><extensions><gom:speed>0.739</gom:speed></extensions></trkpt>
   <trkpt lat="59.0675747741" lon="30.0243392237"><ele>106.917</ele><time>2026-04-20T17:30:45.782Z</time><hdop>7.312</hdop><vdop>3.5</vdop><extensions><gom:speed>0.722</gom:speed></extensions></trkpt>
   <trkpt lat="59.0675795937" lon="30.0243347813"><ele>106.35</ele><time>2026-04-20T17:30:46.525Z</time><hdop>6.937</hdop><vdop>3.562</vdop><extensions><gom:speed>0.605</gom:speed></extensions></trkpt>
   <trkpt lat="59.0675846648" lon="30.024333524"><ele>106.089</ele><time>2026-04-20T17:30:47.076Z</time><hdop>6.812</hdop><vdop>3.875</vdop><extensions><gom:speed>0.602</gom:speed></extensions></trkpt>
   <trkpt lat="59.067585461" lon="30.0243328535"><ele>105.934</ele><time>2026-04-20T17:30:47.555Z</time><hdop>6.687</hdop><vdop>3.875</vdop><extensions><gom:speed>0.524</gom:speed></extensions></trkpt>
   <trkpt lat="59.0675943878" lon="30.0243320991"><ele>105.973</ele><time>2026-04-20T17:30:48.075Z</time><hdop>6.125</hdop><vdop>3.937</vdop><extensions><gom:speed>0.465</gom:speed></extensions></trkpt>
   <trkpt lat="59.0676021829" lon="30.0243267347"><ele>106.366</ele><time>2026-04-20T17:30:49.075Z</time><hdop>5.75</hdop><vdop>3.687</vdop><extensions><gom:speed>0.398</gom:speed></extensions></trkpt>
   <trkpt lat="59.067609559" lon="30.0243190233"><ele>106.336</ele><time>2026-04-20T17:30:50.075Z</time><hdop>5.5</hdop><vdop>3.687</vdop><extensions><gom:speed>0.367</gom:speed></extensions></trkpt>
   <trkpt lat="59.0676189887" lon="30.0243087974"><ele>106.813</ele><time>2026-04-20T17:30:51.076Z</time><hdop>5.187</hdop><vdop>5.937</vdop><extensions><gom:speed>0.345</gom:speed></extensions></trkpt>
   <trkpt lat="59.0676225929" lon="30.0243007508"><ele>107.098</ele><time>2026-04-20T17:30:52.039Z</time><hdop>4.937</hdop><vdop>5.937</vdop><extensions><gom:speed>0.373</gom:speed></extensions></trkpt>
   <trkpt lat="59.0676302623" lon="30.0242893514"><ele>107.173</ele><time>2026-04-20T17:30:52.938Z</time><hdop>4.812</hdop><vdop>5.937</vdop><extensions><gom:speed>0.465</gom:speed></extensions></trkpt>
   <trkpt lat="59.067639189" lon="30.0242758565"><ele>106.517</ele><time>2026-04-20T17:30:53.817Z</time><hdop>4.562</hdop><vdop>4.937</vdop><extensions><gom:speed>0.584</gom:speed></extensions></trkpt>
   <trkpt lat="59.0676480739" lon="30.0242606853"><ele>106.233</ele><time>2026-04-20T17:30:54.794Z</time><hdop>4.375</hdop><vdop>4.25</vdop><extensions><gom:speed>0.658</gom:speed></extensions></trkpt>
   <trkpt lat="59.0676562881" lon="30.0242461846"><ele>106.595</ele><time>2026-04-20T17:30:55.722Z</time><hdop>4.187</hdop><vdop>3.937</vdop><extensions><gom:speed>0.666</gom:speed></extensions></trkpt>
   <trkpt lat="59.0676643767" lon="30.0242341985"><ele>107.276</ele><time>2026-04-20T17:30:56.660Z</time><hdop>4.062</hdop><vdop>3.625</vdop><extensions><gom:speed>0.65</gom:speed></extensions></trkpt>
   <trkpt lat="59.067673471" lon="30.0242211227"><ele>107.904</ele><time>2026-04-20T17:30:57.834Z</time><hdop>3.937</hdop><vdop>3.5</vdop><extensions><gom:speed>0.666</gom:speed></extensions></trkpt>
   <trkpt lat="59.0676812662" lon="30.0242091366"><ele>108.564</ele><time>2026-04-20T17:30:58.742Z</time><hdop>3.937</hdop><vdop>4.812</vdop><extensions><gom:speed>0.685</gom:speed></extensions></trkpt>
   <trkpt lat="59.0676890614" lon="30.0241989945"><ele>108.796</ele><time>2026-04-20T17:30:59.621Z</time><hdop>4.0</hdop><vdop>4.5</vdop><extensions><gom:speed>0.688</gom:speed></extensions></trkpt>
   <trkpt lat="59.0676965632" lon="30.0241920375"><ele>108.981</ele><time>2026-04-20T17:31:00.075Z</time><hdop>4.125</hdop><vdop>4.437</vdop><extensions><gom:speed>0.668</gom:speed></extensions></trkpt>
   <trkpt lat="59.0676996645" lon="30.0241894391"><ele>109.092</ele><time>2026-04-20T17:31:00.597Z</time><hdop>4.187</hdop><vdop>4.437</vdop><extensions><gom:speed>0.71</gom:speed></extensions></trkpt>
   <trkpt lat="59.0677047774" lon="30.0241875951"><ele>109.1</ele><time>2026-04-20T17:31:01.075Z</time><hdop>4.187</hdop><vdop>4.437</vdop><extensions><gom:speed>0.695</gom:speed></extensions></trkpt>
   <trkpt lat="59.0677087588" lon="30.0241860863"><ele>109.104</ele><time>2026-04-20T17:31:01.594Z</time><hdop>4.312</hdop><vdop>4.437</vdop><extensions><gom:speed>0.665</gom:speed></extensions></trkpt>
   <trkpt lat="59.0677138718" lon="30.0241850805"><ele>109.164</ele><time>2026-04-20T17:31:02.075Z</time><hdop>4.312</hdop><vdop>4.437</vdop><extensions><gom:speed>0.644</gom:speed></extensions></trkpt>
   <trkpt lat="59.0677192781" lon="30.0241838232"><ele>109.199</ele><time>2026-04-20T17:31:02.760Z</time><hdop>4.437</hdop><vdop>4.437</vdop><extensions><gom:speed>0.626</gom:speed></extensions></trkpt>
   <trkpt lat="59.0677302584" lon="30.0241824821"><ele>109.548</ele><time>2026-04-20T17:31:04.075Z</time><hdop>4.562</hdop><vdop>4.562</vdop><extensions><gom:speed>0.505</gom:speed></extensions></trkpt>
   <trkpt lat="59.0677351618" lon="30.0241818954"><ele>109.825</ele><time>2026-04-20T17:31:05.075Z</time><hdop>4.625</hdop><vdop>4.5</vdop><extensions><gom:speed>0.349</gom:speed></extensions></trkpt>
   <trkpt lat="59.0677369639" lon="30.0241814763"><ele>109.979</ele><time>2026-04-20T17:31:06.075Z</time><hdop>4.625</hdop><vdop>4.5</vdop><extensions><gom:speed>0.202</gom:speed></extensions></trkpt>
   <trkpt lat="59.0677367963" lon="30.0241815601"><ele>110.071</ele><time>2026-04-20T17:31:06.601Z</time><hdop>4.562</hdop><vdop>4.5</vdop><extensions><gom:speed>0.129</gom:speed></extensions></trkpt>
   <trkpt lat="59.0677380955" lon="30.0241808896"><ele>110.152</ele><time>2026-04-20T17:31:07.075Z</time><hdop>4.562</hdop><vdop>4.375</vdop><extensions><gom:speed>0.157</gom:speed></extensions></trkpt>
   <trkpt lat="59.0677406939" lon="30.0241780397"><ele>110.235</ele><time>2026-04-20T17:31:08.075Z</time><hdop>4.5</hdop><vdop>4.187</vdop><extensions><gom:speed>0.151</gom:speed></extensions></trkpt>
   <trkpt lat="59.067743879" lon="30.0241768662"><ele>110.241</ele><time>2026-04-20T17:31:09.075Z</time><hdop>4.437</hdop><vdop>4.062</vdop><extensions><gom:speed>0.155</gom:speed></extensions></trkpt>
   <trkpt lat="59.0677471899" lon="30.0241749384"><ele>110.293</ele><time>2026-04-20T17:31:10.075Z</time><hdop>4.375</hdop><vdop>4.062</vdop><extensions><gom:speed>0.176</gom:speed></extensions></trkpt>
   <trkpt lat="59.0677501654" lon="30.0241718371"><ele>110.347</ele><time>2026-04-20T17:31:11.075Z</time><hdop>4.312</hdop><vdop>3.937</vdop><extensions><gom:speed>0.203</gom:speed></extensions></trkpt>
   <trkpt lat="59.0677538954" lon="30.0241667241"><ele>110.419</ele><time>2026-04-20T17:31:12.075Z</time><hdop>4.312</hdop><vdop>3.875</vdop><extensions><gom:speed>0.265</gom:speed></extensions></trkpt>
   <trkpt lat="59.067757793" lon="30.024163539"><ele>110.477</ele><time>2026-04-20T17:31:13.075Z</time><hdop>4.25</hdop><vdop>3.812</vdop><extensions><gom:speed>0.282</gom:speed></extensions></trkpt>
   <trkpt lat="59.0677611876" lon="30.0241650478"><ele>110.436</ele><time>2026-04-20T17:31:14.075Z</time><hdop>4.25</hdop><vdop>3.75</vdop><extensions><gom:speed>0.287</gom:speed></extensions></trkpt>
   <trkpt lat="59.0677636603" lon="30.0241678976"><ele>110.382</ele><time>2026-04-20T17:31:15.075Z</time><hdop>4.25</hdop><vdop>3.687</vdop><extensions><gom:speed>0.271</gom:speed></extensions></trkpt>
   <trkpt lat="59.0677654624" lon="30.0241667241"><ele>110.32</ele><time>2026-04-20T17:31:16.075Z</time><hdop>4.312</hdop><vdop>3.75</vdop><extensions><gom:speed>0.249</gom:speed></extensions></trkpt>
   <trkpt lat="59.0677666778" lon="30.0241637905"><ele>110.248</ele><time>2026-04-20T17:31:17.075Z</time><hdop>4.312</hdop><vdop>3.687</vdop><extensions><gom:speed>0.253</gom:speed></extensions></trkpt>
   <trkpt lat="59.0677670969" lon="30.0241628685"><ele>110.204</ele><time>2026-04-20T17:31:17.576Z</time><hdop>4.312</hdop><vdop>3.687</vdop><extensions><gom:speed>0.214</gom:speed></extensions></trkpt>
   <trkpt lat="59.0677673902" lon="30.0241619464"><ele>110.179</ele><time>2026-04-20T17:31:18.075Z</time><hdop>4.25</hdop><vdop>3.625</vdop><extensions><gom:speed>0.223</gom:speed></extensions></trkpt>
   <trkpt lat="59.0677675998" lon="30.024161695"><ele>110.164</ele><time>2026-04-20T17:31:18.589Z</time><hdop>4.25</hdop><vdop>3.625</vdop><extensions><gom:speed>0.213</gom:speed></extensions></trkpt>
   <trkpt lat="59.0677683961" lon="30.0241595995"><ele>110.155</ele><time>2026-04-20T17:31:19.075Z</time><hdop>4.25</hdop><vdop>3.625</vdop><extensions><gom:speed>0.222</gom:speed></extensions></trkpt>
   <trkpt lat="59.0677694857" lon="30.0241573364"><ele>110.15</ele><time>2026-04-20T17:31:19.619Z</time><hdop>4.25</hdop><vdop>3.625</vdop><extensions><gom:speed>0.276</gom:speed></extensions></trkpt>
   <trkpt lat="59.0677701982" lon="30.0241567497"><ele>110.144</ele><time>2026-04-20T17:31:20.075Z</time><hdop>4.25</hdop><vdop>3.625</vdop><extensions><gom:speed>0.267</gom:speed></extensions></trkpt>
   <trkpt lat="59.0677717907" lon="30.0241542351"><ele>110.14</ele><time>2026-04-20T17:31:21.001Z</time><hdop>4.25</hdop><vdop>3.625</vdop><extensions><gom:speed>0.286</gom:speed></extensions></trkpt>
   <trkpt lat="59.0677727966" lon="30.0241540675"><ele>110.14</ele><time>2026-04-20T17:31:22.075Z</time><hdop>4.187</hdop><vdop>3.75</vdop><extensions><gom:speed>0.256</gom:speed></extensions></trkpt>
   <trkpt lat="59.0677750597" lon="30.0241505471"><ele>110.14</ele><time>2026-04-20T17:31:23.053Z</time><hdop>4.187</hdop><vdop>3.75</vdop><extensions><gom:speed>0.318</gom:speed></extensions></trkpt>
   <trkpt lat="59.0677775743" lon="30.0241478649"><ele>110.142</ele><time>2026-04-20T17:31:23.982Z</time><hdop>4.187</hdop><vdop>3.875</vdop><extensions><gom:speed>0.372</gom:speed></extensions></trkpt>
   <trkpt lat="59.0677817652" lon="30.0241443445"><ele>110.152</ele><time>2026-04-20T17:31:24.784Z</time><hdop>4.25</hdop><vdop>3.937</vdop><extensions><gom:speed>0.479</gom:speed></extensions></trkpt>
   <trkpt lat="59.0677881774" lon="30.0241390639"><ele>110.045</ele><time>2026-04-20T17:31:25.679Z</time><hdop>4.312</hdop><vdop>3.5</vdop><extensions><gom:speed>0.633</gom:speed></extensions></trkpt>
   <trkpt lat="59.0677963916" lon="30.0241308496"><ele>109.921</ele><time>2026-04-20T17:31:26.637Z</time><hdop>4.375</hdop><vdop>3.562</vdop><extensions><gom:speed>0.679</gom:speed></extensions></trkpt>
   <trkpt lat="59.0678061985" lon="30.0241193664"><ele>110.564</ele><time>2026-04-20T17:31:27.738Z</time><hdop>4.5</hdop><vdop>3.562</vdop><extensions><gom:speed>0.726</gom:speed></extensions></trkpt>
   <trkpt lat="59.0678136584" lon="30.0241063744"><ele>110.842</ele><time>2026-04-20T17:31:28.543Z</time><hdop>4.625</hdop><vdop>3.375</vdop><extensions><gom:speed>0.748</gom:speed></extensions></trkpt>
   <trkpt lat="59.067818897" lon="30.0240958971"><ele>110.85</ele><time>2026-04-20T17:31:29.075Z</time><hdop>4.687</hdop><vdop>3.125</vdop><extensions><gom:speed>0.776</gom:speed></extensions></trkpt>
   <trkpt lat="59.067828662" lon="30.0240779598"><ele>111.377</ele><time>2026-04-20T17:31:30.076Z</time><hdop>4.687</hdop><vdop>3.062</vdop><extensions><gom:speed>0.806</gom:speed></extensions></trkpt>
   <trkpt lat="59.067833272" lon="30.0240701646"><ele>111.692</ele><time>2026-04-20T17:31:30.908Z</time><hdop>4.75</hdop><vdop>3.062</vdop><extensions><gom:speed>0.797</gom:speed></extensions></trkpt>
   <trkpt lat="59.0678446714" lon="30.0240549934"><ele>111.961</ele><time>2026-04-20T17:31:31.535Z</time><hdop>4.75</hdop><vdop>4.375</vdop><extensions><gom:speed>0.777</gom:speed></extensions></trkpt>
   <trkpt lat="59.067850874" lon="30.0240480364"><ele>111.797</ele><time>2026-04-20T17:31:32.075Z</time><hdop>4.75</hdop><vdop>4.437</vdop><extensions><gom:speed>0.764</gom:speed></extensions></trkpt>
   <trkpt lat="59.0678547716" lon="30.0240449351"><ele>111.699</ele><time>2026-04-20T17:31:32.560Z</time><hdop>4.75</hdop><vdop>4.437</vdop><extensions><gom:speed>0.715</gom:speed></extensions></trkpt>
   <trkpt lat="59.0678607646" lon="30.0240421691"><ele>111.653</ele><time>2026-04-20T17:31:33.075Z</time><hdop>4.75</hdop><vdop>4.562</vdop><extensions><gom:speed>0.69</gom:speed></extensions></trkpt>
   <trkpt lat="59.0678651651" lon="30.0240430911"><ele>111.625</ele><time>2026-04-20T17:31:33.834Z</time><hdop>4.75</hdop><vdop>4.562</vdop><extensions><gom:speed>0.591</gom:speed></extensions></trkpt>
   <trkpt lat="59.0678755587" lon="30.0240376428"><ele>111.902</ele><time>2026-04-20T17:31:35.075Z</time><hdop>4.562</hdop><vdop>4.812</vdop><extensions><gom:speed>0.486</gom:speed></extensions></trkpt>
   <trkpt lat="59.0678816775" lon="30.0240356312"><ele>112.01</ele><time>2026-04-20T17:31:36.076Z</time><hdop>4.437</hdop><vdop>4.937</vdop><extensions><gom:speed>0.367</gom:speed></extensions></trkpt>
   <trkpt lat="59.0678863714" lon="30.0240340386"><ele>112.194</ele><time>2026-04-20T17:31:37.075Z</time><hdop>4.375</hdop><vdop>4.937</vdop><extensions><gom:speed>0.283</gom:speed></extensions></trkpt>
   <trkpt lat="59.0678915681" lon="30.0240322784"><ele>112.36</ele><time>2026-04-20T17:31:38.075Z</time><hdop>4.187</hdop><vdop>5.0</vdop><extensions><gom:speed>0.189</gom:speed></extensions></trkpt>
   <trkpt lat="59.0678921968" lon="30.0240293447"><ele>112.53</ele><time>2026-04-20T17:31:38.963Z</time><hdop>4.125</hdop><vdop>5.062</vdop><extensions><gom:speed>0.116</gom:speed></extensions></trkpt>
   <trkpt lat="59.0678957591" lon="30.024025992"><ele>112.595</ele><time>2026-04-20T17:31:40.075Z</time><hdop>4.187</hdop><vdop>4.937</vdop><extensions><gom:speed>0.086</gom:speed></extensions></trkpt>
   <trkpt lat="59.0678993633" lon="30.0240234774"><ele>112.61</ele><time>2026-04-20T17:31:41.075Z</time><hdop>4.187</hdop><vdop>4.75</vdop><extensions><gom:speed>0.106</gom:speed></extensions></trkpt>
   <trkpt lat="59.0679027999" lon="30.0240217172"><ele>112.634</ele><time>2026-04-20T17:31:42.075Z</time><hdop>4.187</hdop><vdop>4.812</vdop><extensions><gom:speed>0.078</gom:speed></extensions></trkpt>
   <trkpt lat="59.067905985" lon="30.024019957"><ele>112.612</ele><time>2026-04-20T17:31:43.075Z</time><hdop>4.25</hdop><vdop>4.625</vdop><extensions><gom:speed>0.084</gom:speed></extensions></trkpt>
   <trkpt lat="59.0679091701" lon="30.0240174424"><ele>112.642</ele><time>2026-04-20T17:31:44.075Z</time><hdop>4.25</hdop><vdop>4.5</vdop><extensions><gom:speed>0.123</gom:speed></extensions></trkpt>
   <trkpt lat="59.0679120619" lon="30.0240157661"><ele>112.7</ele><time>2026-04-20T17:31:45.075Z</time><hdop>4.187</hdop><vdop>4.375</vdop><extensions><gom:speed>0.102</gom:speed></extensions></trkpt>
   <trkpt lat="59.0679143669" lon="30.0240135868"><ele>112.726</ele><time>2026-04-20T17:31:46.075Z</time><hdop>4.187</hdop><vdop>4.312</vdop><extensions><gom:speed>0.118</gom:speed></extensions></trkpt>
   <trkpt lat="59.0679171749" lon="30.0240113236"><ele>112.744</ele><time>2026-04-20T17:31:47.075Z</time><hdop>4.187</hdop><vdop>4.25</vdop><extensions><gom:speed>0.14</gom:speed></extensions></trkpt>
   <trkpt lat="59.0679186836" lon="30.0240100664"><ele>112.755</ele><time>2026-04-20T17:31:47.840Z</time><hdop>4.187</hdop><vdop>4.25</vdop><extensions><gom:speed>0.169</gom:speed></extensions></trkpt>
   <trkpt lat="59.0679214915" lon="30.0240063783"><ele>112.753</ele><time>2026-04-20T17:31:48.935Z</time><hdop>4.187</hdop><vdop>4.125</vdop><extensions><gom:speed>0.194</gom:speed></extensions></trkpt>
   <trkpt lat="59.0679231679" lon="30.0240047858"><ele>112.757</ele><time>2026-04-20T17:31:49.505Z</time><hdop>4.187</hdop><vdop>4.062</vdop><extensions><gom:speed>0.215</gom:speed></extensions></trkpt>
   <trkpt lat="59.0679267721" lon="30.024001433"><ele>112.76</ele><time>2026-04-20T17:31:50.076Z</time><hdop>4.187</hdop><vdop>4.125</vdop><extensions><gom:speed>0.261</gom:speed></extensions></trkpt>
   <trkpt lat="59.0679285742" lon="30.0240000919"><ele>112.762</ele><time>2026-04-20T17:31:50.742Z</time><hdop>4.25</hdop><vdop>4.125</vdop><extensions><gom:speed>0.294</gom:speed></extensions></trkpt>
   <trkpt lat="59.0679328909" lon="30.0239982479"><ele>112.768</ele><time>2026-04-20T17:31:51.699Z</time><hdop>4.25</hdop><vdop>4.062</vdop><extensions><gom:speed>0.392</gom:speed></extensions></trkpt>
   <trkpt lat="59.0679371657" lon="30.0239948951"><ele>112.754</ele><time>2026-04-20T17:31:52.558Z</time><hdop>4.312</hdop><vdop>4.062</vdop><extensions><gom:speed>0.494</gom:speed></extensions></trkpt>
   <trkpt lat="59.0679391774" lon="30.0239928835"><ele>112.746</ele><time>2026-04-20T17:31:53.076Z</time><hdop>4.312</hdop><vdop>4.125</vdop><extensions><gom:speed>0.476</gom:speed></extensions></trkpt>
   <trkpt lat="59.0679438712" lon="30.0239900336"><ele>112.746</ele><time>2026-04-20T17:31:54.075Z</time><hdop>4.375</hdop><vdop>4.0</vdop><extensions><gom:speed>0.566</gom:speed></extensions></trkpt>
   <trkpt lat="59.067947685" lon="30.0239872676"><ele>112.746</ele><time>2026-04-20T17:31:55.075Z</time><hdop>4.437</hdop><vdop>4.312</vdop><extensions><gom:speed>0.58</gom:speed></extensions></trkpt>
   <trkpt lat="59.0679494871" lon="30.0239852559"><ele>112.745</ele><time>2026-04-20T17:31:55.664Z</time><hdop>4.5</hdop><vdop>4.312</vdop><extensions><gom:speed>0.598</gom:speed></extensions></trkpt>
   <trkpt lat="59.067951373" lon="30.0239822384"><ele>112.748</ele><time>2026-04-20T17:31:56.124Z</time><hdop>4.5</hdop><vdop>4.25</vdop><extensions><gom:speed>0.583</gom:speed></extensions></trkpt>
   <trkpt lat="59.0679551868" lon="30.0239770417"><ele>112.75</ele><time>2026-04-20T17:31:57.020Z</time><hdop>4.562</hdop><vdop>4.25</vdop><extensions><gom:speed>0.62</gom:speed></extensions></trkpt>
   <trkpt lat="59.0679580785" lon="30.0239733536"><ele>112.732</ele><time>2026-04-20T17:31:57.937Z</time><hdop>4.562</hdop><vdop>4.125</vdop><extensions><gom:speed>0.678</gom:speed></extensions></trkpt>
   <trkpt lat="59.0679598807" lon="30.0239693303"><ele>112.716</ele><time>2026-04-20T17:31:58.740Z</time><hdop>4.562</hdop><vdop>3.875</vdop><extensions><gom:speed>0.687</gom:speed></extensions></trkpt>
   <trkpt lat="59.067962479" lon="30.0239647203"><ele>112.708</ele><time>2026-04-20T17:31:59.754Z</time><hdop>4.5</hdop><vdop>4.0</vdop><extensions><gom:speed>0.66</gom:speed></extensions></trkpt>
   <trkpt lat="59.0679656642" lon="30.0239631277"><ele>112.699</ele><time>2026-04-20T17:32:00.800Z</time><hdop>4.437</hdop><vdop>4.5</vdop><extensions><gom:speed>0.618</gom:speed></extensions></trkpt>
   <trkpt lat="59.0679676758" lon="30.0239617866"><ele>112.695</ele><time>2026-04-20T17:32:01.640Z</time><hdop>4.375</hdop><vdop>4.5</vdop><extensions><gom:speed>0.646</gom:speed></extensions></trkpt>
   <trkpt lat="59.0679699808" lon="30.0239575957"><ele>112.691</ele><time>2026-04-20T17:32:02.577Z</time><hdop>4.312</hdop><vdop>4.562</vdop><extensions><gom:speed>0.649</gom:speed></extensions></trkpt>
   <trkpt lat="59.0679699808" lon="30.0239561707"><ele>112.767</ele><time>2026-04-20T17:32:03.075Z</time><hdop>4.312</hdop><vdop>4.5</vdop><extensions><gom:speed>0.619</gom:speed></extensions></trkpt>
   <trkpt lat="59.0679723697" lon="30.0239522312"><ele>112.808</ele><time>2026-04-20T17:32:04.075Z</time><hdop>4.312</hdop><vdop>4.062</vdop><extensions><gom:speed>0.641</gom:speed></extensions></trkpt>
   <trkpt lat="59.0679756805" lon="30.0239487947"><ele>112.619</ele><time>2026-04-20T17:32:05.075Z</time><hdop>4.312</hdop><vdop>3.812</vdop><extensions><gom:speed>0.633</gom:speed></extensions></trkpt>
   <trkpt lat="59.0679802906" lon="30.0239420891"><ele>112.504</ele><time>2026-04-20T17:32:06.075Z</time><hdop>4.375</hdop><vdop>3.625</vdop><extensions><gom:speed>0.647</gom:speed></extensions></trkpt>
   <trkpt lat="59.0679852778" lon="30.0239332881"><ele>112.435</ele><time>2026-04-20T17:32:07.058Z</time><hdop>4.5</hdop><vdop>3.625</vdop><extensions><gom:speed>0.678</gom:speed></extensions></trkpt>
   <trkpt lat="59.0679924863" lon="30.0239233975"><ele>111.722</ele><time>2026-04-20T17:32:08.075Z</time><hdop>4.562</hdop><vdop>3.375</vdop><extensions><gom:speed>0.65</gom:speed></extensions></trkpt>
   <trkpt lat="59.0680002814" lon="30.0239116628"><ele>111.165</ele><time>2026-04-20T17:32:09.075Z</time><hdop>4.562</hdop><vdop>4.562</vdop><extensions><gom:speed>0.649</gom:speed></extensions></trkpt>
   <trkpt lat="59.0680091662" lon="30.0238993414"><ele>110.704</ele><time>2026-04-20T17:32:10.076Z</time><hdop>4.625</hdop><vdop>4.437</vdop><extensions><gom:speed>0.626</gom:speed></extensions></trkpt>
   <trkpt lat="59.0680191826" lon="30.0238855951"><ele>110.223</ele><time>2026-04-20T17:32:11.075Z</time><hdop>4.687</hdop><vdop>4.062</vdop><extensions><gom:speed>0.627</gom:speed></extensions></trkpt>
   <trkpt lat="59.0680227868" lon="30.023879141"><ele>109.935</ele><time>2026-04-20T17:32:11.639Z</time><hdop>4.687</hdop><vdop>4.062</vdop><extensions><gom:speed>0.595</gom:speed></extensions></trkpt>
   <trkpt lat="59.0680324679" lon="30.0238665682"><ele>110.032</ele><time>2026-04-20T17:32:12.675Z</time><hdop>4.625</hdop><vdop>4.812</vdop><extensions><gom:speed>0.543</gom:speed></extensions></trkpt>
   <trkpt lat="59.0680404727" lon="30.0238534924"><ele>110.249</ele><time>2026-04-20T17:32:13.705Z</time><hdop>4.562</hdop><vdop>4.875</vdop><extensions><gom:speed>0.497</gom:speed></extensions></trkpt>
   <trkpt lat="59.0680455856" lon="30.0238449429"><ele>110.393</ele><time>2026-04-20T17:32:14.262Z</time><hdop>4.437</hdop><vdop>4.687</vdop><extensions><gom:speed>0.488</gom:speed></extensions></trkpt>
   <trkpt lat="59.0680531712" lon="30.0238321186"><ele>110.798</ele><time>2026-04-20T17:32:15.075Z</time><hdop>4.375</hdop><vdop>4.5</vdop><extensions><gom:speed>0.41</gom:speed></extensions></trkpt>
   <trkpt lat="59.0680586614" lon="30.0238262512"><ele>110.951</ele><time>2026-04-20T17:32:16.075Z</time><hdop>4.25</hdop><vdop>4.25</vdop><extensions><gom:speed>0.359</gom:speed></extensions></trkpt>
   <trkpt lat="59.0680637743" lon="30.0238258321"><ele>110.939</ele><time>2026-04-20T17:32:17.075Z</time><hdop>4.125</hdop><vdop>4.437</vdop><extensions><gom:speed>0.314</gom:speed></extensions></trkpt>
   <trkpt lat="59.0680682587" lon="30.0238237367"><ele>110.865</ele><time>2026-04-20T17:32:18.075Z</time><hdop>4.0</hdop><vdop>4.437</vdop><extensions><gom:speed>0.267</gom:speed></extensions></trkpt>
   <trkpt lat="59.0680717791" lon="30.023817534"><ele>110.691</ele><time>2026-04-20T17:32:19.075Z</time><hdop>3.937</hdop><vdop>4.312</vdop><extensions><gom:speed>0.213</gom:speed></extensions></trkpt>
   <trkpt lat="59.0680737907" lon="30.0238113314"><ele>110.594</ele><time>2026-04-20T17:32:20.075Z</time><hdop>3.875</hdop><vdop>4.312</vdop><extensions><gom:speed>0.184</gom:speed></extensions></trkpt>
   <trkpt lat="59.0680752995" lon="30.0238060508"><ele>110.588</ele><time>2026-04-20T17:32:21.075Z</time><hdop>3.875</hdop><vdop>4.25</vdop><extensions><gom:speed>0.101</gom:speed></extensions></trkpt>
   <trkpt lat="59.0680773949" lon="30.0238039554"><ele>110.549</ele><time>2026-04-20T17:32:22.076Z</time><hdop>3.812</hdop><vdop>4.25</vdop><extensions><gom:speed>0.085</gom:speed></extensions></trkpt>
   <trkpt lat="59.0680798676" lon="30.0238012732"><ele>110.545</ele><time>2026-04-20T17:32:23.075Z</time><hdop>3.812</hdop><vdop>4.062</vdop><extensions><gom:speed>0.068</gom:speed></extensions></trkpt>
   <trkpt lat="59.0680804962" lon="30.0238012732"><ele>110.518</ele><time>2026-04-20T17:32:23.974Z</time><hdop>3.812</hdop><vdop>4.125</vdop><extensions><gom:speed>0.062</gom:speed></extensions></trkpt>
   <trkpt lat="59.0680802867" lon="30.0238026981"><ele>110.56</ele><time>2026-04-20T17:32:25.040Z</time><hdop>3.812</hdop><vdop>3.937</vdop><extensions><gom:speed>0.069</gom:speed></extensions></trkpt>
   <trkpt lat="59.0680804962" lon="30.0238034525"><ele>110.576</ele><time>2026-04-20T17:32:25.988Z</time><hdop>3.937</hdop><vdop>3.687</vdop><extensions><gom:speed>0.071</gom:speed></extensions></trkpt>
   <trkpt lat="59.0680800771" lon="30.0238033686"><ele>110.586</ele><time>2026-04-20T17:32:26.581Z</time><hdop>4.0</hdop><vdop>3.687</vdop><extensions><gom:speed>0.07</gom:speed></extensions></trkpt>
   <trkpt lat="59.0680802867" lon="30.0238025304"><ele>110.655</ele><time>2026-04-20T17:32:28.001Z</time><hdop>4.25</hdop><vdop>3.625</vdop><extensions><gom:speed>0.065</gom:speed></extensions></trkpt>
   <trkpt lat="59.0680808734" lon="30.0237994291"><ele>110.694</ele><time>2026-04-20T17:32:28.949Z</time><hdop>4.5</hdop><vdop>3.687</vdop><extensions><gom:speed>0.075</gom:speed></extensions></trkpt>
   <trkpt lat="59.0680815859" lon="30.0237959926"><ele>110.712</ele><time>2026-04-20T17:32:30.016Z</time><hdop>4.687</hdop><vdop>3.625</vdop><extensions><gom:speed>0.073</gom:speed></extensions></trkpt>
   <trkpt lat="59.0680822984" lon="30.023793478"><ele>110.724</ele><time>2026-04-20T17:32:30.963Z</time><hdop>4.937</hdop><vdop>3.812</vdop><extensions><gom:speed>0.068</gom:speed></extensions></trkpt>
   <trkpt lat="59.068083388" lon="30.0237923883"><ele>110.731</ele><time>2026-04-20T17:32:32.065Z</time><hdop>5.187</hdop><vdop>3.812</vdop><extensions><gom:speed>0.048</gom:speed></extensions></trkpt>
   <trkpt lat="59.0680836814" lon="30.0237924722"><ele>110.739</ele><time>2026-04-20T17:32:32.858Z</time><hdop>5.25</hdop><vdop>4.062</vdop><extensions><gom:speed>0.048</gom:speed></extensions></trkpt>
   <trkpt lat="59.068087076" lon="30.0237900414"><ele>110.752</ele><time>2026-04-20T17:32:34.085Z</time><hdop>5.5</hdop><vdop>4.25</vdop><extensions><gom:speed>0.112</gom:speed></extensions></trkpt>
   <trkpt lat="59.0680892972" lon="30.0237888679"><ele>110.733</ele><time>2026-04-20T17:32:35.076Z</time><hdop>5.5</hdop><vdop>3.875</vdop><extensions><gom:speed>0.168</gom:speed></extensions></trkpt>
   <trkpt lat="59.0680927757" lon="30.0237876945"><ele>110.703</ele><time>2026-04-20T17:32:36.075Z</time><hdop>5.5</hdop><vdop>3.937</vdop><extensions><gom:speed>0.27</gom:speed></extensions></trkpt>
   <trkpt lat="59.0680960866" lon="30.0237878621"><ele>110.685</ele><time>2026-04-20T17:32:37.077Z</time><hdop>5.5</hdop><vdop>3.937</vdop><extensions><gom:speed>0.322</gom:speed></extensions></trkpt>
   <trkpt lat="59.0681014929" lon="30.023784677"><ele>110.583</ele><time>2026-04-20T17:32:38.075Z</time><hdop>5.5</hdop><vdop>3.812</vdop><extensions><gom:speed>0.381</gom:speed></extensions></trkpt>
   <trkpt lat="59.068107486" lon="30.0237819948"><ele>110.522</ele><time>2026-04-20T17:32:39.080Z</time><hdop>5.562</hdop><vdop>3.812</vdop><extensions><gom:speed>0.444</gom:speed></extensions></trkpt>
   <trkpt lat="59.0681143591" lon="30.0237781391"><ele>110.469</ele><time>2026-04-20T17:32:39.978Z</time><hdop>5.562</hdop><vdop>3.875</vdop><extensions><gom:speed>0.578</gom:speed></extensions></trkpt>
   <trkpt lat="59.0681207713" lon="30.0237724394"><ele>110.405</ele><time>2026-04-20T17:32:40.896Z</time><hdop>5.687</hdop><vdop>4.312</vdop><extensions><gom:speed>0.668</gom:speed></extensions></trkpt>
   <trkpt lat="59.068126471" lon="30.0237648957"><ele>110.356</ele><time>2026-04-20T17:32:41.814Z</time><hdop>5.937</hdop><vdop>4.187</vdop><extensions><gom:speed>0.694</gom:speed></extensions></trkpt>
   <trkpt lat="59.0681318773" lon="30.0237583578"><ele>110.317</ele><time>2026-04-20T17:32:42.782Z</time><hdop>6.125</hdop><vdop>4.25</vdop><extensions><gom:speed>0.659</gom:speed></extensions></trkpt>
   <trkpt lat="59.0681373675" lon="30.0237516523"><ele>110.281</ele><time>2026-04-20T17:32:43.798Z</time><hdop>6.437</hdop><vdop>4.125</vdop><extensions><gom:speed>0.646</gom:speed></extensions></trkpt>
   <trkpt lat="59.0681428995" lon="30.0237461202"><ele>110.222</ele><time>2026-04-20T17:32:44.796Z</time><hdop>6.625</hdop><vdop>4.187</vdop><extensions><gom:speed>0.608</gom:speed></extensions></trkpt>
   <trkpt lat="59.068150569" lon="30.0237430189"><ele>110.085</ele><time>2026-04-20T17:32:46.006Z</time><hdop>6.937</hdop><vdop>4.125</vdop><extensions><gom:speed>0.501</gom:speed></extensions></trkpt>
   <trkpt lat="59.0681503594" lon="30.0237510656"><ele>109.599</ele><time>2026-04-20T17:32:47.076Z</time><hdop>7.0</hdop><vdop>3.687</vdop><extensions><gom:speed>0.379</gom:speed></extensions></trkpt>
   <trkpt lat="59.0681507785" lon="30.0237639737"><ele>109.448</ele><time>2026-04-20T17:32:48.075Z</time><hdop>7.0</hdop><vdop>3.5</vdop><extensions><gom:speed>0.378</gom:speed></extensions></trkpt>
   <trkpt lat="59.0681529997" lon="30.0237723556"><ele>109.358</ele><time>2026-04-20T17:32:48.981Z</time><hdop>6.875</hdop><vdop>3.5</vdop><extensions><gom:speed>0.431</gom:speed></extensions></trkpt>
   <trkpt lat="59.0681576936" lon="30.0237861857"><ele>109.778</ele><time>2026-04-20T17:32:50.037Z</time><hdop>6.625</hdop><vdop>3.625</vdop><extensions><gom:speed>0.417</gom:speed></extensions></trkpt>
   <trkpt lat="59.0681642734" lon="30.0237988424"><ele>110.442</ele><time>2026-04-20T17:32:50.916Z</time><hdop>6.375</hdop><vdop>3.437</vdop><extensions><gom:speed>0.519</gom:speed></extensions></trkpt>
   <trkpt lat="59.0681769719" lon="30.0238158577"><ele>111.34</ele><time>2026-04-20T17:32:51.942Z</time><hdop>6.062</hdop><vdop>3.25</vdop><extensions><gom:speed>0.577</gom:speed></extensions></trkpt>
   <trkpt lat="59.0681869883" lon="30.0238206354"><ele>112.044</ele><time>2026-04-20T17:32:52.899Z</time><hdop>5.75</hdop><vdop>3.125</vdop><extensions><gom:speed>0.612</gom:speed></extensions></trkpt>
   <trkpt lat="59.0681965856" lon="30.0238219765"><ele>112.1</ele><time>2026-04-20T17:32:53.935Z</time><hdop>5.562</hdop><vdop>2.875</vdop><extensions><gom:speed>0.529</gom:speed></extensions></trkpt>
   <trkpt lat="59.0682058895" lon="30.0238255807"><ele>112.631</ele><time>2026-04-20T17:32:55.022Z</time><hdop>5.375</hdop><vdop>2.937</vdop><extensions><gom:speed>0.483</gom:speed></extensions></trkpt>
   <trkpt lat="59.0682156963" lon="30.0238339626"><ele>112.934</ele><time>2026-04-20T17:32:56.078Z</time><hdop>5.062</hdop><vdop>5.187</vdop><extensions><gom:speed>0.432</gom:speed></extensions></trkpt>
   <trkpt lat="59.0682244973" lon="30.0238399975"><ele>113.021</ele><time>2026-04-20T17:32:56.918Z</time><hdop>5.062</hdop><vdop>5.0</vdop><extensions><gom:speed>0.419</gom:speed></extensions></trkpt>
   <trkpt lat="59.0682328792" lon="30.0238450267"><ele>113.09</ele><time>2026-04-20T17:32:57.614Z</time><hdop>5.0</hdop><vdop>4.812</vdop><extensions><gom:speed>0.405</gom:speed></extensions></trkpt>
   <trkpt lat="59.0682433985" lon="30.0238459487"><ele>113.284</ele><time>2026-04-20T17:32:58.075Z</time><hdop>4.875</hdop><vdop>4.875</vdop><extensions><gom:speed>0.411</gom:speed></extensions></trkpt>
   <trkpt lat="59.0682473799" lon="30.0238431827"><ele>113.401</ele><time>2026-04-20T17:32:58.841Z</time><hdop>4.875</hdop><vdop>4.875</vdop><extensions><gom:speed>0.434</gom:speed></extensions></trkpt>
   <trkpt lat="59.0682522833" lon="30.0238392432"><ele>113.461</ele><time>2026-04-20T17:32:59.902Z</time><hdop>4.812</hdop><vdop>4.625</vdop><extensions><gom:speed>0.438</gom:speed></extensions></trkpt>
   <trkpt lat="59.0682610843" lon="30.0238431827"><ele>113.581</ele><time>2026-04-20T17:33:01.013Z</time><hdop>4.812</hdop><vdop>4.625</vdop><extensions><gom:speed>0.437</gom:speed></extensions></trkpt>
   <trkpt lat="59.0682653591" lon="30.0238473736"><ele>113.707</ele><time>2026-04-20T17:33:01.901Z</time><hdop>4.75</hdop><vdop>4.625</vdop><extensions><gom:speed>0.468</gom:speed></extensions></trkpt>
   <trkpt lat="59.0682745792" lon="30.0238533248"><ele>113.776</ele><time>2026-04-20T17:33:02.820Z</time><hdop>4.75</hdop><vdop>4.625</vdop><extensions><gom:speed>0.565</gom:speed></extensions></trkpt>
   <trkpt lat="59.068282081" lon="30.0238551688"><ele>113.812</ele><time>2026-04-20T17:33:03.678Z</time><hdop>4.812</hdop><vdop>4.625</vdop><extensions><gom:speed>0.673</gom:speed></extensions></trkpt>
   <trkpt lat="59.0682937738" lon="30.0238604494"><ele>113.701</ele><time>2026-04-20T17:33:04.597Z</time><hdop>4.875</hdop><vdop>4.437</vdop><extensions><gom:speed>0.696</gom:speed></extensions></trkpt>
   <trkpt lat="59.0683011918" lon="30.0238609523"><ele>113.72</ele><time>2026-04-20T17:33:05.662Z</time><hdop>4.875</hdop><vdop>4.562</vdop><extensions><gom:speed>0.707</gom:speed></extensions></trkpt>
   <trkpt lat="59.0683108729" lon="30.0238674902"><ele>113.773</ele><time>2026-04-20T17:33:06.856Z</time><hdop>4.875</hdop><vdop>4.562</vdop><extensions><gom:speed>0.677</gom:speed></extensions></trkpt>
   <trkpt lat="59.0683175784" lon="30.0238728546"><ele>113.795</ele><time>2026-04-20T17:33:07.794Z</time><hdop>4.937</hdop><vdop>4.562</vdop><extensions><gom:speed>0.71</gom:speed></extensions></trkpt>
   <trkpt lat="59.0683242839" lon="30.0238787219"><ele>113.784</ele><time>2026-04-20T17:33:08.673Z</time><hdop>5.0</hdop><vdop>4.687</vdop><extensions><gom:speed>0.757</gom:speed></extensions></trkpt>
   <trkpt lat="59.0683299836" lon="30.0238849245"><ele>113.839</ele><time>2026-04-20T17:33:09.759Z</time><hdop>5.062</hdop><vdop>4.687</vdop><extensions><gom:speed>0.675</gom:speed></extensions></trkpt>
   <trkpt lat="59.0683387846" lon="30.023884254"><ele>113.856</ele><time>2026-04-20T17:33:10.999Z</time><hdop>5.125</hdop><vdop>4.937</vdop><extensions><gom:speed>0.639</gom:speed></extensions></trkpt>
   <trkpt lat="59.0683435623" lon="30.0238844216"><ele>113.866</ele><time>2026-04-20T17:33:11.985Z</time><hdop>5.25</hdop><vdop>4.937</vdop><extensions><gom:speed>0.626</gom:speed></extensions></trkpt>
   <trkpt lat="59.0683484657" lon="30.0238859304"><ele>113.877</ele><time>2026-04-20T17:33:12.956Z</time><hdop>5.375</hdop><vdop>4.75</vdop><extensions><gom:speed>0.556</gom:speed></extensions></trkpt>
   <trkpt lat="59.068352489" lon="30.023885176"><ele>113.916</ele><time>2026-04-20T17:33:13.960Z</time><hdop>5.562</hdop><vdop>4.687</vdop><extensions><gom:speed>0.446</gom:speed></extensions></trkpt>
   <trkpt lat="59.068354794" lon="30.0238797278"><ele>113.939</ele><time>2026-04-20T17:33:15.026Z</time><hdop>5.875</hdop><vdop>4.812</vdop><extensions><gom:speed>0.303</gom:speed></extensions></trkpt>
   <trkpt lat="59.0683557999" lon="30.0238778838"><ele>113.956</ele><time>2026-04-20T17:33:15.974Z</time><hdop>5.937</hdop><vdop>4.812</vdop><extensions><gom:speed>0.216</gom:speed></extensions></trkpt>
   <trkpt lat="59.0683553808" lon="30.0238773808"><ele>113.966</ele><time>2026-04-20T17:33:17.040Z</time><hdop>6.187</hdop><vdop>4.812</vdop><extensions><gom:speed>0.144</gom:speed></extensions></trkpt>
   <trkpt lat="59.068354794" lon="30.0238768779"><ele>113.976</ele><time>2026-04-20T17:33:17.988Z</time><hdop>6.25</hdop><vdop>4.937</vdop><extensions><gom:speed>0.13</gom:speed></extensions></trkpt>
   <trkpt lat="59.0683551712" lon="30.0238762912"><ele>113.981</ele><time>2026-04-20T17:33:18.935Z</time><hdop>6.375</hdop><vdop>5.125</vdop><extensions><gom:speed>0.134</gom:speed></extensions></trkpt>
   <trkpt lat="59.0683549617" lon="30.0238758721"><ele>113.984</ele><time>2026-04-20T17:33:19.540Z</time><hdop>6.437</hdop><vdop>5.125</vdop><extensions><gom:speed>0.125</gom:speed></extensions></trkpt>
   <trkpt lat="59.0683551712" lon="30.0238758721"><ele>113.988</ele><time>2026-04-20T17:33:20.001Z</time><hdop>6.5</hdop><vdop>5.25</vdop><extensions><gom:speed>0.167</gom:speed></extensions></trkpt>
   <trkpt lat="59.0683562609" lon="30.0238761236"><ele>113.99</ele><time>2026-04-20T17:33:20.557Z</time><hdop>6.562</hdop><vdop>5.25</vdop><extensions><gom:speed>0.262</gom:speed></extensions></trkpt>
   <trkpt lat="59.0683597813" lon="30.0238773808"><ele>113.992</ele><time>2026-04-20T17:33:21.496Z</time><hdop>6.687</hdop><vdop>5.312</vdop><extensions><gom:speed>0.437</gom:speed></extensions></trkpt>
   <trkpt lat="59.068362673" lon="30.0238785543"><ele>113.924</ele><time>2026-04-20T17:33:22.016Z</time><hdop>6.812</hdop><vdop>5.125</vdop><extensions><gom:speed>0.456</gom:speed></extensions></trkpt>
   <trkpt lat="59.0683689594" lon="30.023880566"><ele>113.887</ele><time>2026-04-20T17:33:22.964Z</time><hdop>7.062</hdop><vdop>4.937</vdop><extensions><gom:speed>0.544</gom:speed></extensions></trkpt>
   <trkpt lat="59.0683774671" lon="30.0238825776"><ele>113.862</ele><time>2026-04-20T17:33:24.029Z</time><hdop>7.437</hdop><vdop>4.875</vdop><extensions><gom:speed>0.597</gom:speed></extensions></trkpt>
   <trkpt lat="59.0683848851" lon="30.0238835834"><ele>113.849</ele><time>2026-04-20T17:33:24.976Z</time><hdop>7.75</hdop><vdop>4.812</vdop><extensions><gom:speed>0.588</gom:speed></extensions></trkpt>
   <trkpt lat="59.0683881959" lon="30.0238834996"><ele>113.841</ele><time>2026-04-20T17:33:25.493Z</time><hdop>7.875</hdop><vdop>4.812</vdop><extensions><gom:speed>0.613</gom:speed></extensions></trkpt>
   <trkpt lat="59.0683921773" lon="30.0238832482"><ele>113.834</ele><time>2026-04-20T17:33:26.043Z</time><hdop>8.062</hdop><vdop>4.812</vdop><extensions><gom:speed>0.616</gom:speed></extensions></trkpt>
   <trkpt lat="59.0683975836" lon="30.0238804821"><ele>113.833</ele><time>2026-04-20T17:33:26.990Z</time><hdop>8.312</hdop><vdop>4.687</vdop><extensions><gom:speed>0.543</gom:speed></extensions></trkpt>
   <trkpt lat="59.0684005592" lon="30.0238749501"><ele>113.832</ele><time>2026-04-20T17:33:27.938Z</time><hdop>8.5</hdop><vdop>4.625</vdop><extensions><gom:speed>0.414</gom:speed></extensions></trkpt>
   <trkpt lat="59.0684002658" lon="30.0238740281"><ele>113.832</ele><time>2026-04-20T17:33:28.530Z</time><hdop>8.562</hdop><vdop>4.625</vdop><extensions><gom:speed>0.37</gom:speed></extensions></trkpt>
   <trkpt lat="59.0683915906" lon="30.0238807336"><ele>113.357</ele><time>2026-04-20T17:33:29.075Z</time><hdop>8.5</hdop><vdop>4.062</vdop><extensions><gom:speed>0.318</gom:speed></extensions></trkpt>
   <trkpt lat="59.0683829991" lon="30.0238897861"><ele>113.433</ele><time>2026-04-20T17:33:30.075Z</time><hdop>8.312</hdop><vdop>3.5</vdop><extensions><gom:speed>0.213</gom:speed></extensions></trkpt>
   <trkpt lat="59.0683799816" lon="30.0238982518"><ele>113.827</ele><time>2026-04-20T17:33:31.075Z</time><hdop>7.687</hdop><vdop>3.187</vdop><extensions><gom:speed>0.161</gom:speed></extensions></trkpt>
   <trkpt lat="59.0683799816" lon="30.0239004311"><ele>114.062</ele><time>2026-04-20T17:33:31.859Z</time><hdop>7.375</hdop><vdop>3.187</vdop><extensions><gom:speed>0.143</gom:speed></extensions></trkpt>
   <trkpt lat="59.0683874834" lon="30.0239164405"><ele>113.853</ele><time>2026-04-20T17:33:33.076Z</time><hdop>6.5</hdop><vdop>2.562</vdop><extensions><gom:speed>0.165</gom:speed></extensions></trkpt>
   <trkpt lat="59.068390459" lon="30.023919458"><ele>113.728</ele><time>2026-04-20T17:33:34.061Z</time><hdop>5.625</hdop><vdop>2.562</vdop><extensions><gom:speed>0.17</gom:speed></extensions></trkpt>
   <trkpt lat="59.0683942728" lon="30.0239239842"><ele>112.949</ele><time>2026-04-20T17:33:34.690Z</time><hdop>5.5</hdop><vdop>2.5</vdop><extensions><gom:speed>0.203</gom:speed></extensions></trkpt>
   <trkpt lat="59.0684045825" lon="30.0239251577"><ele>112.322</ele><time>2026-04-20T17:33:35.739Z</time><hdop>5.125</hdop><vdop>2.5</vdop><extensions><gom:speed>0.378</gom:speed></extensions></trkpt>
   <trkpt lat="59.0684139703" lon="30.0239242357"><ele>111.428</ele><time>2026-04-20T17:33:36.637Z</time><hdop>5.0</hdop><vdop>2.5</vdop><extensions><gom:speed>0.493</gom:speed></extensions></trkpt>
   <trkpt lat="59.0684239866" lon="30.0239232298"><ele>110.71</ele><time>2026-04-20T17:33:37.535Z</time><hdop>4.875</hdop><vdop>2.5</vdop><extensions><gom:speed>0.545</gom:speed></extensions></trkpt>
   <trkpt lat="59.0684301892" lon="30.0239243195"><ele>109.74</ele><time>2026-04-20T17:33:38.075Z</time><hdop>4.812</hdop><vdop>2.5</vdop><extensions><gom:speed>0.549</gom:speed></extensions></trkpt>
   <trkpt lat="59.0684401637" lon="30.0239321985"><ele>109.35</ele><time>2026-04-20T17:33:39.076Z</time><hdop>4.625</hdop><vdop>5.0</vdop><extensions><gom:speed>0.574</gom:speed></extensions></trkpt>
   <trkpt lat="59.0684473721" lon="30.0239376467"><ele>109.117</ele><time>2026-04-20T17:33:40.057Z</time><hdop>4.5</hdop><vdop>5.0</vdop><extensions><gom:speed>0.598</gom:speed></extensions></trkpt>
   <trkpt lat="59.0684517726" lon="30.0239391555"><ele>109.055</ele><time>2026-04-20T17:33:40.849Z</time><hdop>4.5</hdop><vdop>4.75</vdop><extensions><gom:speed>0.615</gom:speed></extensions></trkpt>
   <trkpt lat="59.0684677821" lon="30.0239433464"><ele>109.153</ele><time>2026-04-20T17:33:41.721Z</time><hdop>4.312</hdop><vdop>4.75</vdop><extensions><gom:speed>0.769</gom:speed></extensions></trkpt>
   <trkpt lat="59.0684791815" lon="30.0239453581"><ele>109.374</ele><time>2026-04-20T17:33:42.640Z</time><hdop>4.25</hdop><vdop>4.687</vdop><extensions><gom:speed>0.798</gom:speed></extensions></trkpt>
   <trkpt lat="59.0684878986" lon="30.0239471183"><ele>109.503</ele><time>2026-04-20T17:33:43.416Z</time><hdop>4.25</hdop><vdop>4.562</vdop><extensions><gom:speed>0.798</gom:speed></extensions></trkpt>
   <trkpt lat="59.0684947718" lon="30.0239490461"><ele>109.581</ele><time>2026-04-20T17:33:44.076Z</time><hdop>4.25</hdop><vdop>4.5</vdop><extensions><gom:speed>0.771</gom:speed></extensions></trkpt>
   <trkpt lat="59.0685036985" lon="30.0239531532"><ele>109.661</ele><time>2026-04-20T17:33:44.995Z</time><hdop>4.187</hdop><vdop>4.5</vdop><extensions><gom:speed>0.801</gom:speed></extensions></trkpt>
   <trkpt lat="59.0685116613" lon="30.0239578471"><ele>109.776</ele><time>2026-04-20T17:33:46.075Z</time><hdop>4.25</hdop><vdop>4.562</vdop><extensions><gom:speed>0.706</gom:speed></extensions></trkpt>
   <trkpt lat="59.0685179897" lon="30.0239553325"><ele>109.839</ele><time>2026-04-20T17:33:47.009Z</time><hdop>4.312</hdop><vdop>4.375</vdop><extensions><gom:speed>0.644</gom:speed></extensions></trkpt>
   <trkpt lat="59.0685241923" lon="30.0239477888"><ele>109.877</ele><time>2026-04-20T17:33:48.078Z</time><hdop>4.437</hdop><vdop>4.375</vdop><extensions><gom:speed>0.636</gom:speed></extensions></trkpt>
   <trkpt lat="59.0685292633" lon="30.0239415862"><ele>109.897</ele><time>2026-04-20T17:33:48.977Z</time><hdop>4.5</hdop><vdop>4.187</vdop><extensions><gom:speed>0.682</gom:speed></extensions></trkpt>
   <trkpt lat="59.0685328676" lon="30.0239373953"><ele>109.899</ele><time>2026-04-20T17:33:49.796Z</time><hdop>4.562</hdop><vdop>4.062</vdop><extensions><gom:speed>0.689</gom:speed></extensions></trkpt>
   <trkpt lat="59.0685356755" lon="30.0239349645"><ele>109.915</ele><time>2026-04-20T17:33:50.556Z</time><hdop>4.562</hdop><vdop>4.0</vdop><extensions><gom:speed>0.655</gom:speed></extensions></trkpt>
   <trkpt lat="59.0685383996" lon="30.0239322823"><ele>109.952</ele><time>2026-04-20T17:33:51.036Z</time><hdop>4.625</hdop><vdop>4.062</vdop><extensions><gom:speed>0.651</gom:speed></extensions></trkpt>
   <trkpt lat="59.0685407885" lon="30.0239295163"><ele>109.975</ele><time>2026-04-20T17:33:51.533Z</time><hdop>4.687</hdop><vdop>4.062</vdop><extensions><gom:speed>0.638</gom:speed></extensions></trkpt>
   <trkpt lat="59.0685436802" lon="30.0239275884"><ele>109.983</ele><time>2026-04-20T17:33:51.984Z</time><hdop>4.687</hdop><vdop>4.125</vdop><extensions><gom:speed>0.648</gom:speed></extensions></trkpt>
   <trkpt lat="59.0685469911" lon="30.0239256606"><ele>109.989</ele><time>2026-04-20T17:33:52.579Z</time><hdop>4.812</hdop><vdop>4.125</vdop><extensions><gom:speed>0.64</gom:speed></extensions></trkpt>
   <trkpt lat="59.068549799" lon="30.0239237328"><ele>109.995</ele><time>2026-04-20T17:33:53.051Z</time><hdop>4.875</hdop><vdop>4.062</vdop><extensions><gom:speed>0.646</gom:speed></extensions></trkpt>
   <trkpt lat="59.0685543671" lon="30.0239170272"><ele>109.998</ele><time>2026-04-20T17:33:53.814Z</time><hdop>5.0</hdop><vdop>4.062</vdop><extensions><gom:speed>0.575</gom:speed></extensions></trkpt>
   <trkpt lat="59.0685565883" lon="30.0239121657"><ele>110.01</ele><time>2026-04-20T17:33:54.800Z</time><hdop>5.25</hdop><vdop>4.125</vdop><extensions><gom:speed>0.531</gom:speed></extensions></trkpt>
   <trkpt lat="59.0685551634" lon="30.0239171949"><ele>109.991</ele><time>2026-04-20T17:33:55.777Z</time><hdop>5.375</hdop><vdop>4.125</vdop><extensions><gom:speed>0.446</gom:speed></extensions></trkpt>
   <trkpt lat="59.0685537804" lon="30.0239251577"><ele>109.957</ele><time>2026-04-20T17:33:56.557Z</time><hdop>5.375</hdop><vdop>4.187</vdop><extensions><gom:speed>0.478</gom:speed></extensions></trkpt>
   <trkpt lat="59.0685528584" lon="30.0239297677"><ele>109.933</ele><time>2026-04-20T17:33:57.075Z</time><hdop>5.312</hdop><vdop>4.25</vdop><extensions><gom:speed>0.449</gom:speed></extensions></trkpt>
   <trkpt lat="59.0685543671" lon="30.023937982"><ele>109.913</ele><time>2026-04-20T17:33:58.076Z</time><hdop>5.125</hdop><vdop>4.25</vdop><extensions><gom:speed>0.499</gom:speed></extensions></trkpt>
   <trkpt lat="59.0685544929" lon="30.0239442684"><ele>109.919</ele><time>2026-04-20T17:33:59.075Z</time><hdop>4.937</hdop><vdop>4.25</vdop><extensions><gom:speed>0.415</gom:speed></extensions></trkpt>
   <trkpt lat="59.0685520621" lon="30.0239490461"><ele>109.905</ele><time>2026-04-20T17:34:00.075Z</time><hdop>4.625</hdop><vdop>4.312</vdop><extensions><gom:speed>0.301</gom:speed></extensions></trkpt>
   <trkpt lat="59.068548877" lon="30.0239511416"><ele>109.904</ele><time>2026-04-20T17:34:01.075Z</time><hdop>4.437</hdop><vdop>4.437</vdop><extensions><gom:speed>0.161</gom:speed></extensions></trkpt>
   <trkpt lat="59.0685455661" lon="30.0239520636"><ele>109.889</ele><time>2026-04-20T17:34:02.075Z</time><hdop>4.312</hdop><vdop>4.312</vdop><extensions><gom:speed>0.098</gom:speed></extensions></trkpt>
   <trkpt lat="59.0685434707" lon="30.0239542429"><ele>109.868</ele><time>2026-04-20T17:34:03.075Z</time><hdop>4.187</hdop><vdop>4.312</vdop><extensions><gom:speed>0.069</gom:speed></extensions></trkpt>
   <trkpt lat="59.0685420876" lon="30.0239560869"><ele>109.854</ele><time>2026-04-20T17:34:04.076Z</time><hdop>4.062</hdop><vdop>4.375</vdop><extensions><gom:speed>0.105</gom:speed></extensions></trkpt>
   <trkpt lat="59.0685425906" lon="30.0239564222"><ele>109.845</ele><time>2026-04-20T17:34:05.016Z</time><hdop>4.0</hdop><vdop>4.375</vdop><extensions><gom:speed>0.112</gom:speed></extensions></trkpt>
   <trkpt lat="59.0685419619" lon="30.0239572604"><ele>109.829</ele><time>2026-04-20T17:34:05.607Z</time><hdop>4.0</hdop><vdop>4.5</vdop><extensions><gom:speed>0.11</gom:speed></extensions></trkpt>
   <trkpt lat="59.0685431773" lon="30.0239590206"><ele>109.931</ele><time>2026-04-20T17:34:06.075Z</time><hdop>3.937</hdop><vdop>4.0</vdop><extensions><gom:speed>0.178</gom:speed></extensions></trkpt>
   <trkpt lat="59.0685450632" lon="30.0239602779"><ele>109.992</ele><time>2026-04-20T17:34:07.041Z</time><hdop>3.937</hdop><vdop>4.0</vdop><extensions><gom:speed>0.208</gom:speed></extensions></trkpt>
   <trkpt lat="59.0685503857" lon="30.023961619"><ele>110.265</ele><time>2026-04-20T17:34:08.079Z</time><hdop>3.875</hdop><vdop>3.312</vdop><extensions><gom:speed>0.277</gom:speed></extensions></trkpt>
   <trkpt lat="59.068556295" lon="30.0239623733"><ele>110.547</ele><time>2026-04-20T17:34:08.916Z</time><hdop>3.875</hdop><vdop>3.187</vdop><extensions><gom:speed>0.325</gom:speed></extensions></trkpt>
   <trkpt lat="59.0685688678" lon="30.0239619542"><ele>110.918</ele><time>2026-04-20T17:34:10.075Z</time><hdop>3.875</hdop><vdop>3.187</vdop><extensions><gom:speed>0.371</gom:speed></extensions></trkpt>
   <trkpt lat="59.0685787585" lon="30.0239591882"><ele>111.201</ele><time>2026-04-20T17:34:11.076Z</time><hdop>3.937</hdop><vdop>3.25</vdop><extensions><gom:speed>0.423</gom:speed></extensions></trkpt>
   <trkpt lat="59.068581776" lon="30.0239571766"><ele>111.37</ele><time>2026-04-20T17:34:11.765Z</time><hdop>3.937</hdop><vdop>3.25</vdop><extensions><gom:speed>0.423</gom:speed></extensions></trkpt>
   <trkpt lat="59.0685990846" lon="30.0239432626"><ele>111.634</ele><time>2026-04-20T17:34:13.075Z</time><hdop>4.0</hdop><vdop>5.5</vdop><extensions><gom:speed>0.476</gom:speed></extensions></trkpt>
   <trkpt lat="59.0686088914" lon="30.0239357189"><ele>111.644</ele><time>2026-04-20T17:34:14.076Z</time><hdop>4.0</hdop><vdop>5.187</vdop><extensions><gom:speed>0.503</gom:speed></extensions></trkpt>
   <trkpt lat="59.0686196622" lon="30.0239272532"><ele>111.619</ele><time>2026-04-20T17:34:15.076Z</time><hdop>4.062</hdop><vdop>4.875</vdop><extensions><gom:speed>0.558</gom:speed></extensions></trkpt>
   <trkpt lat="59.0686302653" lon="30.0239197933"><ele>111.733</ele><time>2026-04-20T17:34:16.076Z</time><hdop>4.125</hdop><vdop>4.625</vdop><extensions><gom:speed>0.548</gom:speed></extensions></trkpt>
   <trkpt lat="59.0686371803" lon="30.0239151832"><ele>111.772</ele><time>2026-04-20T17:34:16.978Z</time><hdop>4.187</hdop><vdop>4.562</vdop><extensions><gom:speed>0.539</gom:speed></extensions></trkpt>
   <trkpt lat="59.0686465681" lon="30.0239132554"><ele>111.527</ele><time>2026-04-20T17:34:18.075Z</time><hdop>4.25</hdop><vdop>4.5</vdop><extensions><gom:speed>0.518</gom:speed></extensions></trkpt>
   <trkpt lat="59.0686510943" lon="30.023911579"><ele>111.38</ele><time>2026-04-20T17:34:18.758Z</time><hdop>4.312</hdop><vdop>4.5</vdop><extensions><gom:speed>0.495</gom:speed></extensions></trkpt>
   <trkpt lat="59.0686557882" lon="30.0239071366"><ele>111.161</ele><time>2026-04-20T17:34:19.517Z</time><hdop>4.375</hdop><vdop>4.437</vdop><extensions><gom:speed>0.558</gom:speed></extensions></trkpt>
   <trkpt lat="59.0686615717" lon="30.0239035324"><ele>110.894</ele><time>2026-04-20T17:34:20.075Z</time><hdop>4.375</hdop><vdop>4.312</vdop><extensions><gom:speed>0.553</gom:speed></extensions></trkpt>
   <trkpt lat="59.0686649663" lon="30.0238998443"><ele>110.735</ele><time>2026-04-20T17:34:20.662Z</time><hdop>4.5</hdop><vdop>4.312</vdop><extensions><gom:speed>0.512</gom:speed></extensions></trkpt>
   <trkpt lat="59.0686728872" lon="30.0238942285"><ele>110.636</ele><time>2026-04-20T17:34:21.740Z</time><hdop>4.562</hdop><vdop>4.25</vdop><extensions><gom:speed>0.492</gom:speed></extensions></trkpt>
   <trkpt lat="59.0686807662" lon="30.023888864"><ele>110.531</ele><time>2026-04-20T17:34:22.656Z</time><hdop>4.625</hdop><vdop>4.062</vdop><extensions><gom:speed>0.561</gom:speed></extensions></trkpt>
   <trkpt lat="59.0686878909" lon="30.0238840864"><ele>110.416</ele><time>2026-04-20T17:34:23.496Z</time><hdop>4.625</hdop><vdop>3.875</vdop><extensions><gom:speed>0.58</gom:speed></extensions></trkpt>
   <trkpt lat="59.0686918723" lon="30.0238809851"><ele>110.279</ele><time>2026-04-20T17:34:24.075Z</time><hdop>4.625</hdop><vdop>3.937</vdop><extensions><gom:speed>0.56</gom:speed></extensions></trkpt>
   <trkpt lat="59.0686974881" lon="30.023872687"><ele>110.191</ele><time>2026-04-20T17:34:25.076Z</time><hdop>4.687</hdop><vdop>3.875</vdop><extensions><gom:speed>0.552</gom:speed></extensions></trkpt>
   <trkpt lat="59.0687017629" lon="30.0238678255"><ele>110.139</ele><time>2026-04-20T17:34:26.075Z</time><hdop>4.687</hdop><vdop>3.687</vdop><extensions><gom:speed>0.525</gom:speed></extensions></trkpt>
   <trkpt lat="59.0687061634" lon="30.0238649756"><ele>110.112</ele><time>2026-04-20T17:34:27.075Z</time><hdop>4.687</hdop><vdop>3.875</vdop><extensions><gom:speed>0.527</gom:speed></extensions></trkpt>
   <trkpt lat="59.0687095581" lon="30.0238633831"><ele>110.094</ele><time>2026-04-20T17:34:28.076Z</time><hdop>4.75</hdop><vdop>3.812</vdop><extensions><gom:speed>0.477</gom:speed></extensions></trkpt>
   <trkpt lat="59.0687127851" lon="30.0238634669"><ele>110.081</ele><time>2026-04-20T17:34:29.075Z</time><hdop>4.75</hdop><vdop>3.687</vdop><extensions><gom:speed>0.45</gom:speed></extensions></trkpt>
   <trkpt lat="59.0687163893" lon="30.0238660653"><ele>109.998</ele><time>2026-04-20T17:34:30.075Z</time><hdop>4.812</hdop><vdop>3.5</vdop><extensions><gom:speed>0.46</gom:speed></extensions></trkpt>
   <trkpt lat="59.0687184848" lon="30.02387034"><ele>109.94</ele><time>2026-04-20T17:34:31.075Z</time><hdop>4.812</hdop><vdop>3.625</vdop><extensions><gom:speed>0.393</gom:speed></extensions></trkpt>
   <trkpt lat="59.068719784" lon="30.0238719326"><ele>109.902</ele><time>2026-04-20T17:34:32.076Z</time><hdop>4.812</hdop><vdop>3.562</vdop><extensions><gom:speed>0.411</gom:speed></extensions></trkpt>
   <trkpt lat="59.068723472" lon="30.0238711782"><ele>109.88</ele><time>2026-04-20T17:34:33.061Z</time><hdop>4.875</hdop><vdop>3.562</vdop><extensions><gom:speed>0.47</gom:speed></extensions></trkpt>
   <trkpt lat="59.0687238911" lon="30.0238706753"><ele>109.874</ele><time>2026-04-20T17:34:34.076Z</time><hdop>4.812</hdop><vdop>3.75</vdop><extensions><gom:speed>0.438</gom:speed></extensions></trkpt>
   <trkpt lat="59.0687242683" lon="30.0238707591"><ele>109.79</ele><time>2026-04-20T17:34:35.075Z</time><hdop>4.812</hdop><vdop>3.875</vdop><extensions><gom:speed>0.371</gom:speed></extensions></trkpt>
   <trkpt lat="59.0687237654" lon="30.0238732737"><ele>109.782</ele><time>2026-04-20T17:34:36.075Z</time><hdop>4.812</hdop><vdop>3.937</vdop><extensions><gom:speed>0.312</gom:speed></extensions></trkpt>
   <trkpt lat="59.0687219633" lon="30.0238741957"><ele>109.767</ele><time>2026-04-20T17:34:37.075Z</time><hdop>4.75</hdop><vdop>3.812</vdop><extensions><gom:speed>0.211</gom:speed></extensions></trkpt>
   <trkpt lat="59.0687201612" lon="30.0238743634"><ele>109.765</ele><time>2026-04-20T17:34:38.075Z</time><hdop>4.625</hdop><vdop>3.687</vdop><extensions><gom:speed>0.138</gom:speed></extensions></trkpt>
   <trkpt lat="59.0687184848" lon="30.0238755368"><ele>109.762</ele><time>2026-04-20T17:34:39.075Z</time><hdop>4.562</hdop><vdop>3.812</vdop><extensions><gom:speed>0.099</gom:speed></extensions></trkpt>
   <trkpt lat="59.0687169761" lon="30.0238766265"><ele>109.761</ele><time>2026-04-20T17:34:40.075Z</time><hdop>4.5</hdop><vdop>3.812</vdop><extensions><gom:speed>0.079</gom:speed></extensions></trkpt>
   <trkpt lat="59.0687159702" lon="30.0238775485"><ele>109.763</ele><time>2026-04-20T17:34:41.075Z</time><hdop>4.312</hdop><vdop>3.875</vdop><extensions><gom:speed>0.09</gom:speed></extensions></trkpt>
   <trkpt lat="59.0687157607" lon="30.0238777999"><ele>109.765</ele><time>2026-04-20T17:34:41.914Z</time><hdop>4.25</hdop><vdop>3.875</vdop><extensions><gom:speed>0.078</gom:speed></extensions></trkpt>
   <trkpt lat="59.0687149644" lon="30.0238798954"><ele>109.766</ele><time>2026-04-20T17:34:42.773Z</time><hdop>4.187</hdop><vdop>3.75</vdop><extensions><gom:speed>0.097</gom:speed></extensions></trkpt>
   <trkpt lat="59.0687136652" lon="30.0238815718"><ele>109.767</ele><time>2026-04-20T17:34:43.572Z</time><hdop>4.062</hdop><vdop>3.625</vdop><extensions><gom:speed>0.066</gom:speed></extensions></trkpt>
   <trkpt lat="59.068713288" lon="30.0238820747"><ele>109.77</ele><time>2026-04-20T17:34:44.075Z</time><hdop>4.062</hdop><vdop>3.562</vdop><extensions><gom:speed>0.1</gom:speed></extensions></trkpt>
   <trkpt lat="59.0687131623" lon="30.0238821585"><ele>109.772</ele><time>2026-04-20T17:34:44.541Z</time><hdop>4.0</hdop><vdop>3.562</vdop><extensions><gom:speed>0.101</gom:speed></extensions></trkpt>
   <trkpt lat="59.0687128689" lon="30.0238824938"><ele>109.779</ele><time>2026-04-20T17:34:45.076Z</time><hdop>4.0</hdop><vdop>3.5</vdop><extensions><gom:speed>0.128</gom:speed></extensions></trkpt>
   <trkpt lat="59.0687128689" lon="30.0238813203"><ele>109.783</ele><time>2026-04-20T17:34:46.075Z</time><hdop>3.937</hdop><vdop>3.437</vdop><extensions><gom:speed>0.16</gom:speed></extensions></trkpt>
   <trkpt lat="59.0687137909" lon="30.0238769617"><ele>109.786</ele><time>2026-04-20T17:34:47.038Z</time><hdop>3.937</hdop><vdop>3.437</vdop><extensions><gom:speed>0.261</gom:speed></extensions></trkpt>
   <trkpt lat="59.0687158864" lon="30.023872687"><ele>109.787</ele><time>2026-04-20T17:34:47.877Z</time><hdop>3.937</hdop><vdop>3.5</vdop><extensions><gom:speed>0.371</gom:speed></extensions></trkpt>
   <trkpt lat="59.0687192811" lon="30.0238704239"><ele>109.786</ele><time>2026-04-20T17:34:48.814Z</time><hdop>4.0</hdop><vdop>3.5</vdop><extensions><gom:speed>0.465</gom:speed></extensions></trkpt>
   <trkpt lat="59.0687247712" lon="30.0238658976"><ele>109.27</ele><time>2026-04-20T17:34:49.860Z</time><hdop>4.125</hdop><vdop>3.062</vdop><extensions><gom:speed>0.541</gom:speed></extensions></trkpt>
   <trkpt lat="59.0687291717" lon="30.0238642212"><ele>108.616</ele><time>2026-04-20T17:34:50.837Z</time><hdop>4.187</hdop><vdop>2.875</vdop><extensions><gom:speed>0.466</gom:speed></extensions></trkpt>
   <trkpt lat="59.0687346619" lon="30.0238632992"><ele>108.123</ele><time>2026-04-20T17:34:51.618Z</time><hdop>4.312</hdop><vdop>2.812</vdop><extensions><gom:speed>0.47</gom:speed></extensions></trkpt>
   <trkpt lat="59.0687403616" lon="30.0238583539"><ele>108.341</ele><time>2026-04-20T17:34:52.075Z</time><hdop>4.375</hdop><vdop>3.5</vdop><extensions><gom:speed>0.472</gom:speed></extensions></trkpt>
   <trkpt lat="59.0687486597" lon="30.0238474574"><ele>108.674</ele><time>2026-04-20T17:34:53.075Z</time><hdop>4.437</hdop><vdop>3.562</vdop><extensions><gom:speed>0.393</gom:speed></extensions></trkpt>
   <trkpt lat="59.0687546946" lon="30.0238368962"><ele>109.071</ele><time>2026-04-20T17:34:54.075Z</time><hdop>4.5</hdop><vdop>3.625</vdop><extensions><gom:speed>0.204</gom:speed></extensions></trkpt>
   <trkpt lat="59.0687602686" lon="30.023831448"><ele>109.087</ele><time>2026-04-20T17:34:55.075Z</time><hdop>4.437</hdop><vdop>3.562</vdop><extensions><gom:speed>0.129</gom:speed></extensions></trkpt>
   <trkpt lat="59.0687665969" lon="30.0238234852"><ele>108.967</ele><time>2026-04-20T17:34:56.075Z</time><hdop>4.312</hdop><vdop>3.437</vdop><extensions><gom:speed>0.141</gom:speed></extensions></trkpt>
   <trkpt lat="59.0687703688" lon="30.0238184561"><ele>108.796</ele><time>2026-04-20T17:34:57.076Z</time><hdop>4.187</hdop><vdop>3.437</vdop><extensions><gom:speed>0.137</gom:speed></extensions></trkpt>
   <trkpt lat="59.0687737635" lon="30.0238088169"><ele>108.435</ele><time>2026-04-20T17:34:58.075Z</time><hdop>4.062</hdop><vdop>3.5</vdop><extensions><gom:speed>0.146</gom:speed></extensions></trkpt>
   <trkpt lat="59.0687747693" lon="30.0238047936"><ele>108.22</ele><time>2026-04-20T17:34:59.041Z</time><hdop>3.937</hdop><vdop>3.5</vdop><extensions><gom:speed>0.177</gom:speed></extensions></trkpt>
   <trkpt lat="59.0687782897" lon="30.0237958249"><ele>107.855</ele><time>2026-04-20T17:34:59.958Z</time><hdop>3.875</hdop><vdop>3.5</vdop><extensions><gom:speed>0.257</gom:speed></extensions></trkpt>
   <trkpt lat="59.0687831931" lon="30.0237838388"><ele>107.71</ele><time>2026-04-20T17:35:00.778Z</time><hdop>3.875</hdop><vdop>3.5</vdop><extensions><gom:speed>0.396</gom:speed></extensions></trkpt>
   <trkpt lat="59.0687879708" lon="30.0237751216"><ele>107.65</ele><time>2026-04-20T17:35:01.351Z</time><hdop>3.875</hdop><vdop>3.5</vdop><extensions><gom:speed>0.483</gom:speed></extensions></trkpt>
   <trkpt lat="59.0687950954" lon="30.0237612915"><ele>107.624</ele><time>2026-04-20T17:35:02.075Z</time><hdop>3.937</hdop><vdop>3.375</vdop><extensions><gom:speed>0.566</gom:speed></extensions></trkpt>
   <trkpt lat="59.0687981967" lon="30.023754083"><ele>107.608</ele><time>2026-04-20T17:35:02.655Z</time><hdop>4.0</hdop><vdop>3.375</vdop><extensions><gom:speed>0.615</gom:speed></extensions></trkpt>
   <trkpt lat="59.0688041898" lon="30.0237424322"><ele>107.614</ele><time>2026-04-20T17:35:03.486Z</time><hdop>4.062</hdop><vdop>3.312</vdop><extensions><gom:speed>0.635</gom:speed></extensions></trkpt>
   <trkpt lat="59.068809177" lon="30.0237360619"><ele>107.671</ele><time>2026-04-20T17:35:04.075Z</time><hdop>4.125</hdop><vdop>3.25</vdop><extensions><gom:speed>0.623</gom:speed></extensions></trkpt>
   <trkpt lat="59.0688188581" lon="30.0237261713"><ele>107.724</ele><time>2026-04-20T17:35:05.075Z</time><hdop>4.312</hdop><vdop>3.25</vdop><extensions><gom:speed>0.603</gom:speed></extensions></trkpt>
   <trkpt lat="59.0688294612" lon="30.0237191305"><ele>107.759</ele><time>2026-04-20T17:35:06.075Z</time><hdop>4.562</hdop><vdop>3.187</vdop><extensions><gom:speed>0.638</gom:speed></extensions></trkpt>
   <trkpt lat="59.0688394776" lon="30.0237148557"><ele>107.78</ele><time>2026-04-20T17:35:07.075Z</time><hdop>4.687</hdop><vdop>3.187</vdop><extensions><gom:speed>0.65</gom:speed></extensions></trkpt>
   <trkpt lat="59.0688413635" lon="30.0237131794"><ele>107.792</ele><time>2026-04-20T17:35:07.556Z</time><hdop>4.812</hdop><vdop>3.187</vdop><extensions><gom:speed>0.658</gom:speed></extensions></trkpt>
   <trkpt lat="59.0688481948" lon="30.0237074797"><ele>107.785</ele><time>2026-04-20T17:35:08.075Z</time><hdop>4.937</hdop><vdop>3.125</vdop><extensions><gom:speed>0.656</gom:speed></extensions></trkpt>
   <trkpt lat="59.0688553613" lon="30.0237051327"><ele>107.747</ele><time>2026-04-20T17:35:09.075Z</time><hdop>5.0</hdop><vdop>3.187</vdop><extensions><gom:speed>0.563</gom:speed></extensions></trkpt>
   <trkpt lat="59.0688615639" lon="30.0237058871"><ele>107.708</ele><time>2026-04-20T17:35:10.075Z</time><hdop>5.0</hdop><vdop>3.375</vdop><extensions><gom:speed>0.535</gom:speed></extensions></trkpt>
   <trkpt lat="59.0688653777" lon="30.0237061386"><ele>107.686</ele><time>2026-04-20T17:35:10.658Z</time><hdop>4.937</hdop><vdop>3.375</vdop><extensions><gom:speed>0.569</gom:speed></extensions></trkpt>
   <trkpt lat="59.0688710773" lon="30.0237035402"><ele>107.672</ele><time>2026-04-20T17:35:11.655Z</time><hdop>4.812</hdop><vdop>3.437</vdop><extensions><gom:speed>0.553</gom:speed></extensions></trkpt>
   <trkpt lat="59.068875394" lon="30.0236981757"><ele>107.66</ele><time>2026-04-20T17:35:12.803Z</time><hdop>4.687</hdop><vdop>3.625</vdop><extensions><gom:speed>0.518</gom:speed></extensions></trkpt>
   <trkpt lat="59.06887728" lon="30.0236945715"><ele>107.654</ele><time>2026-04-20T17:35:13.522Z</time><hdop>4.562</hdop><vdop>3.437</vdop><extensions><gom:speed>0.523</gom:speed></extensions></trkpt>
   <trkpt lat="59.0688788725" lon="30.0236910511"><ele>107.627</ele><time>2026-04-20T17:35:14.075Z</time><hdop>4.562</hdop><vdop>3.437</vdop><extensions><gom:speed>0.482</gom:speed></extensions></trkpt>
   <trkpt lat="59.0688813871" lon="30.0236850162"><ele>107.494</ele><time>2026-04-20T17:35:15.075Z</time><hdop>4.5</hdop><vdop>3.5</vdop><extensions><gom:speed>0.513</gom:speed></extensions></trkpt>
   <trkpt lat="59.0688828958" lon="30.0236742873"><ele>107.767</ele><time>2026-04-20T17:35:16.076Z</time><hdop>4.5</hdop><vdop>3.687</vdop><extensions><gom:speed>0.539</gom:speed></extensions></trkpt>
   <trkpt lat="59.0688840693" lon="30.0236582779"><ele>108.2</ele><time>2026-04-20T17:35:17.075Z</time><hdop>4.5</hdop><vdop>3.437</vdop><extensions><gom:speed>0.627</gom:speed></extensions></trkpt>
   <trkpt lat="59.0688842788" lon="30.0236413464"><ele>108.458</ele><time>2026-04-20T17:35:18.042Z</time><hdop>4.562</hdop><vdop>3.437</vdop><extensions><gom:speed>0.703</gom:speed></extensions></trkpt>
   <trkpt lat="59.0688847818" lon="30.0236217328"><ele>108.946</ele><time>2026-04-20T17:35:19.039Z</time><hdop>4.625</hdop><vdop>3.187</vdop><extensions><gom:speed>0.729</gom:speed></extensions></trkpt>
   <trkpt lat="59.0688852847" lon="30.0236038793"><ele>108.944</ele><time>2026-04-20T17:35:19.977Z</time><hdop>4.687</hdop><vdop>3.125</vdop><extensions><gom:speed>0.724</gom:speed></extensions></trkpt>
   <trkpt lat="59.0688851589" lon="30.0235834275"><ele>109.374</ele><time>2026-04-20T17:35:20.876Z</time><hdop>4.75</hdop><vdop>3.0</vdop><extensions><gom:speed>0.734</gom:speed></extensions></trkpt>
   <trkpt lat="59.0688847818" lon="30.0235624727"><ele>109.337</ele><time>2026-04-20T17:35:21.738Z</time><hdop>4.687</hdop><vdop>2.812</vdop><extensions><gom:speed>0.75</gom:speed></extensions></trkpt>
   <trkpt lat="59.0688844884" lon="30.023541518"><ele>109.145</ele><time>2026-04-20T17:35:22.623Z</time><hdop>4.687</hdop><vdop>2.687</vdop><extensions><gom:speed>0.765</gom:speed></extensions></trkpt>
   <trkpt lat="59.0688849913" lon="30.0235293642"><ele>109.106</ele><time>2026-04-20T17:35:23.076Z</time><hdop>4.625</hdop><vdop>2.5</vdop><extensions><gom:speed>0.757</gom:speed></extensions></trkpt>
   <trkpt lat="59.0688864581" lon="30.0235045538"><ele>109.073</ele><time>2026-04-20T17:35:24.075Z</time><hdop>4.562</hdop><vdop>2.5</vdop><extensions><gom:speed>0.776</gom:speed></extensions></trkpt>
   <trkpt lat="59.0688884698" lon="30.0234811683"><ele>108.893</ele><time>2026-04-20T17:35:25.076Z</time><hdop>4.625</hdop><vdop>2.5</vdop><extensions><gom:speed>0.784</gom:speed></extensions></trkpt>
   <trkpt lat="59.0688913616" lon="30.0234582857"><ele>108.525</ele><time>2026-04-20T17:35:26.075Z</time><hdop>4.625</hdop><vdop>2.5</vdop><extensions><gom:speed>0.74</gom:speed></extensions></trkpt>
   <trkpt lat="59.0688944629" lon="30.0234372471"><ele>108.237</ele><time>2026-04-20T17:35:27.075Z</time><hdop>4.625</hdop><vdop>2.5</vdop><extensions><gom:speed>0.698</gom:speed></extensions></trkpt>
   <trkpt lat="59.0688953849" lon="30.0234220759"><ele>108.065</ele><time>2026-04-20T17:35:28.004Z</time><hdop>4.625</hdop><vdop>2.5</vdop><extensions><gom:speed>0.695</gom:speed></extensions></trkpt>
   <trkpt lat="59.0688969774" lon="30.0234001991"><ele>107.804</ele><time>2026-04-20T17:35:29.038Z</time><hdop>4.687</hdop><vdop>2.5</vdop><extensions><gom:speed>0.692</gom:speed></extensions></trkpt>
   <trkpt lat="59.0689022999" lon="30.0233787414"><ele>107.55</ele><time>2026-04-20T17:35:30.075Z</time><hdop>4.625</hdop><vdop>2.5</vdop><extensions><gom:speed>0.609</gom:speed></extensions></trkpt>
   <trkpt lat="59.0689084606" lon="30.0233719521"><ele>107.273</ele><time>2026-04-20T17:35:31.075Z</time><hdop>4.562</hdop><vdop>2.5</vdop><extensions><gom:speed>0.498</gom:speed></extensions></trkpt>
   <trkpt lat="59.0689118972" lon="30.0233730417"><ele>106.945</ele><time>2026-04-20T17:35:32.075Z</time><hdop>4.437</hdop><vdop>2.5</vdop><extensions><gom:speed>0.318</gom:speed></extensions></trkpt>
   <trkpt lat="59.0689102627" lon="30.0233690184"><ele>106.421</ele><time>2026-04-20T17:35:33.076Z</time><hdop>4.312</hdop><vdop>2.5</vdop><extensions><gom:speed>0.137</gom:speed></extensions></trkpt>
   <trkpt lat="59.0689100951" lon="30.0233642407"><ele>106.093</ele><time>2026-04-20T17:35:34.076Z</time><hdop>4.187</hdop><vdop>2.5</vdop><extensions><gom:speed>0.119</gom:speed></extensions></trkpt>
   <trkpt lat="59.0689106818" lon="30.0233625643"><ele>105.891</ele><time>2026-04-20T17:35:35.037Z</time><hdop>4.062</hdop><vdop>5.0</vdop><extensions><gom:speed>0.087</gom:speed></extensions></trkpt>
   <trkpt lat="59.0689111848" lon="30.0233587925"><ele>105.762</ele><time>2026-04-20T17:35:36.075Z</time><hdop>4.0</hdop><vdop>4.937</vdop><extensions><gom:speed>0.078</gom:speed></extensions></trkpt>
   <trkpt lat="59.068911981" lon="30.0233553559"><ele>105.594</ele><time>2026-04-20T17:35:37.076Z</time><hdop>3.875</hdop><vdop>4.812</vdop><extensions><gom:speed>0.099</gom:speed></extensions></trkpt>
   <trkpt lat="59.068912484" lon="30.0233517517"><ele>105.541</ele><time>2026-04-20T17:35:38.076Z</time><hdop>3.812</hdop><vdop>4.812</vdop><extensions><gom:speed>0.066</gom:speed></extensions></trkpt>
   <trkpt lat="59.0689122744" lon="30.0233482313"><ele>105.48</ele><time>2026-04-20T17:35:39.075Z</time><hdop>3.687</hdop><vdop>4.812</vdop><extensions><gom:speed>0.078</gom:speed></extensions></trkpt>
   <trkpt lat="59.068912484" lon="30.0233452976"><ele>105.401</ele><time>2026-04-20T17:35:40.075Z</time><hdop>3.562</hdop><vdop>4.875</vdop><extensions><gom:speed>0.082</gom:speed></extensions></trkpt>
   <trkpt lat="59.0689130707" lon="30.0233419449"><ele>105.276</ele><time>2026-04-20T17:35:41.075Z</time><hdop>3.5</hdop><vdop>4.937</vdop><extensions><gom:speed>0.098</gom:speed></extensions></trkpt>
   <trkpt lat="59.0689142861" lon="30.0233398494"><ele>105.241</ele><time>2026-04-20T17:35:42.075Z</time><hdop>3.5</hdop><vdop>5.0</vdop><extensions><gom:speed>0.077</gom:speed></extensions></trkpt>
   <trkpt lat="59.0689145794" lon="30.0233382568"><ele>105.22</ele><time>2026-04-20T17:35:42.798Z</time><hdop>3.5</hdop><vdop>5.0</vdop><extensions><gom:speed>0.08</gom:speed></extensions></trkpt>
   <trkpt lat="59.0689153757" lon="30.0233350717"><ele>105.185</ele><time>2026-04-20T17:35:43.520Z</time><hdop>3.625</hdop><vdop>4.75</vdop><extensions><gom:speed>0.044</gom:speed></extensions></trkpt>
   <trkpt lat="59.0689160882" lon="30.023332138"><ele>105.13</ele><time>2026-04-20T17:35:44.075Z</time><hdop>3.625</hdop><vdop>4.625</vdop><extensions><gom:speed>0.088</gom:speed></extensions></trkpt>
   <trkpt lat="59.0689165911" lon="30.0233317189"><ele>105.096</ele><time>2026-04-20T17:35:44.632Z</time><hdop>3.625</hdop><vdop>4.625</vdop><extensions><gom:speed>0.047</gom:speed></extensions></trkpt>
   <trkpt lat="59.0689178903" lon="30.0233278633"><ele>105.064</ele><time>2026-04-20T17:35:45.278Z</time><hdop>3.625</hdop><vdop>4.625</vdop><extensions><gom:speed>0.109</gom:speed></extensions></trkpt>
   <trkpt lat="59.0689186866" lon="30.0233253487"><ele>105.066</ele><time>2026-04-20T17:35:46.075Z</time><hdop>3.625</hdop><vdop>4.437</vdop><extensions><gom:speed>0.101</gom:speed></extensions></trkpt>
   <trkpt lat="59.0689200696" lon="30.0233224988"><ele>105.067</ele><time>2026-04-20T17:35:46.914Z</time><hdop>3.687</hdop><vdop>4.437</vdop><extensions><gom:speed>0.188</gom:speed></extensions></trkpt>
   <trkpt lat="59.0689225841" lon="30.0233162962"><ele>105.068</ele><time>2026-04-20T17:35:47.774Z</time><hdop>3.75</hdop><vdop>4.5</vdop><extensions><gom:speed>0.359</gom:speed></extensions></trkpt>
   <trkpt lat="59.0689260626" lon="30.0233056512"><ele>105.079</ele><time>2026-04-20T17:35:48.662Z</time><hdop>3.75</hdop><vdop>4.437</vdop><extensions><gom:speed>0.503</gom:speed></extensions></trkpt>
   <trkpt lat="59.0689293735" lon="30.0232926593"><ele>105.079</ele><time>2026-04-20T17:35:49.526Z</time><hdop>3.875</hdop><vdop>4.125</vdop><extensions><gom:speed>0.592</gom:speed></extensions></trkpt>
   <trkpt lat="59.0689300859" lon="30.0232847803"><ele>105.087</ele><time>2026-04-20T17:35:50.075Z</time><hdop>3.937</hdop><vdop>3.812</vdop><extensions><gom:speed>0.596</gom:speed></extensions></trkpt>
   <trkpt lat="59.0689304631" lon="30.0232788291"><ele>105.092</ele><time>2026-04-20T17:35:50.910Z</time><hdop>4.062</hdop><vdop>3.812</vdop><extensions><gom:speed>0.606</gom:speed></extensions></trkpt>
   <trkpt lat="59.068930966" lon="30.0232582935"><ele>105.082</ele><time>2026-04-20T17:35:52.038Z</time><hdop>4.312</hdop><vdop>3.812</vdop><extensions><gom:speed>0.619</gom:speed></extensions></trkpt>
   <trkpt lat="59.0689296669" lon="30.0232482352"><ele>105.072</ele><time>2026-04-20T17:35:53.015Z</time><hdop>4.437</hdop><vdop>3.812</vdop><extensions><gom:speed>0.609</gom:speed></extensions></trkpt>
   <trkpt lat="59.0689292897" lon="30.0232417811"><ele>105.052</ele><time>2026-04-20T17:35:53.815Z</time><hdop>4.5</hdop><vdop>3.875</vdop><extensions><gom:speed>0.607</gom:speed></extensions></trkpt>
   <trkpt lat="59.0689302955" lon="30.0232337345"><ele>105.043</ele><time>2026-04-20T17:35:54.762Z</time><hdop>4.562</hdop><vdop>3.812</vdop><extensions><gom:speed>0.629</gom:speed></extensions></trkpt>
   <trkpt lat="59.068930966" lon="30.0232266937"><ele>105.036</ele><time>2026-04-20T17:35:55.582Z</time><hdop>4.562</hdop><vdop>3.75</vdop><extensions><gom:speed>0.677</gom:speed></extensions></trkpt>
   <trkpt lat="59.0689312594" lon="30.0232224189"><ele>104.304</ele><time>2026-04-20T17:35:56.075Z</time><hdop>4.562</hdop><vdop>3.25</vdop><extensions><gom:speed>0.651</gom:speed></extensions></trkpt>
   <trkpt lat="59.0689318881" lon="30.0232169707"><ele>103.866</ele><time>2026-04-20T17:35:56.559Z</time><hdop>4.562</hdop><vdop>3.25</vdop><extensions><gom:speed>0.666</gom:speed></extensions></trkpt>
   <trkpt lat="59.0689325586" lon="30.0232114386"><ele>103.552</ele><time>2026-04-20T17:35:57.075Z</time><hdop>4.562</hdop><vdop>3.125</vdop><extensions><gom:speed>0.666</gom:speed></extensions></trkpt>
   <trkpt lat="59.0689350732" lon="30.0232013803"><ele>104.117</ele><time>2026-04-20T17:35:58.075Z</time><hdop>4.562</hdop><vdop>2.875</vdop><extensions><gom:speed>0.66</gom:speed></extensions></trkpt>
   <trkpt lat="59.068939767" lon="30.0231896457"><ele>104.295</ele><time>2026-04-20T17:35:59.075Z</time><hdop>4.562</hdop><vdop>2.687</vdop><extensions><gom:speed>0.704</gom:speed></extensions></trkpt>
   <trkpt lat="59.068943497" lon="30.0231741392"><ele>104.584</ele><time>2026-04-20T17:36:00.075Z</time><hdop>4.562</hdop><vdop>3.875</vdop><extensions><gom:speed>0.643</gom:speed></extensions></trkpt>
   <trkpt lat="59.0689449638" lon="30.0231551961"><ele>104.702</ele><time>2026-04-20T17:36:01.076Z</time><hdop>4.562</hdop><vdop>3.687</vdop><extensions><gom:speed>0.634</gom:speed></extensions></trkpt>
   <trkpt lat="59.0689455925" lon="30.0231400248"><ele>104.773</ele><time>2026-04-20T17:36:02.018Z</time><hdop>4.625</hdop><vdop>3.687</vdop><extensions><gom:speed>0.663</gom:speed></extensions></trkpt>
   <trkpt lat="59.0689466821" lon="30.023121417"><ele>104.691</ele><time>2026-04-20T17:36:02.857Z</time><hdop>4.687</hdop><vdop>3.75</vdop><extensions><gom:speed>0.714</gom:speed></extensions></trkpt>
   <trkpt lat="59.0689492805" lon="30.0230947625"><ele>104.581</ele><time>2026-04-20T17:36:03.981Z</time><hdop>4.75</hdop><vdop>3.562</vdop><extensions><gom:speed>0.685</gom:speed></extensions></trkpt>
   <trkpt lat="59.0689503702" lon="30.0230791722"><ele>104.83</ele><time>2026-04-20T17:36:04.841Z</time><hdop>4.812</hdop><vdop>3.437</vdop><extensions><gom:speed>0.731</gom:speed></extensions></trkpt>
   <trkpt lat="59.0689515855" lon="30.0230587204"><ele>105.021</ele><time>2026-04-20T17:36:05.896Z</time><hdop>4.812</hdop><vdop>3.375</vdop><extensions><gom:speed>0.714</gom:speed></extensions></trkpt>
   <trkpt lat="59.0689542677" lon="30.0230402802"><ele>105.068</ele><time>2026-04-20T17:36:07.042Z</time><hdop>4.812</hdop><vdop>3.375</vdop><extensions><gom:speed>0.666</gom:speed></extensions></trkpt>
   <trkpt lat="59.0689568661" lon="30.0230266177"><ele>105.088</ele><time>2026-04-20T17:36:07.981Z</time><hdop>4.75</hdop><vdop>3.375</vdop><extensions><gom:speed>0.646</gom:speed></extensions></trkpt>
   <trkpt lat="59.0689590873" lon="30.0230131228"><ele>105.126</ele><time>2026-04-20T17:36:08.819Z</time><hdop>4.75</hdop><vdop>3.187</vdop><extensions><gom:speed>0.659</gom:speed></extensions></trkpt>
   <trkpt lat="59.0689596741" lon="30.0230057467"><ele>105.219</ele><time>2026-04-20T17:36:09.506Z</time><hdop>4.687</hdop><vdop>3.187</vdop><extensions><gom:speed>0.597</gom:speed></extensions></trkpt>
   <trkpt lat="59.0689612666" lon="30.0229936768"><ele>105.386</ele><time>2026-04-20T17:36:10.075Z</time><hdop>4.625</hdop><vdop>3.25</vdop><extensions><gom:speed>0.542</gom:speed></extensions></trkpt>
   <trkpt lat="59.0689620629" lon="30.0229882285"><ele>105.536</ele><time>2026-04-20T17:36:11.075Z</time><hdop>4.562</hdop><vdop>3.312</vdop><extensions><gom:speed>0.354</gom:speed></extensions></trkpt>
   <trkpt lat="59.0689626916" lon="30.0229878933"><ele>105.652</ele><time>2026-04-20T17:36:12.075Z</time><hdop>4.562</hdop><vdop>3.437</vdop><extensions><gom:speed>0.226</gom:speed></extensions></trkpt>
   <trkpt lat="59.0689625658" lon="30.0229893182"><ele>105.753</ele><time>2026-04-20T17:36:13.075Z</time><hdop>4.5</hdop><vdop>3.437</vdop><extensions><gom:speed>0.141</gom:speed></extensions></trkpt>
   <trkpt lat="59.0689621886" lon="30.0229892344"><ele>105.836</ele><time>2026-04-20T17:36:14.075Z</time><hdop>4.375</hdop><vdop>3.625</vdop><extensions><gom:speed>0.081</gom:speed></extensions></trkpt>
   <trkpt lat="59.0689618953" lon="30.0229881447"><ele>105.905</ele><time>2026-04-20T17:36:14.955Z</time><hdop>4.312</hdop><vdop>3.75</vdop><extensions><gom:speed>0.066</gom:speed></extensions></trkpt>
   <trkpt lat="59.0689622725" lon="30.0229891506"><ele>105.946</ele><time>2026-04-20T17:36:15.666Z</time><hdop>4.25</hdop><vdop>3.75</vdop><extensions><gom:speed>0.03</gom:speed></extensions></trkpt>
   <trkpt lat="59.0689626916" lon="30.0229888991"><ele>105.991</ele><time>2026-04-20T17:36:17.075Z</time><hdop>4.187</hdop><vdop>3.5</vdop><extensions><gom:speed>0.099</gom:speed></extensions></trkpt>
   <trkpt lat="59.0689630687" lon="30.0229860493"><ele>106.037</ele><time>2026-04-20T17:36:18.075Z</time><hdop>4.062</hdop><vdop>3.375</vdop><extensions><gom:speed>0.066</gom:speed></extensions></trkpt>
   <trkpt lat="59.0689628592" lon="30.0229834509"><ele>106.07</ele><time>2026-04-20T17:36:19.075Z</time><hdop>3.937</hdop><vdop>3.312</vdop><extensions><gom:speed>0.065</gom:speed></extensions></trkpt>
   <trkpt lat="59.0689630687" lon="30.0229810201"><ele>106.109</ele><time>2026-04-20T17:36:20.075Z</time><hdop>3.875</hdop><vdop>3.25</vdop><extensions><gom:speed>0.098</gom:speed></extensions></trkpt>
   <trkpt lat="59.0689633621" lon="30.0229793437"><ele>106.153</ele><time>2026-04-20T17:36:21.075Z</time><hdop>3.812</hdop><vdop>3.062</vdop><extensions><gom:speed>0.059</gom:speed></extensions></trkpt>
   <trkpt lat="59.0689634878" lon="30.022979679"><ele>106.179</ele><time>2026-04-20T17:36:21.826Z</time><hdop>3.812</hdop><vdop>3.062</vdop><extensions><gom:speed>0.062</gom:speed></extensions></trkpt>
   <trkpt lat="59.0689645775" lon="30.022975069"><ele>106.208</ele><time>2026-04-20T17:36:23.075Z</time><hdop>3.687</hdop><vdop>2.812</vdop><extensions><gom:speed>0.067</gom:speed></extensions></trkpt>
   <trkpt lat="59.0689653738" lon="30.0229737279"><ele>106.232</ele><time>2026-04-20T17:36:24.075Z</time><hdop>3.687</hdop><vdop>2.875</vdop><extensions><gom:speed>0.1</gom:speed></extensions></trkpt>
   <trkpt lat="59.0689655833" lon="30.0229729735"><ele>106.246</ele><time>2026-04-20T17:36:24.823Z</time><hdop>3.687</hdop><vdop>2.875</vdop><extensions><gom:speed>0.09</gom:speed></extensions></trkpt>
   <trkpt lat="59.0689657929" lon="30.022969956"><ele>106.297</ele><time>2026-04-20T17:36:26.075Z</time><hdop>3.625</hdop><vdop>3.125</vdop><extensions><gom:speed>0.094</gom:speed></extensions></trkpt>
   <trkpt lat="59.0689664634" lon="30.0229684473"><ele>106.327</ele><time>2026-04-20T17:36:27.040Z</time><hdop>3.625</hdop><vdop>3.125</vdop><extensions><gom:speed>0.138</gom:speed></extensions></trkpt>
   <trkpt lat="59.0689669663" lon="30.0229652621"><ele>106.361</ele><time>2026-04-20T17:36:28.038Z</time><hdop>3.625</hdop><vdop>3.062</vdop><extensions><gom:speed>0.172</gom:speed></extensions></trkpt>
   <trkpt lat="59.0689681817" lon="30.022958389"><ele>106.499</ele><time>2026-04-20T17:36:28.935Z</time><hdop>3.687</hdop><vdop>2.75</vdop><extensions><gom:speed>0.287</gom:speed></extensions></trkpt>
   <trkpt lat="59.0689697743" lon="30.0229499233"><ele>106.683</ele><time>2026-04-20T17:36:29.597Z</time><hdop>3.687</hdop><vdop>2.562</vdop><extensions><gom:speed>0.38</gom:speed></extensions></trkpt>
   <trkpt lat="59.068971283" lon="30.0229429663"><ele>106.278</ele><time>2026-04-20T17:36:30.075Z</time><hdop>3.687</hdop><vdop>2.5</vdop><extensions><gom:speed>0.404</gom:speed></extensions></trkpt>
   <trkpt lat="59.0689759769" lon="30.0229217601"><ele>105.967</ele><time>2026-04-20T17:36:31.075Z</time><hdop>3.812</hdop><vdop>2.5</vdop><extensions><gom:speed>0.619</gom:speed></extensions></trkpt>
   <trkpt lat="59.0689803774" lon="30.0228987936"><ele>105.645</ele><time>2026-04-20T17:36:32.075Z</time><hdop>3.875</hdop><vdop>2.5</vdop><extensions><gom:speed>0.72</gom:speed></extensions></trkpt>
   <trkpt lat="59.0689855741" lon="30.0228744861"><ele>105.875</ele><time>2026-04-20T17:36:33.075Z</time><hdop>4.0</hdop><vdop>2.5</vdop><extensions><gom:speed>0.783</gom:speed></extensions></trkpt>
   <trkpt lat="59.0689891784" lon="30.0228583929"><ele>106.013</ele><time>2026-04-20T17:36:33.881Z</time><hdop>4.062</hdop><vdop>2.5</vdop><extensions><gom:speed>0.816</gom:speed></extensions></trkpt>
   <trkpt lat="59.0689919863" lon="30.022837019"><ele>105.999</ele><time>2026-04-20T17:36:34.680Z</time><hdop>4.187</hdop><vdop>2.5</vdop><extensions><gom:speed>0.864</gom:speed></extensions></trkpt>
   <trkpt lat="59.0689947942" lon="30.0228150584"><ele>105.982</ele><time>2026-04-20T17:36:35.484Z</time><hdop>4.25</hdop><vdop>2.5</vdop><extensions><gom:speed>0.889</gom:speed></extensions></trkpt>
   <trkpt lat="59.0689978955" lon="30.022799049"><ele>106.165</ele><time>2026-04-20T17:36:36.076Z</time><hdop>4.25</hdop><vdop>2.5</vdop><extensions><gom:speed>0.894</gom:speed></extensions></trkpt>
   <trkpt lat="59.0690031761" lon="30.02277449"><ele>105.889</ele><time>2026-04-20T17:36:37.075Z</time><hdop>4.25</hdop><vdop>2.5</vdop><extensions><gom:speed>0.874</gom:speed></extensions></trkpt>
   <trkpt lat="59.0690083729" lon="30.022752278"><ele>105.849</ele><time>2026-04-20T17:36:38.076Z</time><hdop>4.312</hdop><vdop>2.5</vdop><extensions><gom:speed>0.82</gom:speed></extensions></trkpt>
   <trkpt lat="59.0690144917" lon="30.0227338378"><ele>105.494</ele><time>2026-04-20T17:36:39.075Z</time><hdop>4.312</hdop><vdop>2.5</vdop><extensions><gom:speed>0.775</gom:speed></extensions></trkpt>
   <trkpt lat="59.0690202752" lon="30.0227165711"><ele>105.345</ele><time>2026-04-20T17:36:40.075Z</time><hdop>4.375</hdop><vdop>2.5</vdop><extensions><gom:speed>0.743</gom:speed></extensions></trkpt>
   <trkpt lat="59.0690253882" lon="30.0226996396"><ele>105.078</ele><time>2026-04-20T17:36:41.075Z</time><hdop>4.375</hdop><vdop>2.5</vdop><extensions><gom:speed>0.691</gom:speed></extensions></trkpt>
   <trkpt lat="59.0690288667" lon="30.0226841331"><ele>104.918</ele><time>2026-04-20T17:36:41.896Z</time><hdop>4.5</hdop><vdop>2.5</vdop><extensions><gom:speed>0.711</gom:speed></extensions></trkpt>
   <trkpt lat="59.0690338958" lon="30.0226664473"><ele>104.744</ele><time>2026-04-20T17:36:43.061Z</time><hdop>4.5</hdop><vdop>2.5</vdop><extensions><gom:speed>0.699</gom:speed></extensions></trkpt>
   <trkpt lat="59.0690383801" lon="30.0226506893"><ele>104.427</ele><time>2026-04-20T17:36:44.075Z</time><hdop>4.5</hdop><vdop>2.5</vdop><extensions><gom:speed>0.569</gom:speed></extensions></trkpt>
   <trkpt lat="59.0690395955" lon="30.0226410501"><ele>104.162</ele><time>2026-04-20T17:36:45.075Z</time><hdop>4.5</hdop><vdop>4.75</vdop><extensions><gom:speed>0.423</gom:speed></extensions></trkpt>
   <trkpt lat="59.0690400984" lon="30.0226376974"><ele>103.901</ele><time>2026-04-20T17:36:45.989Z</time><hdop>4.5</hdop><vdop>4.937</vdop><extensions><gom:speed>0.29</gom:speed></extensions></trkpt>
   <trkpt lat="59.0690402661" lon="30.0226399605"><ele>103.775</ele><time>2026-04-20T17:36:46.938Z</time><hdop>4.562</hdop><vdop>4.875</vdop><extensions><gom:speed>0.13</gom:speed></extensions></trkpt>
   <trkpt lat="59.0690398889" lon="30.0226428941"><ele>103.699</ele><time>2026-04-20T17:36:47.434Z</time><hdop>4.625</hdop><vdop>4.875</vdop><extensions><gom:speed>0.057</gom:speed></extensions></trkpt>
   <trkpt lat="59.0690404756" lon="30.0226405472"><ele>103.693</ele><time>2026-04-20T17:36:48.075Z</time><hdop>4.562</hdop><vdop>4.812</vdop><extensions><gom:speed>0.101</gom:speed></extensions></trkpt>
   <trkpt lat="59.0690406852" lon="30.0226397928"><ele>103.672</ele><time>2026-04-20T17:36:48.951Z</time><hdop>4.625</hdop><vdop>4.5</vdop><extensions><gom:speed>0.108</gom:speed></extensions></trkpt>
   <trkpt lat="59.0690397632" lon="30.0226351828"><ele>103.539</ele><time>2026-04-20T17:36:50.076Z</time><hdop>4.75</hdop><vdop>4.25</vdop><extensions><gom:speed>0.125</gom:speed></extensions></trkpt>
   <trkpt lat="59.0690394698" lon="30.022633674"><ele>103.459</ele><time>2026-04-20T17:36:50.573Z</time><hdop>4.812</hdop><vdop>4.25</vdop><extensions><gom:speed>0.156</gom:speed></extensions></trkpt>
   <trkpt lat="59.0690388831" lon="30.0226289802"><ele>103.443</ele><time>2026-04-20T17:36:51.480Z</time><hdop>4.812</hdop><vdop>4.125</vdop><extensions><gom:speed>0.22</gom:speed></extensions></trkpt>
   <trkpt lat="59.0690396793" lon="30.0226228614"><ele>103.481</ele><time>2026-04-20T17:36:52.075Z</time><hdop>4.812</hdop><vdop>4.125</vdop><extensions><gom:speed>0.234</gom:speed></extensions></trkpt>
   <trkpt lat="59.0690421939" lon="30.0226139766"><ele>103.579</ele><time>2026-04-20T17:36:53.076Z</time><hdop>4.812</hdop><vdop>3.937</vdop><extensions><gom:speed>0.322</gom:speed></extensions></trkpt>
   <trkpt lat="59.0690433674" lon="30.0226102885"><ele>103.638</ele><time>2026-04-20T17:36:53.570Z</time><hdop>4.812</hdop><vdop>3.937</vdop><extensions><gom:speed>0.333</gom:speed></extensions></trkpt>
   <trkpt lat="59.0690456724" lon="30.022601739"><ele>103.707</ele><time>2026-04-20T17:36:54.076Z</time><hdop>4.75</hdop><vdop>3.812</vdop><extensions><gom:speed>0.344</gom:speed></extensions></trkpt>
   <trkpt lat="59.0690458819" lon="30.0225940276"><ele>103.804</ele><time>2026-04-20T17:36:55.075Z</time><hdop>4.687</hdop><vdop>3.562</vdop><extensions><gom:speed>0.353</gom:speed></extensions></trkpt>
   <trkpt lat="59.0690450857" lon="30.0225902558"><ele>103.861</ele><time>2026-04-20T17:36:55.776Z</time><hdop>4.687</hdop><vdop>3.562</vdop><extensions><gom:speed>0.325</gom:speed></extensions></trkpt>
   <trkpt lat="59.0690433674" lon="30.0225839694"><ele>103.926</ele><time>2026-04-20T17:36:56.861Z</time><hdop>4.625</hdop><vdop>3.5</vdop><extensions><gom:speed>0.338</gom:speed></extensions></trkpt>
   <trkpt lat="59.0690423615" lon="30.0225794431"><ele>103.977</ele><time>2026-04-20T17:36:57.699Z</time><hdop>4.562</hdop><vdop>3.437</vdop><extensions><gom:speed>0.335</gom:speed></extensions></trkpt>
   <trkpt lat="59.0690426968" lon="30.0225758389"><ele>104.023</ele><time>2026-04-20T17:36:58.578Z</time><hdop>4.562</hdop><vdop>3.375</vdop><extensions><gom:speed>0.363</gom:speed></extensions></trkpt>
   <trkpt lat="59.0690427806" lon="30.0225713965"><ele>104.55</ele><time>2026-04-20T17:36:59.075Z</time><hdop>4.562</hdop><vdop>3.0</vdop><extensions><gom:speed>0.384</gom:speed></extensions></trkpt>
   <trkpt lat="59.0690420682" lon="30.0225633499"><ele>104.865</ele><time>2026-04-20T17:36:59.730Z</time><hdop>4.625</hdop><vdop>3.0</vdop><extensions><gom:speed>0.509</gom:speed></extensions></trkpt>
   <trkpt lat="59.0690412719" lon="30.0225468375"><ele>105.197</ele><time>2026-04-20T17:37:00.478Z</time><hdop>4.625</hdop><vdop>2.812</vdop><extensions><gom:speed>0.583</gom:speed></extensions></trkpt>
   <trkpt lat="59.0690422777" lon="30.0225391262"><ele>105.052</ele><time>2026-04-20T17:37:01.075Z</time><hdop>4.625</hdop><vdop>2.625</vdop><extensions><gom:speed>0.576</gom:speed></extensions></trkpt>
   <trkpt lat="59.0690465944" lon="30.0225268886"><ele>104.257</ele><time>2026-04-20T17:37:02.075Z</time><hdop>4.687</hdop><vdop>2.5</vdop><extensions><gom:speed>0.587</gom:speed></extensions></trkpt>
   <trkpt lat="59.0690500729" lon="30.0225240388"><ele>103.782</ele><time>2026-04-20T17:37:02.793Z</time><hdop>4.687</hdop><vdop>2.5</vdop><extensions><gom:speed>0.524</gom:speed></extensions></trkpt>
   <trkpt lat="59.0690542638" lon="30.0225222786"><ele>103.297</ele><time>2026-04-20T17:37:03.957Z</time><hdop>4.687</hdop><vdop>2.5</vdop><extensions><gom:speed>0.371</gom:speed></extensions></trkpt>
   <trkpt lat="59.0690573651" lon="30.0225203507"><ele>102.409</ele><time>2026-04-20T17:37:05.013Z</time><hdop>4.687</hdop><vdop>2.562</vdop><extensions><gom:speed>0.363</gom:speed></extensions></trkpt>
   <trkpt lat="59.0690580776" lon="30.0225187582"><ele>102.081</ele><time>2026-04-20T17:37:05.889Z</time><hdop>4.687</hdop><vdop>4.5</vdop><extensions><gom:speed>0.322</gom:speed></extensions></trkpt>
   <trkpt lat="59.0690621847" lon="30.022509119"><ele>102.122</ele><time>2026-04-20T17:37:07.076Z</time><hdop>4.687</hdop><vdop>4.5</vdop><extensions><gom:speed>0.278</gom:speed></extensions></trkpt>
   <trkpt lat="59.0690647831" lon="30.0225034193"><ele>102.118</ele><time>2026-04-20T17:37:08.022Z</time><hdop>4.687</hdop><vdop>4.562</vdop><extensions><gom:speed>0.321</gom:speed></extensions></trkpt>
   <trkpt lat="59.0690687645" lon="30.0224967976"><ele>102.165</ele><time>2026-04-20T17:37:09.075Z</time><hdop>4.687</hdop><vdop>4.375</vdop><extensions><gom:speed>0.361</gom:speed></extensions></trkpt>
   <trkpt lat="59.0690728717" lon="30.0224888348"><ele>102.255</ele><time>2026-04-20T17:37:10.075Z</time><hdop>4.687</hdop><vdop>4.312</vdop><extensions><gom:speed>0.397</gom:speed></extensions></trkpt>
   <trkpt lat="59.0690764759" lon="30.0224796985"><ele>102.303</ele><time>2026-04-20T17:37:11.075Z</time><hdop>4.687</hdop><vdop>4.25</vdop><extensions><gom:speed>0.413</gom:speed></extensions></trkpt>
   <trkpt lat="59.0690801639" lon="30.0224714842"><ele>102.466</ele><time>2026-04-20T17:37:12.075Z</time><hdop>4.687</hdop><vdop>4.375</vdop><extensions><gom:speed>0.432</gom:speed></extensions></trkpt>
   <trkpt lat="59.0690842711" lon="30.0224634376"><ele>102.607</ele><time>2026-04-20T17:37:12.996Z</time><hdop>4.75</hdop><vdop>4.25</vdop><extensions><gom:speed>0.476</gom:speed></extensions></trkpt>
   <trkpt lat="59.0690882944" lon="30.0224566482"><ele>102.692</ele><time>2026-04-20T17:37:13.996Z</time><hdop>4.75</hdop><vdop>4.25</vdop><extensions><gom:speed>0.52</gom:speed></extensions></trkpt>
   <trkpt lat="59.0690926949" lon="30.0224480987"><ele>102.816</ele><time>2026-04-20T17:37:14.796Z</time><hdop>4.75</hdop><vdop>4.062</vdop><extensions><gom:speed>0.623</gom:speed></extensions></trkpt>
   <trkpt lat="59.0690974726" lon="30.0224381242"><ele>102.889</ele><time>2026-04-20T17:37:15.675Z</time><hdop>4.75</hdop><vdop>4.0</vdop><extensions><gom:speed>0.697</gom:speed></extensions></trkpt>
   <trkpt lat="59.0691016635" lon="30.0224272278"><ele>102.923</ele><time>2026-04-20T17:37:16.592Z</time><hdop>4.75</hdop><vdop>4.0</vdop><extensions><gom:speed>0.754</gom:speed></extensions></trkpt>
   <trkpt lat="59.0691036752" lon="30.0224227854"><ele>102.906</ele><time>2026-04-20T17:37:17.075Z</time><hdop>4.687</hdop><vdop>3.812</vdop><extensions><gom:speed>0.726</gom:speed></extensions></trkpt>
   <trkpt lat="59.069106064" lon="30.0224119727"><ele>102.879</ele><time>2026-04-20T17:37:18.075Z</time><hdop>4.687</hdop><vdop>3.625</vdop><extensions><gom:speed>0.713</gom:speed></extensions></trkpt>
   <trkpt lat="59.0691065669" lon="30.0224033393"><ele>102.866</ele><time>2026-04-20T17:37:19.075Z</time><hdop>4.562</hdop><vdop>3.437</vdop><extensions><gom:speed>0.65</gom:speed></extensions></trkpt>
   <trkpt lat="59.0691076985" lon="30.0223989808"><ele>102.86</ele><time>2026-04-20T17:37:20.076Z</time><hdop>4.5</hdop><vdop>3.375</vdop><extensions><gom:speed>0.606</gom:speed></extensions></trkpt>
   <trkpt lat="59.0691090815" lon="30.022395628"><ele>102.864</ele><time>2026-04-20T17:37:21.076Z</time><hdop>4.5</hdop><vdop>3.25</vdop><extensions><gom:speed>0.542</gom:speed></extensions></trkpt>
   <trkpt lat="59.0691091653" lon="30.0223932811"><ele>102.857</ele><time>2026-04-20T17:37:22.075Z</time><hdop>4.5</hdop><vdop>3.375</vdop><extensions><gom:speed>0.53</gom:speed></extensions></trkpt>
   <trkpt lat="59.0691096682" lon="30.0223900959"><ele>102.858</ele><time>2026-04-20T17:37:23.075Z</time><hdop>4.5</hdop><vdop>3.312</vdop><extensions><gom:speed>0.486</gom:speed></extensions></trkpt>
   <trkpt lat="59.0691099616" lon="30.0223794509"><ele>102.858</ele><time>2026-04-20T17:37:24.054Z</time><hdop>4.5</hdop><vdop>3.312</vdop><extensions><gom:speed>0.583</gom:speed></extensions></trkpt>
   <trkpt lat="59.0691104645" lon="30.0223683868"><ele>103.131</ele><time>2026-04-20T17:37:24.973Z</time><hdop>4.5</hdop><vdop>3.0</vdop><extensions><gom:speed>0.63</gom:speed></extensions></trkpt>
   <trkpt lat="59.0691129791" lon="30.0223610946"><ele>103.942</ele><time>2026-04-20T17:37:25.882Z</time><hdop>4.562</hdop><vdop>2.875</vdop><extensions><gom:speed>0.656</gom:speed></extensions></trkpt>
   <trkpt lat="59.0691173796" lon="30.022351623"><ele>104.679</ele><time>2026-04-20T17:37:26.760Z</time><hdop>4.562</hdop><vdop>2.562</vdop><extensions><gom:speed>0.679</gom:speed></extensions></trkpt>
   <trkpt lat="59.0691238755" lon="30.0223373738"><ele>104.774</ele><time>2026-04-20T17:37:28.075Z</time><hdop>4.562</hdop><vdop>2.5</vdop><extensions><gom:speed>0.642</gom:speed></extensions></trkpt>
   <trkpt lat="59.0691267673" lon="30.0223255553"><ele>104.822</ele><time>2026-04-20T17:37:29.075Z</time><hdop>4.562</hdop><vdop>3.625</vdop><extensions><gom:speed>0.516</gom:speed></extensions></trkpt>
   <trkpt lat="59.0691295752" lon="30.0223166705"><ele>104.823</ele><time>2026-04-20T17:37:30.075Z</time><hdop>4.5</hdop><vdop>3.5</vdop><extensions><gom:speed>0.342</gom:speed></extensions></trkpt>
   <trkpt lat="59.069130162" lon="30.0223174248"><ele>104.824</ele><time>2026-04-20T17:37:30.764Z</time><hdop>4.5</hdop><vdop>3.5</vdop><extensions><gom:speed>0.19</gom:speed></extensions></trkpt>
   <trkpt lat="59.0691359874" lon="30.0223056902"><ele>104.442</ele><time>2026-04-20T17:37:32.075Z</time><hdop>4.312</hdop><vdop>3.312</vdop><extensions><gom:speed>0.108</gom:speed></extensions></trkpt>
   <trkpt lat="59.0691380829" lon="30.0223010801"><ele>103.856</ele><time>2026-04-20T17:37:33.075Z</time><hdop>4.25</hdop><vdop>3.312</vdop><extensions><gom:speed>0.071</gom:speed></extensions></trkpt>
   <trkpt lat="59.0691404717" lon="30.0222972245"><ele>103.519</ele><time>2026-04-20T17:37:34.075Z</time><hdop>4.125</hdop><vdop>3.187</vdop><extensions><gom:speed>0.073</gom:speed></extensions></trkpt>
   <trkpt lat="59.0691424834" lon="30.0222937879"><ele>103.2</ele><time>2026-04-20T17:37:35.075Z</time><hdop>4.0</hdop><vdop>3.25</vdop><extensions><gom:speed>0.068</gom:speed></extensions></trkpt>
   <trkpt lat="59.0691453751" lon="30.0222888425"><ele>102.99</ele><time>2026-04-20T17:37:36.075Z</time><hdop>3.937</hdop><vdop>3.437</vdop><extensions><gom:speed>0.104</gom:speed></extensions></trkpt>
   <trkpt lat="59.069146381" lon="30.0222878367"><ele>102.864</ele><time>2026-04-20T17:37:36.925Z</time><hdop>4.0</hdop><vdop>3.437</vdop><extensions><gom:speed>0.089</gom:speed></extensions></trkpt>
   <trkpt lat="59.0691504881" lon="30.0222806283"><ele>102.791</ele><time>2026-04-20T17:37:38.075Z</time><hdop>3.875</hdop><vdop>3.562</vdop><extensions><gom:speed>0.069</gom:speed></extensions></trkpt>
   <trkpt lat="59.0691521645" lon="30.0222776946"><ele>102.721</ele><time>2026-04-20T17:37:39.075Z</time><hdop>3.875</hdop><vdop>3.437</vdop><extensions><gom:speed>0.096</gom:speed></extensions></trkpt>
   <trkpt lat="59.0691539666" lon="30.0222757668"><ele>102.716</ele><time>2026-04-20T17:37:40.076Z</time><hdop>3.812</hdop><vdop>3.437</vdop><extensions><gom:speed>0.074</gom:speed></extensions></trkpt>
   <trkpt lat="59.069155182" lon="30.0222746771"><ele>102.638</ele><time>2026-04-20T17:37:41.075Z</time><hdop>3.75</hdop><vdop>3.562</vdop><extensions><gom:speed>0.086</gom:speed></extensions></trkpt>
   <trkpt lat="59.0691563973" lon="30.0222730846"><ele>102.557</ele><time>2026-04-20T17:37:42.075Z</time><hdop>3.687</hdop><vdop>3.562</vdop><extensions><gom:speed>0.08</gom:speed></extensions></trkpt>
   <trkpt lat="59.0691578642" lon="30.0222709891"><ele>102.522</ele><time>2026-04-20T17:37:43.076Z</time><hdop>3.625</hdop><vdop>3.437</vdop><extensions><gom:speed>0.105</gom:speed></extensions></trkpt>
   <trkpt lat="59.0691589957" lon="30.0222684745"><ele>102.509</ele><time>2026-04-20T17:37:44.075Z</time><hdop>3.625</hdop><vdop>3.5</vdop><extensions><gom:speed>0.076</gom:speed></extensions></trkpt>
   <trkpt lat="59.0691598758" lon="30.0222679716"><ele>102.512</ele><time>2026-04-20T17:37:45.075Z</time><hdop>3.625</hdop><vdop>3.625</vdop><extensions><gom:speed>0.07</gom:speed></extensions></trkpt>
   <trkpt lat="59.0691608817" lon="30.0222672172"><ele>102.505</ele><time>2026-04-20T17:37:46.076Z</time><hdop>3.625</hdop><vdop>3.812</vdop><extensions><gom:speed>0.101</gom:speed></extensions></trkpt>
   <trkpt lat="59.069162097" lon="30.022266882"><ele>102.497</ele><time>2026-04-20T17:37:47.075Z</time><hdop>3.562</hdop><vdop>4.0</vdop><extensions><gom:speed>0.126</gom:speed></extensions></trkpt>
   <trkpt lat="59.0691633962" lon="30.0222661276"><ele>102.49</ele><time>2026-04-20T17:37:48.075Z</time><hdop>3.562</hdop><vdop>4.125</vdop><extensions><gom:speed>0.18</gom:speed></extensions></trkpt>
   <trkpt lat="59.0691649888" lon="30.02226596"><ele>102.485</ele><time>2026-04-20T17:37:49.075Z</time><hdop>3.5</hdop><vdop>4.125</vdop><extensions><gom:speed>0.238</gom:speed></extensions></trkpt>
   <trkpt lat="59.0691672938" lon="30.0222657923"><ele>102.48</ele><time>2026-04-20T17:37:50.075Z</time><hdop>3.5</hdop><vdop>4.125</vdop><extensions><gom:speed>0.29</gom:speed></extensions></trkpt>
   <trkpt lat="59.0691688864" lon="30.0222653732"><ele>102.477</ele><time>2026-04-20T17:37:51.075Z</time><hdop>3.5</hdop><vdop>4.125</vdop><extensions><gom:speed>0.306</gom:speed></extensions></trkpt>
   <trkpt lat="59.069170898" lon="30.022266379"><ele>102.476</ele><time>2026-04-20T17:37:52.075Z</time><hdop>3.562</hdop><vdop>4.187</vdop><extensions><gom:speed>0.295</gom:speed></extensions></trkpt>
   <trkpt lat="59.0691721972" lon="30.0222674687"><ele>102.482</ele><time>2026-04-20T17:37:53.075Z</time><hdop>3.562</hdop><vdop>4.375</vdop><extensions><gom:speed>0.278</gom:speed></extensions></trkpt>
   <trkpt lat="59.0691733707" lon="30.0222676363"><ele>102.491</ele><time>2026-04-20T17:37:54.075Z</time><hdop>3.687</hdop><vdop>4.437</vdop><extensions><gom:speed>0.287</gom:speed></extensions></trkpt>
   <trkpt lat="59.0691744603" lon="30.0222674687"><ele>102.5</ele><time>2026-04-20T17:37:55.075Z</time><hdop>3.812</hdop><vdop>4.562</vdop><extensions><gom:speed>0.282</gom:speed></extensions></trkpt>
   <trkpt lat="59.0691757595" lon="30.0222669658"><ele>102.511</ele><time>2026-04-20T17:37:56.076Z</time><hdop>3.937</hdop><vdop>4.687</vdop><extensions><gom:speed>0.273</gom:speed></extensions></trkpt>
   <trkpt lat="59.0691763882" lon="30.0222661276"><ele>102.518</ele><time>2026-04-20T17:37:57.075Z</time><hdop>4.0</hdop><vdop>4.75</vdop><extensions><gom:speed>0.277</gom:speed></extensions></trkpt>
   <trkpt lat="59.0691769749" lon="30.02226596"><ele>102.526</ele><time>2026-04-20T17:37:58.075Z</time><hdop>4.062</hdop><vdop>4.625</vdop><extensions><gom:speed>0.296</gom:speed></extensions></trkpt>
   <trkpt lat="59.0691776874" lon="30.0222651218"><ele>102.532</ele><time>2026-04-20T17:37:59.075Z</time><hdop>4.187</hdop><vdop>4.5</vdop><extensions><gom:speed>0.304</gom:speed></extensions></trkpt>
   <trkpt lat="59.0691782741" lon="30.0222639483"><ele>102.537</ele><time>2026-04-20T17:38:00.075Z</time><hdop>4.25</hdop><vdop>4.437</vdop><extensions><gom:speed>0.341</gom:speed></extensions></trkpt>
   <trkpt lat="59.0691790704" lon="30.0222629425"><ele>102.54</ele><time>2026-04-20T17:38:01.076Z</time><hdop>4.312</hdop><vdop>4.437</vdop><extensions><gom:speed>0.36</gom:speed></extensions></trkpt>
   <trkpt lat="59.0691792799" lon="30.022262691"><ele>102.543</ele><time>2026-04-20T17:38:01.680Z</time><hdop>4.375</hdop><vdop>4.437</vdop><extensions><gom:speed>0.362</gom:speed></extensions></trkpt>
   <trkpt lat="59.0691803696" lon="30.022259925"><ele>102.569</ele><time>2026-04-20T17:38:03.076Z</time><hdop>4.562</hdop><vdop>4.562</vdop><extensions><gom:speed>0.345</gom:speed></extensions></trkpt>
   <trkpt lat="59.0691806629" lon="30.0222591706"><ele>102.603</ele><time>2026-04-20T17:38:04.076Z</time><hdop>4.625</hdop><vdop>4.437</vdop><extensions><gom:speed>0.314</gom:speed></extensions></trkpt>
   <trkpt lat="59.0691809982" lon="30.0222584162"><ele>102.627</ele><time>2026-04-20T17:38:05.075Z</time><hdop>4.75</hdop><vdop>4.375</vdop><extensions><gom:speed>0.305</gom:speed></extensions></trkpt>
   <trkpt lat="59.0691811659" lon="30.0222572428"><ele>102.645</ele><time>2026-04-20T17:38:06.075Z</time><hdop>4.75</hdop><vdop>4.187</vdop><extensions><gom:speed>0.279</gom:speed></extensions></trkpt>
   <trkpt lat="59.0691812916" lon="30.0222563208"><ele>102.662</ele><time>2026-04-20T17:38:07.076Z</time><hdop>4.812</hdop><vdop>4.062</vdop><extensions><gom:speed>0.273</gom:speed></extensions></trkpt>
   <trkpt lat="59.0691812916" lon="30.0222561531"><ele>102.671</ele><time>2026-04-20T17:38:07.840Z</time><hdop>4.875</hdop><vdop>4.062</vdop><extensions><gom:speed>0.273</gom:speed></extensions></trkpt>
   <trkpt lat="59.0691816688" lon="30.0222547282"><ele>102.68</ele><time>2026-04-20T17:38:09.075Z</time><hdop>4.937</hdop><vdop>3.937</vdop><extensions><gom:speed>0.275</gom:speed></extensions></trkpt>
   <trkpt lat="59.0691818783" lon="30.0222543929"><ele>102.689</ele><time>2026-04-20T17:38:10.075Z</time><hdop>4.937</hdop><vdop>4.0</vdop><extensions><gom:speed>0.275</gom:speed></extensions></trkpt>
   <trkpt lat="59.0691823812" lon="30.022252968"><ele>102.702</ele><time>2026-04-20T17:38:11.075Z</time><hdop>5.0</hdop><vdop>3.937</vdop><extensions><gom:speed>0.268</gom:speed></extensions></trkpt>
   <trkpt lat="59.0691826746" lon="30.0222522974"><ele>102.715</ele><time>2026-04-20T17:38:12.075Z</time><hdop>5.0</hdop><vdop>3.937</vdop><extensions><gom:speed>0.283</gom:speed></extensions></trkpt>
   <trkpt lat="59.0691828841" lon="30.0222517945"><ele>102.728</ele><time>2026-04-20T17:38:13.075Z</time><hdop>5.125</hdop><vdop>4.187</vdop><extensions><gom:speed>0.302</gom:speed></extensions></trkpt>
   <trkpt lat="59.0691830937" lon="30.0222512916"><ele>102.739</ele><time>2026-04-20T17:38:14.075Z</time><hdop>5.187</hdop><vdop>4.437</vdop><extensions><gom:speed>0.324</gom:speed></extensions></trkpt>
   <trkpt lat="59.0691833871" lon="30.0222504534"><ele>102.764</ele><time>2026-04-20T17:38:15.075Z</time><hdop>5.25</hdop><vdop>4.625</vdop><extensions><gom:speed>0.342</gom:speed></extensions></trkpt>
   <trkpt lat="59.0691835966" lon="30.0222491961"><ele>102.825</ele><time>2026-04-20T17:38:16.075Z</time><hdop>5.375</hdop><vdop>4.812</vdop><extensions><gom:speed>0.341</gom:speed></extensions></trkpt>
   <trkpt lat="59.0691835966" lon="30.0222479389"><ele>102.867</ele><time>2026-04-20T17:38:17.076Z</time><hdop>5.5</hdop><vdop>4.625</vdop><extensions><gom:speed>0.324</gom:speed></extensions></trkpt>
   <trkpt lat="59.0691833871" lon="30.0222470169"><ele>102.898</ele><time>2026-04-20T17:38:18.076Z</time><hdop>5.625</hdop><vdop>4.375</vdop><extensions><gom:speed>0.287</gom:speed></extensions></trkpt>
   <trkpt lat="59.0691833871" lon="30.0222471845"><ele>102.921</ele><time>2026-04-20T17:38:19.075Z</time><hdop>5.75</hdop><vdop>4.25</vdop><extensions><gom:speed>0.277</gom:speed></extensions></trkpt>
   <trkpt lat="59.069182968" lon="30.0222467654"><ele>102.938</ele><time>2026-04-20T17:38:20.075Z</time><hdop>5.875</hdop><vdop>4.187</vdop><extensions><gom:speed>0.26</gom:speed></extensions></trkpt>
   <trkpt lat="59.0691825908" lon="30.0222461787"><ele>102.951</ele><time>2026-04-20T17:38:21.075Z</time><hdop>5.937</hdop><vdop>4.125</vdop><extensions><gom:speed>0.243</gom:speed></extensions></trkpt>
   <trkpt lat="59.0691820879" lon="30.0222461787"><ele>102.96</ele><time>2026-04-20T17:38:22.076Z</time><hdop>5.937</hdop><vdop>4.125</vdop><extensions><gom:speed>0.234</gom:speed></extensions></trkpt>
   <trkpt lat="59.069181585" lon="30.0222459272"><ele>102.973</ele><time>2026-04-20T17:38:23.075Z</time><hdop>6.0</hdop><vdop>4.062</vdop><extensions><gom:speed>0.248</gom:speed></extensions></trkpt>
   <trkpt lat="59.069181082" lon="30.0222454243"><ele>102.983</ele><time>2026-04-20T17:38:24.075Z</time><hdop>6.0</hdop><vdop>4.0</vdop><extensions><gom:speed>0.258</gom:speed></extensions></trkpt>
   <trkpt lat="59.0691809982" lon="30.0222447537"><ele>102.991</ele><time>2026-04-20T17:38:25.076Z</time><hdop>6.0</hdop><vdop>4.0</vdop><extensions><gom:speed>0.247</gom:speed></extensions></trkpt>
   <trkpt lat="59.0691808725" lon="30.0222439994"><ele>102.999</ele><time>2026-04-20T17:38:26.075Z</time><hdop>6.0</hdop><vdop>3.937</vdop><extensions><gom:speed>0.274</gom:speed></extensions></trkpt>
   <trkpt lat="59.0691811659" lon="30.0222429935"><ele>103.006</ele><time>2026-04-20T17:38:27.075Z</time><hdop>6.062</hdop><vdop>3.812</vdop><extensions><gom:speed>0.275</gom:speed></extensions></trkpt>
   <trkpt lat="59.0691812916" lon="30.0222425744"><ele>103.011</ele><time>2026-04-20T17:38:28.075Z</time><hdop>6.062</hdop><vdop>3.812</vdop><extensions><gom:speed>0.28</gom:speed></extensions></trkpt>
   <trkpt lat="59.0691813754" lon="30.0222417363"><ele>103.015</ele><time>2026-04-20T17:38:29.076Z</time><hdop>6.062</hdop><vdop>3.75</vdop><extensions><gom:speed>0.299</gom:speed></extensions></trkpt>
   <trkpt lat="59.0691812916" lon="30.0222409819"><ele>103.02</ele><time>2026-04-20T17:38:30.075Z</time><hdop>6.062</hdop><vdop>4.125</vdop><extensions><gom:speed>0.282</gom:speed></extensions></trkpt>
   <trkpt lat="59.069181082" lon="30.0222402275"><ele>103.026</ele><time>2026-04-20T17:38:31.075Z</time><hdop>6.062</hdop><vdop>4.5</vdop><extensions><gom:speed>0.268</gom:speed></extensions></trkpt>
   <trkpt lat="59.0691808725" lon="30.022239557"><ele>103.049</ele><time>2026-04-20T17:38:32.075Z</time><hdop>6.062</hdop><vdop>4.562</vdop><extensions><gom:speed>0.259</gom:speed></extensions></trkpt>
   <trkpt lat="59.0691805791" lon="30.0222398922"><ele>103.062</ele><time>2026-04-20T17:38:32.596Z</time><hdop>6.062</hdop><vdop>4.562</vdop><extensions><gom:speed>0.259</gom:speed></extensions></trkpt>
   <trkpt lat="59.0691805791" lon="30.0222391379"><ele>103.073</ele><time>2026-04-20T17:38:33.075Z</time><hdop>6.062</hdop><vdop>4.5</vdop><extensions><gom:speed>0.288</gom:speed></extensions></trkpt>
   <trkpt lat="59.0691800762" lon="30.0222389702"><ele>103.082</ele><time>2026-04-20T17:38:34.075Z</time><hdop>6.062</hdop><vdop>4.75</vdop><extensions><gom:speed>0.293</gom:speed></extensions></trkpt>
   <trkpt lat="59.0691721972" lon="30.022248358"><ele>103.093</ele><time>2026-04-20T17:38:35.076Z</time><hdop>6.687</hdop><vdop>5.0</vdop><extensions><gom:speed>0.0</gom:speed></extensions></trkpt>
   <trkpt lat="59.0691721972" lon="30.022248358"><ele>103.1</ele><time>2026-04-20T17:38:36.076Z</time><hdop>7.312</hdop><vdop>5.25</vdop><extensions><gom:speed>0.0</gom:speed></extensions></trkpt>
   <trkpt lat="59.069172281" lon="30.022248358"><ele>103.104</ele><time>2026-04-20T17:38:37.075Z</time><hdop>8.187</hdop><vdop>5.312</vdop><extensions><gom:speed>0.0</gom:speed></extensions></trkpt>
   <trkpt lat="59.069172281" lon="30.022248358"><ele>103.108</ele><time>2026-04-20T17:38:38.075Z</time><hdop>8.937</hdop><vdop>5.375</vdop><extensions><gom:speed>0.0</gom:speed></extensions></trkpt>
   <trkpt lat="59.0691723649" lon="30.022248358"><ele>103.113</ele><time>2026-04-20T17:38:39.075Z</time><hdop>9.687</hdop><vdop>5.25</vdop><extensions><gom:speed>0.0</gom:speed></extensions></trkpt>
   <trkpt lat="59.0691723649" lon="30.022248358"><ele>103.117</ele><time>2026-04-20T17:38:40.075Z</time><hdop>10.375</hdop><vdop>5.0</vdop><extensions><gom:speed>0.0</gom:speed></extensions></trkpt>
   <trkpt lat="59.0691723649" lon="30.022248358"><ele>103.121</ele><time>2026-04-20T17:38:41.075Z</time><hdop>10.312</hdop><vdop>4.937</vdop><extensions><gom:speed>0.0</gom:speed></extensions></trkpt>
   <trkpt lat="59.0691724906" lon="30.022248358"><ele>103.127</ele><time>2026-04-20T17:38:42.075Z</time><hdop>10.25</hdop><vdop>4.875</vdop><extensions><gom:speed>0.0</gom:speed></extensions></trkpt>
   <trkpt lat="59.0691724906" lon="30.022248358"><ele>103.135</ele><time>2026-04-20T17:38:43.075Z</time><hdop>10.187</hdop><vdop>4.75</vdop><extensions><gom:speed>0.0</gom:speed></extensions></trkpt>
   <trkpt lat="59.0691724906" lon="30.022248358"><ele>103.14</ele><time>2026-04-20T17:38:44.076Z</time><hdop>10.125</hdop><vdop>4.75</vdop><extensions><gom:speed>0.0</gom:speed></extensions></trkpt>
   <trkpt lat="59.0691725744" lon="30.022248358"><ele>103.147</ele><time>2026-04-20T17:38:45.075Z</time><hdop>10.062</hdop><vdop>4.687</vdop><extensions><gom:speed>0.0</gom:speed></extensions></trkpt>
   <trkpt lat="59.0691725744" lon="30.022248358"><ele>103.153</ele><time>2026-04-20T17:38:46.075Z</time><hdop>10.062</hdop><vdop>4.625</vdop><extensions><gom:speed>0.0</gom:speed></extensions></trkpt>
   <trkpt lat="59.0691726582" lon="30.022248358"><ele>103.161</ele><time>2026-04-20T17:38:47.076Z</time><hdop>10.062</hdop><vdop>4.625</vdop><extensions><gom:speed>0.0</gom:speed></extensions></trkpt>
   <trkpt lat="59.069172784" lon="30.022248358"><ele>103.17</ele><time>2026-04-20T17:38:48.076Z</time><hdop>10.062</hdop><vdop>4.812</vdop><extensions><gom:speed>0.0</gom:speed></extensions></trkpt>
   <trkpt lat="59.0691729935" lon="30.0222482741"><ele>103.198</ele><time>2026-04-20T17:38:49.075Z</time><hdop>10.062</hdop><vdop>4.875</vdop><extensions><gom:speed>0.0</gom:speed></extensions></trkpt>
   <trkpt lat="59.0691730773" lon="30.0222481903"><ele>103.217</ele><time>2026-04-20T17:38:50.075Z</time><hdop>10.062</hdop><vdop>4.625</vdop><extensions><gom:speed>0.0</gom:speed></extensions></trkpt>
   <trkpt lat="59.0691731611" lon="30.0222481903"><ele>103.228</ele><time>2026-04-20T17:38:51.076Z</time><hdop>10.062</hdop><vdop>4.5</vdop><extensions><gom:speed>0.0</gom:speed></extensions></trkpt>
   <trkpt lat="59.0691731611" lon="30.0222480227"><ele>103.237</ele><time>2026-04-20T17:38:52.075Z</time><hdop>10.062</hdop><vdop>4.375</vdop><extensions><gom:speed>0.0</gom:speed></extensions></trkpt>
   <trkpt lat="59.0691732869" lon="30.0222480227"><ele>103.245</ele><time>2026-04-20T17:38:53.075Z</time><hdop>10.062</hdop><vdop>4.562</vdop><extensions><gom:speed>0.0</gom:speed></extensions></trkpt>
   <trkpt lat="59.0691732869" lon="30.0222479389"><ele>103.251</ele><time>2026-04-20T17:38:54.075Z</time><hdop>10.062</hdop><vdop>4.562</vdop><extensions><gom:speed>0.0</gom:speed></extensions></trkpt>
   <trkpt lat="59.0691732869" lon="30.0222479389"><ele>103.258</ele><time>2026-04-20T17:38:55.075Z</time><hdop>10.0</hdop><vdop>4.5</vdop><extensions><gom:speed>0.0</gom:speed></extensions></trkpt>
   <trkpt lat="59.0691733707" lon="30.022247855"><ele>103.265</ele><time>2026-04-20T17:38:56.075Z</time><hdop>10.062</hdop><vdop>4.625</vdop><extensions><gom:speed>0.0</gom:speed></extensions></trkpt>
   <trkpt lat="59.0691733707" lon="30.022247855"><ele>103.272</ele><time>2026-04-20T17:38:57.076Z</time><hdop>10.062</hdop><vdop>4.5</vdop><extensions><gom:speed>0.0</gom:speed></extensions></trkpt>
   <trkpt lat="59.0691733707" lon="30.0222477712"><ele>103.279</ele><time>2026-04-20T17:38:58.075Z</time><hdop>10.062</hdop><vdop>4.312</vdop><extensions><gom:speed>0.0</gom:speed></extensions></trkpt>
   <trkpt lat="59.0691733707" lon="30.0222477712"><ele>103.286</ele><time>2026-04-20T17:38:59.076Z</time><hdop>10.0</hdop><vdop>4.0</vdop><extensions><gom:speed>0.0</gom:speed></extensions></trkpt>
   <trkpt lat="59.0691734964" lon="30.0222476874"><ele>103.292</ele><time>2026-04-20T17:39:00.075Z</time><hdop>10.0</hdop><vdop>3.875</vdop><extensions><gom:speed>0.0</gom:speed></extensions></trkpt>
   <trkpt lat="59.0691734964" lon="30.0222476874"><ele>103.299</ele><time>2026-04-20T17:39:01.075Z</time><hdop>10.0</hdop><vdop>3.812</vdop><extensions><gom:speed>0.0</gom:speed></extensions></trkpt>
   <trkpt lat="59.0691734964" lon="30.0222475198"><ele>103.304</ele><time>2026-04-20T17:39:02.075Z</time><hdop>9.937</hdop><vdop>3.875</vdop><extensions><gom:speed>0.0</gom:speed></extensions></trkpt>
   <trkpt lat="59.0691735802" lon="30.0222475198"><ele>103.313</ele><time>2026-04-20T17:39:03.075Z</time><hdop>9.937</hdop><vdop>3.937</vdop><extensions><gom:speed>0.0</gom:speed></extensions></trkpt>
   <trkpt lat="59.0691735802" lon="30.0222475198"><ele>103.32</ele><time>2026-04-20T17:39:04.075Z</time><hdop>9.937</hdop><vdop>4.062</vdop><extensions><gom:speed>0.0</gom:speed></extensions></trkpt>
   <trkpt lat="59.0691735802" lon="30.0222474359"><ele>103.326</ele><time>2026-04-20T17:39:05.075Z</time><hdop>9.937</hdop><vdop>4.062</vdop><extensions><gom:speed>0.0</gom:speed></extensions></trkpt>
   <trkpt lat="59.0691864884" lon="30.0222443346"><ele>104.868</ele><time>2026-04-20T17:39:06.075Z</time><hdop>9.937</hdop><vdop>3.687</vdop><extensions><gom:speed>0.0</gom:speed></extensions></trkpt>
   <trkpt lat="59.0691954989" lon="30.0222373777"><ele>108.351</ele><time>2026-04-20T17:39:07.075Z</time><hdop>9.937</hdop><vdop>3.437</vdop><extensions><gom:speed>0.0</gom:speed></extensions></trkpt>
   <trkpt lat="59.0692126818" lon="30.0222290796"><ele>111.262</ele><time>2026-04-20T17:39:08.075Z</time><hdop>9.937</hdop><vdop>4.562</vdop><extensions><gom:speed>0.0</gom:speed></extensions></trkpt>
   <trkpt lat="59.0692234945" lon="30.0222264812"><ele>113.27</ele><time>2026-04-20T17:39:09.075Z</time><hdop>10.0</hdop><vdop>4.687</vdop><extensions><gom:speed>0.0</gom:speed></extensions></trkpt>
   <trkpt lat="59.0692311639" lon="30.0222260621"><ele>114.836</ele><time>2026-04-20T17:39:10.076Z</time><hdop>10.125</hdop><vdop>4.812</vdop><extensions><gom:speed>0.0</gom:speed></extensions></trkpt>
   <trkpt lat="59.0692360673" lon="30.0222262297"><ele>115.837</ele><time>2026-04-20T17:39:11.075Z</time><hdop>10.187</hdop><vdop>4.937</vdop><extensions><gom:speed>0.0</gom:speed></extensions></trkpt>
   <trkpt lat="59.0692389591" lon="30.0222282414"><ele>116.069</ele><time>2026-04-20T17:39:12.075Z</time><hdop>10.25</hdop><vdop>4.812</vdop><extensions><gom:speed>0.0</gom:speed></extensions></trkpt>
   <trkpt lat="59.0692392944" lon="30.0222319294"><ele>115.741</ele><time>2026-04-20T17:39:13.075Z</time><hdop>10.375</hdop><vdop>4.812</vdop><extensions><gom:speed>0.0</gom:speed></extensions></trkpt>
   <trkpt lat="59.0692367798" lon="30.0222355336"><ele>114.77</ele><time>2026-04-20T17:39:14.075Z</time><hdop>10.375</hdop><vdop>4.812</vdop><extensions><gom:speed>0.0</gom:speed></extensions></trkpt>
   <trkpt lat="59.0692332594" lon="30.0222387188"><ele>113.534</ele><time>2026-04-20T17:39:15.075Z</time><hdop>10.375</hdop><vdop>4.687</vdop><extensions><gom:speed>0.0</gom:speed></extensions></trkpt>
   <trkpt lat="59.0692287751" lon="30.0222407304"><ele>112.223</ele><time>2026-04-20T17:39:16.075Z</time><hdop>10.375</hdop><vdop>4.562</vdop><extensions><gom:speed>0.0</gom:speed></extensions></trkpt>
   <trkpt lat="59.0692254642" lon="30.0222424906"><ele>111.175</ele><time>2026-04-20T17:39:17.076Z</time><hdop>10.312</hdop><vdop>4.75</vdop><extensions><gom:speed>0.0</gom:speed></extensions></trkpt>
   <trkpt lat="59.0692233687" lon="30.022244167"><ele>110.349</ele><time>2026-04-20T17:39:18.075Z</time><hdop>10.312</hdop><vdop>5.0</vdop><extensions><gom:speed>0.0</gom:speed></extensions></trkpt>
   <trkpt lat="59.0692228658" lon="30.0222447537"><ele>109.908</ele><time>2026-04-20T17:39:19.075Z</time><hdop>10.312</hdop><vdop>4.875</vdop><extensions><gom:speed>0.0</gom:speed></extensions></trkpt>
   <trkpt lat="59.0692224886" lon="30.0222449214"><ele>109.673</ele><time>2026-04-20T17:39:20.075Z</time><hdop>10.312</hdop><vdop>4.875</vdop><extensions><gom:speed>0.0</gom:speed></extensions></trkpt>
   <trkpt lat="59.0692222791" lon="30.0222449214"><ele>109.563</ele><time>2026-04-20T17:39:21.075Z</time><hdop>10.375</hdop><vdop>5.125</vdop><extensions><gom:speed>0.0</gom:speed></extensions></trkpt>
   <trkpt lat="59.0692210637" lon="30.0222460948"><ele>109.26</ele><time>2026-04-20T17:39:22.075Z</time><hdop>10.375</hdop><vdop>5.062</vdop><extensions><gom:speed>0.0</gom:speed></extensions></trkpt>
   <trkpt lat="59.0692198902" lon="30.0222471845"><ele>108.931</ele><time>2026-04-20T17:39:23.075Z</time><hdop>10.375</hdop><vdop>4.937</vdop><extensions><gom:speed>0.0</gom:speed></extensions></trkpt>
   <trkpt lat="59.0692188844" lon="30.0222479389"><ele>108.634</ele><time>2026-04-20T17:39:24.075Z</time><hdop>10.375</hdop><vdop>4.937</vdop><extensions><gom:speed>0.0</gom:speed></extensions></trkpt>
   <trkpt lat="59.0692183815" lon="30.0222482741"><ele>108.461</ele><time>2026-04-20T17:39:25.075Z</time><hdop>10.312</hdop><vdop>4.875</vdop><extensions><gom:speed>0.0</gom:speed></extensions></trkpt>
   <trkpt lat="59.069218172" lon="30.022248358"><ele>108.355</ele><time>2026-04-20T17:39:26.076Z</time><hdop>10.312</hdop><vdop>4.937</vdop><extensions><gom:speed>0.0</gom:speed></extensions></trkpt>
   <trkpt lat="59.0692182977" lon="30.0222482741"><ele>108.312</ele><time>2026-04-20T17:39:27.075Z</time><hdop>10.25</hdop><vdop>5.0</vdop><extensions><gom:speed>0.0</gom:speed></extensions></trkpt>
   <trkpt lat="59.069218172" lon="30.0222481903"><ele>108.273</ele><time>2026-04-20T17:39:28.075Z</time><hdop>10.25</hdop><vdop>5.062</vdop><extensions><gom:speed>0.0</gom:speed></extensions></trkpt>
   <trkpt lat="59.069218172" lon="30.0222481903"><ele>108.249</ele><time>2026-04-20T17:39:29.075Z</time><hdop>10.25</hdop><vdop>5.125</vdop><extensions><gom:speed>0.0</gom:speed></extensions></trkpt>
   <trkpt lat="59.069218172" lon="30.0222481903"><ele>108.234</ele><time>2026-04-20T17:39:30.075Z</time><hdop>10.312</hdop><vdop>5.312</vdop><extensions><gom:speed>0.0</gom:speed></extensions></trkpt>
   <trkpt lat="59.069218172" lon="30.0222481903"><ele>108.222</ele><time>2026-04-20T17:39:31.075Z</time><hdop>10.312</hdop><vdop>5.25</vdop><extensions><gom:speed>0.0</gom:speed></extensions></trkpt>
   <trkpt lat="59.069218172" lon="30.0222480227"><ele>108.219</ele><time>2026-04-20T17:39:32.075Z</time><hdop>10.437</hdop><vdop>5.25</vdop><extensions><gom:speed>0.0</gom:speed></extensions></trkpt>
   <trkpt lat="59.0692182977" lon="30.0222480227"><ele>108.214</ele><time>2026-04-20T17:39:33.076Z</time><hdop>10.5</hdop><vdop>5.312</vdop><extensions><gom:speed>0.0</gom:speed></extensions></trkpt>
   <trkpt lat="59.0692182977" lon="30.0222480227"><ele>108.212</ele><time>2026-04-20T17:39:34.075Z</time><hdop>10.5</hdop><vdop>5.125</vdop><extensions><gom:speed>0.0</gom:speed></extensions></trkpt>
   <trkpt lat="59.0692182977" lon="30.0222479389"><ele>108.21</ele><time>2026-04-20T17:39:35.075Z</time><hdop>10.562</hdop><vdop>5.187</vdop><extensions><gom:speed>0.0</gom:speed></extensions></trkpt>
   <trkpt lat="59.0692184653" lon="30.022247855"><ele>108.229</ele><time>2026-04-20T17:39:36.075Z</time><hdop>10.562</hdop><vdop>5.062</vdop><extensions><gom:speed>0.0</gom:speed></extensions></trkpt>
   <trkpt lat="59.0692428986" lon="30.0222299178"><ele>108.871</ele><time>2026-04-20T17:39:37.076Z</time><hdop>10.437</hdop><vdop>3.625</vdop><extensions><gom:speed>0.519</gom:speed></extensions></trkpt>
   <trkpt lat="59.0692657812" lon="30.0222103879"><ele>109.679</ele><time>2026-04-20T17:39:38.075Z</time><hdop>10.312</hdop><vdop>3.125</vdop><extensions><gom:speed>0.529</gom:speed></extensions></trkpt>
   <trkpt lat="59.069277893" lon="30.0221948814"><ele>109.301</ele><time>2026-04-20T17:39:39.075Z</time><hdop>10.187</hdop><vdop>2.75</vdop><extensions><gom:speed>0.169</gom:speed></extensions></trkpt>
   <trkpt lat="59.0692854786" lon="30.0221829791"><ele>108.411</ele><time>2026-04-20T17:39:40.075Z</time><hdop>10.125</hdop><vdop>2.812</vdop><extensions><gom:speed>0.249</gom:speed></extensions></trkpt>
   <trkpt lat="59.0692950759" lon="30.0221634493"><ele>107.487</ele><time>2026-04-20T17:39:41.075Z</time><hdop>10.0</hdop><vdop>2.875</vdop><extensions><gom:speed>0.959</gom:speed></extensions></trkpt>
   <trkpt lat="59.0693051761" lon="30.0221471884"><ele>107.109</ele><time>2026-04-20T17:39:42.075Z</time><hdop>9.875</hdop><vdop>3.062</vdop><extensions><gom:speed>0.709</gom:speed></extensions></trkpt>
   <trkpt lat="59.0693028711" lon="30.0221675564"><ele>107.143</ele><time>2026-04-20T17:39:43.075Z</time><hdop>9.125</hdop><vdop>3.125</vdop><extensions><gom:speed>0.646</gom:speed></extensions></trkpt>
   <trkpt lat="59.0693067687" lon="30.0221652933"><ele>107.164</ele><time>2026-04-20T17:39:43.681Z</time><hdop>8.375</hdop><vdop>3.125</vdop><extensions><gom:speed>0.653</gom:speed></extensions></trkpt>
   <trkpt lat="59.0693162821" lon="30.0221550674"><ele>106.836</ele><time>2026-04-20T17:39:45.075Z</time><hdop>7.312</hdop><vdop>3.125</vdop><extensions><gom:speed>0.547</gom:speed></extensions></trkpt>
   <trkpt lat="59.0693184614" lon="30.0221526366"><ele>106.64</ele><time>2026-04-20T17:39:45.794Z</time><hdop>6.687</hdop><vdop>3.125</vdop><extensions><gom:speed>0.431</gom:speed></extensions></trkpt>
   <trkpt lat="59.069320976" lon="30.0221474398"><ele>106.498</ele><time>2026-04-20T17:39:46.866Z</time><hdop>6.375</hdop><vdop>2.937</vdop><extensions><gom:speed>0.395</gom:speed></extensions></trkpt>
   <trkpt lat="59.0693273882" lon="30.0221415725"><ele>106.463</ele><time>2026-04-20T17:39:48.033Z</time><hdop>5.375</hdop><vdop>2.812</vdop><extensions><gom:speed>0.342</gom:speed></extensions></trkpt>
   <trkpt lat="59.06933116" lon="30.0221349508"><ele>106.55</ele><time>2026-04-20T17:39:48.942Z</time><hdop>5.25</hdop><vdop>2.75</vdop><extensions><gom:speed>0.343</gom:speed></extensions></trkpt>
   <trkpt lat="59.0693356862" lon="30.0221277424"><ele>106.795</ele><time>2026-04-20T17:39:50.037Z</time><hdop>5.187</hdop><vdop>6.312</vdop><extensions><gom:speed>0.342</gom:speed></extensions></trkpt>
   <trkpt lat="59.0693394581" lon="30.0221226294"><ele>107.0</ele><time>2026-04-20T17:39:51.075Z</time><hdop>5.125</hdop><vdop>6.0</vdop><extensions><gom:speed>0.335</gom:speed></extensions></trkpt>
   <trkpt lat="59.0693424756" lon="30.0221192766"><ele>106.857</ele><time>2026-04-20T17:39:51.959Z</time><hdop>5.062</hdop><vdop>5.875</vdop><extensions><gom:speed>0.366</gom:speed></extensions></trkpt>
   <trkpt lat="59.0693472952" lon="30.0221151695"><ele>107.036</ele><time>2026-04-20T17:39:53.076Z</time><hdop>5.125</hdop><vdop>5.812</vdop><extensions><gom:speed>0.376</gom:speed></extensions></trkpt>
   <trkpt lat="59.069351989" lon="30.0221104756"><ele>107.294</ele><time>2026-04-20T17:39:54.075Z</time><hdop>5.187</hdop><vdop>5.625</vdop><extensions><gom:speed>0.396</gom:speed></extensions></trkpt>
   <trkpt lat="59.0693566829" lon="30.022104776"><ele>107.544</ele><time>2026-04-20T17:39:55.039Z</time><hdop>5.25</hdop><vdop>5.5</vdop><extensions><gom:speed>0.438</gom:speed></extensions></trkpt>
   <trkpt lat="59.0693632627" lon="30.0220989924"><ele>107.794</ele><time>2026-04-20T17:39:56.076Z</time><hdop>5.312</hdop><vdop>5.187</vdop><extensions><gom:speed>0.479</gom:speed></extensions></trkpt>
   <trkpt lat="59.0693669927" lon="30.0220961426"><ele>108.038</ele><time>2026-04-20T17:39:56.935Z</time><hdop>5.375</hdop><vdop>4.937</vdop><extensions><gom:speed>0.443</gom:speed></extensions></trkpt>
   <trkpt lat="59.0693693815" lon="30.0220940471"><ele>108.184</ele><time>2026-04-20T17:39:57.619Z</time><hdop>5.375</hdop><vdop>4.937</vdop><extensions><gom:speed>0.45</gom:speed></extensions></trkpt>
   <trkpt lat="59.069372399" lon="30.0220933766"><ele>108.096</ele><time>2026-04-20T17:39:58.075Z</time><hdop>5.375</hdop><vdop>4.937</vdop><extensions><gom:speed>0.438</gom:speed></extensions></trkpt>
   <trkpt lat="59.069378392" lon="30.0220928737"><ele>108.335</ele><time>2026-04-20T17:39:59.075Z</time><hdop>5.437</hdop><vdop>5.062</vdop><extensions><gom:speed>0.443</gom:speed></extensions></trkpt>
   <trkpt lat="59.0693814933" lon="30.0220935442"><ele>108.479</ele><time>2026-04-20T17:39:59.748Z</time><hdop>5.437</hdop><vdop>5.062</vdop><extensions><gom:speed>0.34</gom:speed></extensions></trkpt>
   <trkpt lat="59.0693852652" lon="30.0220928737"><ele>108.67</ele><time>2026-04-20T17:40:01.054Z</time><hdop>5.437</hdop><vdop>5.187</vdop><extensions><gom:speed>0.293</gom:speed></extensions></trkpt>
   <trkpt lat="59.0693885761" lon="30.0220921193"><ele>108.828</ele><time>2026-04-20T17:40:02.002Z</time><hdop>5.5</hdop><vdop>5.375</vdop><extensions><gom:speed>0.361</gom:speed></extensions></trkpt>
   <trkpt lat="59.069393689" lon="30.0220940471"><ele>108.984</ele><time>2026-04-20T17:40:02.821Z</time><hdop>5.5</hdop><vdop>5.375</vdop><extensions><gom:speed>0.393</gom:speed></extensions></trkpt>
   <trkpt lat="59.06939788" lon="30.0220951368"><ele>108.942</ele><time>2026-04-20T17:40:03.741Z</time><hdop>5.625</hdop><vdop>5.25</vdop><extensions><gom:speed>0.435</gom:speed></extensions></trkpt>
   <trkpt lat="59.0694028672" lon="30.0220949691"><ele>109.018</ele><time>2026-04-20T17:40:04.775Z</time><hdop>5.812</hdop><vdop>5.187</vdop><extensions><gom:speed>0.463</gom:speed></extensions></trkpt>
   <trkpt lat="59.0694050884" lon="30.0220952206"><ele>108.888</ele><time>2026-04-20T17:40:05.351Z</time><hdop>5.812</hdop><vdop>5.25</vdop><extensions><gom:speed>0.455</gom:speed></extensions></trkpt>
   <trkpt lat="59.0694099918" lon="30.022093628"><ele>108.82</ele><time>2026-04-20T17:40:05.937Z</time><hdop>5.937</hdop><vdop>5.687</vdop><extensions><gom:speed>0.458</gom:speed></extensions></trkpt>
   <trkpt lat="59.0694129674" lon="30.0220925384"><ele>108.779</ele><time>2026-04-20T17:40:06.686Z</time><hdop>6.0</hdop><vdop>5.687</vdop><extensions><gom:speed>0.512</gom:speed></extensions></trkpt>
   <trkpt lat="59.0694179965" lon="30.0220924546"><ele>108.675</ele><time>2026-04-20T17:40:07.699Z</time><hdop>6.187</hdop><vdop>5.875</vdop><extensions><gom:speed>0.518</gom:speed></extensions></trkpt>
   <trkpt lat="59.0694232771" lon="30.0220938795"><ele>108.429</ele><time>2026-04-20T17:40:08.843Z</time><hdop>6.437</hdop><vdop>6.0</vdop><extensions><gom:speed>0.508</gom:speed></extensions></trkpt>
   <trkpt lat="59.069425666" lon="30.0220976513"><ele>108.141</ele><time>2026-04-20T17:40:09.883Z</time><hdop>6.562</hdop><vdop>6.125</vdop><extensions><gom:speed>0.504</gom:speed></extensions></trkpt>
   <trkpt lat="59.0694328744" lon="30.0221000821"><ele>108.438</ele><time>2026-04-20T17:40:11.033Z</time><hdop>6.562</hdop><vdop>4.812</vdop><extensions><gom:speed>0.508</gom:speed></extensions></trkpt>
   <trkpt lat="59.0694388675" lon="30.0221030996"><ele>110.629</ele><time>2026-04-20T17:40:11.623Z</time><hdop>6.437</hdop><vdop>3.687</vdop><extensions><gom:speed>0.5</gom:speed></extensions></trkpt>
   <trkpt lat="59.0694498897" lon="30.0221040216"><ele>112.595</ele><time>2026-04-20T17:40:12.075Z</time><hdop>6.312</hdop><vdop>3.25</vdop><extensions><gom:speed>0.5</gom:speed></extensions></trkpt>
   <trkpt lat="59.0694570981" lon="30.0221027643"><ele>113.769</ele><time>2026-04-20T17:40:12.999Z</time><hdop>6.187</hdop><vdop>3.25</vdop><extensions><gom:speed>0.555</gom:speed></extensions></trkpt>
   <trkpt lat="59.0694709702" lon="30.0221028481"><ele>114.848</ele><time>2026-04-20T17:40:13.838Z</time><hdop>6.0</hdop><vdop>3.125</vdop><extensions><gom:speed>0.652</gom:speed></extensions></trkpt>
   <trkpt lat="59.0694866862" lon="30.0221040216"><ele>114.558</ele><time>2026-04-20T17:40:14.755Z</time><hdop>5.687</hdop><vdop>3.125</vdop><extensions><gom:speed>0.726</gom:speed></extensions></trkpt>
   <trkpt lat="59.0695016898" lon="30.0221069552"><ele>114.566</ele><time>2026-04-20T17:40:15.750Z</time><hdop>5.5</hdop><vdop>6.875</vdop><extensions><gom:speed>0.687</gom:speed></extensions></trkpt>
   <trkpt lat="59.0695149752" lon="30.022109386"><ele>114.43</ele><time>2026-04-20T17:40:16.740Z</time><hdop>5.312</hdop><vdop>6.75</vdop><extensions><gom:speed>0.671</gom:speed></extensions></trkpt>
   <trkpt lat="59.0695267936" lon="30.0221091345"><ele>114.12</ele><time>2026-04-20T17:40:17.601Z</time><hdop>5.187</hdop><vdop>6.437</vdop><extensions><gom:speed>0.691</gom:speed></extensions></trkpt>
   <trkpt lat="59.0695359718" lon="30.0221082964"><ele>113.258</ele><time>2026-04-20T17:40:18.634Z</time><hdop>5.125</hdop><vdop>6.187</vdop><extensions><gom:speed>0.674</gom:speed></extensions></trkpt>
   <trkpt lat="59.0695461977" lon="30.0221097213"><ele>112.7</ele><time>2026-04-20T17:40:19.661Z</time><hdop>5.062</hdop><vdop>5.812</vdop><extensions><gom:speed>0.663</gom:speed></extensions></trkpt>
   <trkpt lat="59.06955349" lon="30.0221088831"><ele>112.085</ele><time>2026-04-20T17:40:20.660Z</time><hdop>5.125</hdop><vdop>5.5</vdop><extensions><gom:speed>0.67</gom:speed></extensions></trkpt>
   <trkpt lat="59.069562291" lon="30.0221103918"><ele>111.835</ele><time>2026-04-20T17:40:21.556Z</time><hdop>5.125</hdop><vdop>5.312</vdop><extensions><gom:speed>0.649</gom:speed></extensions></trkpt>
   <trkpt lat="59.0695658952" lon="30.0221092184"><ele>111.191</ele><time>2026-04-20T17:40:22.047Z</time><hdop>5.187</hdop><vdop>5.375</vdop><extensions><gom:speed>0.664</gom:speed></extensions></trkpt>
   <trkpt lat="59.0695686612" lon="30.0221072905"><ele>110.806</ele><time>2026-04-20T17:40:22.516Z</time><hdop>5.25</hdop><vdop>5.375</vdop><extensions><gom:speed>0.657</gom:speed></extensions></trkpt>
   <trkpt lat="59.0695717625" lon="30.0221044407"><ele>110.273</ele><time>2026-04-20T17:40:22.994Z</time><hdop>5.312</hdop><vdop>5.25</vdop><extensions><gom:speed>0.655</gom:speed></extensions></trkpt>
   <trkpt lat="59.0695751991" lon="30.0221007526"><ele>109.954</ele><time>2026-04-20T17:40:23.859Z</time><hdop>5.375</hdop><vdop>5.25</vdop><extensions><gom:speed>0.562</gom:speed></extensions></trkpt>
   <trkpt lat="59.069581276" lon="30.0221036863"><ele>109.449</ele><time>2026-04-20T17:40:25.075Z</time><hdop>5.562</hdop><vdop>5.312</vdop><extensions><gom:speed>0.468</gom:speed></extensions></trkpt>
   <trkpt lat="59.0695846707" lon="30.0221063685"><ele>108.923</ele><time>2026-04-20T17:40:25.957Z</time><hdop>5.562</hdop><vdop>5.25</vdop><extensions><gom:speed>0.449</gom:speed></extensions></trkpt>
   <trkpt lat="59.0695884844" lon="30.022105698"><ele>108.528</ele><time>2026-04-20T17:40:27.022Z</time><hdop>5.687</hdop><vdop>4.937</vdop><extensions><gom:speed>0.428</gom:speed></extensions></trkpt>
   <trkpt lat="59.0695899932" lon="30.022104273"><ele>108.291</ele><time>2026-04-20T17:40:27.577Z</time><hdop>5.812</hdop><vdop>4.937</vdop><extensions><gom:speed>0.39</gom:speed></extensions></trkpt>
   <trkpt lat="59.0695938908" lon="30.0220989924"><ele>108.0</ele><time>2026-04-20T17:40:28.860Z</time><hdop>5.937</hdop><vdop>4.937</vdop><extensions><gom:speed>0.414</gom:speed></extensions></trkpt>
   <trkpt lat="59.0695961958" lon="30.0220951368"><ele>107.748</ele><time>2026-04-20T17:40:29.983Z</time><hdop>6.062</hdop><vdop>4.75</vdop><extensions><gom:speed>0.294</gom:speed></extensions></trkpt>
   <trkpt lat="59.0695950642" lon="30.0221022614"><ele>107.573</ele><time>2026-04-20T17:40:31.075Z</time><hdop>6.25</hdop><vdop>4.687</vdop><extensions><gom:speed>0.234</gom:speed></extensions></trkpt>
   <trkpt lat="59.0695954833" lon="30.0221065362"><ele>107.492</ele><time>2026-04-20T17:40:31.997Z</time><hdop>6.312</hdop><vdop>4.687</vdop><extensions><gom:speed>0.237</gom:speed></extensions></trkpt>
   <trkpt lat="59.0695964892" lon="30.0221083802"><ele>107.436</ele><time>2026-04-20T17:40:32.944Z</time><hdop>6.375</hdop><vdop>4.5</vdop><extensions><gom:speed>0.234</gom:speed></extensions></trkpt>
   <trkpt lat="59.0695964892" lon="30.0221138284"><ele>107.402</ele><time>2026-04-20T17:40:34.075Z</time><hdop>6.312</hdop><vdop>4.5</vdop><extensions><gom:speed>0.224</gom:speed></extensions></trkpt>
   <trkpt lat="59.0695979979" lon="30.0221178517"><ele>107.388</ele><time>2026-04-20T17:40:35.076Z</time><hdop>6.125</hdop><vdop>4.375</vdop><extensions><gom:speed>0.306</gom:speed></extensions></trkpt>
   <trkpt lat="59.0695986685" lon="30.0221176841"><ele>107.379</ele><time>2026-04-20T17:40:35.534Z</time><hdop>5.937</hdop><vdop>4.375</vdop><extensions><gom:speed>0.28</gom:speed></extensions></trkpt>
   <trkpt lat="59.0696001772" lon="30.0221189414"><ele>107.363</ele><time>2026-04-20T17:40:36.075Z</time><hdop>5.875</hdop><vdop>3.625</vdop><extensions><gom:speed>0.313</gom:speed></extensions></trkpt>
   <trkpt lat="59.0696043681" lon="30.0221160915"><ele>107.102</ele><time>2026-04-20T17:40:37.075Z</time><hdop>5.687</hdop><vdop>3.125</vdop><extensions><gom:speed>0.354</gom:speed></extensions></trkpt>
   <trkpt lat="59.0696095649" lon="30.0221082964"><ele>107.297</ele><time>2026-04-20T17:40:38.076Z</time><hdop>5.437</hdop><vdop>3.0</vdop><extensions><gom:speed>0.496</gom:speed></extensions></trkpt>
   <trkpt lat="59.0696166895" lon="30.022096897"><ele>106.885</ele><time>2026-04-20T17:40:39.076Z</time><hdop>5.312</hdop><vdop>2.812</vdop><extensions><gom:speed>0.552</gom:speed></extensions></trkpt>
   <trkpt lat="59.0696248619" lon="30.0220838212"><ele>106.519</ele><time>2026-04-20T17:40:40.075Z</time><hdop>5.187</hdop><vdop>4.562</vdop><extensions><gom:speed>0.579</gom:speed></extensions></trkpt>
   <trkpt lat="59.0696329923" lon="30.022070494"><ele>106.013</ele><time>2026-04-20T17:40:41.076Z</time><hdop>5.062</hdop><vdop>4.625</vdop><extensions><gom:speed>0.573</gom:speed></extensions></trkpt>
   <trkpt lat="59.0696394883" lon="30.0220568315"><ele>105.786</ele><time>2026-04-20T17:40:42.075Z</time><hdop>5.0</hdop><vdop>4.687</vdop><extensions><gom:speed>0.546</gom:speed></extensions></trkpt>
   <trkpt lat="59.0696411647" lon="30.0220539816"><ele>105.651</ele><time>2026-04-20T17:40:42.539Z</time><hdop>5.0</hdop><vdop>4.687</vdop><extensions><gom:speed>0.513</gom:speed></extensions></trkpt>
   <trkpt lat="59.0696449785" lon="30.0220444263"><ele>105.57</ele><time>2026-04-20T17:40:43.088Z</time><hdop>4.937</hdop><vdop>4.687</vdop><extensions><gom:speed>0.51</gom:speed></extensions></trkpt>
   <trkpt lat="59.069650762" lon="30.0220390618"><ele>105.817</ele><time>2026-04-20T17:40:44.076Z</time><hdop>4.937</hdop><vdop>4.75</vdop><extensions><gom:speed>0.478</gom:speed></extensions></trkpt>
   <trkpt lat="59.0696543662" lon="30.0220333621"><ele>105.964</ele><time>2026-04-20T17:40:45.020Z</time><hdop>4.875</hdop><vdop>4.75</vdop><extensions><gom:speed>0.471</gom:speed></extensions></trkpt>
   <trkpt lat="59.0696571741" lon="30.0220244773"><ele>106.248</ele><time>2026-04-20T17:40:46.075Z</time><hdop>4.812</hdop><vdop>4.812</vdop><extensions><gom:speed>0.441</gom:speed></extensions></trkpt>
   <trkpt lat="59.069660485" lon="30.0220172689"><ele>106.403</ele><time>2026-04-20T17:40:47.040Z</time><hdop>4.812</hdop><vdop>4.875</vdop><extensions><gom:speed>0.484</gom:speed></extensions></trkpt>
   <trkpt lat="59.069665095" lon="30.0220124912"><ele>106.435</ele><time>2026-04-20T17:40:48.075Z</time><hdop>4.812</hdop><vdop>5.0</vdop><extensions><gom:speed>0.448</gom:speed></extensions></trkpt>
   <trkpt lat="59.0696665619" lon="30.0220109825"><ele>106.454</ele><time>2026-04-20T17:40:48.700Z</time><hdop>4.812</hdop><vdop>5.0</vdop><extensions><gom:speed>0.395</gom:speed></extensions></trkpt>
   <trkpt lat="59.0696695794" lon="30.0220102281"><ele>106.474</ele><time>2026-04-20T17:40:49.639Z</time><hdop>4.875</hdop><vdop>5.0</vdop><extensions><gom:speed>0.337</gom:speed></extensions></trkpt>
   <trkpt lat="59.0696722616" lon="30.0220132456"><ele>106.324</ele><time>2026-04-20T17:40:50.775Z</time><hdop>4.875</hdop><vdop>5.0</vdop><extensions><gom:speed>0.248</gom:speed></extensions></trkpt>
   <trkpt lat="59.0696721777" lon="30.0220151734"><ele>106.105</ele><time>2026-04-20T17:40:51.577Z</time><hdop>4.937</hdop><vdop>4.875</vdop><extensions><gom:speed>0.146</gom:speed></extensions></trkpt>
   <trkpt lat="59.0696705852" lon="30.0220180233"><ele>105.914</ele><time>2026-04-20T17:40:52.963Z</time><hdop>5.0</hdop><vdop>4.625</vdop><extensions><gom:speed>0.128</gom:speed></extensions></trkpt>
   <trkpt lat="59.0696695794" lon="30.0220187776"><ele>105.706</ele><time>2026-04-20T17:40:54.029Z</time><hdop>5.062</hdop><vdop>4.562</vdop><extensions><gom:speed>0.12</gom:speed></extensions></trkpt>
   <trkpt lat="59.0696695794" lon="30.0220193644"><ele>105.581</ele><time>2026-04-20T17:40:54.556Z</time><hdop>5.125</hdop><vdop>4.562</vdop><extensions><gom:speed>0.063</gom:speed></extensions></trkpt>
   <trkpt lat="59.0696702918" lon="30.0220209569"><ele>105.396</ele><time>2026-04-20T17:40:55.075Z</time><hdop>5.125</hdop><vdop>4.562</vdop><extensions><gom:speed>0.106</gom:speed></extensions></trkpt>
   <trkpt lat="59.0696704595" lon="30.0220223818"><ele>105.287</ele><time>2026-04-20T17:40:56.043Z</time><hdop>5.187</hdop><vdop>4.562</vdop><extensions><gom:speed>0.127</gom:speed></extensions></trkpt>
   <trkpt lat="59.0696710881" lon="30.0220234715"><ele>105.158</ele><time>2026-04-20T17:40:56.990Z</time><hdop>5.25</hdop><vdop>4.437</vdop><extensions><gom:speed>0.094</gom:speed></extensions></trkpt>
   <trkpt lat="59.0696711719" lon="30.0220223818"><ele>105.081</ele><time>2026-04-20T17:40:57.500Z</time><hdop>5.312</hdop><vdop>4.437</vdop><extensions><gom:speed>0.083</gom:speed></extensions></trkpt>
   <trkpt lat="59.069671591" lon="30.022022298"><ele>105.052</ele><time>2026-04-20T17:40:59.005Z</time><hdop>5.375</hdop><vdop>4.312</vdop><extensions><gom:speed>0.176</gom:speed></extensions></trkpt>
   <trkpt lat="59.0696721777" lon="30.0220217951"><ele>105.058</ele><time>2026-04-20T17:40:59.953Z</time><hdop>5.437</hdop><vdop>4.375</vdop><extensions><gom:speed>0.169</gom:speed></extensions></trkpt>
   <trkpt lat="59.0696728902" lon="30.0220210407"><ele>105.029</ele><time>2026-04-20T17:41:01.075Z</time><hdop>5.437</hdop><vdop>4.5</vdop><extensions><gom:speed>0.116</gom:speed></extensions></trkpt>
   <trkpt lat="59.069672974" lon="30.0220205378"><ele>104.994</ele><time>2026-04-20T17:41:01.966Z</time><hdop>5.5</hdop><vdop>4.562</vdop><extensions><gom:speed>0.093</gom:speed></extensions></trkpt>
   <trkpt lat="59.0696735608" lon="30.0220211246"><ele>104.992</ele><time>2026-04-20T17:41:03.031Z</time><hdop>5.625</hdop><vdop>4.375</vdop><extensions><gom:speed>0.082</gom:speed></extensions></trkpt>
   <trkpt lat="59.0696742732" lon="30.0220217951"><ele>104.991</ele><time>2026-04-20T17:41:03.676Z</time><hdop>5.687</hdop><vdop>4.375</vdop><extensions><gom:speed>0.08</gom:speed></extensions></trkpt>
   <trkpt lat="59.069675279" lon="30.0220234715"><ele>105.017</ele><time>2026-04-20T17:41:04.802Z</time><hdop>5.812</hdop><vdop>4.25</vdop><extensions><gom:speed>0.101</gom:speed></extensions></trkpt>
   <trkpt lat="59.0696759915" lon="30.0220231362"><ele>105.033</ele><time>2026-04-20T17:41:06.015Z</time><hdop>5.937</hdop><vdop>4.312</vdop><extensions><gom:speed>0.121</gom:speed></extensions></trkpt>
   <trkpt lat="59.0696816912" lon="30.0220186938"><ele>105.989</ele><time>2026-04-20T17:41:07.062Z</time><hdop>5.937</hdop><vdop>3.437</vdop><extensions><gom:speed>0.175</gom:speed></extensions></trkpt>
   <trkpt lat="59.069691498" lon="30.022006121"><ele>106.201</ele><time>2026-04-20T17:41:08.001Z</time><hdop>5.875</hdop><vdop>2.687</vdop><extensions><gom:speed>0.263</gom:speed></extensions></trkpt>
   <trkpt lat="59.0697027717" lon="30.0219849986"><ele>106.114</ele><time>2026-04-20T17:41:09.075Z</time><hdop>5.687</hdop><vdop>2.5</vdop><extensions><gom:speed>0.323</gom:speed></extensions></trkpt>
   <trkpt lat="59.0697088905" lon="30.0219689891"><ele>105.479</ele><time>2026-04-20T17:41:10.075Z</time><hdop>5.437</hdop><vdop>2.5</vdop><extensions><gom:speed>0.353</gom:speed></extensions></trkpt>
   <trkpt lat="59.0697133748" lon="30.021955159"><ele>105.49</ele><time>2026-04-20T17:41:11.075Z</time><hdop>5.187</hdop><vdop>2.5</vdop><extensions><gom:speed>0.344</gom:speed></extensions></trkpt>
   <trkpt lat="59.0697150931" lon="30.021949124"><ele>105.497</ele><time>2026-04-20T17:41:11.939Z</time><hdop>5.0</hdop><vdop>2.5</vdop><extensions><gom:speed>0.294</gom:speed></extensions></trkpt>
   <trkpt lat="59.0697208766" lon="30.0219367188"><ele>105.003</ele><time>2026-04-20T17:41:13.076Z</time><hdop>4.625</hdop><vdop>2.5</vdop><extensions><gom:speed>0.233</gom:speed></extensions></trkpt>
   <trkpt lat="59.06972578" lon="30.0219277502"><ele>105.055</ele><time>2026-04-20T17:41:14.076Z</time><hdop>4.437</hdop><vdop>2.5</vdop><extensions><gom:speed>0.225</gom:speed></extensions></trkpt>
   <trkpt lat="59.0697306834" lon="30.0219198712"><ele>105.106</ele><time>2026-04-20T17:41:15.076Z</time><hdop>4.312</hdop><vdop>2.5</vdop><extensions><gom:speed>0.203</gom:speed></extensions></trkpt>
   <trkpt lat="59.069736886" lon="30.0219112378"><ele>105.186</ele><time>2026-04-20T17:41:16.075Z</time><hdop>4.25</hdop><vdop>2.5</vdop><extensions><gom:speed>0.26</gom:speed></extensions></trkpt>
   <trkpt lat="59.0697414961" lon="30.0219067954"><ele>105.234</ele><time>2026-04-20T17:41:17.003Z</time><hdop>4.312</hdop><vdop>2.5</vdop><extensions><gom:speed>0.33</gom:speed></extensions></trkpt>
   <trkpt lat="59.0697540689" lon="30.0218962342"><ele>104.996</ele><time>2026-04-20T17:41:17.861Z</time><hdop>4.437</hdop><vdop>2.5</vdop><extensions><gom:speed>0.494</gom:speed></extensions></trkpt>
   <trkpt lat="59.069777664" lon="30.0218779617"><ele>104.228</ele><time>2026-04-20T17:41:19.075Z</time><hdop>4.625</hdop><vdop>2.5</vdop><extensions><gom:speed>0.605</gom:speed></extensions></trkpt>
   <trkpt lat="59.0697814778" lon="30.0218748603"><ele>103.769</ele><time>2026-04-20T17:41:19.615Z</time><hdop>4.812</hdop><vdop>2.5</vdop><extensions><gom:speed>0.577</gom:speed></extensions></trkpt>
   <trkpt lat="59.0697930867" lon="30.0218647182"><ele>103.485</ele><time>2026-04-20T17:41:20.076Z</time><hdop>4.875</hdop><vdop>2.5</vdop><extensions><gom:speed>0.564</gom:speed></extensions></trkpt>
   <trkpt lat="59.0698021811" lon="30.0218567554"><ele>103.386</ele><time>2026-04-20T17:41:21.075Z</time><hdop>5.0</hdop><vdop>2.5</vdop><extensions><gom:speed>0.529</gom:speed></extensions></trkpt>
   <trkpt lat="59.0698122813" lon="30.0218493794"><ele>103.396</ele><time>2026-04-20T17:41:22.075Z</time><hdop>5.062</hdop><vdop>5.312</vdop><extensions><gom:speed>0.511</gom:speed></extensions></trkpt>
   <trkpt lat="59.0698207889" lon="30.0218453561"><ele>103.43</ele><time>2026-04-20T17:41:23.075Z</time><hdop>4.875</hdop><vdop>5.5</vdop><extensions><gom:speed>0.472</gom:speed></extensions></trkpt>
   <trkpt lat="59.0698263629" lon="30.0218448531"><ele>103.621</ele><time>2026-04-20T17:41:23.999Z</time><hdop>4.687</hdop><vdop>5.25</vdop><extensions><gom:speed>0.48</gom:speed></extensions></trkpt>
   <trkpt lat="59.0698328588" lon="30.0218480383"><ele>103.828</ele><time>2026-04-20T17:41:25.076Z</time><hdop>4.437</hdop><vdop>5.0</vdop><extensions><gom:speed>0.477</gom:speed></extensions></trkpt>
   <trkpt lat="59.06983508" lon="30.0218493794"><ele>103.951</ele><time>2026-04-20T17:41:25.775Z</time><hdop>4.312</hdop><vdop>5.0</vdop><extensions><gom:speed>0.491</gom:speed></extensions></trkpt>
   <trkpt lat="59.0698445935" lon="30.0218566716"><ele>104.077</ele><time>2026-04-20T17:41:27.076Z</time><hdop>4.187</hdop><vdop>4.75</vdop><extensions><gom:speed>0.511</gom:speed></extensions></trkpt>
   <trkpt lat="59.0698485749" lon="30.0218590186"><ele>104.153</ele><time>2026-04-20T17:41:28.020Z</time><hdop>4.187</hdop><vdop>4.75</vdop><extensions><gom:speed>0.483</gom:speed></extensions></trkpt>
   <trkpt lat="59.0698541908" lon="30.0218577613"><ele>104.193</ele><time>2026-04-20T17:41:28.956Z</time><hdop>4.25</hdop><vdop>4.562</vdop><extensions><gom:speed>0.533</gom:speed></extensions></trkpt>
   <trkpt lat="59.0698602677" lon="30.0218543247"><ele>104.072</ele><time>2026-04-20T17:41:29.913Z</time><hdop>4.25</hdop><vdop>4.375</vdop><extensions><gom:speed>0.559</gom:speed></extensions></trkpt>
   <trkpt lat="59.069865674" lon="30.0218517263"><ele>103.321</ele><time>2026-04-20T17:41:31.076Z</time><hdop>4.25</hdop><vdop>3.437</vdop><extensions><gom:speed>0.445</gom:speed></extensions></trkpt>
   <trkpt lat="59.0698699907" lon="30.0218470324"><ele>103.493</ele><time>2026-04-20T17:41:32.076Z</time><hdop>4.25</hdop><vdop>2.687</vdop><extensions><gom:speed>0.431</gom:speed></extensions></trkpt>
   <trkpt lat="59.0698751874" lon="30.0218423386"><ele>103.606</ele><time>2026-04-20T17:41:33.075Z</time><hdop>4.25</hdop><vdop>2.5</vdop><extensions><gom:speed>0.426</gom:speed></extensions></trkpt>
   <trkpt lat="59.0698812643" lon="30.0218402431"><ele>103.246</ele><time>2026-04-20T17:41:34.075Z</time><hdop>4.187</hdop><vdop>2.5</vdop><extensions><gom:speed>0.463</gom:speed></extensions></trkpt>
   <trkpt lat="59.069884659" lon="30.0218391534"><ele>103.435</ele><time>2026-04-20T17:41:35.075Z</time><hdop>4.187</hdop><vdop>2.5</vdop><extensions><gom:speed>0.336</gom:speed></extensions></trkpt>
   <trkpt lat="59.0698859582" lon="30.0218381476"><ele>103.83</ele><time>2026-04-20T17:41:36.075Z</time><hdop>4.187</hdop><vdop>2.5</vdop><extensions><gom:speed>0.234</gom:speed></extensions></trkpt>
   <trkpt lat="59.0698870897" lon="30.0218385667"><ele>104.385</ele><time>2026-04-20T17:41:37.075Z</time><hdop>4.187</hdop><vdop>2.5</vdop><extensions><gom:speed>0.125</gom:speed></extensions></trkpt>
   <trkpt lat="59.0698886823" lon="30.0218391534"><ele>105.047</ele><time>2026-04-20T17:41:38.075Z</time><hdop>4.187</hdop><vdop>5.125</vdop><extensions><gom:speed>0.072</gom:speed></extensions></trkpt>
   <trkpt lat="59.0698915741" lon="30.0218389858"><ele>105.607</ele><time>2026-04-20T17:41:39.075Z</time><hdop>4.125</hdop><vdop>5.062</vdop><extensions><gom:speed>0.092</gom:speed></extensions></trkpt>
   <trkpt lat="59.0698922865" lon="30.0218386505"><ele>106.081</ele><time>2026-04-20T17:41:39.990Z</time><hdop>4.125</hdop><vdop>5.0</vdop><extensions><gom:speed>0.07</gom:speed></extensions></trkpt>
   <trkpt lat="59.0698956812" lon="30.0218372256"><ele>106.458</ele><time>2026-04-20T17:41:41.075Z</time><hdop>4.125</hdop><vdop>4.875</vdop><extensions><gom:speed>0.067</gom:speed></extensions></trkpt>
   <trkpt lat="59.0698970642" lon="30.0218369741"><ele>106.963</ele><time>2026-04-20T17:41:42.003Z</time><hdop>4.187</hdop><vdop>4.937</vdop><extensions><gom:speed>0.065</gom:speed></extensions></trkpt>
   <trkpt lat="59.0698979862" lon="30.0218360521"><ele>107.571</ele><time>2026-04-20T17:41:42.950Z</time><hdop>4.312</hdop><vdop>5.0</vdop><extensions><gom:speed>0.061</gom:speed></extensions></trkpt>
   <trkpt lat="59.06989807" lon="30.0218350463"><ele>107.985</ele><time>2026-04-20T17:41:44.016Z</time><hdop>4.375</hdop><vdop>5.062</vdop><extensions><gom:speed>0.075</gom:speed></extensions></trkpt>
   <trkpt lat="59.069899495" lon="30.0218349625"><ele>108.333</ele><time>2026-04-20T17:41:44.964Z</time><hdop>4.562</hdop><vdop>5.25</vdop><extensions><gom:speed>0.065</gom:speed></extensions></trkpt>
   <trkpt lat="59.0699037697" lon="30.0218347949"><ele>108.662</ele><time>2026-04-20T17:41:46.075Z</time><hdop>4.687</hdop><vdop>5.187</vdop><extensions><gom:speed>0.064</gom:speed></extensions></trkpt>
   <trkpt lat="59.069904566" lon="30.0218346272"><ele>109.09</ele><time>2026-04-20T17:41:46.978Z</time><hdop>4.75</hdop><vdop>5.125</vdop><extensions><gom:speed>0.057</gom:speed></extensions></trkpt>
   <trkpt lat="59.0699047756" lon="30.0218368903"><ele>109.367</ele><time>2026-04-20T17:41:48.044Z</time><hdop>4.812</hdop><vdop>5.0</vdop><extensions><gom:speed>0.063</gom:speed></extensions></trkpt>
   <trkpt lat="59.0699042726" lon="30.0218362198"><ele>109.567</ele><time>2026-04-20T17:41:48.992Z</time><hdop>4.875</hdop><vdop>4.937</vdop><extensions><gom:speed>0.068</gom:speed></extensions></trkpt>
   <trkpt lat="59.0699038955" lon="30.0218362198"><ele>109.717</ele><time>2026-04-20T17:41:49.939Z</time><hdop>5.0</hdop><vdop>5.062</vdop><extensions><gom:speed>0.064</gom:speed></extensions></trkpt>
   <trkpt lat="59.0699050689" lon="30.0218367227"><ele>109.807</ele><time>2026-04-20T17:41:50.531Z</time><hdop>5.062</hdop><vdop>5.062</vdop><extensions><gom:speed>0.02</gom:speed></extensions></trkpt>
   <trkpt lat="59.0699078769" lon="30.0218373932"><ele>109.861</ele><time>2026-04-20T17:41:51.076Z</time><hdop>5.062</hdop><vdop>5.062</vdop><extensions><gom:speed>0.162</gom:speed></extensions></trkpt>
   <trkpt lat="59.069911062" lon="30.0218377285"><ele>109.913</ele><time>2026-04-20T17:41:52.075Z</time><hdop>5.125</hdop><vdop>5.062</vdop><extensions><gom:speed>0.285</gom:speed></extensions></trkpt>
   <trkpt lat="59.0699148758" lon="30.0218381476"><ele>109.893</ele><time>2026-04-20T17:41:53.076Z</time><hdop>5.187</hdop><vdop>5.0</vdop><extensions><gom:speed>0.303</gom:speed></extensions></trkpt>
   <trkpt lat="59.0699181866" lon="30.0218386505"><ele>109.874</ele><time>2026-04-20T17:41:54.075Z</time><hdop>5.125</hdop><vdop>5.187</vdop><extensions><gom:speed>0.313</gom:speed></extensions></trkpt>
   <trkpt lat="59.0699211622" lon="30.0218391534"><ele>109.866</ele><time>2026-04-20T17:41:55.076Z</time><hdop>5.125</hdop><vdop>5.25</vdop><extensions><gom:speed>0.338</gom:speed></extensions></trkpt>
   <trkpt lat="59.0699237606" lon="30.0218395725"><ele>109.864</ele><time>2026-04-20T17:41:56.075Z</time><hdop>5.062</hdop><vdop>5.375</vdop><extensions><gom:speed>0.359</gom:speed></extensions></trkpt>
   <trkpt lat="59.0699245988" lon="30.0218397402"><ele>109.864</ele><time>2026-04-20T17:41:56.809Z</time><hdop>5.062</hdop><vdop>5.375</vdop><extensions><gom:speed>0.359</gom:speed></extensions></trkpt>
   <trkpt lat="59.0699287897" lon="30.0218404945"><ele>109.824</ele><time>2026-04-20T17:41:58.075Z</time><hdop>5.062</hdop><vdop>5.25</vdop><extensions><gom:speed>0.365</gom:speed></extensions></trkpt>
   <trkpt lat="59.0699304661" lon="30.0218408298"><ele>109.751</ele><time>2026-04-20T17:41:59.075Z</time><hdop>5.125</hdop><vdop>5.125</vdop><extensions><gom:speed>0.359</gom:speed></extensions></trkpt>
   <trkpt lat="59.0699317653" lon="30.0218410813"><ele>109.676</ele><time>2026-04-20T17:42:00.075Z</time><hdop>5.125</hdop><vdop>5.0</vdop><extensions><gom:speed>0.366</gom:speed></extensions></trkpt>
   <trkpt lat="59.0699326873" lon="30.0218406622"><ele>109.632</ele><time>2026-04-20T17:42:01.075Z</time><hdop>5.187</hdop><vdop>4.937</vdop><extensions><gom:speed>0.369</gom:speed></extensions></trkpt>
   <trkpt lat="59.0699337769" lon="30.021840746"><ele>109.588</ele><time>2026-04-20T17:42:02.075Z</time><hdop>5.25</hdop><vdop>4.875</vdop><extensions><gom:speed>0.36</gom:speed></extensions></trkpt>
   <trkpt lat="59.0699342799" lon="30.021840746"><ele>109.562</ele><time>2026-04-20T17:42:02.969Z</time><hdop>5.312</hdop><vdop>4.875</vdop><extensions><gom:speed>0.36</gom:speed></extensions></trkpt>
   <trkpt lat="59.0699357886" lon="30.0218414166"><ele>109.503</ele><time>2026-04-20T17:42:04.075Z</time><hdop>5.375</hdop><vdop>4.625</vdop><extensions><gom:speed>0.348</gom:speed></extensions></trkpt>
   <trkpt lat="59.0699364592" lon="30.0218421709"><ele>109.458</ele><time>2026-04-20T17:42:05.075Z</time><hdop>5.437</hdop><vdop>4.562</vdop><extensions><gom:speed>0.354</gom:speed></extensions></trkpt>
   <trkpt lat="59.0699375907" lon="30.0218426738"><ele>109.432</ele><time>2026-04-20T17:42:06.075Z</time><hdop>5.437</hdop><vdop>4.625</vdop><extensions><gom:speed>0.354</gom:speed></extensions></trkpt>
   <trkpt lat="59.0699380936" lon="30.0218431768"><ele>109.417</ele><time>2026-04-20T17:42:07.075Z</time><hdop>5.5</hdop><vdop>4.625</vdop><extensions><gom:speed>0.357</gom:speed></extensions></trkpt>
   <trkpt lat="59.0699385965" lon="30.0218436797"><ele>109.408</ele><time>2026-04-20T17:42:08.075Z</time><hdop>5.5</hdop><vdop>4.562</vdop><extensions><gom:speed>0.334</gom:speed></extensions></trkpt>
   <trkpt lat="59.0699391833" lon="30.0218439311"><ele>109.403</ele><time>2026-04-20T17:42:09.075Z</time><hdop>5.562</hdop><vdop>4.562</vdop><extensions><gom:speed>0.315</gom:speed></extensions></trkpt>
   <trkpt lat="59.0699396862" lon="30.0218440988"><ele>109.397</ele><time>2026-04-20T17:42:10.076Z</time><hdop>5.562</hdop><vdop>4.5</vdop><extensions><gom:speed>0.324</gom:speed></extensions></trkpt>
   <trkpt lat="59.06993977" lon="30.021844434"><ele>109.415</ele><time>2026-04-20T17:42:11.075Z</time><hdop>5.625</hdop><vdop>4.375</vdop><extensions><gom:speed>0.361</gom:speed></extensions></trkpt>
   <trkpt lat="59.0699394766" lon="30.0218450208"><ele>109.454</ele><time>2026-04-20T17:42:12.075Z</time><hdop>5.625</hdop><vdop>4.062</vdop><extensions><gom:speed>0.354</gom:speed></extensions></trkpt>
   <trkpt lat="59.0699399796" lon="30.0218452722"><ele>109.481</ele><time>2026-04-20T17:42:13.075Z</time><hdop>5.625</hdop><vdop>3.812</vdop><extensions><gom:speed>0.333</gom:speed></extensions></trkpt>
   <trkpt lat="59.0699399796" lon="30.0218459428"><ele>109.5</ele><time>2026-04-20T17:42:14.075Z</time><hdop>5.687</hdop><vdop>3.5</vdop><extensions><gom:speed>0.296</gom:speed></extensions></trkpt>
   <trkpt lat="59.06993977" lon="30.0218470324"><ele>109.514</ele><time>2026-04-20T17:42:15.075Z</time><hdop>5.687</hdop><vdop>3.375</vdop><extensions><gom:speed>0.281</gom:speed></extensions></trkpt>
   <trkpt lat="59.0699399796" lon="30.0218480383"><ele>109.524</ele><time>2026-04-20T17:42:16.076Z</time><hdop>5.687</hdop><vdop>3.375</vdop><extensions><gom:speed>0.266</gom:speed></extensions></trkpt>
   <trkpt lat="59.0699399796" lon="30.0218483735"><ele>109.532</ele><time>2026-04-20T17:42:17.076Z</time><hdop>5.687</hdop><vdop>3.5</vdop><extensions><gom:speed>0.272</gom:speed></extensions></trkpt>
   <trkpt lat="59.0699401891" lon="30.0218492955"><ele>109.539</ele><time>2026-04-20T17:42:18.075Z</time><hdop>5.687</hdop><vdop>3.5</vdop><extensions><gom:speed>0.268</gom:speed></extensions></trkpt>
   <trkpt lat="59.0699403986" lon="30.0218501337"><ele>109.539</ele><time>2026-04-20T17:42:19.075Z</time><hdop>5.687</hdop><vdop>3.5</vdop><extensions><gom:speed>0.257</gom:speed></extensions></trkpt>
   <trkpt lat="59.0699405663" lon="30.0218506366"><ele>109.539</ele><time>2026-04-20T17:42:20.075Z</time><hdop>5.625</hdop><vdop>3.562</vdop><extensions><gom:speed>0.253</gom:speed></extensions></trkpt>
   <trkpt lat="59.0699407758" lon="30.0218508881"><ele>109.555</ele><time>2026-04-20T17:42:21.075Z</time><hdop>5.625</hdop><vdop>3.562</vdop><extensions><gom:speed>0.264</gom:speed></extensions></trkpt>
   <trkpt lat="59.0699408597" lon="30.0218508881"><ele>109.564</ele><time>2026-04-20T17:42:21.566Z</time><hdop>5.625</hdop><vdop>3.562</vdop><extensions><gom:speed>0.264</gom:speed></extensions></trkpt>
   <trkpt lat="59.0699409854" lon="30.0218510557"><ele>109.57</ele><time>2026-04-20T17:42:22.075Z</time><hdop>5.625</hdop><vdop>3.562</vdop><extensions><gom:speed>0.262</gom:speed></extensions></trkpt>
   <trkpt lat="59.0699409854" lon="30.0218511396"><ele>109.604</ele><time>2026-04-20T17:42:23.075Z</time><hdop>5.625</hdop><vdop>3.625</vdop><extensions><gom:speed>0.276</gom:speed></extensions></trkpt>
   <trkpt lat="59.0699410692" lon="30.0218514748"><ele>109.629</ele><time>2026-04-20T17:42:24.075Z</time><hdop>5.625</hdop><vdop>3.437</vdop><extensions><gom:speed>0.288</gom:speed></extensions></trkpt>
   <trkpt lat="59.0699412787" lon="30.0218507205"><ele>109.644</ele><time>2026-04-20T17:42:25.075Z</time><hdop>5.625</hdop><vdop>3.562</vdop><extensions><gom:speed>0.265</gom:speed></extensions></trkpt>
   <trkpt lat="59.0699411949" lon="30.0218515587"><ele>109.648</ele><time>2026-04-20T17:42:26.075Z</time><hdop>5.562</hdop><vdop>3.75</vdop><extensions><gom:speed>0.265</gom:speed></extensions></trkpt>
   <trkpt lat="59.0699410692" lon="30.0218526483"><ele>109.654</ele><time>2026-04-20T17:42:27.075Z</time><hdop>5.562</hdop><vdop>3.812</vdop><extensions><gom:speed>0.252</gom:speed></extensions></trkpt>
   <trkpt lat="59.0699411949" lon="30.0218529836"><ele>109.658</ele><time>2026-04-20T17:42:27.726Z</time><hdop>5.625</hdop><vdop>3.812</vdop><extensions><gom:speed>0.252</gom:speed></extensions></trkpt>
   <trkpt lat="59.0699413626" lon="30.021854157"><ele>109.661</ele><time>2026-04-20T17:42:29.075Z</time><hdop>5.625</hdop><vdop>3.812</vdop><extensions><gom:speed>0.382</gom:speed></extensions></trkpt>
   <trkpt lat="59.069942075" lon="30.0218553305"><ele>109.664</ele><time>2026-04-20T17:42:29.713Z</time><hdop>5.687</hdop><vdop>3.812</vdop><extensions><gom:speed>0.383</gom:speed></extensions></trkpt>
   <trkpt lat="59.0699422846" lon="30.0218567554"><ele>109.665</ele><time>2026-04-20T17:42:30.699Z</time><hdop>5.812</hdop><vdop>3.875</vdop><extensions><gom:speed>0.388</gom:speed></extensions></trkpt>
   <trkpt lat="59.069942075" lon="30.0218576774"><ele>109.667</ele><time>2026-04-20T17:42:31.598Z</time><hdop>5.937</hdop><vdop>3.875</vdop><extensions><gom:speed>0.374</gom:speed></extensions></trkpt>
   <trkpt lat="59.0699412787" lon="30.0218568393"><ele>109.667</ele><time>2026-04-20T17:42:32.076Z</time><hdop>6.0</hdop><vdop>3.875</vdop><extensions><gom:speed>0.378</gom:speed></extensions></trkpt>
   <trkpt lat="59.0699413626" lon="30.0218572584"><ele>109.668</ele><time>2026-04-20T17:42:32.536Z</time><hdop>6.062</hdop><vdop>3.875</vdop><extensions><gom:speed>0.378</gom:speed></extensions></trkpt>
   <trkpt lat="59.0699414883" lon="30.0218580965"><ele>109.668</ele><time>2026-04-20T17:42:33.076Z</time><hdop>6.125</hdop><vdop>3.875</vdop><extensions><gom:speed>0.464</gom:speed></extensions></trkpt>
   <trkpt lat="59.0699415721" lon="30.0218593538"><ele>109.668</ele><time>2026-04-20T17:42:33.885Z</time><hdop>6.375</hdop><vdop>3.875</vdop><extensions><gom:speed>0.476</gom:speed></extensions></trkpt>
   <trkpt lat="59.0699440867" lon="30.0218599406"><ele>109.668</ele><time>2026-04-20T17:42:34.421Z</time><hdop>6.625</hdop><vdop>3.875</vdop><extensions><gom:speed>0.572</gom:speed></extensions></trkpt>
   <trkpt lat="59.0699458888" lon="30.0218605273"><ele>109.669</ele><time>2026-04-20T17:42:34.951Z</time><hdop>6.812</hdop><vdop>3.875</vdop><extensions><gom:speed>0.572</gom:speed></extensions></trkpt>
   <trkpt lat="59.0699503731" lon="30.0218567554"><ele>109.67</ele><time>2026-04-20T17:42:36.017Z</time><hdop>7.25</hdop><vdop>3.937</vdop><extensions><gom:speed>0.558</gom:speed></extensions></trkpt>
   <trkpt lat="59.069957372" lon="30.0218518939"><ele>109.671</ele><time>2026-04-20T17:42:36.899Z</time><hdop>7.812</hdop><vdop>3.937</vdop><extensions><gom:speed>0.648</gom:speed></extensions></trkpt>
   <trkpt lat="59.0699668855" lon="30.0218470324"><ele>109.672</ele><time>2026-04-20T17:42:37.797Z</time><hdop>8.375</hdop><vdop>4.0</vdop><extensions><gom:speed>0.763</gom:speed></extensions></trkpt>
   <trkpt lat="59.0699765666" lon="30.0218431768"><ele>109.673</ele><time>2026-04-20T17:42:38.537Z</time><hdop>9.187</hdop><vdop>4.062</vdop><extensions><gom:speed>0.868</gom:speed></extensions></trkpt>
   <trkpt lat="59.0699877983" lon="30.0218377285"><ele>109.675</ele><time>2026-04-20T17:42:39.456Z</time><hdop>9.75</hdop><vdop>4.125</vdop><extensions><gom:speed>0.872</gom:speed></extensions></trkpt>
   <trkpt lat="59.069993498" lon="30.0218339567"><ele>109.676</ele><time>2026-04-20T17:42:40.045Z</time><hdop>9.875</hdop><vdop>4.125</vdop><extensions><gom:speed>0.88</gom:speed></extensions></trkpt>
   <trkpt lat="59.0700045621" lon="30.0218257424"><ele>109.677</ele><time>2026-04-20T17:42:40.996Z</time><hdop>10.437</hdop><vdop>4.125</vdop><extensions><gom:speed>0.882</gom:speed></extensions></trkpt>
   <trkpt lat="59.0700127764" lon="30.0218220544"><ele>109.679</ele><time>2026-04-20T17:42:41.940Z</time><hdop>10.875</hdop><vdop>4.312</vdop><extensions><gom:speed>0.851</gom:speed></extensions></trkpt>
   <trkpt lat="59.0700197753" lon="30.0218162708"><ele>109.68</ele><time>2026-04-20T17:42:42.901Z</time><hdop>11.125</hdop><vdop>4.312</vdop><extensions><gom:speed>0.798</gom:speed></extensions></trkpt>
   <trkpt lat="59.0700278638" lon="30.0218086433"><ele>109.682</ele><time>2026-04-20T17:42:44.036Z</time><hdop>11.375</hdop><vdop>4.312</vdop><extensions><gom:speed>0.779</gom:speed></extensions></trkpt>
   <trkpt lat="59.0700352818" lon="30.021801854"><ele>109.683</ele><time>2026-04-20T17:42:44.994Z</time><hdop>11.625</hdop><vdop>4.312</vdop><extensions><gom:speed>0.788</gom:speed></extensions></trkpt>
   <trkpt lat="59.0700422807" lon="30.0217954837"><ele>109.683</ele><time>2026-04-20T17:42:45.793Z</time><hdop>11.812</hdop><vdop>4.312</vdop><extensions><gom:speed>0.766</gom:speed></extensions></trkpt>
   <trkpt lat="59.0700455915" lon="30.0217926339"><ele>109.683</ele><time>2026-04-20T17:42:46.352Z</time><hdop>11.875</hdop><vdop>4.25</vdop><extensions><gom:speed>0.755</gom:speed></extensions></trkpt>
   <trkpt lat="59.0700553984" lon="30.0217846711"><ele>109.683</ele><time>2026-04-20T17:42:47.033Z</time><hdop>11.812</hdop><vdop>4.25</vdop><extensions><gom:speed>0.751</gom:speed></extensions></trkpt>
   <trkpt lat="59.0700586673" lon="30.021780983"><ele>109.683</ele><time>2026-04-20T17:42:47.601Z</time><hdop>11.875</hdop><vdop>4.25</vdop><extensions><gom:speed>0.767</gom:speed></extensions></trkpt>
   <trkpt lat="59.0700645765" lon="30.0217736908"><ele>109.682</ele><time>2026-04-20T17:42:48.458Z</time><hdop>11.875</hdop><vdop>4.25</vdop><extensions><gom:speed>0.816</gom:speed></extensions></trkpt>
   <trkpt lat="59.0700691866" lon="30.0217687455"><ele>109.683</ele><time>2026-04-20T17:42:49.047Z</time><hdop>11.875</hdop><vdop>4.312</vdop><extensions><gom:speed>0.807</gom:speed></extensions></trkpt>
   <trkpt lat="59.0700768979" lon="30.0217621238"><ele>109.683</ele><time>2026-04-20T17:42:49.996Z</time><hdop>11.937</hdop><vdop>4.437</vdop><extensions><gom:speed>0.795</gom:speed></extensions></trkpt>
   <trkpt lat="59.0700847769" lon="30.0217571784"><ele>109.683</ele><time>2026-04-20T17:42:51.015Z</time><hdop>12.062</hdop><vdop>4.437</vdop><extensions><gom:speed>0.814</gom:speed></extensions></trkpt>
   <trkpt lat="59.0700934941" lon="30.0217534904"><ele>109.683</ele><time>2026-04-20T17:42:52.044Z</time><hdop>12.187</hdop><vdop>4.5</vdop><extensions><gom:speed>0.866</gom:speed></extensions></trkpt>
   <trkpt lat="59.0701054802" lon="30.0217472878"><ele>109.681</ele><time>2026-04-20T17:42:52.956Z</time><hdop>12.375</hdop><vdop>4.5</vdop><extensions><gom:speed>0.823</gom:speed></extensions></trkpt>
   <trkpt lat="59.0701105932" lon="30.0217432645"><ele>109.68</ele><time>2026-04-20T17:42:53.939Z</time><hdop>12.625</hdop><vdop>4.5</vdop><extensions><gom:speed>0.791</gom:speed></extensions></trkpt>
   <trkpt lat="59.0701165863" lon="30.021737481"><ele>109.678</ele><time>2026-04-20T17:42:54.834Z</time><hdop>12.812</hdop><vdop>4.437</vdop><extensions><gom:speed>0.782</gom:speed></extensions></trkpt>
   <trkpt lat="59.0701232918" lon="30.0217279256"><ele>109.676</ele><time>2026-04-20T17:42:55.842Z</time><hdop>12.937</hdop><vdop>4.437</vdop><extensions><gom:speed>0.769</gom:speed></extensions></trkpt>
   <trkpt lat="59.0701280695" lon="30.0217179511"><ele>109.674</ele><time>2026-04-20T17:42:56.664Z</time><hdop>13.062</hdop><vdop>4.437</vdop><extensions><gom:speed>0.716</gom:speed></extensions></trkpt>
   <trkpt lat="59.0701315899" lon="30.0217077252"><ele>109.676</ele><time>2026-04-20T17:42:57.461Z</time><hdop>13.125</hdop><vdop>4.437</vdop><extensions><gom:speed>0.7</gom:speed></extensions></trkpt>
   <trkpt lat="59.0701331824" lon="30.0216995948"><ele>109.678</ele><time>2026-04-20T17:42:58.050Z</time><hdop>13.125</hdop><vdop>4.375</vdop><extensions><gom:speed>0.704</gom:speed></extensions></trkpt>
   <trkpt lat="59.0701334758" lon="30.0216945656"><ele>109.679</ele><time>2026-04-20T17:42:58.760Z</time><hdop>13.187</hdop><vdop>4.375</vdop><extensions><gom:speed>0.697</gom:speed></extensions></trkpt>
   <trkpt lat="59.0701377925" lon="30.0216706772"><ele>109.68</ele><time>2026-04-20T17:42:59.946Z</time><hdop>13.312</hdop><vdop>4.375</vdop><extensions><gom:speed>0.797</gom:speed></extensions></trkpt>
   <trkpt lat="59.0701433664" lon="30.0216601998"><ele>109.68</ele><time>2026-04-20T17:43:01.011Z</time><hdop>13.437</hdop><vdop>4.312</vdop><extensions><gom:speed>0.882</gom:speed></extensions></trkpt>
   <trkpt lat="59.0701507844" lon="30.0216519855"><ele>109.68</ele><time>2026-04-20T17:43:01.962Z</time><hdop>13.687</hdop><vdop>4.312</vdop><extensions><gom:speed>0.926</gom:speed></extensions></trkpt>
   <trkpt lat="59.0701812945" lon="30.0217622914"><ele>111.645</ele><time>2026-04-20T17:43:02.823Z</time><hdop>12.812</hdop><vdop>3.125</vdop><extensions><gom:speed>0.906</gom:speed></extensions></trkpt>
   <trkpt lat="59.0701999862" lon="30.0218276702"><ele>112.272</ele><time>2026-04-20T17:43:03.878Z</time><hdop>11.687</hdop><vdop>2.5</vdop><extensions><gom:speed>0.863</gom:speed></extensions></trkpt>
   <trkpt lat="59.0702132715" lon="30.021863461"><ele>112.285</ele><time>2026-04-20T17:43:04.957Z</time><hdop>10.812</hdop><vdop>2.5</vdop><extensions><gom:speed>0.759</gom:speed></extensions></trkpt>
   <trkpt lat="59.0702238746" lon="30.0218848348"><ele>111.053</ele><time>2026-04-20T17:43:06.075Z</time><hdop>9.562</hdop><vdop>2.5</vdop><extensions><gom:speed>0.641</gom:speed></extensions></trkpt>
   <trkpt lat="59.0702302868" lon="30.0218910374"><ele>110.317</ele><time>2026-04-20T17:43:06.996Z</time><hdop>7.562</hdop><vdop>2.5</vdop><extensions><gom:speed>0.611</gom:speed></extensions></trkpt>
   <trkpt lat="59.0702354835" lon="30.0218916242"><ele>109.793</ele><time>2026-04-20T17:43:07.835Z</time><hdop>7.125</hdop><vdop>2.625</vdop><extensions><gom:speed>0.592</gom:speed></extensions></trkpt>
   <trkpt lat="59.0702410994" lon="30.0218878523"><ele>109.343</ele><time>2026-04-20T17:43:08.773Z</time><hdop>6.937</hdop><vdop>2.562</vdop><extensions><gom:speed>0.613</gom:speed></extensions></trkpt>
   <trkpt lat="59.0702470925" lon="30.0218769558"><ele>108.944</ele><time>2026-04-20T17:43:09.780Z</time><hdop>6.687</hdop><vdop>2.5</vdop><extensions><gom:speed>0.657</gom:speed></extensions></trkpt>
   <trkpt lat="59.0702532951" lon="30.0218645506"><ele>107.943</ele><time>2026-04-20T17:43:10.835Z</time><hdop>6.437</hdop><vdop>2.5</vdop><extensions><gom:speed>0.635</gom:speed></extensions></trkpt>
   <trkpt lat="59.0702604616" lon="30.021854157"><ele>107.012</ele><time>2026-04-20T17:43:11.813Z</time><hdop>6.187</hdop><vdop>2.562</vdop><extensions><gom:speed>0.615</gom:speed></extensions></trkpt>
   <trkpt lat="59.070266287" lon="30.0218545761"><ele>106.659</ele><time>2026-04-20T17:43:12.613Z</time><hdop>5.937</hdop><vdop>2.625</vdop><extensions><gom:speed>0.715</gom:speed></extensions></trkpt>
   <trkpt lat="59.0702708971" lon="30.0218566716"><ele>106.711</ele><time>2026-04-20T17:43:13.075Z</time><hdop>5.812</hdop><vdop>2.687</vdop><extensions><gom:speed>0.739</gom:speed></extensions></trkpt>
   <trkpt lat="59.0702812906" lon="30.0218598567"><ele>106.975</ele><time>2026-04-20T17:43:14.075Z</time><hdop>5.562</hdop><vdop>2.875</vdop><extensions><gom:speed>0.794</gom:speed></extensions></trkpt>
   <trkpt lat="59.0702907622" lon="30.0218628742"><ele>107.455</ele><time>2026-04-20T17:43:15.075Z</time><hdop>5.375</hdop><vdop>3.0</vdop><extensions><gom:speed>0.756</gom:speed></extensions></trkpt>
   <trkpt lat="59.0702997727" lon="30.0218661432"><ele>108.079</ele><time>2026-04-20T17:43:16.076Z</time><hdop>5.187</hdop><vdop>2.812</vdop><extensions><gom:speed>0.728</gom:speed></extensions></trkpt>
   <trkpt lat="59.0703067716" lon="30.0218655564"><ele>108.452</ele><time>2026-04-20T17:43:16.937Z</time><hdop>5.125</hdop><vdop>2.812</vdop><extensions><gom:speed>0.741</gom:speed></extensions></trkpt>
   <trkpt lat="59.0703175843" lon="30.0218681548"><ele>109.437</ele><time>2026-04-20T17:43:17.874Z</time><hdop>5.0</hdop><vdop>2.75</vdop><extensions><gom:speed>0.771</gom:speed></extensions></trkpt>
   <trkpt lat="59.0703247927" lon="30.0218730163"><ele>109.628</ele><time>2026-04-20T17:43:18.753Z</time><hdop>5.0</hdop><vdop>2.687</vdop><extensions><gom:speed>0.796</gom:speed></extensions></trkpt>
   <trkpt lat="59.0703345996" lon="30.0218780455"><ele>110.278</ele><time>2026-04-20T17:43:19.839Z</time><hdop>4.937</hdop><vdop>2.687</vdop><extensions><gom:speed>0.794</gom:speed></extensions></trkpt>
   <trkpt lat="59.0703444902" lon="30.021881063"><ele>110.397</ele><time>2026-04-20T17:43:20.855Z</time><hdop>5.0</hdop><vdop>2.562</vdop><extensions><gom:speed>0.777</gom:speed></extensions></trkpt>
   <trkpt lat="59.07035107" lon="30.0218844995"><ele>109.473</ele><time>2026-04-20T17:43:21.575Z</time><hdop>5.0</hdop><vdop>2.5</vdop><extensions><gom:speed>0.747</gom:speed></extensions></trkpt>
   <trkpt lat="59.0703553867" lon="30.0218886905"><ele>108.507</ele><time>2026-04-20T17:43:22.076Z</time><hdop>5.0</hdop><vdop>2.5</vdop><extensions><gom:speed>0.732</gom:speed></extensions></trkpt>
   <trkpt lat="59.0703633914" lon="30.0218971562"><ele>108.318</ele><time>2026-04-20T17:43:23.075Z</time><hdop>5.0</hdop><vdop>2.5</vdop><extensions><gom:speed>0.752</gom:speed></extensions></trkpt>
   <trkpt lat="59.0703729887" lon="30.0219021854"><ele>107.925</ele><time>2026-04-20T17:43:24.075Z</time><hdop>5.0</hdop><vdop>2.5</vdop><extensions><gom:speed>0.697</gom:speed></extensions></trkpt>
   <trkpt lat="59.0703781854" lon="30.0219016824"><ele>108.079</ele><time>2026-04-20T17:43:25.075Z</time><hdop>5.0</hdop><vdop>2.5</vdop><extensions><gom:speed>0.647</gom:speed></extensions></trkpt>
   <trkpt lat="59.0703850586" lon="30.0219006766"><ele>108.17</ele><time>2026-04-20T17:43:26.057Z</time><hdop>5.0</hdop><vdop>2.5</vdop><extensions><gom:speed>0.686</gom:speed></extensions></trkpt>
   <trkpt lat="59.0703924766" lon="30.021899587"><ele>106.997</ele><time>2026-04-20T17:43:27.075Z</time><hdop>4.937</hdop><vdop>2.5</vdop><extensions><gom:speed>0.662</gom:speed></extensions></trkpt>
   <trkpt lat="59.0703989726" lon="30.0218966533"><ele>106.566</ele><time>2026-04-20T17:43:28.076Z</time><hdop>4.875</hdop><vdop>2.5</vdop><extensions><gom:speed>0.647</gom:speed></extensions></trkpt>
   <trkpt lat="59.0704048818" lon="30.0218966533"><ele>105.925</ele><time>2026-04-20T17:43:29.075Z</time><hdop>4.75</hdop><vdop>2.5</vdop><extensions><gom:speed>0.629</gom:speed></extensions></trkpt>
   <trkpt lat="59.0704066839" lon="30.0218965695"><ele>105.541</ele><time>2026-04-20T17:43:29.677Z</time><hdop>4.687</hdop><vdop>2.5</vdop><extensions><gom:speed>0.622</gom:speed></extensions></trkpt>
   <trkpt lat="59.0704121741" lon="30.0218955637"><ele>105.13</ele><time>2026-04-20T17:43:30.500Z</time><hdop>4.562</hdop><vdop>2.5</vdop><extensions><gom:speed>0.593</gom:speed></extensions></trkpt>
   <trkpt lat="59.0704141857" lon="30.0218954798"><ele>104.743</ele><time>2026-04-20T17:43:31.075Z</time><hdop>4.5</hdop><vdop>2.5</vdop><extensions><gom:speed>0.566</gom:speed></extensions></trkpt>
   <trkpt lat="59.07041867" lon="30.0218945578"><ele>104.538</ele><time>2026-04-20T17:43:32.075Z</time><hdop>4.437</hdop><vdop>2.5</vdop><extensions><gom:speed>0.556</gom:speed></extensions></trkpt>
   <trkpt lat="59.0704215618" lon="30.0218937196"><ele>104.415</ele><time>2026-04-20T17:43:32.642Z</time><hdop>4.375</hdop><vdop>2.5</vdop><extensions><gom:speed>0.58</gom:speed></extensions></trkpt>
   <trkpt lat="59.0704264652" lon="30.0218922947"><ele>104.502</ele><time>2026-04-20T17:43:33.638Z</time><hdop>4.312</hdop><vdop>2.5</vdop><extensions><gom:speed>0.596</gom:speed></extensions></trkpt>
   <trkpt lat="59.0704296922" lon="30.0218891934"><ele>104.428</ele><time>2026-04-20T17:43:34.595Z</time><hdop>4.312</hdop><vdop>2.5</vdop><extensions><gom:speed>0.546</gom:speed></extensions></trkpt>
   <trkpt lat="59.0704307819" lon="30.0218869303"><ele>104.595</ele><time>2026-04-20T17:43:35.075Z</time><hdop>4.312</hdop><vdop>2.5</vdop><extensions><gom:speed>0.537</gom:speed></extensions></trkpt>
   <trkpt lat="59.070432584" lon="30.0218836613"><ele>104.694</ele><time>2026-04-20T17:43:35.533Z</time><hdop>4.25</hdop><vdop>2.5</vdop><extensions><gom:speed>0.577</gom:speed></extensions></trkpt>
   <trkpt lat="59.0704345957" lon="30.0218766205"><ele>104.874</ele><time>2026-04-20T17:43:36.076Z</time><hdop>4.25</hdop><vdop>2.5</vdop><extensions><gom:speed>0.566</gom:speed></extensions></trkpt>
   <trkpt lat="59.0704361882" lon="30.0218703341"><ele>105.035</ele><time>2026-04-20T17:43:37.075Z</time><hdop>4.25</hdop><vdop>2.5</vdop><extensions><gom:speed>0.508</gom:speed></extensions></trkpt>
   <trkpt lat="59.0704388704" lon="30.0218639639"><ele>105.034</ele><time>2026-04-20T17:43:38.075Z</time><hdop>4.25</hdop><vdop>2.5</vdop><extensions><gom:speed>0.506</gom:speed></extensions></trkpt>
   <trkpt lat="59.0704428937" lon="30.0218579289"><ele>104.982</ele><time>2026-04-20T17:43:39.075Z</time><hdop>4.187</hdop><vdop>2.5</vdop><extensions><gom:speed>0.513</gom:speed></extensions></trkpt>
   <trkpt lat="59.0704477972" lon="30.0218536541"><ele>104.659</ele><time>2026-04-20T17:43:40.075Z</time><hdop>4.187</hdop><vdop>2.5</vdop><extensions><gom:speed>0.522</gom:speed></extensions></trkpt>
   <trkpt lat="59.070452491" lon="30.0218521454"><ele>104.687</ele><time>2026-04-20T17:43:41.075Z</time><hdop>4.187</hdop><vdop>2.5</vdop><extensions><gom:speed>0.487</gom:speed></extensions></trkpt>
   <trkpt lat="59.0704571849" lon="30.0218511396"><ele>104.712</ele><time>2026-04-20T17:43:42.075Z</time><hdop>4.187</hdop><vdop>2.5</vdop><extensions><gom:speed>0.469</gom:speed></extensions></trkpt>
   <trkpt lat="59.0704628846" lon="30.0218464457"><ele>104.952</ele><time>2026-04-20T17:43:43.075Z</time><hdop>4.187</hdop><vdop>2.562</vdop><extensions><gom:speed>0.504</gom:speed></extensions></trkpt>
   <trkpt lat="59.0704679975" lon="30.0218401593"><ele>104.927</ele><time>2026-04-20T17:43:44.075Z</time><hdop>4.187</hdop><vdop>2.562</vdop><extensions><gom:speed>0.532</gom:speed></extensions></trkpt>
   <trkpt lat="59.0704734877" lon="30.0218353816"><ele>104.93</ele><time>2026-04-20T17:43:45.075Z</time><hdop>4.187</hdop><vdop>2.5</vdop><extensions><gom:speed>0.502</gom:speed></extensions></trkpt>
   <trkpt lat="59.0704778882" lon="30.0218267482"><ele>104.743</ele><time>2026-04-20T17:43:46.075Z</time><hdop>4.187</hdop><vdop>2.5</vdop><extensions><gom:speed>0.551</gom:speed></extensions></trkpt>
   <trkpt lat="59.0704813667" lon="30.0218160194"><ele>105.029</ele><time>2026-04-20T17:43:47.075Z</time><hdop>4.25</hdop><vdop>2.5</vdop><extensions><gom:speed>0.537</gom:speed></extensions></trkpt>
   <trkpt lat="59.0704847613" lon="30.0218085595"><ele>105.255</ele><time>2026-04-20T17:43:48.075Z</time><hdop>4.25</hdop><vdop>2.5</vdop><extensions><gom:speed>0.466</gom:speed></extensions></trkpt>
   <trkpt lat="59.0704879884" lon="30.0218039494"><ele>105.391</ele><time>2026-04-20T17:43:48.819Z</time><hdop>4.312</hdop><vdop>2.5</vdop><extensions><gom:speed>0.432</gom:speed></extensions></trkpt>
   <trkpt lat="59.0704921793" lon="30.0218010996"><ele>105.609</ele><time>2026-04-20T17:43:49.817Z</time><hdop>4.375</hdop><vdop>5.5</vdop><extensions><gom:speed>0.453</gom:speed></extensions></trkpt>
   <trkpt lat="59.0704942748" lon="30.0218021892"><ele>105.592</ele><time>2026-04-20T17:43:50.797Z</time><hdop>4.5</hdop><vdop>5.25</vdop><extensions><gom:speed>0.311</gom:speed></extensions></trkpt>
   <trkpt lat="59.0704949873" lon="30.0218030274"><ele>105.561</ele><time>2026-04-20T17:43:51.499Z</time><hdop>4.625</hdop><vdop>5.187</vdop><extensions><gom:speed>0.231</gom:speed></extensions></trkpt>
   <trkpt lat="59.0704965798" lon="30.0218040333"><ele>105.665</ele><time>2026-04-20T17:43:52.543Z</time><hdop>4.75</hdop><vdop>5.125</vdop><extensions><gom:speed>0.239</gom:speed></extensions></trkpt>
   <trkpt lat="59.0704986753" lon="30.0218040333"><ele>105.883</ele><time>2026-04-20T17:43:53.075Z</time><hdop>4.75</hdop><vdop>5.062</vdop><extensions><gom:speed>0.24</gom:speed></extensions></trkpt>
   <trkpt lat="59.0705032854" lon="30.0218037818"><ele>106.032</ele><time>2026-04-20T17:43:54.076Z</time><hdop>4.875</hdop><vdop>5.0</vdop><extensions><gom:speed>0.267</gom:speed></extensions></trkpt>
   <trkpt lat="59.0705064705" lon="30.0218026922"><ele>106.121</ele><time>2026-04-20T17:43:54.861Z</time><hdop>5.0</hdop><vdop>5.0</vdop><extensions><gom:speed>0.284</gom:speed></extensions></trkpt>
   <trkpt lat="59.0705101585" lon="30.021800932"><ele>106.054</ele><time>2026-04-20T17:43:55.701Z</time><hdop>5.062</hdop><vdop>4.812</vdop><extensions><gom:speed>0.418</gom:speed></extensions></trkpt>
   <trkpt lat="59.0705165707" lon="30.0218003452"><ele>105.913</ele><time>2026-04-20T17:43:56.638Z</time><hdop>5.187</hdop><vdop>4.625</vdop><extensions><gom:speed>0.474</gom:speed></extensions></trkpt>
   <trkpt lat="59.0705223961" lon="30.0218010996"><ele>105.77</ele><time>2026-04-20T17:43:57.517Z</time><hdop>5.312</hdop><vdop>4.5</vdop><extensions><gom:speed>0.576</gom:speed></extensions></trkpt>
   <trkpt lat="59.0705255812" lon="30.0218041171"><ele>105.682</ele><time>2026-04-20T17:43:58.076Z</time><hdop>5.312</hdop><vdop>4.375</vdop><extensions><gom:speed>0.551</gom:speed></extensions></trkpt>
   <trkpt lat="59.0705289759" lon="30.0218060449"><ele>105.629</ele><time>2026-04-20T17:43:58.553Z</time><hdop>5.437</hdop><vdop>4.375</vdop><extensions><gom:speed>0.601</gom:speed></extensions></trkpt>
   <trkpt lat="59.0705351785" lon="30.0218077213"><ele>105.53</ele><time>2026-04-20T17:43:59.520Z</time><hdop>5.562</hdop><vdop>4.375</vdop><extensions><gom:speed>0.611</gom:speed></extensions></trkpt>
   <trkpt lat="59.0705384893" lon="30.0218076375"><ele>105.506</ele><time>2026-04-20T17:44:00.002Z</time><hdop>5.625</hdop><vdop>4.437</vdop><extensions><gom:speed>0.615</gom:speed></extensions></trkpt>
   <trkpt lat="59.0705412973" lon="30.0218061287"><ele>105.492</ele><time>2026-04-20T17:44:00.593Z</time><hdop>5.812</hdop><vdop>4.437</vdop><extensions><gom:speed>0.619</gom:speed></extensions></trkpt>
   <trkpt lat="59.0705442729" lon="30.02180462"><ele>105.445</ele><time>2026-04-20T17:44:01.075Z</time><hdop>5.812</hdop><vdop>4.5</vdop><extensions><gom:speed>0.581</gom:speed></extensions></trkpt>
   <trkpt lat="59.0705470808" lon="30.0218011834"><ele>105.423</ele><time>2026-04-20T17:44:02.015Z</time><hdop>5.937</hdop><vdop>4.625</vdop><extensions><gom:speed>0.593</gom:speed></extensions></trkpt>
   <trkpt lat="59.070552068" lon="30.0217933883"><ele>105.41</ele><time>2026-04-20T17:44:03.055Z</time><hdop>6.062</hdop><vdop>4.625</vdop><extensions><gom:speed>0.671</gom:speed></extensions></trkpt>
   <trkpt lat="59.0705581868" lon="30.0217830785"><ele>105.448</ele><time>2026-04-20T17:44:04.022Z</time><hdop>6.25</hdop><vdop>4.687</vdop><extensions><gom:speed>0.743</gom:speed></extensions></trkpt>
   <trkpt lat="59.0705637608" lon="30.0217735231"><ele>105.448</ele><time>2026-04-20T17:44:04.841Z</time><hdop>6.437</hdop><vdop>4.625</vdop><extensions><gom:speed>0.758</gom:speed></extensions></trkpt>
   <trkpt lat="59.070570592" lon="30.0217653927"><ele>105.416</ele><time>2026-04-20T17:44:05.896Z</time><hdop>6.625</hdop><vdop>4.437</vdop><extensions><gom:speed>0.736</gom:speed></extensions></trkpt>
   <trkpt lat="59.0705771718" lon="30.0217619561"><ele>105.379</ele><time>2026-04-20T17:44:06.797Z</time><hdop>7.0</hdop><vdop>4.25</vdop><extensions><gom:speed>0.714</gom:speed></extensions></trkpt>
   <trkpt lat="59.0705823686" lon="30.0217566755"><ele>105.362</ele><time>2026-04-20T17:44:07.635Z</time><hdop>7.375</hdop><vdop>4.125</vdop><extensions><gom:speed>0.657</gom:speed></extensions></trkpt>
   <trkpt lat="59.0705869787" lon="30.0217483774"><ele>105.362</ele><time>2026-04-20T17:44:08.743Z</time><hdop>7.562</hdop><vdop>4.125</vdop><extensions><gom:speed>0.619</gom:speed></extensions></trkpt>
   <trkpt lat="59.070583584" lon="30.0217590224"><ele>105.364</ele><time>2026-04-20T17:44:09.776Z</time><hdop>7.625</hdop><vdop>4.0</vdop><extensions><gom:speed>0.532</gom:speed></extensions></trkpt>
   <trkpt lat="59.0705856795" lon="30.0217577652"><ele>105.365</ele><time>2026-04-20T17:44:10.716Z</time><hdop>7.687</hdop><vdop>4.0</vdop><extensions><gom:speed>0.596</gom:speed></extensions></trkpt>
   <trkpt lat="59.0705902895" lon="30.0217519816"><ele>105.364</ele><time>2026-04-20T17:44:11.593Z</time><hdop>7.75</hdop><vdop>3.937</vdop><extensions><gom:speed>0.653</gom:speed></extensions></trkpt>
   <trkpt lat="59.0705877749" lon="30.0217583519"><ele>105.362</ele><time>2026-04-20T17:44:12.076Z</time><hdop>7.625</hdop><vdop>3.812</vdop><extensions><gom:speed>0.607</gom:speed></extensions></trkpt>
   <trkpt lat="59.070588194" lon="30.0217619561"><ele>105.361</ele><time>2026-04-20T17:44:13.031Z</time><hdop>7.5</hdop><vdop>3.812</vdop><extensions><gom:speed>0.64</gom:speed></extensions></trkpt>
   <trkpt lat="59.0705870625" lon="30.0217730202"><ele>105.366</ele><time>2026-04-20T17:44:14.061Z</time><hdop>7.187</hdop><vdop>3.687</vdop><extensions><gom:speed>0.541</gom:speed></extensions></trkpt>
   <trkpt lat="59.0705766689" lon="30.0217882753"><ele>105.35</ele><time>2026-04-20T17:44:15.075Z</time><hdop>6.937</hdop><vdop>3.75</vdop><extensions><gom:speed>0.408</gom:speed></extensions></trkpt>
   <trkpt lat="59.0705746992" lon="30.021789784"><ele>105.341</ele><time>2026-04-20T17:44:15.778Z</time><hdop>6.687</hdop><vdop>3.75</vdop><extensions><gom:speed>0.365</gom:speed></extensions></trkpt>
   <trkpt lat="59.0705699634" lon="30.0217932206"><ele>105.335</ele><time>2026-04-20T17:44:16.738Z</time><hdop>6.25</hdop><vdop>3.75</vdop><extensions><gom:speed>0.367</gom:speed></extensions></trkpt>
   <trkpt lat="59.0705694605" lon="30.0217923824"><ele>105.33</ele><time>2026-04-20T17:44:17.764Z</time><hdop>5.812</hdop><vdop>3.187</vdop><extensions><gom:speed>0.365</gom:speed></extensions></trkpt>
   <trkpt lat="59.0705733581" lon="30.0217893649"><ele>104.228</ele><time>2026-04-20T17:44:18.454Z</time><hdop>5.562</hdop><vdop>3.062</vdop><extensions><gom:speed>0.418</gom:speed></extensions></trkpt>
   <trkpt lat="59.0705790997" lon="30.0217873533"><ele>103.324</ele><time>2026-04-20T17:44:19.075Z</time><hdop>5.375</hdop><vdop>2.812</vdop><extensions><gom:speed>0.43</gom:speed></extensions></trkpt>
   <trkpt lat="59.0705860986" lon="30.0217818212"><ele>102.783</ele><time>2026-04-20T17:44:19.993Z</time><hdop>5.187</hdop><vdop>2.812</vdop><extensions><gom:speed>0.509</gom:speed></extensions></trkpt>
   <trkpt lat="59.0705966598" lon="30.021776373"><ele>103.074</ele><time>2026-04-20T17:44:20.941Z</time><hdop>5.062</hdop><vdop>2.687</vdop><extensions><gom:speed>0.652</gom:speed></extensions></trkpt>
   <trkpt lat="59.0706176983" lon="30.021775451"><ele>103.067</ele><time>2026-04-20T17:44:22.075Z</time><hdop>4.875</hdop><vdop>4.5</vdop><extensions><gom:speed>0.688</gom:speed></extensions></trkpt>
   <trkpt lat="59.0706279662" lon="30.0217775465"><ele>103.064</ele><time>2026-04-20T17:44:23.014Z</time><hdop>4.687</hdop><vdop>4.5</vdop><extensions><gom:speed>0.744</gom:speed></extensions></trkpt>
   <trkpt lat="59.0706435984" lon="30.0217843358"><ele>102.853</ele><time>2026-04-20T17:44:24.075Z</time><hdop>4.5</hdop><vdop>4.25</vdop><extensions><gom:speed>0.651</gom:speed></extensions></trkpt>
   <trkpt lat="59.0706508907" lon="30.0217840843"><ele>102.727</ele><time>2026-04-20T17:44:24.978Z</time><hdop>4.375</hdop><vdop>4.25</vdop><extensions><gom:speed>0.629</gom:speed></extensions></trkpt>
   <trkpt lat="59.0706619967" lon="30.0217801448"><ele>102.62</ele><time>2026-04-20T17:44:25.837Z</time><hdop>4.25</hdop><vdop>4.437</vdop><extensions><gom:speed>0.664</gom:speed></extensions></trkpt>
   <trkpt lat="59.0706700852" lon="30.0217778817"><ele>102.348</ele><time>2026-04-20T17:44:26.696Z</time><hdop>4.25</hdop><vdop>4.437</vdop><extensions><gom:speed>0.701</gom:speed></extensions></trkpt>
   <trkpt lat="59.0706756592" lon="30.0217706733"><ele>102.174</ele><time>2026-04-20T17:44:27.615Z</time><hdop>4.375</hdop><vdop>4.312</vdop><extensions><gom:speed>0.7</gom:speed></extensions></trkpt>
   <trkpt lat="59.0706806883" lon="30.0217699189"><ele>101.878</ele><time>2026-04-20T17:44:28.075Z</time><hdop>4.437</hdop><vdop>4.25</vdop><extensions><gom:speed>0.703</gom:speed></extensions></trkpt>
   <trkpt lat="59.0706860947" lon="30.0217667338"><ele>101.702</ele><time>2026-04-20T17:44:28.720Z</time><hdop>4.562</hdop><vdop>4.25</vdop><extensions><gom:speed>0.711</gom:speed></extensions></trkpt>
   <trkpt lat="59.0706944766" lon="30.021768494"><ele>101.809</ele><time>2026-04-20T17:44:29.381Z</time><hdop>4.687</hdop><vdop>4.125</vdop><extensions><gom:speed>0.704</gom:speed></extensions></trkpt>
   <trkpt lat="59.0707027746" lon="30.0217689969"><ele>101.889</ele><time>2026-04-20T17:44:30.075Z</time><hdop>4.75</hdop><vdop>4.187</vdop><extensions><gom:speed>0.739</gom:speed></extensions></trkpt>
   <trkpt lat="59.0707113661" lon="30.021768494"><ele>101.936</ele><time>2026-04-20T17:44:31.059Z</time><hdop>4.937</hdop><vdop>4.187</vdop><extensions><gom:speed>0.73</gom:speed></extensions></trkpt>
   <trkpt lat="59.0707144674" lon="30.0217711762"><ele>101.942</ele><time>2026-04-20T17:44:31.510Z</time><hdop>4.937</hdop><vdop>4.125</vdop><extensions><gom:speed>0.719</gom:speed></extensions></trkpt>
   <trkpt lat="59.0707226817" lon="30.0217755348"><ele>101.946</ele><time>2026-04-20T17:44:32.018Z</time><hdop>5.062</hdop><vdop>4.125</vdop><extensions><gom:speed>0.739</gom:speed></extensions></trkpt>
   <trkpt lat="59.0707299739" lon="30.0217811507"><ele>102.002</ele><time>2026-04-20T17:44:33.072Z</time><hdop>5.062</hdop><vdop>4.0</vdop><extensions><gom:speed>0.719</gom:speed></extensions></trkpt>
   <trkpt lat="59.0707362604" lon="30.0217849225"><ele>101.946</ele><time>2026-04-20T17:44:33.997Z</time><hdop>5.125</hdop><vdop>4.375</vdop><extensions><gom:speed>0.65</gom:speed></extensions></trkpt>
   <trkpt lat="59.0707400741" lon="30.021788862"><ele>101.981</ele><time>2026-04-20T17:44:34.945Z</time><hdop>5.187</hdop><vdop>4.375</vdop><extensions><gom:speed>0.578</gom:speed></extensions></trkpt>
   <trkpt lat="59.0707431754" lon="30.0217903708"><ele>102.002</ele><time>2026-04-20T17:44:35.639Z</time><hdop>5.25</hdop><vdop>4.375</vdop><extensions><gom:speed>0.56</gom:speed></extensions></trkpt>
   <trkpt lat="59.0707474921" lon="30.0217898679"><ele>101.98</ele><time>2026-04-20T17:44:36.597Z</time><hdop>5.312</hdop><vdop>4.25</vdop><extensions><gom:speed>0.554</gom:speed></extensions></trkpt>
   <trkpt lat="59.0707490847" lon="30.0217892811"><ele>101.989</ele><time>2026-04-20T17:44:37.075Z</time><hdop>5.312</hdop><vdop>4.25</vdop><extensions><gom:speed>0.525</gom:speed></extensions></trkpt>
   <trkpt lat="59.0707517669" lon="30.0217889458"><ele>101.995</ele><time>2026-04-20T17:44:37.633Z</time><hdop>5.375</hdop><vdop>4.25</vdop><extensions><gom:speed>0.539</gom:speed></extensions></trkpt>
   <trkpt lat="59.0707555806" lon="30.0217867665"><ele>102.013</ele><time>2026-04-20T17:44:38.972Z</time><hdop>5.375</hdop><vdop>4.562</vdop><extensions><gom:speed>0.382</gom:speed></extensions></trkpt>
   <trkpt lat="59.070755874" lon="30.0217861798"><ele>102.02</ele><time>2026-04-20T17:44:40.038Z</time><hdop>5.437</hdop><vdop>4.687</vdop><extensions><gom:speed>0.306</gom:speed></extensions></trkpt>
   <trkpt lat="59.0707556645" lon="30.0217852578"><ele>102.024</ele><time>2026-04-20T17:44:40.762Z</time><hdop>5.437</hdop><vdop>4.687</vdop><extensions><gom:speed>0.239</gom:speed></extensions></trkpt>
   <trkpt lat="59.0707551615" lon="30.0217839167"><ele>102.025</ele><time>2026-04-20T17:44:41.472Z</time><hdop>5.5</hdop><vdop>4.625</vdop><extensions><gom:speed>0.164</gom:speed></extensions></trkpt>
   <trkpt lat="59.0707555806" lon="30.0217837491"><ele>102.022</ele><time>2026-04-20T17:44:42.052Z</time><hdop>5.562</hdop><vdop>4.562</vdop><extensions><gom:speed>0.192</gom:speed></extensions></trkpt>
   <trkpt lat="59.0707550777" lon="30.0217831623"><ele>102.02</ele><time>2026-04-20T17:44:42.579Z</time><hdop>5.625</hdop><vdop>4.562</vdop><extensions><gom:speed>0.132</gom:speed></extensions></trkpt>
   <trkpt lat="59.0707545748" lon="30.0217830785"><ele>102.011</ele><time>2026-04-20T17:44:43.947Z</time><hdop>5.75</hdop><vdop>4.562</vdop><extensions><gom:speed>0.148</gom:speed></extensions></trkpt>
   <trkpt lat="59.0707548682" lon="30.0217845873"><ele>102.002</ele><time>2026-04-20T17:44:44.552Z</time><hdop>5.875</hdop><vdop>4.562</vdop><extensions><gom:speed>0.156</gom:speed></extensions></trkpt>
   <trkpt lat="59.0707553711" lon="30.0217849225"><ele>101.986</ele><time>2026-04-20T17:44:45.013Z</time><hdop>5.937</hdop><vdop>4.562</vdop><extensions><gom:speed>0.171</gom:speed></extensions></trkpt>
   <trkpt lat="59.0707564607" lon="30.0217843358"><ele>101.977</ele><time>2026-04-20T17:44:45.915Z</time><hdop>6.0</hdop><vdop>4.562</vdop><extensions><gom:speed>0.201</gom:speed></extensions></trkpt>
   <trkpt lat="59.0707578857" lon="30.0217795581"><ele>101.573</ele><time>2026-04-20T17:44:46.852Z</time><hdop>6.0</hdop><vdop>3.875</vdop><extensions><gom:speed>0.268</gom:speed></extensions></trkpt>
   <trkpt lat="59.0707606936" lon="30.0217731879"><ele>101.617</ele><time>2026-04-20T17:44:47.721Z</time><hdop>5.875</hdop><vdop>3.312</vdop><extensions><gom:speed>0.283</gom:speed></extensions></trkpt>
   <trkpt lat="59.0707694946" lon="30.0217613694"><ele>102.76</ele><time>2026-04-20T17:44:49.075Z</time><hdop>5.687</hdop><vdop>2.875</vdop><extensions><gom:speed>0.328</gom:speed></extensions></trkpt>
   <trkpt lat="59.0707729731" lon="30.0217576813"><ele>103.443</ele><time>2026-04-20T17:44:49.696Z</time><hdop>5.562</hdop><vdop>2.875</vdop><extensions><gom:speed>0.361</gom:speed></extensions></trkpt>
   <trkpt lat="59.0707832828" lon="30.021752736"><ele>103.605</ele><time>2026-04-20T17:44:50.555Z</time><hdop>5.187</hdop><vdop>2.937</vdop><extensions><gom:speed>0.417</gom:speed></extensions></trkpt>
   <trkpt lat="59.0707879767" lon="30.0217507244"><ele>103.942</ele><time>2026-04-20T17:44:51.075Z</time><hdop>5.0</hdop><vdop>2.812</vdop><extensions><gom:speed>0.434</gom:speed></extensions></trkpt>
   <trkpt lat="59.0707941793" lon="30.0217488803"><ele>104.143</ele><time>2026-04-20T17:44:52.015Z</time><hdop>4.812</hdop><vdop>2.812</vdop><extensions><gom:speed>0.472</gom:speed></extensions></trkpt>
   <trkpt lat="59.0708014716" lon="30.0217434321"><ele>103.676</ele><time>2026-04-20T17:44:52.503Z</time><hdop>4.75</hdop><vdop>2.75</vdop><extensions><gom:speed>0.56</gom:speed></extensions></trkpt>
   <trkpt lat="59.0708079675" lon="30.0217355531"><ele>103.436</ele><time>2026-04-20T17:44:53.075Z</time><hdop>4.687</hdop><vdop>2.812</vdop><extensions><gom:speed>0.558</gom:speed></extensions></trkpt>
   <trkpt lat="59.0708180677" lon="30.0217216392"><ele>103.193</ele><time>2026-04-20T17:44:54.075Z</time><hdop>4.625</hdop><vdop>2.625</vdop><extensions><gom:speed>0.635</gom:speed></extensions></trkpt>
   <trkpt lat="59.0708249828" lon="30.0217094854"><ele>103.153</ele><time>2026-04-20T17:44:55.075Z</time><hdop>4.5</hdop><vdop>2.5</vdop><extensions><gom:speed>0.564</gom:speed></extensions></trkpt>
   <trkpt lat="59.0708317721" lon="30.0217007682"><ele>103.086</ele><time>2026-04-20T17:44:56.075Z</time><hdop>4.437</hdop><vdop>2.5</vdop><extensions><gom:speed>0.464</gom:speed></extensions></trkpt>
   <trkpt lat="59.0708384777" lon="30.0216967449"><ele>103.046</ele><time>2026-04-20T17:44:56.961Z</time><hdop>4.437</hdop><vdop>2.5</vdop><extensions><gom:speed>0.523</gom:speed></extensions></trkpt>
   <trkpt lat="59.070845267" lon="30.0216967449"><ele>102.787</ele><time>2026-04-20T17:44:57.860Z</time><hdop>4.375</hdop><vdop>4.687</vdop><extensions><gom:speed>0.511</gom:speed></extensions></trkpt>
   <trkpt lat="59.0708528945" lon="30.0216986727"><ele>102.446</ele><time>2026-04-20T17:44:58.876Z</time><hdop>4.312</hdop><vdop>4.5</vdop><extensions><gom:speed>0.474</gom:speed></extensions></trkpt>
   <trkpt lat="59.070859181" lon="30.0217012711"><ele>102.008</ele><time>2026-04-20T17:44:59.656Z</time><hdop>4.312</hdop><vdop>4.187</vdop><extensions><gom:speed>0.489</gom:speed></extensions></trkpt>
   <trkpt lat="59.0708668923" lon="30.0217009359"><ele>101.917</ele><time>2026-04-20T17:45:00.593Z</time><hdop>4.25</hdop><vdop>4.062</vdop><extensions><gom:speed>0.519</gom:speed></extensions></trkpt>
   <trkpt lat="59.0708706642" lon="30.0216998462"><ele>101.737</ele><time>2026-04-20T17:45:01.076Z</time><hdop>4.25</hdop><vdop>3.937</vdop><extensions><gom:speed>0.51</gom:speed></extensions></trkpt>
   <trkpt lat="59.0708756933" lon="30.0216958229"><ele>101.549</ele><time>2026-04-20T17:45:02.076Z</time><hdop>4.25</hdop><vdop>3.937</vdop><extensions><gom:speed>0.463</gom:speed></extensions></trkpt>
   <trkpt lat="59.0708787946" lon="30.021692554"><ele>101.608</ele><time>2026-04-20T17:45:03.075Z</time><hdop>4.187</hdop><vdop>3.812</vdop><extensions><gom:speed>0.362</gom:speed></extensions></trkpt>
   <trkpt lat="59.0708793813" lon="30.0216909614"><ele>101.644</ele><time>2026-04-20T17:45:03.554Z</time><hdop>4.187</hdop><vdop>3.812</vdop><extensions><gom:speed>0.353</gom:speed></extensions></trkpt>
   <trkpt lat="59.0708811835" lon="30.0216902908"><ele>101.673</ele><time>2026-04-20T17:45:04.075Z</time><hdop>4.187</hdop><vdop>3.687</vdop><extensions><gom:speed>0.347</gom:speed></extensions></trkpt>
   <trkpt lat="59.0708826922" lon="30.021687441"><ele>101.69</ele><time>2026-04-20T17:45:04.720Z</time><hdop>4.187</hdop><vdop>3.687</vdop><extensions><gom:speed>0.376</gom:speed></extensions></trkpt>
   <trkpt lat="59.0708858773" lon="30.0216848426"><ele>101.612</ele><time>2026-04-20T17:45:05.834Z</time><hdop>4.25</hdop><vdop>3.625</vdop><extensions><gom:speed>0.307</gom:speed></extensions></trkpt>
   <trkpt lat="59.0708893977" lon="30.0216854293"><ele>101.511</ele><time>2026-04-20T17:45:07.075Z</time><hdop>4.25</hdop><vdop>3.5</vdop><extensions><gom:speed>0.251</gom:speed></extensions></trkpt>
   <trkpt lat="59.0708926667" lon="30.0216889497"><ele>101.478</ele><time>2026-04-20T17:45:08.075Z</time><hdop>4.25</hdop><vdop>3.5</vdop><extensions><gom:speed>0.216</gom:speed></extensions></trkpt>
   <trkpt lat="59.0708928762" lon="30.0216908776"><ele>101.458</ele><time>2026-04-20T17:45:08.704Z</time><hdop>4.25</hdop><vdop>3.5</vdop><extensions><gom:speed>0.18</gom:speed></extensions></trkpt>
   <trkpt lat="59.0708951812" lon="30.0216960744"><ele>101.469</ele><time>2026-04-20T17:45:10.075Z</time><hdop>4.25</hdop><vdop>3.5</vdop><extensions><gom:speed>0.097</gom:speed></extensions></trkpt>
   <trkpt lat="59.0708946783" lon="30.0216973316"><ele>101.484</ele><time>2026-04-20T17:45:11.076Z</time><hdop>4.25</hdop><vdop>3.5</vdop><extensions><gom:speed>0.082</gom:speed></extensions></trkpt>
   <trkpt lat="59.0708959775" lon="30.0216983375"><ele>101.496</ele><time>2026-04-20T17:45:12.075Z</time><hdop>4.187</hdop><vdop>3.437</vdop><extensions><gom:speed>0.104</gom:speed></extensions></trkpt>
   <trkpt lat="59.0708973605" lon="30.0216985889"><ele>101.519</ele><time>2026-04-20T17:45:13.076Z</time><hdop>4.125</hdop><vdop>3.312</vdop><extensions><gom:speed>0.063</gom:speed></extensions></trkpt>
   <trkpt lat="59.0708993722" lon="30.0216987566"><ele>101.56</ele><time>2026-04-20T17:45:14.075Z</time><hdop>4.062</hdop><vdop>3.375</vdop><extensions><gom:speed>0.074</gom:speed></extensions></trkpt>
   <trkpt lat="59.0708995817" lon="30.0216981698"><ele>101.584</ele><time>2026-04-20T17:45:14.864Z</time><hdop>4.062</hdop><vdop>3.375</vdop><extensions><gom:speed>0.065</gom:speed></extensions></trkpt>
   <trkpt lat="59.070901761" lon="30.0216997624"><ele>101.611</ele><time>2026-04-20T17:45:16.075Z</time><hdop>3.937</hdop><vdop>3.625</vdop><extensions><gom:speed>0.104</gom:speed></extensions></trkpt>
   <trkpt lat="59.0709022639" lon="30.0216992595"><ele>101.65</ele><time>2026-04-20T17:45:17.076Z</time><hdop>3.875</hdop><vdop>3.562</vdop><extensions><gom:speed>0.073</gom:speed></extensions></trkpt>
   <trkpt lat="59.0709024735" lon="30.0217000977"><ele>101.675</ele><time>2026-04-20T17:45:18.075Z</time><hdop>3.812</hdop><vdop>3.437</vdop><extensions><gom:speed>0.06</gom:speed></extensions></trkpt>
   <trkpt lat="59.070903186" lon="30.0217009359"><ele>101.698</ele><time>2026-04-20T17:45:19.075Z</time><hdop>3.687</hdop><vdop>3.375</vdop><extensions><gom:speed>0.063</gom:speed></extensions></trkpt>
   <trkpt lat="59.0709037727" lon="30.0217019417"><ele>101.73</ele><time>2026-04-20T17:45:20.075Z</time><hdop>3.625</hdop><vdop>3.312</vdop><extensions><gom:speed>0.11</gom:speed></extensions></trkpt>
   <trkpt lat="59.0709051976" lon="30.0217034504"><ele>101.762</ele><time>2026-04-20T17:45:21.075Z</time><hdop>3.625</hdop><vdop>3.25</vdop><extensions><gom:speed>0.078</gom:speed></extensions></trkpt>
   <trkpt lat="59.0709065806" lon="30.0217055459"><ele>101.793</ele><time>2026-04-20T17:45:22.075Z</time><hdop>3.562</hdop><vdop>3.187</vdop><extensions><gom:speed>0.079</gom:speed></extensions></trkpt>
   <trkpt lat="59.0709069997" lon="30.0217063841"><ele>101.817</ele><time>2026-04-20T17:45:23.076Z</time><hdop>3.562</hdop><vdop>3.125</vdop><extensions><gom:speed>0.145</gom:speed></extensions></trkpt>
   <trkpt lat="59.0709081732" lon="30.0217067194"><ele>101.833</ele><time>2026-04-20T17:45:24.075Z</time><hdop>3.625</hdop><vdop>3.312</vdop><extensions><gom:speed>0.215</gom:speed></extensions></trkpt>
   <trkpt lat="59.0709100591" lon="30.0217070546"><ele>101.848</ele><time>2026-04-20T17:45:25.075Z</time><hdop>3.625</hdop><vdop>3.375</vdop><extensions><gom:speed>0.24</gom:speed></extensions></trkpt>
   <trkpt lat="59.0709115679" lon="30.0217089825"><ele>101.875</ele><time>2026-04-20T17:45:26.075Z</time><hdop>3.625</hdop><vdop>3.312</vdop><extensions><gom:speed>0.261</gom:speed></extensions></trkpt>
   <trkpt lat="59.0709131604" lon="30.0217106589"><ele>101.893</ele><time>2026-04-20T17:45:27.075Z</time><hdop>3.625</hdop><vdop>3.312</vdop><extensions><gom:speed>0.298</gom:speed></extensions></trkpt>
   <trkpt lat="59.0709153816" lon="30.0217121676"><ele>101.918</ele><time>2026-04-20T17:45:28.075Z</time><hdop>3.687</hdop><vdop>3.437</vdop><extensions><gom:speed>0.316</gom:speed></extensions></trkpt>
   <trkpt lat="59.0709167646" lon="30.0217130896"><ele>101.936</ele><time>2026-04-20T17:45:29.075Z</time><hdop>3.75</hdop><vdop>3.562</vdop><extensions><gom:speed>0.348</gom:speed></extensions></trkpt>
   <trkpt lat="59.0709184829" lon="30.0217137602"><ele>101.95</ele><time>2026-04-20T17:45:30.075Z</time><hdop>3.812</hdop><vdop>3.687</vdop><extensions><gom:speed>0.375</gom:speed></extensions></trkpt>
   <trkpt lat="59.0709201593" lon="30.0217144307"><ele>101.962</ele><time>2026-04-20T17:45:31.076Z</time><hdop>3.875</hdop><vdop>3.875</vdop><extensions><gom:speed>0.376</gom:speed></extensions></trkpt>
   <trkpt lat="59.0709213747" lon="30.0217160233"><ele>101.981</ele><time>2026-04-20T17:45:32.075Z</time><hdop>4.0</hdop><vdop>3.812</vdop><extensions><gom:speed>0.343</gom:speed></extensions></trkpt>
   <trkpt lat="59.070922171" lon="30.0217169453"><ele>102.012</ele><time>2026-04-20T17:45:33.075Z</time><hdop>4.125</hdop><vdop>4.0</vdop><extensions><gom:speed>0.3</gom:speed></extensions></trkpt>
   <trkpt lat="59.0709227996" lon="30.021718454"><ele>102.028</ele><time>2026-04-20T17:45:34.076Z</time><hdop>4.312</hdop><vdop>4.125</vdop><extensions><gom:speed>0.291</gom:speed></extensions></trkpt>
   <trkpt lat="59.0709232606" lon="30.0217190408"><ele>102.041</ele><time>2026-04-20T17:45:35.075Z</time><hdop>4.375</hdop><vdop>4.062</vdop><extensions><gom:speed>0.295</gom:speed></extensions></trkpt>
   <trkpt lat="59.0709240988" lon="30.0217179511"><ele>102.052</ele><time>2026-04-20T17:45:36.075Z</time><hdop>4.5</hdop><vdop>4.187</vdop><extensions><gom:speed>0.315</gom:speed></extensions></trkpt>
   <trkpt lat="59.0709249789" lon="30.021717532"><ele>102.062</ele><time>2026-04-20T17:45:37.075Z</time><hdop>4.5</hdop><vdop>4.312</vdop><extensions><gom:speed>0.316</gom:speed></extensions></trkpt>
   <trkpt lat="59.0709256914" lon="30.0217187893"><ele>102.073</ele><time>2026-04-20T17:45:38.075Z</time><hdop>4.625</hdop><vdop>4.375</vdop><extensions><gom:speed>0.314</gom:speed></extensions></trkpt>
   <trkpt lat="59.0709262781" lon="30.0217204657"><ele>102.083</ele><time>2026-04-20T17:45:39.075Z</time><hdop>4.625</hdop><vdop>4.687</vdop><extensions><gom:speed>0.348</gom:speed></extensions></trkpt>
   <trkpt lat="59.0709264876" lon="30.0217205495"><ele>102.089</ele><time>2026-04-20T17:45:39.621Z</time><hdop>4.687</hdop><vdop>4.687</vdop><extensions><gom:speed>0.35</gom:speed></extensions></trkpt>
   <trkpt lat="59.070928164" lon="30.0217213877"><ele>102.959</ele><time>2026-04-20T17:45:40.075Z</time><hdop>4.75</hdop><vdop>4.0</vdop><extensions><gom:speed>0.479</gom:speed></extensions></trkpt>
   <trkpt lat="59.0709308881" lon="30.0217222259"><ele>104.343</ele><time>2026-04-20T17:45:41.075Z</time><hdop>4.812</hdop><vdop>3.562</vdop><extensions><gom:speed>0.38</gom:speed></extensions></trkpt>
   <trkpt lat="59.0709335704" lon="30.0217223935"><ele>105.2</ele><time>2026-04-20T17:45:42.075Z</time><hdop>4.875</hdop><vdop>3.187</vdop><extensions><gom:speed>0.372</gom:speed></extensions></trkpt>
   <trkpt lat="59.0709366717" lon="30.0217231479"><ele>105.597</ele><time>2026-04-20T17:45:43.075Z</time><hdop>5.062</hdop><vdop>2.937</vdop><extensions><gom:speed>0.368</gom:speed></extensions></trkpt>
   <trkpt lat="59.0709404854" lon="30.0217233994"><ele>105.861</ele><time>2026-04-20T17:45:44.075Z</time><hdop>5.187</hdop><vdop>2.687</vdop><extensions><gom:speed>0.388</gom:speed></extensions></trkpt>
   <trkpt lat="59.0709446764" lon="30.021724489"><ele>106.05</ele><time>2026-04-20T17:45:45.075Z</time><hdop>5.312</hdop><vdop>2.5</vdop><extensions><gom:speed>0.385</gom:speed></extensions></trkpt>
   <trkpt lat="59.0709454727" lon="30.0217245728"><ele>106.163</ele><time>2026-04-20T17:45:45.780Z</time><hdop>5.375</hdop><vdop>2.5</vdop><extensions><gom:speed>0.385</gom:speed></extensions></trkpt>
   <trkpt lat="59.0709534774" lon="30.0217269198"><ele>105.864</ele><time>2026-04-20T17:45:47.075Z</time><hdop>5.562</hdop><vdop>2.5</vdop><extensions><gom:speed>0.357</gom:speed></extensions></trkpt>
   <trkpt lat="59.0709571654" lon="30.0217280932"><ele>105.718</ele><time>2026-04-20T17:45:48.075Z</time><hdop>5.625</hdop><vdop>2.5</vdop><extensions><gom:speed>0.348</gom:speed></extensions></trkpt>
   <trkpt lat="59.0709609792" lon="30.0217294343"><ele>105.667</ele><time>2026-04-20T17:45:49.075Z</time><hdop>5.625</hdop><vdop>4.937</vdop><extensions><gom:speed>0.309</gom:speed></extensions></trkpt>
   <trkpt lat="59.0709648768" lon="30.0217302725"><ele>105.501</ele><time>2026-04-20T17:45:50.076Z</time><hdop>5.625</hdop><vdop>4.625</vdop><extensions><gom:speed>0.288</gom:speed></extensions></trkpt>
   <trkpt lat="59.0709682714" lon="30.0217315298"><ele>105.261</ele><time>2026-04-20T17:45:51.075Z</time><hdop>5.625</hdop><vdop>4.625</vdop><extensions><gom:speed>0.291</gom:speed></extensions></trkpt>
   <trkpt lat="59.0709690677" lon="30.0217319489"><ele>105.117</ele><time>2026-04-20T17:45:51.940Z</time><hdop>5.625</hdop><vdop>4.625</vdop><extensions><gom:speed>0.291</gom:speed></extensions></trkpt>
   <trkpt lat="59.0709750608" lon="30.0217348826"><ele>105.167</ele><time>2026-04-20T17:45:53.075Z</time><hdop>5.625</hdop><vdop>4.562</vdop><extensions><gom:speed>0.307</gom:speed></extensions></trkpt>
   <trkpt lat="59.0709776592" lon="30.0217370619"><ele>105.137</ele><time>2026-04-20T17:45:54.075Z</time><hdop>5.625</hdop><vdop>4.375</vdop><extensions><gom:speed>0.294</gom:speed></extensions></trkpt>
   <trkpt lat="59.0709803833" lon="30.0217387382"><ele>104.985</ele><time>2026-04-20T17:45:55.075Z</time><hdop>5.562</hdop><vdop>4.125</vdop><extensions><gom:speed>0.298</gom:speed></extensions></trkpt>
   <trkpt lat="59.0709831912" lon="30.0217397441"><ele>104.743</ele><time>2026-04-20T17:45:56.075Z</time><hdop>5.5</hdop><vdop>3.812</vdop><extensions><gom:speed>0.296</gom:speed></extensions></trkpt>
   <trkpt lat="59.0709856639" lon="30.0217404984"><ele>104.637</ele><time>2026-04-20T17:45:57.075Z</time><hdop>5.5</hdop><vdop>3.812</vdop><extensions><gom:speed>0.3</gom:speed></extensions></trkpt>
   <trkpt lat="59.0709878851" lon="30.0217407499"><ele>104.422</ele><time>2026-04-20T17:45:58.075Z</time><hdop>5.5</hdop><vdop>4.0</vdop><extensions><gom:speed>0.322</gom:speed></extensions></trkpt>
   <trkpt lat="59.0709904835" lon="30.0217397441"><ele>104.315</ele><time>2026-04-20T17:45:59.075Z</time><hdop>5.5</hdop><vdop>4.187</vdop><extensions><gom:speed>0.338</gom:speed></extensions></trkpt>
   <trkpt lat="59.0709922856" lon="30.021740247"><ele>104.291</ele><time>2026-04-20T17:46:00.075Z</time><hdop>5.562</hdop><vdop>4.062</vdop><extensions><gom:speed>0.332</gom:speed></extensions></trkpt>
   <trkpt lat="59.0709940877" lon="30.0217416719"><ele>104.276</ele><time>2026-04-20T17:46:01.075Z</time><hdop>5.625</hdop><vdop>4.062</vdop><extensions><gom:speed>0.325</gom:speed></extensions></trkpt>
   <trkpt lat="59.0709969795" lon="30.0217438512"><ele>104.267</ele><time>2026-04-20T17:46:02.045Z</time><hdop>5.687</hdop><vdop>4.062</vdop><extensions><gom:speed>0.407</gom:speed></extensions></trkpt>
   <trkpt lat="59.071000877" lon="30.0217459467"><ele>104.316</ele><time>2026-04-20T17:46:02.956Z</time><hdop>5.875</hdop><vdop>4.312</vdop><extensions><gom:speed>0.444</gom:speed></extensions></trkpt>
   <trkpt lat="59.0710025953" lon="30.0217461981"><ele>104.345</ele><time>2026-04-20T17:46:03.411Z</time><hdop>6.0</hdop><vdop>4.312</vdop><extensions><gom:speed>0.419</gom:speed></extensions></trkpt>
   <trkpt lat="59.0710051937" lon="30.0217463658"><ele>104.361</ele><time>2026-04-20T17:46:04.022Z</time><hdop>6.187</hdop><vdop>4.437</vdop><extensions><gom:speed>0.416</gom:speed></extensions></trkpt>
   <trkpt lat="59.0710105581" lon="30.0217429292"><ele>104.37</ele><time>2026-04-20T17:46:05.012Z</time><hdop>6.625</hdop><vdop>4.437</vdop><extensions><gom:speed>0.468</gom:speed></extensions></trkpt>
   <trkpt lat="59.0710148748" lon="30.0217380677"><ele>104.373</ele><time>2026-04-20T17:46:06.019Z</time><hdop>7.0</hdop><vdop>4.562</vdop><extensions><gom:speed>0.53</gom:speed></extensions></trkpt>
   <trkpt lat="59.0710186886" lon="30.0217290991"><ele>104.384</ele><time>2026-04-20T17:46:06.977Z</time><hdop>7.562</hdop><vdop>4.562</vdop><extensions><gom:speed>0.568</gom:speed></extensions></trkpt>
   <trkpt lat="59.0710224604" lon="30.0217195437"><ele>104.394</ele><time>2026-04-20T17:46:08.013Z</time><hdop>7.875</hdop><vdop>4.312</vdop><extensions><gom:speed>0.568</gom:speed></extensions></trkpt>
   <trkpt lat="59.0710233824" lon="30.0217192922"><ele>104.378</ele><time>2026-04-20T17:46:09.075Z</time><hdop>8.25</hdop><vdop>4.125</vdop><extensions><gom:speed>0.541</gom:speed></extensions></trkpt>
   <trkpt lat="59.0710257713" lon="30.0217167777"><ele>104.368</ele><time>2026-04-20T17:46:10.058Z</time><hdop>8.437</hdop><vdop>4.125</vdop><extensions><gom:speed>0.555</gom:speed></extensions></trkpt>
   <trkpt lat="59.0710220833" lon="30.021719879"><ele>104.342</ele><time>2026-04-20T17:46:10.537Z</time><hdop>8.187</hdop><vdop>4.062</vdop><extensions><gom:speed>0.532</gom:speed></extensions></trkpt>
   <trkpt lat="59.071021287" lon="30.0217155204"><ele>102.774</ele><time>2026-04-20T17:46:11.075Z</time><hdop>7.937</hdop><vdop>3.187</vdop><extensions><gom:speed>0.533</gom:speed></extensions></trkpt>
   <trkpt lat="59.0710221671" lon="30.0217093178"><ele>101.837</ele><time>2026-04-20T17:46:11.833Z</time><hdop>7.75</hdop><vdop>3.187</vdop><extensions><gom:speed>0.621</gom:speed></extensions></trkpt>
   <trkpt lat="59.0710224604" lon="30.021700852"><ele>101.173</ele><time>2026-04-20T17:46:12.593Z</time><hdop>7.312</hdop><vdop>2.562</vdop><extensions><gom:speed>0.649</gom:speed></extensions></trkpt>
   <trkpt lat="59.0710240949" lon="30.0216950685"><ele>101.153</ele><time>2026-04-20T17:46:13.075Z</time><hdop>7.062</hdop><vdop>2.5</vdop><extensions><gom:speed>0.657</gom:speed></extensions></trkpt>
   <trkpt lat="59.0710302975" lon="30.0216889497"><ele>100.801</ele><time>2026-04-20T17:46:14.075Z</time><hdop>6.687</hdop><vdop>2.5</vdop><extensions><gom:speed>0.669</gom:speed></extensions></trkpt>
   <trkpt lat="59.0710373802" lon="30.0216887821"><ele>100.283</ele><time>2026-04-20T17:46:15.076Z</time><hdop>6.125</hdop><vdop>2.5</vdop><extensions><gom:speed>0.713</gom:speed></extensions></trkpt>
   <trkpt lat="59.0710450916" lon="30.0216902908"><ele>99.974</ele><time>2026-04-20T17:46:15.921Z</time><hdop>5.937</hdop><vdop>2.5</vdop><extensions><gom:speed>0.822</gom:speed></extensions></trkpt>
   <trkpt lat="59.0710516714" lon="30.0216906261"><ele>99.455</ele><time>2026-04-20T17:46:16.601Z</time><hdop>5.812</hdop><vdop>2.5</vdop><extensions><gom:speed>0.87</gom:speed></extensions></trkpt>
   <trkpt lat="59.0710582931" lon="30.0216907938"><ele>98.851</ele><time>2026-04-20T17:46:17.075Z</time><hdop>5.75</hdop><vdop>2.5</vdop><extensions><gom:speed>0.849</gom:speed></extensions></trkpt>
   <trkpt lat="59.071065292" lon="30.0216932245"><ele>98.369</ele><time>2026-04-20T17:46:18.075Z</time><hdop>5.687</hdop><vdop>2.5</vdop><extensions><gom:speed>0.88</gom:speed></extensions></trkpt>
   <trkpt lat="59.0710732967" lon="30.0216984213"><ele>98.269</ele><time>2026-04-20T17:46:19.075Z</time><hdop>5.562</hdop><vdop>2.5</vdop><extensions><gom:speed>0.867</gom:speed></extensions></trkpt>
   <trkpt lat="59.0710795831" lon="30.0217021931"><ele>97.927</ele><time>2026-04-20T17:46:20.075Z</time><hdop>5.5</hdop><vdop>2.5</vdop><extensions><gom:speed>0.744</gom:speed></extensions></trkpt>
   <trkpt lat="59.0710840674" lon="30.0217015226"><ele>97.753</ele><time>2026-04-20T17:46:21.075Z</time><hdop>5.312</hdop><vdop>4.75</vdop><extensions><gom:speed>0.635</gom:speed></extensions></trkpt>
   <trkpt lat="59.0710891804" lon="30.0216977507"><ele>97.65</ele><time>2026-04-20T17:46:21.982Z</time><hdop>5.25</hdop><vdop>4.75</vdop><extensions><gom:speed>0.67</gom:speed></extensions></trkpt>
   <trkpt lat="59.0710935809" lon="30.0216998462"><ele>97.542</ele><time>2026-04-20T17:46:22.655Z</time><hdop>5.125</hdop><vdop>4.687</vdop><extensions><gom:speed>0.712</gom:speed></extensions></trkpt>
   <trkpt lat="59.0711016694" lon="30.0216997624"><ele>97.445</ele><time>2026-04-20T17:46:23.659Z</time><hdop>5.125</hdop><vdop>4.75</vdop><extensions><gom:speed>0.729</gom:speed></extensions></trkpt>
   <trkpt lat="59.0711063633" lon="30.0217016902"><ele>97.15</ele><time>2026-04-20T17:46:24.538Z</time><hdop>5.125</hdop><vdop>4.625</vdop><extensions><gom:speed>0.721</gom:speed></extensions></trkpt>
   <trkpt lat="59.0711095903" lon="30.021701355"><ele>97.022</ele><time>2026-04-20T17:46:24.989Z</time><hdop>5.125</hdop><vdop>4.5</vdop><extensions><gom:speed>0.714</gom:speed></extensions></trkpt>
   <trkpt lat="59.0711148709" lon="30.0217010197"><ele>96.945</ele><time>2026-04-20T17:46:25.921Z</time><hdop>5.187</hdop><vdop>4.5</vdop><extensions><gom:speed>0.667</gom:speed></extensions></trkpt>
   <trkpt lat="59.0711182656" lon="30.0217036181"><ele>96.991</ele><time>2026-04-20T17:46:26.878Z</time><hdop>5.312</hdop><vdop>4.187</vdop><extensions><gom:speed>0.615</gom:speed></extensions></trkpt>
   <trkpt lat="59.0711200677" lon="30.0217051268"><ele>97.097</ele><time>2026-04-20T17:46:27.755Z</time><hdop>5.375</hdop><vdop>4.062</vdop><extensions><gom:speed>0.569</gom:speed></extensions></trkpt>
   <trkpt lat="59.0711219955" lon="30.021705043"><ele>97.041</ele><time>2026-04-20T17:46:28.638Z</time><hdop>5.375</hdop><vdop>4.0</vdop><extensions><gom:speed>0.548</gom:speed></extensions></trkpt>
   <trkpt lat="59.0711238815" lon="30.0217027799"><ele>97.014</ele><time>2026-04-20T17:46:29.135Z</time><hdop>5.312</hdop><vdop>4.187</vdop><extensions><gom:speed>0.55</gom:speed></extensions></trkpt>
   <trkpt lat="59.0711283658" lon="30.0216949847"><ele>96.998</ele><time>2026-04-20T17:46:29.839Z</time><hdop>5.375</hdop><vdop>4.187</vdop><extensions><gom:speed>0.562</gom:speed></extensions></trkpt>
   <trkpt lat="59.0711292878" lon="30.0216938951"><ele>97.032</ele><time>2026-04-20T17:46:30.697Z</time><hdop>5.312</hdop><vdop>3.937</vdop><extensions><gom:speed>0.594</gom:speed></extensions></trkpt>
   <trkpt lat="59.0711311737" lon="30.0216887821"><ele>97.059</ele><time>2026-04-20T17:46:31.754Z</time><hdop>5.187</hdop><vdop>3.812</vdop><extensions><gom:speed>0.582</gom:speed></extensions></trkpt>
   <trkpt lat="59.0711310899" lon="30.0216857646"><ele>97.132</ele><time>2026-04-20T17:46:32.514Z</time><hdop>5.062</hdop><vdop>3.625</vdop><extensions><gom:speed>0.596</gom:speed></extensions></trkpt>
   <trkpt lat="59.0711304613" lon="30.021682328"><ele>97.167</ele><time>2026-04-20T17:46:33.075Z</time><hdop>5.0</hdop><vdop>3.437</vdop><extensions><gom:speed>0.572</gom:speed></extensions></trkpt>
   <trkpt lat="59.0711306708" lon="30.0216770474"><ele>97.193</ele><time>2026-04-20T17:46:34.076Z</time><hdop>4.875</hdop><vdop>3.5</vdop><extensions><gom:speed>0.521</gom:speed></extensions></trkpt>
   <trkpt lat="59.0711334787" lon="30.0216688332"><ele>97.209</ele><time>2026-04-20T17:46:35.060Z</time><hdop>4.812</hdop><vdop>3.5</vdop><extensions><gom:speed>0.583</gom:speed></extensions></trkpt>
   <trkpt lat="59.0711340655" lon="30.0216681626"><ele>98.312</ele><time>2026-04-20T17:46:35.650Z</time><hdop>4.812</hdop><vdop>2.937</vdop><extensions><gom:speed>0.593</gom:speed></extensions></trkpt>
   <trkpt lat="59.0711434951" lon="30.0216569309"><ele>98.617</ele><time>2026-04-20T17:46:36.877Z</time><hdop>4.75</hdop><vdop>2.625</vdop><extensions><gom:speed>0.68</gom:speed></extensions></trkpt>
   <trkpt lat="59.0711488595" lon="30.0216549192"><ele>99.361</ele><time>2026-04-20T17:46:37.559Z</time><hdop>4.75</hdop><vdop>2.562</vdop><extensions><gom:speed>0.636</gom:speed></extensions></trkpt>
   <trkpt lat="59.0711536791" lon="30.0216532428"><ele>100.56</ele><time>2026-04-20T17:46:38.075Z</time><hdop>4.75</hdop><vdop>2.5</vdop><extensions><gom:speed>0.638</gom:speed></extensions></trkpt>
   <trkpt lat="59.0711617677" lon="30.0216481299"><ele>101.628</ele><time>2026-04-20T17:46:39.075Z</time><hdop>4.75</hdop><vdop>2.687</vdop><extensions><gom:speed>0.616</gom:speed></extensions></trkpt>
   <trkpt lat="59.0711705687" lon="30.0216376525"><ele>102.197</ele><time>2026-04-20T17:46:40.076Z</time><hdop>4.75</hdop><vdop>2.5</vdop><extensions><gom:speed>0.633</gom:speed></extensions></trkpt>
   <trkpt lat="59.0711775676" lon="30.0216280971"><ele>102.537</ele><time>2026-04-20T17:46:41.032Z</time><hdop>4.75</hdop><vdop>2.5</vdop><extensions><gom:speed>0.686</gom:speed></extensions></trkpt>
   <trkpt lat="59.0711872906" lon="30.0216182903"><ele>102.824</ele><time>2026-04-20T17:46:41.861Z</time><hdop>4.75</hdop><vdop>4.437</vdop><extensions><gom:speed>0.691</gom:speed></extensions></trkpt>
   <trkpt lat="59.0712008692" lon="30.0216098246"><ele>103.098</ele><time>2026-04-20T17:46:42.720Z</time><hdop>4.687</hdop><vdop>4.375</vdop><extensions><gom:speed>0.739</gom:speed></extensions></trkpt>
   <trkpt lat="59.0712103827" lon="30.0216093217"><ele>103.166</ele><time>2026-04-20T17:46:43.480Z</time><hdop>4.687</hdop><vdop>4.25</vdop><extensions><gom:speed>0.782</gom:speed></extensions></trkpt>
   <trkpt lat="59.0712174654" lon="30.0216118362"><ele>103.021</ele><time>2026-04-20T17:46:44.076Z</time><hdop>4.687</hdop><vdop>4.187</vdop><extensions><gom:speed>0.754</gom:speed></extensions></trkpt>
   <trkpt lat="59.0712266855" lon="30.0216175359"><ele>102.9</ele><time>2026-04-20T17:46:45.075Z</time><hdop>4.625</hdop><vdop>4.125</vdop><extensions><gom:speed>0.659</gom:speed></extensions></trkpt>
   <trkpt lat="59.0712329719" lon="30.0216244929"><ele>102.632</ele><time>2026-04-20T17:46:46.075Z</time><hdop>4.562</hdop><vdop>4.062</vdop><extensions><gom:speed>0.57</gom:speed></extensions></trkpt>
   <trkpt lat="59.0712380849" lon="30.0216284324"><ele>102.514</ele><time>2026-04-20T17:46:47.075Z</time><hdop>4.437</hdop><vdop>3.937</vdop><extensions><gom:speed>0.463</gom:speed></extensions></trkpt>
   <trkpt lat="59.0712429883" lon="30.0216298573"><ele>102.444</ele><time>2026-04-20T17:46:47.963Z</time><hdop>4.375</hdop><vdop>3.937</vdop><extensions><gom:speed>0.503</gom:speed></extensions></trkpt>
   <trkpt lat="59.071250993" lon="30.021630025"><ele>102.524</ele><time>2026-04-20T17:46:48.840Z</time><hdop>4.25</hdop><vdop>3.875</vdop><extensions><gom:speed>0.547</gom:speed></extensions></trkpt>
   <trkpt lat="59.0712561898" lon="30.0216280971"><ele>102.69</ele><time>2026-04-20T17:46:49.641Z</time><hdop>4.25</hdop><vdop>3.937</vdop><extensions><gom:speed>0.592</gom:speed></extensions></trkpt>
   <trkpt lat="59.071262099" lon="30.0216240738"><ele>102.95</ele><time>2026-04-20T17:46:50.459Z</time><hdop>4.187</hdop><vdop>3.937</vdop><extensions><gom:speed>0.632</gom:speed></extensions></trkpt>
   <trkpt lat="59.0712659966" lon="30.0216210563"><ele>103.003</ele><time>2026-04-20T17:46:51.075Z</time><hdop>4.25</hdop><vdop>4.0</vdop><extensions><gom:speed>0.603</gom:speed></extensions></trkpt>
   <trkpt lat="59.071272786" lon="30.0216175359"><ele>103.114</ele><time>2026-04-20T17:46:52.075Z</time><hdop>4.25</hdop><vdop>4.125</vdop><extensions><gom:speed>0.632</gom:speed></extensions></trkpt>
   <trkpt lat="59.0712796591" lon="30.0216147699"><ele>103.146</ele><time>2026-04-20T17:46:53.075Z</time><hdop>4.312</hdop><vdop>4.25</vdop><extensions><gom:speed>0.666</gom:speed></extensions></trkpt>
   <trkpt lat="59.0712854846" lon="30.0216096569"><ele>103.166</ele><time>2026-04-20T17:46:53.974Z</time><hdop>4.375</hdop><vdop>4.25</vdop><extensions><gom:speed>0.68</gom:speed></extensions></trkpt>
   <trkpt lat="59.0712911843" lon="30.0216057174"><ele>103.205</ele><time>2026-04-20T17:46:54.793Z</time><hdop>4.437</hdop><vdop>4.312</vdop><extensions><gom:speed>0.673</gom:speed></extensions></trkpt>
   <trkpt lat="59.0712951657" lon="30.0216086511"><ele>103.199</ele><time>2026-04-20T17:46:55.707Z</time><hdop>4.5</hdop><vdop>4.187</vdop><extensions><gom:speed>0.714</gom:speed></extensions></trkpt>
   <trkpt lat="59.0712989794" lon="30.0216150214"><ele>103.164</ele><time>2026-04-20T17:46:56.520Z</time><hdop>4.5</hdop><vdop>4.0</vdop><extensions><gom:speed>0.727</gom:speed></extensions></trkpt>
   <trkpt lat="59.0713010749" lon="30.0216187932"><ele>103.128</ele><time>2026-04-20T17:46:57.075Z</time><hdop>4.5</hdop><vdop>4.125</vdop><extensions><gom:speed>0.692</gom:speed></extensions></trkpt>
   <trkpt lat="59.0713041762" lon="30.0216204696"><ele>103.106</ele><time>2026-04-20T17:46:57.600Z</time><hdop>4.5</hdop><vdop>4.125</vdop><extensions><gom:speed>0.725</gom:speed></extensions></trkpt>
   <trkpt lat="59.0713055592" lon="30.0216214754"><ele>103.089</ele><time>2026-04-20T17:46:58.075Z</time><hdop>4.5</hdop><vdop>4.312</vdop><extensions><gom:speed>0.685</gom:speed></extensions></trkpt>
   <trkpt lat="59.0713108817" lon="30.0216215592"><ele>103.102</ele><time>2026-04-20T17:46:58.985Z</time><hdop>4.562</hdop><vdop>4.437</vdop><extensions><gom:speed>0.676</gom:speed></extensions></trkpt>
   <trkpt lat="59.0713156594" lon="30.0216199667"><ele>103.107</ele><time>2026-04-20T17:47:00.075Z</time><hdop>4.625</hdop><vdop>4.312</vdop><extensions><gom:speed>0.685</gom:speed></extensions></trkpt>
   <trkpt lat="59.0713168748" lon="30.0216195476"><ele>103.11</ele><time>2026-04-20T17:47:00.525Z</time><hdop>4.687</hdop><vdop>4.312</vdop><extensions><gom:speed>0.69</gom:speed></extensions></trkpt>
   <trkpt lat="59.0713191798" lon="30.0216185418"><ele>103.119</ele><time>2026-04-20T17:47:01.076Z</time><hdop>4.687</hdop><vdop>4.125</vdop><extensions><gom:speed>0.644</gom:speed></extensions></trkpt>
   <trkpt lat="59.0713197665" lon="30.0216187932"><ele>103.125</ele><time>2026-04-20T17:47:02.075Z</time><hdop>4.75</hdop><vdop>4.187</vdop><extensions><gom:speed>0.625</gom:speed></extensions></trkpt>
   <trkpt lat="59.0713210657" lon="30.0216191285"><ele>103.133</ele><time>2026-04-20T17:47:03.075Z</time><hdop>4.75</hdop><vdop>4.312</vdop><extensions><gom:speed>0.586</gom:speed></extensions></trkpt>
   <trkpt lat="59.0713258853" lon="30.0216201343"><ele>103.138</ele><time>2026-04-20T17:47:04.083Z</time><hdop>4.812</hdop><vdop>4.312</vdop><extensions><gom:speed>0.603</gom:speed></extensions></trkpt>
   <trkpt lat="59.0713284837" lon="30.0216241576"><ele>103.142</ele><time>2026-04-20T17:47:04.922Z</time><hdop>4.75</hdop><vdop>4.312</vdop><extensions><gom:speed>0.657</gom:speed></extensions></trkpt>
   <trkpt lat="59.0713286933" lon="30.0216291868"><ele>103.153</ele><time>2026-04-20T17:47:05.839Z</time><hdop>4.687</hdop><vdop>4.312</vdop><extensions><gom:speed>0.605</gom:speed></extensions></trkpt>
   <trkpt lat="59.0713268912" lon="30.0216314499"><ele>103.167</ele><time>2026-04-20T17:47:06.685Z</time><hdop>4.625</hdop><vdop>4.312</vdop><extensions><gom:speed>0.557</gom:speed></extensions></trkpt>
   <trkpt lat="59.0713294895" lon="30.0216349703"><ele>103.18</ele><time>2026-04-20T17:47:07.793Z</time><hdop>4.437</hdop><vdop>4.187</vdop><extensions><gom:speed>0.568</gom:speed></extensions></trkpt>
   <trkpt lat="59.0713299925" lon="30.0216337968"><ele>100.691</ele><time>2026-04-20T17:47:09.075Z</time><hdop>4.312</hdop><vdop>3.5</vdop><extensions><gom:speed>0.541</gom:speed></extensions></trkpt>
   <trkpt lat="59.07133389" lon="30.021632791"><ele>99.204</ele><time>2026-04-20T17:47:10.015Z</time><hdop>4.187</hdop><vdop>3.5</vdop><extensions><gom:speed>0.514</gom:speed></extensions></trkpt>
   <trkpt lat="59.0713359855" lon="30.0216328748"><ele>96.475</ele><time>2026-04-20T17:47:11.076Z</time><hdop>4.125</hdop><vdop>2.875</vdop><extensions><gom:speed>0.45</gom:speed></extensions></trkpt>
   <trkpt lat="59.0713389611" lon="30.0216342997"><ele>94.713</ele><time>2026-04-20T17:47:12.075Z</time><hdop>4.062</hdop><vdop>2.687</vdop><extensions><gom:speed>0.469</gom:speed></extensions></trkpt>
   <trkpt lat="59.0713410985" lon="30.0216343835"><ele>93.66</ele><time>2026-04-20T17:47:12.844Z</time><hdop>4.125</hdop><vdop>2.687</vdop><extensions><gom:speed>0.486</gom:speed></extensions></trkpt>
   <trkpt lat="59.0713469658" lon="30.0216357247"><ele>93.023</ele><time>2026-04-20T17:47:13.578Z</time><hdop>4.125</hdop><vdop>4.125</vdop><extensions><gom:speed>0.501</gom:speed></extensions></trkpt>
   <trkpt lat="59.0713503605" lon="30.0216366467"><ele>93.101</ele><time>2026-04-20T17:47:14.075Z</time><hdop>4.125</hdop><vdop>4.375</vdop><extensions><gom:speed>0.491</gom:speed></extensions></trkpt>
   <trkpt lat="59.0713543838" lon="30.021635557"><ele>93.147</ele><time>2026-04-20T17:47:14.675Z</time><hdop>4.187</hdop><vdop>4.375</vdop><extensions><gom:speed>0.543</gom:speed></extensions></trkpt>
   <trkpt lat="59.0713626819" lon="30.021634635"><ele>93.295</ele><time>2026-04-20T17:47:15.641Z</time><hdop>4.25</hdop><vdop>4.5</vdop><extensions><gom:speed>0.517</gom:speed></extensions></trkpt>
   <trkpt lat="59.0713713991" lon="30.0216322881"><ele>93.534</ele><time>2026-04-20T17:47:16.698Z</time><hdop>4.312</hdop><vdop>4.5</vdop><extensions><gom:speed>0.512</gom:speed></extensions></trkpt>
   <trkpt lat="59.0713803677" lon="30.0216262531"><ele>93.988</ele><time>2026-04-20T17:47:17.813Z</time><hdop>4.312</hdop><vdop>4.437</vdop><extensions><gom:speed>0.53</gom:speed></extensions></trkpt>
   <trkpt lat="59.0713879952" lon="30.0216206372"><ele>94.524</ele><time>2026-04-20T17:47:18.781Z</time><hdop>4.375</hdop><vdop>4.25</vdop><extensions><gom:speed>0.568</gom:speed></extensions></trkpt>
   <trkpt lat="59.0713965867" lon="30.0216168654"><ele>95.227</ele><time>2026-04-20T17:47:19.737Z</time><hdop>4.375</hdop><vdop>4.125</vdop><extensions><gom:speed>0.584</gom:speed></extensions></trkpt>
   <trkpt lat="59.0714060582" lon="30.021614267"><ele>95.86</ele><time>2026-04-20T17:47:20.902Z</time><hdop>4.437</hdop><vdop>4.187</vdop><extensions><gom:speed>0.556</gom:speed></extensions></trkpt>
   <trkpt lat="59.0714150688" lon="30.0216140993"><ele>96.186</ele><time>2026-04-20T17:47:22.075Z</time><hdop>4.437</hdop><vdop>4.125</vdop><extensions><gom:speed>0.472</gom:speed></extensions></trkpt>
   <trkpt lat="59.0714202656" lon="30.0216162786"><ele>96.381</ele><time>2026-04-20T17:47:23.014Z</time><hdop>4.437</hdop><vdop>4.125</vdop><extensions><gom:speed>0.464</gom:speed></extensions></trkpt>
   <trkpt lat="59.071428396" lon="30.0216233194"><ele>96.471</ele><time>2026-04-20T17:47:24.075Z</time><hdop>4.5</hdop><vdop>3.937</vdop><extensions><gom:speed>0.442</gom:speed></extensions></trkpt>
   <trkpt lat="59.0714330899" lon="30.0216263369"><ele>96.525</ele><time>2026-04-20T17:47:25.089Z</time><hdop>4.562</hdop><vdop>3.937</vdop><extensions><gom:speed>0.45</gom:speed></extensions></trkpt>
   <trkpt lat="59.071439963" lon="30.0216298573"><ele>96.64</ele><time>2026-04-20T17:47:26.075Z</time><hdop>4.562</hdop><vdop>4.0</vdop><extensions><gom:speed>0.353</gom:speed></extensions></trkpt>
   <trkpt lat="59.071443693" lon="30.0216289353"><ele>96.752</ele><time>2026-04-20T17:47:27.075Z</time><hdop>4.562</hdop><vdop>4.062</vdop><extensions><gom:speed>0.311</gom:speed></extensions></trkpt>
   <trkpt lat="59.0714467943" lon="30.0216268398"><ele>96.798</ele><time>2026-04-20T17:47:28.075Z</time><hdop>4.625</hdop><vdop>4.125</vdop><extensions><gom:speed>0.314</gom:speed></extensions></trkpt>
   <trkpt lat="59.0714489736" lon="30.0216226489"><ele>96.827</ele><time>2026-04-20T17:47:28.954Z</time><hdop>4.625</hdop><vdop>4.187</vdop><extensions><gom:speed>0.321</gom:speed></extensions></trkpt>
   <trkpt lat="59.0714499794" lon="30.0216208887"><ele>96.844</ele><time>2026-04-20T17:47:29.441Z</time><hdop>4.687</hdop><vdop>4.187</vdop><extensions><gom:speed>0.342</gom:speed></extensions></trkpt>
   <trkpt lat="59.071451572" lon="30.0216182903"><ele>96.856</ele><time>2026-04-20T17:47:30.020Z</time><hdop>4.75</hdop><vdop>4.25</vdop><extensions><gom:speed>0.347</gom:speed></extensions></trkpt>
   <trkpt lat="59.0714549666" lon="30.0216160272"><ele>96.866</ele><time>2026-04-20T17:47:31.075Z</time><hdop>4.812</hdop><vdop>4.125</vdop><extensions><gom:speed>0.372</gom:speed></extensions></trkpt>
   <trkpt lat="59.0714632647" lon="30.0216173683"><ele>96.54</ele><time>2026-04-20T17:47:32.076Z</time><hdop>4.937</hdop><vdop>3.437</vdop><extensions><gom:speed>0.431</gom:speed></extensions></trkpt>
   <trkpt lat="59.071470096" lon="30.0216209725"><ele>97.346</ele><time>2026-04-20T17:47:33.075Z</time><hdop>5.0</hdop><vdop>3.125</vdop><extensions><gom:speed>0.455</gom:speed></extensions></trkpt>
   <trkpt lat="59.0714735745" lon="30.0216222298"><ele>97.827</ele><time>2026-04-20T17:47:33.716Z</time><hdop>5.062</hdop><vdop>3.125</vdop><extensions><gom:speed>0.446</gom:speed></extensions></trkpt>
   <trkpt lat="59.0714799866" lon="30.0216236547"><ele>98.065</ele><time>2026-04-20T17:47:34.675Z</time><hdop>5.062</hdop><vdop>3.062</vdop><extensions><gom:speed>0.4</gom:speed></extensions></trkpt>
   <trkpt lat="59.0714877818" lon="30.021623068"><ele>98.138</ele><time>2026-04-20T17:47:35.761Z</time><hdop>4.937</hdop><vdop>3.0</vdop><extensions><gom:speed>0.432</gom:speed></extensions></trkpt>
   <trkpt lat="59.0714976724" lon="30.0216219783"><ele>98.07</ele><time>2026-04-20T17:47:36.952Z</time><hdop>4.875</hdop><vdop>4.875</vdop><extensions><gom:speed>0.471</gom:speed></extensions></trkpt>
   <trkpt lat="59.0715028692" lon="30.0216199667"><ele>98.035</ele><time>2026-04-20T17:47:37.601Z</time><hdop>4.875</hdop><vdop>4.687</vdop><extensions><gom:speed>0.485</gom:speed></extensions></trkpt>
   <trkpt lat="59.0715117959" lon="30.0216168654"><ele>98.019</ele><time>2026-04-20T17:47:38.075Z</time><hdop>4.812</hdop><vdop>4.687</vdop><extensions><gom:speed>0.509</gom:speed></extensions></trkpt>
   <trkpt lat="59.0715207646" lon="30.021613345"><ele>98.255</ele><time>2026-04-20T17:47:39.075Z</time><hdop>4.75</hdop><vdop>4.625</vdop><extensions><gom:speed>0.482</gom:speed></extensions></trkpt>
   <trkpt lat="59.0715250813" lon="30.0216129259"><ele>98.357</ele><time>2026-04-20T17:47:39.970Z</time><hdop>4.687</hdop><vdop>4.625</vdop><extensions><gom:speed>0.393</gom:speed></extensions></trkpt>
   <trkpt lat="59.0715312839" lon="30.0216094893"><ele>98.53</ele><time>2026-04-20T17:47:41.075Z</time><hdop>4.687</hdop><vdop>4.625</vdop><extensions><gom:speed>0.397</gom:speed></extensions></trkpt>
   <trkpt lat="59.071537696" lon="30.0216035381"><ele>98.496</ele><time>2026-04-20T17:47:42.075Z</time><hdop>4.687</hdop><vdop>4.5</vdop><extensions><gom:speed>0.37</gom:speed></extensions></trkpt>
   <trkpt lat="59.0715402944" lon="30.0216002692"><ele>98.475</ele><time>2026-04-20T17:47:42.658Z</time><hdop>4.75</hdop><vdop>4.5</vdop><extensions><gom:speed>0.372</gom:speed></extensions></trkpt>
   <trkpt lat="59.0715462875" lon="30.021594821"><ele>98.438</ele><time>2026-04-20T17:47:43.457Z</time><hdop>4.75</hdop><vdop>4.687</vdop><extensions><gom:speed>0.375</gom:speed></extensions></trkpt>
   <trkpt lat="59.0715493888" lon="30.0215922226"><ele>98.601</ele><time>2026-04-20T17:47:43.998Z</time><hdop>4.75</hdop><vdop>4.812</vdop><extensions><gom:speed>0.375</gom:speed></extensions></trkpt>
   <trkpt lat="59.0715550885" lon="30.0215892889"><ele>98.846</ele><time>2026-04-20T17:47:45.075Z</time><hdop>4.812</hdop><vdop>4.812</vdop><extensions><gom:speed>0.388</gom:speed></extensions></trkpt>
   <trkpt lat="59.0715574773" lon="30.0215897918"><ele>98.992</ele><time>2026-04-20T17:47:45.837Z</time><hdop>4.875</hdop><vdop>4.812</vdop><extensions><gom:speed>0.317</gom:speed></extensions></trkpt>
   <trkpt lat="59.0715615844" lon="30.0215907977"><ele>98.822</ele><time>2026-04-20T17:47:47.075Z</time><hdop>4.937</hdop><vdop>5.0</vdop><extensions><gom:speed>0.271</gom:speed></extensions></trkpt>
   <trkpt lat="59.0715632608" lon="30.021591552"><ele>98.701</ele><time>2026-04-20T17:47:48.026Z</time><hdop>5.0</hdop><vdop>4.937</vdop><extensions><gom:speed>0.263</gom:speed></extensions></trkpt>
   <trkpt lat="59.0715641828" lon="30.0215927255"><ele>98.634</ele><time>2026-04-20T17:47:48.973Z</time><hdop>5.125</hdop><vdop>4.812</vdop><extensions><gom:speed>0.247</gom:speed></extensions></trkpt>
   <trkpt lat="59.0715686672" lon="30.0215922226"><ele>98.605</ele><time>2026-04-20T17:47:50.076Z</time><hdop>5.187</hdop><vdop>4.687</vdop><extensions><gom:speed>0.27</gom:speed></extensions></trkpt>
   <trkpt lat="59.0715717685" lon="30.0215921388"><ele>98.608</ele><time>2026-04-20T17:47:50.986Z</time><hdop>5.25</hdop><vdop>4.75</vdop><extensions><gom:speed>0.26</gom:speed></extensions></trkpt>
   <trkpt lat="59.0715741992" lon="30.0215913844"><ele>98.64</ele><time>2026-04-20T17:47:51.934Z</time><hdop>5.312</hdop><vdop>4.625</vdop><extensions><gom:speed>0.297</gom:speed></extensions></trkpt>
   <trkpt lat="59.0715776777" lon="30.0215909653"><ele>98.675</ele><time>2026-04-20T17:47:53.000Z</time><hdop>5.437</hdop><vdop>4.5</vdop><extensions><gom:speed>0.332</gom:speed></extensions></trkpt>
   <trkpt lat="59.0715815753" lon="30.0215907977"><ele>98.713</ele><time>2026-04-20T17:47:53.949Z</time><hdop>5.562</hdop><vdop>4.562</vdop><extensions><gom:speed>0.366</gom:speed></extensions></trkpt>
   <trkpt lat="59.0715854729" lon="30.0215907977"><ele>98.731</ele><time>2026-04-20T17:47:55.015Z</time><hdop>5.687</hdop><vdop>4.562</vdop><extensions><gom:speed>0.364</gom:speed></extensions></trkpt>
   <trkpt lat="59.0715873588" lon="30.0215892889"><ele>98.742</ele><time>2026-04-20T17:47:55.482Z</time><hdop>5.875</hdop><vdop>4.562</vdop><extensions><gom:speed>0.391</gom:speed></extensions></trkpt>
   <trkpt lat="59.0715906697" lon="30.0215848465"><ele>98.756</ele><time>2026-04-20T17:47:56.075Z</time><hdop>5.875</hdop><vdop>4.375</vdop><extensions><gom:speed>0.382</gom:speed></extensions></trkpt>
   <trkpt lat="59.0715959922" lon="30.021582751"><ele>98.765</ele><time>2026-04-20T17:47:57.082Z</time><hdop>6.0</hdop><vdop>4.375</vdop><extensions><gom:speed>0.418</gom:speed></extensions></trkpt>
   <trkpt lat="59.0715994707" lon="30.0215813261"><ele>98.776</ele><time>2026-04-20T17:47:58.076Z</time><hdop>6.0</hdop><vdop>4.062</vdop><extensions><gom:speed>0.34</gom:speed></extensions></trkpt>
   <trkpt lat="59.0716018595" lon="30.0215802365"><ele>98.768</ele><time>2026-04-20T17:47:59.076Z</time><hdop>5.875</hdop><vdop>3.937</vdop><extensions><gom:speed>0.297</gom:speed></extensions></trkpt>
   <trkpt lat="59.0716043741" lon="30.0215794821"><ele>98.773</ele><time>2026-04-20T17:48:00.075Z</time><hdop>5.562</hdop><vdop>3.937</vdop><extensions><gom:speed>0.324</gom:speed></extensions></trkpt>
   <trkpt lat="59.0716064695" lon="30.0215812423"><ele>98.776</ele><time>2026-04-20T17:48:00.862Z</time><hdop>5.25</hdop><vdop>3.937</vdop><extensions><gom:speed>0.327</gom:speed></extensions></trkpt>
   <trkpt lat="59.0716081878" lon="30.0215842598"><ele>98.778</ele><time>2026-04-20T17:48:01.762Z</time><hdop>4.937</hdop><vdop>4.0</vdop><extensions><gom:speed>0.34</gom:speed></extensions></trkpt>
   <trkpt lat="59.0716083974" lon="30.0215843436"><ele>98.781</ele><time>2026-04-20T17:48:02.359Z</time><hdop>4.875</hdop><vdop>4.125</vdop><extensions><gom:speed>0.326</gom:speed></extensions></trkpt>
   <trkpt lat="59.0716103671" lon="30.021588786"><ele>98.783</ele><time>2026-04-20T17:48:03.032Z</time><hdop>4.75</hdop><vdop>4.125</vdop><extensions><gom:speed>0.332</gom:speed></extensions></trkpt>
   <trkpt lat="59.0716111634" lon="30.0215880316"><ele>98.79</ele><time>2026-04-20T17:48:03.960Z</time><hdop>4.687</hdop><vdop>4.125</vdop><extensions><gom:speed>0.309</gom:speed></extensions></trkpt>
   <trkpt lat="59.071612295" lon="30.0215881993"><ele>98.803</ele><time>2026-04-20T17:48:05.057Z</time><hdop>4.625</hdop><vdop>4.062</vdop><extensions><gom:speed>0.307</gom:speed></extensions></trkpt>
   <trkpt lat="59.0716151867" lon="30.0215901271"><ele>96.635</ele><time>2026-04-20T17:48:05.837Z</time><hdop>4.625</hdop><vdop>3.437</vdop><extensions><gom:speed>0.351</gom:speed></extensions></trkpt>
   <trkpt lat="59.0716204673" lon="30.0215896242"><ele>94.827</ele><time>2026-04-20T17:48:06.981Z</time><hdop>4.562</hdop><vdop>3.25</vdop><extensions><gom:speed>0.327</gom:speed></extensions></trkpt>
   <trkpt lat="59.0716269633" lon="30.0215880316"><ele>93.313</ele><time>2026-04-20T17:48:08.075Z</time><hdop>4.5</hdop><vdop>2.937</vdop><extensions><gom:speed>0.325</gom:speed></extensions></trkpt>
   <trkpt lat="59.0716332916" lon="30.021586942"><ele>91.83</ele><time>2026-04-20T17:48:09.075Z</time><hdop>4.437</hdop><vdop>2.875</vdop><extensions><gom:speed>0.314</gom:speed></extensions></trkpt>
   <trkpt lat="59.0716364768" lon="30.0215870258"><ele>90.945</ele><time>2026-04-20T17:48:10.021Z</time><hdop>4.437</hdop><vdop>2.875</vdop><extensions><gom:speed>0.32</gom:speed></extensions></trkpt>
   <trkpt lat="59.0716436852" lon="30.021587864"><ele>90.747</ele><time>2026-04-20T17:48:11.075Z</time><hdop>4.375</hdop><vdop>2.625</vdop><extensions><gom:speed>0.27</gom:speed></extensions></trkpt>
   <trkpt lat="59.0716476666" lon="30.0215897918"><ele>90.9</ele><time>2026-04-20T17:48:12.075Z</time><hdop>4.312</hdop><vdop>2.5</vdop><extensions><gom:speed>0.169</gom:speed></extensions></trkpt>
   <trkpt lat="59.0716507679" lon="30.0215912167"><ele>91.041</ele><time>2026-04-20T17:48:13.076Z</time><hdop>4.312</hdop><vdop>2.5</vdop><extensions><gom:speed>0.128</gom:speed></extensions></trkpt>
   <trkpt lat="59.0716554618" lon="30.0215932284"><ele>91.465</ele><time>2026-04-20T17:48:14.075Z</time><hdop>4.312</hdop><vdop>2.5</vdop><extensions><gom:speed>0.111</gom:speed></extensions></trkpt>
   <trkpt lat="59.0716558809" lon="30.0215934799"><ele>91.718</ele><time>2026-04-20T17:48:14.796Z</time><hdop>4.312</hdop><vdop>2.5</vdop><extensions><gom:speed>0.097</gom:speed></extensions></trkpt>
   <trkpt lat="59.0716661906" lon="30.0215984252"><ele>92.76</ele><time>2026-04-20T17:48:16.075Z</time><hdop>4.187</hdop><vdop>2.5</vdop><extensions><gom:speed>0.084</gom:speed></extensions></trkpt>
   <trkpt lat="59.0716670707" lon="30.0215990957"><ele>93.383</ele><time>2026-04-20T17:48:16.674Z</time><hdop>4.125</hdop><vdop>2.5</vdop><extensions><gom:speed>0.054</gom:speed></extensions></trkpt>
   <trkpt lat="59.0716734829" lon="30.0216017779"><ele>94.124</ele><time>2026-04-20T17:48:17.977Z</time><hdop>4.062</hdop><vdop>2.5</vdop><extensions><gom:speed>0.108</gom:speed></extensions></trkpt>
   <trkpt lat="59.071679895" lon="30.0216040411"><ele>94.701</ele><time>2026-04-20T17:48:18.482Z</time><hdop>3.937</hdop><vdop>4.687</vdop><extensions><gom:speed>0.086</gom:speed></extensions></trkpt>
   <trkpt lat="59.0716856785" lon="30.0216062204"><ele>95.132</ele><time>2026-04-20T17:48:19.075Z</time><hdop>3.875</hdop><vdop>4.437</vdop><extensions><gom:speed>0.118</gom:speed></extensions></trkpt>
   <trkpt lat="59.0716927612" lon="30.0216094893"><ele>95.56</ele><time>2026-04-20T17:48:20.075Z</time><hdop>3.75</hdop><vdop>4.437</vdop><extensions><gom:speed>0.093</gom:speed></extensions></trkpt>
   <trkpt lat="59.0716940604" lon="30.0216102437"><ele>95.816</ele><time>2026-04-20T17:48:20.955Z</time><hdop>3.75</hdop><vdop>4.437</vdop><extensions><gom:speed>0.095</gom:speed></extensions></trkpt>
   <trkpt lat="59.0717049988" lon="30.0216148537"><ele>96.022</ele><time>2026-04-20T17:48:22.075Z</time><hdop>3.562</hdop><vdop>4.375</vdop><extensions><gom:speed>0.092</gom:speed></extensions></trkpt>
   <trkpt lat="59.071710489" lon="30.0216168654"><ele>96.2</ele><time>2026-04-20T17:48:23.075Z</time><hdop>3.437</hdop><vdop>4.25</vdop><extensions><gom:speed>0.115</gom:speed></extensions></trkpt>
   <trkpt lat="59.071711872" lon="30.0216168654"><ele>96.22</ele><time>2026-04-20T17:48:24.035Z</time><hdop>3.375</hdop><vdop>4.312</vdop><extensions><gom:speed>0.073</gom:speed></extensions></trkpt>
   <trkpt lat="59.0717116624" lon="30.0216172845"><ele>96.222</ele><time>2026-04-20T17:48:24.984Z</time><hdop>3.375</hdop><vdop>4.312</vdop><extensions><gom:speed>0.072</gom:speed></extensions></trkpt>
   <trkpt lat="59.0717108661" lon="30.0216167816"><ele>96.488</ele><time>2026-04-20T17:48:26.050Z</time><hdop>3.5</hdop><vdop>4.312</vdop><extensions><gom:speed>0.103</gom:speed></extensions></trkpt>
   <trkpt lat="59.0717163982" lon="30.021619799"><ele>96.887</ele><time>2026-04-20T17:48:27.076Z</time><hdop>3.625</hdop><vdop>4.312</vdop><extensions><gom:speed>0.073</gom:speed></extensions></trkpt>
   <trkpt lat="59.0717201701" lon="30.0216216431"><ele>97.278</ele><time>2026-04-20T17:48:27.944Z</time><hdop>3.812</hdop><vdop>4.312</vdop><extensions><gom:speed>0.07</gom:speed></extensions></trkpt>
   <trkpt lat="59.0717203796" lon="30.0216219783"><ele>97.547</ele><time>2026-04-20T17:48:29.010Z</time><hdop>4.0</hdop><vdop>4.25</vdop><extensions><gom:speed>0.074</gom:speed></extensions></trkpt>
   <trkpt lat="59.0717193738" lon="30.0216211401"><ele>97.708</ele><time>2026-04-20T17:48:29.505Z</time><hdop>4.125</hdop><vdop>4.25</vdop><extensions><gom:speed>0.073</gom:speed></extensions></trkpt>
   <trkpt lat="59.0717246963" lon="30.0216244929"><ele>97.853</ele><time>2026-04-20T17:48:30.075Z</time><hdop>4.125</hdop><vdop>4.5</vdop><extensions><gom:speed>0.104</gom:speed></extensions></trkpt>
   <trkpt lat="59.0717259955" lon="30.021625834"><ele>97.934</ele><time>2026-04-20T17:48:31.025Z</time><hdop>4.25</hdop><vdop>4.5</vdop><extensions><gom:speed>0.106</gom:speed></extensions></trkpt>
   <trkpt lat="59.0717253668" lon="30.0216259178"><ele>97.985</ele><time>2026-04-20T17:48:31.973Z</time><hdop>4.312</hdop><vdop>4.5</vdop><extensions><gom:speed>0.089</gom:speed></extensions></trkpt>
   <trkpt lat="59.0717253668" lon="30.0216257502"><ele>98.015</ele><time>2026-04-20T17:48:32.696Z</time><hdop>4.375</hdop><vdop>4.5</vdop><extensions><gom:speed>0.072</gom:speed></extensions></trkpt>
   <trkpt lat="59.0717254926" lon="30.0216261693"><ele>98.042</ele><time>2026-04-20T17:48:33.393Z</time><hdop>4.375</hdop><vdop>4.625</vdop><extensions><gom:speed>0.075</gom:speed></extensions></trkpt>
   <trkpt lat="59.0717262888" lon="30.0216271751"><ele>98.06</ele><time>2026-04-20T17:48:33.985Z</time><hdop>4.437</hdop><vdop>5.0</vdop><extensions><gom:speed>0.105</gom:speed></extensions></trkpt>
   <trkpt lat="59.0717262888" lon="30.0216270913"><ele>98.071</ele><time>2026-04-20T17:48:34.503Z</time><hdop>4.437</hdop><vdop>5.0</vdop><extensions><gom:speed>0.087</gom:speed></extensions></trkpt>
   <trkpt lat="59.0717267918" lon="30.0216277618"><ele>98.081</ele><time>2026-04-20T17:48:35.051Z</time><hdop>4.437</hdop><vdop>5.125</vdop><extensions><gom:speed>0.125</gom:speed></extensions></trkpt>
   <trkpt lat="59.0717268756" lon="30.0216275942"><ele>98.086</ele><time>2026-04-20T17:48:35.717Z</time><hdop>4.5</hdop><vdop>5.125</vdop><extensions><gom:speed>0.109</gom:speed></extensions></trkpt>
   <trkpt lat="59.0717270851" lon="30.0216274266"><ele>98.108</ele><time>2026-04-20T17:48:36.947Z</time><hdop>4.625</hdop><vdop>4.687</vdop><extensions><gom:speed>0.135</gom:speed></extensions></trkpt>
   <trkpt lat="59.0717281748" lon="30.0216270913"><ele>98.124</ele><time>2026-04-20T17:48:38.014Z</time><hdop>4.687</hdop><vdop>4.687</vdop><extensions><gom:speed>0.134</gom:speed></extensions></trkpt>
   <trkpt lat="59.0717287615" lon="30.0216268398"><ele>98.137</ele><time>2026-04-20T17:48:38.960Z</time><hdop>4.812</hdop><vdop>4.687</vdop><extensions><gom:speed>0.121</gom:speed></extensions></trkpt>
   <trkpt lat="59.0717288872" lon="30.0216266722"><ele>98.144</ele><time>2026-04-20T17:48:39.553Z</time><hdop>4.875</hdop><vdop>4.687</vdop><extensions><gom:speed>0.085</gom:speed></extensions></trkpt>
   <trkpt lat="59.0717298931" lon="30.0216266722"><ele>98.146</ele><time>2026-04-20T17:48:40.026Z</time><hdop>5.0</hdop><vdop>4.625</vdop><extensions><gom:speed>0.11</gom:speed></extensions></trkpt>
   <trkpt lat="59.071729474" lon="30.021625834"><ele>98.134</ele><time>2026-04-20T17:48:40.974Z</time><hdop>5.125</hdop><vdop>4.687</vdop><extensions><gom:speed>0.096</gom:speed></extensions></trkpt>
   <trkpt lat="59.071729474" lon="30.0216256664"><ele>98.127</ele><time>2026-04-20T17:48:41.620Z</time><hdop>5.25</hdop><vdop>4.687</vdop><extensions><gom:speed>0.105</gom:speed></extensions></trkpt>
   <trkpt lat="59.071730396" lon="30.0216245767"><ele>98.115</ele><time>2026-04-20T17:48:42.556Z</time><hdop>5.375</hdop><vdop>4.437</vdop><extensions><gom:speed>0.091</gom:speed></extensions></trkpt>
   <trkpt lat="59.0717311923" lon="30.0216240738"><ele>98.113</ele><time>2026-04-20T17:48:44.054Z</time><hdop>5.5</hdop><vdop>4.187</vdop><extensions><gom:speed>0.128</gom:speed></extensions></trkpt>
   <trkpt lat="59.071738275" lon="30.0216313661"><ele>98.111</ele><time>2026-04-20T17:48:45.075Z</time><hdop>5.562</hdop><vdop>3.937</vdop><extensions><gom:speed>0.149</gom:speed></extensions></trkpt>
   <trkpt lat="59.0717387779" lon="30.0216319528"><ele>98.11</ele><time>2026-04-20T17:48:45.713Z</time><hdop>5.5</hdop><vdop>3.937</vdop><extensions><gom:speed>0.142</gom:speed></extensions></trkpt>
   <trkpt lat="59.0717524823" lon="30.0216454477"><ele>98.044</ele><time>2026-04-20T17:48:47.075Z</time><hdop>5.375</hdop><vdop>2.812</vdop><extensions><gom:speed>0.123</gom:speed></extensions></trkpt>
   <trkpt lat="59.071756799" lon="30.0216501415"><ele>97.695</ele><time>2026-04-20T17:48:48.075Z</time><hdop>5.125</hdop><vdop>2.562</vdop><extensions><gom:speed>0.094</gom:speed></extensions></trkpt>
   <trkpt lat="59.0717574695" lon="30.0216517341"><ele>97.486</ele><time>2026-04-20T17:48:48.737Z</time><hdop>4.937</hdop><vdop>2.562</vdop><extensions><gom:speed>0.088</gom:speed></extensions></trkpt>
   <trkpt lat="59.0717642589" lon="30.021656428"><ele>96.982</ele><time>2026-04-20T17:48:50.075Z</time><hdop>4.437</hdop><vdop>2.625</vdop><extensions><gom:speed>0.112</gom:speed></extensions></trkpt>
   <trkpt lat="59.0717685755" lon="30.0216592778"><ele>97.27</ele><time>2026-04-20T17:48:51.076Z</time><hdop>4.25</hdop><vdop>5.312</vdop><extensions><gom:speed>0.113</gom:speed></extensions></trkpt>
   <trkpt lat="59.0717686594" lon="30.0216598645"><ele>97.442</ele><time>2026-04-20T17:48:51.991Z</time><hdop>4.187</hdop><vdop>5.312</vdop><extensions><gom:speed>0.104</gom:speed></extensions></trkpt>
   <trkpt lat="59.0717763707" lon="30.0216683303"><ele>98.587</ele><time>2026-04-20T17:48:53.075Z</time><hdop>4.0</hdop><vdop>5.312</vdop><extensions><gom:speed>0.118</gom:speed></extensions></trkpt>
   <trkpt lat="59.0717805617" lon="30.0216743652"><ele>99.584</ele><time>2026-04-20T17:48:54.075Z</time><hdop>3.937</hdop><vdop>5.312</vdop><extensions><gom:speed>0.082</gom:speed></extensions></trkpt>
   <trkpt lat="59.07178228" lon="30.021676796"><ele>100.528</ele><time>2026-04-20T17:48:54.952Z</time><hdop>3.937</hdop><vdop>5.062</vdop><extensions><gom:speed>0.077</gom:speed></extensions></trkpt>
   <trkpt lat="59.0717871834" lon="30.0216818251"><ele>101.359</ele><time>2026-04-20T17:48:56.075Z</time><hdop>3.875</hdop><vdop>4.812</vdop><extensions><gom:speed>0.072</gom:speed></extensions></trkpt>
   <trkpt lat="59.0717901589" lon="30.0216852617"><ele>102.079</ele><time>2026-04-20T17:48:57.075Z</time><hdop>3.875</hdop><vdop>4.687</vdop><extensions><gom:speed>0.119</gom:speed></extensions></trkpt>
   <trkpt lat="59.0717934698" lon="30.0216878601"><ele>102.683</ele><time>2026-04-20T17:48:58.075Z</time><hdop>3.812</hdop><vdop>4.5</vdop><extensions><gom:speed>0.146</gom:speed></extensions></trkpt>
   <trkpt lat="59.0717973674" lon="30.0216903747"><ele>103.191</ele><time>2026-04-20T17:48:59.076Z</time><hdop>3.75</hdop><vdop>4.25</vdop><extensions><gom:speed>0.167</gom:speed></extensions></trkpt>
   <trkpt lat="59.0718000915" lon="30.0216916319"><ele>103.574</ele><time>2026-04-20T17:49:00.075Z</time><hdop>3.687</hdop><vdop>4.25</vdop><extensions><gom:speed>0.18</gom:speed></extensions></trkpt>
   <trkpt lat="59.0718030671" lon="30.0216930569"><ele>103.858</ele><time>2026-04-20T17:49:01.075Z</time><hdop>3.625</hdop><vdop>4.125</vdop><extensions><gom:speed>0.19</gom:speed></extensions></trkpt>
   <trkpt lat="59.0718059588" lon="30.0216948171"><ele>104.071</ele><time>2026-04-20T17:49:02.075Z</time><hdop>3.562</hdop><vdop>3.937</vdop><extensions><gom:speed>0.212</gom:speed></extensions></trkpt>
   <trkpt lat="59.0718089763" lon="30.0216967449"><ele>104.229</ele><time>2026-04-20T17:49:03.076Z</time><hdop>3.5</hdop><vdop>3.812</vdop><extensions><gom:speed>0.228</gom:speed></extensions></trkpt>
   <trkpt lat="59.0718118681" lon="30.0216984213"><ele>104.342</ele><time>2026-04-20T17:49:04.075Z</time><hdop>3.5</hdop><vdop>3.812</vdop><extensions><gom:speed>0.243</gom:speed></extensions></trkpt>
   <trkpt lat="59.0718152627" lon="30.0217002653"><ele>104.462</ele><time>2026-04-20T17:49:05.075Z</time><hdop>3.562</hdop><vdop>3.687</vdop><extensions><gom:speed>0.263</gom:speed></extensions></trkpt>
   <trkpt lat="59.0718177773" lon="30.021701774"><ele>104.483</ele><time>2026-04-20T17:49:06.076Z</time><hdop>3.625</hdop><vdop>3.75</vdop><extensions><gom:speed>0.27</gom:speed></extensions></trkpt>
   <trkpt lat="59.0718204595" lon="30.0217032828"><ele>104.503</ele><time>2026-04-20T17:49:07.075Z</time><hdop>3.687</hdop><vdop>3.812</vdop><extensions><gom:speed>0.271</gom:speed></extensions></trkpt>
   <trkpt lat="59.0718230998" lon="30.0217051268"><ele>104.461</ele><time>2026-04-20T17:49:08.075Z</time><hdop>3.812</hdop><vdop>3.875</vdop><extensions><gom:speed>0.279</gom:speed></extensions></trkpt>
   <trkpt lat="59.0718252791" lon="30.0217083958"><ele>104.347</ele><time>2026-04-20T17:49:09.075Z</time><hdop>3.937</hdop><vdop>3.875</vdop><extensions><gom:speed>0.301</gom:speed></extensions></trkpt>
   <trkpt lat="59.0718268717" lon="30.0217108265"><ele>104.278</ele><time>2026-04-20T17:49:09.880Z</time><hdop>4.125</hdop><vdop>3.875</vdop><extensions><gom:speed>0.304</gom:speed></extensions></trkpt>
   <trkpt lat="59.0718277937" lon="30.0217123352"><ele>104.144</ele><time>2026-04-20T17:49:10.588Z</time><hdop>4.25</hdop><vdop>3.812</vdop><extensions><gom:speed>0.31</gom:speed></extensions></trkpt>
   <trkpt lat="59.0718300987" lon="30.0217155204"><ele>103.993</ele><time>2026-04-20T17:49:11.075Z</time><hdop>4.312</hdop><vdop>3.75</vdop><extensions><gom:speed>0.306</gom:speed></extensions></trkpt>
   <trkpt lat="59.0718307693" lon="30.0217177835"><ele>103.903</ele><time>2026-04-20T17:49:11.814Z</time><hdop>4.437</hdop><vdop>3.75</vdop><extensions><gom:speed>0.299</gom:speed></extensions></trkpt>
   <trkpt lat="59.0718312722" lon="30.0217234832"><ele>103.793</ele><time>2026-04-20T17:49:13.075Z</time><hdop>4.5</hdop><vdop>3.625</vdop><extensions><gom:speed>0.283</gom:speed></extensions></trkpt>
   <trkpt lat="59.0718313979" lon="30.021727255"><ele>103.71</ele><time>2026-04-20T17:49:14.075Z</time><hdop>4.562</hdop><vdop>3.562</vdop><extensions><gom:speed>0.263</gom:speed></extensions></trkpt>
   <trkpt lat="59.071832278" lon="30.0217306916"><ele>103.64</ele><time>2026-04-20T17:49:15.075Z</time><hdop>4.625</hdop><vdop>3.5</vdop><extensions><gom:speed>0.256</gom:speed></extensions></trkpt>
   <trkpt lat="59.0718332838" lon="30.0217335415"><ele>103.592</ele><time>2026-04-20T17:49:16.076Z</time><hdop>4.625</hdop><vdop>3.562</vdop><extensions><gom:speed>0.27</gom:speed></extensions></trkpt>
   <trkpt lat="59.0718335772" lon="30.0217341282"><ele>103.564</ele><time>2026-04-20T17:49:16.747Z</time><hdop>4.687</hdop><vdop>3.562</vdop><extensions><gom:speed>0.271</gom:speed></extensions></trkpt>
   <trkpt lat="59.0718355889" lon="30.0217392412"><ele>103.532</ele><time>2026-04-20T17:49:18.075Z</time><hdop>4.75</hdop><vdop>3.75</vdop><extensions><gom:speed>0.261</gom:speed></extensions></trkpt>
   <trkpt lat="59.071836469" lon="30.0217414205"><ele>103.502</ele><time>2026-04-20T17:49:19.075Z</time><hdop>4.812</hdop><vdop>3.875</vdop><extensions><gom:speed>0.255</gom:speed></extensions></trkpt>
   <trkpt lat="59.0718375586" lon="30.0217436836"><ele>103.48</ele><time>2026-04-20T17:49:20.076Z</time><hdop>4.812</hdop><vdop>3.937</vdop><extensions><gom:speed>0.253</gom:speed></extensions></trkpt>
   <trkpt lat="59.0718385644" lon="30.0217455276"><ele>103.459</ele><time>2026-04-20T17:49:21.075Z</time><hdop>4.875</hdop><vdop>3.937</vdop><extensions><gom:speed>0.256</gom:speed></extensions></trkpt>
   <trkpt lat="59.0718391931" lon="30.0217475392"><ele>103.441</ele><time>2026-04-20T17:49:22.075Z</time><hdop>4.875</hdop><vdop>3.875</vdop><extensions><gom:speed>0.263</gom:speed></extensions></trkpt>
   <trkpt lat="59.0718391931" lon="30.021748126"><ele>103.429</ele><time>2026-04-20T17:49:22.907Z</time><hdop>4.937</hdop><vdop>3.875</vdop><extensions><gom:speed>0.264</gom:speed></extensions></trkpt>
   <trkpt lat="59.0718394864" lon="30.0217519816"><ele>103.416</ele><time>2026-04-20T17:49:24.075Z</time><hdop>5.0</hdop><vdop>3.937</vdop><extensions><gom:speed>0.32</gom:speed></extensions></trkpt>
   <trkpt lat="59.0718390674" lon="30.0217542448"><ele>103.408</ele><time>2026-04-20T17:49:24.855Z</time><hdop>5.062</hdop><vdop>3.937</vdop><extensions><gom:speed>0.325</gom:speed></extensions></trkpt>
   <trkpt lat="59.0718374748" lon="30.0217559211"><ele>103.403</ele><time>2026-04-20T17:49:26.039Z</time><hdop>5.125</hdop><vdop>3.937</vdop><extensions><gom:speed>0.336</gom:speed></extensions></trkpt>
   <trkpt lat="59.0718378939" lon="30.0217558373"><ele>103.403</ele><time>2026-04-20T17:49:26.858Z</time><hdop>5.125</hdop><vdop>4.0</vdop><extensions><gom:speed>0.2</gom:speed></extensions></trkpt>
   <trkpt lat="59.0718389835" lon="30.0217554182"><ele>103.39</ele><time>2026-04-20T17:49:27.954Z</time><hdop>5.25</hdop><vdop>4.0</vdop><extensions><gom:speed>0.181</gom:speed></extensions></trkpt>
   <trkpt lat="59.0718406599" lon="30.0217556697"><ele>103.388</ele><time>2026-04-20T17:49:28.948Z</time><hdop>5.375</hdop><vdop>3.937</vdop><extensions><gom:speed>0.181</gom:speed></extensions></trkpt>
   <trkpt lat="59.0718419591" lon="30.0217570946"><ele>103.387</ele><time>2026-04-20T17:49:29.957Z</time><hdop>5.625</hdop><vdop>3.937</vdop><extensions><gom:speed>0.244</gom:speed></extensions></trkpt>
   <trkpt lat="59.0718437612" lon="30.0217563402"><ele>103.387</ele><time>2026-04-20T17:49:30.857Z</time><hdop>5.937</hdop><vdop>4.0</vdop><extensions><gom:speed>0.251</gom:speed></extensions></trkpt>
   <trkpt lat="59.0718450604" lon="30.0217504729"><ele>103.386</ele><time>2026-04-20T17:49:32.067Z</time><hdop>6.25</hdop><vdop>4.0</vdop><extensions><gom:speed>0.207</gom:speed></extensions></trkpt>
   <trkpt lat="59.0718460662" lon="30.0217472878"><ele>103.385</ele><time>2026-04-20T17:49:32.978Z</time><hdop>6.437</hdop><vdop>3.875</vdop><extensions><gom:speed>0.199</gom:speed></extensions></trkpt>
   <trkpt lat="59.0718477845" lon="30.0217468687"><ele>103.384</ele><time>2026-04-20T17:49:34.035Z</time><hdop>6.5</hdop><vdop>3.875</vdop><extensions><gom:speed>0.229</gom:speed></extensions></trkpt>
   <trkpt lat="59.0718478684" lon="30.0217487965"><ele>103.389</ele><time>2026-04-20T17:49:35.075Z</time><hdop>6.375</hdop><vdop>3.937</vdop><extensions><gom:speed>0.164</gom:speed></extensions></trkpt>
   <trkpt lat="59.0718478684" lon="30.0217496347"><ele>103.398</ele><time>2026-04-20T17:49:36.075Z</time><hdop>6.0</hdop><vdop>3.875</vdop><extensions><gom:speed>0.157</gom:speed></extensions></trkpt>
   <trkpt lat="59.0718491675" lon="30.0217474554"><ele>103.402</ele><time>2026-04-20T17:49:37.078Z</time><hdop>5.687</hdop><vdop>3.875</vdop><extensions><gom:speed>0.262</gom:speed></extensions></trkpt>
   <trkpt lat="59.0718502991" lon="30.0217452761"><ele>103.438</ele><time>2026-04-20T17:49:38.075Z</time><hdop>5.562</hdop><vdop>3.937</vdop><extensions><gom:speed>0.358</gom:speed></extensions></trkpt>
   <trkpt lat="59.0718504667" lon="30.0217423425"><ele>103.459</ele><time>2026-04-20T17:49:39.016Z</time><hdop>5.375</hdop><vdop>4.125</vdop><extensions><gom:speed>0.371</gom:speed></extensions></trkpt>
   <trkpt lat="59.0718516821" lon="30.0217391573"><ele>103.47</ele><time>2026-04-20T17:49:39.964Z</time><hdop>5.375</hdop><vdop>4.25</vdop><extensions><gom:speed>0.347</gom:speed></extensions></trkpt>
   <trkpt lat="59.0718523946" lon="30.0217386544"><ele>103.479</ele><time>2026-04-20T17:49:41.031Z</time><hdop>5.437</hdop><vdop>4.125</vdop><extensions><gom:speed>0.234</gom:speed></extensions></trkpt>
   <trkpt lat="59.0718523946" lon="30.021740247"><ele>103.484</ele><time>2026-04-20T17:49:41.504Z</time><hdop>5.562</hdop><vdop>4.125</vdop><extensions><gom:speed>0.174</gom:speed></extensions></trkpt>
   <trkpt lat="59.0718533585" lon="30.0217416719"><ele>103.47</ele><time>2026-04-20T17:49:41.978Z</time><hdop>5.625</hdop><vdop>4.125</vdop><extensions><gom:speed>0.162</gom:speed></extensions></trkpt>
   <trkpt lat="59.0718536938" lon="30.0217421748"><ele>103.462</ele><time>2026-04-20T17:49:42.435Z</time><hdop>5.687</hdop><vdop>4.125</vdop><extensions><gom:speed>0.179</gom:speed></extensions></trkpt>
   <trkpt lat="59.0718542805" lon="30.0217426777"><ele>103.43</ele><time>2026-04-20T17:49:43.044Z</time><hdop>5.75</hdop><vdop>4.062</vdop><extensions><gom:speed>0.206</gom:speed></extensions></trkpt>
   <trkpt lat="59.0718554959" lon="30.0217426777"><ele>103.411</ele><time>2026-04-20T17:49:43.797Z</time><hdop>5.937</hdop><vdop>4.062</vdop><extensions><gom:speed>0.218</gom:speed></extensions></trkpt>
   <trkpt lat="59.0718544901" lon="30.0217454438"><ele>103.404</ele><time>2026-04-20T17:49:45.075Z</time><hdop>5.937</hdop><vdop>3.937</vdop><extensions><gom:speed>0.201</gom:speed></extensions></trkpt>
   <trkpt lat="59.0718539871" lon="30.0217469525"><ele>103.385</ele><time>2026-04-20T17:49:46.075Z</time><hdop>5.875</hdop><vdop>3.875</vdop><extensions><gom:speed>0.207</gom:speed></extensions></trkpt>
   <trkpt lat="59.0718534842" lon="30.0217506405"><ele>103.346</ele><time>2026-04-20T17:49:47.075Z</time><hdop>5.687</hdop><vdop>3.875</vdop><extensions><gom:speed>0.186</gom:speed></extensions></trkpt>
   <trkpt lat="59.0718532747" lon="30.0217522331"><ele>103.323</ele><time>2026-04-20T17:49:47.665Z</time><hdop>5.437</hdop><vdop>3.875</vdop><extensions><gom:speed>0.139</gom:speed></extensions></trkpt>
   <trkpt lat="59.0718528975" lon="30.0217548315"><ele>103.304</ele><time>2026-04-20T17:49:48.919Z</time><hdop>5.062</hdop><vdop>3.875</vdop><extensions><gom:speed>0.142</gom:speed></extensions></trkpt>
   <trkpt lat="59.0718542805" lon="30.0217611179"><ele>102.58</ele><time>2026-04-20T17:49:50.075Z</time><hdop>4.875</hdop><vdop>2.812</vdop><extensions><gom:speed>0.128</gom:speed></extensions></trkpt>
   <trkpt lat="59.0718546996" lon="30.0217697513"><ele>101.709</ele><time>2026-04-20T17:49:51.075Z</time><hdop>4.812</hdop><vdop>2.687</vdop><extensions><gom:speed>0.152</gom:speed></extensions></trkpt>
   <trkpt lat="59.0718547834" lon="30.0217812345"><ele>100.465</ele><time>2026-04-20T17:49:52.075Z</time><hdop>4.625</hdop><vdop>2.5</vdop><extensions><gom:speed>0.125</gom:speed></extensions></trkpt>
   <trkpt lat="59.0718542805" lon="30.0217830785"><ele>99.721</ele><time>2026-04-20T17:49:52.761Z</time><hdop>4.625</hdop><vdop>2.5</vdop><extensions><gom:speed>0.096</gom:speed></extensions></trkpt>
   <trkpt lat="59.0718526879" lon="30.0217986689"><ele>99.318</ele><time>2026-04-20T17:49:53.718Z</time><hdop>4.562</hdop><vdop>4.0</vdop><extensions><gom:speed>0.14</gom:speed></extensions></trkpt>
   <trkpt lat="59.0718502991" lon="30.021819456"><ele>99.195</ele><time>2026-04-20T17:49:54.596Z</time><hdop>4.437</hdop><vdop>4.0</vdop><extensions><gom:speed>0.173</gom:speed></extensions></trkpt>
   <trkpt lat="59.0718490837" lon="30.0218307715"><ele>99.054</ele><time>2026-04-20T17:49:55.075Z</time><hdop>4.437</hdop><vdop>4.0</vdop><extensions><gom:speed>0.18</gom:speed></extensions></trkpt>
   <trkpt lat="59.0718467787" lon="30.0218470324"><ele>98.853</ele><time>2026-04-20T17:49:56.076Z</time><hdop>4.375</hdop><vdop>4.0</vdop><extensions><gom:speed>0.178</gom:speed></extensions></trkpt>
   <trkpt lat="59.0718460662" lon="30.0218612817"><ele>98.827</ele><time>2026-04-20T17:49:57.075Z</time><hdop>4.312</hdop><vdop>4.0</vdop><extensions><gom:speed>0.164</gom:speed></extensions></trkpt>
   <trkpt lat="59.0718468625" lon="30.0218655564"><ele>98.812</ele><time>2026-04-20T17:49:58.061Z</time><hdop>4.312</hdop><vdop>4.0</vdop><extensions><gom:speed>0.179</gom:speed></extensions></trkpt>
   <trkpt lat="59.071847575" lon="30.0218753633"><ele>98.68</ele><time>2026-04-20T17:49:58.961Z</time><hdop>4.312</hdop><vdop>4.0</vdop><extensions><gom:speed>0.14</gom:speed></extensions></trkpt>
   <trkpt lat="59.0718509697" lon="30.0218959827"><ele>98.522</ele><time>2026-04-20T17:49:59.997Z</time><hdop>4.437</hdop><vdop>3.937</vdop><extensions><gom:speed>0.301</gom:speed></extensions></trkpt>
   <trkpt lat="59.0718553702" lon="30.0219124951"><ele>98.301</ele><time>2026-04-20T17:50:00.914Z</time><hdop>4.687</hdop><vdop>4.0</vdop><extensions><gom:speed>0.487</gom:speed></extensions></trkpt>
   <trkpt lat="59.0718634587" lon="30.0219480344"><ele>98.212</ele><time>2026-04-20T17:50:01.996Z</time><hdop>5.187</hdop><vdop>4.125</vdop><extensions><gom:speed>0.713</gom:speed></extensions></trkpt>
   <trkpt lat="59.0718715891" lon="30.0219598528"><ele>98.159</ele><time>2026-04-20T17:50:02.997Z</time><hdop>5.625</hdop><vdop>4.125</vdop><extensions><gom:speed>0.715</gom:speed></extensions></trkpt>
   <trkpt lat="59.0718752772" lon="30.0219751917"><ele>98.074</ele><time>2026-04-20T17:50:03.757Z</time><hdop>5.937</hdop><vdop>4.187</vdop><extensions><gom:speed>0.74</gom:speed></extensions></trkpt>
   <trkpt lat="59.0718829885" lon="30.0219865911"><ele>98.026</ele><time>2026-04-20T17:50:04.715Z</time><hdop>6.375</hdop><vdop>4.312</vdop><extensions><gom:speed>0.826</gom:speed></extensions></trkpt>
   <trkpt lat="59.0718884787" lon="30.0219983258"><ele>97.98</ele><time>2026-04-20T17:50:05.497Z</time><hdop>6.562</hdop><vdop>4.375</vdop><extensions><gom:speed>0.872</gom:speed></extensions></trkpt>
   <trkpt lat="59.0718908675" lon="30.022007965"><ele>97.944</ele><time>2026-04-20T17:50:06.024Z</time><hdop>6.625</hdop><vdop>4.25</vdop><extensions><gom:speed>0.871</gom:speed></extensions></trkpt>
   <trkpt lat="59.0718921667" lon="30.0220247288"><ele>97.922</ele><time>2026-04-20T17:50:06.738Z</time><hdop>6.75</hdop><vdop>4.25</vdop><extensions><gom:speed>0.82</gom:speed></extensions></trkpt>
   <trkpt lat="59.0718912866" lon="30.0220325239"><ele>97.904</ele><time>2026-04-20T17:50:07.538Z</time><hdop>6.937</hdop><vdop>4.187</vdop><extensions><gom:speed>0.785</gom:speed></extensions></trkpt>
   <trkpt lat="59.0718835753" lon="30.0220433366"><ele>97.859</ele><time>2026-04-20T17:50:08.075Z</time><hdop>6.875</hdop><vdop>4.062</vdop><extensions><gom:speed>0.751</gom:speed></extensions></trkpt>
   <trkpt lat="59.0718797615" lon="30.0220599328"><ele>97.818</ele><time>2026-04-20T17:50:08.985Z</time><hdop>7.0</hdop><vdop>3.875</vdop><extensions><gom:speed>0.8</gom:speed></extensions></trkpt>
   <trkpt lat="59.0718844973" lon="30.0220712483"><ele>97.791</ele><time>2026-04-20T17:50:10.051Z</time><hdop>7.125</hdop><vdop>4.062</vdop><extensions><gom:speed>0.814</gom:speed></extensions></trkpt>
   <trkpt lat="59.0718911609" lon="30.0220779539"><ele>97.768</ele><time>2026-04-20T17:50:11.000Z</time><hdop>7.25</hdop><vdop>4.0</vdop><extensions><gom:speed>0.806</gom:speed></extensions></trkpt>
   <trkpt lat="59.0718996685" lon="30.022089018"><ele>97.747</ele><time>2026-04-20T17:50:11.947Z</time><hdop>7.312</hdop><vdop>4.125</vdop><extensions><gom:speed>0.913</gom:speed></extensions></trkpt>
   <trkpt lat="59.0719031889" lon="30.0220951368"><ele>97.733</ele><time>2026-04-20T17:50:12.423Z</time><hdop>7.437</hdop><vdop>4.125</vdop><extensions><gom:speed>1.002</gom:speed></extensions></trkpt>
   <trkpt lat="59.0719076732" lon="30.0221057818"><ele>97.736</ele><time>2026-04-20T17:50:13.013Z</time><hdop>7.562</hdop><vdop>4.125</vdop><extensions><gom:speed>1.014</gom:speed></extensions></trkpt>
   <trkpt lat="59.0719122833" lon="30.0221156724"><ele>97.737</ele><time>2026-04-20T17:50:13.698Z</time><hdop>7.937</hdop><vdop>4.125</vdop><extensions><gom:speed>1.027</gom:speed></extensions></trkpt>
   <trkpt lat="59.071920288" lon="30.0221373816"><ele>97.735</ele><time>2026-04-20T17:50:15.026Z</time><hdop>8.625</hdop><vdop>4.187</vdop><extensions><gom:speed>1.022</gom:speed></extensions></trkpt>
   <trkpt lat="59.0719245628" lon="30.0221559894"><ele>97.723</ele><time>2026-04-20T17:50:15.974Z</time><hdop>9.375</hdop><vdop>4.187</vdop><extensions><gom:speed>1.05</gom:speed></extensions></trkpt>
   <trkpt lat="59.071925862" lon="30.0221648742"><ele>97.716</ele><time>2026-04-20T17:50:16.441Z</time><hdop>10.062</hdop><vdop>4.187</vdop><extensions><gom:speed>1.13</gom:speed></extensions></trkpt>
   <trkpt lat="59.0719269935" lon="30.0221791234"><ele>97.696</ele><time>2026-04-20T17:50:17.040Z</time><hdop>10.312</hdop><vdop>4.062</vdop><extensions><gom:speed>1.136</gom:speed></extensions></trkpt>
   <trkpt lat="59.0719300948" lon="30.0221932889"><ele>97.685</ele><time>2026-04-20T17:50:17.675Z</time><hdop>11.062</hdop><vdop>4.062</vdop><extensions><gom:speed>1.197</gom:speed></extensions></trkpt>
   <trkpt lat="59.0719102716" lon="30.0222000782"><ele>97.68</ele><time>2026-04-20T17:50:18.435Z</time><hdop>10.687</hdop><vdop>3.75</vdop><extensions><gom:speed>0.894</gom:speed></extensions></trkpt>
   <trkpt lat="59.0718953937" lon="30.0221945461"><ele>97.675</ele><time>2026-04-20T17:50:19.075Z</time><hdop>10.25</hdop><vdop>3.562</vdop><extensions><gom:speed>0.8</gom:speed></extensions></trkpt>
   <trkpt lat="59.0718866766" lon="30.0221901875"><ele>96.881</ele><time>2026-04-20T17:50:20.075Z</time><hdop>9.625</hdop><vdop>3.062</vdop><extensions><gom:speed>0.636</gom:speed></extensions></trkpt>
   <trkpt lat="59.0718815636" lon="30.0221947976"><ele>95.954</ele><time>2026-04-20T17:50:21.075Z</time><hdop>8.875</hdop><vdop>2.75</vdop><extensions><gom:speed>0.608</gom:speed></extensions></trkpt>
   <trkpt lat="59.0718814798" lon="30.0222050235"><ele>95.401</ele><time>2026-04-20T17:50:22.077Z</time><hdop>7.5</hdop><vdop>2.75</vdop><extensions><gom:speed>0.643</gom:speed></extensions></trkpt>
   <trkpt lat="59.0718801806" lon="30.0222150818"><ele>95.289</ele><time>2026-04-20T17:50:22.779Z</time><hdop>6.687</hdop><vdop>2.5</vdop><extensions><gom:speed>0.683</gom:speed></extensions></trkpt>
   <trkpt lat="59.0718755705" lon="30.0222327676"><ele>95.63</ele><time>2026-04-20T17:50:23.756Z</time><hdop>6.187</hdop><vdop>2.5</vdop><extensions><gom:speed>0.773</gom:speed></extensions></trkpt>
   <trkpt lat="59.0718720921" lon="30.0222526327"><ele>96.212</ele><time>2026-04-20T17:50:24.635Z</time><hdop>5.937</hdop><vdop>2.5</vdop><extensions><gom:speed>0.827</gom:speed></extensions></trkpt>
   <trkpt lat="59.0718705833" lon="30.0222848192"><ele>96.534</ele><time>2026-04-20T17:50:26.075Z</time><hdop>5.75</hdop><vdop>2.5</vdop><extensions><gom:speed>0.865</gom:speed></extensions></trkpt>
   <trkpt lat="59.0718764926" lon="30.0222886749"><ele>96.726</ele><time>2026-04-20T17:50:26.914Z</time><hdop>5.625</hdop><vdop>2.5</vdop><extensions><gom:speed>0.78</gom:speed></extensions></trkpt>
   <trkpt lat="59.0718781689" lon="30.0222968892"><ele>96.779</ele><time>2026-04-20T17:50:28.075Z</time><hdop>5.375</hdop><vdop>2.5</vdop><extensions><gom:speed>0.566</gom:speed></extensions></trkpt>
   <trkpt lat="59.0718786718" lon="30.0223045167"><ele>96.986</ele><time>2026-04-20T17:50:29.075Z</time><hdop>5.187</hdop><vdop>3.812</vdop><extensions><gom:speed>0.371</gom:speed></extensions></trkpt>
   <trkpt lat="59.071877666" lon="30.0223119766"><ele>97.053</ele><time>2026-04-20T17:50:30.075Z</time><hdop>5.0</hdop><vdop>3.75</vdop><extensions><gom:speed>0.243</gom:speed></extensions></trkpt>
   <trkpt lat="59.0718768697" lon="30.0223137368"><ele>97.092</ele><time>2026-04-20T17:50:30.899Z</time><hdop>4.875</hdop><vdop>3.75</vdop><extensions><gom:speed>0.207</gom:speed></extensions></trkpt>
   <trkpt lat="59.0718767859" lon="30.0223202747"><ele>97.052</ele><time>2026-04-20T17:50:31.455Z</time><hdop>4.687</hdop><vdop>3.75</vdop><extensions><gom:speed>0.102</gom:speed></extensions></trkpt>
   <trkpt lat="59.0718769955" lon="30.0223238789"><ele>97.178</ele><time>2026-04-20T17:50:32.075Z</time><hdop>4.5</hdop><vdop>3.812</vdop><extensions><gom:speed>0.122</gom:speed></extensions></trkpt>
   <trkpt lat="59.0718770793" lon="30.0223300815"><ele>97.38</ele><time>2026-04-20T17:50:33.075Z</time><hdop>4.437</hdop><vdop>3.875</vdop><extensions><gom:speed>0.117</gom:speed></extensions></trkpt>
   <trkpt lat="59.0718765764" lon="30.0223329314"><ele>97.501</ele><time>2026-04-20T17:50:33.954Z</time><hdop>4.375</hdop><vdop>3.875</vdop><extensions><gom:speed>0.114</gom:speed></extensions></trkpt>
   <trkpt lat="59.0718769955" lon="30.022343744"><ele>97.694</ele><time>2026-04-20T17:50:35.076Z</time><hdop>4.25</hdop><vdop>3.812</vdop><extensions><gom:speed>0.151</gom:speed></extensions></trkpt>
   <trkpt lat="59.0718772888" lon="30.0223523774"><ele>97.832</ele><time>2026-04-20T17:50:36.075Z</time><hdop>4.187</hdop><vdop>3.75</vdop><extensions><gom:speed>0.191</gom:speed></extensions></trkpt>
   <trkpt lat="59.0718784623" lon="30.0223594182"><ele>97.838</ele><time>2026-04-20T17:50:37.075Z</time><hdop>4.187</hdop><vdop>3.812</vdop><extensions><gom:speed>0.198</gom:speed></extensions></trkpt>
   <trkpt lat="59.071880474" lon="30.0223676324"><ele>97.913</ele><time>2026-04-20T17:50:38.075Z</time><hdop>4.187</hdop><vdop>3.75</vdop><extensions><gom:speed>0.213</gom:speed></extensions></trkpt>
   <trkpt lat="59.0718811864" lon="30.0223736674"><ele>97.958</ele><time>2026-04-20T17:50:38.641Z</time><hdop>4.25</hdop><vdop>3.75</vdop><extensions><gom:speed>0.31</gom:speed></extensions></trkpt>
   <trkpt lat="59.0718817731" lon="30.0223909341"><ele>98.18</ele><time>2026-04-20T17:50:40.075Z</time><hdop>4.375</hdop><vdop>3.687</vdop><extensions><gom:speed>0.351</gom:speed></extensions></trkpt>
   <trkpt lat="59.071881396" lon="30.0224030879"><ele>98.401</ele><time>2026-04-20T17:50:41.076Z</time><hdop>4.562</hdop><vdop>3.75</vdop><extensions><gom:speed>0.407</gom:speed></extensions></trkpt>
   <trkpt lat="59.0718820665" lon="30.0224218634"><ele>98.533</ele><time>2026-04-20T17:50:41.781Z</time><hdop>4.812</hdop><vdop>3.75</vdop><extensions><gom:speed>0.642</gom:speed></extensions></trkpt>
   <trkpt lat="59.0718860898" lon="30.0224427343"><ele>98.651</ele><time>2026-04-20T17:50:43.075Z</time><hdop>5.187</hdop><vdop>3.75</vdop><extensions><gom:speed>0.73</gom:speed></extensions></trkpt>
   <trkpt lat="59.0718878919" lon="30.0224648625"><ele>98.724</ele><time>2026-04-20T17:50:44.076Z</time><hdop>5.437</hdop><vdop>3.75</vdop><extensions><gom:speed>0.792</gom:speed></extensions></trkpt>
   <trkpt lat="59.0718851678" lon="30.0224784412"><ele>98.749</ele><time>2026-04-20T17:50:45.075Z</time><hdop>5.562</hdop><vdop>3.625</vdop><extensions><gom:speed>0.822</gom:speed></extensions></trkpt>
   <trkpt lat="59.071881396" lon="30.0224826321"><ele>98.759</ele><time>2026-04-20T17:50:46.075Z</time><hdop>5.625</hdop><vdop>3.5</vdop><extensions><gom:speed>0.662</gom:speed></extensions></trkpt>
   <trkpt lat="59.0718798872" lon="30.0224694726"><ele>98.758</ele><time>2026-04-20T17:50:47.076Z</time><hdop>5.625</hdop><vdop>3.437</vdop><extensions><gom:speed>0.364</gom:speed></extensions></trkpt>
   <trkpt lat="59.0718829885" lon="30.0224532955"><ele>98.769</ele><time>2026-04-20T17:50:48.076Z</time><hdop>5.562</hdop><vdop>3.562</vdop><extensions><gom:speed>0.169</gom:speed></extensions></trkpt>
   <trkpt lat="59.071885084" lon="30.0224475958"><ele>98.776</ele><time>2026-04-20T17:50:48.620Z</time><hdop>5.5</hdop><vdop>3.562</vdop><extensions><gom:speed>0.121</gom:speed></extensions></trkpt>
   <trkpt lat="59.0718857965" lon="30.022444243"><ele>98.784</ele><time>2026-04-20T17:50:49.075Z</time><hdop>5.437</hdop><vdop>3.75</vdop><extensions><gom:speed>0.113</gom:speed></extensions></trkpt>
   <trkpt lat="59.0718860898" lon="30.0224403874"><ele>98.788</ele><time>2026-04-20T17:50:50.076Z</time><hdop>5.312</hdop><vdop>3.875</vdop><extensions><gom:speed>0.091</gom:speed></extensions></trkpt>
   <trkpt lat="59.0718860898" lon="30.0224393815"><ele>98.785</ele><time>2026-04-20T17:50:51.075Z</time><hdop>5.25</hdop><vdop>3.875</vdop><extensions><gom:speed>0.106</gom:speed></extensions></trkpt>
   <trkpt lat="59.0718854612" lon="30.0224386272"><ele>98.777</ele><time>2026-04-20T17:50:52.076Z</time><hdop>5.125</hdop><vdop>3.75</vdop><extensions><gom:speed>0.128</gom:speed></extensions></trkpt>
   <trkpt lat="59.071885084" lon="30.0224391301"><ele>98.778</ele><time>2026-04-20T17:50:53.076Z</time><hdop>5.062</hdop><vdop>3.75</vdop><extensions><gom:speed>0.093</gom:speed></extensions></trkpt>
   <trkpt lat="59.0718840782" lon="30.0224390463"><ele>98.782</ele><time>2026-04-20T17:50:54.075Z</time><hdop>4.937</hdop><vdop>3.75</vdop><extensions><gom:speed>0.091</gom:speed></extensions></trkpt>
   <trkpt lat="59.0718834914" lon="30.0224381242"><ele>98.784</ele><time>2026-04-20T17:50:54.612Z</time><hdop>4.875</hdop><vdop>3.75</vdop><extensions><gom:speed>0.071</gom:speed></extensions></trkpt>
   <trkpt lat="59.0718826952" lon="30.0224376213"><ele>98.782</ele><time>2026-04-20T17:50:55.076Z</time><hdop>4.875</hdop><vdop>3.812</vdop><extensions><gom:speed>0.103</gom:speed></extensions></trkpt>
   <trkpt lat="59.0718816893" lon="30.0224374537"><ele>98.781</ele><time>2026-04-20T17:50:55.657Z</time><hdop>4.812</hdop><vdop>3.812</vdop><extensions><gom:speed>0.108</gom:speed></extensions></trkpt>
   <trkpt lat="59.0718810607" lon="30.0224385433"><ele>98.793</ele><time>2026-04-20T17:50:56.960Z</time><hdop>4.812</hdop><vdop>4.0</vdop><extensions><gom:speed>0.105</gom:speed></extensions></trkpt>
   <trkpt lat="59.0718811864" lon="30.0224385433"><ele>98.8</ele><time>2026-04-20T17:50:58.025Z</time><hdop>4.812</hdop><vdop>3.875</vdop><extensions><gom:speed>0.121</gom:speed></extensions></trkpt>
   <trkpt lat="59.0718805997" lon="30.0224403874"><ele>98.813</ele><time>2026-04-20T17:50:58.973Z</time><hdop>4.875</hdop><vdop>3.875</vdop><extensions><gom:speed>0.117</gom:speed></extensions></trkpt>
   <trkpt lat="59.0718803901" lon="30.022442399"><ele>98.822</ele><time>2026-04-20T17:51:00.039Z</time><hdop>5.0</hdop><vdop>4.0</vdop><extensions><gom:speed>0.117</gom:speed></extensions></trkpt>
   <trkpt lat="59.0718801806" lon="30.0224434887"><ele>98.857</ele><time>2026-04-20T17:51:00.986Z</time><hdop>5.187</hdop><vdop>3.875</vdop><extensions><gom:speed>0.089</gom:speed></extensions></trkpt>
   <trkpt lat="59.0718798872" lon="30.0224436563"><ele>98.877</ele><time>2026-04-20T17:51:01.934Z</time><hdop>5.187</hdop><vdop>3.875</vdop><extensions><gom:speed>0.087</gom:speed></extensions></trkpt>
   <trkpt lat="59.0718794681" lon="30.0224452489"><ele>98.919</ele><time>2026-04-20T17:51:03.000Z</time><hdop>5.437</hdop><vdop>3.5</vdop><extensions><gom:speed>0.08</gom:speed></extensions></trkpt>
   <trkpt lat="59.0718793843" lon="30.0224463385"><ele>98.944</ele><time>2026-04-20T17:51:03.635Z</time><hdop>5.5</hdop><vdop>3.5</vdop><extensions><gom:speed>0.073</gom:speed></extensions></trkpt>
   <trkpt lat="59.071879971" lon="30.022449356"><ele>98.962</ele><time>2026-04-20T17:51:04.762Z</time><hdop>5.625</hdop><vdop>3.375</vdop><extensions><gom:speed>0.087</gom:speed></extensions></trkpt>
   <trkpt lat="59.0718807673" lon="30.022453044"><ele>98.985</ele><time>2026-04-20T17:51:05.961Z</time><hdop>5.75</hdop><vdop>3.187</vdop><extensions><gom:speed>0.093</gom:speed></extensions></trkpt>
   <trkpt lat="59.0718816893" lon="30.0224556424"><ele>98.988</ele><time>2026-04-20T17:51:07.028Z</time><hdop>5.875</hdop><vdop>3.187</vdop><extensions><gom:speed>0.099</gom:speed></extensions></trkpt>
   <trkpt lat="59.0718818989" lon="30.0224569835"><ele>98.975</ele><time>2026-04-20T17:51:07.975Z</time><hdop>6.062</hdop><vdop>3.125</vdop><extensions><gom:speed>0.103</gom:speed></extensions></trkpt>
   <trkpt lat="59.0718812702" lon="30.0224563968"><ele>98.952</ele><time>2026-04-20T17:51:09.041Z</time><hdop>6.187</hdop><vdop>3.125</vdop><extensions><gom:speed>0.103</gom:speed></extensions></trkpt>
   <trkpt lat="59.0718810607" lon="30.0224542175"><ele>98.931</ele><time>2026-04-20T17:51:09.989Z</time><hdop>6.375</hdop><vdop>3.125</vdop><extensions><gom:speed>0.109</gom:speed></extensions></trkpt>
   <trkpt lat="59.0718798872" lon="30.0224526249"><ele>98.911</ele><time>2026-04-20T17:51:11.055Z</time><hdop>6.437</hdop><vdop>3.062</vdop><extensions><gom:speed>0.124</gom:speed></extensions></trkpt>
   <trkpt lat="59.071878588" lon="30.0224501942"><ele>98.893</ele><time>2026-04-20T17:51:12.076Z</time><hdop>6.5</hdop><vdop>3.062</vdop><extensions><gom:speed>0.09</gom:speed></extensions></trkpt>
   <trkpt lat="59.0718787976" lon="30.0224491884"><ele>98.88</ele><time>2026-04-20T17:51:13.075Z</time><hdop>6.312</hdop><vdop>2.937</vdop><extensions><gom:speed>0.078</gom:speed></extensions></trkpt>
   <trkpt lat="59.0718791748" lon="30.0224477634"><ele>98.869</ele><time>2026-04-20T17:51:14.075Z</time><hdop>6.125</hdop><vdop>3.062</vdop><extensions><gom:speed>0.087</gom:speed></extensions></trkpt>
   <trkpt lat="59.0718788814" lon="30.0224467576"><ele>98.873</ele><time>2026-04-20T17:51:15.075Z</time><hdop>5.687</hdop><vdop>3.187</vdop><extensions><gom:speed>0.112</gom:speed></extensions></trkpt>
   <trkpt lat="59.0718788814" lon="30.0224454165"><ele>98.877</ele><time>2026-04-20T17:51:16.075Z</time><hdop>5.437</hdop><vdop>3.25</vdop><extensions><gom:speed>0.107</gom:speed></extensions></trkpt>
   <trkpt lat="59.0718792586" lon="30.0224454165"><ele>99.232</ele><time>2026-04-20T17:51:17.075Z</time><hdop>5.125</hdop><vdop>2.625</vdop><extensions><gom:speed>0.292</gom:speed></extensions></trkpt>
   <trkpt lat="59.0718781689" lon="30.0224454165"><ele>99.444</ele><time>2026-04-20T17:51:17.553Z</time><hdop>4.875</hdop><vdop>2.625</vdop><extensions><gom:speed>0.315</gom:speed></extensions></trkpt>
   <trkpt lat="59.0718765764" lon="30.0224463385"><ele>100.113</ele><time>2026-04-20T17:51:18.075Z</time><hdop>4.875</hdop><vdop>2.5</vdop><extensions><gom:speed>0.352</gom:speed></extensions></trkpt>
   <trkpt lat="59.0718722597" lon="30.0224489369"><ele>100.271</ele><time>2026-04-20T17:51:19.075Z</time><hdop>4.625</hdop><vdop>2.5</vdop><extensions><gom:speed>0.363</gom:speed></extensions></trkpt>
   <trkpt lat="59.071871673" lon="30.0224509486"><ele>100.365</ele><time>2026-04-20T17:51:19.893Z</time><hdop>4.625</hdop><vdop>2.5</vdop><extensions><gom:speed>0.222</gom:speed></extensions></trkpt>
   <trkpt lat="59.0718702899" lon="30.0224537984"><ele>100.576</ele><time>2026-04-20T17:51:20.413Z</time><hdop>4.562</hdop><vdop>2.5</vdop><extensions><gom:speed>0.215</gom:speed></extensions></trkpt>
   <trkpt lat="59.0718667695" lon="30.0224573188"><ele>100.627</ele><time>2026-04-20T17:51:21.075Z</time><hdop>4.562</hdop><vdop>2.5</vdop><extensions><gom:speed>0.219</gom:speed></extensions></trkpt>
   <trkpt lat="59.0718640873" lon="30.0224596657"><ele>100.658</ele><time>2026-04-20T17:51:21.719Z</time><hdop>4.562</hdop><vdop>2.5</vdop><extensions><gom:speed>0.289</gom:speed></extensions></trkpt>
   <trkpt lat="59.0718584715" lon="30.0224656169"><ele>100.553</ele><time>2026-04-20T17:51:22.676Z</time><hdop>4.5</hdop><vdop>2.5</vdop><extensions><gom:speed>0.348</gom:speed></extensions></trkpt>
   <trkpt lat="59.0718537776" lon="30.0224707298"><ele>100.468</ele><time>2026-04-20T17:51:23.298Z</time><hdop>4.5</hdop><vdop>2.5</vdop><extensions><gom:speed>0.382</gom:speed></extensions></trkpt>
   <trkpt lat="59.0718493771" lon="30.0224761781"><ele>100.342</ele><time>2026-04-20T17:51:24.075Z</time><hdop>4.5</hdop><vdop>2.5</vdop><extensions><gom:speed>0.412</gom:speed></extensions></trkpt>
   <trkpt lat="59.0718449766" lon="30.0224861525"><ele>100.275</ele><time>2026-04-20T17:51:25.075Z</time><hdop>4.5</hdop><vdop>2.5</vdop><extensions><gom:speed>0.412</gom:speed></extensions></trkpt>
   <trkpt lat="59.0718439708" lon="30.0224980549"><ele>100.047</ele><time>2026-04-20T17:51:26.075Z</time><hdop>4.5</hdop><vdop>2.5</vdop><extensions><gom:speed>0.423</gom:speed></extensions></trkpt>
   <trkpt lat="59.0718438869" lon="30.0225017429"><ele>99.911</ele><time>2026-04-20T17:51:26.691Z</time><hdop>4.562</hdop><vdop>2.5</vdop><extensions><gom:speed>0.419</gom:speed></extensions></trkpt>
   <trkpt lat="59.0718419591" lon="30.0225126394"><ele>100.0</ele><time>2026-04-20T17:51:27.475Z</time><hdop>4.562</hdop><vdop>2.5</vdop><extensions><gom:speed>0.347</gom:speed></extensions></trkpt>
   <trkpt lat="59.0718401989" lon="30.0225209374"><ele>100.17</ele><time>2026-04-20T17:51:28.075Z</time><hdop>4.562</hdop><vdop>2.5</vdop><extensions><gom:speed>0.378</gom:speed></extensions></trkpt>
   <trkpt lat="59.0718384806" lon="30.0225250446"><ele>100.097</ele><time>2026-04-20T17:51:29.075Z</time><hdop>4.562</hdop><vdop>4.5</vdop><extensions><gom:speed>0.252</gom:speed></extensions></trkpt>
   <trkpt lat="59.0718384806" lon="30.0225214404"><ele>100.053</ele><time>2026-04-20T17:51:29.961Z</time><hdop>4.562</hdop><vdop>4.5</vdop><extensions><gom:speed>0.173</gom:speed></extensions></trkpt>
   <trkpt lat="59.0718366785" lon="30.0225292355"><ele>99.989</ele><time>2026-04-20T17:51:30.919Z</time><hdop>4.562</hdop><vdop>4.312</vdop><extensions><gom:speed>0.179</gom:speed></extensions></trkpt>
   <trkpt lat="59.0718341639" lon="30.022542898"><ele>99.844</ele><time>2026-04-20T17:51:31.838Z</time><hdop>4.625</hdop><vdop>4.062</vdop><extensions><gom:speed>0.239</gom:speed></extensions></trkpt>
   <trkpt lat="59.0718340801" lon="30.0225505256"><ele>99.63</ele><time>2026-04-20T17:51:32.850Z</time><hdop>4.812</hdop><vdop>3.875</vdop><extensions><gom:speed>0.276</gom:speed></extensions></trkpt>
   <trkpt lat="59.0718309788" lon="30.0225853943"><ele>99.486</ele><time>2026-04-20T17:51:33.959Z</time><hdop>5.312</hdop><vdop>3.812</vdop><extensions><gom:speed>0.479</gom:speed></extensions></trkpt>
   <trkpt lat="59.0718287995" lon="30.0226025772"><ele>99.506</ele><time>2026-04-20T17:51:35.076Z</time><hdop>5.875</hdop><vdop>3.937</vdop><extensions><gom:speed>0.504</gom:speed></extensions></trkpt>
   <trkpt lat="59.0718306855" lon="30.0226061814"><ele>99.367</ele><time>2026-04-20T17:51:36.049Z</time><hdop>6.312</hdop><vdop>4.062</vdop><extensions><gom:speed>0.38</gom:speed></extensions></trkpt>
   <trkpt lat="59.0718295958" lon="30.0225936924"><ele>99.345</ele><time>2026-04-20T17:51:37.075Z</time><hdop>6.5</hdop><vdop>4.062</vdop><extensions><gom:speed>0.177</gom:speed></extensions></trkpt>
   <trkpt lat="59.0718288833" lon="30.0225863163"><ele>99.332</ele><time>2026-04-20T17:51:37.799Z</time><hdop>6.437</hdop><vdop>4.062</vdop><extensions><gom:speed>0.163</gom:speed></extensions></trkpt>
   <trkpt lat="59.0718289672" lon="30.0225849752"><ele>99.278</ele><time>2026-04-20T17:51:38.619Z</time><hdop>6.187</hdop><vdop>4.0</vdop><extensions><gom:speed>0.199</gom:speed></extensions></trkpt>
   <trkpt lat="59.0718279613" lon="30.022591094"><ele>99.229</ele><time>2026-04-20T17:51:39.076Z</time><hdop>6.0</hdop><vdop>4.0</vdop><extensions><gom:speed>0.194</gom:speed></extensions></trkpt>
   <trkpt lat="59.0718269974" lon="30.0225950335"><ele>99.2</ele><time>2026-04-20T17:51:39.675Z</time><hdop>5.812</hdop><vdop>4.0</vdop><extensions><gom:speed>0.158</gom:speed></extensions></trkpt>
   <trkpt lat="59.0718258659" lon="30.0225986377"><ele>99.24</ele><time>2026-04-20T17:51:40.723Z</time><hdop>5.437</hdop><vdop>3.937</vdop><extensions><gom:speed>0.141</gom:speed></extensions></trkpt>
   <trkpt lat="59.071826285" lon="30.0226031639"><ele>99.248</ele><time>2026-04-20T17:51:41.895Z</time><hdop>5.25</hdop><vdop>3.812</vdop><extensions><gom:speed>0.225</gom:speed></extensions></trkpt>
   <trkpt lat="59.0718265783" lon="30.0226048403"><ele>99.234</ele><time>2026-04-20T17:51:42.698Z</time><hdop>5.312</hdop><vdop>3.812</vdop><extensions><gom:speed>0.181</gom:speed></extensions></trkpt>
   <trkpt lat="59.0718273746" lon="30.022615653"><ele>99.224</ele><time>2026-04-20T17:51:43.985Z</time><hdop>5.562</hdop><vdop>3.687</vdop><extensions><gom:speed>0.373</gom:speed></extensions></trkpt>
   <trkpt lat="59.0718297634" lon="30.0226392899"><ele>99.216</ele><time>2026-04-20T17:51:45.075Z</time><hdop>5.812</hdop><vdop>3.5</vdop><extensions><gom:speed>0.611</gom:speed></extensions></trkpt>
   <trkpt lat="59.0718374748" lon="30.0226643518"><ele>99.211</ele><time>2026-04-20T17:51:45.982Z</time><hdop>6.375</hdop><vdop>3.5</vdop><extensions><gom:speed>0.698</gom:speed></extensions></trkpt>
   <trkpt lat="59.0718346669" lon="30.0226668664"><ele>99.215</ele><time>2026-04-20T17:51:47.075Z</time><hdop>6.625</hdop><vdop>3.312</vdop><extensions><gom:speed>0.483</gom:speed></extensions></trkpt>
   <trkpt lat="59.0718358822" lon="30.0226667826"><ele>99.218</ele><time>2026-04-20T17:51:48.055Z</time><hdop>6.937</hdop><vdop>3.312</vdop><extensions><gom:speed>0.417</gom:speed></extensions></trkpt>
   <trkpt lat="59.071830895" lon="30.0226604961"><ele>99.207</ele><time>2026-04-20T17:51:49.075Z</time><hdop>6.812</hdop><vdop>3.25</vdop><extensions><gom:speed>0.231</gom:speed></extensions></trkpt>
   <trkpt lat="59.0718287995" lon="30.022655467"><ele>99.201</ele><time>2026-04-20T17:51:49.674Z</time><hdop>6.375</hdop><vdop>3.25</vdop><extensions><gom:speed>0.164</gom:speed></extensions></trkpt>
   <trkpt lat="59.0718264945" lon="30.022655467"><ele>99.198</ele><time>2026-04-20T17:51:51.075Z</time><hdop>5.75</hdop><vdop>3.312</vdop><extensions><gom:speed>0.162</gom:speed></extensions></trkpt>
   <trkpt lat="59.0718251953" lon="30.0226561375"><ele>99.196</ele><time>2026-04-20T17:51:52.075Z</time><hdop>5.437</hdop><vdop>3.375</vdop><extensions><gom:speed>0.103</gom:speed></extensions></trkpt>
   <trkpt lat="59.0718246924" lon="30.0226587359"><ele>99.217</ele><time>2026-04-20T17:51:53.075Z</time><hdop>5.0</hdop><vdop>3.437</vdop><extensions><gom:speed>0.084</gom:speed></extensions></trkpt>
   <trkpt lat="59.0718241895" lon="30.0226623402"><ele>99.25</ele><time>2026-04-20T17:51:54.075Z</time><hdop>4.75</hdop><vdop>3.437</vdop><extensions><gom:speed>0.144</gom:speed></extensions></trkpt>
   <trkpt lat="59.071823477" lon="30.0226667826"><ele>99.304</ele><time>2026-04-20T17:51:55.075Z</time><hdop>4.437</hdop><vdop>3.312</vdop><extensions><gom:speed>0.164</gom:speed></extensions></trkpt>
   <trkpt lat="59.0718223874" lon="30.022667956"><ele>99.34</ele><time>2026-04-20T17:51:56.075Z</time><hdop>4.187</hdop><vdop>3.25</vdop><extensions><gom:speed>0.098</gom:speed></extensions></trkpt>
   <trkpt lat="59.071822094" lon="30.0226686266"><ele>99.371</ele><time>2026-04-20T17:51:57.075Z</time><hdop>4.062</hdop><vdop>3.187</vdop><extensions><gom:speed>0.086</gom:speed></extensions></trkpt>
   <trkpt lat="59.0718221778" lon="30.0226687942"><ele>99.39</ele><time>2026-04-20T17:51:57.607Z</time><hdop>3.937</hdop><vdop>3.187</vdop><extensions><gom:speed>0.08</gom:speed></extensions></trkpt>
   <trkpt lat="59.0718219683" lon="30.0226707221"><ele>99.405</ele><time>2026-04-20T17:51:58.076Z</time><hdop>3.937</hdop><vdop>3.062</vdop><extensions><gom:speed>0.114</gom:speed></extensions></trkpt>
   <trkpt lat="59.0718218845" lon="30.022672147"><ele>99.413</ele><time>2026-04-20T17:51:59.075Z</time><hdop>3.875</hdop><vdop>3.25</vdop><extensions><gom:speed>0.091</gom:speed></extensions></trkpt>
   <trkpt lat="59.0718217587" lon="30.0226725661"><ele>99.419</ele><time>2026-04-20T17:52:00.075Z</time><hdop>3.812</hdop><vdop>3.25</vdop><extensions><gom:speed>0.096</gom:speed></extensions></trkpt>
   <trkpt lat="59.0718214654" lon="30.0226726499"><ele>99.424</ele><time>2026-04-20T17:52:00.662Z</time><hdop>3.812</hdop><vdop>3.25</vdop><extensions><gom:speed>0.104</gom:speed></extensions></trkpt>
   <trkpt lat="59.0718208786" lon="30.0226765894"><ele>99.155</ele><time>2026-04-20T17:52:01.539Z</time><hdop>3.812</hdop><vdop>2.875</vdop><extensions><gom:speed>0.11</gom:speed></extensions></trkpt>
   <trkpt lat="59.0718204595" lon="30.0226773438"><ele>98.995</ele><time>2026-04-20T17:52:01.994Z</time><hdop>3.812</hdop><vdop>2.875</vdop><extensions><gom:speed>0.142</gom:speed></extensions></trkpt>
   <trkpt lat="59.0718195794" lon="30.0226851389"><ele>98.822</ele><time>2026-04-20T17:52:03.075Z</time><hdop>3.812</hdop><vdop>2.5</vdop><extensions><gom:speed>0.127</gom:speed></extensions></trkpt>
   <trkpt lat="59.071819789" lon="30.0226868991"><ele>98.72</ele><time>2026-04-20T17:52:03.768Z</time><hdop>3.875</hdop><vdop>2.5</vdop><extensions><gom:speed>0.09</gom:speed></extensions></trkpt>
   <trkpt lat="59.0718187831" lon="30.0226967898"><ele>99.099</ele><time>2026-04-20T17:52:04.419Z</time><hdop>3.875</hdop><vdop>3.625</vdop><extensions><gom:speed>0.145</gom:speed></extensions></trkpt>
   <trkpt lat="59.0718181964" lon="30.0227056746"><ele>98.898</ele><time>2026-04-20T17:52:05.075Z</time><hdop>3.875</hdop><vdop>3.5</vdop><extensions><gom:speed>0.177</gom:speed></extensions></trkpt>
   <trkpt lat="59.0718179869" lon="30.0227166549"><ele>98.493</ele><time>2026-04-20T17:52:06.075Z</time><hdop>3.875</hdop><vdop>3.312</vdop><extensions><gom:speed>0.162</gom:speed></extensions></trkpt>
   <trkpt lat="59.0718176935" lon="30.0227220193"><ele>98.097</ele><time>2026-04-20T17:52:07.075Z</time><hdop>3.75</hdop><vdop>3.312</vdop><extensions><gom:speed>0.1</gom:speed></extensions></trkpt>
   <trkpt lat="59.0718166877" lon="30.0227321614"><ele>97.88</ele><time>2026-04-20T17:52:08.075Z</time><hdop>3.75</hdop><vdop>3.187</vdop><extensions><gom:speed>0.17</gom:speed></extensions></trkpt>
   <trkpt lat="59.0718153885" lon="30.0227435608"><ele>97.881</ele><time>2026-04-20T17:52:09.075Z</time><hdop>3.75</hdop><vdop>3.187</vdop><extensions><gom:speed>0.194</gom:speed></extensions></trkpt>
   <trkpt lat="59.0718151789" lon="30.0227467459"><ele>97.881</ele><time>2026-04-20T17:52:09.927Z</time><hdop>3.812</hdop><vdop>3.187</vdop><extensions><gom:speed>0.185</gom:speed></extensions></trkpt>
   <trkpt lat="59.0718171906" lon="30.022768958"><ele>97.93</ele><time>2026-04-20T17:52:10.621Z</time><hdop>4.062</hdop><vdop>3.125</vdop><extensions><gom:speed>0.341</gom:speed></extensions></trkpt>
   <trkpt lat="59.071819789" lon="30.0227837939"><ele>97.941</ele><time>2026-04-20T17:52:11.076Z</time><hdop>4.187</hdop><vdop>3.0</vdop><extensions><gom:speed>0.41</gom:speed></extensions></trkpt>
   <trkpt lat="59.0718223874" lon="30.0227964506"><ele>97.948</ele><time>2026-04-20T17:52:11.598Z</time><hdop>4.437</hdop><vdop>3.0</vdop><extensions><gom:speed>0.484</gom:speed></extensions></trkpt>
   <trkpt lat="59.0718255725" lon="30.022813885"><ele>98.011</ele><time>2026-04-20T17:52:12.075Z</time><hdop>4.562</hdop><vdop>2.937</vdop><extensions><gom:speed>0.527</gom:speed></extensions></trkpt>
   <trkpt lat="59.07182859" lon="30.022839785"><ele>98.049</ele><time>2026-04-20T17:52:12.653Z</time><hdop>4.875</hdop><vdop>2.937</vdop><extensions><gom:speed>0.778</gom:speed></extensions></trkpt>
   <trkpt lat="59.0718286738" lon="30.0228707981"><ele>98.082</ele><time>2026-04-20T17:52:13.512Z</time><hdop>5.25</hdop><vdop>2.937</vdop><extensions><gom:speed>0.8</gom:speed></extensions></trkpt>
   <trkpt lat="59.0718280871" lon="30.02288379"><ele>98.17</ele><time>2026-04-20T17:52:14.075Z</time><hdop>5.312</hdop><vdop>2.875</vdop><extensions><gom:speed>0.777</gom:speed></extensions></trkpt>
   <trkpt lat="59.071826285" lon="30.0229016435"><ele>98.248</ele><time>2026-04-20T17:52:15.076Z</time><hdop>5.5</hdop><vdop>3.0</vdop><extensions><gom:speed>0.759</gom:speed></extensions></trkpt>
   <trkpt lat="59.0718239799" lon="30.0229148869"><ele>98.301</ele><time>2026-04-20T17:52:16.075Z</time><hdop>5.5</hdop><vdop>3.125</vdop><extensions><gom:speed>0.707</gom:speed></extensions></trkpt>
   <trkpt lat="59.0718190765" lon="30.0229197484"><ele>98.333</ele><time>2026-04-20T17:52:17.076Z</time><hdop>5.25</hdop><vdop>3.125</vdop><extensions><gom:speed>0.585</gom:speed></extensions></trkpt>
   <trkpt lat="59.0718162686" lon="30.0229226821"><ele>98.343</ele><time>2026-04-20T17:52:17.955Z</time><hdop>5.125</hdop><vdop>3.062</vdop><extensions><gom:speed>0.615</gom:speed></extensions></trkpt>
   <trkpt lat="59.0718133768" lon="30.0229302258"><ele>98.345</ele><time>2026-04-20T17:52:18.943Z</time><hdop>4.937</hdop><vdop>3.062</vdop><extensions><gom:speed>0.639</gom:speed></extensions></trkpt>
   <trkpt lat="59.0718091859" lon="30.0229359255"><ele>98.349</ele><time>2026-04-20T17:52:19.995Z</time><hdop>4.812</hdop><vdop>3.125</vdop><extensions><gom:speed>0.529</gom:speed></extensions></trkpt>
   <trkpt lat="59.0718059588" lon="30.0229385239"><ele>98.321</ele><time>2026-04-20T17:52:20.942Z</time><hdop>4.812</hdop><vdop>3.187</vdop><extensions><gom:speed>0.472</gom:speed></extensions></trkpt>
   <trkpt lat="59.0718004687" lon="30.0229416252"><ele>98.304</ele><time>2026-04-20T17:52:22.083Z</time><hdop>4.937</hdop><vdop>3.187</vdop><extensions><gom:speed>0.508</gom:speed></extensions></trkpt>
   <trkpt lat="59.071792464" lon="30.022943553"><ele>98.294</ele><time>2026-04-20T17:52:23.078Z</time><hdop>5.187</hdop><vdop>3.25</vdop><extensions><gom:speed>0.542</gom:speed></extensions></trkpt>
   <trkpt lat="59.0717878958" lon="30.0229449779"><ele>98.303</ele><time>2026-04-20T17:52:23.976Z</time><hdop>5.375</hdop><vdop>3.25</vdop><extensions><gom:speed>0.565</gom:speed></extensions></trkpt>
   <trkpt lat="59.0717866805" lon="30.0229450617"><ele>98.308</ele><time>2026-04-20T17:52:24.440Z</time><hdop>5.625</hdop><vdop>3.25</vdop><extensions><gom:speed>0.477</gom:speed></extensions></trkpt>
   <trkpt lat="59.0717847945" lon="30.0229448941"><ele>98.31</ele><time>2026-04-20T17:52:24.970Z</time><hdop>5.687</hdop><vdop>3.25</vdop><extensions><gom:speed>0.469</gom:speed></extensions></trkpt>
   <trkpt lat="59.0717837887" lon="30.0229439721"><ele>98.311</ele><time>2026-04-20T17:52:25.476Z</time><hdop>5.875</hdop><vdop>3.25</vdop><extensions><gom:speed>0.446</gom:speed></extensions></trkpt>
   <trkpt lat="59.0717816932" lon="30.0229427986"><ele>98.311</ele><time>2026-04-20T17:52:26.037Z</time><hdop>5.937</hdop><vdop>3.375</vdop><extensions><gom:speed>0.439</gom:speed></extensions></trkpt>
   <trkpt lat="59.0717767898" lon="30.0229419604"><ele>98.306</ele><time>2026-04-20T17:52:26.984Z</time><hdop>6.25</hdop><vdop>3.375</vdop><extensions><gom:speed>0.495</gom:speed></extensions></trkpt>
   <trkpt lat="59.0717751973" lon="30.022942631"><ele>98.303</ele><time>2026-04-20T17:52:27.677Z</time><hdop>6.375</hdop><vdop>3.375</vdop><extensions><gom:speed>0.418</gom:speed></extensions></trkpt>
   <trkpt lat="59.0717730599" lon="30.0229442236"><ele>98.302</ele><time>2026-04-20T17:52:28.398Z</time><hdop>6.562</hdop><vdop>3.562</vdop><extensions><gom:speed>0.406</gom:speed></extensions></trkpt>
   <trkpt lat="59.0717686594" lon="30.022948666"><ele>98.297</ele><time>2026-04-20T17:52:28.997Z</time><hdop>6.75</hdop><vdop>3.562</vdop><extensions><gom:speed>0.433</gom:speed></extensions></trkpt>
   <trkpt lat="59.0717662705" lon="30.0229506776"><ele>98.294</ele><time>2026-04-20T17:52:29.495Z</time><hdop>6.937</hdop><vdop>3.562</vdop><extensions><gom:speed>0.475</gom:speed></extensions></trkpt>
   <trkpt lat="59.0717635883" lon="30.0229519349"><ele>98.292</ele><time>2026-04-20T17:52:29.946Z</time><hdop>7.062</hdop><vdop>3.625</vdop><extensions><gom:speed>0.492</gom:speed></extensions></trkpt>
   <trkpt lat="59.0717592716" lon="30.0229535275"><ele>98.29</ele><time>2026-04-20T17:52:30.579Z</time><hdop>7.25</hdop><vdop>3.625</vdop><extensions><gom:speed>0.558</gom:speed></extensions></trkpt>
   <trkpt lat="59.0717511831" lon="30.0229539466"><ele>98.287</ele><time>2026-04-20T17:52:31.556Z</time><hdop>7.562</hdop><vdop>3.5</vdop><extensions><gom:speed>0.619</gom:speed></extensions></trkpt>
   <trkpt lat="59.071744268" lon="30.0229528569"><ele>98.283</ele><time>2026-04-20T17:52:32.395Z</time><hdop>7.75</hdop><vdop>3.437</vdop><extensions><gom:speed>0.66</gom:speed></extensions></trkpt>
   <trkpt lat="59.0717394903" lon="30.0229508453"><ele>98.281</ele><time>2026-04-20T17:52:33.025Z</time><hdop>7.937</hdop><vdop>3.5</vdop><extensions><gom:speed>0.656</gom:speed></extensions></trkpt>
   <trkpt lat="59.0717334973" lon="30.0229482469"><ele>98.278</ele><time>2026-04-20T17:52:33.973Z</time><hdop>8.25</hdop><vdop>3.625</vdop><extensions><gom:speed>0.623</gom:speed></extensions></trkpt>
   <trkpt lat="59.071731779" lon="30.0229478278"><ele>98.277</ele><time>2026-04-20T17:52:34.802Z</time><hdop>8.375</hdop><vdop>3.625</vdop><extensions><gom:speed>0.634</gom:speed></extensions></trkpt>
   <trkpt lat="59.07171929" lon="30.0229511805"><ele>98.273</ele><time>2026-04-20T17:52:36.018Z</time><hdop>8.687</hdop><vdop>3.687</vdop><extensions><gom:speed>0.689</gom:speed></extensions></trkpt>
   <trkpt lat="59.0717131712" lon="30.0229520187"><ele>98.256</ele><time>2026-04-20T17:52:36.956Z</time><hdop>8.875</hdop><vdop>3.687</vdop><extensions><gom:speed>0.658</gom:speed></extensions></trkpt>
   <trkpt lat="59.0717259955" lon="30.0229539466"><ele>98.568</ele><time>2026-04-20T17:52:37.973Z</time><hdop>8.812</hdop><vdop>2.625</vdop><extensions><gom:speed>0.576</gom:speed></extensions></trkpt>
   <trkpt lat="59.0717351737" lon="30.0229726382"><ele>98.472</ele><time>2026-04-20T17:52:39.075Z</time><hdop>8.375</hdop><vdop>2.5</vdop><extensions><gom:speed>0.525</gom:speed></extensions></trkpt>
   <trkpt lat="59.0717374787" lon="30.0229855463"><ele>98.414</ele><time>2026-04-20T17:52:40.037Z</time><hdop>7.875</hdop><vdop>2.5</vdop><extensions><gom:speed>0.5</gom:speed></extensions></trkpt>
   <trkpt lat="59.0717359699" lon="30.0229948503"><ele>98.48</ele><time>2026-04-20T17:52:40.963Z</time><hdop>7.437</hdop><vdop>4.312</vdop><extensions><gom:speed>0.478</gom:speed></extensions></trkpt>
   <trkpt lat="59.0717290968" lon="30.0230208342"><ele>98.288</ele><time>2026-04-20T17:52:41.923Z</time><hdop>6.937</hdop><vdop>4.75</vdop><extensions><gom:speed>0.493</gom:speed></extensions></trkpt>
   <trkpt lat="59.0717170688" lon="30.0230428786"><ele>98.753</ele><time>2026-04-20T17:52:43.076Z</time><hdop>6.25</hdop><vdop>4.812</vdop><extensions><gom:speed>0.416</gom:speed></extensions></trkpt>
   <trkpt lat="59.0717079744" lon="30.0230576307"><ele>98.981</ele><time>2026-04-20T17:52:44.075Z</time><hdop>6.187</hdop><vdop>4.875</vdop><extensions><gom:speed>0.378</gom:speed></extensions></trkpt>
   <trkpt lat="59.0716989638" lon="30.0230720476"><ele>98.948</ele><time>2026-04-20T17:52:45.075Z</time><hdop>6.062</hdop><vdop>4.812</vdop><extensions><gom:speed>0.335</gom:speed></extensions></trkpt>
   <trkpt lat="59.0716906658" lon="30.0230848719"><ele>98.742</ele><time>2026-04-20T17:52:46.076Z</time><hdop>6.0</hdop><vdop>4.812</vdop><extensions><gom:speed>0.314</gom:speed></extensions></trkpt>
   <trkpt lat="59.0716838764" lon="30.0230983668"><ele>98.533</ele><time>2026-04-20T17:52:47.075Z</time><hdop>6.062</hdop><vdop>4.812</vdop><extensions><gom:speed>0.281</gom:speed></extensions></trkpt>
   <trkpt lat="59.0716786796" lon="30.0231075868"><ele>98.409</ele><time>2026-04-20T17:52:48.054Z</time><hdop>6.062</hdop><vdop>4.812</vdop><extensions><gom:speed>0.357</gom:speed></extensions></trkpt>
   <trkpt lat="59.071672477" lon="30.0231184833"><ele>98.543</ele><time>2026-04-20T17:52:48.881Z</time><hdop>6.0</hdop><vdop>4.875</vdop><extensions><gom:speed>0.42</gom:speed></extensions></trkpt>
   <trkpt lat="59.0716657715" lon="30.0231349957"><ele>98.506</ele><time>2026-04-20T17:52:50.075Z</time><hdop>5.875</hdop><vdop>5.312</vdop><extensions><gom:speed>0.334</gom:speed></extensions></trkpt>
   <trkpt lat="59.0716658972" lon="30.0231388513"><ele>98.616</ele><time>2026-04-20T17:52:51.032Z</time><hdop>5.75</hdop><vdop>5.562</vdop><extensions><gom:speed>0.186</gom:speed></extensions></trkpt>
   <trkpt lat="59.0716675736" lon="30.023137175"><ele>98.816</ele><time>2026-04-20T17:52:52.098Z</time><hdop>5.625</hdop><vdop>5.562</vdop><extensions><gom:speed>0.13</gom:speed></extensions></trkpt>
   <trkpt lat="59.0716671964" lon="30.0231404439"><ele>98.942</ele><time>2026-04-20T17:52:53.045Z</time><hdop>5.437</hdop><vdop>5.75</vdop><extensions><gom:speed>0.082</gom:speed></extensions></trkpt>
   <trkpt lat="59.0716667773" lon="30.0231430423"><ele>99.012</ele><time>2026-04-20T17:52:53.993Z</time><hdop>5.312</hdop><vdop>5.75</vdop><extensions><gom:speed>0.077</gom:speed></extensions></trkpt>
   <trkpt lat="59.0716663582" lon="30.0231427908"><ele>99.068</ele><time>2026-04-20T17:52:54.940Z</time><hdop>5.25</hdop><vdop>5.687</vdop><extensions><gom:speed>0.069</gom:speed></extensions></trkpt>
   <trkpt lat="59.0716660649" lon="30.0231431261"><ele>99.121</ele><time>2026-04-20T17:52:56.006Z</time><hdop>5.312</hdop><vdop>5.312</vdop><extensions><gom:speed>0.1</gom:speed></extensions></trkpt>
   <trkpt lat="59.0716659811" lon="30.0231438805"><ele>99.152</ele><time>2026-04-20T17:52:56.621Z</time><hdop>5.312</hdop><vdop>5.312</vdop><extensions><gom:speed>0.071</gom:speed></extensions></trkpt>
   <trkpt lat="59.0716657715" lon="30.0231457245"><ele>99.066</ele><time>2026-04-20T17:52:57.599Z</time><hdop>5.375</hdop><vdop>5.562</vdop><extensions><gom:speed>0.07</gom:speed></extensions></trkpt>
   <trkpt lat="59.0716643885" lon="30.0231527653"><ele>99.196</ele><time>2026-04-20T17:52:58.075Z</time><hdop>5.375</hdop><vdop>3.5</vdop><extensions><gom:speed>0.115</gom:speed></extensions></trkpt>
   <trkpt lat="59.0716637598" lon="30.0231568724"><ele>99.274</ele><time>2026-04-20T17:52:58.615Z</time><hdop>5.375</hdop><vdop>3.5</vdop><extensions><gom:speed>0.119</gom:speed></extensions></trkpt>
   <trkpt lat="59.0716618739" lon="30.0231647514"><ele>99.164</ele><time>2026-04-20T17:52:59.075Z</time><hdop>5.312</hdop><vdop>2.875</vdop><extensions><gom:speed>0.154</gom:speed></extensions></trkpt>
   <trkpt lat="59.0716606585" lon="30.0231695291"><ele>99.098</ele><time>2026-04-20T17:52:59.553Z</time><hdop>5.312</hdop><vdop>2.875</vdop><extensions><gom:speed>0.168</gom:speed></extensions></trkpt>
   <trkpt lat="59.0716583954" lon="30.0231772405"><ele>99.166</ele><time>2026-04-20T17:53:00.075Z</time><hdop>5.25</hdop><vdop>2.687</vdop><extensions><gom:speed>0.181</gom:speed></extensions></trkpt>
   <trkpt lat="59.0716543721" lon="30.0231906515"><ele>99.194</ele><time>2026-04-20T17:53:01.075Z</time><hdop>5.125</hdop><vdop>2.5</vdop><extensions><gom:speed>0.278</gom:speed></extensions></trkpt>
   <trkpt lat="59.0716517737" lon="30.0231976923"><ele>99.211</ele><time>2026-04-20T17:53:01.734Z</time><hdop>5.0</hdop><vdop>2.5</vdop><extensions><gom:speed>0.339</gom:speed></extensions></trkpt>
   <trkpt lat="59.0716456968" lon="30.0232105166"><ele>99.086</ele><time>2026-04-20T17:53:02.634Z</time><hdop>4.812</hdop><vdop>2.5</vdop><extensions><gom:speed>0.414</gom:speed></extensions></trkpt>
   <trkpt lat="59.0716399972" lon="30.0232217484"><ele>98.797</ele><time>2026-04-20T17:53:03.393Z</time><hdop>4.687</hdop><vdop>2.5</vdop><extensions><gom:speed>0.454</gom:speed></extensions></trkpt>
   <trkpt lat="59.0716354709" lon="30.0232323934"><ele>98.705</ele><time>2026-04-20T17:53:04.075Z</time><hdop>4.625</hdop><vdop>2.5</vdop><extensions><gom:speed>0.523</gom:speed></extensions></trkpt>
   <trkpt lat="59.0716295617" lon="30.0232497439"><ele>98.567</ele><time>2026-04-20T17:53:05.075Z</time><hdop>4.5</hdop><vdop>2.5</vdop><extensions><gom:speed>0.592</gom:speed></extensions></trkpt>
   <trkpt lat="59.0716275919" lon="30.023255276"><ele>98.484</ele><time>2026-04-20T17:53:05.720Z</time><hdop>4.5</hdop><vdop>2.5</vdop><extensions><gom:speed>0.607</gom:speed></extensions></trkpt>
   <trkpt lat="59.0716203835" lon="30.0232725427"><ele>98.23</ele><time>2026-04-20T17:53:06.296Z</time><hdop>4.5</hdop><vdop>2.5</vdop><extensions><gom:speed>0.666</gom:speed></extensions></trkpt>
   <trkpt lat="59.0716144743" lon="30.0232795835"><ele>98.026</ele><time>2026-04-20T17:53:07.075Z</time><hdop>4.437</hdop><vdop>2.5</vdop><extensions><gom:speed>0.627</gom:speed></extensions></trkpt>
   <trkpt lat="59.07160626" lon="30.0232857861"><ele>97.827</ele><time>2026-04-20T17:53:08.075Z</time><hdop>4.437</hdop><vdop>5.0</vdop><extensions><gom:speed>0.627</gom:speed></extensions></trkpt>
   <trkpt lat="59.0716005603" lon="30.023289558"><ele>97.813</ele><time>2026-04-20T17:53:09.038Z</time><hdop>4.562</hdop><vdop>4.875</vdop><extensions><gom:speed>0.571</gom:speed></extensions></trkpt>
   <trkpt lat="59.0715949863" lon="30.0232952577"><ele>97.798</ele><time>2026-04-20T17:53:10.076Z</time><hdop>4.625</hdop><vdop>4.875</vdop><extensions><gom:speed>0.528</gom:speed></extensions></trkpt>
   <trkpt lat="59.0715903763" lon="30.0232985266"><ele>97.802</ele><time>2026-04-20T17:53:10.933Z</time><hdop>4.75</hdop><vdop>5.125</vdop><extensions><gom:speed>0.501</gom:speed></extensions></trkpt>
   <trkpt lat="59.0715897896" lon="30.0232988619"><ele>97.805</ele><time>2026-04-20T17:53:11.880Z</time><hdop>4.812</hdop><vdop>5.125</vdop><extensions><gom:speed>0.438</gom:speed></extensions></trkpt>
   <trkpt lat="59.0715845928" lon="30.0232984428"><ele>97.738</ele><time>2026-04-20T17:53:13.075Z</time><hdop>5.0</hdop><vdop>4.937</vdop><extensions><gom:speed>0.253</gom:speed></extensions></trkpt>
   <trkpt lat="59.0715857662" lon="30.0232960959"><ele>97.604</ele><time>2026-04-20T17:53:14.012Z</time><hdop>5.062</hdop><vdop>4.75</vdop><extensions><gom:speed>0.134</gom:speed></extensions></trkpt>
   <trkpt lat="59.0715833774" lon="30.0232949224"><ele>97.6</ele><time>2026-04-20T17:53:15.075Z</time><hdop>5.062</hdop><vdop>4.687</vdop><extensions><gom:speed>0.127</gom:speed></extensions></trkpt>
   <trkpt lat="59.0715827907" lon="30.0232956768"><ele>97.597</ele><time>2026-04-20T17:53:15.900Z</time><hdop>5.125</hdop><vdop>4.687</vdop><extensions><gom:speed>0.143</gom:speed></extensions></trkpt>
   <trkpt lat="59.0715824973" lon="30.023296934"><ele>97.559</ele><time>2026-04-20T17:53:16.779Z</time><hdop>5.187</hdop><vdop>4.5</vdop><extensions><gom:speed>0.153</gom:speed></extensions></trkpt>
   <trkpt lat="59.0715820782" lon="30.023299281"><ele>97.588</ele><time>2026-04-20T17:53:17.777Z</time><hdop>5.187</hdop><vdop>4.187</vdop><extensions><gom:speed>0.198</gom:speed></extensions></trkpt>
   <trkpt lat="59.0715773843" lon="30.023302047"><ele>97.622</ele><time>2026-04-20T17:53:18.988Z</time><hdop>5.187</hdop><vdop>3.562</vdop><extensions><gom:speed>0.223</gom:speed></extensions></trkpt>
   <trkpt lat="59.0715743669" lon="30.0233027176"><ele>97.676</ele><time>2026-04-20T17:53:20.075Z</time><hdop>5.187</hdop><vdop>3.375</vdop><extensions><gom:speed>0.186</gom:speed></extensions></trkpt>
   <trkpt lat="59.0715712655" lon="30.023302969"><ele>97.723</ele><time>2026-04-20T17:53:21.075Z</time><hdop>5.187</hdop><vdop>3.125</vdop><extensions><gom:speed>0.133</gom:speed></extensions></trkpt>
   <trkpt lat="59.0715686672" lon="30.0233030528"><ele>97.753</ele><time>2026-04-20T17:53:22.075Z</time><hdop>5.125</hdop><vdop>2.937</vdop><extensions><gom:speed>0.108</gom:speed></extensions></trkpt>
   <trkpt lat="59.0715662783" lon="30.0233032205"><ele>97.775</ele><time>2026-04-20T17:53:23.075Z</time><hdop>4.937</hdop><vdop>2.937</vdop><extensions><gom:speed>0.095</gom:speed></extensions></trkpt>
   <trkpt lat="59.0715648953" lon="30.0233048969"><ele>97.81</ele><time>2026-04-20T17:53:24.075Z</time><hdop>4.812</hdop><vdop>2.875</vdop><extensions><gom:speed>0.126</gom:speed></extensions></trkpt>
   <trkpt lat="59.0715639733" lon="30.0233050645"><ele>97.831</ele><time>2026-04-20T17:53:24.715Z</time><hdop>4.687</hdop><vdop>2.875</vdop><extensions><gom:speed>0.113</gom:speed></extensions></trkpt>
   <trkpt lat="59.0715634704" lon="30.0233041425"><ele>97.849</ele><time>2026-04-20T17:53:25.861Z</time><hdop>4.625</hdop><vdop>2.937</vdop><extensions><gom:speed>0.113</gom:speed></extensions></trkpt>
   <trkpt lat="59.0715628836" lon="30.0233036396"><ele>97.844</ele><time>2026-04-20T17:53:26.841Z</time><hdop>4.5</hdop><vdop>3.125</vdop><extensions><gom:speed>0.113</gom:speed></extensions></trkpt>
   <trkpt lat="59.0715609977" lon="30.0233036396"><ele>97.84</ele><time>2026-04-20T17:53:28.012Z</time><hdop>4.437</hdop><vdop>3.125</vdop><extensions><gom:speed>0.138</gom:speed></extensions></trkpt>
   <trkpt lat="59.0715565972" lon="30.0233083334"><ele>98.078</ele><time>2026-04-20T17:53:29.020Z</time><hdop>4.375</hdop><vdop>2.625</vdop><extensions><gom:speed>0.192</gom:speed></extensions></trkpt>
   <trkpt lat="59.0715503946" lon="30.023314536"><ele>98.291</ele><time>2026-04-20T17:53:30.098Z</time><hdop>4.312</hdop><vdop>2.5</vdop><extensions><gom:speed>0.223</gom:speed></extensions></trkpt>
   <trkpt lat="59.0715385761" lon="30.0233231694"><ele>98.229</ele><time>2026-04-20T17:53:31.075Z</time><hdop>4.312</hdop><vdop>2.5</vdop><extensions><gom:speed>0.315</gom:speed></extensions></trkpt>
   <trkpt lat="59.0715312839" lon="30.0233251811"><ele>97.802</ele><time>2026-04-20T17:53:32.075Z</time><hdop>4.312</hdop><vdop>2.5</vdop><extensions><gom:speed>0.358</gom:speed></extensions></trkpt>
   <trkpt lat="59.0715272606" lon="30.0233253487"><ele>97.547</ele><time>2026-04-20T17:53:32.722Z</time><hdop>4.312</hdop><vdop>2.5</vdop><extensions><gom:speed>0.377</gom:speed></extensions></trkpt>
   <trkpt lat="59.0715201778" lon="30.02332845"><ele>97.0</ele><time>2026-04-20T17:53:33.936Z</time><hdop>4.312</hdop><vdop>2.5</vdop><extensions><gom:speed>0.32</gom:speed></extensions></trkpt>
   <trkpt lat="59.0715133885" lon="30.0233346526"><ele>96.545</ele><time>2026-04-20T17:53:34.874Z</time><hdop>4.312</hdop><vdop>2.5</vdop><extensions><gom:speed>0.295</gom:speed></extensions></trkpt>
   <trkpt lat="59.0715076888" lon="30.0233403523"><ele>95.933</ele><time>2026-04-20T17:53:35.941Z</time><hdop>4.312</hdop><vdop>2.5</vdop><extensions><gom:speed>0.268</gom:speed></extensions></trkpt>
   <trkpt lat="59.0715037912" lon="30.0233447947"><ele>95.61</ele><time>2026-04-20T17:53:36.638Z</time><hdop>4.312</hdop><vdop>2.5</vdop><extensions><gom:speed>0.285</gom:speed></extensions></trkpt>
   <trkpt lat="59.0714949902" lon="30.0233564456"><ele>95.528</ele><time>2026-04-20T17:53:38.062Z</time><hdop>4.375</hdop><vdop>2.5</vdop><extensions><gom:speed>0.318</gom:speed></extensions></trkpt>
   <trkpt lat="59.0714846805" lon="30.0233693537"><ele>95.432</ele><time>2026-04-20T17:53:39.075Z</time><hdop>4.375</hdop><vdop>2.5</vdop><extensions><gom:speed>0.35</gom:speed></extensions></trkpt>
   <trkpt lat="59.0714769691" lon="30.0233790767"><ele>95.39</ele><time>2026-04-20T17:53:40.075Z</time><hdop>4.437</hdop><vdop>4.187</vdop><extensions><gom:speed>0.349</gom:speed></extensions></trkpt>
   <trkpt lat="59.0714721915" lon="30.0233836867"><ele>95.49</ele><time>2026-04-20T17:53:41.021Z</time><hdop>4.5</hdop><vdop>4.187</vdop><extensions><gom:speed>0.396</gom:speed></extensions></trkpt>
   <trkpt lat="59.0714642706" lon="30.0233918172"><ele>95.618</ele><time>2026-04-20T17:53:42.075Z</time><hdop>4.625</hdop><vdop>4.25</vdop><extensions><gom:speed>0.466</gom:speed></extensions></trkpt>
   <trkpt lat="59.0714617979" lon="30.0233952538"><ele>95.695</ele><time>2026-04-20T17:53:42.915Z</time><hdop>4.75</hdop><vdop>4.25</vdop><extensions><gom:speed>0.471</gom:speed></extensions></trkpt>
   <trkpt lat="59.0714544637" lon="30.0234079943"><ele>95.76</ele><time>2026-04-20T17:53:43.996Z</time><hdop>4.937</hdop><vdop>4.25</vdop><extensions><gom:speed>0.508</gom:speed></extensions></trkpt>
   <trkpt lat="59.0714483868" lon="30.0234222435"><ele>95.765</ele><time>2026-04-20T17:53:45.004Z</time><hdop>5.125</hdop><vdop>4.187</vdop><extensions><gom:speed>0.549</gom:speed></extensions></trkpt>
   <trkpt lat="59.0714451598" lon="30.0234343973"><ele>95.79</ele><time>2026-04-20T17:53:46.019Z</time><hdop>5.375</hdop><vdop>4.187</vdop><extensions><gom:speed>0.594</gom:speed></extensions></trkpt>
   <trkpt lat="59.0714375742" lon="30.0234552682"><ele>96.212</ele><time>2026-04-20T17:53:47.075Z</time><hdop>5.5</hdop><vdop>2.75</vdop><extensions><gom:speed>0.555</gom:speed></extensions></trkpt>
   <trkpt lat="59.0714330899" lon="30.0234724511"><ele>96.881</ele><time>2026-04-20T17:53:48.075Z</time><hdop>5.625</hdop><vdop>2.562</vdop><extensions><gom:speed>0.507</gom:speed></extensions></trkpt>
   <trkpt lat="59.0714289827" lon="30.0234889634"><ele>96.946</ele><time>2026-04-20T17:53:49.075Z</time><hdop>5.625</hdop><vdop>2.5</vdop><extensions><gom:speed>0.498</gom:speed></extensions></trkpt>
   <trkpt lat="59.0714234926" lon="30.0235076551"><ele>96.903</ele><time>2026-04-20T17:53:50.075Z</time><hdop>5.562</hdop><vdop>2.5</vdop><extensions><gom:speed>0.46</gom:speed></extensions></trkpt>
   <trkpt lat="59.0714208942" lon="30.0235252571"><ele>96.848</ele><time>2026-04-20T17:53:51.075Z</time><hdop>5.437</hdop><vdop>2.5</vdop><extensions><gom:speed>0.482</gom:speed></extensions></trkpt>
   <trkpt lat="59.0714182958" lon="30.0235422723"><ele>96.421</ele><time>2026-04-20T17:53:52.075Z</time><hdop>5.375</hdop><vdop>2.5</vdop><extensions><gom:speed>0.462</gom:speed></extensions></trkpt>
   <trkpt lat="59.0714137696" lon="30.0235568569"><ele>96.174</ele><time>2026-04-20T17:53:53.075Z</time><hdop>5.25</hdop><vdop>2.5</vdop><extensions><gom:speed>0.42</gom:speed></extensions></trkpt>
   <trkpt lat="59.0714089919" lon="30.0235684239"><ele>95.856</ele><time>2026-04-20T17:53:54.075Z</time><hdop>5.187</hdop><vdop>2.5</vdop><extensions><gom:speed>0.486</gom:speed></extensions></trkpt>
   <trkpt lat="59.0714035856" lon="30.0235781469"><ele>95.745</ele><time>2026-04-20T17:53:55.075Z</time><hdop>5.062</hdop><vdop>2.5</vdop><extensions><gom:speed>0.5</gom:speed></extensions></trkpt>
   <trkpt lat="59.0713970896" lon="30.0235876184"><ele>95.6</ele><time>2026-04-20T17:53:56.075Z</time><hdop>4.937</hdop><vdop>4.687</vdop><extensions><gom:speed>0.497</gom:speed></extensions></trkpt>
   <trkpt lat="59.0713970896" lon="30.0235967547"><ele>95.514</ele><time>2026-04-20T17:53:56.680Z</time><hdop>4.812</hdop><vdop>4.687</vdop><extensions><gom:speed>0.699</gom:speed></extensions></trkpt>
   <trkpt lat="59.0714045914" lon="30.0236084894"><ele>95.621</ele><time>2026-04-20T17:53:57.959Z</time><hdop>4.812</hdop><vdop>4.812</vdop><extensions><gom:speed>0.651</gom:speed></extensions></trkpt>
   <trkpt lat="59.0714067707" lon="30.0236107525"><ele>95.879</ele><time>2026-04-20T17:53:59.026Z</time><hdop>4.812</hdop><vdop>4.625</vdop><extensions><gom:speed>0.442</gom:speed></extensions></trkpt>
   <trkpt lat="59.0714049686" lon="30.0236084894"><ele>96.128</ele><time>2026-04-20T17:53:59.974Z</time><hdop>4.812</hdop><vdop>4.562</vdop><extensions><gom:speed>0.235</gom:speed></extensions></trkpt>
   <trkpt lat="59.071401993" lon="30.0236038793"><ele>96.28</ele><time>2026-04-20T17:54:01.040Z</time><hdop>4.875</hdop><vdop>4.562</vdop><extensions><gom:speed>0.133</gom:speed></extensions></trkpt>
   <trkpt lat="59.0713995623" lon="30.0236002751"><ele>96.326</ele><time>2026-04-20T17:54:01.988Z</time><hdop>5.062</hdop><vdop>4.625</vdop><extensions><gom:speed>0.088</gom:speed></extensions></trkpt>
   <trkpt lat="59.0713986822" lon="30.0236010295"><ele>96.42</ele><time>2026-04-20T17:54:03.053Z</time><hdop>5.125</hdop><vdop>4.75</vdop><extensions><gom:speed>0.07</gom:speed></extensions></trkpt>
   <trkpt lat="59.0713991851" lon="30.0235996884"><ele>96.484</ele><time>2026-04-20T17:54:04.001Z</time><hdop>5.187</hdop><vdop>4.875</vdop><extensions><gom:speed>0.073</gom:speed></extensions></trkpt>
   <trkpt lat="59.071399688" lon="30.0236006942"><ele>96.545</ele><time>2026-04-20T17:54:04.949Z</time><hdop>5.25</hdop><vdop>5.0</vdop><extensions><gom:speed>0.068</gom:speed></extensions></trkpt>
   <trkpt lat="59.0713995623" lon="30.0236013648"><ele>96.653</ele><time>2026-04-20T17:54:06.014Z</time><hdop>5.312</hdop><vdop>5.125</vdop><extensions><gom:speed>0.066</gom:speed></extensions></trkpt>
   <trkpt lat="59.0713994784" lon="30.0236016162"><ele>96.739</ele><time>2026-04-20T17:54:06.962Z</time><hdop>5.437</hdop><vdop>5.062</vdop><extensions><gom:speed>0.083</gom:speed></extensions></trkpt>
   <trkpt lat="59.0713992689" lon="30.0236015324"><ele>96.79</ele><time>2026-04-20T17:54:07.674Z</time><hdop>5.5</hdop><vdop>5.062</vdop><extensions><gom:speed>0.071</gom:speed></extensions></trkpt>
   <trkpt lat="59.0713983888" lon="30.0236029573"><ele>96.798</ele><time>2026-04-20T17:54:09.037Z</time><hdop>5.687</hdop><vdop>4.875</vdop><extensions><gom:speed>0.131</gom:speed></extensions></trkpt>
   <trkpt lat="59.0713966705" lon="30.0236094952"><ele>96.576</ele><time>2026-04-20T17:54:09.897Z</time><hdop>5.687</hdop><vdop>3.812</vdop><extensions><gom:speed>0.145</gom:speed></extensions></trkpt>
   <trkpt lat="59.0713935692" lon="30.0236198888"><ele>96.361</ele><time>2026-04-20T17:54:10.953Z</time><hdop>5.625</hdop><vdop>3.125</vdop><extensions><gom:speed>0.204</gom:speed></extensions></trkpt>
   <trkpt lat="59.0713897973" lon="30.0236368202"><ele>96.267</ele><time>2026-04-20T17:54:12.075Z</time><hdop>5.437</hdop><vdop>2.562</vdop><extensions><gom:speed>0.238</gom:speed></extensions></trkpt>
   <trkpt lat="59.0713863608" lon="30.0236491416"><ele>96.114</ele><time>2026-04-20T17:54:13.075Z</time><hdop>5.187</hdop><vdop>2.5</vdop><extensions><gom:speed>0.297</gom:speed></extensions></trkpt>
   <trkpt lat="59.0713853968" lon="30.0236523267"><ele>96.022</ele><time>2026-04-20T17:54:13.833Z</time><hdop>5.062</hdop><vdop>2.5</vdop><extensions><gom:speed>0.307</gom:speed></extensions></trkpt>
   <trkpt lat="59.0713804934" lon="30.0236658216"><ele>95.942</ele><time>2026-04-20T17:54:14.615Z</time><hdop>4.875</hdop><vdop>2.5</vdop><extensions><gom:speed>0.391</gom:speed></extensions></trkpt>
   <trkpt lat="59.0713781884" lon="30.0236725271"><ele>95.772</ele><time>2026-04-20T17:54:15.075Z</time><hdop>4.812</hdop><vdop>2.5</vdop><extensions><gom:speed>0.405</gom:speed></extensions></trkpt>
   <trkpt lat="59.0713726983" lon="30.0236835912"><ele>95.264</ele><time>2026-04-20T17:54:16.075Z</time><hdop>4.687</hdop><vdop>2.5</vdop><extensions><gom:speed>0.468</gom:speed></extensions></trkpt>
   <trkpt lat="59.0713662861" lon="30.0236947392"><ele>94.855</ele><time>2026-04-20T17:54:17.075Z</time><hdop>4.687</hdop><vdop>2.5</vdop><extensions><gom:speed>0.603</gom:speed></extensions></trkpt>
   <trkpt lat="59.0713585748" lon="30.0237040431"><ele>94.858</ele><time>2026-04-20T17:54:18.075Z</time><hdop>4.687</hdop><vdop>2.5</vdop><extensions><gom:speed>0.662</gom:speed></extensions></trkpt>
   <trkpt lat="59.0713512825" lon="30.023713347"><ele>94.978</ele><time>2026-04-20T17:54:19.075Z</time><hdop>4.75</hdop><vdop>2.5</vdop><extensions><gom:speed>0.684</gom:speed></extensions></trkpt>
   <trkpt lat="59.0713434873" lon="30.0237219804"><ele>95.248</ele><time>2026-04-20T17:54:20.075Z</time><hdop>4.75</hdop><vdop>2.5</vdop><extensions><gom:speed>0.689</gom:speed></extensions></trkpt>
   <trkpt lat="59.0713368656" lon="30.0237320386"><ele>95.555</ele><time>2026-04-20T17:54:21.075Z</time><hdop>4.75</hdop><vdop>2.5</vdop><extensions><gom:speed>0.629</gom:speed></extensions></trkpt>
   <trkpt lat="59.0713313755" lon="30.0237433542"><ele>95.669</ele><time>2026-04-20T17:54:22.075Z</time><hdop>4.687</hdop><vdop>2.5</vdop><extensions><gom:speed>0.607</gom:speed></extensions></trkpt>
   <trkpt lat="59.0713262625" lon="30.0237538316"><ele>95.642</ele><time>2026-04-20T17:54:23.075Z</time><hdop>4.687</hdop><vdop>2.5</vdop><extensions><gom:speed>0.628</gom:speed></extensions></trkpt>
   <trkpt lat="59.0713231612" lon="30.0237577711"><ele>95.625</ele><time>2026-04-20T17:54:23.637Z</time><hdop>4.687</hdop><vdop>2.5</vdop><extensions><gom:speed>0.618</gom:speed></extensions></trkpt>
   <trkpt lat="59.0713173777" lon="30.0237643928"><ele>95.546</ele><time>2026-04-20T17:54:24.773Z</time><hdop>4.625</hdop><vdop>2.5</vdop><extensions><gom:speed>0.559</gom:speed></extensions></trkpt>
   <trkpt lat="59.0713136897" lon="30.0237663206"><ele>95.366</ele><time>2026-04-20T17:54:25.681Z</time><hdop>4.562</hdop><vdop>2.5</vdop><extensions><gom:speed>0.501</gom:speed></extensions></trkpt>
   <trkpt lat="59.0713117618" lon="30.0237653986"><ele>95.365</ele><time>2026-04-20T17:54:26.152Z</time><hdop>4.562</hdop><vdop>2.5</vdop><extensions><gom:speed>0.505</gom:speed></extensions></trkpt>
   <trkpt lat="59.0713069841" lon="30.0237636384"><ele>95.586</ele><time>2026-04-20T17:54:27.076Z</time><hdop>4.5</hdop><vdop>2.5</vdop><extensions><gom:speed>0.481</gom:speed></extensions></trkpt>
   <trkpt lat="59.0713053916" lon="30.0237642251"><ele>95.717</ele><time>2026-04-20T17:54:27.655Z</time><hdop>4.437</hdop><vdop>2.5</vdop><extensions><gom:speed>0.412</gom:speed></extensions></trkpt>
   <trkpt lat="59.0713040924" lon="30.0237655662"><ele>95.651</ele><time>2026-04-20T17:54:28.320Z</time><hdop>4.437</hdop><vdop>2.5</vdop><extensions><gom:speed>0.398</gom:speed></extensions></trkpt>
   <trkpt lat="59.0713025836" lon="30.0237675779"><ele>95.602</ele><time>2026-04-20T17:54:29.075Z</time><hdop>4.375</hdop><vdop>2.5</vdop><extensions><gom:speed>0.36</gom:speed></extensions></trkpt>
   <trkpt lat="59.0713006977" lon="30.0237706792"><ele>95.809</ele><time>2026-04-20T17:54:30.075Z</time><hdop>4.375</hdop><vdop>2.5</vdop><extensions><gom:speed>0.356</gom:speed></extensions></trkpt>
   <trkpt lat="59.0712981831" lon="30.0237747863"><ele>95.93</ele><time>2026-04-20T17:54:31.075Z</time><hdop>4.375</hdop><vdop>2.5</vdop><extensions><gom:speed>0.423</gom:speed></extensions></trkpt>
   <trkpt lat="59.0712948723" lon="30.0237816595"><ele>96.178</ele><time>2026-04-20T17:54:32.075Z</time><hdop>4.375</hdop><vdop>2.5</vdop><extensions><gom:speed>0.496</gom:speed></extensions></trkpt>
   <trkpt lat="59.0712918967" lon="30.0237926398"><ele>96.119</ele><time>2026-04-20T17:54:33.075Z</time><hdop>4.437</hdop><vdop>2.5</vdop><extensions><gom:speed>0.485</gom:speed></extensions></trkpt>
   <trkpt lat="59.0712900946" lon="30.0237998482"><ele>96.214</ele><time>2026-04-20T17:54:34.075Z</time><hdop>4.437</hdop><vdop>2.5</vdop><extensions><gom:speed>0.5</gom:speed></extensions></trkpt>
   <trkpt lat="59.0712887954" lon="30.02381108"><ele>96.517</ele><time>2026-04-20T17:54:35.075Z</time><hdop>4.437</hdop><vdop>2.5</vdop><extensions><gom:speed>0.51</gom:speed></extensions></trkpt>
   <trkpt lat="59.0712880829" lon="30.0238245748"><ele>96.837</ele><time>2026-04-20T17:54:36.075Z</time><hdop>4.437</hdop><vdop>2.5</vdop><extensions><gom:speed>0.56</gom:speed></extensions></trkpt>
   <trkpt lat="59.0712877896" lon="30.0238376506"><ele>96.852</ele><time>2026-04-20T17:54:37.076Z</time><hdop>4.5</hdop><vdop>2.5</vdop><extensions><gom:speed>0.552</gom:speed></extensions></trkpt>
   <trkpt lat="59.0712868676" lon="30.0238484633"><ele>96.995</ele><time>2026-04-20T17:54:38.075Z</time><hdop>4.562</hdop><vdop>2.5</vdop><extensions><gom:speed>0.491</gom:speed></extensions></trkpt>
   <trkpt lat="59.0712862808" lon="30.0238536601"><ele>97.08</ele><time>2026-04-20T17:54:38.590Z</time><hdop>4.562</hdop><vdop>2.5</vdop><extensions><gom:speed>0.479</gom:speed></extensions></trkpt>
   <trkpt lat="59.0712850655" lon="30.0238655624"><ele>97.338</ele><time>2026-04-20T17:54:39.075Z</time><hdop>4.562</hdop><vdop>2.5</vdop><extensions><gom:speed>0.493</gom:speed></extensions></trkpt>
   <trkpt lat="59.0712848978" lon="30.023877297"><ele>97.349</ele><time>2026-04-20T17:54:40.075Z</time><hdop>4.625</hdop><vdop>2.5</vdop><extensions><gom:speed>0.503</gom:speed></extensions></trkpt>
   <trkpt lat="59.0712849816" lon="30.0238911272"><ele>97.197</ele><time>2026-04-20T17:54:41.075Z</time><hdop>4.625</hdop><vdop>2.5</vdop><extensions><gom:speed>0.52</gom:speed></extensions></trkpt>
   <trkpt lat="59.0712851912" lon="30.023906466"><ele>97.133</ele><time>2026-04-20T17:54:42.076Z</time><hdop>4.687</hdop><vdop>2.5</vdop><extensions><gom:speed>0.534</gom:speed></extensions></trkpt>
   <trkpt lat="59.0712844787" lon="30.0239224755"><ele>97.165</ele><time>2026-04-20T17:54:43.075Z</time><hdop>4.687</hdop><vdop>2.5</vdop><extensions><gom:speed>0.534</gom:speed></extensions></trkpt>
   <trkpt lat="59.0712819642" lon="30.0239381496"><ele>97.222</ele><time>2026-04-20T17:54:44.076Z</time><hdop>4.687</hdop><vdop>2.5</vdop><extensions><gom:speed>0.515</gom:speed></extensions></trkpt>
   <trkpt lat="59.0712808745" lon="30.023942592"><ele>97.255</ele><time>2026-04-20T17:54:44.750Z</time><hdop>4.687</hdop><vdop>2.5</vdop><extensions><gom:speed>0.489</gom:speed></extensions></trkpt>
   <trkpt lat="59.0712765997" lon="30.0239560869"><ele>97.353</ele><time>2026-04-20T17:54:45.334Z</time><hdop>4.625</hdop><vdop>2.5</vdop><extensions><gom:speed>0.506</gom:speed></extensions></trkpt>
   <trkpt lat="59.0712733727" lon="30.0239646364"><ele>97.465</ele><time>2026-04-20T17:54:46.075Z</time><hdop>4.625</hdop><vdop>2.5</vdop><extensions><gom:speed>0.506</gom:speed></extensions></trkpt>
   <trkpt lat="59.071270481" lon="30.0239717611"><ele>97.531</ele><time>2026-04-20T17:54:47.013Z</time><hdop>4.562</hdop><vdop>2.5</vdop><extensions><gom:speed>0.458</gom:speed></extensions></trkpt>
   <trkpt lat="59.0712666672" lon="30.0239857588"><ele>97.424</ele><time>2026-04-20T17:54:48.075Z</time><hdop>4.437</hdop><vdop>2.5</vdop><extensions><gom:speed>0.428</gom:speed></extensions></trkpt>
   <trkpt lat="59.0712631887" lon="30.0239950628"><ele>97.294</ele><time>2026-04-20T17:54:49.075Z</time><hdop>4.375</hdop><vdop>2.5</vdop><extensions><gom:speed>0.396</gom:speed></extensions></trkpt>
   <trkpt lat="59.0712612609" lon="30.0239988346"><ele>97.217</ele><time>2026-04-20T17:54:49.817Z</time><hdop>4.312</hdop><vdop>2.5</vdop><extensions><gom:speed>0.356</gom:speed></extensions></trkpt>
   <trkpt lat="59.0712592911" lon="30.0240019359"><ele>97.089</ele><time>2026-04-20T17:54:50.909Z</time><hdop>4.312</hdop><vdop>2.5</vdop><extensions><gom:speed>0.324</gom:speed></extensions></trkpt>
   <trkpt lat="59.071254262" lon="30.0240055401"><ele>96.734</ele><time>2026-04-20T17:54:52.038Z</time><hdop>4.312</hdop><vdop>2.5</vdop><extensions><gom:speed>0.228</gom:speed></extensions></trkpt>
   <trkpt lat="59.071250071" lon="30.0240136706"><ele>96.574</ele><time>2026-04-20T17:54:53.076Z</time><hdop>4.312</hdop><vdop>4.312</vdop><extensions><gom:speed>0.252</gom:speed></extensions></trkpt>
   <trkpt lat="59.0712490652" lon="30.024022723"><ele>96.597</ele><time>2026-04-20T17:54:54.075Z</time><hdop>4.312</hdop><vdop>4.312</vdop><extensions><gom:speed>0.291</gom:speed></extensions></trkpt>
   <trkpt lat="59.0712475984" lon="30.0240391516"><ele>96.722</ele><time>2026-04-20T17:54:55.055Z</time><hdop>4.375</hdop><vdop>4.25</vdop><extensions><gom:speed>0.526</gom:speed></extensions></trkpt>
   <trkpt lat="59.0712437846" lon="30.0240453542"><ele>96.686</ele><time>2026-04-20T17:54:56.075Z</time><hdop>4.437</hdop><vdop>4.125</vdop><extensions><gom:speed>0.389</gom:speed></extensions></trkpt>
   <trkpt lat="59.0712408928" lon="30.0240493775"><ele>96.665</ele><time>2026-04-20T17:54:57.042Z</time><hdop>4.687</hdop><vdop>4.125</vdop><extensions><gom:speed>0.398</gom:speed></extensions></trkpt>
   <trkpt lat="59.071237582" lon="30.0240565859"><ele>96.656</ele><time>2026-04-20T17:54:58.039Z</time><hdop>5.0</hdop><vdop>4.0</vdop><extensions><gom:speed>0.405</gom:speed></extensions></trkpt>
   <trkpt lat="59.0712336844" lon="30.0240632914"><ele>96.714</ele><time>2026-04-20T17:54:58.899Z</time><hdop>5.25</hdop><vdop>3.437</vdop><extensions><gom:speed>0.423</gom:speed></extensions></trkpt>
   <trkpt lat="59.0712270627" lon="30.0240740203"><ele>96.002</ele><time>2026-04-20T17:55:00.034Z</time><hdop>5.437</hdop><vdop>3.0</vdop><extensions><gom:speed>0.46</gom:speed></extensions></trkpt>
   <trkpt lat="59.0712189742" lon="30.0240893592"><ele>95.418</ele><time>2026-04-20T17:55:00.923Z</time><hdop>5.437</hdop><vdop>2.812</vdop><extensions><gom:speed>0.608</gom:speed></extensions></trkpt>
   <trkpt lat="59.071211179" lon="30.0241034408"><ele>95.084</ele><time>2026-04-20T17:55:02.076Z</time><hdop>5.437</hdop><vdop>2.5</vdop><extensions><gom:speed>0.554</gom:speed></extensions></trkpt>
   <trkpt lat="59.0712066947" lon="30.0241143372"><ele>94.682</ele><time>2026-04-20T17:55:03.075Z</time><hdop>5.25</hdop><vdop>2.5</vdop><extensions><gom:speed>0.498</gom:speed></extensions></trkpt>
   <trkpt lat="59.0712021684" lon="30.0241228868"><ele>94.289</ele><time>2026-04-20T17:55:04.076Z</time><hdop>5.062</hdop><vdop>2.5</vdop><extensions><gom:speed>0.406</gom:speed></extensions></trkpt>
   <trkpt lat="59.0711991929" lon="30.024123725"><ele>94.054</ele><time>2026-04-20T17:55:05.057Z</time><hdop>4.937</hdop><vdop>2.5</vdop><extensions><gom:speed>0.414</gom:speed></extensions></trkpt>
   <trkpt lat="59.0711937865" lon="30.0241257366"><ele>93.66</ele><time>2026-04-20T17:55:06.075Z</time><hdop>4.75</hdop><vdop>3.437</vdop><extensions><gom:speed>0.412</gom:speed></extensions></trkpt>
   <trkpt lat="59.0711911881" lon="30.0241233897"><ele>93.414</ele><time>2026-04-20T17:55:07.075Z</time><hdop>4.687</hdop><vdop>3.312</vdop><extensions><gom:speed>0.288</gom:speed></extensions></trkpt>
   <trkpt lat="59.071191272" lon="30.0241209589"><ele>93.377</ele><time>2026-04-20T17:55:08.076Z</time><hdop>4.562</hdop><vdop>3.25</vdop><extensions><gom:speed>0.198</gom:speed></extensions></trkpt>
   <trkpt lat="59.0711918587" lon="30.0241186958"><ele>93.44</ele><time>2026-04-20T17:55:09.075Z</time><hdop>4.437</hdop><vdop>3.375</vdop><extensions><gom:speed>0.15</gom:speed></extensions></trkpt>
   <trkpt lat="59.0711927807" lon="30.0241180253"><ele>93.522</ele><time>2026-04-20T17:55:09.980Z</time><hdop>4.187</hdop><vdop>3.562</vdop><extensions><gom:speed>0.095</gom:speed></extensions></trkpt>
   <trkpt lat="59.0711930741" lon="30.0241169356"><ele>93.574</ele><time>2026-04-20T17:55:11.075Z</time><hdop>4.187</hdop><vdop>3.75</vdop><extensions><gom:speed>0.066</gom:speed></extensions></trkpt>
   <trkpt lat="59.0711930741" lon="30.0241172709"><ele>93.531</ele><time>2026-04-20T17:55:11.994Z</time><hdop>4.125</hdop><vdop>3.937</vdop><extensions><gom:speed>0.081</gom:speed></extensions></trkpt>
   <trkpt lat="59.0711930741" lon="30.0241175224"><ele>93.484</ele><time>2026-04-20T17:55:12.942Z</time><hdop>4.125</hdop><vdop>4.062</vdop><extensions><gom:speed>0.074</gom:speed></extensions></trkpt>
   <trkpt lat="59.0711928645" lon="30.0241181929"><ele>93.461</ele><time>2026-04-20T17:55:14.008Z</time><hdop>4.187</hdop><vdop>4.062</vdop><extensions><gom:speed>0.073</gom:speed></extensions></trkpt>
   <trkpt lat="59.0711928645" lon="30.0241169356"><ele>93.423</ele><time>2026-04-20T17:55:15.075Z</time><hdop>4.25</hdop><vdop>4.187</vdop><extensions><gom:speed>0.072</gom:speed></extensions></trkpt>
   <trkpt lat="59.0711926969" lon="30.0241179415"><ele>93.401</ele><time>2026-04-20T17:55:15.666Z</time><hdop>4.312</hdop><vdop>4.187</vdop><extensions><gom:speed>0.032</gom:speed></extensions></trkpt>
   <trkpt lat="59.0711924873" lon="30.0241190311"><ele>93.39</ele><time>2026-04-20T17:55:16.969Z</time><hdop>4.562</hdop><vdop>4.062</vdop><extensions><gom:speed>0.065</gom:speed></extensions></trkpt>
   <trkpt lat="59.0711922778" lon="30.0241197855"><ele>93.451</ele><time>2026-04-20T17:55:18.036Z</time><hdop>4.687</hdop><vdop>4.125</vdop><extensions><gom:speed>0.071</gom:speed></extensions></trkpt>
   <trkpt lat="59.0711926969" lon="30.0241181929"><ele>93.489</ele><time>2026-04-20T17:55:18.984Z</time><hdop>4.75</hdop><vdop>4.187</vdop><extensions><gom:speed>0.061</gom:speed></extensions></trkpt>
   <trkpt lat="59.0711929903" lon="30.0241171871"><ele>93.529</ele><time>2026-04-20T17:55:20.050Z</time><hdop>4.937</hdop><vdop>4.375</vdop><extensions><gom:speed>0.098</gom:speed></extensions></trkpt>
   <trkpt lat="59.0711930741" lon="30.0241185282"><ele>93.61</ele><time>2026-04-20T17:55:20.997Z</time><hdop>5.062</hdop><vdop>4.375</vdop><extensions><gom:speed>0.086</gom:speed></extensions></trkpt>
   <trkpt lat="59.0711925712" lon="30.0241198693"><ele>93.658</ele><time>2026-04-20T17:55:21.944Z</time><hdop>5.125</hdop><vdop>4.375</vdop><extensions><gom:speed>0.082</gom:speed></extensions></trkpt>
   <trkpt lat="59.0711917749" lon="30.0241193664"><ele>93.713</ele><time>2026-04-20T17:55:23.075Z</time><hdop>5.187</hdop><vdop>4.312</vdop><extensions><gom:speed>0.037</gom:speed></extensions></trkpt>
   <trkpt lat="59.0711919844" lon="30.02411769"><ele>93.761</ele><time>2026-04-20T17:55:24.075Z</time><hdop>5.187</hdop><vdop>4.437</vdop><extensions><gom:speed>0.115</gom:speed></extensions></trkpt>
   <trkpt lat="59.0711919844" lon="30.0241142534"><ele>93.777</ele><time>2026-04-20T17:55:25.075Z</time><hdop>5.187</hdop><vdop>4.625</vdop><extensions><gom:speed>0.158</gom:speed></extensions></trkpt>
   <trkpt lat="59.0711915653" lon="30.0241106492"><ele>93.79</ele><time>2026-04-20T17:55:26.075Z</time><hdop>5.062</hdop><vdop>4.5</vdop><extensions><gom:speed>0.193</gom:speed></extensions></trkpt>
   <trkpt lat="59.0711903919" lon="30.0241081346"><ele>93.806</ele><time>2026-04-20T17:55:27.075Z</time><hdop>4.937</hdop><vdop>4.562</vdop><extensions><gom:speed>0.207</gom:speed></extensions></trkpt>
   <trkpt lat="59.0711890927" lon="30.0241073803"><ele>93.83</ele><time>2026-04-20T17:55:28.075Z</time><hdop>4.875</hdop><vdop>4.625</vdop><extensions><gom:speed>0.247</gom:speed></extensions></trkpt>
   <trkpt lat="59.0711880868" lon="30.0241095596"><ele>93.899</ele><time>2026-04-20T17:55:29.075Z</time><hdop>4.687</hdop><vdop>4.812</vdop><extensions><gom:speed>0.305</gom:speed></extensions></trkpt>
   <trkpt lat="59.0711878773" lon="30.0241121579"><ele>93.958</ele><time>2026-04-20T17:55:30.076Z</time><hdop>4.625</hdop><vdop>4.875</vdop><extensions><gom:speed>0.373</gom:speed></extensions></trkpt>
   <trkpt lat="59.0711872906" lon="30.024114924"><ele>94.014</ele><time>2026-04-20T17:55:31.075Z</time><hdop>4.562</hdop><vdop>4.875</vdop><extensions><gom:speed>0.417</gom:speed></extensions></trkpt>
   <trkpt lat="59.0711859914" lon="30.0241185282"><ele>94.07</ele><time>2026-04-20T17:55:32.075Z</time><hdop>4.562</hdop><vdop>4.875</vdop><extensions><gom:speed>0.549</gom:speed></extensions></trkpt>
   <trkpt lat="59.0711838959" lon="30.0241238926"><ele>94.129</ele><time>2026-04-20T17:55:33.075Z</time><hdop>4.625</hdop><vdop>5.125</vdop><extensions><gom:speed>0.636</gom:speed></extensions></trkpt>
   <trkpt lat="59.0711814651" lon="30.0241302629"><ele>94.195</ele><time>2026-04-20T17:55:34.075Z</time><hdop>4.875</hdop><vdop>5.062</vdop><extensions><gom:speed>0.725</gom:speed></extensions></trkpt>
   <trkpt lat="59.0711803755" lon="30.0241300952"><ele>94.956</ele><time>2026-04-20T17:55:35.075Z</time><hdop>5.125</hdop><vdop>3.687</vdop><extensions><gom:speed>0.511</gom:speed></extensions></trkpt>
   <trkpt lat="59.0711799983" lon="30.0241263234"><ele>96.405</ele><time>2026-04-20T17:55:36.075Z</time><hdop>5.25</hdop><vdop>3.125</vdop><extensions><gom:speed>0.388</gom:speed></extensions></trkpt>
   <trkpt lat="59.0711790763" lon="30.024124647"><ele>97.446</ele><time>2026-04-20T17:55:37.075Z</time><hdop>5.312</hdop><vdop>2.812</vdop><extensions><gom:speed>0.348</gom:speed></extensions></trkpt>
   <trkpt lat="59.0711778609" lon="30.0241239764"><ele>98.469</ele><time>2026-04-20T17:55:38.075Z</time><hdop>5.375</hdop><vdop>2.687</vdop><extensions><gom:speed>0.339</gom:speed></extensions></trkpt>
   <trkpt lat="59.0711763941" lon="30.0241240602"><ele>99.008</ele><time>2026-04-20T17:55:39.075Z</time><hdop>5.25</hdop><vdop>2.5</vdop><extensions><gom:speed>0.323</gom:speed></extensions></trkpt>
   <trkpt lat="59.071174592" lon="30.0241241441"><ele>99.219</ele><time>2026-04-20T17:55:40.075Z</time><hdop>5.187</hdop><vdop>2.5</vdop><extensions><gom:speed>0.33</gom:speed></extensions></trkpt>
   <trkpt lat="59.0711724965" lon="30.024125569"><ele>99.428</ele><time>2026-04-20T17:55:41.075Z</time><hdop>5.187</hdop><vdop>6.187</vdop><extensions><gom:speed>0.307</gom:speed></extensions></trkpt>
   <trkpt lat="59.0711710716" lon="30.0241263234"><ele>99.618</ele><time>2026-04-20T17:55:42.075Z</time><hdop>5.25</hdop><vdop>6.062</vdop><extensions><gom:speed>0.316</gom:speed></extensions></trkpt>
   <trkpt lat="59.0711690599" lon="30.0241267425"><ele>99.47</ele><time>2026-04-20T17:55:43.075Z</time><hdop>5.312</hdop><vdop>6.0</vdop><extensions><gom:speed>0.35</gom:speed></extensions></trkpt>
   <trkpt lat="59.0711667968" lon="30.0241274968"><ele>99.353</ele><time>2026-04-20T17:55:44.075Z</time><hdop>5.375</hdop><vdop>6.312</vdop><extensions><gom:speed>0.358</gom:speed></extensions></trkpt>
   <trkpt lat="59.0711649947" lon="30.0241288379"><ele>99.289</ele><time>2026-04-20T17:55:45.075Z</time><hdop>5.5</hdop><vdop>6.187</vdop><extensions><gom:speed>0.339</gom:speed></extensions></trkpt>
   <trkpt lat="59.0711637793" lon="30.0241307658"><ele>99.143</ele><time>2026-04-20T17:55:46.075Z</time><hdop>5.625</hdop><vdop>6.125</vdop><extensions><gom:speed>0.32</gom:speed></extensions></trkpt>
   <trkpt lat="59.071163486" lon="30.0241305981"><ele>99.055</ele><time>2026-04-20T17:55:46.701Z</time><hdop>5.687</hdop><vdop>6.125</vdop><extensions><gom:speed>0.319</gom:speed></extensions></trkpt>
   <trkpt lat="59.071160678" lon="30.024132526"><ele>98.844</ele><time>2026-04-20T17:55:48.075Z</time><hdop>5.812</hdop><vdop>6.0</vdop><extensions><gom:speed>0.337</gom:speed></extensions></trkpt>
   <trkpt lat="59.0711591693" lon="30.0241329451"><ele>98.684</ele><time>2026-04-20T17:55:49.075Z</time><hdop>5.875</hdop><vdop>5.812</vdop><extensions><gom:speed>0.297</gom:speed></extensions></trkpt>
   <trkpt lat="59.0711578701" lon="30.0241330289"><ele>98.489</ele><time>2026-04-20T17:55:50.076Z</time><hdop>5.875</hdop><vdop>5.812</vdop><extensions><gom:speed>0.27</gom:speed></extensions></trkpt>
   <trkpt lat="59.07115699" lon="30.02413437"><ele>98.423</ele><time>2026-04-20T17:55:51.075Z</time><hdop>5.812</hdop><vdop>5.562</vdop><extensions><gom:speed>0.249</gom:speed></extensions></trkpt>
   <trkpt lat="59.0711559842" lon="30.0241349567"><ele>98.413</ele><time>2026-04-20T17:55:52.075Z</time><hdop>5.812</hdop><vdop>5.562</vdop><extensions><gom:speed>0.23</gom:speed></extensions></trkpt>
   <trkpt lat="59.0711558584" lon="30.0241348729"><ele>98.408</ele><time>2026-04-20T17:55:52.861Z</time><hdop>5.875</hdop><vdop>5.562</vdop><extensions><gom:speed>0.229</gom:speed></extensions></trkpt>
   <trkpt lat="59.0711525895" lon="30.0241367169"><ele>98.193</ele><time>2026-04-20T17:55:54.075Z</time><hdop>5.812</hdop><vdop>5.312</vdop><extensions><gom:speed>0.264</gom:speed></extensions></trkpt>
   <trkpt lat="59.0711517932" lon="30.0241386448"><ele>97.929</ele><time>2026-04-20T17:55:55.075Z</time><hdop>5.812</hdop><vdop>5.187</vdop><extensions><gom:speed>0.258</gom:speed></extensions></trkpt>
   <trkpt lat="59.0711503683" lon="30.0241404888"><ele>97.729</ele><time>2026-04-20T17:55:56.075Z</time><hdop>5.812</hdop><vdop>5.187</vdop><extensions><gom:speed>0.333</gom:speed></extensions></trkpt>
   <trkpt lat="59.0711493625" lon="30.0241427519"><ele>97.586</ele><time>2026-04-20T17:55:57.075Z</time><hdop>5.75</hdop><vdop>5.25</vdop><extensions><gom:speed>0.343</gom:speed></extensions></trkpt>
   <trkpt lat="59.0711485662" lon="30.0241443445"><ele>97.398</ele><time>2026-04-20T17:55:58.075Z</time><hdop>5.75</hdop><vdop>5.312</vdop><extensions><gom:speed>0.335</gom:speed></extensions></trkpt>
   <trkpt lat="59.0711478956" lon="30.0241461885"><ele>97.254</ele><time>2026-04-20T17:55:59.075Z</time><hdop>5.75</hdop><vdop>5.375</vdop><extensions><gom:speed>0.309</gom:speed></extensions></trkpt>
   <trkpt lat="59.0711476861" lon="30.0241486192"><ele>97.047</ele><time>2026-04-20T17:56:00.076Z</time><hdop>5.75</hdop><vdop>5.437</vdop><extensions><gom:speed>0.328</gom:speed></extensions></trkpt>
   <trkpt lat="59.0711480633" lon="30.0241511338"><ele>96.892</ele><time>2026-04-20T17:56:01.075Z</time><hdop>5.75</hdop><vdop>5.312</vdop><extensions><gom:speed>0.347</gom:speed></extensions></trkpt>
   <trkpt lat="59.0711498654" lon="30.0241521396"><ele>96.769</ele><time>2026-04-20T17:56:02.075Z</time><hdop>5.687</hdop><vdop>5.375</vdop><extensions><gom:speed>0.33</gom:speed></extensions></trkpt>
   <trkpt lat="59.0711512903" lon="30.0241512176"><ele>96.658</ele><time>2026-04-20T17:56:03.075Z</time><hdop>5.625</hdop><vdop>5.312</vdop><extensions><gom:speed>0.369</gom:speed></extensions></trkpt>
   <trkpt lat="59.0711524638" lon="30.0241513853"><ele>96.673</ele><time>2026-04-20T17:56:04.075Z</time><hdop>5.562</hdop><vdop>5.25</vdop><extensions><gom:speed>0.366</gom:speed></extensions></trkpt>
   <trkpt lat="59.0711536791" lon="30.0241503794"><ele>96.697</ele><time>2026-04-20T17:56:05.075Z</time><hdop>5.437</hdop><vdop>5.187</vdop><extensions><gom:speed>0.346</gom:speed></extensions></trkpt>
   <trkpt lat="59.0711548945" lon="30.0241485354"><ele>96.728</ele><time>2026-04-20T17:56:06.075Z</time><hdop>5.375</hdop><vdop>5.187</vdop><extensions><gom:speed>0.363</gom:speed></extensions></trkpt>
   <trkpt lat="59.0711562775" lon="30.0241480325"><ele>96.752</ele><time>2026-04-20T17:56:07.075Z</time><hdop>5.25</hdop><vdop>5.125</vdop><extensions><gom:speed>0.402</gom:speed></extensions></trkpt>
   <trkpt lat="59.0711577863" lon="30.0241472781"><ele>96.787</ele><time>2026-04-20T17:56:08.076Z</time><hdop>5.187</hdop><vdop>5.25</vdop><extensions><gom:speed>0.37</gom:speed></extensions></trkpt>
   <trkpt lat="59.0711591693" lon="30.0241465237"><ele>96.808</ele><time>2026-04-20T17:56:09.075Z</time><hdop>5.187</hdop><vdop>5.312</vdop><extensions><gom:speed>0.367</gom:speed></extensions></trkpt>
   <trkpt lat="59.071160678" lon="30.0241453503"><ele>96.83</ele><time>2026-04-20T17:56:10.075Z</time><hdop>5.25</hdop><vdop>5.437</vdop><extensions><gom:speed>0.35</gom:speed></extensions></trkpt>
   <trkpt lat="59.0711621868" lon="30.0241432548"><ele>96.841</ele><time>2026-04-20T17:56:11.075Z</time><hdop>5.312</hdop><vdop>5.562</vdop><extensions><gom:speed>0.365</gom:speed></extensions></trkpt>
   <trkpt lat="59.0711636955" lon="30.0241421652"><ele>96.859</ele><time>2026-04-20T17:56:12.075Z</time><hdop>5.437</hdop><vdop>5.625</vdop><extensions><gom:speed>0.372</gom:speed></extensions></trkpt>
   <trkpt lat="59.0711647852" lon="30.0241414946"><ele>96.878</ele><time>2026-04-20T17:56:13.075Z</time><hdop>5.5</hdop><vdop>5.687</vdop><extensions><gom:speed>0.371</gom:speed></extensions></trkpt>
   <trkpt lat="59.0711662939" lon="30.0241410755"><ele>96.903</ele><time>2026-04-20T17:56:14.075Z</time><hdop>5.625</hdop><vdop>5.437</vdop><extensions><gom:speed>0.344</gom:speed></extensions></trkpt>
   <trkpt lat="59.0711674674" lon="30.0241398182"><ele>96.92</ele><time>2026-04-20T17:56:15.075Z</time><hdop>5.687</hdop><vdop>5.312</vdop><extensions><gom:speed>0.318</gom:speed></extensions></trkpt>
   <trkpt lat="59.0711686827" lon="30.024138058"><ele>96.979</ele><time>2026-04-20T17:56:16.076Z</time><hdop>5.812</hdop><vdop>5.125</vdop><extensions><gom:speed>0.302</gom:speed></extensions></trkpt>
   <trkpt lat="59.0711696886" lon="30.0241364655"><ele>97.01</ele><time>2026-04-20T17:56:17.075Z</time><hdop>5.875</hdop><vdop>5.062</vdop><extensions><gom:speed>0.284</gom:speed></extensions></trkpt>
   <trkpt lat="59.0711695628" lon="30.0241362978"><ele>97.028</ele><time>2026-04-20T17:56:17.618Z</time><hdop>5.875</hdop><vdop>5.062</vdop><extensions><gom:speed>0.284</gom:speed></extensions></trkpt>
   <trkpt lat="59.0711706944" lon="30.0241347891"><ele>97.075</ele><time>2026-04-20T17:56:18.076Z</time><hdop>5.937</hdop><vdop>5.0</vdop><extensions><gom:speed>0.261</gom:speed></extensions></trkpt>
   <trkpt lat="59.0711709878" lon="30.0241332803"><ele>97.097</ele><time>2026-04-20T17:56:19.076Z</time><hdop>5.937</hdop><vdop>4.937</vdop><extensions><gom:speed>0.246</gom:speed></extensions></trkpt>
   <trkpt lat="59.0711710716" lon="30.0241320231"><ele>97.13</ele><time>2026-04-20T17:56:20.076Z</time><hdop>5.937</hdop><vdop>4.812</vdop><extensions><gom:speed>0.247</gom:speed></extensions></trkpt>
   <trkpt lat="59.0711714907" lon="30.0241311849"><ele>97.159</ele><time>2026-04-20T17:56:21.075Z</time><hdop>5.875</hdop><vdop>4.937</vdop><extensions><gom:speed>0.243</gom:speed></extensions></trkpt>
   <trkpt lat="59.0711718679" lon="30.0241305981"><ele>97.177</ele><time>2026-04-20T17:56:22.075Z</time><hdop>5.812</hdop><vdop>4.875</vdop><extensions><gom:speed>0.235</gom:speed></extensions></trkpt>
   <trkpt lat="59.0711720774" lon="30.0241310172"><ele>97.193</ele><time>2026-04-20T17:56:23.075Z</time><hdop>5.75</hdop><vdop>4.812</vdop><extensions><gom:speed>0.241</gom:speed></extensions></trkpt>
   <trkpt lat="59.0711719936" lon="30.0241312687"><ele>97.202</ele><time>2026-04-20T17:56:23.779Z</time><hdop>5.75</hdop><vdop>4.812</vdop><extensions><gom:speed>0.243</gom:speed></extensions></trkpt>
   <trkpt lat="59.0711724965" lon="30.0241323583"><ele>97.223</ele><time>2026-04-20T17:56:25.075Z</time><hdop>5.687</hdop><vdop>4.875</vdop><extensions><gom:speed>0.255</gom:speed></extensions></trkpt>
   <trkpt lat="59.0711726641" lon="30.0241318554"><ele>97.273</ele><time>2026-04-20T17:56:26.075Z</time><hdop>5.687</hdop><vdop>5.062</vdop><extensions><gom:speed>0.28</gom:speed></extensions></trkpt>
   <trkpt lat="59.0711730832" lon="30.0241316878"><ele>97.31</ele><time>2026-04-20T17:56:27.075Z</time><hdop>5.687</hdop><vdop>5.312</vdop><extensions><gom:speed>0.324</gom:speed></extensions></trkpt>
   <trkpt lat="59.0711737957" lon="30.0241309334"><ele>97.306</ele><time>2026-04-20T17:56:28.075Z</time><hdop>5.687</hdop><vdop>5.312</vdop><extensions><gom:speed>0.316</gom:speed></extensions></trkpt>
   <trkpt lat="59.0711742986" lon="30.0241300952"><ele>97.319</ele><time>2026-04-20T17:56:29.075Z</time><hdop>5.687</hdop><vdop>5.5</vdop><extensions><gom:speed>0.317</gom:speed></extensions></trkpt>
   <trkpt lat="59.071174592" lon="30.0241294247"><ele>97.31</ele><time>2026-04-20T17:56:30.075Z</time><hdop>5.812</hdop><vdop>5.562</vdop><extensions><gom:speed>0.31</gom:speed></extensions></trkpt>
   <trkpt lat="59.0711750949" lon="30.0241286703"><ele>97.313</ele><time>2026-04-20T17:56:31.076Z</time><hdop>5.875</hdop><vdop>5.625</vdop><extensions><gom:speed>0.329</gom:speed></extensions></trkpt>
   <trkpt lat="59.0711756816" lon="30.0241281674"><ele>97.295</ele><time>2026-04-20T17:56:32.075Z</time><hdop>6.0</hdop><vdop>5.75</vdop><extensions><gom:speed>0.318</gom:speed></extensions></trkpt>
   <trkpt lat="59.0711754721" lon="30.0241271616"><ele>97.284</ele><time>2026-04-20T17:56:33.075Z</time><hdop>6.125</hdop><vdop>5.625</vdop><extensions><gom:speed>0.291</gom:speed></extensions></trkpt>
   <trkpt lat="59.0711757654" lon="30.0241249823"><ele>97.283</ele><time>2026-04-20T17:56:34.075Z</time><hdop>6.187</hdop><vdop>5.375</vdop><extensions><gom:speed>0.286</gom:speed></extensions></trkpt>
   <trkpt lat="59.0711760588" lon="30.0241243955"><ele>97.283</ele><time>2026-04-20T17:56:35.075Z</time><hdop>6.25</hdop><vdop>5.312</vdop><extensions><gom:speed>0.284</gom:speed></extensions></trkpt>
   <trkpt lat="59.0711760588" lon="30.0241240602"><ele>97.285</ele><time>2026-04-20T17:56:36.075Z</time><hdop>6.25</hdop><vdop>5.187</vdop><extensions><gom:speed>0.303</gom:speed></extensions></trkpt>
   <trkpt lat="59.071175975" lon="30.0241239764"><ele>97.286</ele><time>2026-04-20T17:56:36.571Z</time><hdop>6.312</hdop><vdop>5.187</vdop><extensions><gom:speed>0.303</gom:speed></extensions></trkpt>
   <trkpt lat="59.0711764779" lon="30.0241240602"><ele>97.292</ele><time>2026-04-20T17:56:37.075Z</time><hdop>6.312</hdop><vdop>5.187</vdop><extensions><gom:speed>0.307</gom:speed></extensions></trkpt>
   <trkpt lat="59.0711771904" lon="30.0241232221"><ele>97.268</ele><time>2026-04-20T17:56:38.075Z</time><hdop>6.312</hdop><vdop>5.125</vdop><extensions><gom:speed>0.289</gom:speed></extensions></trkpt>
   <trkpt lat="59.0711770646" lon="30.0241230544"><ele>97.253</ele><time>2026-04-20T17:56:39.075Z</time><hdop>6.312</hdop><vdop>5.187</vdop><extensions><gom:speed>0.27</gom:speed></extensions></trkpt>
   <trkpt lat="59.0711767713" lon="30.0241229706"><ele>97.231</ele><time>2026-04-20T17:56:40.075Z</time><hdop>6.312</hdop><vdop>5.375</vdop><extensions><gom:speed>0.278</gom:speed></extensions></trkpt>
   <trkpt lat="59.0711763941" lon="30.0241233897"><ele>97.219</ele><time>2026-04-20T17:56:41.075Z</time><hdop>6.312</hdop><vdop>5.25</vdop><extensions><gom:speed>0.28</gom:speed></extensions></trkpt>
   <trkpt lat="59.0711758912" lon="30.0241238926"><ele>97.212</ele><time>2026-04-20T17:56:42.075Z</time><hdop>6.312</hdop><vdop>5.187</vdop><extensions><gom:speed>0.257</gom:speed></extensions></trkpt>
   <trkpt lat="59.0711756816" lon="30.0241236412"><ele>97.208</ele><time>2026-04-20T17:56:42.731Z</time><hdop>6.312</hdop><vdop>5.187</vdop><extensions><gom:speed>0.257</gom:speed></extensions></trkpt>
   <trkpt lat="59.0711750949" lon="30.0241247308"><ele>97.212</ele><time>2026-04-20T17:56:44.075Z</time><hdop>6.25</hdop><vdop>5.0</vdop><extensions><gom:speed>0.238</gom:speed></extensions></trkpt>
   <trkpt lat="59.0711751787" lon="30.0241239764"><ele>97.214</ele><time>2026-04-20T17:56:45.075Z</time><hdop>6.25</hdop><vdop>5.062</vdop><extensions><gom:speed>0.25</gom:speed></extensions></trkpt>
   <trkpt lat="59.0711751787" lon="30.0241232221"><ele>97.215</ele><time>2026-04-20T17:56:46.075Z</time><hdop>6.187</hdop><vdop>5.187</vdop><extensions><gom:speed>0.252</gom:speed></extensions></trkpt>
   <trkpt lat="59.0711750949" lon="30.0241232221"><ele>97.215</ele><time>2026-04-20T17:56:47.075Z</time><hdop>6.125</hdop><vdop>5.437</vdop><extensions><gom:speed>0.263</gom:speed></extensions></trkpt>
   <trkpt lat="59.0711761845" lon="30.0241239764"><ele>97.214</ele><time>2026-04-20T17:56:48.075Z</time><hdop>6.125</hdop><vdop>5.687</vdop><extensions><gom:speed>0.285</gom:speed></extensions></trkpt>
   <trkpt lat="59.0711762684" lon="30.0241238926"><ele>97.214</ele><time>2026-04-20T17:56:49.009Z</time><hdop>6.25</hdop><vdop>5.687</vdop><extensions><gom:speed>0.285</gom:speed></extensions></trkpt>
   <trkpt lat="59.0711761845" lon="30.0241236412"><ele>97.212</ele><time>2026-04-20T17:56:50.075Z</time><hdop>6.312</hdop><vdop>6.062</vdop><extensions><gom:speed>0.313</gom:speed></extensions></trkpt>
   <trkpt lat="59.071175975" lon="30.0241234735"><ele>97.212</ele><time>2026-04-20T17:56:51.076Z</time><hdop>6.375</hdop><vdop>5.937</vdop><extensions><gom:speed>0.291</gom:speed></extensions></trkpt>
   <trkpt lat="59.0711756816" lon="30.0241230544"><ele>97.214</ele><time>2026-04-20T17:56:52.076Z</time><hdop>6.437</hdop><vdop>5.75</vdop><extensions><gom:speed>0.289</gom:speed></extensions></trkpt>
   <trkpt lat="59.0711755978" lon="30.0241224677"><ele>97.216</ele><time>2026-04-20T17:56:53.075Z</time><hdop>6.5</hdop><vdop>5.625</vdop><extensions><gom:speed>0.3</gom:speed></extensions></trkpt>
   <trkpt lat="59.0711751787" lon="30.0241223839"><ele>97.219</ele><time>2026-04-20T17:56:54.075Z</time><hdop>6.562</hdop><vdop>5.5</vdop><extensions><gom:speed>0.301</gom:speed></extensions></trkpt>
   <trkpt lat="59.0711748853" lon="30.0241222162"><ele>97.225</ele><time>2026-04-20T17:56:55.075Z</time><hdop>6.562</hdop><vdop>5.25</vdop><extensions><gom:speed>0.279</gom:speed></extensions></trkpt>
   <trkpt lat="59.0711746758" lon="30.0241220486"><ele>97.23</ele><time>2026-04-20T17:56:56.075Z</time><hdop>6.562</hdop><vdop>5.125</vdop><extensions><gom:speed>0.275</gom:speed></extensions></trkpt>
   <trkpt lat="59.0711747596" lon="30.0241214619"><ele>97.233</ele><time>2026-04-20T17:56:57.075Z</time><hdop>6.562</hdop><vdop>5.0</vdop><extensions><gom:speed>0.267</gom:speed></extensions></trkpt>
   <trkpt lat="59.0711742986" lon="30.0241212942"><ele>97.235</ele><time>2026-04-20T17:56:58.075Z</time><hdop>6.562</hdop><vdop>4.75</vdop><extensions><gom:speed>0.256</gom:speed></extensions></trkpt>
   <trkpt lat="59.0711741729" lon="30.0241205398"><ele>97.239</ele><time>2026-04-20T17:56:59.075Z</time><hdop>6.5</hdop><vdop>4.625</vdop><extensions><gom:speed>0.25</gom:speed></extensions></trkpt>
   <trkpt lat="59.0711740891" lon="30.0241199531"><ele>97.24</ele><time>2026-04-20T17:57:00.075Z</time><hdop>6.437</hdop><vdop>4.375</vdop><extensions><gom:speed>0.256</gom:speed></extensions></trkpt>
   <trkpt lat="59.0711739633" lon="30.0241191987"><ele>97.25</ele><time>2026-04-20T17:57:01.075Z</time><hdop>6.437</hdop><vdop>4.312</vdop><extensions><gom:speed>0.262</gom:speed></extensions></trkpt>
   <trkpt lat="59.07117367" lon="30.0241192826"><ele>97.256</ele><time>2026-04-20T17:57:02.075Z</time><hdop>6.375</hdop><vdop>4.187</vdop><extensions><gom:speed>0.252</gom:speed></extensions></trkpt>
   <trkpt lat="59.0711734604" lon="30.0241184444"><ele>97.259</ele><time>2026-04-20T17:57:03.075Z</time><hdop>6.375</hdop><vdop>4.312</vdop><extensions><gom:speed>0.25</gom:speed></extensions></trkpt>
   <trkpt lat="59.0711733766" lon="30.0241177738"><ele>97.263</ele><time>2026-04-20T17:57:04.075Z</time><hdop>6.375</hdop><vdop>4.437</vdop><extensions><gom:speed>0.239</gom:speed></extensions></trkpt>
   <trkpt lat="59.0711731671" lon="30.0241171871"><ele>97.264</ele><time>2026-04-20T17:57:05.075Z</time><hdop>6.375</hdop><vdop>4.562</vdop><extensions><gom:speed>0.263</gom:speed></extensions></trkpt>
   <trkpt lat="59.0711730832" lon="30.0241170194"><ele>97.269</ele><time>2026-04-20T17:57:06.075Z</time><hdop>6.375</hdop><vdop>4.75</vdop><extensions><gom:speed>0.26</gom:speed></extensions></trkpt>
   <trkpt lat="59.0711728737" lon="30.0241160974"><ele>97.272</ele><time>2026-04-20T17:57:07.075Z</time><hdop>6.375</hdop><vdop>4.937</vdop><extensions><gom:speed>0.263</gom:speed></extensions></trkpt>
   <trkpt lat="59.0711726641" lon="30.0241160974"><ele>97.275</ele><time>2026-04-20T17:57:08.076Z</time><hdop>6.437</hdop><vdop>5.125</vdop><extensions><gom:speed>0.268</gom:speed></extensions></trkpt>
   <trkpt lat="59.0711724965" lon="30.0241161813"><ele>97.279</ele><time>2026-04-20T17:57:09.075Z</time><hdop>6.437</hdop><vdop>5.125</vdop><extensions><gom:speed>0.281</gom:speed></extensions></trkpt>
   <trkpt lat="59.071172287" lon="30.0241169356"><ele>97.283</ele><time>2026-04-20T17:57:10.075Z</time><hdop>6.437</hdop><vdop>5.0</vdop><extensions><gom:speed>0.297</gom:speed></extensions></trkpt>
   <trkpt lat="59.0711721612" lon="30.0241168518"><ele>97.288</ele><time>2026-04-20T17:57:11.075Z</time><hdop>6.437</hdop><vdop>4.875</vdop><extensions><gom:speed>0.291</gom:speed></extensions></trkpt>
   <trkpt lat="59.0711720774" lon="30.0241172709"><ele>97.293</ele><time>2026-04-20T17:57:12.075Z</time><hdop>6.437</hdop><vdop>4.625</vdop><extensions><gom:speed>0.304</gom:speed></extensions></trkpt>
   <trkpt lat="59.0711719936" lon="30.0241175224"><ele>97.295</ele><time>2026-04-20T17:57:13.075Z</time><hdop>6.437</hdop><vdop>4.562</vdop><extensions><gom:speed>0.321</gom:speed></extensions></trkpt>
   <trkpt lat="59.0711720774" lon="30.0241165165"><ele>97.297</ele><time>2026-04-20T17:57:13.766Z</time><hdop>6.437</hdop><vdop>4.562</vdop><extensions><gom:speed>0.323</gom:speed></extensions></trkpt>
   <trkpt lat="59.0711719936" lon="30.0241178576"><ele>97.296</ele><time>2026-04-20T17:57:15.075Z</time><hdop>6.5</hdop><vdop>4.437</vdop><extensions><gom:speed>0.362</gom:speed></extensions></trkpt>
   <trkpt lat="59.0711718679" lon="30.0241180253"><ele>97.298</ele><time>2026-04-20T17:57:16.075Z</time><hdop>6.5</hdop><vdop>4.5</vdop><extensions><gom:speed>0.369</gom:speed></extensions></trkpt>
   <trkpt lat="59.0711715745" lon="30.0241178576"><ele>97.302</ele><time>2026-04-20T17:57:17.075Z</time><hdop>6.562</hdop><vdop>4.375</vdop><extensions><gom:speed>0.368</gom:speed></extensions></trkpt>
   <trkpt lat="59.0711713649" lon="30.02411769"><ele>97.307</ele><time>2026-04-20T17:57:18.076Z</time><hdop>6.625</hdop><vdop>4.687</vdop><extensions><gom:speed>0.336</gom:speed></extensions></trkpt>
   <trkpt lat="59.0711709878" lon="30.0241168518"><ele>97.312</ele><time>2026-04-20T17:57:19.075Z</time><hdop>6.687</hdop><vdop>4.562</vdop><extensions><gom:speed>0.331</gom:speed></extensions></trkpt>
   <trkpt lat="59.071170862" lon="30.0241153431"><ele>97.315</ele><time>2026-04-20T17:57:19.926Z</time><hdop>6.812</hdop><vdop>4.562</vdop><extensions><gom:speed>0.331</gom:speed></extensions></trkpt>
   <trkpt lat="59.071170862" lon="30.0241165165"><ele>97.318</ele><time>2026-04-20T17:57:21.075Z</time><hdop>7.0</hdop><vdop>4.562</vdop><extensions><gom:speed>0.283</gom:speed></extensions></trkpt>
   <trkpt lat="59.0711707782" lon="30.0241162651"><ele>97.323</ele><time>2026-04-20T17:57:22.075Z</time><hdop>7.0</hdop><vdop>4.625</vdop><extensions><gom:speed>0.283</gom:speed></extensions></trkpt>
   <trkpt lat="59.071170862" lon="30.0241169356"><ele>97.333</ele><time>2026-04-20T17:57:23.075Z</time><hdop>7.062</hdop><vdop>4.75</vdop><extensions><gom:speed>0.305</gom:speed></extensions></trkpt>
   <trkpt lat="59.0711705687" lon="30.0241175224"><ele>97.338</ele><time>2026-04-20T17:57:24.075Z</time><hdop>7.0</hdop><vdop>4.937</vdop><extensions><gom:speed>0.308</gom:speed></extensions></trkpt>
   <trkpt lat="59.0711702753" lon="30.0241179415"><ele>97.341</ele><time>2026-04-20T17:57:25.075Z</time><hdop>7.062</hdop><vdop>5.062</vdop><extensions><gom:speed>0.332</gom:speed></extensions></trkpt>
   <trkpt lat="59.0711698981" lon="30.0241183606"><ele>97.341</ele><time>2026-04-20T17:57:26.075Z</time><hdop>7.062</hdop><vdop>5.062</vdop><extensions><gom:speed>0.329</gom:speed></extensions></trkpt>
   <trkpt lat="59.0711688923" lon="30.0241189473"><ele>97.342</ele><time>2026-04-20T17:57:27.075Z</time><hdop>7.125</hdop><vdop>5.0</vdop><extensions><gom:speed>0.311</gom:speed></extensions></trkpt>
   <trkpt lat="59.0711678865" lon="30.0241177738"><ele>97.342</ele><time>2026-04-20T17:57:28.075Z</time><hdop>7.187</hdop><vdop>5.062</vdop><extensions><gom:speed>0.311</gom:speed></extensions></trkpt>
   <trkpt lat="59.0711676769" lon="30.0241166842"><ele>97.342</ele><time>2026-04-20T17:57:29.076Z</time><hdop>7.187</hdop><vdop>5.0</vdop><extensions><gom:speed>0.303</gom:speed></extensions></trkpt>
   <trkpt lat="59.0711675931" lon="30.0241166842"><ele>97.343</ele><time>2026-04-20T17:57:30.075Z</time><hdop>7.25</hdop><vdop>4.875</vdop><extensions><gom:speed>0.29</gom:speed></extensions></trkpt>
   <trkpt lat="59.0711678865" lon="30.0241170194"><ele>97.347</ele><time>2026-04-20T17:57:31.075Z</time><hdop>7.25</hdop><vdop>4.875</vdop><extensions><gom:speed>0.295</gom:speed></extensions></trkpt>
   <trkpt lat="59.0711676769" lon="30.0241175224"><ele>97.348</ele><time>2026-04-20T17:57:32.075Z</time><hdop>7.25</hdop><vdop>5.25</vdop><extensions><gom:speed>0.329</gom:speed></extensions></trkpt>
   <trkpt lat="59.0711672997" lon="30.0241187796"><ele>97.349</ele><time>2026-04-20T17:57:33.076Z</time><hdop>7.312</hdop><vdop>5.437</vdop><extensions><gom:speed>0.304</gom:speed></extensions></trkpt>
   <trkpt lat="59.071167174" lon="30.0241189473"><ele>97.352</ele><time>2026-04-20T17:57:34.075Z</time><hdop>7.312</hdop><vdop>5.625</vdop><extensions><gom:speed>0.304</gom:speed></extensions></trkpt>
   <trkpt lat="59.0711666711" lon="30.0241182767"><ele>97.355</ele><time>2026-04-20T17:57:35.075Z</time><hdop>7.312</hdop><vdop>5.375</vdop><extensions><gom:speed>0.315</gom:speed></extensions></trkpt>
   <trkpt lat="59.071165791" lon="30.0241184444"><ele>97.359</ele><time>2026-04-20T17:57:36.075Z</time><hdop>7.375</hdop><vdop>5.25</vdop><extensions><gom:speed>0.316</gom:speed></extensions></trkpt>
   <trkpt lat="59.0711650785" lon="30.0241182767"><ele>97.363</ele><time>2026-04-20T17:57:37.075Z</time><hdop>7.375</hdop><vdop>5.125</vdop><extensions><gom:speed>0.348</gom:speed></extensions></trkpt>
   <trkpt lat="59.0711643661" lon="30.0241174385"><ele>97.368</ele><time>2026-04-20T17:57:38.075Z</time><hdop>7.375</hdop><vdop>5.0</vdop><extensions><gom:speed>0.389</gom:speed></extensions></trkpt>
   <trkpt lat="59.0711633602" lon="30.0241186958"><ele>97.371</ele><time>2026-04-20T17:57:39.075Z</time><hdop>7.437</hdop><vdop>4.75</vdop><extensions><gom:speed>0.358</gom:speed></extensions></trkpt>
   <trkpt lat="59.0711633602" lon="30.0241190311"><ele>97.374</ele><time>2026-04-20T17:57:40.076Z</time><hdop>7.437</hdop><vdop>4.687</vdop><extensions><gom:speed>0.357</gom:speed></extensions></trkpt>
   <trkpt lat="59.0711631926" lon="30.0241199531"><ele>97.375</ele><time>2026-04-20T17:57:41.075Z</time><hdop>7.437</hdop><vdop>4.625</vdop><extensions><gom:speed>0.33</gom:speed></extensions></trkpt>
   <trkpt lat="59.0711632764" lon="30.0241201208"><ele>97.376</ele><time>2026-04-20T17:57:42.075Z</time><hdop>7.375</hdop><vdop>4.75</vdop><extensions><gom:speed>0.313</gom:speed></extensions></trkpt>
   <trkpt lat="59.071163486" lon="30.024119534"><ele>97.377</ele><time>2026-04-20T17:57:43.075Z</time><hdop>7.375</hdop><vdop>4.687</vdop><extensions><gom:speed>0.315</gom:speed></extensions></trkpt>
   <trkpt lat="59.0711637793" lon="30.0241190311"><ele>97.378</ele><time>2026-04-20T17:57:44.075Z</time><hdop>7.375</hdop><vdop>4.625</vdop><extensions><gom:speed>0.331</gom:speed></extensions></trkpt>
   <trkpt lat="59.0711640727" lon="30.0241186958"><ele>97.378</ele><time>2026-04-20T17:57:44.683Z</time><hdop>7.437</hdop><vdop>4.625</vdop><extensions><gom:speed>0.332</gom:speed></extensions></trkpt>
   <trkpt lat="59.0711645756" lon="30.0241172709"><ele>97.382</ele><time>2026-04-20T17:57:46.075Z</time><hdop>7.437</hdop><vdop>4.5</vdop><extensions><gom:speed>0.344</gom:speed></extensions></trkpt>
   <trkpt lat="59.0711647852" lon="30.024116768"><ele>97.385</ele><time>2026-04-20T17:57:47.075Z</time><hdop>7.437</hdop><vdop>4.375</vdop><extensions><gom:speed>0.353</gom:speed></extensions></trkpt>
   <trkpt lat="59.0711646594" lon="30.024119534"><ele>98.417</ele><time>2026-04-20T17:57:48.076Z</time><hdop>7.437</hdop><vdop>3.312</vdop><extensions><gom:speed>0.347</gom:speed></extensions></trkpt>
   <trkpt lat="59.0711645756" lon="30.0241241441"><ele>99.816</ele><time>2026-04-20T17:57:49.075Z</time><hdop>7.375</hdop><vdop>2.75</vdop><extensions><gom:speed>0.338</gom:speed></extensions></trkpt>
   <trkpt lat="59.0711646594" lon="30.0241297599"><ele>101.059</ele><time>2026-04-20T17:57:50.075Z</time><hdop>7.375</hdop><vdop>2.5</vdop><extensions><gom:speed>0.329</gom:speed></extensions></trkpt>
   <trkpt lat="59.0711647852" lon="30.0241302629"><ele>101.802</ele><time>2026-04-20T17:57:50.844Z</time><hdop>7.375</hdop><vdop>2.5</vdop><extensions><gom:speed>0.329</gom:speed></extensions></trkpt>
   <trkpt lat="59.0711650785" lon="30.0241429195"><ele>102.589</ele><time>2026-04-20T17:57:52.076Z</time><hdop>7.312</hdop><vdop>4.562</vdop><extensions><gom:speed>0.325</gom:speed></extensions></trkpt>
   <trkpt lat="59.0711651623" lon="30.0241497927"><ele>103.011</ele><time>2026-04-20T17:57:53.076Z</time><hdop>7.312</hdop><vdop>4.437</vdop><extensions><gom:speed>0.319</gom:speed></extensions></trkpt>
   <trkpt lat="59.0711654976" lon="30.0241567497"><ele>103.26</ele><time>2026-04-20T17:57:54.075Z</time><hdop>7.25</hdop><vdop>4.375</vdop><extensions><gom:speed>0.315</gom:speed></extensions></trkpt>
   <trkpt lat="59.0711655814" lon="30.0241634552"><ele>103.274</ele><time>2026-04-20T17:57:55.075Z</time><hdop>7.187</hdop><vdop>4.25</vdop><extensions><gom:speed>0.302</gom:speed></extensions></trkpt>
   <trkpt lat="59.0711655814" lon="30.0241696578"><ele>103.289</ele><time>2026-04-20T17:57:56.076Z</time><hdop>7.125</hdop><vdop>4.125</vdop><extensions><gom:speed>0.297</gom:speed></extensions></trkpt>
   <trkpt lat="59.0711654976" lon="30.0241752737"><ele>103.218</ele><time>2026-04-20T17:57:57.075Z</time><hdop>7.062</hdop><vdop>4.062</vdop><extensions><gom:speed>0.292</gom:speed></extensions></trkpt>
   <trkpt lat="59.0711647852" lon="30.0241818954"><ele>102.258</ele><time>2026-04-20T17:57:58.076Z</time><hdop>6.937</hdop><vdop>3.375</vdop><extensions><gom:speed>0.295</gom:speed></extensions></trkpt>
   <trkpt lat="59.0711642822" lon="30.0241844938"><ele>101.246</ele><time>2026-04-20T17:57:59.075Z</time><hdop>6.812</hdop><vdop>2.812</vdop><extensions><gom:speed>0.315</gom:speed></extensions></trkpt>
   <trkpt lat="59.071163486" lon="30.0241866731"><ele>99.751</ele><time>2026-04-20T17:58:00.075Z</time><hdop>6.75</hdop><vdop>2.625</vdop><extensions><gom:speed>0.33</gom:speed></extensions></trkpt>
   <trkpt lat="59.0711626897" lon="30.0241876789"><ele>98.649</ele><time>2026-04-20T17:58:01.075Z</time><hdop>6.687</hdop><vdop>2.625</vdop><extensions><gom:speed>0.356</gom:speed></extensions></trkpt>
   <trkpt lat="59.0711624801" lon="30.0241886847"><ele>97.978</ele><time>2026-04-20T17:58:02.075Z</time><hdop>6.625</hdop><vdop>2.562</vdop><extensions><gom:speed>0.349</gom:speed></extensions></trkpt>
   <trkpt lat="59.0711624801" lon="30.0241882656"><ele>97.822</ele><time>2026-04-20T17:58:03.075Z</time><hdop>6.625</hdop><vdop>2.5</vdop><extensions><gom:speed>0.346</gom:speed></extensions></trkpt>
   <trkpt lat="59.0711633602" lon="30.0241877627"><ele>97.971</ele><time>2026-04-20T17:58:04.075Z</time><hdop>6.687</hdop><vdop>2.5</vdop><extensions><gom:speed>0.351</gom:speed></extensions></trkpt>
   <trkpt lat="59.0711642822" lon="30.0241855834"><ele>98.263</ele><time>2026-04-20T17:58:05.075Z</time><hdop>6.75</hdop><vdop>5.0</vdop><extensions><gom:speed>0.314</gom:speed></extensions></trkpt>
   <trkpt lat="59.0711653719" lon="30.0241826498"><ele>98.669</ele><time>2026-04-20T17:58:06.075Z</time><hdop>6.812</hdop><vdop>4.437</vdop><extensions><gom:speed>0.331</gom:speed></extensions></trkpt>
   <trkpt lat="59.0711660843" lon="30.0241813925"><ele>99.611</ele><time>2026-04-20T17:58:07.075Z</time><hdop>6.875</hdop><vdop>5.125</vdop><extensions><gom:speed>0.304</gom:speed></extensions></trkpt>
   <trkpt lat="59.071167174" lon="30.0241799675"><ele>100.334</ele><time>2026-04-20T17:58:08.075Z</time><hdop>6.937</hdop><vdop>5.062</vdop><extensions><gom:speed>0.299</gom:speed></extensions></trkpt>
   <trkpt lat="59.0711678865" lon="30.0241796323"><ele>100.699</ele><time>2026-04-20T17:58:09.075Z</time><hdop>6.937</hdop><vdop>5.0</vdop><extensions><gom:speed>0.325</gom:speed></extensions></trkpt>
   <trkpt lat="59.0711677607" lon="30.0241795484"><ele>100.692</ele><time>2026-04-20T17:58:10.075Z</time><hdop>6.937</hdop><vdop>4.937</vdop><extensions><gom:speed>0.356</gom:speed></extensions></trkpt>
   <trkpt lat="59.0711678865" lon="30.0241797999"><ele>100.673</ele><time>2026-04-20T17:58:11.075Z</time><hdop>6.937</hdop><vdop>4.875</vdop><extensions><gom:speed>0.363</gom:speed></extensions></trkpt>
   <trkpt lat="59.0711683894" lon="30.0241801352"><ele>100.687</ele><time>2026-04-20T17:58:12.076Z</time><hdop>6.937</hdop><vdop>4.812</vdop><extensions><gom:speed>0.381</gom:speed></extensions></trkpt>
   <trkpt lat="59.0711688923" lon="30.0241812248"><ele>100.699</ele><time>2026-04-20T17:58:13.076Z</time><hdop>6.875</hdop><vdop>4.75</vdop><extensions><gom:speed>0.354</gom:speed></extensions></trkpt>
   <trkpt lat="59.0711689761" lon="30.0241798837"><ele>100.802</ele><time>2026-04-20T17:58:14.075Z</time><hdop>6.812</hdop><vdop>4.687</vdop><extensions><gom:speed>0.351</gom:speed></extensions></trkpt>
   <trkpt lat="59.0711690599" lon="30.0241779559"><ele>100.868</ele><time>2026-04-20T17:58:15.075Z</time><hdop>6.812</hdop><vdop>4.687</vdop><extensions><gom:speed>0.375</gom:speed></extensions></trkpt>
   <trkpt lat="59.0711691857" lon="30.0241772853"><ele>100.907</ele><time>2026-04-20T17:58:15.600Z</time><hdop>6.875</hdop><vdop>4.687</vdop><extensions><gom:speed>0.375</gom:speed></extensions></trkpt>
   <trkpt lat="59.0711688923" lon="30.0241762795"><ele>100.97</ele><time>2026-04-20T17:58:16.076Z</time><hdop>6.875</hdop><vdop>4.625</vdop><extensions><gom:speed>0.376</gom:speed></extensions></trkpt>
   <trkpt lat="59.0711688923" lon="30.0241731782"><ele>101.021</ele><time>2026-04-20T17:58:17.075Z</time><hdop>6.937</hdop><vdop>4.562</vdop><extensions><gom:speed>0.403</gom:speed></extensions></trkpt>
   <trkpt lat="59.0711683894" lon="30.0241705798"><ele>101.166</ele><time>2026-04-20T17:58:18.076Z</time><hdop>7.0</hdop><vdop>4.625</vdop><extensions><gom:speed>0.509</gom:speed></extensions></trkpt>
   <trkpt lat="59.0711676769" lon="30.0241684843"><ele>101.256</ele><time>2026-04-20T17:58:19.075Z</time><hdop>7.187</hdop><vdop>4.75</vdop><extensions><gom:speed>0.583</gom:speed></extensions></trkpt>
   <trkpt lat="59.0711679703" lon="30.0241655507"><ele>101.317</ele><time>2026-04-20T17:58:20.075Z</time><hdop>7.437</hdop><vdop>4.812</vdop><extensions><gom:speed>0.664</gom:speed></extensions></trkpt>
   <trkpt lat="59.0711676769" lon="30.0241629523"><ele>101.309</ele><time>2026-04-20T17:58:21.075Z</time><hdop>7.75</hdop><vdop>4.875</vdop><extensions><gom:speed>0.766</gom:speed></extensions></trkpt>
   <trkpt lat="59.0711675931" lon="30.0241601863"><ele>101.305</ele><time>2026-04-20T17:58:21.879Z</time><hdop>8.062</hdop><vdop>4.875</vdop><extensions><gom:speed>0.767</gom:speed></extensions></trkpt>
   <trkpt lat="59.0711683894" lon="30.0241596833"><ele>101.29</ele><time>2026-04-20T17:58:23.076Z</time><hdop>8.937</hdop><vdop>4.875</vdop><extensions><gom:speed>0.914</gom:speed></extensions></trkpt>
   <trkpt lat="59.0711690599" lon="30.0241577555"><ele>101.283</ele><time>2026-04-20T17:58:24.076Z</time><hdop>9.437</hdop><vdop>4.937</vdop><extensions><gom:speed>0.847</gom:speed></extensions></trkpt>
   <trkpt lat="59.0711689761" lon="30.0241429195"><ele>101.28</ele><time>2026-04-20T17:58:25.075Z</time><hdop>10.0</hdop><vdop>4.875</vdop><extensions><gom:speed>0.894</gom:speed></extensions></trkpt>
   <trkpt lat="59.0711690599" lon="30.0241335318"><ele>101.309</ele><time>2026-04-20T17:58:26.075Z</time><hdop>10.625</hdop><vdop>4.875</vdop><extensions><gom:speed>0.915</gom:speed></extensions></trkpt>
   <trkpt lat="59.0711692695" lon="30.024126491"><ele>101.348</ele><time>2026-04-20T17:58:27.075Z</time><hdop>11.125</hdop><vdop>4.937</vdop><extensions><gom:speed>0.792</gom:speed></extensions></trkpt>
   <trkpt lat="59.0711689761" lon="30.0241224677"><ele>101.41</ele><time>2026-04-20T17:58:28.075Z</time><hdop>11.5</hdop><vdop>5.0</vdop><extensions><gom:speed>0.732</gom:speed></extensions></trkpt>
   <trkpt lat="59.0711684732" lon="30.0241200369"><ele>101.452</ele><time>2026-04-20T17:58:29.076Z</time><hdop>11.75</hdop><vdop>5.125</vdop><extensions><gom:speed>0.696</gom:speed></extensions></trkpt>
   <trkpt lat="59.071168096" lon="30.0241181929"><ele>101.497</ele><time>2026-04-20T17:58:30.075Z</time><hdop>11.687</hdop><vdop>5.125</vdop><extensions><gom:speed>0.664</gom:speed></extensions></trkpt>
   <trkpt lat="59.0711678865" lon="30.0241136667"><ele>101.538</ele><time>2026-04-20T17:58:31.076Z</time><hdop>11.562</hdop><vdop>5.312</vdop><extensions><gom:speed>0.676</gom:speed></extensions></trkpt>
   <trkpt lat="59.0711678865" lon="30.024108889"><ele>101.566</ele><time>2026-04-20T17:58:32.075Z</time><hdop>11.375</hdop><vdop>5.312</vdop><extensions><gom:speed>0.705</gom:speed></extensions></trkpt>
   <trkpt lat="59.0711681798" lon="30.0241046981"><ele>101.57</ele><time>2026-04-20T17:58:33.076Z</time><hdop>11.187</hdop><vdop>5.375</vdop><extensions><gom:speed>0.751</gom:speed></extensions></trkpt>
   <trkpt lat="59.0711690599" lon="30.0241002556"><ele>101.567</ele><time>2026-04-20T17:58:34.075Z</time><hdop>11.0</hdop><vdop>5.562</vdop><extensions><gom:speed>0.776</gom:speed></extensions></trkpt>
   <trkpt lat="59.0711704848" lon="30.0240924605"><ele>101.563</ele><time>2026-04-20T17:58:35.075Z</time><hdop>10.937</hdop><vdop>5.562</vdop><extensions><gom:speed>0.799</gom:speed></extensions></trkpt>
   <trkpt lat="59.0711714907" lon="30.0240905326"><ele>101.557</ele><time>2026-04-20T17:58:36.075Z</time><hdop>11.0</hdop><vdop>5.625</vdop><extensions><gom:speed>0.83</gom:speed></extensions></trkpt>
   <trkpt lat="59.0711726641" lon="30.0240868446"><ele>101.552</ele><time>2026-04-20T17:58:37.076Z</time><hdop>11.125</hdop><vdop>5.687</vdop><extensions><gom:speed>0.862</gom:speed></extensions></trkpt>
   <trkpt lat="59.0711739633" lon="30.024082486"><ele>101.548</ele><time>2026-04-20T17:58:38.075Z</time><hdop>11.25</hdop><vdop>5.75</vdop><extensions><gom:speed>0.875</gom:speed></extensions></trkpt>
   <trkpt lat="59.0711752625" lon="30.0240774569"><ele>101.551</ele><time>2026-04-20T17:58:39.075Z</time><hdop>11.5</hdop><vdop>5.937</vdop><extensions><gom:speed>0.888</gom:speed></extensions></trkpt>
   <trkpt lat="59.0711760588" lon="30.0240721763"><ele>101.552</ele><time>2026-04-20T17:58:40.075Z</time><hdop>11.687</hdop><vdop>6.187</vdop><extensions><gom:speed>0.903</gom:speed></extensions></trkpt>
   <trkpt lat="59.071175975" lon="30.0240614474"><ele>101.514</ele><time>2026-04-20T17:58:41.076Z</time><hdop>12.125</hdop><vdop>6.437</vdop><extensions><gom:speed>0.935</gom:speed></extensions></trkpt>
   <trkpt lat="59.071175975" lon="30.0240581785"><ele>101.484</ele><time>2026-04-20T17:58:42.076Z</time><hdop>12.437</hdop><vdop>6.375</vdop><extensions><gom:speed>0.934</gom:speed></extensions></trkpt>
   <trkpt lat="59.071175975" lon="30.0240561668"><ele>101.444</ele><time>2026-04-20T17:58:43.076Z</time><hdop>12.687</hdop><vdop>6.687</vdop><extensions><gom:speed>0.896</gom:speed></extensions></trkpt>
   <trkpt lat="59.0711764779" lon="30.0240580947"><ele>101.41</ele><time>2026-04-20T17:58:44.076Z</time><hdop>12.937</hdop><vdop>7.0</vdop><extensions><gom:speed>0.824</gom:speed></extensions></trkpt>
   <trkpt lat="59.0711772742" lon="30.0240596872"><ele>101.35</ele><time>2026-04-20T17:58:45.075Z</time><hdop>13.125</hdop><vdop>7.062</vdop><extensions><gom:speed>0.729</gom:speed></extensions></trkpt>
   <trkpt lat="59.0711785734" lon="30.024062118"><ele>101.333</ele><time>2026-04-20T17:58:46.076Z</time><hdop>13.187</hdop><vdop>7.0</vdop><extensions><gom:speed>0.646</gom:speed></extensions></trkpt>
   <trkpt lat="59.0711790763" lon="30.0240673986"><ele>101.323</ele><time>2026-04-20T17:58:46.635Z</time><hdop>13.25</hdop><vdop>7.0</vdop><extensions><gom:speed>0.634</gom:speed></extensions></trkpt>
   <trkpt lat="59.0711816747" lon="30.0240695779"><ele>101.321</ele><time>2026-04-20T17:58:48.075Z</time><hdop>12.812</hdop><vdop>7.125</vdop><extensions><gom:speed>0.498</gom:speed></extensions></trkpt>
   <trkpt lat="59.071182471" lon="30.0240738526"><ele>101.327</ele><time>2026-04-20T17:58:49.075Z</time><hdop>12.5</hdop><vdop>6.875</vdop><extensions><gom:speed>0.446</gom:speed></extensions></trkpt>
   <trkpt lat="59.0711828901" lon="30.0240789656"><ele>101.33</ele><time>2026-04-20T17:58:50.075Z</time><hdop>12.062</hdop><vdop>6.562</vdop><extensions><gom:speed>0.421</gom:speed></extensions></trkpt>
   <trkpt lat="59.0711829739" lon="30.024082486"><ele>101.33</ele><time>2026-04-20T17:58:51.075Z</time><hdop>11.312</hdop><vdop>6.125</vdop><extensions><gom:speed>0.398</gom:speed></extensions></trkpt>
   <trkpt lat="59.0711830996" lon="30.0240849168"><ele>101.329</ele><time>2026-04-20T17:58:52.076Z</time><hdop>10.812</hdop><vdop>6.75</vdop><extensions><gom:speed>0.41</gom:speed></extensions></trkpt>
   <trkpt lat="59.0711829739" lon="30.0240876828"><ele>101.329</ele><time>2026-04-20T17:58:52.795Z</time><hdop>10.687</hdop><vdop>6.75</vdop><extensions><gom:speed>0.412</gom:speed></extensions></trkpt>
   <trkpt lat="59.0711835606" lon="30.0240890239"><ele>101.326</ele><time>2026-04-20T17:58:54.076Z</time><hdop>9.937</hdop><vdop>6.375</vdop><extensions><gom:speed>0.433</gom:speed></extensions></trkpt>
   <trkpt lat="59.0711836863" lon="30.0240902812"><ele>101.322</ele><time>2026-04-20T17:58:55.075Z</time><hdop>9.625</hdop><vdop>6.187</vdop><extensions><gom:speed>0.456</gom:speed></extensions></trkpt>
   <trkpt lat="59.0711834768" lon="30.0240910355"><ele>101.318</ele><time>2026-04-20T17:58:56.075Z</time><hdop>9.375</hdop><vdop>6.062</vdop><extensions><gom:speed>0.488</gom:speed></extensions></trkpt>
   <trkpt lat="59.0711830996" lon="30.0240915385"><ele>101.318</ele><time>2026-04-20T17:58:57.075Z</time><hdop>9.0</hdop><vdop>5.75</vdop><extensions><gom:speed>0.463</gom:speed></extensions></trkpt>
   <trkpt lat="59.0711829739" lon="30.0240921252"><ele>101.318</ele><time>2026-04-20T17:58:58.075Z</time><hdop>8.812</hdop><vdop>5.562</vdop><extensions><gom:speed>0.407</gom:speed></extensions></trkpt>
   <trkpt lat="59.0711827643" lon="30.0240941369"><ele>101.319</ele><time>2026-04-20T17:58:58.955Z</time><hdop>8.812</hdop><vdop>5.562</vdop><extensions><gom:speed>0.401</gom:speed></extensions></trkpt>
   <trkpt lat="59.0711822614" lon="30.0240945559"><ele>101.318</ele><time>2026-04-20T17:59:00.076Z</time><hdop>8.5</hdop><vdop>5.812</vdop><extensions><gom:speed>0.348</gom:speed></extensions></trkpt>
   <trkpt lat="59.0711819681" lon="30.0240956456"><ele>101.317</ele><time>2026-04-20T17:59:01.075Z</time><hdop>8.375</hdop><vdop>6.062</vdop><extensions><gom:speed>0.402</gom:speed></extensions></trkpt>
   <trkpt lat="59.0711815909" lon="30.0240980763"><ele>101.324</ele><time>2026-04-20T17:59:02.075Z</time><hdop>8.25</hdop><vdop>6.312</vdop><extensions><gom:speed>0.443</gom:speed></extensions></trkpt>
   <trkpt lat="59.0711808784" lon="30.024098244"><ele>101.33</ele><time>2026-04-20T17:59:03.075Z</time><hdop>8.125</hdop><vdop>6.062</vdop><extensions><gom:speed>0.372</gom:speed></extensions></trkpt>
   <trkpt lat="59.0711793697" lon="30.0240984954"><ele>101.337</ele><time>2026-04-20T17:59:04.075Z</time><hdop>8.062</hdop><vdop>5.75</vdop><extensions><gom:speed>0.367</gom:speed></extensions></trkpt>
   <trkpt lat="59.0711786991" lon="30.0240992498"><ele>101.359</ele><time>2026-04-20T17:59:05.075Z</time><hdop>8.0</hdop><vdop>5.5</vdop><extensions><gom:speed>0.383</gom:speed></extensions></trkpt>
   <trkpt lat="59.0711784896" lon="30.0241045304"><ele>101.372</ele><time>2026-04-20T17:59:06.075Z</time><hdop>7.937</hdop><vdop>5.312</vdop><extensions><gom:speed>0.36</gom:speed></extensions></trkpt>
   <trkpt lat="59.0711778609" lon="30.0241015967"><ele>101.388</ele><time>2026-04-20T17:59:07.075Z</time><hdop>7.937</hdop><vdop>5.625</vdop><extensions><gom:speed>0.441</gom:speed></extensions></trkpt>
   <trkpt lat="59.0711776933" lon="30.0241006747"><ele>101.394</ele><time>2026-04-20T17:59:08.075Z</time><hdop>7.937</hdop><vdop>5.875</vdop><extensions><gom:speed>0.544</gom:speed></extensions></trkpt>
   <trkpt lat="59.0711769808" lon="30.0240995851"><ele>101.409</ele><time>2026-04-20T17:59:09.075Z</time><hdop>8.062</hdop><vdop>6.375</vdop><extensions><gom:speed>0.556</gom:speed></extensions></trkpt>
   <trkpt lat="59.0711760588" lon="30.0240987469"><ele>101.416</ele><time>2026-04-20T17:59:10.075Z</time><hdop>8.25</hdop><vdop>6.875</vdop><extensions><gom:speed>0.597</gom:speed></extensions></trkpt>
   <trkpt lat="59.0711752625" lon="30.0240978249"><ele>101.444</ele><time>2026-04-20T17:59:11.075Z</time><hdop>8.625</hdop><vdop>7.375</vdop><extensions><gom:speed>0.644</gom:speed></extensions></trkpt>
   <trkpt lat="59.0711734604" lon="30.0240970705"><ele>101.455</ele><time>2026-04-20T17:59:12.076Z</time><hdop>9.125</hdop><vdop>7.875</vdop><extensions><gom:speed>0.64</gom:speed></extensions></trkpt>
   <trkpt lat="59.0711728737" lon="30.0240956456"><ele>101.457</ele><time>2026-04-20T17:59:13.075Z</time><hdop>9.5</hdop><vdop>8.062</vdop><extensions><gom:speed>0.643</gom:speed></extensions></trkpt>
   <trkpt lat="59.0711724965" lon="30.0240946398"><ele>101.457</ele><time>2026-04-20T17:59:14.076Z</time><hdop>9.812</hdop><vdop>8.187</vdop><extensions><gom:speed>0.596</gom:speed></extensions></trkpt>
   <trkpt lat="59.0711721612" lon="30.0240950589"><ele>101.457</ele><time>2026-04-20T17:59:15.075Z</time><hdop>10.062</hdop><vdop>7.812</vdop><extensions><gom:speed>0.557</gom:speed></extensions></trkpt>
   <trkpt lat="59.0711720774" lon="30.0240952265"><ele>101.457</ele><time>2026-04-20T17:59:16.075Z</time><hdop>10.187</hdop><vdop>7.437</vdop><extensions><gom:speed>0.516</gom:speed></extensions></trkpt>
   <trkpt lat="59.071172287" lon="30.0240961485"><ele>101.457</ele><time>2026-04-20T17:59:17.075Z</time><hdop>10.312</hdop><vdop>6.937</vdop><extensions><gom:speed>0.486</gom:speed></extensions></trkpt>
   <trkpt lat="59.0711728737" lon="30.0240978249"><ele>101.456</ele><time>2026-04-20T17:59:17.553Z</time><hdop>10.375</hdop><vdop>6.937</vdop><extensions><gom:speed>0.486</gom:speed></extensions></trkpt>
   <trkpt lat="59.0711721612" lon="30.0240965676"><ele>101.441</ele><time>2026-04-20T17:59:18.075Z</time><hdop>10.375</hdop><vdop>6.625</vdop><extensions><gom:speed>0.451</gom:speed></extensions></trkpt>
   <trkpt lat="59.0711726641" lon="30.0240970705"><ele>101.427</ele><time>2026-04-20T17:59:19.075Z</time><hdop>10.312</hdop><vdop>6.562</vdop><extensions><gom:speed>0.423</gom:speed></extensions></trkpt>
   <trkpt lat="59.0711726641" lon="30.0240962323"><ele>101.412</ele><time>2026-04-20T17:59:20.075Z</time><hdop>10.25</hdop><vdop>6.562</vdop><extensions><gom:speed>0.411</gom:speed></extensions></trkpt>
   <trkpt lat="59.0711727899" lon="30.0240959809"><ele>101.396</ele><time>2026-04-20T17:59:21.075Z</time><hdop>10.125</hdop><vdop>6.562</vdop><extensions><gom:speed>0.393</gom:speed></extensions></trkpt>
   <trkpt lat="59.0711730832" lon="30.0240955618"><ele>101.382</ele><time>2026-04-20T17:59:22.075Z</time><hdop>9.937</hdop><vdop>6.687</vdop><extensions><gom:speed>0.382</gom:speed></extensions></trkpt>
   <trkpt lat="59.0711734604" lon="30.0240952265"><ele>101.372</ele><time>2026-04-20T17:59:23.075Z</time><hdop>9.75</hdop><vdop>6.812</vdop><extensions><gom:speed>0.365</gom:speed></extensions></trkpt>
   <trkpt lat="59.0711741729" lon="30.0240974896"><ele>101.367</ele><time>2026-04-20T17:59:23.712Z</time><hdop>9.812</hdop><vdop>6.812</vdop><extensions><gom:speed>0.147</gom:speed></extensions></trkpt>
   <trkpt lat="59.0711747596" lon="30.0241032731"><ele>101.36</ele><time>2026-04-20T17:59:25.075Z</time><hdop>9.562</hdop><vdop>7.187</vdop><extensions><gom:speed>0.35</gom:speed></extensions></trkpt>
   <trkpt lat="59.0711754721" lon="30.0241051171"><ele>101.353</ele><time>2026-04-20T17:59:26.075Z</time><hdop>9.5</hdop><vdop>7.25</vdop><extensions><gom:speed>0.362</gom:speed></extensions></trkpt>
   <trkpt lat="59.0711756816" lon="30.0241066259"><ele>101.346</ele><time>2026-04-20T17:59:27.076Z</time><hdop>9.5</hdop><vdop>7.312</vdop><extensions><gom:speed>0.367</gom:speed></extensions></trkpt>
   <trkpt lat="59.0711754721" lon="30.0241082185"><ele>101.338</ele><time>2026-04-20T17:59:28.075Z</time><hdop>9.375</hdop><vdop>7.437</vdop><extensions><gom:speed>0.404</gom:speed></extensions></trkpt>
   <trkpt lat="59.0711750949" lon="30.0241103977"><ele>101.333</ele><time>2026-04-20T17:59:29.075Z</time><hdop>9.375</hdop><vdop>7.437</vdop><extensions><gom:speed>0.432</gom:speed></extensions></trkpt>
   <trkpt lat="59.0711748853" lon="30.0241089728"><ele>101.329</ele><time>2026-04-20T17:59:29.991Z</time><hdop>9.437</hdop><vdop>7.437</vdop><extensions><gom:speed>0.435</gom:speed></extensions></trkpt>
   <trkpt lat="59.071174592" lon="30.0241137505"><ele>101.326</ele><time>2026-04-20T17:59:31.075Z</time><hdop>9.437</hdop><vdop>7.687</vdop><extensions><gom:speed>0.425</gom:speed></extensions></trkpt>
   <trkpt lat="59.0711744663" lon="30.0241154269"><ele>101.325</ele><time>2026-04-20T17:59:32.076Z</time><hdop>9.5</hdop><vdop>7.812</vdop><extensions><gom:speed>0.416</gom:speed></extensions></trkpt>
   <trkpt lat="59.0711744663" lon="30.0241171871"><ele>101.323</ele><time>2026-04-20T17:59:33.076Z</time><hdop>9.5</hdop><vdop>8.062</vdop><extensions><gom:speed>0.418</gom:speed></extensions></trkpt>
   <trkpt lat="59.0711746758" lon="30.0241183606"><ele>101.322</ele><time>2026-04-20T17:59:34.075Z</time><hdop>9.5</hdop><vdop>8.062</vdop><extensions><gom:speed>0.439</gom:speed></extensions></trkpt>
   <trkpt lat="59.0711751787" lon="30.0241191987"><ele>101.32</ele><time>2026-04-20T17:59:35.075Z</time><hdop>9.625</hdop><vdop>8.25</vdop><extensions><gom:speed>0.45</gom:speed></extensions></trkpt>
   <trkpt lat="59.0711753883" lon="30.0241201208"><ele>101.319</ele><time>2026-04-20T17:59:36.075Z</time><hdop>9.75</hdop><vdop>8.25</vdop><extensions><gom:speed>0.476</gom:speed></extensions></trkpt>
   <trkpt lat="59.0711760588" lon="30.0241214619"><ele>101.316</ele><time>2026-04-20T17:59:37.075Z</time><hdop>9.937</hdop><vdop>7.75</vdop><extensions><gom:speed>0.497</gom:speed></extensions></trkpt>
   <trkpt lat="59.0711765617" lon="30.0241199531"><ele>101.314</ele><time>2026-04-20T17:59:38.076Z</time><hdop>10.0</hdop><vdop>7.437</vdop><extensions><gom:speed>0.498</gom:speed></extensions></trkpt>
   <trkpt lat="59.0711771904" lon="30.0241168518"><ele>101.313</ele><time>2026-04-20T17:59:39.075Z</time><hdop>10.062</hdop><vdop>7.062</vdop><extensions><gom:speed>0.503</gom:speed></extensions></trkpt>
   <trkpt lat="59.0711777771" lon="30.0241174385"><ele>101.311</ele><time>2026-04-20T17:59:40.076Z</time><hdop>10.0</hdop><vdop>6.687</vdop><extensions><gom:speed>0.515</gom:speed></extensions></trkpt>
   <trkpt lat="59.0711780705" lon="30.02411769"><ele>101.309</ele><time>2026-04-20T17:59:41.075Z</time><hdop>10.0</hdop><vdop>6.687</vdop><extensions><gom:speed>0.512</gom:speed></extensions></trkpt>
   <trkpt lat="59.0711780705" lon="30.0241178576"><ele>101.308</ele><time>2026-04-20T17:59:42.076Z</time><hdop>9.937</hdop><vdop>6.5</vdop><extensions><gom:speed>0.5</gom:speed></extensions></trkpt>
   <trkpt lat="59.07117828" lon="30.0241185282"><ele>101.311</ele><time>2026-04-20T17:59:43.075Z</time><hdop>9.875</hdop><vdop>6.687</vdop><extensions><gom:speed>0.551</gom:speed></extensions></trkpt>
   <trkpt lat="59.0711779866" lon="30.0241180253"><ele>101.312</ele><time>2026-04-20T17:59:44.075Z</time><hdop>9.875</hdop><vdop>6.812</vdop><extensions><gom:speed>0.609</gom:speed></extensions></trkpt>
   <trkpt lat="59.0711780705" lon="30.0241181929"><ele>101.31</ele><time>2026-04-20T17:59:45.075Z</time><hdop>9.875</hdop><vdop>7.187</vdop><extensions><gom:speed>0.605</gom:speed></extensions></trkpt>
   <trkpt lat="59.07117828" lon="30.0241180253"><ele>101.309</ele><time>2026-04-20T17:59:46.076Z</time><hdop>9.937</hdop><vdop>7.437</vdop><extensions><gom:speed>0.613</gom:speed></extensions></trkpt>
   <trkpt lat="59.0711785734" lon="30.0241177738"><ele>101.307</ele><time>2026-04-20T17:59:47.076Z</time><hdop>10.062</hdop><vdop>7.562</vdop><extensions><gom:speed>0.641</gom:speed></extensions></trkpt>
   <trkpt lat="59.0711791601" lon="30.0241169356"><ele>101.307</ele><time>2026-04-20T17:59:48.075Z</time><hdop>10.187</hdop><vdop>7.5</vdop><extensions><gom:speed>0.642</gom:speed></extensions></trkpt>
   <trkpt lat="59.0711798726" lon="30.0241171871"><ele>101.303</ele><time>2026-04-20T17:59:49.075Z</time><hdop>10.437</hdop><vdop>7.062</vdop><extensions><gom:speed>0.641</gom:speed></extensions></trkpt>
   <trkpt lat="59.0711827643" lon="30.0241112359"><ele>101.303</ele><time>2026-04-20T17:59:50.075Z</time><hdop>10.5</hdop><vdop>6.562</vdop><extensions><gom:speed>0.669</gom:speed></extensions></trkpt>
   <trkpt lat="59.0711844826" lon="30.0241075479"><ele>101.301</ele><time>2026-04-20T17:59:51.075Z</time><hdop>10.625</hdop><vdop>6.187</vdop><extensions><gom:speed>0.666</gom:speed></extensions></trkpt>
   <trkpt lat="59.0711853627" lon="30.0241069612"><ele>101.299</ele><time>2026-04-20T17:59:52.075Z</time><hdop>10.687</hdop><vdop>6.0</vdop><extensions><gom:speed>0.678</gom:speed></extensions></trkpt>
   <trkpt lat="59.0711862847" lon="30.0241069612"><ele>101.295</ele><time>2026-04-20T17:59:53.075Z</time><hdop>10.687</hdop><vdop>5.875</vdop><extensions><gom:speed>0.748</gom:speed></extensions></trkpt>
   <trkpt lat="59.0711873744" lon="30.0241081346"><ele>101.293</ele><time>2026-04-20T17:59:54.075Z</time><hdop>10.687</hdop><vdop>5.687</vdop><extensions><gom:speed>0.755</gom:speed></extensions></trkpt>
   <trkpt lat="59.0711863686" lon="30.0241078832"><ele>101.291</ele><time>2026-04-20T17:59:54.630Z</time><hdop>10.812</hdop><vdop>5.687</vdop><extensions><gom:speed>0.756</gom:speed></extensions></trkpt>
   <trkpt lat="59.0711885898" lon="30.0241114874"><ele>101.29</ele><time>2026-04-20T17:59:56.075Z</time><hdop>10.875</hdop><vdop>5.75</vdop><extensions><gom:speed>0.717</gom:speed></extensions></trkpt>
   <trkpt lat="59.071188464" lon="30.0241128285"><ele>101.289</ele><time>2026-04-20T17:59:57.075Z</time><hdop>10.937</hdop><vdop>5.812</vdop><extensions><gom:speed>0.745</gom:speed></extensions></trkpt>
   <trkpt lat="59.0711880868" lon="30.0241150916"><ele>101.288</ele><time>2026-04-20T17:59:58.075Z</time><hdop>11.062</hdop><vdop>5.812</vdop><extensions><gom:speed>0.722</gom:speed></extensions></trkpt>
   <trkpt lat="59.0711881707" lon="30.0241155945"><ele>101.288</ele><time>2026-04-20T17:59:59.076Z</time><hdop>11.062</hdop><vdop>5.812</vdop><extensions><gom:speed>0.726</gom:speed></extensions></trkpt>
   <trkpt lat="59.0711885898" lon="30.0241156783"><ele>101.288</ele><time>2026-04-20T18:00:00.075Z</time><hdop>11.125</hdop><vdop>6.125</vdop><extensions><gom:speed>0.712</gom:speed></extensions></trkpt>
   <trkpt lat="59.0711874582" lon="30.0241150916"><ele>101.288</ele><time>2026-04-20T18:00:00.789Z</time><hdop>11.312</hdop><vdop>6.125</vdop><extensions><gom:speed>0.712</gom:speed></extensions></trkpt>
   <trkpt lat="59.0711895956" lon="30.0241148402"><ele>101.296</ele><time>2026-04-20T18:00:02.075Z</time><hdop>11.437</hdop><vdop>6.125</vdop><extensions><gom:speed>0.659</gom:speed></extensions></trkpt>
   <trkpt lat="59.0711896794" lon="30.0241143372"><ele>101.301</ele><time>2026-04-20T18:00:03.075Z</time><hdop>11.437</hdop><vdop>6.5</vdop><extensions><gom:speed>0.614</gom:speed></extensions></trkpt>
   <trkpt lat="59.0711897632" lon="30.0241122418"><ele>101.302</ele><time>2026-04-20T18:00:04.075Z</time><hdop>11.437</hdop><vdop>6.687</vdop><extensions><gom:speed>0.538</gom:speed></extensions></trkpt>
   <trkpt lat="59.0711896794" lon="30.0241118227"><ele>101.306</ele><time>2026-04-20T18:00:05.075Z</time><hdop>11.25</hdop><vdop>6.687</vdop><extensions><gom:speed>0.503</gom:speed></extensions></trkpt>
   <trkpt lat="59.0711894699" lon="30.024112577"><ele>101.308</ele><time>2026-04-20T18:00:06.075Z</time><hdop>11.125</hdop><vdop>7.187</vdop><extensions><gom:speed>0.475</gom:speed></extensions></trkpt>
   <trkpt lat="59.0711891765" lon="30.0241138343"><ele>101.312</ele><time>2026-04-20T18:00:07.075Z</time><hdop>10.937</hdop><vdop>7.062</vdop><extensions><gom:speed>0.479</gom:speed></extensions></trkpt>
   <trkpt lat="59.0711888831" lon="30.0241151754"><ele>101.313</ele><time>2026-04-20T18:00:08.075Z</time><hdop>10.75</hdop><vdop>7.375</vdop><extensions><gom:speed>0.481</gom:speed></extensions></trkpt>
   <trkpt lat="59.0711888831" lon="30.0241165165"><ele>101.312</ele><time>2026-04-20T18:00:09.075Z</time><hdop>10.562</hdop><vdop>7.562</vdop><extensions><gom:speed>0.498</gom:speed></extensions></trkpt>
   <trkpt lat="59.0711889669" lon="30.0241184444"><ele>101.31</ele><time>2026-04-20T18:00:10.075Z</time><hdop>10.437</hdop><vdop>7.687</vdop><extensions><gom:speed>0.495</gom:speed></extensions></trkpt>
   <trkpt lat="59.0711886736" lon="30.0241201208"><ele>101.307</ele><time>2026-04-20T18:00:11.075Z</time><hdop>10.375</hdop><vdop>8.25</vdop><extensions><gom:speed>0.523</gom:speed></extensions></trkpt>
   <trkpt lat="59.071188464" lon="30.0241217971"><ele>101.307</ele><time>2026-04-20T18:00:12.076Z</time><hdop>10.375</hdop><vdop>8.812</vdop><extensions><gom:speed>0.537</gom:speed></extensions></trkpt>
   <trkpt lat="59.0711883802" lon="30.0241222162"><ele>101.306</ele><time>2026-04-20T18:00:12.677Z</time><hdop>10.5</hdop><vdop>8.812</vdop><extensions><gom:speed>0.537</gom:speed></extensions></trkpt>
   <trkpt lat="59.0711869972" lon="30.0241221324"><ele>101.309</ele><time>2026-04-20T18:00:13.162Z</time><hdop>10.625</hdop><vdop>9.25</vdop><extensions><gom:speed>0.538</gom:speed></extensions></trkpt>
   <trkpt lat="59.0711877935" lon="30.0241248984"><ele>101.311</ele><time>2026-04-20T18:00:14.075Z</time><hdop>10.625</hdop><vdop>9.437</vdop><extensions><gom:speed>0.514</gom:speed></extensions></trkpt>
   <trkpt lat="59.0711869972" lon="30.0241258204"><ele>101.314</ele><time>2026-04-20T18:00:15.075Z</time><hdop>10.687</hdop><vdop>9.437</vdop><extensions><gom:speed>0.509</gom:speed></extensions></trkpt>
   <trkpt lat="59.0711863686" lon="30.0241268263"><ele>101.315</ele><time>2026-04-20T18:00:16.076Z</time><hdop>10.687</hdop><vdop>8.687</vdop><extensions><gom:speed>0.489</gom:speed></extensions></trkpt>
   <trkpt lat="59.0711858656" lon="30.0241271616"><ele>101.315</ele><time>2026-04-20T18:00:17.075Z</time><hdop>10.687</hdop><vdop>8.375</vdop><extensions><gom:speed>0.473</gom:speed></extensions></trkpt>
   <trkpt lat="59.0711858656" lon="30.024128335"><ele>101.316</ele><time>2026-04-20T18:00:18.075Z</time><hdop>10.562</hdop><vdop>8.562</vdop><extensions><gom:speed>0.473</gom:speed></extensions></trkpt>
   <trkpt lat="59.071186159" lon="30.0241304305"><ele>101.316</ele><time>2026-04-20T18:00:19.075Z</time><hdop>10.437</hdop><vdop>7.937</vdop><extensions><gom:speed>0.455</gom:speed></extensions></trkpt>
   <trkpt lat="59.071187081" lon="30.0241327774"><ele>101.317</ele><time>2026-04-20T18:00:20.076Z</time><hdop>10.312</hdop><vdop>7.812</vdop><extensions><gom:speed>0.454</gom:speed></extensions></trkpt>
   <trkpt lat="59.0711877935" lon="30.0241337833"><ele>101.329</ele><time>2026-04-20T18:00:21.075Z</time><hdop>10.187</hdop><vdop>7.75</vdop><extensions><gom:speed>0.422</gom:speed></extensions></trkpt>
   <trkpt lat="59.0711882964" lon="30.0241348729"><ele>101.345</ele><time>2026-04-20T18:00:22.075Z</time><hdop>10.062</hdop><vdop>7.562</vdop><extensions><gom:speed>0.401</gom:speed></extensions></trkpt>
   <trkpt lat="59.0711887993" lon="30.024135292"><ele>101.36</ele><time>2026-04-20T18:00:23.075Z</time><hdop>9.937</hdop><vdop>7.562</vdop><extensions><gom:speed>0.378</gom:speed></extensions></trkpt>
   <trkpt lat="59.0711891765" lon="30.0241353758"><ele>101.368</ele><time>2026-04-20T18:00:24.075Z</time><hdop>9.687</hdop><vdop>7.375</vdop><extensions><gom:speed>0.366</gom:speed></extensions></trkpt>
   <trkpt lat="59.0711889669" lon="30.0241354596"><ele>101.371</ele><time>2026-04-20T18:00:25.075Z</time><hdop>9.5</hdop><vdop>7.0</vdop><extensions><gom:speed>0.36</gom:speed></extensions></trkpt>
   <trkpt lat="59.0711885898" lon="30.0241349567"><ele>101.373</ele><time>2026-04-20T18:00:25.547Z</time><hdop>9.437</hdop><vdop>7.0</vdop><extensions><gom:speed>0.36</gom:speed></extensions></trkpt>
   <trkpt lat="59.0711889669" lon="30.0241357949"><ele>101.375</ele><time>2026-04-20T18:00:26.075Z</time><hdop>9.312</hdop><vdop>7.062</vdop><extensions><gom:speed>0.354</gom:speed></extensions></trkpt>
   <trkpt lat="59.0711887993" lon="30.0241349567"><ele>101.376</ele><time>2026-04-20T18:00:27.075Z</time><hdop>9.187</hdop><vdop>6.812</vdop><extensions><gom:speed>0.343</gom:speed></extensions></trkpt>
   <trkpt lat="59.0711890927" lon="30.0241346214"><ele>101.379</ele><time>2026-04-20T18:00:28.075Z</time><hdop>9.062</hdop><vdop>6.75</vdop><extensions><gom:speed>0.354</gom:speed></extensions></trkpt>
   <trkpt lat="59.0711892603" lon="30.0241340347"><ele>101.382</ele><time>2026-04-20T18:00:29.075Z</time><hdop>8.937</hdop><vdop>7.062</vdop><extensions><gom:speed>0.369</gom:speed></extensions></trkpt>
   <trkpt lat="59.0711888831" lon="30.0241330289"><ele>101.379</ele><time>2026-04-20T18:00:30.075Z</time><hdop>8.812</hdop><vdop>6.937</vdop><extensions><gom:speed>0.389</gom:speed></extensions></trkpt>
   <trkpt lat="59.0711887993" lon="30.0241328612"><ele>101.377</ele><time>2026-04-20T18:00:31.075Z</time><hdop>8.75</hdop><vdop>6.812</vdop><extensions><gom:speed>0.4</gom:speed></extensions></trkpt>
   <trkpt lat="59.0711879611" lon="30.0241318554"><ele>101.376</ele><time>2026-04-20T18:00:31.827Z</time><hdop>8.812</hdop><vdop>6.812</vdop><extensions><gom:speed>0.403</gom:speed></extensions></trkpt>
   <trkpt lat="59.0711891765" lon="30.0241323583"><ele>101.376</ele><time>2026-04-20T18:00:33.076Z</time><hdop>8.812</hdop><vdop>6.562</vdop><extensions><gom:speed>0.38</gom:speed></extensions></trkpt>
   <trkpt lat="59.0711891765" lon="30.0241320231"><ele>101.375</ele><time>2026-04-20T18:00:34.075Z</time><hdop>8.812</hdop><vdop>6.375</vdop><extensions><gom:speed>0.356</gom:speed></extensions></trkpt>
   <trkpt lat="59.0711887993" lon="30.0241316878"><ele>101.374</ele><time>2026-04-20T18:00:35.075Z</time><hdop>8.812</hdop><vdop>6.312</vdop><extensions><gom:speed>0.345</gom:speed></extensions></trkpt>
   <trkpt lat="59.071188464" lon="30.0241313525"><ele>101.374</ele><time>2026-04-20T18:00:36.075Z</time><hdop>8.75</hdop><vdop>6.0</vdop><extensions><gom:speed>0.373</gom:speed></extensions></trkpt>
   <trkpt lat="59.0711876677" lon="30.0241311849"><ele>101.368</ele><time>2026-04-20T18:00:37.075Z</time><hdop>8.687</hdop><vdop>5.812</vdop><extensions><gom:speed>0.343</gom:speed></extensions></trkpt>
   <trkpt lat="59.0711871648" lon="30.0241296761"><ele>101.365</ele><time>2026-04-20T18:00:37.985Z</time><hdop>8.687</hdop><vdop>5.812</vdop><extensions><gom:speed>0.337</gom:speed></extensions></trkpt>
   <trkpt lat="59.0711852789" lon="30.0241290894"><ele>101.363</ele><time>2026-04-20T18:00:39.075Z</time><hdop>8.5</hdop><vdop>5.687</vdop><extensions><gom:speed>0.29</gom:speed></extensions></trkpt>
   <trkpt lat="59.0711844826" lon="30.0241273292"><ele>101.363</ele><time>2026-04-20T18:00:40.075Z</time><hdop>8.375</hdop><vdop>5.562</vdop><extensions><gom:speed>0.287</gom:speed></extensions></trkpt>
   <trkpt lat="59.0711838959" lon="30.0241257366"><ele>101.362</ele><time>2026-04-20T18:00:41.075Z</time><hdop>8.187</hdop><vdop>5.562</vdop><extensions><gom:speed>0.286</gom:speed></extensions></trkpt>
   <trkpt lat="59.0711832672" lon="30.0241243955"><ele>101.36</ele><time>2026-04-20T18:00:42.075Z</time><hdop>7.937</hdop><vdop>5.687</vdop><extensions><gom:speed>0.299</gom:speed></extensions></trkpt>
   <trkpt lat="59.0711827643" lon="30.0241232221"><ele>101.358</ele><time>2026-04-20T18:00:43.076Z</time><hdop>7.812</hdop><vdop>5.437</vdop><extensions><gom:speed>0.316</gom:speed></extensions></trkpt>
   <trkpt lat="59.0711822614" lon="30.0241227191"><ele>101.357</ele><time>2026-04-20T18:00:44.076Z</time><hdop>7.687</hdop><vdop>5.187</vdop><extensions><gom:speed>0.325</gom:speed></extensions></trkpt>
   <trkpt lat="59.0711817585" lon="30.0241230544"><ele>101.364</ele><time>2026-04-20T18:00:45.076Z</time><hdop>7.625</hdop><vdop>5.25</vdop><extensions><gom:speed>0.314</gom:speed></extensions></trkpt>
   <trkpt lat="59.0711816747" lon="30.0241222162"><ele>101.367</ele><time>2026-04-20T18:00:46.075Z</time><hdop>7.625</hdop><vdop>5.5</vdop><extensions><gom:speed>0.312</gom:speed></extensions></trkpt>
   <trkpt lat="59.0711814651" lon="30.0241217971"><ele>101.369</ele><time>2026-04-20T18:00:47.075Z</time><hdop>7.625</hdop><vdop>5.75</vdop><extensions><gom:speed>0.324</gom:speed></extensions></trkpt>
   <trkpt lat="59.0711809622" lon="30.0241211266"><ele>101.37</ele><time>2026-04-20T18:00:48.075Z</time><hdop>7.625</hdop><vdop>6.0</vdop><extensions><gom:speed>0.321</gom:speed></extensions></trkpt>
   <trkpt lat="59.0711809622" lon="30.0241207913"><ele>101.369</ele><time>2026-04-20T18:00:49.075Z</time><hdop>7.75</hdop><vdop>6.0</vdop><extensions><gom:speed>0.336</gom:speed></extensions></trkpt>
   <trkpt lat="59.0711811718" lon="30.0241206237"><ele>101.37</ele><time>2026-04-20T18:00:50.075Z</time><hdop>7.812</hdop><vdop>6.062</vdop><extensions><gom:speed>0.353</gom:speed></extensions></trkpt>
   <trkpt lat="59.0711815909" lon="30.024121378"><ele>101.369</ele><time>2026-04-20T18:00:51.076Z</time><hdop>8.0</hdop><vdop>6.187</vdop><extensions><gom:speed>0.352</gom:speed></extensions></trkpt>
   <trkpt lat="59.0711817585" lon="30.0241207913"><ele>101.368</ele><time>2026-04-20T18:00:52.076Z</time><hdop>8.062</hdop><vdop>6.25</vdop><extensions><gom:speed>0.342</gom:speed></extensions></trkpt>
   <trkpt lat="59.0711819681" lon="30.024120456"><ele>101.367</ele><time>2026-04-20T18:00:53.075Z</time><hdop>8.125</hdop><vdop>6.125</vdop><extensions><gom:speed>0.326</gom:speed></extensions></trkpt>
   <trkpt lat="59.0711818842" lon="30.0241198693"><ele>101.366</ele><time>2026-04-20T18:00:54.076Z</time><hdop>8.125</hdop><vdop>6.125</vdop><extensions><gom:speed>0.314</gom:speed></extensions></trkpt>
   <trkpt lat="59.0711815909" lon="30.0241192826"><ele>101.365</ele><time>2026-04-20T18:00:55.075Z</time><hdop>8.125</hdop><vdop>6.0</vdop><extensions><gom:speed>0.318</gom:speed></extensions></trkpt>
   <trkpt lat="59.0711813813" lon="30.0241185282"><ele>101.364</ele><time>2026-04-20T18:00:56.075Z</time><hdop>8.062</hdop><vdop>5.75</vdop><extensions><gom:speed>0.322</gom:speed></extensions></trkpt>
   <trkpt lat="59.0711811718" lon="30.0241182767"><ele>101.364</ele><time>2026-04-20T18:00:57.076Z</time><hdop>8.062</hdop><vdop>5.937</vdop><extensions><gom:speed>0.311</gom:speed></extensions></trkpt>
   <trkpt lat="59.0711811718" lon="30.0241174385"><ele>101.365</ele><time>2026-04-20T18:00:58.075Z</time><hdop>8.0</hdop><vdop>5.875</vdop><extensions><gom:speed>0.321</gom:speed></extensions></trkpt>
   <trkpt lat="59.0711817585" lon="30.0241170194"><ele>101.366</ele><time>2026-04-20T18:00:59.076Z</time><hdop>8.0</hdop><vdop>5.25</vdop><extensions><gom:speed>0.342</gom:speed></extensions></trkpt>
   <trkpt lat="59.0711818842" lon="30.0241164327"><ele>101.368</ele><time>2026-04-20T18:01:00.075Z</time><hdop>8.0</hdop><vdop>5.062</vdop><extensions><gom:speed>0.371</gom:speed></extensions></trkpt>
   <trkpt lat="59.0711816747" lon="30.0241160974"><ele>101.371</ele><time>2026-04-20T18:01:01.075Z</time><hdop>7.937</hdop><vdop>5.0</vdop><extensions><gom:speed>0.389</gom:speed></extensions></trkpt>
   <trkpt lat="59.071181088" lon="30.024114924"><ele>101.373</ele><time>2026-04-20T18:01:02.075Z</time><hdop>7.875</hdop><vdop>4.812</vdop><extensions><gom:speed>0.265</gom:speed></extensions></trkpt>
   <trkpt lat="59.0711808784" lon="30.0241131638"><ele>101.374</ele><time>2026-04-20T18:01:02.743Z</time><hdop>7.937</hdop><vdop>4.812</vdop><extensions><gom:speed>0.305</gom:speed></extensions></trkpt>
   <trkpt lat="59.0711791601" lon="30.0241117388"><ele>101.381</ele><time>2026-04-20T18:01:04.075Z</time><hdop>7.937</hdop><vdop>5.062</vdop><extensions><gom:speed>0.272</gom:speed></extensions></trkpt>
   <trkpt lat="59.0711785734" lon="30.0241122418"><ele>101.384</ele><time>2026-04-20T18:01:05.075Z</time><hdop>8.437</hdop><vdop>5.375</vdop><extensions><gom:speed>0.0</gom:speed></extensions></trkpt>
   <trkpt lat="59.0711786991" lon="30.0241122418"><ele>101.389</ele><time>2026-04-20T18:01:06.076Z</time><hdop>8.937</hdop><vdop>5.687</vdop><extensions><gom:speed>0.0</gom:speed></extensions></trkpt>
   <trkpt lat="59.0711786991" lon="30.0241122418"><ele>101.395</ele><time>2026-04-20T18:01:07.076Z</time><hdop>9.625</hdop><vdop>5.5</vdop><extensions><gom:speed>0.0</gom:speed></extensions></trkpt>
   <trkpt lat="59.0711786991" lon="30.0241122418"><ele>101.402</ele><time>2026-04-20T18:01:08.075Z</time><hdop>10.187</hdop><vdop>5.312</vdop><extensions><gom:speed>0.0</gom:speed></extensions></trkpt>
   <trkpt lat="59.0711786991" lon="30.0241122418"><ele>101.406</ele><time>2026-04-20T18:01:09.075Z</time><hdop>10.75</hdop><vdop>5.312</vdop><extensions><gom:speed>0.0</gom:speed></extensions></trkpt>
   <trkpt lat="59.0711786991" lon="30.0241122418"><ele>101.411</ele><time>2026-04-20T18:01:10.075Z</time><hdop>11.25</hdop><vdop>5.125</vdop><extensions><gom:speed>0.0</gom:speed></extensions></trkpt>
   <trkpt lat="59.0711786991" lon="30.0241122418"><ele>101.415</ele><time>2026-04-20T18:01:11.075Z</time><hdop>11.187</hdop><vdop>5.125</vdop><extensions><gom:speed>0.0</gom:speed></extensions></trkpt>
   <trkpt lat="59.0711786991" lon="30.0241122418"><ele>101.418</ele><time>2026-04-20T18:01:12.076Z</time><hdop>11.125</hdop><vdop>4.875</vdop><extensions><gom:speed>0.0</gom:speed></extensions></trkpt>
   <trkpt lat="59.0711786991" lon="30.0241122418"><ele>101.421</ele><time>2026-04-20T18:01:13.075Z</time><hdop>11.0</hdop><vdop>4.687</vdop><extensions><gom:speed>0.0</gom:speed></extensions></trkpt>
   <trkpt lat="59.0711786991" lon="30.0241122418"><ele>101.422</ele><time>2026-04-20T18:01:14.075Z</time><hdop>10.937</hdop><vdop>4.812</vdop><extensions><gom:speed>0.0</gom:speed></extensions></trkpt>
   <trkpt lat="59.0711786991" lon="30.0241122418"><ele>101.422</ele><time>2026-04-20T18:01:15.076Z</time><hdop>10.875</hdop><vdop>4.75</vdop><extensions><gom:speed>0.0</gom:speed></extensions></trkpt>
   <trkpt lat="59.0711786991" lon="30.0241122418"><ele>101.425</ele><time>2026-04-20T18:01:16.076Z</time><hdop>10.812</hdop><vdop>4.937</vdop><extensions><gom:speed>0.0</gom:speed></extensions></trkpt>
   <trkpt lat="59.0711786991" lon="30.0241121579"><ele>101.431</ele><time>2026-04-20T18:01:17.075Z</time><hdop>10.812</hdop><vdop>5.187</vdop><extensions><gom:speed>0.0</gom:speed></extensions></trkpt>
   <trkpt lat="59.0711785734" lon="30.0241121579"><ele>101.433</ele><time>2026-04-20T18:01:18.075Z</time><hdop>10.812</hdop><vdop>5.0</vdop><extensions><gom:speed>0.0</gom:speed></extensions></trkpt>
   <trkpt lat="59.0711785734" lon="30.0241121579"><ele>101.434</ele><time>2026-04-20T18:01:19.075Z</time><hdop>10.812</hdop><vdop>5.0</vdop><extensions><gom:speed>0.0</gom:speed></extensions></trkpt>
   <trkpt lat="59.0711785734" lon="30.0241121579"><ele>101.435</ele><time>2026-04-20T18:01:20.075Z</time><hdop>10.812</hdop><vdop>5.0</vdop><extensions><gom:speed>0.0</gom:speed></extensions></trkpt>
   <trkpt lat="59.0711785734" lon="30.0241121579"><ele>101.435</ele><time>2026-04-20T18:01:21.075Z</time><hdop>10.812</hdop><vdop>5.187</vdop><extensions><gom:speed>0.0</gom:speed></extensions></trkpt>
   <trkpt lat="59.0711785734" lon="30.0241121579"><ele>101.434</ele><time>2026-04-20T18:01:22.076Z</time><hdop>10.812</hdop><vdop>5.187</vdop><extensions><gom:speed>0.0</gom:speed></extensions></trkpt>
   <trkpt lat="59.0711785734" lon="30.0241121579"><ele>101.433</ele><time>2026-04-20T18:01:23.075Z</time><hdop>10.812</hdop><vdop>5.125</vdop><extensions><gom:speed>0.0</gom:speed></extensions></trkpt>
   <trkpt lat="59.0711785734" lon="30.0241121579"><ele>101.432</ele><time>2026-04-20T18:01:24.075Z</time><hdop>10.812</hdop><vdop>5.0</vdop><extensions><gom:speed>0.0</gom:speed></extensions></trkpt>
   <trkpt lat="59.0711784896" lon="30.0241121579"><ele>101.43</ele><time>2026-04-20T18:01:25.075Z</time><hdop>10.875</hdop><vdop>5.25</vdop><extensions><gom:speed>0.0</gom:speed></extensions></trkpt>
   <trkpt lat="59.0711784896" lon="30.0241122418"><ele>101.428</ele><time>2026-04-20T18:01:26.076Z</time><hdop>10.812</hdop><vdop>5.375</vdop><extensions><gom:speed>0.0</gom:speed></extensions></trkpt>
   <trkpt lat="59.0711784896" lon="30.0241122418"><ele>101.425</ele><time>2026-04-20T18:01:27.075Z</time><hdop>10.812</hdop><vdop>5.5</vdop><extensions><gom:speed>0.0</gom:speed></extensions></trkpt>
   <trkpt lat="59.0711783638" lon="30.0241121579"><ele>101.414</ele><time>2026-04-20T18:01:28.075Z</time><hdop>10.812</hdop><vdop>5.437</vdop><extensions><gom:speed>0.0</gom:speed></extensions></trkpt>
   <trkpt lat="59.0711783638" lon="30.0241120741"><ele>101.406</ele><time>2026-04-20T18:01:29.075Z</time><hdop>10.75</hdop><vdop>5.375</vdop><extensions><gom:speed>0.0</gom:speed></extensions></trkpt>
   <trkpt lat="59.0711783638" lon="30.0241120741"><ele>101.398</ele><time>2026-04-20T18:01:30.075Z</time><hdop>10.75</hdop><vdop>5.562</vdop><extensions><gom:speed>0.0</gom:speed></extensions></trkpt>
   <trkpt lat="59.07117828" lon="30.0241119903"><ele>101.393</ele><time>2026-04-20T18:01:31.075Z</time><hdop>10.687</hdop><vdop>5.625</vdop><extensions><gom:speed>0.0</gom:speed></extensions></trkpt>
   <trkpt lat="59.07117828" lon="30.0241120741"><ele>101.406</ele><time>2026-04-20T18:01:32.075Z</time><hdop>10.625</hdop><vdop>5.562</vdop><extensions><gom:speed>0.0</gom:speed></extensions></trkpt>
   <trkpt lat="59.0711781962" lon="30.0241121579"><ele>101.414</ele><time>2026-04-20T18:01:33.075Z</time><hdop>10.625</hdop><vdop>5.25</vdop><extensions><gom:speed>0.0</gom:speed></extensions></trkpt>
   <trkpt lat="59.0711781962" lon="30.0241121579"><ele>101.434</ele><time>2026-04-20T18:01:34.075Z</time><hdop>10.687</hdop><vdop>5.312</vdop><extensions><gom:speed>0.0</gom:speed></extensions></trkpt>
   <trkpt lat="59.07117828" lon="30.0241121579"><ele>101.46</ele><time>2026-04-20T18:01:35.075Z</time><hdop>10.687</hdop><vdop>5.375</vdop><extensions><gom:speed>0.0</gom:speed></extensions></trkpt>
   <trkpt lat="59.07117828" lon="30.0241121579"><ele>101.481</ele><time>2026-04-20T18:01:36.075Z</time><hdop>10.687</hdop><vdop>5.25</vdop><extensions><gom:speed>0.0</gom:speed></extensions></trkpt>
   <trkpt lat="59.07117828" lon="30.0241122418"><ele>101.518</ele><time>2026-04-20T18:01:37.075Z</time><hdop>10.625</hdop><vdop>5.125</vdop><extensions><gom:speed>0.0</gom:speed></extensions></trkpt>
   <trkpt lat="59.07117828" lon="30.0241124932"><ele>101.539</ele><time>2026-04-20T18:01:38.075Z</time><hdop>10.562</hdop><vdop>5.187</vdop><extensions><gom:speed>0.0</gom:speed></extensions></trkpt>
   <trkpt lat="59.07117828" lon="30.0241123256"><ele>101.545</ele><time>2026-04-20T18:01:39.075Z</time><hdop>10.562</hdop><vdop>5.125</vdop><extensions><gom:speed>0.0</gom:speed></extensions></trkpt>
   <trkpt lat="59.07117828" lon="30.0241123256"><ele>101.543</ele><time>2026-04-20T18:01:40.075Z</time><hdop>10.5</hdop><vdop>5.062</vdop><extensions><gom:speed>0.0</gom:speed></extensions></trkpt>
   <trkpt lat="59.0711783638" lon="30.0241122418"><ele>101.554</ele><time>2026-04-20T18:01:41.075Z</time><hdop>10.5</hdop><vdop>5.125</vdop><extensions><gom:speed>0.0</gom:speed></extensions></trkpt>
   <trkpt lat="59.0711784896" lon="30.0241121579"><ele>101.561</ele><time>2026-04-20T18:01:42.075Z</time><hdop>10.562</hdop><vdop>5.25</vdop><extensions><gom:speed>0.0</gom:speed></extensions></trkpt>
   <trkpt lat="59.0711784896" lon="30.0241121579"><ele>101.568</ele><time>2026-04-20T18:01:43.076Z</time><hdop>10.75</hdop><vdop>5.5</vdop><extensions><gom:speed>0.0</gom:speed></extensions></trkpt>
   <trkpt lat="59.0711785734" lon="30.0241122418"><ele>101.573</ele><time>2026-04-20T18:01:44.075Z</time><hdop>11.062</hdop><vdop>5.75</vdop><extensions><gom:speed>0.0</gom:speed></extensions></trkpt>
   <trkpt lat="59.0711785734" lon="30.0241122418"><ele>101.58</ele><time>2026-04-20T18:01:45.075Z</time><hdop>11.437</hdop><vdop>5.812</vdop><extensions><gom:speed>0.0</gom:speed></extensions></trkpt>
   <trkpt lat="59.0711785734" lon="30.0241123256"><ele>101.585</ele><time>2026-04-20T18:01:46.075Z</time><hdop>11.812</hdop><vdop>6.0</vdop><extensions><gom:speed>0.0</gom:speed></extensions></trkpt>
   <trkpt lat="59.0711785734" lon="30.0241123256"><ele>101.589</ele><time>2026-04-20T18:01:47.076Z</time><hdop>12.312</hdop><vdop>6.125</vdop><extensions><gom:speed>0.0</gom:speed></extensions></trkpt>
   <trkpt lat="59.0711785734" lon="30.0241123256"><ele>101.594</ele><time>2026-04-20T18:01:48.075Z</time><hdop>12.625</hdop><vdop>5.875</vdop><extensions><gom:speed>0.0</gom:speed></extensions></trkpt>
   <trkpt lat="59.0711785734" lon="30.0241123256"><ele>101.597</ele><time>2026-04-20T18:01:49.075Z</time><hdop>12.812</hdop><vdop>5.75</vdop><extensions><gom:speed>0.0</gom:speed></extensions></trkpt>
   <trkpt lat="59.0711785734" lon="30.0241123256"><ele>101.599</ele><time>2026-04-20T18:01:50.075Z</time><hdop>12.75</hdop><vdop>5.5</vdop><extensions><gom:speed>0.0</gom:speed></extensions></trkpt>
   <trkpt lat="59.0711785734" lon="30.0241123256"><ele>101.6</ele><time>2026-04-20T18:01:51.075Z</time><hdop>12.625</hdop><vdop>5.312</vdop><extensions><gom:speed>0.0</gom:speed></extensions></trkpt>
   <trkpt lat="59.0711785734" lon="30.0241123256"><ele>101.598</ele><time>2026-04-20T18:01:52.075Z</time><hdop>12.437</hdop><vdop>5.187</vdop><extensions><gom:speed>0.0</gom:speed></extensions></trkpt>
   <trkpt lat="59.0711785734" lon="30.0241123256"><ele>101.596</ele><time>2026-04-20T18:01:53.075Z</time><hdop>12.125</hdop><vdop>5.0</vdop><extensions><gom:speed>0.0</gom:speed></extensions></trkpt>
   <trkpt lat="59.0711785734" lon="30.0241123256"><ele>101.595</ele><time>2026-04-20T18:01:54.075Z</time><hdop>11.75</hdop><vdop>4.812</vdop><extensions><gom:speed>0.0</gom:speed></extensions></trkpt>
   <trkpt lat="59.0711785734" lon="30.0241123256"><ele>101.595</ele><time>2026-04-20T18:01:55.075Z</time><hdop>11.562</hdop><vdop>4.812</vdop><extensions><gom:speed>0.0</gom:speed></extensions></trkpt>
   <trkpt lat="59.0711785734" lon="30.0241123256"><ele>101.596</ele><time>2026-04-20T18:01:56.076Z</time><hdop>11.375</hdop><vdop>4.875</vdop><extensions><gom:speed>0.0</gom:speed></extensions></trkpt>
   <trkpt lat="59.0711785734" lon="30.0241123256"><ele>101.598</ele><time>2026-04-20T18:01:57.075Z</time><hdop>11.25</hdop><vdop>5.0</vdop><extensions><gom:speed>0.0</gom:speed></extensions></trkpt>
   <trkpt lat="59.0711785734" lon="30.0241123256"><ele>101.597</ele><time>2026-04-20T18:01:58.075Z</time><hdop>11.125</hdop><vdop>5.062</vdop><extensions><gom:speed>0.0</gom:speed></extensions></trkpt>
   <trkpt lat="59.0711785734" lon="30.0241124932"><ele>101.605</ele><time>2026-04-20T18:01:59.075Z</time><hdop>11.062</hdop><vdop>5.25</vdop><extensions><gom:speed>0.0</gom:speed></extensions></trkpt>
   <trkpt lat="59.0711785734" lon="30.0241124932"><ele>101.609</ele><time>2026-04-20T18:02:00.076Z</time><hdop>11.0</hdop><vdop>5.312</vdop><extensions><gom:speed>0.0</gom:speed></extensions></trkpt>
   <trkpt lat="59.0711786991" lon="30.024112577"><ele>101.614</ele><time>2026-04-20T18:02:01.075Z</time><hdop>11.0</hdop><vdop>5.437</vdop><extensions><gom:speed>0.0</gom:speed></extensions></trkpt>
   <trkpt lat="59.0711786991" lon="30.024112577"><ele>101.616</ele><time>2026-04-20T18:02:02.075Z</time><hdop>11.0</hdop><vdop>5.437</vdop><extensions><gom:speed>0.0</gom:speed></extensions></trkpt>
   <trkpt lat="59.0711786991" lon="30.024112577"><ele>101.615</ele><time>2026-04-20T18:02:03.075Z</time><hdop>11.062</hdop><vdop>5.437</vdop><extensions><gom:speed>0.0</gom:speed></extensions></trkpt>
   <trkpt lat="59.0711786991" lon="30.024112577"><ele>101.616</ele><time>2026-04-20T18:02:04.075Z</time><hdop>11.062</hdop><vdop>5.437</vdop><extensions><gom:speed>0.0</gom:speed></extensions></trkpt>
   <trkpt lat="59.0711787829" lon="30.024112577"><ele>101.616</ele><time>2026-04-20T18:02:05.075Z</time><hdop>11.062</hdop><vdop>5.625</vdop><extensions><gom:speed>0.0</gom:speed></extensions></trkpt>
   <trkpt lat="59.0711787829" lon="30.024112577"><ele>101.627</ele><time>2026-04-20T18:02:06.075Z</time><hdop>11.125</hdop><vdop>5.562</vdop><extensions><gom:speed>0.0</gom:speed></extensions></trkpt>
   <trkpt lat="59.0711788667" lon="30.0241126609"><ele>101.638</ele><time>2026-04-20T18:02:07.076Z</time><hdop>11.187</hdop><vdop>5.625</vdop><extensions><gom:speed>0.0</gom:speed></extensions></trkpt>
   <trkpt lat="59.0711788667" lon="30.0241126609"><ele>101.646</ele><time>2026-04-20T18:02:08.075Z</time><hdop>11.25</hdop><vdop>5.5</vdop><extensions><gom:speed>0.0</gom:speed></extensions></trkpt>
   <trkpt lat="59.0711789925" lon="30.0241127447"><ele>101.661</ele><time>2026-04-20T18:02:09.075Z</time><hdop>11.25</hdop><vdop>5.375</vdop><extensions><gom:speed>0.0</gom:speed></extensions></trkpt>
   <trkpt lat="59.0711790763" lon="30.0241128285"><ele>101.683</ele><time>2026-04-20T18:02:10.076Z</time><hdop>11.25</hdop><vdop>5.625</vdop><extensions><gom:speed>0.0</gom:speed></extensions></trkpt>
   <trkpt lat="59.0711790763" lon="30.0241129961"><ele>101.698</ele><time>2026-04-20T18:02:11.075Z</time><hdop>11.312</hdop><vdop>5.687</vdop><extensions><gom:speed>0.0</gom:speed></extensions></trkpt>
   <trkpt lat="59.0711791601" lon="30.0241129961"><ele>101.708</ele><time>2026-04-20T18:02:12.075Z</time><hdop>11.312</hdop><vdop>5.562</vdop><extensions><gom:speed>0.0</gom:speed></extensions></trkpt>
   <trkpt lat="59.0711791601" lon="30.0241129961"><ele>101.717</ele><time>2026-04-20T18:02:13.075Z</time><hdop>11.187</hdop><vdop>5.437</vdop><extensions><gom:speed>0.0</gom:speed></extensions></trkpt>
   <trkpt lat="59.0711792858" lon="30.0241129961"><ele>101.724</ele><time>2026-04-20T18:02:14.075Z</time><hdop>11.125</hdop><vdop>5.375</vdop><extensions><gom:speed>0.0</gom:speed></extensions></trkpt>
   <trkpt lat="59.0711792858" lon="30.0241129961"><ele>101.729</ele><time>2026-04-20T18:02:15.075Z</time><hdop>11.062</hdop><vdop>5.312</vdop><extensions><gom:speed>0.0</gom:speed></extensions></trkpt>
   <trkpt lat="59.0711793697" lon="30.0241128285"><ele>101.731</ele><time>2026-04-20T18:02:16.075Z</time><hdop>11.0</hdop><vdop>5.312</vdop><extensions><gom:speed>0.0</gom:speed></extensions></trkpt>
   <trkpt lat="59.0711793697" lon="30.0241128285"><ele>101.737</ele><time>2026-04-20T18:02:17.075Z</time><hdop>10.875</hdop><vdop>5.125</vdop><extensions><gom:speed>0.0</gom:speed></extensions></trkpt>
   <trkpt lat="59.0711794954" lon="30.0241127447"><ele>101.745</ele><time>2026-04-20T18:02:18.075Z</time><hdop>10.812</hdop><vdop>5.125</vdop><extensions><gom:speed>0.0</gom:speed></extensions></trkpt>
   <trkpt lat="59.0711794954" lon="30.0241127447"><ele>101.753</ele><time>2026-04-20T18:02:19.075Z</time><hdop>10.75</hdop><vdop>5.125</vdop><extensions><gom:speed>0.0</gom:speed></extensions></trkpt>
   <trkpt lat="59.0711795792" lon="30.0241127447"><ele>101.761</ele><time>2026-04-20T18:02:20.075Z</time><hdop>10.75</hdop><vdop>5.312</vdop><extensions><gom:speed>0.0</gom:speed></extensions></trkpt>
   <trkpt lat="59.0711795792" lon="30.0241126609"><ele>101.765</ele><time>2026-04-20T18:02:21.075Z</time><hdop>10.687</hdop><vdop>5.25</vdop><extensions><gom:speed>0.0</gom:speed></extensions></trkpt>
   <trkpt lat="59.0711795792" lon="30.0241126609"><ele>101.766</ele><time>2026-04-20T18:02:22.076Z</time><hdop>10.687</hdop><vdop>5.25</vdop><extensions><gom:speed>0.0</gom:speed></extensions></trkpt>
   <trkpt lat="59.071179663" lon="30.0241126609"><ele>101.767</ele><time>2026-04-20T18:02:23.076Z</time><hdop>10.687</hdop><vdop>5.25</vdop><extensions><gom:speed>0.0</gom:speed></extensions></trkpt>
   <trkpt lat="59.071179663" lon="30.024112577"><ele>101.771</ele><time>2026-04-20T18:02:24.075Z</time><hdop>10.625</hdop><vdop>5.437</vdop><extensions><gom:speed>0.0</gom:speed></extensions></trkpt>
   <trkpt lat="59.071179663" lon="30.024112577"><ele>101.779</ele><time>2026-04-20T18:02:25.075Z</time><hdop>10.687</hdop><vdop>5.5</vdop><extensions><gom:speed>0.0</gom:speed></extensions></trkpt>
   <trkpt lat="59.0711797888" lon="30.024112577"><ele>101.787</ele><time>2026-04-20T18:02:26.076Z</time><hdop>10.625</hdop><vdop>5.5</vdop><extensions><gom:speed>0.0</gom:speed></extensions></trkpt>
   <trkpt lat="59.0711797888" lon="30.024112577"><ele>101.794</ele><time>2026-04-20T18:02:27.075Z</time><hdop>10.687</hdop><vdop>5.562</vdop><extensions><gom:speed>0.0</gom:speed></extensions></trkpt>
   <trkpt lat="59.0711798726" lon="30.0241124932"><ele>101.803</ele><time>2026-04-20T18:02:28.075Z</time><hdop>10.687</hdop><vdop>5.437</vdop><extensions><gom:speed>0.0</gom:speed></extensions></trkpt>
   <trkpt lat="59.0711798726" lon="30.0241124932"><ele>101.812</ele><time>2026-04-20T18:02:29.076Z</time><hdop>10.687</hdop><vdop>5.312</vdop><extensions><gom:speed>0.0</gom:speed></extensions></trkpt>
   <trkpt lat="59.0711798726" lon="30.0241123256"><ele>101.821</ele><time>2026-04-20T18:02:30.075Z</time><hdop>10.687</hdop><vdop>5.375</vdop><extensions><gom:speed>0.0</gom:speed></extensions></trkpt>
   <trkpt lat="59.0711799983" lon="30.0241123256"><ele>101.83</ele><time>2026-04-20T18:02:31.075Z</time><hdop>10.625</hdop><vdop>5.375</vdop><extensions><gom:speed>0.0</gom:speed></extensions></trkpt>
   <trkpt lat="59.0711799983" lon="30.0241122418"><ele>101.837</ele><time>2026-04-20T18:02:32.075Z</time><hdop>10.625</hdop><vdop>5.25</vdop><extensions><gom:speed>0.0</gom:speed></extensions></trkpt>
   <trkpt lat="59.0711799983" lon="30.0241121579"><ele>101.841</ele><time>2026-04-20T18:02:33.076Z</time><hdop>10.625</hdop><vdop>5.187</vdop><extensions><gom:speed>0.0</gom:speed></extensions></trkpt>
   <trkpt lat="59.0711800821" lon="30.0241121579"><ele>101.844</ele><time>2026-04-20T18:02:34.075Z</time><hdop>10.625</hdop><vdop>5.375</vdop><extensions><gom:speed>0.0</gom:speed></extensions></trkpt>
   <trkpt lat="59.0711800821" lon="30.0241120741"><ele>101.847</ele><time>2026-04-20T18:02:35.075Z</time><hdop>10.562</hdop><vdop>5.437</vdop><extensions><gom:speed>0.0</gom:speed></extensions></trkpt>
   <trkpt lat="59.0711800821" lon="30.0241119903"><ele>101.848</ele><time>2026-04-20T18:02:36.076Z</time><hdop>10.562</hdop><vdop>5.375</vdop><extensions><gom:speed>0.0</gom:speed></extensions></trkpt>
   <trkpt lat="59.0711800821" lon="30.0241118227"><ele>101.853</ele><time>2026-04-20T18:02:37.075Z</time><hdop>10.562</hdop><vdop>5.25</vdop><extensions><gom:speed>0.0</gom:speed></extensions></trkpt>
   <trkpt lat="59.0711801659" lon="30.0241117388"><ele>101.858</ele><time>2026-04-20T18:02:38.076Z</time><hdop>10.562</hdop><vdop>5.5</vdop><extensions><gom:speed>0.0</gom:speed></extensions></trkpt>
   <trkpt lat="59.0711801659" lon="30.0241117388"><ele>101.862</ele><time>2026-04-20T18:02:39.076Z</time><hdop>10.562</hdop><vdop>5.25</vdop><extensions><gom:speed>0.0</gom:speed></extensions></trkpt>
   <trkpt lat="59.0711801659" lon="30.0241117388"><ele>101.863</ele><time>2026-04-20T18:02:40.076Z</time><hdop>10.562</hdop><vdop>5.0</vdop><extensions><gom:speed>0.0</gom:speed></extensions></trkpt>
   <trkpt lat="59.0711801659" lon="30.024111655"><ele>101.863</ele><time>2026-04-20T18:02:41.076Z</time><hdop>10.562</hdop><vdop>5.0</vdop><extensions><gom:speed>0.0</gom:speed></extensions></trkpt>
   <trkpt lat="59.0711801659" lon="30.0241117388"><ele>101.862</ele><time>2026-04-20T18:02:42.075Z</time><hdop>10.562</hdop><vdop>5.0</vdop><extensions><gom:speed>0.0</gom:speed></extensions></trkpt>
   <trkpt lat="59.0711801659" lon="30.024111655"><ele>101.858</ele><time>2026-04-20T18:02:43.075Z</time><hdop>10.562</hdop><vdop>5.312</vdop><extensions><gom:speed>0.0</gom:speed></extensions></trkpt>
   <trkpt lat="59.0711800821" lon="30.024111655"><ele>101.854</ele><time>2026-04-20T18:02:44.075Z</time><hdop>10.562</hdop><vdop>5.5</vdop><extensions><gom:speed>0.0</gom:speed></extensions></trkpt>
   <trkpt lat="59.0711801659" lon="30.024111655"><ele>101.854</ele><time>2026-04-20T18:02:45.075Z</time><hdop>10.5</hdop><vdop>5.375</vdop><extensions><gom:speed>0.0</gom:speed></extensions></trkpt>
   <trkpt lat="59.0711801659" lon="30.024111655"><ele>101.855</ele><time>2026-04-20T18:02:46.075Z</time><hdop>10.437</hdop><vdop>5.312</vdop><extensions><gom:speed>0.0</gom:speed></extensions></trkpt>
   <trkpt lat="59.0711801659" lon="30.024111655"><ele>101.851</ele><time>2026-04-20T18:02:47.075Z</time><hdop>10.437</hdop><vdop>5.312</vdop><extensions><gom:speed>0.0</gom:speed></extensions></trkpt>
   <trkpt lat="59.0711802917" lon="30.024111655"><ele>101.849</ele><time>2026-04-20T18:02:48.075Z</time><hdop>10.312</hdop><vdop>5.312</vdop><extensions><gom:speed>0.0</gom:speed></extensions></trkpt>
   <trkpt lat="59.0711802917" lon="30.024111655"><ele>101.85</ele><time>2026-04-20T18:02:49.075Z</time><hdop>10.25</hdop><vdop>5.375</vdop><extensions><gom:speed>0.0</gom:speed></extensions></trkpt>
   <trkpt lat="59.0711802917" lon="30.024111655"><ele>101.85</ele><time>2026-04-20T18:02:50.076Z</time><hdop>10.25</hdop><vdop>5.437</vdop><extensions><gom:speed>0.0</gom:speed></extensions></trkpt>
   <trkpt lat="59.0711803755" lon="30.024111655"><ele>101.849</ele><time>2026-04-20T18:02:51.076Z</time><hdop>10.25</hdop><vdop>5.375</vdop><extensions><gom:speed>0.0</gom:speed></extensions></trkpt>
   <trkpt lat="59.0711803755" lon="30.024111655"><ele>101.847</ele><time>2026-04-20T18:02:52.076Z</time><hdop>10.312</hdop><vdop>5.437</vdop><extensions><gom:speed>0.0</gom:speed></extensions></trkpt>
   <trkpt lat="59.0711803755" lon="30.024111655"><ele>101.845</ele><time>2026-04-20T18:02:53.075Z</time><hdop>10.312</hdop><vdop>5.437</vdop><extensions><gom:speed>0.0</gom:speed></extensions></trkpt>
   <trkpt lat="59.0711803755" lon="30.024111655"><ele>101.844</ele><time>2026-04-20T18:02:54.075Z</time><hdop>10.375</hdop><vdop>5.5</vdop><extensions><gom:speed>0.0</gom:speed></extensions></trkpt>
   <trkpt lat="59.0711804593" lon="30.024111655"><ele>101.846</ele><time>2026-04-20T18:02:55.075Z</time><hdop>10.375</hdop><vdop>5.437</vdop><extensions><gom:speed>0.0</gom:speed></extensions></trkpt>
   <trkpt lat="59.0711804593" lon="30.024111655"><ele>101.848</ele><time>2026-04-20T18:02:56.075Z</time><hdop>10.375</hdop><vdop>5.375</vdop><extensions><gom:speed>0.0</gom:speed></extensions></trkpt>
   <trkpt lat="59.0711804593" lon="30.0241115712"><ele>101.851</ele><time>2026-04-20T18:02:57.075Z</time><hdop>10.375</hdop><vdop>5.312</vdop><extensions><gom:speed>0.0</gom:speed></extensions></trkpt>
   <trkpt lat="59.0711804593" lon="30.0241115712"><ele>101.855</ele><time>2026-04-20T18:02:58.075Z</time><hdop>10.312</hdop><vdop>5.5</vdop><extensions><gom:speed>0.0</gom:speed></extensions></trkpt>
   <trkpt lat="59.071180585" lon="30.0241115712"><ele>101.859</ele><time>2026-04-20T18:02:59.075Z</time><hdop>10.312</hdop><vdop>5.437</vdop><extensions><gom:speed>0.0</gom:speed></extensions></trkpt>
   <trkpt lat="59.071180585" lon="30.0241115712"><ele>101.865</ele><time>2026-04-20T18:03:00.076Z</time><hdop>10.312</hdop><vdop>5.625</vdop><extensions><gom:speed>0.0</gom:speed></extensions></trkpt>
   <trkpt lat="59.0711806689" lon="30.0241115712"><ele>101.869</ele><time>2026-04-20T18:03:01.075Z</time><hdop>10.312</hdop><vdop>5.562</vdop><extensions><gom:speed>0.0</gom:speed></extensions></trkpt>
   <trkpt lat="59.0711806689" lon="30.0241115712"><ele>101.87</ele><time>2026-04-20T18:03:02.075Z</time><hdop>10.312</hdop><vdop>5.5</vdop><extensions><gom:speed>0.0</gom:speed></extensions></trkpt>
   <trkpt lat="59.0711806689" lon="30.0241115712"><ele>101.875</ele><time>2026-04-20T18:03:03.075Z</time><hdop>10.312</hdop><vdop>5.5</vdop><extensions><gom:speed>0.0</gom:speed></extensions></trkpt>
   <trkpt lat="59.0711806689" lon="30.0241115712"><ele>101.877</ele><time>2026-04-20T18:03:04.075Z</time><hdop>10.375</hdop><vdop>5.5</vdop><extensions><gom:speed>0.0</gom:speed></extensions></trkpt>
   <trkpt lat="59.0711806689" lon="30.0241115712"><ele>101.875</ele><time>2026-04-20T18:03:05.075Z</time><hdop>10.437</hdop><vdop>5.5</vdop><extensions><gom:speed>0.0</gom:speed></extensions></trkpt>
   <trkpt lat="59.0711806689" lon="30.0241114874"><ele>101.886</ele><time>2026-04-20T18:03:06.075Z</time><hdop>10.5</hdop><vdop>5.625</vdop><extensions><gom:speed>0.0</gom:speed></extensions></trkpt>
   <trkpt lat="59.0711807946" lon="30.0241113198"><ele>101.891</ele><time>2026-04-20T18:03:07.075Z</time><hdop>10.5</hdop><vdop>5.75</vdop><extensions><gom:speed>0.0</gom:speed></extensions></trkpt>
   <trkpt lat="59.0711807946" lon="30.0241112359"><ele>101.894</ele><time>2026-04-20T18:03:08.075Z</time><hdop>10.5</hdop><vdop>5.937</vdop><extensions><gom:speed>0.0</gom:speed></extensions></trkpt>
   <trkpt lat="59.0711807946" lon="30.0241112359"><ele>101.896</ele><time>2026-04-20T18:03:09.076Z</time><hdop>10.562</hdop><vdop>6.125</vdop><extensions><gom:speed>0.0</gom:speed></extensions></trkpt>
   <trkpt lat="59.0711807946" lon="30.0241111521"><ele>101.896</ele><time>2026-04-20T18:03:10.076Z</time><hdop>10.625</hdop><vdop>6.25</vdop><extensions><gom:speed>0.0</gom:speed></extensions></trkpt>
   <trkpt lat="59.0711806689" lon="30.0241111521"><ele>101.895</ele><time>2026-04-20T18:03:11.076Z</time><hdop>10.75</hdop><vdop>6.312</vdop><extensions><gom:speed>0.0</gom:speed></extensions></trkpt>
   <trkpt lat="59.0711806689" lon="30.0241110683"><ele>101.892</ele><time>2026-04-20T18:03:12.075Z</time><hdop>10.875</hdop><vdop>6.375</vdop><extensions><gom:speed>0.0</gom:speed></extensions></trkpt>
   <trkpt lat="59.0711806689" lon="30.0241109845"><ele>101.889</ele><time>2026-04-20T18:03:13.075Z</time><hdop>11.0</hdop><vdop>6.125</vdop><extensions><gom:speed>0.0</gom:speed></extensions></trkpt>
   <trkpt lat="59.0711806689" lon="30.0241108168"><ele>101.886</ele><time>2026-04-20T18:03:14.076Z</time><hdop>11.125</hdop><vdop>5.875</vdop><extensions><gom:speed>0.0</gom:speed></extensions></trkpt>
   <trkpt lat="59.0711806689" lon="30.0241108168"><ele>101.882</ele><time>2026-04-20T18:03:15.075Z</time><hdop>11.187</hdop><vdop>5.625</vdop><extensions><gom:speed>0.0</gom:speed></extensions></trkpt>
   <trkpt lat="59.0711806689" lon="30.024110733"><ele>101.877</ele><time>2026-04-20T18:03:16.075Z</time><hdop>11.187</hdop><vdop>5.5</vdop><extensions><gom:speed>0.0</gom:speed></extensions></trkpt>
   <trkpt lat="59.0711806689" lon="30.0241106492"><ele>101.871</ele><time>2026-04-20T18:03:17.075Z</time><hdop>11.125</hdop><vdop>5.25</vdop><extensions><gom:speed>0.0</gom:speed></extensions></trkpt>
   <trkpt lat="59.071180585" lon="30.0241106492"><ele>101.864</ele><time>2026-04-20T18:03:18.075Z</time><hdop>11.0</hdop><vdop>5.062</vdop><extensions><gom:speed>0.0</gom:speed></extensions></trkpt>
   <trkpt lat="59.071180585" lon="30.0241105654"><ele>101.858</ele><time>2026-04-20T18:03:19.075Z</time><hdop>10.812</hdop><vdop>4.875</vdop><extensions><gom:speed>0.0</gom:speed></extensions></trkpt>
   <trkpt lat="59.071180585" lon="30.0241104816"><ele>101.851</ele><time>2026-04-20T18:03:20.076Z</time><hdop>10.687</hdop><vdop>4.687</vdop><extensions><gom:speed>0.0</gom:speed></extensions></trkpt>
   <trkpt lat="59.0711804593" lon="30.0241103977"><ele>101.845</ele><time>2026-04-20T18:03:21.075Z</time><hdop>10.562</hdop><vdop>4.625</vdop><extensions><gom:speed>0.0</gom:speed></extensions></trkpt>
   <trkpt lat="59.0711804593" lon="30.0241102301"><ele>101.838</ele><time>2026-04-20T18:03:22.075Z</time><hdop>10.5</hdop><vdop>4.75</vdop><extensions><gom:speed>0.0</gom:speed></extensions></trkpt>
   <trkpt lat="59.0711804593" lon="30.0241101463"><ele>101.832</ele><time>2026-04-20T18:03:23.075Z</time><hdop>10.437</hdop><vdop>5.125</vdop><extensions><gom:speed>0.0</gom:speed></extensions></trkpt>
   <trkpt lat="59.0711803755" lon="30.0241100625"><ele>101.824</ele><time>2026-04-20T18:03:24.075Z</time><hdop>10.437</hdop><vdop>5.312</vdop><extensions><gom:speed>0.0</gom:speed></extensions></trkpt>
   <trkpt lat="59.0711802917" lon="30.0241100625"><ele>101.814</ele><time>2026-04-20T18:03:25.075Z</time><hdop>10.375</hdop><vdop>5.062</vdop><extensions><gom:speed>0.0</gom:speed></extensions></trkpt>
   <trkpt lat="59.0711802917" lon="30.0241099787"><ele>101.804</ele><time>2026-04-20T18:03:26.075Z</time><hdop>10.375</hdop><vdop>4.937</vdop><extensions><gom:speed>0.0</gom:speed></extensions></trkpt>
   <trkpt lat="59.0711801659" lon="30.0241099787"><ele>101.798</ele><time>2026-04-20T18:03:27.076Z</time><hdop>10.375</hdop><vdop>4.687</vdop><extensions><gom:speed>0.0</gom:speed></extensions></trkpt>
   <trkpt lat="59.0711800821" lon="30.0241098948"><ele>101.791</ele><time>2026-04-20T18:03:28.075Z</time><hdop>10.312</hdop><vdop>4.625</vdop><extensions><gom:speed>0.0</gom:speed></extensions></trkpt>
   <trkpt lat="59.0711799983" lon="30.0241098948"><ele>101.788</ele><time>2026-04-20T18:03:29.075Z</time><hdop>10.312</hdop><vdop>4.687</vdop><extensions><gom:speed>0.0</gom:speed></extensions></trkpt>
   <trkpt lat="59.0711798726" lon="30.0241097272"><ele>101.784</ele><time>2026-04-20T18:03:30.075Z</time><hdop>10.312</hdop><vdop>4.75</vdop><extensions><gom:speed>0.0</gom:speed></extensions></trkpt>
   <trkpt lat="59.0711797888" lon="30.0241097272"><ele>101.779</ele><time>2026-04-20T18:03:31.075Z</time><hdop>10.25</hdop><vdop>4.562</vdop><extensions><gom:speed>0.0</gom:speed></extensions></trkpt>
   <trkpt lat="59.071179663" lon="30.0241096434"><ele>101.774</ele><time>2026-04-20T18:03:32.075Z</time><hdop>10.25</hdop><vdop>4.375</vdop><extensions><gom:speed>0.0</gom:speed></extensions></trkpt>
   <trkpt lat="59.0711795792" lon="30.0241096434"><ele>101.769</ele><time>2026-04-20T18:03:33.075Z</time><hdop>10.25</hdop><vdop>4.25</vdop><extensions><gom:speed>0.0</gom:speed></extensions></trkpt>
   <trkpt lat="59.0711794954" lon="30.0241095596"><ele>101.764</ele><time>2026-04-20T18:03:34.076Z</time><hdop>10.25</hdop><vdop>4.0</vdop><extensions><gom:speed>0.0</gom:speed></extensions></trkpt>
   <trkpt lat="59.0711793697" lon="30.0241095596"><ele>101.758</ele><time>2026-04-20T18:03:35.076Z</time><hdop>10.187</hdop><vdop>3.875</vdop><extensions><gom:speed>0.0</gom:speed></extensions></trkpt>
   <trkpt lat="59.0711792858" lon="30.0241094757"><ele>101.751</ele><time>2026-04-20T18:03:36.075Z</time><hdop>10.187</hdop><vdop>3.812</vdop><extensions><gom:speed>0.0</gom:speed></extensions></trkpt>
   <trkpt lat="59.0711791601" lon="30.0241094757"><ele>101.747</ele><time>2026-04-20T18:03:37.075Z</time><hdop>10.125</hdop><vdop>3.687</vdop><extensions><gom:speed>0.0</gom:speed></extensions></trkpt>
   <trkpt lat="59.0711790763" lon="30.0241095596"><ele>101.749</ele><time>2026-04-20T18:03:38.075Z</time><hdop>10.125</hdop><vdop>3.687</vdop><extensions><gom:speed>0.0</gom:speed></extensions></trkpt>
   <trkpt lat="59.0711788667" lon="30.0241095596"><ele>101.751</ele><time>2026-04-20T18:03:39.075Z</time><hdop>10.125</hdop><vdop>3.75</vdop><extensions><gom:speed>0.0</gom:speed></extensions></trkpt>
   <trkpt lat="59.0711787829" lon="30.0241095596"><ele>101.753</ele><time>2026-04-20T18:03:40.075Z</time><hdop>10.125</hdop><vdop>3.687</vdop><extensions><gom:speed>0.0</gom:speed></extensions></trkpt>
   <trkpt lat="59.0711786991" lon="30.0241095596"><ele>101.754</ele><time>2026-04-20T18:03:41.075Z</time><hdop>10.125</hdop><vdop>3.75</vdop><extensions><gom:speed>0.0</gom:speed></extensions></trkpt>
   <trkpt lat="59.0711785734" lon="30.0241095596"><ele>101.754</ele><time>2026-04-20T18:03:42.075Z</time><hdop>10.125</hdop><vdop>3.562</vdop><extensions><gom:speed>0.0</gom:speed></extensions></trkpt>
   <trkpt lat="59.0711784896" lon="30.0241094757"><ele>101.755</ele><time>2026-04-20T18:03:43.075Z</time><hdop>10.125</hdop><vdop>3.5</vdop><extensions><gom:speed>0.0</gom:speed></extensions></trkpt>
   <trkpt lat="59.0711783638" lon="30.0241094757"><ele>101.756</ele><time>2026-04-20T18:03:44.075Z</time><hdop>10.062</hdop><vdop>3.5</vdop><extensions><gom:speed>0.0</gom:speed></extensions></trkpt>
   <trkpt lat="59.07117828" lon="30.0241094757"><ele>101.757</ele><time>2026-04-20T18:03:45.075Z</time><hdop>10.062</hdop><vdop>3.625</vdop><extensions><gom:speed>0.0</gom:speed></extensions></trkpt>
   <trkpt lat="59.0711781962" lon="30.0241093919"><ele>101.756</ele><time>2026-04-20T18:03:46.075Z</time><hdop>10.0</hdop><vdop>3.812</vdop><extensions><gom:speed>0.0</gom:speed></extensions></trkpt>
   <trkpt lat="59.0711780705" lon="30.0241093919"><ele>101.754</ele><time>2026-04-20T18:03:47.075Z</time><hdop>10.0</hdop><vdop>3.812</vdop><extensions><gom:speed>0.0</gom:speed></extensions></trkpt>
   <trkpt lat="59.0711779866" lon="30.0241093919"><ele>101.749</ele><time>2026-04-20T18:03:48.075Z</time><hdop>10.062</hdop><vdop>4.125</vdop><extensions><gom:speed>0.0</gom:speed></extensions></trkpt>
   <trkpt lat="59.0711545592" lon="30.0241162651"><ele>102.784</ele><time>2026-04-20T18:03:49.075Z</time><hdop>10.062</hdop><vdop>3.062</vdop><extensions><gom:speed>0.0</gom:speed></extensions></trkpt>
   <trkpt lat="59.0711343588" lon="30.0241252337"><ele>103.688</ele><time>2026-04-20T18:03:50.075Z</time><hdop>10.062</hdop><vdop>2.625</vdop><extensions><gom:speed>0.0</gom:speed></extensions></trkpt>
   <trkpt lat="59.0710989872" lon="30.0241416622"><ele>104.534</ele><time>2026-04-20T18:03:51.075Z</time><hdop>10.062</hdop><vdop>4.25</vdop><extensions><gom:speed>0.0</gom:speed></extensions></trkpt>
   <trkpt lat="59.0710813852" lon="30.0241551571"><ele>104.523</ele><time>2026-04-20T18:03:52.075Z</time><hdop>10.062</hdop><vdop>3.625</vdop><extensions><gom:speed>0.159</gom:speed></extensions></trkpt>
   <trkpt lat="59.0710605981" lon="30.0241694902"><ele>104.208</ele><time>2026-04-20T18:03:53.075Z</time><hdop>10.062</hdop><vdop>4.312</vdop><extensions><gom:speed>0.0</gom:speed></extensions></trkpt>
   <trkpt lat="59.0710509589" lon="30.024177453"><ele>103.671</ele><time>2026-04-20T18:03:54.075Z</time><hdop>10.0</hdop><vdop>4.25</vdop><extensions><gom:speed>0.0</gom:speed></extensions></trkpt>
   <trkpt lat="59.071041194" lon="30.0241875951"><ele>103.31</ele><time>2026-04-20T18:03:55.075Z</time><hdop>10.062</hdop><vdop>4.187</vdop><extensions><gom:speed>0.0</gom:speed></extensions></trkpt>
   <trkpt lat="59.0710369611" lon="30.0241873436"><ele>102.469</ele><time>2026-04-20T18:03:56.075Z</time><hdop>10.125</hdop><vdop>4.187</vdop><extensions><gom:speed>0.0</gom:speed></extensions></trkpt>
   <trkpt lat="59.0710358715" lon="30.0241814763"><ele>102.007</ele><time>2026-04-20T18:03:57.075Z</time><hdop>10.125</hdop><vdop>4.25</vdop><extensions><gom:speed>0.0</gom:speed></extensions></trkpt>
   <trkpt lat="59.0710335665" lon="30.0241813925"><ele>101.55</ele><time>2026-04-20T18:03:58.075Z</time><hdop>10.187</hdop><vdop>4.187</vdop><extensions><gom:speed>0.0</gom:speed></extensions></trkpt>
   <trkpt lat="59.071030088" lon="30.0241842423"><ele>101.472</ele><time>2026-04-20T18:03:59.075Z</time><hdop>10.187</hdop><vdop>4.062</vdop><extensions><gom:speed>0.0</gom:speed></extensions></trkpt>
   <trkpt lat="59.0710164674" lon="30.0241925404"><ele>100.938</ele><time>2026-04-20T18:04:00.075Z</time><hdop>10.125</hdop><vdop>3.187</vdop><extensions><gom:speed>0.0</gom:speed></extensions></trkpt>
   <trkpt lat="59.0710118992" lon="30.0241986592"><ele>99.839</ele><time>2026-04-20T18:04:01.075Z</time><hdop>10.062</hdop><vdop>2.875</vdop><extensions><gom:speed>0.0</gom:speed></extensions></trkpt>
   <trkpt lat="59.0710079597" lon="30.0242027663"><ele>98.615</ele><time>2026-04-20T18:04:02.076Z</time><hdop>10.062</hdop><vdop>2.625</vdop><extensions><gom:speed>0.0</gom:speed></extensions></trkpt>
   <trkpt lat="59.0710037688" lon="30.0242080469"><ele>97.441</ele><time>2026-04-20T18:04:03.075Z</time><hdop>10.0</hdop><vdop>2.5</vdop><extensions><gom:speed>0.0</gom:speed></extensions></trkpt>
   <trkpt lat="59.0710014638" lon="30.0242138304"><ele>96.626</ele><time>2026-04-20T18:04:04.075Z</time><hdop>9.937</hdop><vdop>2.5</vdop><extensions><gom:speed>0.0</gom:speed></extensions></trkpt>
   <trkpt lat="59.0709936686" lon="30.0242258166"><ele>96.066</ele><time>2026-04-20T18:04:05.075Z</time><hdop>9.937</hdop><vdop>4.437</vdop><extensions><gom:speed>0.0</gom:speed></extensions></trkpt>
   <trkpt lat="59.0709904835" lon="30.0242307619"><ele>95.639</ele><time>2026-04-20T18:04:06.075Z</time><hdop>10.0</hdop><vdop>4.375</vdop><extensions><gom:speed>0.0</gom:speed></extensions></trkpt>
   <trkpt lat="59.0709898967" lon="30.0242222962"><ele>95.186</ele><time>2026-04-20T18:04:07.075Z</time><hdop>10.0</hdop><vdop>3.625</vdop><extensions><gom:speed>0.379</gom:speed></extensions></trkpt>
   <trkpt lat="59.0709893938" lon="30.024217267"><ele>95.464</ele><time>2026-04-20T18:04:08.076Z</time><hdop>10.0</hdop><vdop>3.125</vdop><extensions><gom:speed>0.0</gom:speed></extensions></trkpt>
   <trkpt lat="59.0709888909" lon="30.0242170994"><ele>94.291</ele><time>2026-04-20T18:04:09.075Z</time><hdop>10.0</hdop><vdop>2.812</vdop><extensions><gom:speed>0.209</gom:speed></extensions></trkpt>
   <trkpt lat="59.0709905673" lon="30.0242136628"><ele>93.986</ele><time>2026-04-20T18:04:10.075Z</time><hdop>10.0</hdop><vdop>2.625</vdop><extensions><gom:speed>0.159</gom:speed></extensions></trkpt>
   <trkpt lat="59.0709905673" lon="30.0242102262"><ele>93.794</ele><time>2026-04-20T18:04:11.076Z</time><hdop>9.937</hdop><vdop>2.5</vdop><extensions><gom:speed>0.0</gom:speed></extensions></trkpt>
   <trkpt lat="59.0709890586" lon="30.024199665"><ele>93.796</ele><time>2026-04-20T18:04:12.076Z</time><hdop>10.0</hdop><vdop>4.437</vdop><extensions><gom:speed>0.0</gom:speed></extensions></trkpt>
   <trkpt lat="59.0709867954" lon="30.0241969828"><ele>94.289</ele><time>2026-04-20T18:04:13.075Z</time><hdop>10.0</hdop><vdop>3.812</vdop><extensions><gom:speed>0.609</gom:speed></extensions></trkpt>
   <trkpt lat="59.0709836941" lon="30.0242031854"><ele>95.345</ele><time>2026-04-20T18:04:14.075Z</time><hdop>10.0</hdop><vdop>3.125</vdop><extensions><gom:speed>0.419</gom:speed></extensions></trkpt>
   <trkpt lat="59.0709796708" lon="30.0242144172"><ele>95.828</ele><time>2026-04-20T18:04:15.075Z</time><hdop>10.0</hdop><vdop>2.875</vdop><extensions><gom:speed>0.639</gom:speed></extensions></trkpt>
   <trkpt lat="59.0709761923" lon="30.0242256489"><ele>96.274</ele><time>2026-04-20T18:04:16.075Z</time><hdop>10.0</hdop><vdop>2.75</vdop><extensions><gom:speed>0.409</gom:speed></extensions></trkpt>
   <trkpt lat="59.0709729653" lon="30.0242328574"><ele>96.402</ele><time>2026-04-20T18:04:17.075Z</time><hdop>10.0</hdop><vdop>2.625</vdop><extensions><gom:speed>0.719</gom:speed></extensions></trkpt>
   <trkpt lat="59.0709699897" lon="30.0242407363"><ele>96.583</ele><time>2026-04-20T18:04:18.075Z</time><hdop>9.875</hdop><vdop>2.562</vdop><extensions><gom:speed>0.599</gom:speed></extensions></trkpt>
   <trkpt lat="59.0709738873" lon="30.024246436"><ele>96.733</ele><time>2026-04-20T18:04:19.075Z</time><hdop>10.0</hdop><vdop>4.625</vdop><extensions><gom:speed>0.0</gom:speed></extensions></trkpt>
   <trkpt lat="59.0709722947" lon="30.0242510461"><ele>96.837</ele><time>2026-04-20T18:04:20.076Z</time><hdop>10.0</hdop><vdop>4.062</vdop><extensions><gom:speed>0.0</gom:speed></extensions></trkpt>
   <trkpt lat="59.0709708698" lon="30.0242583383"><ele>97.117</ele><time>2026-04-20T18:04:21.076Z</time><hdop>10.0</hdop><vdop>3.562</vdop><extensions><gom:speed>0.169</gom:speed></extensions></trkpt>
   <trkpt lat="59.0709696964" lon="30.0242670555"><ele>97.885</ele><time>2026-04-20T18:04:22.075Z</time><hdop>10.0</hdop><vdop>3.0</vdop><extensions><gom:speed>0.449</gom:speed></extensions></trkpt>
   <trkpt lat="59.0709699897" lon="30.0242750183"><ele>98.903</ele><time>2026-04-20T18:04:23.075Z</time><hdop>10.0</hdop><vdop>2.625</vdop><extensions><gom:speed>0.229</gom:speed></extensions></trkpt>
   <trkpt lat="59.0709718757" lon="30.0242818915"><ele>99.319</ele><time>2026-04-20T18:04:24.075Z</time><hdop>10.0</hdop><vdop>2.5</vdop><extensions><gom:speed>0.339</gom:speed></extensions></trkpt>
   <trkpt lat="59.0709736778" lon="30.0242890999"><ele>99.117</ele><time>2026-04-20T18:04:25.076Z</time><hdop>9.937</hdop><vdop>2.5</vdop><extensions><gom:speed>0.219</gom:speed></extensions></trkpt>
   <trkpt lat="59.0709780783" lon="30.0242957216"><ele>99.011</ele><time>2026-04-20T18:04:26.075Z</time><hdop>10.0</hdop><vdop>4.812</vdop><extensions><gom:speed>0.0</gom:speed></extensions></trkpt>
   <trkpt lat="59.0709790841" lon="30.024299242"><ele>98.952</ele><time>2026-04-20T18:04:27.075Z</time><hdop>10.125</hdop><vdop>4.875</vdop><extensions><gom:speed>0.0</gom:speed></extensions></trkpt>
   <trkpt lat="59.0709779944" lon="30.0243016728"><ele>98.937</ele><time>2026-04-20T18:04:28.076Z</time><hdop>10.25</hdop><vdop>4.687</vdop><extensions><gom:speed>0.0</gom:speed></extensions></trkpt>
   <trkpt lat="59.070975899" lon="30.0243023433"><ele>98.839</ele><time>2026-04-20T18:04:29.075Z</time><hdop>10.437</hdop><vdop>4.562</vdop><extensions><gom:speed>0.0</gom:speed></extensions></trkpt>
   <trkpt lat="59.0709742645" lon="30.0243022595"><ele>98.879</ele><time>2026-04-20T18:04:30.075Z</time><hdop>10.625</hdop><vdop>4.562</vdop><extensions><gom:speed>0.0</gom:speed></extensions></trkpt>
   <trkpt lat="59.0709729653" lon="30.0243023433"><ele>98.884</ele><time>2026-04-20T18:04:31.075Z</time><hdop>10.75</hdop><vdop>4.562</vdop><extensions><gom:speed>0.0</gom:speed></extensions></trkpt>
   <trkpt lat="59.0709723786" lon="30.0243024271"><ele>98.913</ele><time>2026-04-20T18:04:32.075Z</time><hdop>10.812</hdop><vdop>4.625</vdop><extensions><gom:speed>0.0</gom:speed></extensions></trkpt>
   <trkpt lat="59.0709713727" lon="30.0243023433"><ele>98.961</ele><time>2026-04-20T18:04:33.076Z</time><hdop>10.875</hdop><vdop>4.625</vdop><extensions><gom:speed>0.0</gom:speed></extensions></trkpt>
   <trkpt lat="59.0709709956" lon="30.0243030977"><ele>98.999</ele><time>2026-04-20T18:04:34.075Z</time><hdop>10.812</hdop><vdop>4.437</vdop><extensions><gom:speed>0.0</gom:speed></extensions></trkpt>
   <trkpt lat="59.0709724624" lon="30.0243032653"><ele>99.192</ele><time>2026-04-20T18:04:35.076Z</time><hdop>10.75</hdop><vdop>4.312</vdop><extensions><gom:speed>0.0</gom:speed></extensions></trkpt>
   <trkpt lat="59.0709737616" lon="30.0243035168"><ele>99.382</ele><time>2026-04-20T18:04:36.075Z</time><hdop>10.75</hdop><vdop>4.25</vdop><extensions><gom:speed>0.0</gom:speed></extensions></trkpt>
   <trkpt lat="59.0709748931" lon="30.0243035168"><ele>99.562</ele><time>2026-04-20T18:04:37.075Z</time><hdop>10.687</hdop><vdop>4.25</vdop><extensions><gom:speed>0.0</gom:speed></extensions></trkpt>
   <trkpt lat="59.0709753961" lon="30.0243030977"><ele>99.633</ele><time>2026-04-20T18:04:38.075Z</time><hdop>10.687</hdop><vdop>4.062</vdop><extensions><gom:speed>0.0</gom:speed></extensions></trkpt>
   <trkpt lat="59.0709755637" lon="30.0243028462"><ele>99.686</ele><time>2026-04-20T18:04:39.075Z</time><hdop>10.625</hdop><vdop>3.937</vdop><extensions><gom:speed>0.0</gom:speed></extensions></trkpt>
   <trkpt lat="59.0709755637" lon="30.0243024271"><ele>99.755</ele><time>2026-04-20T18:04:40.075Z</time><hdop>10.625</hdop><vdop>3.812</vdop><extensions><gom:speed>0.0</gom:speed></extensions></trkpt>
   <trkpt lat="59.0709755637" lon="30.0243022595"><ele>99.824</ele><time>2026-04-20T18:04:41.075Z</time><hdop>10.562</hdop><vdop>3.687</vdop><extensions><gom:speed>0.0</gom:speed></extensions></trkpt>
   <trkpt lat="59.0709753961" lon="30.0243021757"><ele>99.845</ele><time>2026-04-20T18:04:42.075Z</time><hdop>10.5</hdop><vdop>3.687</vdop><extensions><gom:speed>0.0</gom:speed></extensions></trkpt>
   <trkpt lat="59.0709753961" lon="30.0243021757"><ele>99.854</ele><time>2026-04-20T18:04:43.076Z</time><hdop>10.437</hdop><vdop>3.5</vdop><extensions><gom:speed>0.0</gom:speed></extensions></trkpt>
   <trkpt lat="59.0709778687" lon="30.0243115634"><ele>99.764</ele><time>2026-04-20T18:04:44.075Z</time><hdop>10.312</hdop><vdop>2.937</vdop><extensions><gom:speed>0.459</gom:speed></extensions></trkpt>
   <trkpt lat="59.0709810957" lon="30.0243224599"><ele>99.542</ele><time>2026-04-20T18:04:45.075Z</time><hdop>10.187</hdop><vdop>2.5</vdop><extensions><gom:speed>0.369</gom:speed></extensions></trkpt>
   <trkpt lat="59.0709859992" lon="30.0243283272"><ele>99.126</ele><time>2026-04-20T18:04:46.076Z</time><hdop>10.062</hdop><vdop>2.5</vdop><extensions><gom:speed>0.619</gom:speed></extensions></trkpt>
   <trkpt lat="59.0709884718" lon="30.0243341946"><ele>98.918</ele><time>2026-04-20T18:04:47.075Z</time><hdop>10.0</hdop><vdop>2.5</vdop><extensions><gom:speed>0.199</gom:speed></extensions></trkpt>
   <trkpt lat="59.0709889747" lon="30.0243389722"><ele>99.126</ele><time>2026-04-20T18:04:48.075Z</time><hdop>9.937</hdop><vdop>2.5</vdop><extensions><gom:speed>0.299</gom:speed></extensions></trkpt>
   <trkpt lat="59.0709862925" lon="30.0243466836"><ele>99.519</ele><time>2026-04-20T18:04:49.075Z</time><hdop>9.875</hdop><vdop>2.5</vdop><extensions><gom:speed>0.459</gom:speed></extensions></trkpt>
   <trkpt lat="59.0709797965" lon="30.0243577477"><ele>99.693</ele><time>2026-04-20T18:04:50.076Z</time><hdop>9.875</hdop><vdop>2.5</vdop><extensions><gom:speed>0.509</gom:speed></extensions></trkpt>
   <trkpt lat="59.0709723786" lon="30.0243653752"><ele>99.826</ele><time>2026-04-20T18:04:51.076Z</time><hdop>9.875</hdop><vdop>2.5</vdop><extensions><gom:speed>0.459</gom:speed></extensions></trkpt>
   <trkpt lat="59.0709641643" lon="30.02436965"><ele>99.894</ele><time>2026-04-20T18:04:52.076Z</time><hdop>9.875</hdop><vdop>2.5</vdop><extensions><gom:speed>0.599</gom:speed></extensions></trkpt>
   <trkpt lat="59.0709546927" lon="30.0243755173"><ele>99.922</ele><time>2026-04-20T18:04:53.075Z</time><hdop>9.875</hdop><vdop>2.5</vdop><extensions><gom:speed>0.819</gom:speed></extensions></trkpt>
   <trkpt lat="59.0709483644" lon="30.0243815523"><ele>99.777</ele><time>2026-04-20T18:04:54.076Z</time><hdop>9.875</hdop><vdop>2.5</vdop><extensions><gom:speed>0.329</gom:speed></extensions></trkpt>
   <trkpt lat="59.0709437963" lon="30.0243869167"><ele>99.567</ele><time>2026-04-20T18:04:55.075Z</time><hdop>9.875</hdop><vdop>2.5</vdop><extensions><gom:speed>0.359</gom:speed></extensions></trkpt>
   <trkpt lat="59.07093927" lon="30.024396053"><ele>99.153</ele><time>2026-04-20T18:04:56.075Z</time><hdop>9.875</hdop><vdop>2.5</vdop><extensions><gom:speed>0.699</gom:speed></extensions></trkpt>
   <trkpt lat="59.0709356658" lon="30.0244036805"><ele>98.864</ele><time>2026-04-20T18:04:57.076Z</time><hdop>9.875</hdop><vdop>2.5</vdop><extensions><gom:speed>0.259</gom:speed></extensions></trkpt>
   <trkpt lat="59.0709343666" lon="30.024412733"><ele>98.764</ele><time>2026-04-20T18:04:58.075Z</time><hdop>9.875</hdop><vdop>2.5</vdop><extensions><gom:speed>0.709</gom:speed></extensions></trkpt>
   <trkpt lat="59.0709349953" lon="30.0244264793"><ele>98.511</ele><time>2026-04-20T18:04:59.075Z</time><hdop>9.875</hdop><vdop>2.5</vdop><extensions><gom:speed>0.719</gom:speed></extensions></trkpt>
   <trkpt lat="59.0709353725" lon="30.0244342745"><ele>98.367</ele><time>2026-04-20T18:05:00.076Z</time><hdop>9.875</hdop><vdop>2.5</vdop><extensions><gom:speed>0.0</gom:speed></extensions></trkpt>
   <trkpt lat="59.0709342828" lon="30.02443637"><ele>98.2</ele><time>2026-04-20T18:05:01.076Z</time><hdop>9.875</hdop><vdop>2.5</vdop><extensions><gom:speed>0.0</gom:speed></extensions></trkpt>
   <trkpt lat="59.0709335704" lon="30.0244367891"><ele>98.193</ele><time>2026-04-20T18:05:02.075Z</time><hdop>9.875</hdop><vdop>2.5</vdop><extensions><gom:speed>0.0</gom:speed></extensions></trkpt>
   <trkpt lat="59.070933277" lon="30.0244386331"><ele>98.173</ele><time>2026-04-20T18:05:03.075Z</time><hdop>9.875</hdop><vdop>2.5</vdop><extensions><gom:speed>0.189</gom:speed></extensions></trkpt>
   <trkpt lat="59.0709317682" lon="30.0244417344"><ele>98.162</ele><time>2026-04-20T18:05:04.075Z</time><hdop>9.875</hdop><vdop>2.5</vdop><extensions><gom:speed>0.319</gom:speed></extensions></trkpt>
   <trkpt lat="59.070933277" lon="30.0244456739"><ele>97.985</ele><time>2026-04-20T18:05:05.075Z</time><hdop>9.875</hdop><vdop>2.5</vdop><extensions><gom:speed>0.509</gom:speed></extensions></trkpt>
   <trkpt lat="59.0709363783" lon="30.0244501163"><ele>97.793</ele><time>2026-04-20T18:05:06.075Z</time><hdop>9.875</hdop><vdop>2.5</vdop><extensions><gom:speed>0.299</gom:speed></extensions></trkpt>
   <trkpt lat="59.0709360849" lon="30.0244609289"><ele>97.555</ele><time>2026-04-20T18:05:07.075Z</time><hdop>9.875</hdop><vdop>2.5</vdop><extensions><gom:speed>0.809</gom:speed></extensions></trkpt>
   <trkpt lat="59.07093466" lon="30.024475262"><ele>97.287</ele><time>2026-04-20T18:05:08.075Z</time><hdop>9.875</hdop><vdop>2.5</vdop><extensions><gom:speed>0.589</gom:speed></extensions></trkpt>
   <trkpt lat="59.0709295889" lon="30.0244885892"><ele>97.188</ele><time>2026-04-20T18:05:09.076Z</time><hdop>9.875</hdop><vdop>2.5</vdop><extensions><gom:speed>0.699</gom:speed></extensions></trkpt>
   <trkpt lat="59.0709231768" lon="30.0245019164"><ele>97.052</ele><time>2026-04-20T18:05:10.075Z</time><hdop>9.875</hdop><vdop>2.5</vdop><extensions><gom:speed>0.579</gom:speed></extensions></trkpt>
   <trkpt lat="59.0709190697" lon="30.0245084543"><ele>96.956</ele><time>2026-04-20T18:05:11.075Z</time><hdop>9.875</hdop><vdop>2.5</vdop><extensions><gom:speed>0.0</gom:speed></extensions></trkpt>
   <trkpt lat="59.070915675" lon="30.0245117233"><ele>96.841</ele><time>2026-04-20T18:05:12.075Z</time><hdop>9.875</hdop><vdop>2.5</vdop><extensions><gom:speed>0.0</gom:speed></extensions></trkpt>
   <trkpt lat="59.0709096819" lon="30.024520189"><ele>96.773</ele><time>2026-04-20T18:05:13.075Z</time><hdop>9.875</hdop><vdop>2.5</vdop><extensions><gom:speed>0.849</gom:speed></extensions></trkpt>
   <trkpt lat="59.0709019706" lon="30.0245309178"><ele>96.749</ele><time>2026-04-20T18:05:14.075Z</time><hdop>9.875</hdop><vdop>2.5</vdop><extensions><gom:speed>0.569</gom:speed></extensions></trkpt>
   <trkpt lat="59.0708968995" lon="30.0245390483"><ele>96.841</ele><time>2026-04-20T18:05:15.075Z</time><hdop>9.875</hdop><vdop>2.5</vdop><extensions><gom:speed>0.359</gom:speed></extensions></trkpt>
   <trkpt lat="59.0708937982" lon="30.024552627"><ele>97.016</ele><time>2026-04-20T18:05:16.075Z</time><hdop>9.875</hdop><vdop>2.5</vdop><extensions><gom:speed>0.759</gom:speed></extensions></trkpt>
   <trkpt lat="59.0708935887" lon="30.0245708995"><ele>97.127</ele><time>2026-04-20T18:05:17.075Z</time><hdop>9.875</hdop><vdop>2.5</vdop><extensions><gom:speed>0.879</gom:speed></extensions></trkpt>
   <trkpt lat="59.0708942592" lon="30.0245906808"><ele>97.25</ele><time>2026-04-20T18:05:18.075Z</time><hdop>9.875</hdop><vdop>2.5</vdop><extensions><gom:speed>0.909</gom:speed></extensions></trkpt>
   <trkpt lat="59.0708944688" lon="30.024610043"><ele>97.46</ele><time>2026-04-20T18:05:19.075Z</time><hdop>9.875</hdop><vdop>2.5</vdop><extensions><gom:speed>0.719</gom:speed></extensions></trkpt>
   <trkpt lat="59.0708935887" lon="30.0246229511"><ele>97.506</ele><time>2026-04-20T18:05:20.075Z</time><hdop>9.875</hdop><vdop>2.5</vdop><extensions><gom:speed>0.289</gom:speed></extensions></trkpt>
   <trkpt lat="59.0708920799" lon="30.0246349372"><ele>97.636</ele><time>2026-04-20T18:05:21.075Z</time><hdop>9.875</hdop><vdop>2.5</vdop><extensions><gom:speed>0.579</gom:speed></extensions></trkpt>
   <trkpt lat="59.0708910741" lon="30.024645247"><ele>97.234</ele><time>2026-04-20T18:05:22.075Z</time><hdop>9.875</hdop><vdop>2.5</vdop><extensions><gom:speed>0.0</gom:speed></extensions></trkpt>
   <trkpt lat="59.0708910741" lon="30.024654048"><ele>96.98</ele><time>2026-04-20T18:05:23.076Z</time><hdop>9.875</hdop><vdop>2.5</vdop><extensions><gom:speed>0.419</gom:speed></extensions></trkpt>
   <trkpt lat="59.070891577" lon="30.0246635195"><ele>96.688</ele><time>2026-04-20T18:05:24.075Z</time><hdop>9.875</hdop><vdop>2.5</vdop><extensions><gom:speed>0.389</gom:speed></extensions></trkpt>
   <trkpt lat="59.0708951812" lon="30.0246338476"><ele>96.369</ele><time>2026-04-20T18:05:25.075Z</time><hdop>8.937</hdop><vdop>2.625</vdop><extensions><gom:speed>0.606</gom:speed></extensions></trkpt>
   <trkpt lat="59.0708926667" lon="30.0246412237"><ele>96.178</ele><time>2026-04-20T18:05:25.977Z</time><hdop>8.062</hdop><vdop>2.625</vdop><extensions><gom:speed>0.557</gom:speed></extensions></trkpt>
   <trkpt lat="59.0708898587" lon="30.0246544671"><ele>95.888</ele><time>2026-04-20T18:05:26.914Z</time><hdop>6.75</hdop><vdop>2.625</vdop><extensions><gom:speed>0.601</gom:speed></extensions></trkpt>
   <trkpt lat="59.0708899845" lon="30.0246722367"><ele>95.583</ele><time>2026-04-20T18:05:27.793Z</time><hdop>5.75</hdop><vdop>2.562</vdop><extensions><gom:speed>0.73</gom:speed></extensions></trkpt>
   <trkpt lat="59.0708906969" lon="30.0246956222"><ele>95.446</ele><time>2026-04-20T18:05:28.859Z</time><hdop>5.062</hdop><vdop>2.562</vdop><extensions><gom:speed>0.83</gom:speed></extensions></trkpt>
   <trkpt lat="59.0708862964" lon="30.0247172475"><ele>95.477</ele><time>2026-04-20T18:05:29.797Z</time><hdop>4.562</hdop><vdop>2.5</vdop><extensions><gom:speed>0.852</gom:speed></extensions></trkpt>
   <trkpt lat="59.0708817702" lon="30.0247322511"><ele>95.6</ele><time>2026-04-20T18:05:30.814Z</time><hdop>4.625</hdop><vdop>2.625</vdop><extensions><gom:speed>0.845</gom:speed></extensions></trkpt>
   <trkpt lat="59.0708777888" lon="30.0247419741"><ele>95.851</ele><time>2026-04-20T18:05:31.593Z</time><hdop>4.687</hdop><vdop>2.625</vdop><extensions><gom:speed>0.765</gom:speed></extensions></trkpt>
   <trkpt lat="59.0708754838" lon="30.0247468357"><ele>96.266</ele><time>2026-04-20T18:05:32.075Z</time><hdop>4.75</hdop><vdop>2.687</vdop><extensions><gom:speed>0.736</gom:speed></extensions></trkpt>
   <trkpt lat="59.0708724663" lon="30.0247583189"><ele>96.672</ele><time>2026-04-20T18:05:33.075Z</time><hdop>4.812</hdop><vdop>2.625</vdop><extensions><gom:speed>0.686</gom:speed></extensions></trkpt>
   <trkpt lat="59.0708720891" lon="30.0247746636"><ele>97.291</ele><time>2026-04-20T18:05:34.019Z</time><hdop>4.875</hdop><vdop>6.312</vdop><extensions><gom:speed>0.81</gom:speed></extensions></trkpt>
   <trkpt lat="59.0708684849" lon="30.0247835484"><ele>97.769</ele><time>2026-04-20T18:05:35.075Z</time><hdop>5.0</hdop><vdop>6.187</vdop><extensions><gom:speed>0.682</gom:speed></extensions></trkpt>
   <trkpt lat="59.0708619889" lon="30.0247821235"><ele>98.129</ele><time>2026-04-20T18:05:36.033Z</time><hdop>5.187</hdop><vdop>6.0</vdop><extensions><gom:speed>0.527</gom:speed></extensions></trkpt>
   <trkpt lat="59.0708620727" lon="30.0247776811"><ele>98.348</ele><time>2026-04-20T18:05:37.075Z</time><hdop>5.312</hdop><vdop>5.875</vdop><extensions><gom:speed>0.387</gom:speed></extensions></trkpt>
   <trkpt lat="59.070863791" lon="30.0247714784"><ele>98.553</ele><time>2026-04-20T18:05:38.046Z</time><hdop>5.437</hdop><vdop>5.625</vdop><extensions><gom:speed>0.258</gom:speed></extensions></trkpt>
   <trkpt lat="59.0708646711" lon="30.0247706403"><ele>98.753</ele><time>2026-04-20T18:05:39.075Z</time><hdop>5.437</hdop><vdop>5.375</vdop><extensions><gom:speed>0.205</gom:speed></extensions></trkpt>
   <trkpt lat="59.0708655931" lon="30.0247702212"><ele>98.887</ele><time>2026-04-20T18:05:39.942Z</time><hdop>5.375</hdop><vdop>5.25</vdop><extensions><gom:speed>0.164</gom:speed></extensions></trkpt>
   <trkpt lat="59.0708656769" lon="30.0247686286"><ele>99.019</ele><time>2026-04-20T18:05:41.008Z</time><hdop>5.375</hdop><vdop>5.187</vdop><extensions><gom:speed>0.11</gom:speed></extensions></trkpt>
   <trkpt lat="59.0708658865" lon="30.0247680419"><ele>99.135</ele><time>2026-04-20T18:05:41.957Z</time><hdop>5.312</hdop><vdop>5.187</vdop><extensions><gom:speed>0.083</gom:speed></extensions></trkpt>
   <trkpt lat="59.0708657608" lon="30.0247690477"><ele>99.247</ele><time>2026-04-20T18:05:43.076Z</time><hdop>5.25</hdop><vdop>4.937</vdop><extensions><gom:speed>0.073</gom:speed></extensions></trkpt>
   <trkpt lat="59.0708652998" lon="30.0247700535"><ele>99.354</ele><time>2026-04-20T18:05:43.970Z</time><hdop>5.187</hdop><vdop>4.75</vdop><extensions><gom:speed>0.06</gom:speed></extensions></trkpt>
   <trkpt lat="59.0708648807" lon="30.0247719814"><ele>99.491</ele><time>2026-04-20T18:05:45.036Z</time><hdop>5.187</hdop><vdop>4.625</vdop><extensions><gom:speed>0.066</gom:speed></extensions></trkpt>
   <trkpt lat="59.0708645873" lon="30.0247708917"><ele>99.596</ele><time>2026-04-20T18:05:45.983Z</time><hdop>5.312</hdop><vdop>4.5</vdop><extensions><gom:speed>0.07</gom:speed></extensions></trkpt>
   <trkpt lat="59.0708641682" lon="30.0247689639"><ele>99.66</ele><time>2026-04-20T18:05:46.540Z</time><hdop>5.437</hdop><vdop>4.5</vdop><extensions><gom:speed>0.066</gom:speed></extensions></trkpt>
   <trkpt lat="59.0708636653" lon="30.0247682933"><ele>99.721</ele><time>2026-04-20T18:05:47.050Z</time><hdop>5.5</hdop><vdop>4.375</vdop><extensions><gom:speed>0.109</gom:speed></extensions></trkpt>
   <trkpt lat="59.0708636653" lon="30.024767958"><ele>99.758</ele><time>2026-04-20T18:05:47.523Z</time><hdop>5.562</hdop><vdop>4.375</vdop><extensions><gom:speed>0.067</gom:speed></extensions></trkpt>
   <trkpt lat="59.0708633719" lon="30.024767958"><ele>99.812</ele><time>2026-04-20T18:05:47.998Z</time><hdop>5.687</hdop><vdop>4.312</vdop><extensions><gom:speed>0.093</gom:speed></extensions></trkpt>
   <trkpt lat="59.0708639586" lon="30.0247695506"><ele>99.843</ele><time>2026-04-20T18:05:48.958Z</time><hdop>5.75</hdop><vdop>4.312</vdop><extensions><gom:speed>0.112</gom:speed></extensions></trkpt>
   <trkpt lat="59.0708643777" lon="30.0247711432"><ele>99.913</ele><time>2026-04-20T18:05:50.011Z</time><hdop>5.812</hdop><vdop>4.25</vdop><extensions><gom:speed>0.129</gom:speed></extensions></trkpt>
   <trkpt lat="59.0708642939" lon="30.0247722328"><ele>99.947</ele><time>2026-04-20T18:05:50.959Z</time><hdop>5.937</hdop><vdop>4.187</vdop><extensions><gom:speed>0.141</gom:speed></extensions></trkpt>
   <trkpt lat="59.0708640844" lon="30.0247742445"><ele>99.987</ele><time>2026-04-20T18:05:52.025Z</time><hdop>6.0</hdop><vdop>4.125</vdop><extensions><gom:speed>0.194</gom:speed></extensions></trkpt>
   <trkpt lat="59.0708635815" lon="30.0247751665"><ele>100.012</ele><time>2026-04-20T18:05:52.973Z</time><hdop>6.187</hdop><vdop>4.062</vdop><extensions><gom:speed>0.206</gom:speed></extensions></trkpt>
   <trkpt lat="59.0708650902" lon="30.0247753341"><ele>100.026</ele><time>2026-04-20T18:05:53.683Z</time><hdop>6.125</hdop><vdop>4.062</vdop><extensions><gom:speed>0.135</gom:speed></extensions></trkpt>
   <trkpt lat="59.0708666828" lon="30.0247774296"><ele>100.033</ele><time>2026-04-20T18:05:54.986Z</time><hdop>6.125</hdop><vdop>4.062</vdop><extensions><gom:speed>0.101</gom:speed></extensions></trkpt>
   <trkpt lat="59.0708669761" lon="30.0247779325"><ele>100.037</ele><time>2026-04-20T18:05:55.473Z</time><hdop>6.062</hdop><vdop>4.062</vdop><extensions><gom:speed>0.063</gom:speed></extensions></trkpt>
   <trkpt lat="59.07086706" lon="30.0247795251"><ele>100.034</ele><time>2026-04-20T18:05:56.053Z</time><hdop>6.0</hdop><vdop>3.937</vdop><extensions><gom:speed>0.105</gom:speed></extensions></trkpt>
   <trkpt lat="59.0708676886" lon="30.0247796927"><ele>100.053</ele><time>2026-04-20T18:05:57.000Z</time><hdop>6.0</hdop><vdop>3.812</vdop><extensions><gom:speed>0.101</gom:speed></extensions></trkpt>
   <trkpt lat="59.0708694907" lon="30.0247778487"><ele>100.07</ele><time>2026-04-20T18:05:57.948Z</time><hdop>5.875</hdop><vdop>3.812</vdop><extensions><gom:speed>0.086</gom:speed></extensions></trkpt>
   <trkpt lat="59.0708711671" lon="30.0247761723"><ele>100.083</ele><time>2026-04-20T18:05:59.014Z</time><hdop>5.812</hdop><vdop>3.812</vdop><extensions><gom:speed>0.087</gom:speed></extensions></trkpt>
   <trkpt lat="59.0708715862" lon="30.0247760885"><ele>100.091</ele><time>2026-04-20T18:05:59.844Z</time><hdop>5.75</hdop><vdop>3.812</vdop><extensions><gom:speed>0.096</gom:speed></extensions></trkpt>
   <trkpt lat="59.0708737655" lon="30.024776759"><ele>100.088</ele><time>2026-04-20T18:06:01.029Z</time><hdop>5.687</hdop><vdop>4.125</vdop><extensions><gom:speed>0.091</gom:speed></extensions></trkpt>
   <trkpt lat="59.0708740588" lon="30.0247756694"><ele>100.084</ele><time>2026-04-20T18:06:01.976Z</time><hdop>5.625</hdop><vdop>4.125</vdop><extensions><gom:speed>0.069</gom:speed></extensions></trkpt>
   <trkpt lat="59.0708747713" lon="30.0247734901"><ele>100.078</ele><time>2026-04-20T18:06:03.042Z</time><hdop>5.625</hdop><vdop>4.187</vdop><extensions><gom:speed>0.071</gom:speed></extensions></trkpt>
   <trkpt lat="59.0708745618" lon="30.0247728196"><ele>100.075</ele><time>2026-04-20T18:06:03.989Z</time><hdop>5.562</hdop><vdop>4.312</vdop><extensions><gom:speed>0.077</gom:speed></extensions></trkpt>
   <trkpt lat="59.0708745618" lon="30.0247741607"><ele>100.078</ele><time>2026-04-20T18:06:05.056Z</time><hdop>5.562</hdop><vdop>4.312</vdop><extensions><gom:speed>0.103</gom:speed></extensions></trkpt>
   <trkpt lat="59.0708751904" lon="30.0247754179"><ele>100.076</ele><time>2026-04-20T18:06:06.003Z</time><hdop>5.562</hdop><vdop>4.437</vdop><extensions><gom:speed>0.07</gom:speed></extensions></trkpt>
   <trkpt lat="59.0708745618" lon="30.02477634"><ele>100.08</ele><time>2026-04-20T18:06:06.951Z</time><hdop>5.687</hdop><vdop>4.5</vdop><extensions><gom:speed>0.071</gom:speed></extensions></trkpt>
   <trkpt lat="59.0708750647" lon="30.024777262"><ele>100.084</ele><time>2026-04-20T18:06:08.018Z</time><hdop>5.75</hdop><vdop>4.625</vdop><extensions><gom:speed>0.085</gom:speed></extensions></trkpt>
   <trkpt lat="59.0708754838" lon="30.0247771781"><ele>100.088</ele><time>2026-04-20T18:06:08.966Z</time><hdop>5.875</hdop><vdop>4.375</vdop><extensions><gom:speed>0.072</gom:speed></extensions></trkpt>
   <trkpt lat="59.0708761962" lon="30.0247765914"><ele>100.102</ele><time>2026-04-20T18:06:10.075Z</time><hdop>5.875</hdop><vdop>4.312</vdop><extensions><gom:speed>0.11</gom:speed></extensions></trkpt>
   <trkpt lat="59.0708766991" lon="30.0247766752"><ele>100.109</ele><time>2026-04-20T18:06:11.076Z</time><hdop>5.875</hdop><vdop>4.5</vdop><extensions><gom:speed>0.139</gom:speed></extensions></trkpt>
   <trkpt lat="59.0708770763" lon="30.0247769267"><ele>100.119</ele><time>2026-04-20T18:06:12.075Z</time><hdop>5.75</hdop><vdop>4.625</vdop><extensions><gom:speed>0.176</gom:speed></extensions></trkpt>
   <trkpt lat="59.0708777888" lon="30.0247769267"><ele>100.121</ele><time>2026-04-20T18:06:13.075Z</time><hdop>5.562</hdop><vdop>4.562</vdop><extensions><gom:speed>0.203</gom:speed></extensions></trkpt>
   <trkpt lat="59.0708780822" lon="30.0247765914"><ele>100.123</ele><time>2026-04-20T18:06:14.075Z</time><hdop>5.375</hdop><vdop>4.625</vdop><extensions><gom:speed>0.224</gom:speed></extensions></trkpt>
   <trkpt lat="59.0708787946" lon="30.02477634"><ele>100.127</ele><time>2026-04-20T18:06:15.076Z</time><hdop>5.187</hdop><vdop>4.562</vdop><extensions><gom:speed>0.236</gom:speed></extensions></trkpt>
   <trkpt lat="59.0708791718" lon="30.0247768429"><ele>100.1</ele><time>2026-04-20T18:06:16.075Z</time><hdop>5.0</hdop><vdop>4.5</vdop><extensions><gom:speed>0.24</gom:speed></extensions></trkpt>
   <trkpt lat="59.0708796747" lon="30.0247766752"><ele>100.068</ele><time>2026-04-20T18:06:17.076Z</time><hdop>4.812</hdop><vdop>4.5</vdop><extensions><gom:speed>0.256</gom:speed></extensions></trkpt>
   <trkpt lat="59.0708800938" lon="30.0247760885"><ele>100.04</ele><time>2026-04-20T18:06:18.075Z</time><hdop>4.75</hdop><vdop>4.437</vdop><extensions><gom:speed>0.277</gom:speed></extensions></trkpt>
   <trkpt lat="59.0708806805" lon="30.0247751665"><ele>100.015</ele><time>2026-04-20T18:06:19.075Z</time><hdop>4.687</hdop><vdop>4.625</vdop><extensions><gom:speed>0.302</gom:speed></extensions></trkpt>
   <trkpt lat="59.0708809739" lon="30.0247745798"><ele>99.995</ele><time>2026-04-20T18:06:20.075Z</time><hdop>4.687</hdop><vdop>4.812</vdop><extensions><gom:speed>0.311</gom:speed></extensions></trkpt>
   <trkpt lat="59.070881393" lon="30.0247737416"><ele>99.979</ele><time>2026-04-20T18:06:21.075Z</time><hdop>4.687</hdop><vdop>4.687</vdop><extensions><gom:speed>0.339</gom:speed></extensions></trkpt>
   <trkpt lat="59.0708817702" lon="30.0247722328"><ele>99.966</ele><time>2026-04-20T18:06:22.075Z</time><hdop>4.75</hdop><vdop>4.687</vdop><extensions><gom:speed>0.383</gom:speed></extensions></trkpt>
   <trkpt lat="59.0708823988" lon="30.0247707241"><ele>99.956</ele><time>2026-04-20T18:06:23.076Z</time><hdop>4.812</hdop><vdop>4.625</vdop><extensions><gom:speed>0.389</gom:speed></extensions></trkpt>
   <trkpt lat="59.0708823988" lon="30.0247702212"><ele>99.948</ele><time>2026-04-20T18:06:24.075Z</time><hdop>4.875</hdop><vdop>4.687</vdop><extensions><gom:speed>0.383</gom:speed></extensions></trkpt>
   <trkpt lat="59.0708822731" lon="30.0247703888"><ele>99.944</ele><time>2026-04-20T18:06:24.602Z</time><hdop>4.937</hdop><vdop>4.687</vdop><extensions><gom:speed>0.382</gom:speed></extensions></trkpt>
   <trkpt lat="59.0708833628" lon="30.0247691315"><ele>99.94</ele><time>2026-04-20T18:06:25.075Z</time><hdop>5.0</hdop><vdop>4.937</vdop><extensions><gom:speed>0.434</gom:speed></extensions></trkpt>
   <trkpt lat="59.0708843686" lon="30.0247676228"><ele>99.938</ele><time>2026-04-20T18:06:26.075Z</time><hdop>5.187</hdop><vdop>5.625</vdop><extensions><gom:speed>0.513</gom:speed></extensions></trkpt>
   <trkpt lat="59.0708858773" lon="30.0247655273"><ele>99.939</ele><time>2026-04-20T18:06:27.076Z</time><hdop>5.375</hdop><vdop>6.062</vdop><extensions><gom:speed>0.565</gom:speed></extensions></trkpt>
   <trkpt lat="59.0708873861" lon="30.0247635995"><ele>99.939</ele><time>2026-04-20T18:06:28.076Z</time><hdop>5.625</hdop><vdop>5.875</vdop><extensions><gom:speed>0.582</gom:speed></extensions></trkpt>
   <trkpt lat="59.0708883919" lon="30.0247625936"><ele>99.94</ele><time>2026-04-20T18:06:29.076Z</time><hdop>6.062</hdop><vdop>5.75</vdop><extensions><gom:speed>0.558</gom:speed></extensions></trkpt>
   <trkpt lat="59.0708890624" lon="30.0247631804"><ele>99.941</ele><time>2026-04-20T18:06:30.075Z</time><hdop>6.5</hdop><vdop>5.875</vdop><extensions><gom:speed>0.521</gom:speed></extensions></trkpt>
   <trkpt lat="59.0708885595" lon="30.0247639347"><ele>99.942</ele><time>2026-04-20T18:06:30.763Z</time><hdop>6.75</hdop><vdop>5.875</vdop><extensions><gom:speed>0.516</gom:speed></extensions></trkpt>
   <trkpt lat="59.0708887691" lon="30.0247643538"><ele>99.956</ele><time>2026-04-20T18:06:32.075Z</time><hdop>7.375</hdop><vdop>6.125</vdop><extensions><gom:speed>0.467</gom:speed></extensions></trkpt>
   <trkpt lat="59.0708882662" lon="30.0247652758"><ele>99.975</ele><time>2026-04-20T18:06:33.075Z</time><hdop>7.625</hdop><vdop>6.125</vdop><extensions><gom:speed>0.502</gom:speed></extensions></trkpt>
   <trkpt lat="59.0708883919" lon="30.0247666169"><ele>99.988</ele><time>2026-04-20T18:06:34.076Z</time><hdop>7.75</hdop><vdop>5.937</vdop><extensions><gom:speed>0.542</gom:speed></extensions></trkpt>
   <trkpt lat="59.0708890624" lon="30.0247664493"><ele>100.002</ele><time>2026-04-20T18:06:35.075Z</time><hdop>7.812</hdop><vdop>5.875</vdop><extensions><gom:speed>0.617</gom:speed></extensions></trkpt>
   <trkpt lat="59.0708903616" lon="30.0247654435"><ele>100.016</ele><time>2026-04-20T18:06:36.076Z</time><hdop>8.0</hdop><vdop>5.625</vdop><extensions><gom:speed>0.674</gom:speed></extensions></trkpt>
   <trkpt lat="59.0708914932" lon="30.0247643538"><ele>100.026</ele><time>2026-04-20T18:06:37.076Z</time><hdop>8.187</hdop><vdop>5.437</vdop><extensions><gom:speed>0.72</gom:speed></extensions></trkpt>
   <trkpt lat="59.0708932953" lon="30.0247636833"><ele>100.035</ele><time>2026-04-20T18:06:38.075Z</time><hdop>8.562</hdop><vdop>5.312</vdop><extensions><gom:speed>0.758</gom:speed></extensions></trkpt>
   <trkpt lat="59.0708920799" lon="30.0247648567"><ele>100.043</ele><time>2026-04-20T18:06:39.075Z</time><hdop>8.75</hdop><vdop>5.25</vdop><extensions><gom:speed>0.723</gom:speed></extensions></trkpt>
   <trkpt lat="59.0708894815" lon="30.0247669522"><ele>100.048</ele><time>2026-04-20T18:06:40.076Z</time><hdop>9.0</hdop><vdop>5.375</vdop><extensions><gom:speed>0.708</gom:speed></extensions></trkpt>
   <trkpt lat="59.0708875956" lon="30.0247685448"><ele>100.052</ele><time>2026-04-20T18:06:41.075Z</time><hdop>9.187</hdop><vdop>5.437</vdop><extensions><gom:speed>0.706</gom:speed></extensions></trkpt>
   <trkpt lat="59.0708868832" lon="30.0247707241"><ele>100.055</ele><time>2026-04-20T18:06:42.075Z</time><hdop>9.437</hdop><vdop>5.375</vdop><extensions><gom:speed>0.744</gom:speed></extensions></trkpt>
   <trkpt lat="59.0708867993" lon="30.0247729872"><ele>100.057</ele><time>2026-04-20T18:06:43.075Z</time><hdop>9.562</hdop><vdop>5.312</vdop><extensions><gom:speed>0.712</gom:speed></extensions></trkpt>
   <trkpt lat="59.0708856678" lon="30.0247733225"><ele>100.058</ele><time>2026-04-20T18:06:43.556Z</time><hdop>9.687</hdop><vdop>5.312</vdop><extensions><gom:speed>0.712</gom:speed></extensions></trkpt>
   <trkpt lat="59.0708861707" lon="30.0247756694"><ele>100.059</ele><time>2026-04-20T18:06:44.075Z</time><hdop>9.625</hdop><vdop>5.062</vdop><extensions><gom:speed>0.505</gom:speed></extensions></trkpt>
   <trkpt lat="59.0708844943" lon="30.02477634"><ele>100.061</ele><time>2026-04-20T18:06:45.075Z</time><hdop>9.5</hdop><vdop>5.062</vdop><extensions><gom:speed>0.42</gom:speed></extensions></trkpt>
   <trkpt lat="59.0708832789" lon="30.0247773458"><ele>100.062</ele><time>2026-04-20T18:06:46.076Z</time><hdop>9.312</hdop><vdop>5.187</vdop><extensions><gom:speed>0.376</gom:speed></extensions></trkpt>
   <trkpt lat="59.0708825665" lon="30.0247786869"><ele>100.063</ele><time>2026-04-20T18:06:47.075Z</time><hdop>9.062</hdop><vdop>5.437</vdop><extensions><gom:speed>0.343</gom:speed></extensions></trkpt>
   <trkpt lat="59.0708816864" lon="30.0247798604"><ele>100.063</ele><time>2026-04-20T18:06:48.076Z</time><hdop>8.562</hdop><vdop>5.25</vdop><extensions><gom:speed>0.324</gom:speed></extensions></trkpt>
   <trkpt lat="59.0708817702" lon="30.0247804471"><ele>100.062</ele><time>2026-04-20T18:06:48.768Z</time><hdop>8.312</hdop><vdop>5.25</vdop><extensions><gom:speed>0.324</gom:speed></extensions></trkpt>
   <trkpt lat="59.0708799681" lon="30.0247812853"><ele>100.062</ele><time>2026-04-20T18:06:50.076Z</time><hdop>8.062</hdop><vdop>5.0</vdop><extensions><gom:speed>0.312</gom:speed></extensions></trkpt>
   <trkpt lat="59.0708789623" lon="30.0247813691"><ele>100.062</ele><time>2026-04-20T18:06:51.075Z</time><hdop>7.937</hdop><vdop>5.0</vdop><extensions><gom:speed>0.332</gom:speed></extensions></trkpt>
   <trkpt lat="59.0708783755" lon="30.0247812853"><ele>100.061</ele><time>2026-04-20T18:06:52.075Z</time><hdop>7.812</hdop><vdop>5.062</vdop><extensions><gom:speed>0.335</gom:speed></extensions></trkpt>
   <trkpt lat="59.0708779983" lon="30.0247810338"><ele>100.06</ele><time>2026-04-20T18:06:53.075Z</time><hdop>7.687</hdop><vdop>4.937</vdop><extensions><gom:speed>0.351</gom:speed></extensions></trkpt>
   <trkpt lat="59.0708772859" lon="30.0247824587"><ele>100.059</ele><time>2026-04-20T18:06:54.075Z</time><hdop>7.5</hdop><vdop>4.812</vdop><extensions><gom:speed>0.338</gom:speed></extensions></trkpt>
   <trkpt lat="59.070876783" lon="30.0247826264"><ele>100.058</ele><time>2026-04-20T18:06:54.928Z</time><hdop>7.437</hdop><vdop>4.812</vdop><extensions><gom:speed>0.317</gom:speed></extensions></trkpt>
   <trkpt lat="59.0708751904" lon="30.0247858953"><ele>100.059</ele><time>2026-04-20T18:06:56.075Z</time><hdop>7.187</hdop><vdop>4.5</vdop><extensions><gom:speed>0.348</gom:speed></extensions></trkpt>
   <trkpt lat="59.0708744779" lon="30.0247865659"><ele>100.061</ele><time>2026-04-20T18:06:57.075Z</time><hdop>7.062</hdop><vdop>4.312</vdop><extensions><gom:speed>0.326</gom:speed></extensions></trkpt>
   <trkpt lat="59.0708731787" lon="30.0247861468"><ele>100.062</ele><time>2026-04-20T18:06:58.075Z</time><hdop>6.875</hdop><vdop>4.25</vdop><extensions><gom:speed>0.32</gom:speed></extensions></trkpt>
   <trkpt lat="59.0708724663" lon="30.0247845542"><ele>100.062</ele><time>2026-04-20T18:06:58.998Z</time><hdop>6.562</hdop><vdop>4.25</vdop><extensions><gom:speed>0.321</gom:speed></extensions></trkpt>
   <trkpt lat="59.07087167" lon="30.0247833808"><ele>100.062</ele><time>2026-04-20T18:06:59.838Z</time><hdop>6.312</hdop><vdop>4.062</vdop><extensions><gom:speed>0.347</gom:speed></extensions></trkpt>
   <trkpt lat="59.0708703708" lon="30.0247826264"><ele>100.063</ele><time>2026-04-20T18:07:00.914Z</time><hdop>6.062</hdop><vdop>4.125</vdop><extensions><gom:speed>0.4</gom:speed></extensions></trkpt>
   <trkpt lat="59.0708689878" lon="30.0247821235"><ele>100.063</ele><time>2026-04-20T18:07:01.881Z</time><hdop>5.812</hdop><vdop>4.187</vdop><extensions><gom:speed>0.425</gom:speed></extensions></trkpt>
   <trkpt lat="59.0708673952" lon="30.0247814529"><ele>100.062</ele><time>2026-04-20T18:07:02.739Z</time><hdop>5.75</hdop><vdop>4.187</vdop><extensions><gom:speed>0.501</gom:speed></extensions></trkpt>
   <trkpt lat="59.0708636653" lon="30.024781872"><ele>100.061</ele><time>2026-04-20T18:07:03.854Z</time><hdop>5.75</hdop><vdop>4.187</vdop><extensions><gom:speed>0.531</gom:speed></extensions></trkpt>
   <trkpt lat="59.0708595581" lon="30.0247825426"><ele>100.06</ele><time>2026-04-20T18:07:04.960Z</time><hdop>5.875</hdop><vdop>4.25</vdop><extensions><gom:speed>0.522</gom:speed></extensions></trkpt>
   <trkpt lat="59.0708562892" lon="30.0247863982"><ele>100.059</ele><time>2026-04-20T18:07:05.945Z</time><hdop>6.25</hdop><vdop>4.312</vdop><extensions><gom:speed>0.461</gom:speed></extensions></trkpt>
   <trkpt lat="59.0708541937" lon="30.0247911759"><ele>100.058</ele><time>2026-04-20T18:07:07.011Z</time><hdop>6.75</hdop><vdop>4.312</vdop><extensions><gom:speed>0.456</gom:speed></extensions></trkpt>
   <trkpt lat="59.0708500866" lon="30.0247964565"><ele>100.057</ele><time>2026-04-20T18:07:07.959Z</time><hdop>7.375</hdop><vdop>4.312</vdop><extensions><gom:speed>0.465</gom:speed></extensions></trkpt>
   <trkpt lat="59.0708474882" lon="30.0247973785"><ele>100.055</ele><time>2026-04-20T18:07:09.025Z</time><hdop>7.875</hdop><vdop>4.312</vdop><extensions><gom:speed>0.421</gom:speed></extensions></trkpt>
   <trkpt lat="59.0708440935" lon="30.024798552"><ele>100.054</ele><time>2026-04-20T18:07:09.973Z</time><hdop>8.25</hdop><vdop>4.312</vdop><extensions><gom:speed>0.443</gom:speed></extensions></trkpt>
   <trkpt lat="59.0708421657" lon="30.0248001446"><ele>100.053</ele><time>2026-04-20T18:07:10.795Z</time><hdop>8.437</hdop><vdop>4.312</vdop><extensions><gom:speed>0.392</gom:speed></extensions></trkpt>
   <trkpt lat="59.070839693" lon="30.0248027429"><ele>100.053</ele><time>2026-04-20T18:07:11.987Z</time><hdop>8.875</hdop><vdop>4.25</vdop><extensions><gom:speed>0.322</gom:speed></extensions></trkpt>
   <trkpt lat="59.0708390644" lon="30.0248049222"><ele>100.053</ele><time>2026-04-20T18:07:13.054Z</time><hdop>9.125</hdop><vdop>4.25</vdop><extensions><gom:speed>0.228</gom:speed></extensions></trkpt>
   <trkpt lat="59.0708410761" lon="30.0248069339"><ele>100.053</ele><time>2026-04-20T18:07:13.527Z</time><hdop>9.062</hdop><vdop>4.25</vdop><extensions><gom:speed>0.097</gom:speed></extensions></trkpt>
   <trkpt lat="59.0708420819" lon="30.0248093647"><ele>100.054</ele><time>2026-04-20T18:07:14.000Z</time><hdop>9.125</hdop><vdop>4.437</vdop><extensions><gom:speed>0.101</gom:speed></extensions></trkpt>
   <trkpt lat="59.0708426686" lon="30.024811041"><ele>100.054</ele><time>2026-04-20T18:07:14.948Z</time><hdop>9.062</hdop><vdop>4.562</vdop><extensions><gom:speed>0.07</gom:speed></extensions></trkpt>
   <trkpt lat="59.0708422914" lon="30.0248108734"><ele>100.054</ele><time>2026-04-20T18:07:16.014Z</time><hdop>8.937</hdop><vdop>4.75</vdop><extensions><gom:speed>0.071</gom:speed></extensions></trkpt>
   <trkpt lat="59.0708405731" lon="30.0248123821"><ele>100.054</ele><time>2026-04-20T18:07:16.962Z</time><hdop>8.875</hdop><vdop>4.875</vdop><extensions><gom:speed>0.085</gom:speed></extensions></trkpt>
   <trkpt lat="59.0708399864" lon="30.0248127174"><ele>100.054</ele><time>2026-04-20T18:07:18.002Z</time><hdop>8.812</hdop><vdop>4.875</vdop><extensions><gom:speed>0.096</gom:speed></extensions></trkpt>
   <trkpt lat="59.0708390644" lon="30.0248128851"><ele>100.053</ele><time>2026-04-20T18:07:18.840Z</time><hdop>8.687</hdop><vdop>5.0</vdop><extensions><gom:speed>0.094</gom:speed></extensions></trkpt>
   <trkpt lat="59.0708386872" lon="30.0248130527"><ele>100.052</ele><time>2026-04-20T18:07:19.687Z</time><hdop>8.75</hdop><vdop>5.062</vdop><extensions><gom:speed>0.111</gom:speed></extensions></trkpt>
   <trkpt lat="59.0708365917" lon="30.0248132203"><ele>100.05</ele><time>2026-04-20T18:07:20.990Z</time><hdop>8.937</hdop><vdop>5.062</vdop><extensions><gom:speed>0.18</gom:speed></extensions></trkpt>
   <trkpt lat="59.070835083" lon="30.0248128851"><ele>100.049</ele><time>2026-04-20T18:07:21.937Z</time><hdop>9.0</hdop><vdop>4.812</vdop><extensions><gom:speed>0.211</gom:speed></extensions></trkpt>
   <trkpt lat="59.0708322751" lon="30.0248138909"><ele>100.047</ele><time>2026-04-20T18:07:23.005Z</time><hdop>9.125</hdop><vdop>4.625</vdop><extensions><gom:speed>0.3</gom:speed></extensions></trkpt>
   <trkpt lat="59.0708282936" lon="30.0248160702"><ele>100.045</ele><time>2026-04-20T18:07:23.951Z</time><hdop>9.25</hdop><vdop>4.5</vdop><extensions><gom:speed>0.346</gom:speed></extensions></trkpt>
   <trkpt lat="59.0708246894" lon="30.0248187524"><ele>100.044</ele><time>2026-04-20T18:07:25.017Z</time><hdop>9.437</hdop><vdop>4.437</vdop><extensions><gom:speed>0.359</gom:speed></extensions></trkpt>
   <trkpt lat="59.0708230969" lon="30.024820764"><ele>100.044</ele><time>2026-04-20T18:07:25.847Z</time><hdop>9.562</hdop><vdop>4.437</vdop><extensions><gom:speed>0.37</gom:speed></extensions></trkpt>
   <trkpt lat="59.0708184868" lon="30.0248219375"><ele>100.043</ele><time>2026-04-20T18:07:26.354Z</time><hdop>9.687</hdop><vdop>4.625</vdop><extensions><gom:speed>0.387</gom:speed></extensions></trkpt>
   <trkpt lat="59.0708162656" lon="30.0248226919"><ele>100.043</ele><time>2026-04-20T18:07:27.031Z</time><hdop>9.75</hdop><vdop>4.875</vdop><extensions><gom:speed>0.366</gom:speed></extensions></trkpt>
   <trkpt lat="59.0708130805" lon="30.024824955"><ele>100.042</ele><time>2026-04-20T18:07:27.979Z</time><hdop>10.0</hdop><vdop>5.125</vdop><extensions><gom:speed>0.379</gom:speed></extensions></trkpt>
   <trkpt lat="59.0708115718" lon="30.0248274696"><ele>100.042</ele><time>2026-04-20T18:07:28.518Z</time><hdop>10.187</hdop><vdop>5.125</vdop><extensions><gom:speed>0.379</gom:speed></extensions></trkpt>
   <trkpt lat="59.0708101887" lon="30.0248307385"><ele>100.042</ele><time>2026-04-20T18:07:29.045Z</time><hdop>10.25</hdop><vdop>5.312</vdop><extensions><gom:speed>0.381</gom:speed></extensions></trkpt>
   <trkpt lat="59.0708095601" lon="30.0248349295"><ele>100.042</ele><time>2026-04-20T18:07:29.581Z</time><hdop>10.375</hdop><vdop>5.312</vdop><extensions><gom:speed>0.391</gom:speed></extensions></trkpt>
   <trkpt lat="59.0708098954" lon="30.0248444848"><ele>100.042</ele><time>2026-04-20T18:07:30.775Z</time><hdop>10.687</hdop><vdop>5.437</vdop><extensions><gom:speed>0.387</gom:speed></extensions></trkpt>
   <trkpt lat="59.070810985" lon="30.024850436"><ele>100.042</ele><time>2026-04-20T18:07:31.615Z</time><hdop>10.875</hdop><vdop>5.5</vdop><extensions><gom:speed>0.367</gom:speed></extensions></trkpt>
   <trkpt lat="59.0708115718" lon="30.0248580635"><ele>100.042</ele><time>2026-04-20T18:07:32.681Z</time><hdop>11.0</hdop><vdop>5.687</vdop><extensions><gom:speed>0.397</gom:speed></extensions></trkpt>
   <trkpt lat="59.0708103983" lon="30.0248642661"><ele>100.042</ele><time>2026-04-20T18:07:33.443Z</time><hdop>11.125</hdop><vdop>5.687</vdop><extensions><gom:speed>0.44</gom:speed></extensions></trkpt>
   <trkpt lat="59.0708089734" lon="30.0248691276"><ele>100.043</ele><time>2026-04-20T18:07:34.021Z</time><hdop>11.187</hdop><vdop>5.75</vdop><extensions><gom:speed>0.44</gom:speed></extensions></trkpt>
   <trkpt lat="59.0708055787" lon="30.0248745759"><ele>100.043</ele><time>2026-04-20T18:07:34.969Z</time><hdop>11.375</hdop><vdop>5.812</vdop><extensions><gom:speed>0.402</gom:speed></extensions></trkpt>
   <trkpt lat="59.0708020583" lon="30.0248751626"><ele>100.042</ele><time>2026-04-20T18:07:36.034Z</time><hdop>11.625</hdop><vdop>5.75</vdop><extensions><gom:speed>0.378</gom:speed></extensions></trkpt>
   <trkpt lat="59.0708007591" lon="30.024876839"><ele>100.041</ele><time>2026-04-20T18:07:36.521Z</time><hdop>11.75</hdop><vdop>5.75</vdop><extensions><gom:speed>0.412</gom:speed></extensions></trkpt>
   <trkpt lat="59.0707991665" lon="30.0248794374"><ele>100.041</ele><time>2026-04-20T18:07:36.982Z</time><hdop>11.937</hdop><vdop>5.75</vdop><extensions><gom:speed>0.413</gom:speed></extensions></trkpt>
   <trkpt lat="59.0707964843" lon="30.0248842989"><ele>100.04</ele><time>2026-04-20T18:07:38.048Z</time><hdop>12.187</hdop><vdop>5.875</vdop><extensions><gom:speed>0.431</gom:speed></extensions></trkpt>
   <trkpt lat="59.0707929639" lon="30.0248913397"><ele>100.039</ele><time>2026-04-20T18:07:38.515Z</time><hdop>12.437</hdop><vdop>5.875</vdop><extensions><gom:speed>0.492</gom:speed></extensions></trkpt>
   <trkpt lat="59.0707916647" lon="30.024894441"><ele>100.04</ele><time>2026-04-20T18:07:38.996Z</time><hdop>12.5</hdop><vdop>5.875</vdop><extensions><gom:speed>0.513</gom:speed></extensions></trkpt>
   <trkpt lat="59.0707890663" lon="30.0249003921"><ele>100.04</ele><time>2026-04-20T18:07:39.944Z</time><hdop>12.75</hdop><vdop>5.75</vdop><extensions><gom:speed>0.477</gom:speed></extensions></trkpt>
   <trkpt lat="59.0707895693" lon="30.0248815328"><ele>101.823</ele><time>2026-04-20T18:07:41.075Z</time><hdop>12.562</hdop><vdop>3.937</vdop><extensions><gom:speed>0.478</gom:speed></extensions></trkpt>
   <trkpt lat="59.0707849592" lon="30.0248587341"><ele>102.782</ele><time>2026-04-20T18:07:42.075Z</time><hdop>12.187</hdop><vdop>2.937</vdop><extensions><gom:speed>0.457</gom:speed></extensions></trkpt>
   <trkpt lat="59.0707781699" lon="30.0248446525"><ele>102.191</ele><time>2026-04-20T18:07:43.076Z</time><hdop>11.062</hdop><vdop>2.562</vdop><extensions><gom:speed>0.45</gom:speed></extensions></trkpt>
   <trkpt lat="59.0707685726" lon="30.0248420541"><ele>101.988</ele><time>2026-04-20T18:07:44.075Z</time><hdop>9.812</hdop><vdop>2.5</vdop><extensions><gom:speed>0.465</gom:speed></extensions></trkpt>
   <trkpt lat="59.0707582628" lon="30.0248452392"><ele>101.726</ele><time>2026-04-20T18:07:45.075Z</time><hdop>8.437</hdop><vdop>2.5</vdop><extensions><gom:speed>0.422</gom:speed></extensions></trkpt>
   <trkpt lat="59.0707531918" lon="30.0248466641"><ele>101.57</ele><time>2026-04-20T18:07:45.860Z</time><hdop>7.062</hdop><vdop>2.5</vdop><extensions><gom:speed>0.343</gom:speed></extensions></trkpt>
   <trkpt lat="59.0707453966" lon="30.0248518609"><ele>101.267</ele><time>2026-04-20T18:07:46.454Z</time><hdop>6.625</hdop><vdop>6.75</vdop><extensions><gom:speed>0.307</gom:speed></extensions></trkpt>
   <trkpt lat="59.0707385654" lon="30.0248583988"><ele>101.509</ele><time>2026-04-20T18:07:47.075Z</time><hdop>6.5</hdop><vdop>6.625</vdop><extensions><gom:speed>0.337</gom:speed></extensions></trkpt>
   <trkpt lat="59.0707325723" lon="30.0248635956"><ele>101.654</ele><time>2026-04-20T18:07:48.082Z</time><hdop>6.062</hdop><vdop>6.625</vdop><extensions><gom:speed>0.331</gom:speed></extensions></trkpt>
   <trkpt lat="59.0707249867" lon="30.0248695467"><ele>101.593</ele><time>2026-04-20T18:07:48.960Z</time><hdop>5.937</hdop><vdop>6.437</vdop><extensions><gom:speed>0.371</gom:speed></extensions></trkpt>
   <trkpt lat="59.0707179878" lon="30.0248723966"><ele>101.575</ele><time>2026-04-20T18:07:49.996Z</time><hdop>5.812</hdop><vdop>6.25</vdop><extensions><gom:speed>0.481</gom:speed></extensions></trkpt>
   <trkpt lat="59.0707108632" lon="30.0248788506"><ele>101.315</ele><time>2026-04-20T18:07:50.605Z</time><hdop>5.687</hdop><vdop>6.187</vdop><extensions><gom:speed>0.559</gom:speed></extensions></trkpt>
   <trkpt lat="59.070697075" lon="30.0248916749"><ele>101.188</ele><time>2026-04-20T18:07:51.832Z</time><hdop>5.562</hdop><vdop>5.937</vdop><extensions><gom:speed>0.66</gom:speed></extensions></trkpt>
   <trkpt lat="59.0706892798" lon="30.024904164"><ele>100.888</ele><time>2026-04-20T18:07:52.975Z</time><hdop>5.5</hdop><vdop>5.5</vdop><extensions><gom:speed>0.529</gom:speed></extensions></trkpt>
   <trkpt lat="59.0706861785" lon="30.0249094446"><ele>100.709</ele><time>2026-04-20T18:07:54.054Z</time><hdop>5.5</hdop><vdop>5.5</vdop><extensions><gom:speed>0.454</gom:speed></extensions></trkpt>
   <trkpt lat="59.0706795987" lon="30.0249135517"><ele>100.451</ele><time>2026-04-20T18:07:54.912Z</time><hdop>5.5</hdop><vdop>5.5</vdop><extensions><gom:speed>0.507</gom:speed></extensions></trkpt>
   <trkpt lat="59.0706741924" lon="30.0249135517"><ele>100.133</ele><time>2026-04-20T18:07:55.820Z</time><hdop>5.437</hdop><vdop>5.437</vdop><extensions><gom:speed>0.523</gom:speed></extensions></trkpt>
   <trkpt lat="59.0706711749" lon="30.0249144737"><ele>99.921</ele><time>2026-04-20T18:07:56.767Z</time><hdop>5.437</hdop><vdop>5.5</vdop><extensions><gom:speed>0.481</gom:speed></extensions></trkpt>
   <trkpt lat="59.0706677802" lon="30.0249094446"><ele>100.17</ele><time>2026-04-20T18:07:57.950Z</time><hdop>5.5</hdop><vdop>6.25</vdop><extensions><gom:speed>0.307</gom:speed></extensions></trkpt>
   <trkpt lat="59.0706667744" lon="30.0249093608"><ele>100.356</ele><time>2026-04-20T18:07:59.075Z</time><hdop>5.437</hdop><vdop>6.187</vdop><extensions><gom:speed>0.191</gom:speed></extensions></trkpt>
   <trkpt lat="59.0706677802" lon="30.0249098637"><ele>100.504</ele><time>2026-04-20T18:07:59.964Z</time><hdop>5.5</hdop><vdop>6.062</vdop><extensions><gom:speed>0.097</gom:speed></extensions></trkpt>
   <trkpt lat="59.0706679898" lon="30.0249110371"><ele>100.561</ele><time>2026-04-20T18:08:01.030Z</time><hdop>5.437</hdop><vdop>6.062</vdop><extensions><gom:speed>0.076</gom:speed></extensions></trkpt>
   <trkpt lat="59.0706682831" lon="30.0249113724"><ele>100.625</ele><time>2026-04-20T18:08:01.978Z</time><hdop>5.437</hdop><vdop>6.062</vdop><extensions><gom:speed>0.075</gom:speed></extensions></trkpt>
   <trkpt lat="59.0706682831" lon="30.0249116239"><ele>100.664</ele><time>2026-04-20T18:08:02.926Z</time><hdop>5.437</hdop><vdop>6.062</vdop><extensions><gom:speed>0.071</gom:speed></extensions></trkpt>
   <trkpt lat="59.0706642598" lon="30.0249153957"><ele>100.804</ele><time>2026-04-20T18:08:03.992Z</time><hdop>5.375</hdop><vdop>5.625</vdop><extensions><gom:speed>0.075</gom:speed></extensions></trkpt>
   <trkpt lat="59.0706629606" lon="30.0249156472"><ele>100.933</ele><time>2026-04-20T18:08:04.940Z</time><hdop>5.437</hdop><vdop>5.625</vdop><extensions><gom:speed>0.069</gom:speed></extensions></trkpt>
   <trkpt lat="59.0706620805" lon="30.0249156472"><ele>101.041</ele><time>2026-04-20T18:08:06.006Z</time><hdop>5.5</hdop><vdop>5.375</vdop><extensions><gom:speed>0.065</gom:speed></extensions></trkpt>
   <trkpt lat="59.0706616614" lon="30.0249165692"><ele>101.103</ele><time>2026-04-20T18:08:06.953Z</time><hdop>5.562</hdop><vdop>5.187</vdop><extensions><gom:speed>0.058</gom:speed></extensions></trkpt>
   <trkpt lat="59.0706577638" lon="30.0249191676"><ele>101.184</ele><time>2026-04-20T18:08:08.076Z</time><hdop>5.562</hdop><vdop>4.875</vdop><extensions><gom:speed>0.07</gom:speed></extensions></trkpt>
   <trkpt lat="59.0706566742" lon="30.024917575"><ele>101.232</ele><time>2026-04-20T18:08:08.967Z</time><hdop>5.625</hdop><vdop>4.75</vdop><extensions><gom:speed>0.076</gom:speed></extensions></trkpt>
   <trkpt lat="59.0706566742" lon="30.0249155634"><ele>101.285</ele><time>2026-04-20T18:08:10.034Z</time><hdop>5.625</hdop><vdop>4.75</vdop><extensions><gom:speed>0.069</gom:speed></extensions></trkpt>
   <trkpt lat="59.0706565904" lon="30.0249161501"><ele>101.338</ele><time>2026-04-20T18:08:10.981Z</time><hdop>5.687</hdop><vdop>4.75</vdop><extensions><gom:speed>0.068</gom:speed></extensions></trkpt>
   <trkpt lat="59.0706528604" lon="30.0249183294"><ele>102.929</ele><time>2026-04-20T18:08:12.075Z</time><hdop>5.625</hdop><vdop>3.375</vdop><extensions><gom:speed>0.094</gom:speed></extensions></trkpt>
   <trkpt lat="59.0706499687" lon="30.0249209278"><ele>102.455</ele><time>2026-04-20T18:08:13.076Z</time><hdop>5.562</hdop><vdop>2.687</vdop><extensions><gom:speed>0.501</gom:speed></extensions></trkpt>
   <trkpt lat="59.0706441851" lon="30.0249169883"><ele>102.861</ele><time>2026-04-20T18:08:14.076Z</time><hdop>5.5</hdop><vdop>2.5</vdop><extensions><gom:speed>0.463</gom:speed></extensions></trkpt>
   <trkpt lat="59.0706398685" lon="30.0249131326"><ele>103.215</ele><time>2026-04-20T18:08:15.075Z</time><hdop>5.437</hdop><vdop>2.5</vdop><extensions><gom:speed>0.259</gom:speed></extensions></trkpt>
   <trkpt lat="59.0706378987" lon="30.0249107857"><ele>103.426</ele><time>2026-04-20T18:08:15.754Z</time><hdop>5.375</hdop><vdop>2.5</vdop><extensions><gom:speed>0.241</gom:speed></extensions></trkpt>
   <trkpt lat="59.070633582" lon="30.0249057565"><ele>103.787</ele><time>2026-04-20T18:08:16.819Z</time><hdop>5.312</hdop><vdop>2.5</vdop><extensions><gom:speed>0.714</gom:speed></extensions></trkpt>
   <trkpt lat="59.0706277985" lon="30.0248970394"><ele>103.907</ele><time>2026-04-20T18:08:17.836Z</time><hdop>5.375</hdop><vdop>2.5</vdop><extensions><gom:speed>0.773</gom:speed></extensions></trkpt>
   <trkpt lat="59.0706213864" lon="30.0248917588"><ele>103.823</ele><time>2026-04-20T18:08:18.773Z</time><hdop>5.5</hdop><vdop>2.5</vdop><extensions><gom:speed>0.778</gom:speed></extensions></trkpt>
   <trkpt lat="59.0706131721" lon="30.024893519"><ele>103.437</ele><time>2026-04-20T18:08:19.860Z</time><hdop>5.687</hdop><vdop>2.5</vdop><extensions><gom:speed>0.757</gom:speed></extensions></trkpt>
   <trkpt lat="59.0706060894" lon="30.0248998892"><ele>102.807</ele><time>2026-04-20T18:08:20.717Z</time><hdop>5.687</hdop><vdop>2.5</vdop><extensions><gom:speed>0.643</gom:speed></extensions></trkpt>
   <trkpt lat="59.0706012698" lon="30.0249026552"><ele>102.385</ele><time>2026-04-20T18:08:21.406Z</time><hdop>5.687</hdop><vdop>2.5</vdop><extensions><gom:speed>0.645</gom:speed></extensions></trkpt>
   <trkpt lat="59.0705930974" lon="30.0249072653"><ele>102.061</ele><time>2026-04-20T18:08:22.075Z</time><hdop>5.687</hdop><vdop>2.5</vdop><extensions><gom:speed>0.652</gom:speed></extensions></trkpt>
   <trkpt lat="59.0705887808" lon="30.0249086902"><ele>101.867</ele><time>2026-04-20T18:08:22.782Z</time><hdop>5.687</hdop><vdop>2.5</vdop><extensions><gom:speed>0.646</gom:speed></extensions></trkpt>
   <trkpt lat="59.0705809856" lon="30.024913887"><ele>101.551</ele><time>2026-04-20T18:08:23.680Z</time><hdop>5.562</hdop><vdop>2.5</vdop><extensions><gom:speed>0.636</gom:speed></extensions></trkpt>
   <trkpt lat="59.0705717655" lon="30.0249304832"><ele>101.327</ele><time>2026-04-20T18:08:24.796Z</time><hdop>5.437</hdop><vdop>2.5</vdop><extensions><gom:speed>0.699</gom:speed></extensions></trkpt>
   <trkpt lat="59.0705639703" lon="30.0249450677"><ele>100.6</ele><time>2026-04-20T18:08:25.693Z</time><hdop>5.25</hdop><vdop>2.5</vdop><extensions><gom:speed>0.649</gom:speed></extensions></trkpt>
   <trkpt lat="59.0705574744" lon="30.0249593169"><ele>99.957</ele><time>2026-04-20T18:08:26.700Z</time><hdop>5.25</hdop><vdop>2.5</vdop><extensions><gom:speed>0.649</gom:speed></extensions></trkpt>
   <trkpt lat="59.0705522776" lon="30.0249682855"><ele>99.471</ele><time>2026-04-20T18:08:27.685Z</time><hdop>5.312</hdop><vdop>2.5</vdop><extensions><gom:speed>0.658</gom:speed></extensions></trkpt>
   <trkpt lat="59.070546075" lon="30.0249863904"><ele>99.424</ele><time>2026-04-20T18:08:28.635Z</time><hdop>5.375</hdop><vdop>2.5</vdop><extensions><gom:speed>0.555</gom:speed></extensions></trkpt>
   <trkpt lat="59.0705423869" lon="30.025005585"><ele>99.305</ele><time>2026-04-20T18:08:30.075Z</time><hdop>5.5</hdop><vdop>2.5</vdop><extensions><gom:speed>0.446</gom:speed></extensions></trkpt>
   <trkpt lat="59.0705396628" lon="30.0250174873"><ele>99.072</ele><time>2026-04-20T18:08:31.075Z</time><hdop>5.562</hdop><vdop>2.5</vdop><extensions><gom:speed>0.434</gom:speed></extensions></trkpt>
   <trkpt lat="59.0705355976" lon="30.0250274618"><ele>99.136</ele><time>2026-04-20T18:08:32.075Z</time><hdop>5.562</hdop><vdop>2.5</vdop><extensions><gom:speed>0.46</gom:speed></extensions></trkpt>
   <trkpt lat="59.0705334602" lon="30.0250302278"><ele>99.175</ele><time>2026-04-20T18:08:32.743Z</time><hdop>5.5</hdop><vdop>2.5</vdop><extensions><gom:speed>0.377</gom:speed></extensions></trkpt>
   <trkpt lat="59.0705302751" lon="30.0250375201"><ele>99.348</ele><time>2026-04-20T18:08:33.621Z</time><hdop>5.437</hdop><vdop>2.5</vdop><extensions><gom:speed>0.385</gom:speed></extensions></trkpt>
   <trkpt lat="59.0705271738" lon="30.0250452314"><ele>99.728</ele><time>2026-04-20T18:08:34.075Z</time><hdop>5.312</hdop><vdop>2.5</vdop><extensions><gom:speed>0.4</gom:speed></extensions></trkpt>
   <trkpt lat="59.0705254974" lon="30.0250493385"><ele>99.955</ele><time>2026-04-20T18:08:34.815Z</time><hdop>5.25</hdop><vdop>2.5</vdop><extensions><gom:speed>0.406</gom:speed></extensions></trkpt>
   <trkpt lat="59.07052336" lon="30.0250596483"><ele>100.105</ele><time>2026-04-20T18:08:35.821Z</time><hdop>5.062</hdop><vdop>2.5</vdop><extensions><gom:speed>0.405</gom:speed></extensions></trkpt>
   <trkpt lat="59.0705191691" lon="30.0250670244"><ele>100.154</ele><time>2026-04-20T18:08:36.937Z</time><hdop>4.937</hdop><vdop>2.5</vdop><extensions><gom:speed>0.353</gom:speed></extensions></trkpt>
   <trkpt lat="59.0705162773" lon="30.0250748195"><ele>100.011</ele><time>2026-04-20T18:08:38.075Z</time><hdop>4.75</hdop><vdop>2.5</vdop><extensions><gom:speed>0.32</gom:speed></extensions></trkpt>
   <trkpt lat="59.0705141818" lon="30.0250776694"><ele>99.927</ele><time>2026-04-20T18:08:39.059Z</time><hdop>4.625</hdop><vdop>2.5</vdop><extensions><gom:speed>0.331</gom:speed></extensions></trkpt>
   <trkpt lat="59.0705109967" lon="30.0250854645"><ele>99.985</ele><time>2026-04-20T18:08:39.998Z</time><hdop>4.625</hdop><vdop>2.5</vdop><extensions><gom:speed>0.341</gom:speed></extensions></trkpt>
   <trkpt lat="59.0705078954" lon="30.0250984565"><ele>99.943</ele><time>2026-04-20T18:08:40.857Z</time><hdop>4.562</hdop><vdop>2.5</vdop><extensions><gom:speed>0.454</gom:speed></extensions></trkpt>
   <trkpt lat="59.0705053808" lon="30.0251109455"><ele>99.831</ele><time>2026-04-20T18:08:41.755Z</time><hdop>4.625</hdop><vdop>2.5</vdop><extensions><gom:speed>0.495</gom:speed></extensions></trkpt>
   <trkpt lat="59.0705012737" lon="30.0251237698"><ele>99.496</ele><time>2026-04-20T18:08:42.654Z</time><hdop>4.625</hdop><vdop>2.5</vdop><extensions><gom:speed>0.588</gom:speed></extensions></trkpt>
   <trkpt lat="59.0704943586" lon="30.0251353369"><ele>99.201</ele><time>2026-04-20T18:08:43.778Z</time><hdop>4.625</hdop><vdop>2.5</vdop><extensions><gom:speed>0.574</gom:speed></extensions></trkpt>
   <trkpt lat="59.0704877788" lon="30.0251418747"><ele>98.912</ele><time>2026-04-20T18:08:44.599Z</time><hdop>4.687</hdop><vdop>2.5</vdop><extensions><gom:speed>0.65</gom:speed></extensions></trkpt>
   <trkpt lat="59.0704835879" lon="30.0251464848"><ele>98.831</ele><time>2026-04-20T18:08:45.075Z</time><hdop>4.687</hdop><vdop>2.5</vdop><extensions><gom:speed>0.679</gom:speed></extensions></trkpt>
   <trkpt lat="59.0704754993" lon="30.0251559563"><ele>98.764</ele><time>2026-04-20T18:08:46.075Z</time><hdop>4.75</hdop><vdop>2.5</vdop><extensions><gom:speed>0.721</gom:speed></extensions></trkpt>
   <trkpt lat="59.0704670755" lon="30.0251689483"><ele>98.79</ele><time>2026-04-20T18:08:47.075Z</time><hdop>4.875</hdop><vdop>2.5</vdop><extensions><gom:speed>0.744</gom:speed></extensions></trkpt>
   <trkpt lat="59.0704606634" lon="30.0251802639"><ele>98.685</ele><time>2026-04-20T18:08:48.075Z</time><hdop>4.937</hdop><vdop>2.5</vdop><extensions><gom:speed>0.763</gom:speed></extensions></trkpt>
   <trkpt lat="59.0704535807" lon="30.025189484"><ele>98.589</ele><time>2026-04-20T18:08:49.076Z</time><hdop>5.0</hdop><vdop>2.5</vdop><extensions><gom:speed>0.71</gom:speed></extensions></trkpt>
   <trkpt lat="59.0704454921" lon="30.025194094"><ele>98.363</ele><time>2026-04-20T18:08:50.075Z</time><hdop>5.0</hdop><vdop>2.5</vdop><extensions><gom:speed>0.723</gom:speed></extensions></trkpt>
   <trkpt lat="59.0704382837" lon="30.025195938"><ele>98.144</ele><time>2026-04-20T18:08:51.075Z</time><hdop>5.062</hdop><vdop>2.5</vdop><extensions><gom:speed>0.647</gom:speed></extensions></trkpt>
   <trkpt lat="59.0704334641" lon="30.0251917471"><ele>97.743</ele><time>2026-04-20T18:08:52.075Z</time><hdop>5.062</hdop><vdop>2.5</vdop><extensions><gom:speed>0.533</gom:speed></extensions></trkpt>
   <trkpt lat="59.0704269681" lon="30.025193172"><ele>97.608</ele><time>2026-04-20T18:08:53.075Z</time><hdop>5.062</hdop><vdop>2.5</vdop><extensions><gom:speed>0.503</gom:speed></extensions></trkpt>
   <trkpt lat="59.070422861" lon="30.0251960218"><ele>97.527</ele><time>2026-04-20T18:08:54.077Z</time><hdop>5.0</hdop><vdop>2.5</vdop><extensions><gom:speed>0.472</gom:speed></extensions></trkpt>
   <trkpt lat="59.0704167841" lon="30.0252011348"><ele>97.609</ele><time>2026-04-20T18:08:54.975Z</time><hdop>5.0</hdop><vdop>2.5</vdop><extensions><gom:speed>0.543</gom:speed></extensions></trkpt>
   <trkpt lat="59.0704087794" lon="30.0252101873"><ele>97.605</ele><time>2026-04-20T18:08:56.001Z</time><hdop>4.937</hdop><vdop>2.5</vdop><extensions><gom:speed>0.566</gom:speed></extensions></trkpt>
   <trkpt lat="59.0704011938" lon="30.0252182339"><ele>97.642</ele><time>2026-04-20T18:08:57.017Z</time><hdop>4.937</hdop><vdop>2.5</vdop><extensions><gom:speed>0.598</gom:speed></extensions></trkpt>
   <trkpt lat="59.0703941949" lon="30.0252273702"><ele>97.801</ele><time>2026-04-20T18:08:57.935Z</time><hdop>4.875</hdop><vdop>2.5</vdop><extensions><gom:speed>0.651</gom:speed></extensions></trkpt>
   <trkpt lat="59.0703912612" lon="30.0252315611"><ele>97.99</ele><time>2026-04-20T18:08:58.604Z</time><hdop>4.875</hdop><vdop>2.5</vdop><extensions><gom:speed>0.679</gom:speed></extensions></trkpt>
   <trkpt lat="59.0703842623" lon="30.0252396916"><ele>98.174</ele><time>2026-04-20T18:08:59.075Z</time><hdop>4.875</hdop><vdop>2.5</vdop><extensions><gom:speed>0.714</gom:speed></extensions></trkpt>
   <trkpt lat="59.0703793589" lon="30.0252439663"><ele>98.284</ele><time>2026-04-20T18:08:59.823Z</time><hdop>4.875</hdop><vdop>2.5</vdop><extensions><gom:speed>0.682</gom:speed></extensions></trkpt>
   <trkpt lat="59.0703728629" lon="30.0252522644"><ele>98.432</ele><time>2026-04-20T18:09:00.701Z</time><hdop>4.812</hdop><vdop>2.5</vdop><extensions><gom:speed>0.711</gom:speed></extensions></trkpt>
   <trkpt lat="59.0703673728" lon="30.0252600596"><ele>98.587</ele><time>2026-04-20T18:09:01.539Z</time><hdop>4.812</hdop><vdop>2.5</vdop><extensions><gom:speed>0.673</gom:speed></extensions></trkpt>
   <trkpt lat="59.0703637686" lon="30.0252648373"><ele>98.465</ele><time>2026-04-20T18:09:02.076Z</time><hdop>4.75</hdop><vdop>2.5</vdop><extensions><gom:speed>0.676</gom:speed></extensions></trkpt>
   <trkpt lat="59.0703578593" lon="30.0252754823"><ele>98.522</ele><time>2026-04-20T18:09:03.076Z</time><hdop>4.75</hdop><vdop>2.5</vdop><extensions><gom:speed>0.67</gom:speed></extensions></trkpt>
   <trkpt lat="59.0703546742" lon="30.0252892286"><ele>98.819</ele><time>2026-04-20T18:09:04.075Z</time><hdop>4.687</hdop><vdop>2.5</vdop><extensions><gom:speed>0.619</gom:speed></extensions></trkpt>
   <trkpt lat="59.0703536684" lon="30.025294593"><ele>98.996</ele><time>2026-04-20T18:09:04.764Z</time><hdop>4.687</hdop><vdop>2.5</vdop><extensions><gom:speed>0.636</gom:speed></extensions></trkpt>
   <trkpt lat="59.0703485973" lon="30.0253151287"><ele>99.411</ele><time>2026-04-20T18:09:05.921Z</time><hdop>4.687</hdop><vdop>2.5</vdop><extensions><gom:speed>0.7</gom:speed></extensions></trkpt>
   <trkpt lat="59.0703450769" lon="30.0253295456"><ele>99.529</ele><time>2026-04-20T18:09:06.844Z</time><hdop>4.75</hdop><vdop>2.5</vdop><extensions><gom:speed>0.728</gom:speed></extensions></trkpt>
   <trkpt lat="59.0703409698" lon="30.0253420346"><ele>99.69</ele><time>2026-04-20T18:09:07.765Z</time><hdop>4.75</hdop><vdop>2.5</vdop><extensions><gom:speed>0.706</gom:speed></extensions></trkpt>
   <trkpt lat="59.0703353958" lon="30.0253519252"><ele>100.038</ele><time>2026-04-20T18:09:08.735Z</time><hdop>4.812</hdop><vdop>2.5</vdop><extensions><gom:speed>0.68</gom:speed></extensions></trkpt>
   <trkpt lat="59.0703300733" lon="30.0253604748"><ele>100.373</ele><time>2026-04-20T18:09:09.615Z</time><hdop>4.812</hdop><vdop>2.5</vdop><extensions><gom:speed>0.671</gom:speed></extensions></trkpt>
   <trkpt lat="59.0703275588" lon="30.0253662583"><ele>100.54</ele><time>2026-04-20T18:09:10.075Z</time><hdop>4.75</hdop><vdop>2.5</vdop><extensions><gom:speed>0.687</gom:speed></extensions></trkpt>
   <trkpt lat="59.0703238707" lon="30.0253716227"><ele>100.64</ele><time>2026-04-20T18:09:10.542Z</time><hdop>4.812</hdop><vdop>2.5</vdop><extensions><gom:speed>0.758</gom:speed></extensions></trkpt>
   <trkpt lat="59.0703184644" lon="30.0253839441"><ele>100.76</ele><time>2026-04-20T18:09:11.076Z</time><hdop>4.812</hdop><vdop>2.5</vdop><extensions><gom:speed>0.8</gom:speed></extensions></trkpt>
   <trkpt lat="59.0703134772" lon="30.0253952597"><ele>100.79</ele><time>2026-04-20T18:09:12.076Z</time><hdop>4.812</hdop><vdop>2.5</vdop><extensions><gom:speed>0.77</gom:speed></extensions></trkpt>
   <trkpt lat="59.0703068974" lon="30.0254026358"><ele>100.808</ele><time>2026-04-20T18:09:13.020Z</time><hdop>4.875</hdop><vdop>2.5</vdop><extensions><gom:speed>0.79</gom:speed></extensions></trkpt>
   <trkpt lat="59.0702997727" lon="30.0254109338"><ele>100.965</ele><time>2026-04-20T18:09:13.819Z</time><hdop>4.875</hdop><vdop>2.5</vdop><extensions><gom:speed>0.866</gom:speed></extensions></trkpt>
   <trkpt lat="59.0702921871" lon="30.0254220818"><ele>100.777</ele><time>2026-04-20T18:09:14.915Z</time><hdop>4.937</hdop><vdop>2.5</vdop><extensions><gom:speed>0.834</gom:speed></extensions></trkpt>
   <trkpt lat="59.0702885829" lon="30.0254299608"><ele>100.859</ele><time>2026-04-20T18:09:15.596Z</time><hdop>4.937</hdop><vdop>2.5</vdop><extensions><gom:speed>0.806</gom:speed></extensions></trkpt>
   <trkpt lat="59.0702862779" lon="30.0254359957"><ele>100.914</ele><time>2026-04-20T18:09:16.075Z</time><hdop>4.937</hdop><vdop>2.5</vdop><extensions><gom:speed>0.793</gom:speed></extensions></trkpt>
   <trkpt lat="59.0702835957" lon="30.0254410249"><ele>100.947</ele><time>2026-04-20T18:09:16.533Z</time><hdop>4.937</hdop><vdop>2.5</vdop><extensions><gom:speed>0.813</gom:speed></extensions></trkpt>
   <trkpt lat="59.0702799915" lon="30.0254467246"><ele>101.093</ele><time>2026-04-20T18:09:17.075Z</time><hdop>4.875</hdop><vdop>6.625</vdop><extensions><gom:speed>0.817</gom:speed></extensions></trkpt>
   <trkpt lat="59.0702721963" lon="30.0254524243"><ele>101.089</ele><time>2026-04-20T18:09:18.032Z</time><hdop>4.812</hdop><vdop>6.875</vdop><extensions><gom:speed>0.773</gom:speed></extensions></trkpt>
   <trkpt lat="59.0702691788" lon="30.0254521728"><ele>101.086</ele><time>2026-04-20T18:09:18.521Z</time><hdop>4.875</hdop><vdop>6.875</vdop><extensions><gom:speed>0.72</gom:speed></extensions></trkpt>
   <trkpt lat="59.0702661613" lon="30.0254524243"><ele>101.168</ele><time>2026-04-20T18:09:19.075Z</time><hdop>4.812</hdop><vdop>6.812</vdop><extensions><gom:speed>0.719</gom:speed></extensions></trkpt>
   <trkpt lat="59.0702631857" lon="30.0254535977"><ele>101.217</ele><time>2026-04-20T18:09:19.693Z</time><hdop>4.875</hdop><vdop>6.812</vdop><extensions><gom:speed>0.612</gom:speed></extensions></trkpt>
   <trkpt lat="59.0702588691" lon="30.0254543521"><ele>101.348</ele><time>2026-04-20T18:09:20.562Z</time><hdop>5.0</hdop><vdop>6.625</vdop><extensions><gom:speed>0.586</gom:speed></extensions></trkpt>
   <trkpt lat="59.0702539656" lon="30.0254551903"><ele>101.553</ele><time>2026-04-20T18:09:21.463Z</time><hdop>5.187</hdop><vdop>6.5</vdop><extensions><gom:speed>0.583</gom:speed></extensions></trkpt>
   <trkpt lat="59.0702519959" lon="30.0254562799"><ele>101.712</ele><time>2026-04-20T18:09:22.075Z</time><hdop>5.25</hdop><vdop>6.25</vdop><extensions><gom:speed>0.585</gom:speed></extensions></trkpt>
   <trkpt lat="59.0702475954" lon="30.025457621"><ele>101.79</ele><time>2026-04-20T18:09:23.007Z</time><hdop>5.437</hdop><vdop>6.062</vdop><extensions><gom:speed>0.546</gom:speed></extensions></trkpt>
   <trkpt lat="59.0702432787" lon="30.0254564476"><ele>101.837</ele><time>2026-04-20T18:09:23.592Z</time><hdop>5.562</hdop><vdop>6.062</vdop><extensions><gom:speed>0.535</gom:speed></extensions></trkpt>
   <trkpt lat="59.0702385849" lon="30.0254540168"><ele>101.819</ele><time>2026-04-20T18:09:24.877Z</time><hdop>5.75</hdop><vdop>5.875</vdop><extensions><gom:speed>0.491</gom:speed></extensions></trkpt>
   <trkpt lat="59.0702387944" lon="30.0254524243"><ele>101.791</ele><time>2026-04-20T18:09:25.853Z</time><hdop>5.812</hdop><vdop>5.875</vdop><extensions><gom:speed>0.426</gom:speed></extensions></trkpt>
   <trkpt lat="59.0702363636" lon="30.0254538492"><ele>101.759</ele><time>2026-04-20T18:09:26.614Z</time><hdop>5.812</hdop><vdop>5.687</vdop><extensions><gom:speed>0.469</gom:speed></extensions></trkpt>
   <trkpt lat="59.0702365732" lon="30.0254538492"><ele>101.756</ele><time>2026-04-20T18:09:27.075Z</time><hdop>5.812</hdop><vdop>5.687</vdop><extensions><gom:speed>0.435</gom:speed></extensions></trkpt>
   <trkpt lat="59.0702327594" lon="30.025454855"><ele>101.828</ele><time>2026-04-20T18:09:27.983Z</time><hdop>5.875</hdop><vdop>5.625</vdop><extensions><gom:speed>0.522</gom:speed></extensions></trkpt>
   <trkpt lat="59.0702258863" lon="30.0254567829"><ele>101.891</ele><time>2026-04-20T18:09:29.049Z</time><hdop>5.875</hdop><vdop>5.625</vdop><extensions><gom:speed>0.637</gom:speed></extensions></trkpt>
   <trkpt lat="59.0702231621" lon="30.025456699"><ele>101.928</ele><time>2026-04-20T18:09:29.523Z</time><hdop>5.937</hdop><vdop>5.625</vdop><extensions><gom:speed>0.671</gom:speed></extensions></trkpt>
   <trkpt lat="59.0702149898" lon="30.025457621"><ele>101.957</ele><time>2026-04-20T18:09:29.997Z</time><hdop>6.0</hdop><vdop>5.687</vdop><extensions><gom:speed>0.703</gom:speed></extensions></trkpt>
   <trkpt lat="59.0702122657" lon="30.0254583754"><ele>101.974</ele><time>2026-04-20T18:09:30.518Z</time><hdop>6.062</hdop><vdop>5.687</vdop><extensions><gom:speed>0.674</gom:speed></extensions></trkpt>
   <trkpt lat="59.0702071946" lon="30.0254609738"><ele>101.998</ele><time>2026-04-20T18:09:31.422Z</time><hdop>6.187</hdop><vdop>5.625</vdop><extensions><gom:speed>0.657</gom:speed></extensions></trkpt>
   <trkpt lat="59.0702033809" lon="30.0254630693"><ele>102.021</ele><time>2026-04-20T18:09:32.011Z</time><hdop>6.25</hdop><vdop>5.562</vdop><extensions><gom:speed>0.646</gom:speed></extensions></trkpt>
   <trkpt lat="59.0701972621" lon="30.0254651648"><ele>101.992</ele><time>2026-04-20T18:09:32.958Z</time><hdop>6.5</hdop><vdop>5.625</vdop><extensions><gom:speed>0.636</gom:speed></extensions></trkpt>
   <trkpt lat="59.0701982679" lon="30.0254651648"><ele>101.964</ele><time>2026-04-20T18:09:34.075Z</time><hdop>6.687</hdop><vdop>5.75</vdop><extensions><gom:speed>0.554</gom:speed></extensions></trkpt>
   <trkpt lat="59.0701973878" lon="30.0254639913"><ele>101.965</ele><time>2026-04-20T18:09:34.973Z</time><hdop>6.75</hdop><vdop>5.812</vdop><extensions><gom:speed>0.57</gom:speed></extensions></trkpt>
   <trkpt lat="59.0701966753" lon="30.0254626502"><ele>101.966</ele><time>2026-04-20T18:09:35.684Z</time><hdop>6.812</hdop><vdop>5.812</vdop><extensions><gom:speed>0.576</gom:speed></extensions></trkpt>
   <trkpt lat="59.0701862818" lon="30.0254641589"><ele>101.967</ele><time>2026-04-20T18:09:36.960Z</time><hdop>7.0</hdop><vdop>5.812</vdop><extensions><gom:speed>0.606</gom:speed></extensions></trkpt>
   <trkpt lat="59.0701885868" lon="30.025466925"><ele>102.639</ele><time>2026-04-20T18:09:37.763Z</time><hdop>6.875</hdop><vdop>4.125</vdop><extensions><gom:speed>0.638</gom:speed></extensions></trkpt>
   <trkpt lat="59.0701871619" lon="30.0254692719"><ele>103.024</ele><time>2026-04-20T18:09:38.638Z</time><hdop>6.625</hdop><vdop>3.375</vdop><extensions><gom:speed>0.713</gom:speed></extensions></trkpt>
   <trkpt lat="59.0701802887" lon="30.0254717865"><ele>103.454</ele><time>2026-04-20T18:09:39.476Z</time><hdop>6.5</hdop><vdop>6.187</vdop><extensions><gom:speed>0.779</gom:speed></extensions></trkpt>
   <trkpt lat="59.0701737927" lon="30.0254750554"><ele>103.66</ele><time>2026-04-20T18:09:40.075Z</time><hdop>6.375</hdop><vdop>6.437</vdop><extensions><gom:speed>0.791</gom:speed></extensions></trkpt>
   <trkpt lat="59.0701639859" lon="30.025481258"><ele>103.907</ele><time>2026-04-20T18:09:41.076Z</time><hdop>6.25</hdop><vdop>6.25</vdop><extensions><gom:speed>0.747</gom:speed></extensions></trkpt>
   <trkpt lat="59.0701595854" lon="30.0254861195"><ele>104.055</ele><time>2026-04-20T18:09:41.843Z</time><hdop>6.062</hdop><vdop>6.25</vdop><extensions><gom:speed>0.731</gom:speed></extensions></trkpt>
   <trkpt lat="59.0701507844" lon="30.0254955911"><ele>103.931</ele><time>2026-04-20T18:09:42.379Z</time><hdop>5.875</hdop><vdop>6.187</vdop><extensions><gom:speed>0.738</gom:speed></extensions></trkpt>
   <trkpt lat="59.0701453781" lon="30.0255015422"><ele>103.636</ele><time>2026-04-20T18:09:43.075Z</time><hdop>5.875</hdop><vdop>5.937</vdop><extensions><gom:speed>0.737</gom:speed></extensions></trkpt>
   <trkpt lat="59.0701375829" lon="30.025510427"><ele>103.322</ele><time>2026-04-20T18:09:44.075Z</time><hdop>5.875</hdop><vdop>5.812</vdop><extensions><gom:speed>0.682</gom:speed></extensions></trkpt>
   <trkpt lat="59.0701314641" lon="30.0255198986"><ele>103.111</ele><time>2026-04-20T18:09:45.075Z</time><hdop>5.875</hdop><vdop>6.062</vdop><extensions><gom:speed>0.583</gom:speed></extensions></trkpt>
   <trkpt lat="59.0701285724" lon="30.0255257659"><ele>102.985</ele><time>2026-04-20T18:09:45.678Z</time><hdop>5.812</hdop><vdop>6.062</vdop><extensions><gom:speed>0.588</gom:speed></extensions></trkpt>
   <trkpt lat="59.0701246748" lon="30.025533142"><ele>103.051</ele><time>2026-04-20T18:09:46.495Z</time><hdop>5.812</hdop><vdop>6.312</vdop><extensions><gom:speed>0.615</gom:speed></extensions></trkpt>
   <trkpt lat="59.0701207772" lon="30.025538255"><ele>103.13</ele><time>2026-04-20T18:09:47.075Z</time><hdop>5.75</hdop><vdop>6.5</vdop><extensions><gom:speed>0.616</gom:speed></extensions></trkpt>
   <trkpt lat="59.070114868" lon="30.0255459663"><ele>103.188</ele><time>2026-04-20T18:09:48.004Z</time><hdop>5.687</hdop><vdop>6.562</vdop><extensions><gom:speed>0.63</gom:speed></extensions></trkpt>
   <trkpt lat="59.0701113895" lon="30.0255495705"><ele>103.222</ele><time>2026-04-20T18:09:48.598Z</time><hdop>5.687</hdop><vdop>6.562</vdop><extensions><gom:speed>0.649</gom:speed></extensions></trkpt>
   <trkpt lat="59.070106067" lon="30.0255541806"><ele>103.201</ele><time>2026-04-20T18:09:49.418Z</time><hdop>5.75</hdop><vdop>6.5</vdop><extensions><gom:speed>0.681</gom:speed></extensions></trkpt>
   <trkpt lat="59.0701015826" lon="30.0255563599"><ele>103.265</ele><time>2026-04-20T18:09:50.076Z</time><hdop>5.75</hdop><vdop>6.375</vdop><extensions><gom:speed>0.668</gom:speed></extensions></trkpt>
   <trkpt lat="59.0700948771" lon="30.0255605508"><ele>103.335</ele><time>2026-04-20T18:09:50.965Z</time><hdop>5.75</hdop><vdop>6.187</vdop><extensions><gom:speed>0.69</gom:speed></extensions></trkpt>
   <trkpt lat="59.0700921949" lon="30.0255628977"><ele>103.378</ele><time>2026-04-20T18:09:51.422Z</time><hdop>5.812</hdop><vdop>6.187</vdop><extensions><gom:speed>0.702</gom:speed></extensions></trkpt>
   <trkpt lat="59.0700880878" lon="30.0255667534"><ele>103.445</ele><time>2026-04-20T18:09:52.032Z</time><hdop>5.875</hdop><vdop>5.875</vdop><extensions><gom:speed>0.689</gom:speed></extensions></trkpt>
   <trkpt lat="59.070081969" lon="30.0255730398"><ele>103.466</ele><time>2026-04-20T18:09:52.980Z</time><hdop>6.062</hdop><vdop>5.562</vdop><extensions><gom:speed>0.687</gom:speed></extensions></trkpt>
   <trkpt lat="59.0700797897" lon="30.025576225"><ele>103.479</ele><time>2026-04-20T18:09:53.455Z</time><hdop>6.187</hdop><vdop>5.562</vdop><extensions><gom:speed>0.65</gom:speed></extensions></trkpt>
   <trkpt lat="59.0700767722" lon="30.0255802483"><ele>103.478</ele><time>2026-04-20T18:09:54.046Z</time><hdop>6.25</hdop><vdop>5.562</vdop><extensions><gom:speed>0.648</gom:speed></extensions></trkpt>
   <trkpt lat="59.0700715754" lon="30.0255820923"><ele>103.478</ele><time>2026-04-20T18:09:55.016Z</time><hdop>6.437</hdop><vdop>5.562</vdop><extensions><gom:speed>0.565</gom:speed></extensions></trkpt>
   <trkpt lat="59.0700688932" lon="30.0255800806"><ele>103.543</ele><time>2026-04-20T18:09:55.941Z</time><hdop>6.625</hdop><vdop>5.5</vdop><extensions><gom:speed>0.418</gom:speed></extensions></trkpt>
   <trkpt lat="59.0700726651" lon="30.0255755544"><ele>103.673</ele><time>2026-04-20T18:09:57.075Z</time><hdop>6.75</hdop><vdop>5.5</vdop><extensions><gom:speed>0.279</gom:speed></extensions></trkpt>
   <trkpt lat="59.0700742995" lon="30.025576225"><ele>103.751</ele><time>2026-04-20T18:09:58.078Z</time><hdop>6.875</hdop><vdop>5.5</vdop><extensions><gom:speed>0.175</gom:speed></extensions></trkpt>
   <trkpt lat="59.0700753892" lon="30.0255769793"><ele>103.818</ele><time>2026-04-20T18:09:59.021Z</time><hdop>6.875</hdop><vdop>5.5</vdop><extensions><gom:speed>0.127</gom:speed></extensions></trkpt>
   <trkpt lat="59.0700758921" lon="30.0255785719"><ele>103.857</ele><time>2026-04-20T18:09:59.942Z</time><hdop>6.875</hdop><vdop>5.5</vdop><extensions><gom:speed>0.125</gom:speed></extensions></trkpt>
   <trkpt lat="59.0700765627" lon="30.0255794939"><ele>103.881</ele><time>2026-04-20T18:10:00.443Z</time><hdop>6.875</hdop><vdop>5.687</vdop><extensions><gom:speed>0.122</gom:speed></extensions></trkpt>
   <trkpt lat="59.0700756826" lon="30.0255807512"><ele>103.895</ele><time>2026-04-20T18:10:01.078Z</time><hdop>6.875</hdop><vdop>5.687</vdop><extensions><gom:speed>0.152</gom:speed></extensions></trkpt>
   <trkpt lat="59.0700751796" lon="30.0255819247"><ele>103.899</ele><time>2026-04-20T18:10:01.982Z</time><hdop>6.875</hdop><vdop>5.937</vdop><extensions><gom:speed>0.158</gom:speed></extensions></trkpt>
   <trkpt lat="59.0700737966" lon="30.0255835172"><ele>103.905</ele><time>2026-04-20T18:10:03.048Z</time><hdop>7.0</hdop><vdop>5.937</vdop><extensions><gom:speed>0.215</gom:speed></extensions></trkpt>
   <trkpt lat="59.0700727908" lon="30.0255851936"><ele>103.909</ele><time>2026-04-20T18:10:03.713Z</time><hdop>7.062</hdop><vdop>5.937</vdop><extensions><gom:speed>0.236</gom:speed></extensions></trkpt>
   <trkpt lat="59.0700705696" lon="30.0255854451"><ele>103.911</ele><time>2026-04-20T18:10:04.944Z</time><hdop>7.25</hdop><vdop>6.125</vdop><extensions><gom:speed>0.223</gom:speed></extensions></trkpt>
   <trkpt lat="59.0700709887" lon="30.0255854451"><ele>103.912</ele><time>2026-04-20T18:10:05.835Z</time><hdop>7.375</hdop><vdop>6.125</vdop><extensions><gom:speed>0.18</gom:speed></extensions></trkpt>
   <trkpt lat="59.0700715754" lon="30.0255854451"><ele>103.913</ele><time>2026-04-20T18:10:06.655Z</time><hdop>7.5</hdop><vdop>6.187</vdop><extensions><gom:speed>0.162</gom:speed></extensions></trkpt>
   <trkpt lat="59.0700709887" lon="30.0255855289"><ele>103.904</ele><time>2026-04-20T18:10:07.642Z</time><hdop>7.625</hdop><vdop>6.125</vdop><extensions><gom:speed>0.21</gom:speed></extensions></trkpt>
   <trkpt lat="59.0700686837" lon="30.0255854451"><ele>103.901</ele><time>2026-04-20T18:10:08.619Z</time><hdop>7.75</hdop><vdop>6.0</vdop><extensions><gom:speed>0.285</gom:speed></extensions></trkpt>
   <trkpt lat="59.0700640736" lon="30.0255895522"><ele>103.915</ele><time>2026-04-20T18:10:10.039Z</time><hdop>7.937</hdop><vdop>5.437</vdop><extensions><gom:speed>0.335</gom:speed></extensions></trkpt>
   <trkpt lat="59.0700608885" lon="30.0255913962"><ele>103.924</ele><time>2026-04-20T18:10:10.692Z</time><hdop>8.062</hdop><vdop>5.437</vdop><extensions><gom:speed>0.394</gom:speed></extensions></trkpt>
   <trkpt lat="59.0700580806" lon="30.0255943299"><ele>104.097</ele><time>2026-04-20T18:10:12.075Z</time><hdop>7.937</hdop><vdop>2.875</vdop><extensions><gom:speed>0.396</gom:speed></extensions></trkpt>
   <trkpt lat="59.0700576615" lon="30.0255943299"><ele>104.201</ele><time>2026-04-20T18:10:12.763Z</time><hdop>7.812</hdop><vdop>2.875</vdop><extensions><gom:speed>0.366</gom:speed></extensions></trkpt>
   <trkpt lat="59.0700506626" lon="30.0256000296"><ele>104.372</ele><time>2026-04-20T18:10:13.882Z</time><hdop>7.312</hdop><vdop>2.5</vdop><extensions><gom:speed>0.333</gom:speed></extensions></trkpt>
   <trkpt lat="59.0700440828" lon="30.0256078247"><ele>103.646</ele><time>2026-04-20T18:10:14.838Z</time><hdop>6.812</hdop><vdop>2.5</vdop><extensions><gom:speed>0.392</gom:speed></extensions></trkpt>
   <trkpt lat="59.0700352818" lon="30.0256172963"><ele>102.921</ele><time>2026-04-20T18:10:15.856Z</time><hdop>6.062</hdop><vdop>2.5</vdop><extensions><gom:speed>0.471</gom:speed></extensions></trkpt>
   <trkpt lat="59.0700257683" lon="30.0256242533"><ele>102.232</ele><time>2026-04-20T18:10:16.813Z</time><hdop>5.687</hdop><vdop>2.5</vdop><extensions><gom:speed>0.496</gom:speed></extensions></trkpt>
   <trkpt lat="59.0700154586" lon="30.0256326352"><ele>101.57</ele><time>2026-04-20T18:10:17.781Z</time><hdop>5.5</hdop><vdop>5.5</vdop><extensions><gom:speed>0.579</gom:speed></extensions></trkpt>
   <trkpt lat="59.0700058613" lon="30.0256420229"><ele>101.076</ele><time>2026-04-20T18:10:18.699Z</time><hdop>5.375</hdop><vdop>5.375</vdop><extensions><gom:speed>0.595</gom:speed></extensions></trkpt>
   <trkpt lat="59.0699956773" lon="30.0256529194"><ele>100.791</ele><time>2026-04-20T18:10:19.695Z</time><hdop>5.25</hdop><vdop>5.437</vdop><extensions><gom:speed>0.596</gom:speed></extensions></trkpt>
   <trkpt lat="59.0699880917" lon="30.0256654922"><ele>100.466</ele><time>2026-04-20T18:10:20.860Z</time><hdop>5.187</hdop><vdop>5.375</vdop><extensions><gom:speed>0.609</gom:speed></extensions></trkpt>
   <trkpt lat="59.0699827692" lon="30.0256752991"><ele>100.214</ele><time>2026-04-20T18:10:21.996Z</time><hdop>5.187</hdop><vdop>5.125</vdop><extensions><gom:speed>0.594</gom:speed></extensions></trkpt>
   <trkpt lat="59.0699769857" lon="30.025682759"><ele>100.051</ele><time>2026-04-20T18:10:22.756Z</time><hdop>5.25</hdop><vdop>5.0</vdop><extensions><gom:speed>0.617</gom:speed></extensions></trkpt>
   <trkpt lat="59.0699723756" lon="30.0256953318"><ele>99.876</ele><time>2026-04-20T18:10:23.772Z</time><hdop>5.375</hdop><vdop>5.0</vdop><extensions><gom:speed>0.696</gom:speed></extensions></trkpt>
   <trkpt lat="59.0699671788" lon="30.0257098325"><ele>99.783</ele><time>2026-04-20T18:10:24.999Z</time><hdop>5.562</hdop><vdop>5.0</vdop><extensions><gom:speed>0.682</gom:speed></extensions></trkpt>
   <trkpt lat="59.0699588807" lon="30.0257149455"><ele>99.669</ele><time>2026-04-20T18:10:25.934Z</time><hdop>5.75</hdop><vdop>4.875</vdop><extensions><gom:speed>0.626</gom:speed></extensions></trkpt>
   <trkpt lat="59.0699534744" lon="30.0257154484"><ele>99.666</ele><time>2026-04-20T18:10:27.060Z</time><hdop>5.875</hdop><vdop>4.875</vdop><extensions><gom:speed>0.598</gom:speed></extensions></trkpt>
   <trkpt lat="59.0699486967" lon="30.0257124309"><ele>99.709</ele><time>2026-04-20T18:10:27.941Z</time><hdop>6.0</hdop><vdop>5.0</vdop><extensions><gom:speed>0.517</gom:speed></extensions></trkpt>
   <trkpt lat="59.0699440867" lon="30.025710084"><ele>99.788</ele><time>2026-04-20T18:10:28.992Z</time><hdop>6.062</hdop><vdop>5.25</vdop><extensions><gom:speed>0.47</gom:speed></extensions></trkpt>
   <trkpt lat="59.0699396862" lon="30.0257073179"><ele>99.835</ele><time>2026-04-20T18:10:29.953Z</time><hdop>6.125</hdop><vdop>5.25</vdop><extensions><gom:speed>0.501</gom:speed></extensions></trkpt>
   <trkpt lat="59.0699350761" lon="30.0257039652"><ele>99.855</ele><time>2026-04-20T18:10:31.041Z</time><hdop>6.125</hdop><vdop>5.625</vdop><extensions><gom:speed>0.47</gom:speed></extensions></trkpt>
   <trkpt lat="59.0699290831" lon="30.0256991875"><ele>99.853</ele><time>2026-04-20T18:10:32.055Z</time><hdop>6.187</hdop><vdop>5.75</vdop><extensions><gom:speed>0.491</gom:speed></extensions></trkpt>
   <trkpt lat="59.0699262751" lon="30.0256983493"><ele>99.869</ele><time>2026-04-20T18:10:32.777Z</time><hdop>6.312</hdop><vdop>5.875</vdop><extensions><gom:speed>0.504</gom:speed></extensions></trkpt>
   <trkpt lat="59.0699219585" lon="30.0256985169"><ele>99.881</ele><time>2026-04-20T18:10:33.595Z</time><hdop>6.437</hdop><vdop>6.0</vdop><extensions><gom:speed>0.56</gom:speed></extensions></trkpt>
   <trkpt lat="59.0699147919" lon="30.0257016182"><ele>99.881</ele><time>2026-04-20T18:10:35.034Z</time><hdop>6.625</hdop><vdop>6.0</vdop><extensions><gom:speed>0.498</gom:speed></extensions></trkpt>
   <trkpt lat="59.0699132832" lon="30.0257068988"><ele>99.881</ele><time>2026-04-20T18:10:35.982Z</time><hdop>7.0</hdop><vdop>6.125</vdop><extensions><gom:speed>0.374</gom:speed></extensions></trkpt>
   <trkpt lat="59.0699134927" lon="30.0257116765"><ele>99.88</ele><time>2026-04-20T18:10:37.048Z</time><hdop>7.187</hdop><vdop>6.125</vdop><extensions><gom:speed>0.288</gom:speed></extensions></trkpt>
   <trkpt lat="59.0699150853" lon="30.0257117603"><ele>99.879</ele><time>2026-04-20T18:10:37.522Z</time><hdop>7.312</hdop><vdop>6.125</vdop><extensions><gom:speed>0.255</gom:speed></extensions></trkpt>
   <trkpt lat="59.0699152948" lon="30.0257148617"><ele>99.878</ele><time>2026-04-20T18:10:37.996Z</time><hdop>7.437</hdop><vdop>6.25</vdop><extensions><gom:speed>0.223</gom:speed></extensions></trkpt>
   <trkpt lat="59.0699173903" lon="30.0257141911"><ele>99.876</ele><time>2026-04-20T18:10:38.943Z</time><hdop>7.625</hdop><vdop>6.312</vdop><extensions><gom:speed>0.156</gom:speed></extensions></trkpt>
   <trkpt lat="59.0699185638" lon="30.0257150293"><ele>100.976</ele><time>2026-04-20T18:10:40.075Z</time><hdop>7.562</hdop><vdop>4.375</vdop><extensions><gom:speed>0.141</gom:speed></extensions></trkpt>
   <trkpt lat="59.0699157978" lon="30.025720729"><ele>101.666</ele><time>2026-04-20T18:10:41.075Z</time><hdop>7.312</hdop><vdop>3.812</vdop><extensions><gom:speed>0.18</gom:speed></extensions></trkpt>
   <trkpt lat="59.0699085893" lon="30.0257317931"><ele>102.646</ele><time>2026-04-20T18:10:42.076Z</time><hdop>7.0</hdop><vdop>3.312</vdop><extensions><gom:speed>0.271</gom:speed></extensions></trkpt>
   <trkpt lat="59.0698976928" lon="30.0257486407"><ele>103.319</ele><time>2026-04-20T18:10:43.076Z</time><hdop>6.625</hdop><vdop>3.0</vdop><extensions><gom:speed>0.341</gom:speed></extensions></trkpt>
   <trkpt lat="59.0698928733" lon="30.0257555977"><ele>103.721</ele><time>2026-04-20T18:10:43.682Z</time><hdop>6.437</hdop><vdop>3.0</vdop><extensions><gom:speed>0.37</gom:speed></extensions></trkpt>
   <trkpt lat="59.0698765705" lon="30.0257814978"><ele>103.522</ele><time>2026-04-20T18:10:44.415Z</time><hdop>6.062</hdop><vdop>2.75</vdop><extensions><gom:speed>0.541</gom:speed></extensions></trkpt>
   <trkpt lat="59.0698668894" lon="30.0257959985"><ele>103.246</ele><time>2026-04-20T18:10:45.076Z</time><hdop>6.0</hdop><vdop>2.562</vdop><extensions><gom:speed>0.581</gom:speed></extensions></trkpt>
   <trkpt lat="59.06985176" lon="30.0258137681"><ele>102.714</ele><time>2026-04-20T18:10:46.076Z</time><hdop>5.812</hdop><vdop>2.5</vdop><extensions><gom:speed>0.657</gom:speed></extensions></trkpt>
   <trkpt lat="59.0698390614" lon="30.0258235749"><ele>101.952</ele><time>2026-04-20T18:10:47.075Z</time><hdop>5.562</hdop><vdop>2.5</vdop><extensions><gom:speed>0.644</gom:speed></extensions></trkpt>
   <trkpt lat="59.0698338647" lon="30.0258268439"><ele>101.497</ele><time>2026-04-20T18:10:47.594Z</time><hdop>5.375</hdop><vdop>2.5</vdop><extensions><gom:speed>0.663</gom:speed></extensions></trkpt>
   <trkpt lat="59.0698279973" lon="30.025831873"><ele>101.088</ele><time>2026-04-20T18:10:48.075Z</time><hdop>5.312</hdop><vdop>2.5</vdop><extensions><gom:speed>0.681</gom:speed></extensions></trkpt>
   <trkpt lat="59.0698175619" lon="30.0258433562"><ele>100.618</ele><time>2026-04-20T18:10:49.076Z</time><hdop>5.062</hdop><vdop>2.5</vdop><extensions><gom:speed>0.705</gom:speed></extensions></trkpt>
   <trkpt lat="59.0698131614" lon="30.0258490559"><ele>100.337</ele><time>2026-04-20T18:10:49.737Z</time><hdop>4.937</hdop><vdop>2.5</vdop><extensions><gom:speed>0.656</gom:speed></extensions></trkpt>
   <trkpt lat="59.0698044861" lon="30.0258623831"><ele>100.085</ele><time>2026-04-20T18:10:50.576Z</time><hdop>4.812</hdop><vdop>2.5</vdop><extensions><gom:speed>0.708</gom:speed></extensions></trkpt>
   <trkpt lat="59.0698004628" lon="30.0258696754"><ele>99.983</ele><time>2026-04-20T18:10:51.075Z</time><hdop>4.812</hdop><vdop>2.5</vdop><extensions><gom:speed>0.704</gom:speed></extensions></trkpt>
   <trkpt lat="59.0697973615" lon="30.0258754589"><ele>99.923</ele><time>2026-04-20T18:10:51.536Z</time><hdop>4.75</hdop><vdop>2.5</vdop><extensions><gom:speed>0.73</gom:speed></extensions></trkpt>
   <trkpt lat="59.0697931705" lon="30.0258848466"><ele>99.824</ele><time>2026-04-20T18:10:52.075Z</time><hdop>4.75</hdop><vdop>2.5</vdop><extensions><gom:speed>0.729</gom:speed></extensions></trkpt>
   <trkpt lat="59.0697843695" lon="30.0259007723"><ele>99.332</ele><time>2026-04-20T18:10:53.075Z</time><hdop>4.75</hdop><vdop>2.5</vdop><extensions><gom:speed>0.818</gom:speed></extensions></trkpt>
   <trkpt lat="59.0697805977" lon="30.0259088189"><ele>99.039</ele><time>2026-04-20T18:10:53.615Z</time><hdop>4.75</hdop><vdop>2.5</vdop><extensions><gom:speed>0.751</gom:speed></extensions></trkpt>
   <trkpt lat="59.069775359" lon="30.0259175361"><ele>98.799</ele><time>2026-04-20T18:10:54.076Z</time><hdop>4.75</hdop><vdop>2.5</vdop><extensions><gom:speed>0.785</gom:speed></extensions></trkpt>
   <trkpt lat="59.0697719643" lon="30.0259258342"><ele>98.655</ele><time>2026-04-20T18:10:54.653Z</time><hdop>4.75</hdop><vdop>2.5</vdop><extensions><gom:speed>0.685</gom:speed></extensions></trkpt>
   <trkpt lat="59.0697612774" lon="30.0259482977"><ele>98.557</ele><time>2026-04-20T18:10:56.075Z</time><hdop>4.687</hdop><vdop>2.5</vdop><extensions><gom:speed>0.579</gom:speed></extensions></trkpt>
   <trkpt lat="59.0697550748" lon="30.0259577692"><ele>98.083</ele><time>2026-04-20T18:10:57.075Z</time><hdop>4.625</hdop><vdop>2.5</vdop><extensions><gom:speed>0.466</gom:speed></extensions></trkpt>
   <trkpt lat="59.0697476987" lon="30.0259616249"><ele>97.682</ele><time>2026-04-20T18:10:58.075Z</time><hdop>4.5</hdop><vdop>2.5</vdop><extensions><gom:speed>0.443</gom:speed></extensions></trkpt>
   <trkpt lat="59.0697409932" lon="30.0259643909"><ele>97.3</ele><time>2026-04-20T18:10:59.075Z</time><hdop>4.375</hdop><vdop>2.5</vdop><extensions><gom:speed>0.456</gom:speed></extensions></trkpt>
   <trkpt lat="59.0697314797" lon="30.0259698391"><ele>96.786</ele><time>2026-04-20T18:11:00.076Z</time><hdop>4.25</hdop><vdop>2.5</vdop><extensions><gom:speed>0.481</gom:speed></extensions></trkpt>
   <trkpt lat="59.0697283784" lon="30.0259706773"><ele>96.479</ele><time>2026-04-20T18:11:00.558Z</time><hdop>4.25</hdop><vdop>2.5</vdop><extensions><gom:speed>0.421</gom:speed></extensions></trkpt>
   <trkpt lat="59.0697209604" lon="30.025972689"><ele>96.063</ele><time>2026-04-20T18:11:01.076Z</time><hdop>4.25</hdop><vdop>2.562</vdop><extensions><gom:speed>0.509</gom:speed></extensions></trkpt>
   <trkpt lat="59.0697163923" lon="30.0259721861"><ele>95.815</ele><time>2026-04-20T18:11:01.682Z</time><hdop>4.25</hdop><vdop>2.562</vdop><extensions><gom:speed>0.432</gom:speed></extensions></trkpt>
   <trkpt lat="59.0697033584" lon="30.025974533"><ele>95.758</ele><time>2026-04-20T18:11:02.737Z</time><hdop>4.312</hdop><vdop>2.687</vdop><extensions><gom:speed>0.476</gom:speed></extensions></trkpt>
   <trkpt lat="59.0696875585" lon="30.0259748683"><ele>94.664</ele><time>2026-04-20T18:11:04.076Z</time><hdop>4.437</hdop><vdop>2.5</vdop><extensions><gom:speed>0.432</gom:speed></extensions></trkpt>
   <trkpt lat="59.0696810626" lon="30.0259743654"><ele>94.01</ele><time>2026-04-20T18:11:04.881Z</time><hdop>4.5</hdop><vdop>2.5</vdop><extensions><gom:speed>0.405</gom:speed></extensions></trkpt>
   <trkpt lat="59.0696689926" lon="30.0259752874"><ele>93.572</ele><time>2026-04-20T18:11:06.076Z</time><hdop>4.5</hdop><vdop>2.5</vdop><extensions><gom:speed>0.47</gom:speed></extensions></trkpt>
   <trkpt lat="59.0696614908" lon="30.025977299"><ele>93.19</ele><time>2026-04-20T18:11:07.075Z</time><hdop>4.5</hdop><vdop>2.5</vdop><extensions><gom:speed>0.432</gom:speed></extensions></trkpt>
   <trkpt lat="59.0696538633" lon="30.0259804842"><ele>92.828</ele><time>2026-04-20T18:11:08.076Z</time><hdop>4.5</hdop><vdop>2.5</vdop><extensions><gom:speed>0.451</gom:speed></extensions></trkpt>
   <trkpt lat="59.0696469901" lon="30.0259866868"><ele>92.656</ele><time>2026-04-20T18:11:09.076Z</time><hdop>4.562</hdop><vdop>2.5</vdop><extensions><gom:speed>0.469</gom:speed></extensions></trkpt>
   <trkpt lat="59.0696415838" lon="30.0259933923"><ele>92.535</ele><time>2026-04-20T18:11:10.075Z</time><hdop>4.562</hdop><vdop>2.5</vdop><extensions><gom:speed>0.394</gom:speed></extensions></trkpt>
   <trkpt lat="59.0696366804" lon="30.0259980862"><ele>92.723</ele><time>2026-04-20T18:11:11.075Z</time><hdop>4.562</hdop><vdop>2.5</vdop><extensions><gom:speed>0.336</gom:speed></extensions></trkpt>
   <trkpt lat="59.0696335791" lon="30.0260014389"><ele>92.942</ele><time>2026-04-20T18:11:12.075Z</time><hdop>4.562</hdop><vdop>2.5</vdop><extensions><gom:speed>0.276</gom:speed></extensions></trkpt>
   <trkpt lat="59.0696314836" lon="30.0260040373"><ele>93.073</ele><time>2026-04-20T18:11:13.035Z</time><hdop>4.625</hdop><vdop>2.5</vdop><extensions><gom:speed>0.256</gom:speed></extensions></trkpt>
   <trkpt lat="59.0696274603" lon="30.0260098208"><ele>93.083</ele><time>2026-04-20T18:11:13.932Z</time><hdop>4.625</hdop><vdop>2.5</vdop><extensions><gom:speed>0.346</gom:speed></extensions></trkpt>
   <trkpt lat="59.0696224731" lon="30.0260219746"><ele>93.124</ele><time>2026-04-20T18:11:15.079Z</time><hdop>4.687</hdop><vdop>2.5</vdop><extensions><gom:speed>0.417</gom:speed></extensions></trkpt>
   <trkpt lat="59.0696173601" lon="30.0260353856"><ele>92.814</ele><time>2026-04-20T18:11:16.075Z</time><hdop>4.687</hdop><vdop>2.5</vdop><extensions><gom:speed>0.41</gom:speed></extensions></trkpt>
   <trkpt lat="59.0696159771" lon="30.0260394928"><ele>92.628</ele><time>2026-04-20T18:11:16.615Z</time><hdop>4.75</hdop><vdop>2.5</vdop><extensions><gom:speed>0.427</gom:speed></extensions></trkpt>
   <trkpt lat="59.0696125824" lon="30.0260488805"><ele>92.711</ele><time>2026-04-20T18:11:17.075Z</time><hdop>4.812</hdop><vdop>2.5</vdop><extensions><gom:speed>0.437</gom:speed></extensions></trkpt>
   <trkpt lat="59.0696101936" lon="30.0260521494"><ele>92.674</ele><time>2026-04-20T18:11:18.075Z</time><hdop>4.875</hdop><vdop>2.5</vdop><extensions><gom:speed>0.315</gom:speed></extensions></trkpt>
   <trkpt lat="59.0696095649" lon="30.0260506407"><ele>92.651</ele><time>2026-04-20T18:11:18.859Z</time><hdop>4.937</hdop><vdop>2.5</vdop><extensions><gom:speed>0.238</gom:speed></extensions></trkpt>
   <trkpt lat="59.0696085591" lon="30.0260519818"><ele>92.646</ele><time>2026-04-20T18:11:19.639Z</time><hdop>5.0</hdop><vdop>2.5</vdop><extensions><gom:speed>0.193</gom:speed></extensions></trkpt>
   <trkpt lat="59.0696064636" lon="30.0260565918"><ele>92.428</ele><time>2026-04-20T18:11:20.459Z</time><hdop>4.937</hdop><vdop>2.5</vdop><extensions><gom:speed>0.237</gom:speed></extensions></trkpt>
   <trkpt lat="59.0696044939" lon="30.0260611181"><ele>92.122</ele><time>2026-04-20T18:11:21.076Z</time><hdop>4.937</hdop><vdop>2.5</vdop><extensions><gom:speed>0.271</gom:speed></extensions></trkpt>
   <trkpt lat="59.0696046615" lon="30.0260630459"><ele>91.939</ele><time>2026-04-20T18:11:21.841Z</time><hdop>4.937</hdop><vdop>2.5</vdop><extensions><gom:speed>0.196</gom:speed></extensions></trkpt>
   <trkpt lat="59.0696029851" lon="30.0260678236"><ele>91.8</ele><time>2026-04-20T18:11:22.412Z</time><hdop>4.875</hdop><vdop>2.5</vdop><extensions><gom:speed>0.26</gom:speed></extensions></trkpt>
   <trkpt lat="59.0696003867" lon="30.0260746968"><ele>91.647</ele><time>2026-04-20T18:11:23.075Z</time><hdop>4.812</hdop><vdop>2.5</vdop><extensions><gom:speed>0.272</gom:speed></extensions></trkpt>
   <trkpt lat="59.0695990875" lon="30.0260781333"><ele>91.451</ele><time>2026-04-20T18:11:24.075Z</time><hdop>4.75</hdop><vdop>2.5</vdop><extensions><gom:speed>0.222</gom:speed></extensions></trkpt>
   <trkpt lat="59.0695986685" lon="30.0260795583"><ele>91.334</ele><time>2026-04-20T18:11:24.841Z</time><hdop>4.75</hdop><vdop>2.5</vdop><extensions><gom:speed>0.146</gom:speed></extensions></trkpt>
   <trkpt lat="59.0695969921" lon="30.0260841683"><ele>91.219</ele><time>2026-04-20T18:11:25.740Z</time><hdop>4.625</hdop><vdop>2.5</vdop><extensions><gom:speed>0.14</gom:speed></extensions></trkpt>
   <trkpt lat="59.0695941841" lon="30.0260886945"><ele>91.171</ele><time>2026-04-20T18:11:26.777Z</time><hdop>4.562</hdop><vdop>2.5</vdop><extensions><gom:speed>0.153</gom:speed></extensions></trkpt>
   <trkpt lat="59.0695908733" lon="30.0260923826"><ele>91.217</ele><time>2026-04-20T18:11:27.595Z</time><hdop>4.5</hdop><vdop>2.5</vdop><extensions><gom:speed>0.186</gom:speed></extensions></trkpt>
   <trkpt lat="59.0695879815" lon="30.0260955677"><ele>91.368</ele><time>2026-04-20T18:11:28.076Z</time><hdop>4.5</hdop><vdop>2.5</vdop><extensions><gom:speed>0.24</gom:speed></extensions></trkpt>
   <trkpt lat="59.0695840839" lon="30.0261008483"><ele>91.458</ele><time>2026-04-20T18:11:28.936Z</time><hdop>4.562</hdop><vdop>2.5</vdop><extensions><gom:speed>0.363</gom:speed></extensions></trkpt>
   <trkpt lat="59.0695684936" lon="30.0261221383"><ele>91.739</ele><time>2026-04-20T18:11:30.075Z</time><hdop>4.625</hdop><vdop>2.5</vdop><extensions><gom:speed>0.672</gom:speed></extensions></trkpt>
   <trkpt lat="59.0695626682" lon="30.0261345435"><ele>91.907</ele><time>2026-04-20T18:11:30.971Z</time><hdop>4.625</hdop><vdop>2.5</vdop><extensions><gom:speed>0.674</gom:speed></extensions></trkpt>
   <trkpt lat="59.0695560884" lon="30.0261499662"><ele>91.883</ele><time>2026-04-20T18:11:31.900Z</time><hdop>4.625</hdop><vdop>2.5</vdop><extensions><gom:speed>0.674</gom:speed></extensions></trkpt>
   <trkpt lat="59.0695509754" lon="30.0261652213"><ele>91.543</ele><time>2026-04-20T18:11:32.720Z</time><hdop>4.625</hdop><vdop>2.5</vdop><extensions><gom:speed>0.674</gom:speed></extensions></trkpt>
   <trkpt lat="59.0695453595" lon="30.0261771236"><ele>91.21</ele><time>2026-04-20T18:11:33.459Z</time><hdop>4.562</hdop><vdop>2.5</vdop><extensions><gom:speed>0.62</gom:speed></extensions></trkpt>
   <trkpt lat="59.0695413781" lon="30.0261862599"><ele>90.852</ele><time>2026-04-20T18:11:34.075Z</time><hdop>4.5</hdop><vdop>2.5</vdop><extensions><gom:speed>0.638</gom:speed></extensions></trkpt>
   <trkpt lat="59.0695389893" lon="30.0261908699"><ele>90.637</ele><time>2026-04-20T18:11:34.576Z</time><hdop>4.437</hdop><vdop>2.5</vdop><extensions><gom:speed>0.567</gom:speed></extensions></trkpt>
   <trkpt lat="59.0695357623" lon="30.0261972402"><ele>90.451</ele><time>2026-04-20T18:11:35.075Z</time><hdop>4.375</hdop><vdop>2.5</vdop><extensions><gom:speed>0.575</gom:speed></extensions></trkpt>
   <trkpt lat="59.0695288891" lon="30.0262098969"><ele>90.037</ele><time>2026-04-20T18:11:36.075Z</time><hdop>4.312</hdop><vdop>2.5</vdop><extensions><gom:speed>0.575</gom:speed></extensions></trkpt>
   <trkpt lat="59.0695239857" lon="30.0262177758"><ele>89.514</ele><time>2026-04-20T18:11:37.075Z</time><hdop>4.25</hdop><vdop>2.75</vdop><extensions><gom:speed>0.501</gom:speed></extensions></trkpt>
   <trkpt lat="59.0695191661" lon="30.0262274988"><ele>89.053</ele><time>2026-04-20T18:11:38.075Z</time><hdop>4.25</hdop><vdop>2.687</vdop><extensions><gom:speed>0.492</gom:speed></extensions></trkpt>
   <trkpt lat="59.0695154781" lon="30.0262374733"><ele>88.72</ele><time>2026-04-20T18:11:39.075Z</time><hdop>4.25</hdop><vdop>2.625</vdop><extensions><gom:speed>0.406</gom:speed></extensions></trkpt>
   <trkpt lat="59.0695146818" lon="30.0262415804"><ele>88.521</ele><time>2026-04-20T18:11:39.719Z</time><hdop>4.25</hdop><vdop>2.625</vdop><extensions><gom:speed>0.348</gom:speed></extensions></trkpt>
   <trkpt lat="59.0695133826" lon="30.026251052"><ele>88.17</ele><time>2026-04-20T18:11:40.558Z</time><hdop>4.312</hdop><vdop>7.875</vdop><extensions><gom:speed>0.372</gom:speed></extensions></trkpt>
   <trkpt lat="59.069513173" lon="30.0262552429"><ele>88.025</ele><time>2026-04-20T18:11:41.019Z</time><hdop>4.375</hdop><vdop>7.937</vdop><extensions><gom:speed>0.376</gom:speed></extensions></trkpt>
   <trkpt lat="59.069513173" lon="30.0262578413"><ele>87.938</ele><time>2026-04-20T18:11:41.495Z</time><hdop>4.437</hdop><vdop>7.937</vdop><extensions><gom:speed>0.298</gom:speed></extensions></trkpt>
   <trkpt lat="59.0695122929" lon="30.0262613617"><ele>87.786</ele><time>2026-04-20T18:11:42.075Z</time><hdop>4.5</hdop><vdop>8.0</vdop><extensions><gom:speed>0.311</gom:speed></extensions></trkpt>
   <trkpt lat="59.0695100717" lon="30.0262663909"><ele>87.631</ele><time>2026-04-20T18:11:43.033Z</time><hdop>4.562</hdop><vdop>7.937</vdop><extensions><gom:speed>0.324</gom:speed></extensions></trkpt>
   <trkpt lat="59.0695093593" lon="30.026268654"><ele>87.538</ele><time>2026-04-20T18:11:43.521Z</time><hdop>4.687</hdop><vdop>7.937</vdop><extensions><gom:speed>0.329</gom:speed></extensions></trkpt>
   <trkpt lat="59.0695084792" lon="30.0262713362"><ele>87.544</ele><time>2026-04-20T18:11:43.981Z</time><hdop>4.687</hdop><vdop>8.0</vdop><extensions><gom:speed>0.329</gom:speed></extensions></trkpt>
   <trkpt lat="59.0695060903" lon="30.026279299"><ele>87.554</ele><time>2026-04-20T18:11:45.047Z</time><hdop>4.875</hdop><vdop>8.062</vdop><extensions><gom:speed>0.406</gom:speed></extensions></trkpt>
   <trkpt lat="59.0695062999" lon="30.0262886867"><ele>87.49</ele><time>2026-04-20T18:11:46.075Z</time><hdop>5.062</hdop><vdop>7.687</vdop><extensions><gom:speed>0.45</gom:speed></extensions></trkpt>
   <trkpt lat="59.0695079763" lon="30.0262953923"><ele>87.477</ele><time>2026-04-20T18:11:46.942Z</time><hdop>5.25</hdop><vdop>7.125</vdop><extensions><gom:speed>0.458</gom:speed></extensions></trkpt>
   <trkpt lat="59.0695075991" lon="30.026301092"><ele>87.47</ele><time>2026-04-20T18:11:47.416Z</time><hdop>5.312</hdop><vdop>7.125</vdop><extensions><gom:speed>0.494</gom:speed></extensions></trkpt>
   <trkpt lat="59.0695058808" lon="30.0263158441"><ele>87.37</ele><time>2026-04-20T18:11:48.010Z</time><hdop>5.562</hdop><vdop>6.875</vdop><extensions><gom:speed>0.58</gom:speed></extensions></trkpt>
   <trkpt lat="59.0694988819" lon="30.0263229687"><ele>87.307</ele><time>2026-04-20T18:11:48.956Z</time><hdop>5.875</hdop><vdop>6.687</vdop><extensions><gom:speed>0.67</gom:speed></extensions></trkpt>
   <trkpt lat="59.0694944814" lon="30.0263201189"><ele>87.269</ele><time>2026-04-20T18:11:49.681Z</time><hdop>6.125</hdop><vdop>6.687</vdop><extensions><gom:speed>0.65</gom:speed></extensions></trkpt>
   <trkpt lat="59.0694910867" lon="30.026309893"><ele>87.305</ele><time>2026-04-20T18:11:50.756Z</time><hdop>6.25</hdop><vdop>6.562</vdop><extensions><gom:speed>0.606</gom:speed></extensions></trkpt>
   <trkpt lat="59.0694874825" lon="30.0263015949"><ele>87.428</ele><time>2026-04-20T18:11:52.000Z</time><hdop>6.437</hdop><vdop>6.25</vdop><extensions><gom:speed>0.47</gom:speed></extensions></trkpt>
   <trkpt lat="59.0694916735" lon="30.0262931292"><ele>87.493</ele><time>2026-04-20T18:11:52.762Z</time><hdop>6.375</hdop><vdop>6.0</vdop><extensions><gom:speed>0.39</gom:speed></extensions></trkpt>
   <trkpt lat="59.0694891589" lon="30.026289944"><ele>87.508</ele><time>2026-04-20T18:11:53.717Z</time><hdop>6.312</hdop><vdop>6.062</vdop><extensions><gom:speed>0.498</gom:speed></extensions></trkpt>
   <trkpt lat="59.0694833754" lon="30.0262889382"><ele>87.491</ele><time>2026-04-20T18:11:54.695Z</time><hdop>6.187</hdop><vdop>6.187</vdop><extensions><gom:speed>0.551</gom:speed></extensions></trkpt>
   <trkpt lat="59.0694829982" lon="30.0262852502"><ele>87.472</ele><time>2026-04-20T18:11:55.743Z</time><hdop>6.125</hdop><vdop>6.062</vdop><extensions><gom:speed>0.543</gom:speed></extensions></trkpt>
   <trkpt lat="59.069479394" lon="30.0262826518"><ele>87.457</ele><time>2026-04-20T18:11:56.525Z</time><hdop>6.0</hdop><vdop>6.062</vdop><extensions><gom:speed>0.607</gom:speed></extensions></trkpt>
   <trkpt lat="59.0694763765" lon="30.0262807239"><ele>87.445</ele><time>2026-04-20T18:11:57.012Z</time><hdop>5.937</hdop><vdop>6.125</vdop><extensions><gom:speed>0.62</gom:speed></extensions></trkpt>
   <trkpt lat="59.0694732752" lon="30.0262797181"><ele>87.437</ele><time>2026-04-20T18:11:57.521Z</time><hdop>5.937</hdop><vdop>6.125</vdop><extensions><gom:speed>0.634</gom:speed></extensions></trkpt>
   <trkpt lat="59.069467785" lon="30.0262786285"><ele>87.428</ele><time>2026-04-20T18:11:58.377Z</time><hdop>6.0</hdop><vdop>6.187</vdop><extensions><gom:speed>0.639</gom:speed></extensions></trkpt>
   <trkpt lat="59.0694629654" lon="30.0262784608"><ele>87.426</ele><time>2026-04-20T18:11:59.026Z</time><hdop>6.0</hdop><vdop>6.25</vdop><extensions><gom:speed>0.656</gom:speed></extensions></trkpt>
   <trkpt lat="59.0694586907" lon="30.0262784608"><ele>87.425</ele><time>2026-04-20T18:11:59.855Z</time><hdop>6.0</hdop><vdop>6.25</vdop><extensions><gom:speed>0.73</gom:speed></extensions></trkpt>
   <trkpt lat="59.0694475846" lon="30.0262789637"><ele>87.439</ele><time>2026-04-20T18:12:00.974Z</time><hdop>6.187</hdop><vdop>6.25</vdop><extensions><gom:speed>0.739</gom:speed></extensions></trkpt>
   <trkpt lat="59.0694504764" lon="30.0262676482"><ele>88.96</ele><time>2026-04-20T18:12:01.922Z</time><hdop>6.187</hdop><vdop>5.25</vdop><extensions><gom:speed>0.696</gom:speed></extensions></trkpt>
   <trkpt lat="59.0694605766" lon="30.0262565841"><ele>91.784</ele><time>2026-04-20T18:12:03.075Z</time><hdop>6.125</hdop><vdop>3.562</vdop><extensions><gom:speed>0.543</gom:speed></extensions></trkpt>
   <trkpt lat="59.0694610795" lon="30.0262543209"><ele>93.471</ele><time>2026-04-20T18:12:03.738Z</time><hdop>6.062</hdop><vdop>3.562</vdop><extensions><gom:speed>0.487</gom:speed></extensions></trkpt>
   <trkpt lat="59.0694647676" lon="30.0262465258"><ele>94.519</ele><time>2026-04-20T18:12:04.912Z</time><hdop>5.812</hdop><vdop>3.375</vdop><extensions><gom:speed>0.395</gom:speed></extensions></trkpt>
   <trkpt lat="59.0694686651" lon="30.0262389821"><ele>95.213</ele><time>2026-04-20T18:12:05.919Z</time><hdop>5.5</hdop><vdop>3.312</vdop><extensions><gom:speed>0.339</gom:speed></extensions></trkpt>
   <trkpt lat="59.0694736943" lon="30.0262309354"><ele>95.404</ele><time>2026-04-20T18:12:07.075Z</time><hdop>4.937</hdop><vdop>3.437</vdop><extensions><gom:speed>0.301</gom:speed></extensions></trkpt>
   <trkpt lat="59.0694748677" lon="30.0262269959"><ele>95.703</ele><time>2026-04-20T18:12:08.075Z</time><hdop>4.75</hdop><vdop>8.812</vdop><extensions><gom:speed>0.261</gom:speed></extensions></trkpt>
   <trkpt lat="59.0694746582" lon="30.0262266607"><ele>95.8</ele><time>2026-04-20T18:12:08.977Z</time><hdop>4.562</hdop><vdop>8.75</vdop><extensions><gom:speed>0.23</gom:speed></extensions></trkpt>
   <trkpt lat="59.0694744906" lon="30.026228337"><ele>95.858</ele><time>2026-04-20T18:12:09.552Z</time><hdop>4.5</hdop><vdop>8.75</vdop><extensions><gom:speed>0.211</gom:speed></extensions></trkpt>
   <trkpt lat="59.0694738619" lon="30.0262295943"><ele>95.79</ele><time>2026-04-20T18:12:10.043Z</time><hdop>4.5</hdop><vdop>8.25</vdop><extensions><gom:speed>0.239</gom:speed></extensions></trkpt>
   <trkpt lat="59.0694743648" lon="30.0262291752"><ele>95.648</ele><time>2026-04-20T18:12:11.075Z</time><hdop>4.5</hdop><vdop>8.187</vdop><extensions><gom:speed>0.202</gom:speed></extensions></trkpt>
   <trkpt lat="59.0694745744" lon="30.0262241461"><ele>95.563</ele><time>2026-04-20T18:12:12.080Z</time><hdop>4.625</hdop><vdop>8.187</vdop><extensions><gom:speed>0.256</gom:speed></extensions></trkpt>
   <trkpt lat="59.0694749935" lon="30.026217692"><ele>95.684</ele><time>2026-04-20T18:12:12.978Z</time><hdop>4.687</hdop><vdop>8.187</vdop><extensions><gom:speed>0.32</gom:speed></extensions></trkpt>
   <trkpt lat="59.0694755802" lon="30.0262093939"><ele>95.959</ele><time>2026-04-20T18:12:13.778Z</time><hdop>4.875</hdop><vdop>8.25</vdop><extensions><gom:speed>0.395</gom:speed></extensions></trkpt>
   <trkpt lat="59.0694730656" lon="30.0262023531"><ele>96.257</ele><time>2026-04-20T18:12:14.538Z</time><hdop>4.937</hdop><vdop>8.312</vdop><extensions><gom:speed>0.519</gom:speed></extensions></trkpt>
   <trkpt lat="59.0694712635" lon="30.0261967373"><ele>96.548</ele><time>2026-04-20T18:12:15.076Z</time><hdop>5.0</hdop><vdop>8.375</vdop><extensions><gom:speed>0.523</gom:speed></extensions></trkpt>
   <trkpt lat="59.069469168" lon="30.0261941389"><ele>96.722</ele><time>2026-04-20T18:12:15.534Z</time><hdop>5.062</hdop><vdop>8.375</vdop><extensions><gom:speed>0.513</gom:speed></extensions></trkpt>
   <trkpt lat="59.0694641808" lon="30.0261909538"><ele>96.785</ele><time>2026-04-20T18:12:16.453Z</time><hdop>5.25</hdop><vdop>8.437</vdop><extensions><gom:speed>0.556</gom:speed></extensions></trkpt>
   <trkpt lat="59.0694618758" lon="30.0261881877"><ele>96.647</ele><time>2026-04-20T18:12:17.076Z</time><hdop>5.25</hdop><vdop>8.562</vdop><extensions><gom:speed>0.554</gom:speed></extensions></trkpt>
   <trkpt lat="59.0694597803" lon="30.0261855893"><ele>96.564</ele><time>2026-04-20T18:12:17.599Z</time><hdop>5.312</hdop><vdop>8.562</vdop><extensions><gom:speed>0.537</gom:speed></extensions></trkpt>
   <trkpt lat="59.0694574753" lon="30.026180644"><ele>96.612</ele><time>2026-04-20T18:12:18.402Z</time><hdop>5.437</hdop><vdop>8.125</vdop><extensions><gom:speed>0.485</gom:speed></extensions></trkpt>
   <trkpt lat="59.0694541644" lon="30.0261756987"><ele>96.594</ele><time>2026-04-20T18:12:19.047Z</time><hdop>5.5</hdop><vdop>7.75</vdop><extensions><gom:speed>0.493</gom:speed></extensions></trkpt>
   <trkpt lat="59.0694530748" lon="30.0261746929"><ele>96.41</ele><time>2026-04-20T18:12:20.075Z</time><hdop>5.625</hdop><vdop>7.312</vdop><extensions><gom:speed>0.45</gom:speed></extensions></trkpt>
   <trkpt lat="59.0694521947" lon="30.0261749443"><ele>96.3</ele><time>2026-04-20T18:12:20.579Z</time><hdop>5.687</hdop><vdop>7.312</vdop><extensions><gom:speed>0.418</gom:speed></extensions></trkpt>
   <trkpt lat="59.0694522785" lon="30.0261747767"><ele>94.554</ele><time>2026-04-20T18:12:21.075Z</time><hdop>5.625</hdop><vdop>5.562</vdop><extensions><gom:speed>0.417</gom:speed></extensions></trkpt>
   <trkpt lat="59.069450183" lon="30.0261744414"><ele>93.534</ele><time>2026-04-20T18:12:22.075Z</time><hdop>5.625</hdop><vdop>4.375</vdop><extensions><gom:speed>0.413</gom:speed></extensions></trkpt>
   <trkpt lat="59.0694480876" lon="30.0261740223"><ele>92.924</ele><time>2026-04-20T18:12:22.741Z</time><hdop>5.625</hdop><vdop>4.375</vdop><extensions><gom:speed>0.388</gom:speed></extensions></trkpt>
   <trkpt lat="59.0694453634" lon="30.0261745252"><ele>92.547</ele><time>2026-04-20T18:12:23.898Z</time><hdop>5.5</hdop><vdop>3.625</vdop><extensions><gom:speed>0.325</gom:speed></extensions></trkpt>
   <trkpt lat="59.0694440642" lon="30.026176034"><ele>92.564</ele><time>2026-04-20T18:12:24.615Z</time><hdop>5.437</hdop><vdop>3.375</vdop><extensions><gom:speed>0.337</gom:speed></extensions></trkpt>
   <trkpt lat="59.0694395799" lon="30.0261776265"><ele>92.944</ele><time>2026-04-20T18:12:25.075Z</time><hdop>5.312</hdop><vdop>3.062</vdop><extensions><gom:speed>0.361</gom:speed></extensions></trkpt>
   <trkpt lat="59.0694362691" lon="30.0261776265"><ele>93.172</ele><time>2026-04-20T18:12:25.635Z</time><hdop>5.187</hdop><vdop>3.062</vdop><extensions><gom:speed>0.453</gom:speed></extensions></trkpt>
   <trkpt lat="59.0694289768" lon="30.0261766207"><ele>93.286</ele><time>2026-04-20T18:12:26.494Z</time><hdop>5.125</hdop><vdop>3.0</vdop><extensions><gom:speed>0.565</gom:speed></extensions></trkpt>
   <trkpt lat="59.069424283" lon="30.026175531"><ele>93.221</ele><time>2026-04-20T18:12:27.075Z</time><hdop>5.125</hdop><vdop>3.125</vdop><extensions><gom:speed>0.566</gom:speed></extensions></trkpt>
   <trkpt lat="59.0694128836" lon="30.026175531"><ele>93.444</ele><time>2026-04-20T18:12:28.076Z</time><hdop>5.062</hdop><vdop>3.0</vdop><extensions><gom:speed>0.736</gom:speed></extensions></trkpt>
   <trkpt lat="59.0694016937" lon="30.0261838291"><ele>93.071</ele><time>2026-04-20T18:12:29.075Z</time><hdop>5.0</hdop><vdop>2.937</vdop><extensions><gom:speed>0.746</gom:speed></extensions></trkpt>
   <trkpt lat="59.069393689" lon="30.0261922949"><ele>92.848</ele><time>2026-04-20T18:12:29.958Z</time><hdop>4.937</hdop><vdop>2.937</vdop><extensions><gom:speed>0.803</gom:speed></extensions></trkpt>
   <trkpt lat="59.0693846785" lon="30.026204281"><ele>92.606</ele><time>2026-04-20T18:12:30.857Z</time><hdop>4.937</hdop><vdop>2.875</vdop><extensions><gom:speed>0.795</gom:speed></extensions></trkpt>
   <trkpt lat="59.0693769671" lon="30.0262179435"><ele>92.727</ele><time>2026-04-20T18:12:31.716Z</time><hdop>4.875</hdop><vdop>2.875</vdop><extensions><gom:speed>0.745</gom:speed></extensions></trkpt>
   <trkpt lat="59.0693705969" lon="30.0262313545"><ele>93.334</ele><time>2026-04-20T18:12:32.456Z</time><hdop>4.875</hdop><vdop>2.937</vdop><extensions><gom:speed>0.773</gom:speed></extensions></trkpt>
   <trkpt lat="59.0693648972" lon="30.0262433406"><ele>93.557</ele><time>2026-04-20T18:12:33.075Z</time><hdop>4.812</hdop><vdop>3.0</vdop><extensions><gom:speed>0.836</gom:speed></extensions></trkpt>
   <trkpt lat="59.0693602871" lon="30.0262524769"><ele>93.69</ele><time>2026-04-20T18:12:33.763Z</time><hdop>4.812</hdop><vdop>3.0</vdop><extensions><gom:speed>0.716</gom:speed></extensions></trkpt>
   <trkpt lat="59.0693526596" lon="30.0262648821"><ele>93.544</ele><time>2026-04-20T18:12:34.757Z</time><hdop>4.75</hdop><vdop>3.125</vdop><extensions><gom:speed>0.675</gom:speed></extensions></trkpt>
   <trkpt lat="59.0693455769" lon="30.0262719229"><ele>93.017</ele><time>2026-04-20T18:12:35.536Z</time><hdop>4.687</hdop><vdop>2.75</vdop><extensions><gom:speed>0.654</gom:speed></extensions></trkpt>
   <trkpt lat="59.0693403801" lon="30.0262755272"><ele>92.501</ele><time>2026-04-20T18:12:36.075Z</time><hdop>4.625</hdop><vdop>2.687</vdop><extensions><gom:speed>0.671</gom:speed></extensions></trkpt>
   <trkpt lat="59.0693353929" lon="30.0262775388"><ele>92.193</ele><time>2026-04-20T18:12:36.935Z</time><hdop>4.625</hdop><vdop>2.687</vdop><extensions><gom:speed>0.708</gom:speed></extensions></trkpt>
   <trkpt lat="59.0693261728" lon="30.0262813945"><ele>92.153</ele><time>2026-04-20T18:12:37.520Z</time><hdop>4.625</hdop><vdop>2.562</vdop><extensions><gom:speed>0.667</gom:speed></extensions></trkpt>
   <trkpt lat="59.0693208922" lon="30.02628349"><ele>91.738</ele><time>2026-04-20T18:12:38.075Z</time><hdop>4.625</hdop><vdop>2.5</vdop><extensions><gom:speed>0.697</gom:speed></extensions></trkpt>
   <trkpt lat="59.069317288" lon="30.0262846634"><ele>91.49</ele><time>2026-04-20T18:12:38.556Z</time><hdop>4.625</hdop><vdop>2.5</vdop><extensions><gom:speed>0.653</gom:speed></extensions></trkpt>
   <trkpt lat="59.0693109596" lon="30.0262881838"><ele>91.023</ele><time>2026-04-20T18:12:39.075Z</time><hdop>4.625</hdop><vdop>2.562</vdop><extensions><gom:speed>0.737</gom:speed></extensions></trkpt>
   <trkpt lat="59.0693068944" lon="30.0262925424"><ele>90.744</ele><time>2026-04-20T18:12:39.653Z</time><hdop>4.625</hdop><vdop>2.562</vdop><extensions><gom:speed>0.62</gom:speed></extensions></trkpt>
   <trkpt lat="59.0693000632" lon="30.0263013434"><ele>90.354</ele><time>2026-04-20T18:12:40.417Z</time><hdop>4.625</hdop><vdop>2.562</vdop><extensions><gom:speed>0.601</gom:speed></extensions></trkpt>
   <trkpt lat="59.0692937767" lon="30.0263087195"><ele>89.648</ele><time>2026-04-20T18:12:41.076Z</time><hdop>4.562</hdop><vdop>2.625</vdop><extensions><gom:speed>0.645</gom:speed></extensions></trkpt>
   <trkpt lat="59.0692853948" lon="30.0263218791"><ele>89.165</ele><time>2026-04-20T18:12:42.076Z</time><hdop>4.625</hdop><vdop>2.562</vdop><extensions><gom:speed>0.655</gom:speed></extensions></trkpt>
   <trkpt lat="59.0692760909" lon="30.026336296"><ele>88.882</ele><time>2026-04-20T18:12:43.075Z</time><hdop>4.625</hdop><vdop>2.562</vdop><extensions><gom:speed>0.739</gom:speed></extensions></trkpt>
   <trkpt lat="59.0692661584" lon="30.0263520539"><ele>88.676</ele><time>2026-04-20T18:12:44.075Z</time><hdop>4.625</hdop><vdop>2.5</vdop><extensions><gom:speed>0.755</gom:speed></extensions></trkpt>
   <trkpt lat="59.0692611711" lon="30.0263648782"><ele>88.784</ele><time>2026-04-20T18:12:45.075Z</time><hdop>4.625</hdop><vdop>2.5</vdop><extensions><gom:speed>0.639</gom:speed></extensions></trkpt>
   <trkpt lat="59.0692583632" lon="30.0263758585"><ele>88.857</ele><time>2026-04-20T18:12:46.075Z</time><hdop>4.625</hdop><vdop>2.5</vdop><extensions><gom:speed>0.561</gom:speed></extensions></trkpt>
   <trkpt lat="59.0692557648" lon="30.0263842404"><ele>88.9</ele><time>2026-04-20T18:12:47.077Z</time><hdop>4.625</hdop><vdop>2.5</vdop><extensions><gom:speed>0.548</gom:speed></extensions></trkpt>
   <trkpt lat="59.069250568" lon="30.0263937958"><ele>89.006</ele><time>2026-04-20T18:12:47.916Z</time><hdop>4.625</hdop><vdop>2.5</vdop><extensions><gom:speed>0.636</gom:speed></extensions></trkpt>
   <trkpt lat="59.0692422699" lon="30.0264049437"><ele>89.407</ele><time>2026-04-20T18:12:49.002Z</time><hdop>4.687</hdop><vdop>7.437</vdop><extensions><gom:speed>0.645</gom:speed></extensions></trkpt>
   <trkpt lat="59.0692344748" lon="30.0264102243"><ele>89.587</ele><time>2026-04-20T18:12:49.980Z</time><hdop>4.812</hdop><vdop>7.687</vdop><extensions><gom:speed>0.618</gom:speed></extensions></trkpt>
   <trkpt lat="59.0692284817" lon="30.0264093861"><ele>89.606</ele><time>2026-04-20T18:12:50.897Z</time><hdop>4.937</hdop><vdop>7.562</vdop><extensions><gom:speed>0.63</gom:speed></extensions></trkpt>
   <trkpt lat="59.0692229916" lon="30.0264121522"><ele>89.505</ele><time>2026-04-20T18:12:51.896Z</time><hdop>5.062</hdop><vdop>7.375</vdop><extensions><gom:speed>0.604</gom:speed></extensions></trkpt>
   <trkpt lat="59.0692186749" lon="30.0264123198"><ele>89.374</ele><time>2026-04-20T18:12:52.713Z</time><hdop>5.125</hdop><vdop>7.437</vdop><extensions><gom:speed>0.583</gom:speed></extensions></trkpt>
   <trkpt lat="59.0692126818" lon="30.0264136609"><ele>89.192</ele><time>2026-04-20T18:12:53.701Z</time><hdop>5.312</hdop><vdop>7.375</vdop><extensions><gom:speed>0.616</gom:speed></extensions></trkpt>
   <trkpt lat="59.0692053896" lon="30.0264165946"><ele>89.137</ele><time>2026-04-20T18:12:54.896Z</time><hdop>5.5</hdop><vdop>7.062</vdop><extensions><gom:speed>0.604</gom:speed></extensions></trkpt>
   <trkpt lat="59.0692030845" lon="30.0264170975"><ele>88.983</ele><time>2026-04-20T18:12:55.534Z</time><hdop>5.625</hdop><vdop>6.937</vdop><extensions><gom:speed>0.628</gom:speed></extensions></trkpt>
   <trkpt lat="59.0691970915" lon="30.0264189415"><ele>88.876</ele><time>2026-04-20T18:12:56.075Z</time><hdop>5.75</hdop><vdop>6.875</vdop><extensions><gom:speed>0.638</gom:speed></extensions></trkpt>
   <trkpt lat="59.0691930682" lon="30.0264205341"><ele>88.812</ele><time>2026-04-20T18:12:56.800Z</time><hdop>5.812</hdop><vdop>6.875</vdop><extensions><gom:speed>0.683</gom:speed></extensions></trkpt>
   <trkpt lat="59.0691879971" lon="30.0264232163"><ele>88.682</ele><time>2026-04-20T18:12:57.601Z</time><hdop>6.0</hdop><vdop>6.437</vdop><extensions><gom:speed>0.737</gom:speed></extensions></trkpt>
   <trkpt lat="59.0691830937" lon="30.0264266529"><ele>88.82</ele><time>2026-04-20T18:12:58.281Z</time><hdop>6.187</hdop><vdop>6.187</vdop><extensions><gom:speed>0.731</gom:speed></extensions></trkpt>
   <trkpt lat="59.0691774778" lon="30.0264304247"><ele>88.908</ele><time>2026-04-20T18:12:58.970Z</time><hdop>6.25</hdop><vdop>5.875</vdop><extensions><gom:speed>0.764</gom:speed></extensions></trkpt>
   <trkpt lat="59.069171359" lon="30.0264345319"><ele>88.96</ele><time>2026-04-20T18:12:59.801Z</time><hdop>6.437</hdop><vdop>5.875</vdop><extensions><gom:speed>0.812</gom:speed></extensions></trkpt>
   <trkpt lat="59.0691693893" lon="30.026434951"><ele>89.104</ele><time>2026-04-20T18:13:00.663Z</time><hdop>6.5</hdop><vdop>5.625</vdop><extensions><gom:speed>0.807</gom:speed></extensions></trkpt>
   <trkpt lat="59.0691642763" lon="30.0264357891"><ele>89.189</ele><time>2026-04-20T18:13:01.481Z</time><hdop>6.562</hdop><vdop>5.5</vdop><extensions><gom:speed>0.767</gom:speed></extensions></trkpt>
   <trkpt lat="59.069157487" lon="30.0264347833"><ele>89.266</ele><time>2026-04-20T18:13:02.050Z</time><hdop>6.625</hdop><vdop>5.562</vdop><extensions><gom:speed>0.762</gom:speed></extensions></trkpt>
   <trkpt lat="59.069152374" lon="30.0264325202"><ele>89.285</ele><time>2026-04-20T18:13:02.999Z</time><hdop>6.75</hdop><vdop>5.625</vdop><extensions><gom:speed>0.721</gom:speed></extensions></trkpt>
   <trkpt lat="59.0691472611" lon="30.0264285807"><ele>89.29</ele><time>2026-04-20T18:13:03.945Z</time><hdop>6.812</hdop><vdop>6.0</vdop><extensions><gom:speed>0.656</gom:speed></extensions></trkpt>
   <trkpt lat="59.0691423996" lon="30.02642615"><ele>89.308</ele><time>2026-04-20T18:13:05.012Z</time><hdop>6.937</hdop><vdop>6.125</vdop><extensions><gom:speed>0.625</gom:speed></extensions></trkpt>
   <trkpt lat="59.0691372866" lon="30.0264242221"><ele>89.315</ele><time>2026-04-20T18:13:05.959Z</time><hdop>7.187</hdop><vdop>6.375</vdop><extensions><gom:speed>0.603</gom:speed></extensions></trkpt>
   <trkpt lat="59.0691314612" lon="30.026424725"><ele>89.324</ele><time>2026-04-20T18:13:07.026Z</time><hdop>7.5</hdop><vdop>6.5</vdop><extensions><gom:speed>0.566</gom:speed></extensions></trkpt>
   <trkpt lat="59.0691292819" lon="30.026425647"><ele>89.33</ele><time>2026-04-20T18:13:07.855Z</time><hdop>7.687</hdop><vdop>6.5</vdop><extensions><gom:speed>0.548</gom:speed></extensions></trkpt>
   <trkpt lat="59.0691225764" lon="30.0264310953"><ele>89.34</ele><time>2026-04-20T18:13:08.599Z</time><hdop>8.125</hdop><vdop>6.625</vdop><extensions><gom:speed>0.57</gom:speed></extensions></trkpt>
   <trkpt lat="59.0691208581" lon="30.026434951"><ele>89.375</ele><time>2026-04-20T18:13:09.162Z</time><hdop>8.312</hdop><vdop>6.75</vdop><extensions><gom:speed>0.575</gom:speed></extensions></trkpt>
   <trkpt lat="59.0691173796" lon="30.0264406506"><ele>89.396</ele><time>2026-04-20T18:13:09.987Z</time><hdop>8.437</hdop><vdop>6.625</vdop><extensions><gom:speed>0.553</gom:speed></extensions></trkpt>
   <trkpt lat="59.06911256" lon="30.026443752"><ele>89.461</ele><time>2026-04-20T18:13:10.935Z</time><hdop>8.687</hdop><vdop>6.375</vdop><extensions><gom:speed>0.524</gom:speed></extensions></trkpt>
   <trkpt lat="59.0691079918" lon="30.026445596"><ele>89.519</ele><time>2026-04-20T18:13:12.001Z</time><hdop>9.062</hdop><vdop>6.25</vdop><extensions><gom:speed>0.511</gom:speed></extensions></trkpt>
   <trkpt lat="59.0691059802" lon="30.0264453445"><ele>89.554</ele><time>2026-04-20T18:13:12.458Z</time><hdop>9.25</hdop><vdop>6.25</vdop><extensions><gom:speed>0.493</gom:speed></extensions></trkpt>
   <trkpt lat="59.069103298" lon="30.0264451769"><ele>89.59</ele><time>2026-04-20T18:13:12.949Z</time><hdop>9.312</hdop><vdop>6.062</vdop><extensions><gom:speed>0.492</gom:speed></extensions></trkpt>
   <trkpt lat="59.0690985622" lon="30.0264460989"><ele>89.615</ele><time>2026-04-20T18:13:14.015Z</time><hdop>9.687</hdop><vdop>5.875</vdop><extensions><gom:speed>0.492</gom:speed></extensions></trkpt>
   <trkpt lat="59.0691036752" lon="30.026443752"><ele>89.95</ele><time>2026-04-20T18:13:15.075Z</time><hdop>9.875</hdop><vdop>4.625</vdop><extensions><gom:speed>0.501</gom:speed></extensions></trkpt>
   <trkpt lat="59.0691070698" lon="30.0264419918"><ele>90.15</ele><time>2026-04-20T18:13:15.541Z</time><hdop>9.937</hdop><vdop>4.625</vdop><extensions><gom:speed>0.516</gom:speed></extensions></trkpt>
   <trkpt lat="59.0691142783" lon="30.0264403992"><ele>90.301</ele><time>2026-04-20T18:13:16.075Z</time><hdop>9.75</hdop><vdop>4.187</vdop><extensions><gom:speed>0.464</gom:speed></extensions></trkpt>
   <trkpt lat="59.0691216963" lon="30.0264406506"><ele>91.264</ele><time>2026-04-20T18:13:17.075Z</time><hdop>9.562</hdop><vdop>3.625</vdop><extensions><gom:speed>0.402</gom:speed></extensions></trkpt>
   <trkpt lat="59.069126893" lon="30.0264458474"><ele>92.595</ele><time>2026-04-20T18:13:18.076Z</time><hdop>9.187</hdop><vdop>3.187</vdop><extensions><gom:speed>0.283</gom:speed></extensions></trkpt>
   <trkpt lat="59.069130162" lon="30.0264485296"><ele>93.018</ele><time>2026-04-20T18:13:19.075Z</time><hdop>8.562</hdop><vdop>2.937</vdop><extensions><gom:speed>0.162</gom:speed></extensions></trkpt>
   <trkpt lat="59.0691299943" lon="30.026445596"><ele>93.377</ele><time>2026-04-20T18:13:20.075Z</time><hdop>7.625</hdop><vdop>5.437</vdop><extensions><gom:speed>0.134</gom:speed></extensions></trkpt>
   <trkpt lat="59.0691275636" lon="30.0264431652"><ele>93.812</ele><time>2026-04-20T18:13:21.075Z</time><hdop>6.625</hdop><vdop>5.437</vdop><extensions><gom:speed>0.077</gom:speed></extensions></trkpt>
   <trkpt lat="59.0691247976" lon="30.0264416565"><ele>94.224</ele><time>2026-04-20T18:13:22.075Z</time><hdop>6.125</hdop><vdop>5.5</vdop><extensions><gom:speed>0.08</gom:speed></extensions></trkpt>
   <trkpt lat="59.0691215705" lon="30.0264420756"><ele>94.683</ele><time>2026-04-20T18:13:23.075Z</time><hdop>5.75</hdop><vdop>5.625</vdop><extensions><gom:speed>0.075</gom:speed></extensions></trkpt>
   <trkpt lat="59.0691205647" lon="30.0264421594"><ele>95.06</ele><time>2026-04-20T18:13:23.966Z</time><hdop>5.437</hdop><vdop>5.375</vdop><extensions><gom:speed>0.061</gom:speed></extensions></trkpt>
   <trkpt lat="59.0691172958" lon="30.0264426623"><ele>95.328</ele><time>2026-04-20T18:13:25.075Z</time><hdop>5.062</hdop><vdop>5.312</vdop><extensions><gom:speed>0.089</gom:speed></extensions></trkpt>
   <trkpt lat="59.069115787" lon="30.0264421594"><ele>95.491</ele><time>2026-04-20T18:13:25.980Z</time><hdop>4.937</hdop><vdop>5.25</vdop><extensions><gom:speed>0.12</gom:speed></extensions></trkpt>
   <trkpt lat="59.069115787" lon="30.0264425785"><ele>95.588</ele><time>2026-04-20T18:13:26.454Z</time><hdop>4.937</hdop><vdop>5.25</vdop><extensions><gom:speed>0.115</gom:speed></extensions></trkpt>
   <trkpt lat="59.0691149907" lon="30.0264427461"><ele>95.791</ele><time>2026-04-20T18:13:27.046Z</time><hdop>4.937</hdop><vdop>5.25</vdop><extensions><gom:speed>0.139</gom:speed></extensions></trkpt>
   <trkpt lat="59.0691116799" lon="30.0264440872"><ele>95.932</ele><time>2026-04-20T18:13:28.075Z</time><hdop>4.875</hdop><vdop>5.312</vdop><extensions><gom:speed>0.157</gom:speed></extensions></trkpt>
   <trkpt lat="59.0691091653" lon="30.0264449254"><ele>95.838</ele><time>2026-04-20T18:13:28.942Z</time><hdop>4.937</hdop><vdop>5.437</vdop><extensions><gom:speed>0.199</gom:speed></extensions></trkpt>
   <trkpt lat="59.0691074889" lon="30.0264454283"><ele>95.603</ele><time>2026-04-20T18:13:30.009Z</time><hdop>4.937</hdop><vdop>5.625</vdop><extensions><gom:speed>0.205</gom:speed></extensions></trkpt>
   <trkpt lat="59.0691071956" lon="30.0264453445"><ele>95.462</ele><time>2026-04-20T18:13:30.517Z</time><hdop>5.0</hdop><vdop>5.625</vdop><extensions><gom:speed>0.204</gom:speed></extensions></trkpt>
   <trkpt lat="59.0691050582" lon="30.0264462665"><ele>95.176</ele><time>2026-04-20T18:13:31.075Z</time><hdop>5.0</hdop><vdop>5.625</vdop><extensions><gom:speed>0.221</gom:speed></extensions></trkpt>
   <trkpt lat="59.069102376" lon="30.0264472724"><ele>95.055</ele><time>2026-04-20T18:13:32.022Z</time><hdop>5.0</hdop><vdop>5.687</vdop><extensions><gom:speed>0.233</gom:speed></extensions></trkpt>
   <trkpt lat="59.0691012863" lon="30.0264476914"><ele>94.983</ele><time>2026-04-20T18:13:32.615Z</time><hdop>5.062</hdop><vdop>5.687</vdop><extensions><gom:speed>0.254</gom:speed></extensions></trkpt>
   <trkpt lat="59.0690963829" lon="30.0264478591"><ele>94.886</ele><time>2026-04-20T18:13:33.715Z</time><hdop>5.187</hdop><vdop>5.75</vdop><extensions><gom:speed>0.329</gom:speed></extensions></trkpt>
   <trkpt lat="59.0690910604" lon="30.0264496193"><ele>94.683</ele><time>2026-04-20T18:13:34.701Z</time><hdop>5.312</hdop><vdop>5.875</vdop><extensions><gom:speed>0.387</gom:speed></extensions></trkpt>
   <trkpt lat="59.0690867856" lon="30.0264530559"><ele>94.432</ele><time>2026-04-20T18:13:35.776Z</time><hdop>5.375</hdop><vdop>6.0</vdop><extensions><gom:speed>0.436</gom:speed></extensions></trkpt>
   <trkpt lat="59.0690822594" lon="30.0264555704"><ele>94.304</ele><time>2026-04-20T18:13:36.872Z</time><hdop>5.625</hdop><vdop>6.062</vdop><extensions><gom:speed>0.403</gom:speed></extensions></trkpt>
   <trkpt lat="59.0690791581" lon="30.026455319"><ele>94.244</ele><time>2026-04-20T18:13:37.573Z</time><hdop>5.875</hdop><vdop>6.0</vdop><extensions><gom:speed>0.426</gom:speed></extensions></trkpt>
   <trkpt lat="59.0690746738" lon="30.0264514633"><ele>94.161</ele><time>2026-04-20T18:13:38.758Z</time><hdop>6.125</hdop><vdop>6.0</vdop><extensions><gom:speed>0.448</gom:speed></extensions></trkpt>
   <trkpt lat="59.06907086" lon="30.0264468533"><ele>94.148</ele><time>2026-04-20T18:13:39.618Z</time><hdop>6.437</hdop><vdop>6.0</vdop><extensions><gom:speed>0.471</gom:speed></extensions></trkpt>
   <trkpt lat="59.0690678844" lon="30.026445596"><ele>94.161</ele><time>2026-04-20T18:13:40.459Z</time><hdop>6.687</hdop><vdop>6.375</vdop><extensions><gom:speed>0.471</gom:speed></extensions></trkpt>
   <trkpt lat="59.0690650765" lon="30.026444674"><ele>94.206</ele><time>2026-04-20T18:13:41.026Z</time><hdop>6.812</hdop><vdop>6.312</vdop><extensions><gom:speed>0.478</gom:speed></extensions></trkpt>
   <trkpt lat="59.0690609694" lon="30.0264417403"><ele>94.232</ele><time>2026-04-20T18:13:41.916Z</time><hdop>7.062</hdop><vdop>6.312</vdop><extensions><gom:speed>0.48</gom:speed></extensions></trkpt>
   <trkpt lat="59.0690596702" lon="30.0264422432"><ele>95.632</ele><time>2026-04-20T18:13:43.075Z</time><hdop>7.125</hdop><vdop>5.312</vdop><extensions><gom:speed>0.456</gom:speed></extensions></trkpt>
   <trkpt lat="59.0690551859" lon="30.0264431652"><ele>94.766</ele><time>2026-04-20T18:13:44.075Z</time><hdop>7.0</hdop><vdop>4.562</vdop><extensions><gom:speed>0.429</gom:speed></extensions></trkpt>
   <trkpt lat="59.0690510787" lon="30.0264451769"><ele>94.249</ele><time>2026-04-20T18:13:44.957Z</time><hdop>6.875</hdop><vdop>4.562</vdop><extensions><gom:speed>0.44</gom:speed></extensions></trkpt>
   <trkpt lat="59.0690454628" lon="30.0264463503"><ele>94.582</ele><time>2026-04-20T18:13:45.758Z</time><hdop>6.625</hdop><vdop>4.187</vdop><extensions><gom:speed>0.442</gom:speed></extensions></trkpt>
   <trkpt lat="59.069038464" lon="30.0264471885"><ele>93.77</ele><time>2026-04-20T18:13:46.656Z</time><hdop>6.25</hdop><vdop>4.062</vdop><extensions><gom:speed>0.464</gom:speed></extensions></trkpt>
   <trkpt lat="59.0690287829" lon="30.0264494516"><ele>94.013</ele><time>2026-04-20T18:13:47.742Z</time><hdop>5.937</hdop><vdop>3.812</vdop><extensions><gom:speed>0.554</gom:speed></extensions></trkpt>
   <trkpt lat="59.0690188922" lon="30.0264538941"><ele>93.47</ele><time>2026-04-20T18:13:48.642Z</time><hdop>5.687</hdop><vdop>3.5</vdop><extensions><gom:speed>0.668</gom:speed></extensions></trkpt>
   <trkpt lat="59.069010175" lon="30.0264581688"><ele>93.358</ele><time>2026-04-20T18:13:49.499Z</time><hdop>5.5</hdop><vdop>7.25</vdop><extensions><gom:speed>0.715</gom:speed></extensions></trkpt>
   <trkpt lat="59.0690056907" lon="30.0264584203"><ele>93.561</ele><time>2026-04-20T18:13:50.030Z</time><hdop>5.437</hdop><vdop>7.25</vdop><extensions><gom:speed>0.708</gom:speed></extensions></trkpt>
   <trkpt lat="59.0689977698" lon="30.026457163"><ele>94.178</ele><time>2026-04-20T18:13:51.075Z</time><hdop>5.375</hdop><vdop>7.312</vdop><extensions><gom:speed>0.723</gom:speed></extensions></trkpt>
   <trkpt lat="59.0689903937" lon="30.0264526368"><ele>94.338</ele><time>2026-04-20T18:13:52.043Z</time><hdop>5.375</hdop><vdop>7.5</vdop><extensions><gom:speed>0.713</gom:speed></extensions></trkpt>
   <trkpt lat="59.0689853646" lon="30.0264449254"><ele>94.433</ele><time>2026-04-20T18:13:53.033Z</time><hdop>5.437</hdop><vdop>7.5</vdop><extensions><gom:speed>0.719</gom:speed></extensions></trkpt>
   <trkpt lat="59.0689819699" lon="30.0264371302"><ele>94.829</ele><time>2026-04-20T18:13:53.921Z</time><hdop>5.5</hdop><vdop>7.437</vdop><extensions><gom:speed>0.711</gom:speed></extensions></trkpt>
   <trkpt lat="59.0689787848" lon="30.0264292513"><ele>95.351</ele><time>2026-04-20T18:13:54.801Z</time><hdop>5.5</hdop><vdop>7.25</vdop><extensions><gom:speed>0.709</gom:speed></extensions></trkpt>
   <trkpt lat="59.0689753901" lon="30.0264214561"><ele>95.715</ele><time>2026-04-20T18:13:55.738Z</time><hdop>5.437</hdop><vdop>7.187</vdop><extensions><gom:speed>0.706</gom:speed></extensions></trkpt>
   <trkpt lat="59.0689714925" lon="30.0264143315"><ele>96.144</ele><time>2026-04-20T18:13:56.559Z</time><hdop>5.375</hdop><vdop>7.375</vdop><extensions><gom:speed>0.737</gom:speed></extensions></trkpt>
   <trkpt lat="59.0689688942" lon="30.0264089671"><ele>96.402</ele><time>2026-04-20T18:13:57.019Z</time><hdop>5.375</hdop><vdop>7.125</vdop><extensions><gom:speed>0.743</gom:speed></extensions></trkpt>
   <trkpt lat="59.0689656671" lon="30.0263999984"><ele>96.557</ele><time>2026-04-20T18:13:57.515Z</time><hdop>5.312</hdop><vdop>7.125</vdop><extensions><gom:speed>0.733</gom:speed></extensions></trkpt>
   <trkpt lat="59.0689642841" lon="30.026398322"><ele>96.662</ele><time>2026-04-20T18:13:58.075Z</time><hdop>5.312</hdop><vdop>7.437</vdop><extensions><gom:speed>0.705</gom:speed></extensions></trkpt>
   <trkpt lat="59.0689622725" lon="30.0263948855"><ele>96.725</ele><time>2026-04-20T18:13:58.581Z</time><hdop>5.25</hdop><vdop>7.437</vdop><extensions><gom:speed>0.659</gom:speed></extensions></trkpt>
   <trkpt lat="59.0689600932" lon="30.0263916165"><ele>96.595</ele><time>2026-04-20T18:13:59.033Z</time><hdop>5.25</hdop><vdop>7.062</vdop><extensions><gom:speed>0.654</gom:speed></extensions></trkpt>
   <trkpt lat="59.0689542677" lon="30.0263854977"><ele>96.153</ele><time>2026-04-20T18:14:00.075Z</time><hdop>5.312</hdop><vdop>5.5</vdop><extensions><gom:speed>0.711</gom:speed></extensions></trkpt>
   <trkpt lat="59.0689484842" lon="30.0263772835"><ele>95.889</ele><time>2026-04-20T18:14:01.000Z</time><hdop>5.312</hdop><vdop>5.5</vdop><extensions><gom:speed>0.731</gom:speed></extensions></trkpt>
   <trkpt lat="59.068943497" lon="30.0263702427"><ele>96.602</ele><time>2026-04-20T18:14:01.997Z</time><hdop>5.312</hdop><vdop>4.687</vdop><extensions><gom:speed>0.676</gom:speed></extensions></trkpt>
   <trkpt lat="59.0689388869" lon="30.0263620284"><ele>96.774</ele><time>2026-04-20T18:14:02.976Z</time><hdop>5.25</hdop><vdop>4.75</vdop><extensions><gom:speed>0.672</gom:speed></extensions></trkpt>
   <trkpt lat="59.0689379649" lon="30.02635943"><ele>96.935</ele><time>2026-04-20T18:14:03.534Z</time><hdop>5.187</hdop><vdop>4.437</vdop><extensions><gom:speed>0.606</gom:speed></extensions></trkpt>
   <trkpt lat="59.068934696" lon="30.0263492879"><ele>96.626</ele><time>2026-04-20T18:14:04.075Z</time><hdop>5.125</hdop><vdop>4.437</vdop><extensions><gom:speed>0.553</gom:speed></extensions></trkpt>
   <trkpt lat="59.0689331873" lon="30.0263446779"><ele>95.524</ele><time>2026-04-20T18:14:04.956Z</time><hdop>5.062</hdop><vdop>4.5</vdop><extensions><gom:speed>0.422</gom:speed></extensions></trkpt>
   <trkpt lat="59.0689313851" lon="30.0263428338"><ele>94.246</ele><time>2026-04-20T18:14:06.022Z</time><hdop>4.937</hdop><vdop>4.625</vdop><extensions><gom:speed>0.285</gom:speed></extensions></trkpt>
   <trkpt lat="59.0689299602" lon="30.0263430853"><ele>93.477</ele><time>2026-04-20T18:14:07.075Z</time><hdop>4.812</hdop><vdop>4.812</vdop><extensions><gom:speed>0.167</gom:speed></extensions></trkpt>
   <trkpt lat="59.0689291639" lon="30.026344594"><ele>92.206</ele><time>2026-04-20T18:14:08.075Z</time><hdop>4.75</hdop><vdop>4.812</vdop><extensions><gom:speed>0.122</gom:speed></extensions></trkpt>
   <trkpt lat="59.068927278" lon="30.026346941"><ele>90.408</ele><time>2026-04-20T18:14:09.075Z</time><hdop>4.75</hdop><vdop>4.812</vdop><extensions><gom:speed>0.141</gom:speed></extensions></trkpt>
   <trkpt lat="59.0689265655" lon="30.0263476953"><ele>89.333</ele><time>2026-04-20T18:14:09.695Z</time><hdop>4.75</hdop><vdop>4.812</vdop><extensions><gom:speed>0.119</gom:speed></extensions></trkpt>
   <trkpt lat="59.0689229613" lon="30.026351551"><ele>88.385</ele><time>2026-04-20T18:14:10.203Z</time><hdop>4.687</hdop><vdop>4.937</vdop><extensions><gom:speed>0.141</gom:speed></extensions></trkpt>
   <trkpt lat="59.0689204887" lon="30.0263559934"><ele>87.303</ele><time>2026-04-20T18:14:11.075Z</time><hdop>4.687</hdop><vdop>5.0</vdop><extensions><gom:speed>0.127</gom:speed></extensions></trkpt>
   <trkpt lat="59.0689173874" lon="30.026361274"><ele>86.461</ele><time>2026-04-20T18:14:12.075Z</time><hdop>4.625</hdop><vdop>5.0</vdop><extensions><gom:speed>0.164</gom:speed></extensions></trkpt>
   <trkpt lat="59.0689154595" lon="30.0263626989"><ele>85.609</ele><time>2026-04-20T18:14:13.012Z</time><hdop>4.625</hdop><vdop>4.875</vdop><extensions><gom:speed>0.192</gom:speed></extensions></trkpt>
   <trkpt lat="59.0689108914" lon="30.0263644591"><ele>85.36</ele><time>2026-04-20T18:14:14.075Z</time><hdop>4.625</hdop><vdop>4.75</vdop><extensions><gom:speed>0.283</gom:speed></extensions></trkpt>
   <trkpt lat="59.0689055689" lon="30.0263639562"><ele>85.324</ele><time>2026-04-20T18:14:15.075Z</time><hdop>4.625</hdop><vdop>8.5</vdop><extensions><gom:speed>0.325</gom:speed></extensions></trkpt>
   <trkpt lat="59.068903683" lon="30.0263627828"><ele>85.302</ele><time>2026-04-20T18:14:15.855Z</time><hdop>4.75</hdop><vdop>8.5</vdop><extensions><gom:speed>0.326</gom:speed></extensions></trkpt>
   <trkpt lat="59.0688996596" lon="30.0263616931"><ele>85.358</ele><time>2026-04-20T18:14:16.400Z</time><hdop>4.812</hdop><vdop>8.375</vdop><extensions><gom:speed>0.329</gom:speed></extensions></trkpt>
   <trkpt lat="59.0688965583" lon="30.0263595976"><ele>85.737</ele><time>2026-04-20T18:14:17.075Z</time><hdop>4.812</hdop><vdop>7.937</vdop><extensions><gom:speed>0.357</gom:speed></extensions></trkpt>
   <trkpt lat="59.0688915711" lon="30.0263547361"><ele>86.208</ele><time>2026-04-20T18:14:17.987Z</time><hdop>4.937</hdop><vdop>7.812</vdop><extensions><gom:speed>0.414</gom:speed></extensions></trkpt>
   <trkpt lat="59.0688868772" lon="30.026354317"><ele>86.021</ele><time>2026-04-20T18:14:18.935Z</time><hdop>5.0</hdop><vdop>7.5</vdop><extensions><gom:speed>0.436</gom:speed></extensions></trkpt>
   <trkpt lat="59.0688828958" lon="30.0263591785"><ele>85.445</ele><time>2026-04-20T18:14:20.001Z</time><hdop>5.125</hdop><vdop>7.125</vdop><extensions><gom:speed>0.422</gom:speed></extensions></trkpt>
   <trkpt lat="59.0688800879" lon="30.0263656326"><ele>85.04</ele><time>2026-04-20T18:14:20.949Z</time><hdop>5.25</hdop><vdop>6.875</vdop><extensions><gom:speed>0.455</gom:speed></extensions></trkpt>
   <trkpt lat="59.0688782858" lon="30.0263688177"><ele>84.797</ele><time>2026-04-20T18:14:21.536Z</time><hdop>5.375</hdop><vdop>6.875</vdop><extensions><gom:speed>0.493</gom:speed></extensions></trkpt>
   <trkpt lat="59.0688758969" lon="30.0263716676"><ele>84.674</ele><time>2026-04-20T18:14:22.075Z</time><hdop>5.375</hdop><vdop>6.562</vdop><extensions><gom:speed>0.468</gom:speed></extensions></trkpt>
   <trkpt lat="59.0688728795" lon="30.0263729249"><ele>84.6</ele><time>2026-04-20T18:14:22.779Z</time><hdop>5.5</hdop><vdop>6.562</vdop><extensions><gom:speed>0.448</gom:speed></extensions></trkpt>
   <trkpt lat="59.0688676827" lon="30.0263730925"><ele>84.227</ele><time>2026-04-20T18:14:23.795Z</time><hdop>5.625</hdop><vdop>6.375</vdop><extensions><gom:speed>0.518</gom:speed></extensions></trkpt>
   <trkpt lat="59.0688624859" lon="30.0263737631"><ele>84.154</ele><time>2026-04-20T18:14:24.861Z</time><hdop>5.75</hdop><vdop>6.437</vdop><extensions><gom:speed>0.479</gom:speed></extensions></trkpt>
   <trkpt lat="59.0688573729" lon="30.0263774511"><ele>83.666</ele><time>2026-04-20T18:14:26.075Z</time><hdop>5.75</hdop><vdop>5.937</vdop><extensions><gom:speed>0.448</gom:speed></extensions></trkpt>
   <trkpt lat="59.0688529724" lon="30.026382145"><ele>82.362</ele><time>2026-04-20T18:14:27.076Z</time><hdop>5.687</hdop><vdop>6.125</vdop><extensions><gom:speed>0.408</gom:speed></extensions></trkpt>
   <trkpt lat="59.0688493682" lon="30.0263856654"><ele>81.508</ele><time>2026-04-20T18:14:28.076Z</time><hdop>5.625</hdop><vdop>6.062</vdop><extensions><gom:speed>0.324</gom:speed></extensions></trkpt>
   <trkpt lat="59.0688449677" lon="30.0263853301"><ele>80.926</ele><time>2026-04-20T18:14:29.075Z</time><hdop>5.437</hdop><vdop>5.687</vdop><extensions><gom:speed>0.352</gom:speed></extensions></trkpt>
   <trkpt lat="59.0688390585" lon="30.0263851624"><ele>80.95</ele><time>2026-04-20T18:14:30.075Z</time><hdop>5.312</hdop><vdop>5.375</vdop><extensions><gom:speed>0.35</gom:speed></extensions></trkpt>
   <trkpt lat="59.068831892" lon="30.0263863359"><ele>80.411</ele><time>2026-04-20T18:14:31.075Z</time><hdop>5.187</hdop><vdop>5.125</vdop><extensions><gom:speed>0.408</gom:speed></extensions></trkpt>
   <trkpt lat="59.0688234681" lon="30.0263907783"><ele>79.343</ele><time>2026-04-20T18:14:32.075Z</time><hdop>5.062</hdop><vdop>5.062</vdop><extensions><gom:speed>0.48</gom:speed></extensions></trkpt>
   <trkpt lat="59.0688152958" lon="30.0263999984"><ele>77.47</ele><time>2026-04-20T18:14:33.076Z</time><hdop>5.0</hdop><vdop>5.125</vdop><extensions><gom:speed>0.576</gom:speed></extensions></trkpt>
   <trkpt lat="59.0688076683" lon="30.0264098891"><ele>76.212</ele><time>2026-04-20T18:14:34.076Z</time><hdop>4.937</hdop><vdop>4.812</vdop><extensions><gom:speed>0.546</gom:speed></extensions></trkpt>
   <trkpt lat="59.0687999988" lon="30.0264150858"><ele>75.46</ele><time>2026-04-20T18:14:35.081Z</time><hdop>4.875</hdop><vdop>4.812</vdop><extensions><gom:speed>0.571</gom:speed></extensions></trkpt>
   <trkpt lat="59.0687926646" lon="30.0264153373"><ele>75.37</ele><time>2026-04-20T18:14:36.075Z</time><hdop>4.812</hdop><vdop>4.687</vdop><extensions><gom:speed>0.557</gom:speed></extensions></trkpt>
   <trkpt lat="59.0687879708" lon="30.0264123198"><ele>75.512</ele><time>2026-04-20T18:14:37.075Z</time><hdop>4.75</hdop><vdop>4.687</vdop><extensions><gom:speed>0.47</gom:speed></extensions></trkpt>
   <trkpt lat="59.0687854981" lon="30.0264091347"><ele>76.03</ele><time>2026-04-20T18:14:38.075Z</time><hdop>4.687</hdop><vdop>4.562</vdop><extensions><gom:speed>0.284</gom:speed></extensions></trkpt>
   <trkpt lat="59.0687839894" lon="30.026407123"><ele>76.613</ele><time>2026-04-20T18:14:39.075Z</time><hdop>4.562</hdop><vdop>6.375</vdop><extensions><gom:speed>0.143</gom:speed></extensions></trkpt>
   <trkpt lat="59.0687821873" lon="30.0264059496"><ele>77.286</ele><time>2026-04-20T18:14:40.075Z</time><hdop>4.375</hdop><vdop>6.187</vdop><extensions><gom:speed>0.091</gom:speed></extensions></trkpt>
   <trkpt lat="59.0687819777" lon="30.0264062848"><ele>77.688</ele><time>2026-04-20T18:14:40.615Z</time><hdop>4.312</hdop><vdop>6.187</vdop><extensions><gom:speed>0.084</gom:speed></extensions></trkpt>
   <trkpt lat="59.0687809719" lon="30.0264063687"><ele>78.087</ele><time>2026-04-20T18:14:41.181Z</time><hdop>4.187</hdop><vdop>6.0</vdop><extensions><gom:speed>0.116</gom:speed></extensions></trkpt>
   <trkpt lat="59.0687783735" lon="30.0264044408"><ele>78.124</ele><time>2026-04-20T18:14:42.075Z</time><hdop>4.125</hdop><vdop>5.812</vdop><extensions><gom:speed>0.112</gom:speed></extensions></trkpt>
   <trkpt lat="59.0687752722" lon="30.0264030997"><ele>77.508</ele><time>2026-04-20T18:14:43.075Z</time><hdop>4.062</hdop><vdop>5.562</vdop><extensions><gom:speed>0.123</gom:speed></extensions></trkpt>
   <trkpt lat="59.0687724643" lon="30.0264023453"><ele>76.878</ele><time>2026-04-20T18:14:44.075Z</time><hdop>4.062</hdop><vdop>5.375</vdop><extensions><gom:speed>0.15</gom:speed></extensions></trkpt>
   <trkpt lat="59.0687690696" lon="30.026403435"><ele>77.37</ele><time>2026-04-20T18:14:45.075Z</time><hdop>4.0</hdop><vdop>5.062</vdop><extensions><gom:speed>0.206</gom:speed></extensions></trkpt>
   <trkpt lat="59.0687644595" lon="30.026407123"><ele>78.174</ele><time>2026-04-20T18:14:46.075Z</time><hdop>4.0</hdop><vdop>4.75</vdop><extensions><gom:speed>0.271</gom:speed></extensions></trkpt>
   <trkpt lat="59.0687626993" lon="30.0264093861"><ele>78.654</ele><time>2026-04-20T18:14:46.776Z</time><hdop>4.0</hdop><vdop>4.75</vdop><extensions><gom:speed>0.322</gom:speed></extensions></trkpt>
   <trkpt lat="59.0687522639" lon="30.026421037"><ele>78.876</ele><time>2026-04-20T18:14:47.855Z</time><hdop>4.062</hdop><vdop>4.5</vdop><extensions><gom:speed>0.54</gom:speed></extensions></trkpt>
   <trkpt lat="59.0687413674" lon="30.0264269881"><ele>79.072</ele><time>2026-04-20T18:14:48.793Z</time><hdop>4.062</hdop><vdop>4.312</vdop><extensions><gom:speed>0.642</gom:speed></extensions></trkpt>
   <trkpt lat="59.0687310996" lon="30.0264313467"><ele>78.722</ele><time>2026-04-20T18:14:49.641Z</time><hdop>4.062</hdop><vdop>4.312</vdop><extensions><gom:speed>0.704</gom:speed></extensions></trkpt>
   <trkpt lat="59.0687210832" lon="30.0264351186"><ele>78.502</ele><time>2026-04-20T18:14:50.502Z</time><hdop>4.125</hdop><vdop>4.187</vdop><extensions><gom:speed>0.674</gom:speed></extensions></trkpt>
   <trkpt lat="59.0687149644" lon="30.026436795"><ele>78.083</ele><time>2026-04-20T18:14:51.075Z</time><hdop>4.125</hdop><vdop>4.187</vdop><extensions><gom:speed>0.653</gom:speed></extensions></trkpt>
   <trkpt lat="59.0687099772" lon="30.0264365435"><ele>77.833</ele><time>2026-04-20T18:14:51.696Z</time><hdop>4.187</hdop><vdop>4.187</vdop><extensions><gom:speed>0.618</gom:speed></extensions></trkpt>
   <trkpt lat="59.0687046966" lon="30.0264329393"><ele>77.778</ele><time>2026-04-20T18:14:52.936Z</time><hdop>4.187</hdop><vdop>4.312</vdop><extensions><gom:speed>0.58</gom:speed></extensions></trkpt>
   <trkpt lat="59.0686939677" lon="30.0264249765"><ele>77.823</ele><time>2026-04-20T18:14:54.075Z</time><hdop>4.25</hdop><vdop>4.375</vdop><extensions><gom:speed>0.473</gom:speed></extensions></trkpt>
   <trkpt lat="59.0686880585" lon="30.0264240545"><ele>77.95</ele><time>2026-04-20T18:14:55.075Z</time><hdop>4.25</hdop><vdop>4.5</vdop><extensions><gom:speed>0.422</gom:speed></extensions></trkpt>
   <trkpt lat="59.0686820654" lon="30.0264215399"><ele>77.568</ele><time>2026-04-20T18:14:56.076Z</time><hdop>4.25</hdop><vdop>4.625</vdop><extensions><gom:speed>0.412</gom:speed></extensions></trkpt>
   <trkpt lat="59.0686766591" lon="30.0264197797"><ele>77.34</ele><time>2026-04-20T18:14:57.057Z</time><hdop>4.312</hdop><vdop>4.625</vdop><extensions><gom:speed>0.47</gom:speed></extensions></trkpt>
   <trkpt lat="59.0686687801" lon="30.0264206179"><ele>76.752</ele><time>2026-04-20T18:14:58.014Z</time><hdop>4.312</hdop><vdop>4.5</vdop><extensions><gom:speed>0.527</gom:speed></extensions></trkpt>
   <trkpt lat="59.0686607754" lon="30.0264199473"><ele>76.323</ele><time>2026-04-20T18:14:59.060Z</time><hdop>4.375</hdop><vdop>4.375</vdop><extensions><gom:speed>0.521</gom:speed></extensions></trkpt>
   <trkpt lat="59.0686508848" lon="30.0264148344"><ele>76.543</ele><time>2026-04-20T18:15:00.075Z</time><hdop>4.375</hdop><vdop>4.375</vdop><extensions><gom:speed>0.499</gom:speed></extensions></trkpt>
   <trkpt lat="59.0686455622" lon="30.02640947"><ele>76.682</ele><time>2026-04-20T18:15:01.075Z</time><hdop>4.375</hdop><vdop>4.312</vdop><extensions><gom:speed>0.508</gom:speed></extensions></trkpt>
   <trkpt lat="59.0686420838" lon="30.0264028483"><ele>76.764</ele><time>2026-04-20T18:15:02.062Z</time><hdop>4.375</hdop><vdop>4.312</vdop><extensions><gom:speed>0.454</gom:speed></extensions></trkpt>
   <trkpt lat="59.0686357973" lon="30.0263966457"><ele>77.236</ele><time>2026-04-20T18:15:03.001Z</time><hdop>4.437</hdop><vdop>4.375</vdop><extensions><gom:speed>0.531</gom:speed></extensions></trkpt>
   <trkpt lat="59.0686276669" lon="30.026390443"><ele>77.427</ele><time>2026-04-20T18:15:03.898Z</time><hdop>4.437</hdop><vdop>4.5</vdop><extensions><gom:speed>0.555</gom:speed></extensions></trkpt>
   <trkpt lat="59.0686209614" lon="30.0263827317"><ele>77.769</ele><time>2026-04-20T18:15:04.817Z</time><hdop>4.437</hdop><vdop>4.375</vdop><extensions><gom:speed>0.533</gom:speed></extensions></trkpt>
   <trkpt lat="59.0686144654" lon="30.0263688177"><ele>78.285</ele><time>2026-04-20T18:15:05.872Z</time><hdop>4.5</hdop><vdop>4.437</vdop><extensions><gom:speed>0.535</gom:speed></extensions></trkpt>
   <trkpt lat="59.0686097715" lon="30.0263609387"><ele>78.659</ele><time>2026-04-20T18:15:06.633Z</time><hdop>4.562</hdop><vdop>4.562</vdop><extensions><gom:speed>0.611</gom:speed></extensions></trkpt>
   <trkpt lat="59.0686023954" lon="30.0263491203"><ele>79.065</ele><time>2026-04-20T18:15:07.620Z</time><hdop>4.562</hdop><vdop>4.687</vdop><extensions><gom:speed>0.622</gom:speed></extensions></trkpt>
   <trkpt lat="59.0685979949" lon="30.0263428338"><ele>79.546</ele><time>2026-04-20T18:15:08.075Z</time><hdop>4.562</hdop><vdop>4.562</vdop><extensions><gom:speed>0.641</gom:speed></extensions></trkpt>
   <trkpt lat="59.0685948936" lon="30.0263371341"><ele>79.834</ele><time>2026-04-20T18:15:08.538Z</time><hdop>4.625</hdop><vdop>4.562</vdop><extensions><gom:speed>0.691</gom:speed></extensions></trkpt>
   <trkpt lat="59.0685907865" lon="30.026328417"><ele>80.416</ele><time>2026-04-20T18:15:09.075Z</time><hdop>4.625</hdop><vdop>4.375</vdop><extensions><gom:speed>0.705</gom:speed></extensions></trkpt>
   <trkpt lat="59.0685858831" lon="30.0263123237"><ele>81.279</ele><time>2026-04-20T18:15:10.075Z</time><hdop>4.687</hdop><vdop>4.312</vdop><extensions><gom:speed>0.659</gom:speed></extensions></trkpt>
   <trkpt lat="59.0685804768" lon="30.0263011758"><ele>82.493</ele><time>2026-04-20T18:15:11.075Z</time><hdop>4.75</hdop><vdop>4.437</vdop><extensions><gom:speed>0.538</gom:speed></extensions></trkpt>
   <trkpt lat="59.0685741903" lon="30.0262916204"><ele>82.954</ele><time>2026-04-20T18:15:12.075Z</time><hdop>4.812</hdop><vdop>6.312</vdop><extensions><gom:speed>0.42</gom:speed></extensions></trkpt>
   <trkpt lat="59.0685725978" lon="30.026291788"><ele>83.516</ele><time>2026-04-20T18:15:12.958Z</time><hdop>4.875</hdop><vdop>6.187</vdop><extensions><gom:speed>0.288</gom:speed></extensions></trkpt>
   <trkpt lat="59.0685718853" lon="30.0262925424"><ele>83.734</ele><time>2026-04-20T18:15:14.024Z</time><hdop>4.937</hdop><vdop>6.25</vdop><extensions><gom:speed>0.171</gom:speed></extensions></trkpt>
   <trkpt lat="59.0685726816" lon="30.0262936321"><ele>83.864</ele><time>2026-04-20T18:15:14.857Z</time><hdop>5.0</hdop><vdop>6.25</vdop><extensions><gom:speed>0.133</gom:speed></extensions></trkpt>
   <trkpt lat="59.0685734779" lon="30.0262943864"><ele>83.81</ele><time>2026-04-20T18:15:16.038Z</time><hdop>5.187</hdop><vdop>5.562</vdop><extensions><gom:speed>0.114</gom:speed></extensions></trkpt>
   <trkpt lat="59.0685736874" lon="30.0262945541"><ele>83.777</ele><time>2026-04-20T18:15:16.960Z</time><hdop>5.312</hdop><vdop>5.562</vdop><extensions><gom:speed>0.127</gom:speed></extensions></trkpt>
   <trkpt lat="59.0685713824" lon="30.0262902793"><ele>82.646</ele><time>2026-04-20T18:15:17.579Z</time><hdop>5.25</hdop><vdop>5.25</vdop><extensions><gom:speed>0.171</gom:speed></extensions></trkpt>
   <trkpt lat="59.0685661856" lon="30.0262863398"><ele>80.63</ele><time>2026-04-20T18:15:18.075Z</time><hdop>5.25</hdop><vdop>4.937</vdop><extensions><gom:speed>0.2</gom:speed></extensions></trkpt>
   <trkpt lat="59.068559983" lon="30.0262845796"><ele>78.844</ele><time>2026-04-20T18:15:19.075Z</time><hdop>5.125</hdop><vdop>4.875</vdop><extensions><gom:speed>0.26</gom:speed></extensions></trkpt>
   <trkpt lat="59.0685559597" lon="30.0262841605"><ele>77.777</ele><time>2026-04-20T18:15:20.040Z</time><hdop>5.0</hdop><vdop>4.875</vdop><extensions><gom:speed>0.284</gom:speed></extensions></trkpt>
   <trkpt lat="59.0685492961" lon="30.0262808916"><ele>76.768</ele><time>2026-04-20T18:15:20.958Z</time><hdop>4.875</hdop><vdop>4.687</vdop><extensions><gom:speed>0.317</gom:speed></extensions></trkpt>
   <trkpt lat="59.0685436802" lon="30.0262788799"><ele>75.931</ele><time>2026-04-20T18:15:21.963Z</time><hdop>4.625</hdop><vdop>5.562</vdop><extensions><gom:speed>0.239</gom:speed></extensions></trkpt>
   <trkpt lat="59.0685408723" lon="30.026278377"><ele>75.297</ele><time>2026-04-20T18:15:23.075Z</time><hdop>4.562</hdop><vdop>5.625</vdop><extensions><gom:speed>0.156</gom:speed></extensions></trkpt>
   <trkpt lat="59.0685407885" lon="30.0262785446"><ele>74.918</ele><time>2026-04-20T18:15:23.857Z</time><hdop>4.562</hdop><vdop>5.625</vdop><extensions><gom:speed>0.131</gom:speed></extensions></trkpt>
   <trkpt lat="59.0685401598" lon="30.0262786285"><ele>74.925</ele><time>2026-04-20T18:15:25.043Z</time><hdop>4.562</hdop><vdop>5.687</vdop><extensions><gom:speed>0.114</gom:speed></extensions></trkpt>
   <trkpt lat="59.0685368909" lon="30.0262764492"><ele>75.276</ele><time>2026-04-20T18:15:26.076Z</time><hdop>4.625</hdop><vdop>5.562</vdop><extensions><gom:speed>0.073</gom:speed></extensions></trkpt>
   <trkpt lat="59.0685357593" lon="30.0262763653"><ele>75.296</ele><time>2026-04-20T18:15:26.938Z</time><hdop>4.687</hdop><vdop>5.625</vdop><extensions><gom:speed>0.072</gom:speed></extensions></trkpt>
   <trkpt lat="59.0685364718" lon="30.026276533"><ele>75.497</ele><time>2026-04-20T18:15:28.004Z</time><hdop>4.687</hdop><vdop>5.562</vdop><extensions><gom:speed>0.073</gom:speed></extensions></trkpt>
   <trkpt lat="59.0685346697" lon="30.0262762815"><ele>75.766</ele><time>2026-04-20T18:15:29.075Z</time><hdop>4.687</hdop><vdop>5.75</vdop><extensions><gom:speed>0.104</gom:speed></extensions></trkpt>
   <trkpt lat="59.0685348792" lon="30.0262762815"><ele>76.174</ele><time>2026-04-20T18:15:30.018Z</time><hdop>4.687</hdop><vdop>5.75</vdop><extensions><gom:speed>0.073</gom:speed></extensions></trkpt>
   <trkpt lat="59.0685317779" lon="30.0262747728"><ele>76.644</ele><time>2026-04-20T18:15:31.076Z</time><hdop>4.625</hdop><vdop>5.562</vdop><extensions><gom:speed>0.078</gom:speed></extensions></trkpt>
   <trkpt lat="59.0685309816" lon="30.0262752757"><ele>77.142</ele><time>2026-04-20T18:15:32.032Z</time><hdop>4.625</hdop><vdop>5.437</vdop><extensions><gom:speed>0.071</gom:speed></extensions></trkpt>
   <trkpt lat="59.0685304787" lon="30.0262744375"><ele>77.55</ele><time>2026-04-20T18:15:32.981Z</time><hdop>4.562</hdop><vdop>5.25</vdop><extensions><gom:speed>0.062</gom:speed></extensions></trkpt>
   <trkpt lat="59.0685263716" lon="30.0262738508"><ele>77.915</ele><time>2026-04-20T18:15:34.075Z</time><hdop>4.5</hdop><vdop>5.0</vdop><extensions><gom:speed>0.071</gom:speed></extensions></trkpt>
   <trkpt lat="59.0685250724" lon="30.0262755272"><ele>78.282</ele><time>2026-04-20T18:15:34.994Z</time><hdop>4.5</hdop><vdop>5.125</vdop><extensions><gom:speed>0.077</gom:speed></extensions></trkpt>
   <trkpt lat="59.0685213843" lon="30.0262733479"><ele>78.621</ele><time>2026-04-20T18:15:36.075Z</time><hdop>4.5</hdop><vdop>5.062</vdop><extensions><gom:speed>0.093</gom:speed></extensions></trkpt>
   <trkpt lat="59.0685189955" lon="30.0262720906"><ele>78.875</ele><time>2026-04-20T18:15:37.009Z</time><hdop>4.562</hdop><vdop>5.062</vdop><extensions><gom:speed>0.069</gom:speed></extensions></trkpt>
   <trkpt lat="59.068518786" lon="30.026273264"><ele>79.168</ele><time>2026-04-20T18:15:37.955Z</time><hdop>4.562</hdop><vdop>5.0</vdop><extensions><gom:speed>0.087</gom:speed></extensions></trkpt>
   <trkpt lat="59.068518786" lon="30.026273767"><ele>79.343</ele><time>2026-04-20T18:15:38.413Z</time><hdop>4.625</hdop><vdop>5.0</vdop><extensions><gom:speed>0.056</gom:speed></extensions></trkpt>
   <trkpt lat="59.068518786" lon="30.0262740184"><ele>79.522</ele><time>2026-04-20T18:15:39.022Z</time><hdop>4.687</hdop><vdop>4.937</vdop><extensions><gom:speed>0.099</gom:speed></extensions></trkpt>
   <trkpt lat="59.068518283" lon="30.0262736831"><ele>79.685</ele><time>2026-04-20T18:15:39.970Z</time><hdop>4.75</hdop><vdop>4.937</vdop><extensions><gom:speed>0.108</gom:speed></extensions></trkpt>
   <trkpt lat="59.0685166905" lon="30.0262748566"><ele>79.788</ele><time>2026-04-20T18:15:41.036Z</time><hdop>4.812</hdop><vdop>4.812</vdop><extensions><gom:speed>0.202</gom:speed></extensions></trkpt>
   <trkpt lat="59.0685150979" lon="30.0262782932"><ele>79.944</ele><time>2026-04-20T18:15:41.984Z</time><hdop>4.937</hdop><vdop>4.875</vdop><extensions><gom:speed>0.304</gom:speed></extensions></trkpt>
   <trkpt lat="59.0685117871" lon="30.0262832385"><ele>80.061</ele><time>2026-04-20T18:15:43.050Z</time><hdop>5.062</hdop><vdop>5.062</vdop><extensions><gom:speed>0.358</gom:speed></extensions></trkpt>
   <trkpt lat="59.0685061712" lon="30.0262807239"><ele>80.153</ele><time>2026-04-20T18:15:44.075Z</time><hdop>5.187</hdop><vdop>5.312</vdop><extensions><gom:speed>0.419</gom:speed></extensions></trkpt>
   <trkpt lat="59.0685024832" lon="30.0262773712"><ele>80.208</ele><time>2026-04-20T18:15:44.859Z</time><hdop>5.25</hdop><vdop>5.312</vdop><extensions><gom:speed>0.427</gom:speed></extensions></trkpt>
   <trkpt lat="59.0684988789" lon="30.0262757786"><ele>80.217</ele><time>2026-04-20T18:15:46.011Z</time><hdop>5.312</hdop><vdop>5.0</vdop><extensions><gom:speed>0.33</gom:speed></extensions></trkpt>
   <trkpt lat="59.0684987951" lon="30.0262752757"><ele>80.241</ele><time>2026-04-20T18:15:46.959Z</time><hdop>5.437</hdop><vdop>4.937</vdop><extensions><gom:speed>0.22</gom:speed></extensions></trkpt>
   <trkpt lat="59.0684996752" lon="30.026274186"><ele>80.281</ele><time>2026-04-20T18:15:48.025Z</time><hdop>5.5</hdop><vdop>4.937</vdop><extensions><gom:speed>0.145</gom:speed></extensions></trkpt>
   <trkpt lat="59.068501184" lon="30.0262739346"><ele>80.305</ele><time>2026-04-20T18:15:48.618Z</time><hdop>5.562</hdop><vdop>4.937</vdop><extensions><gom:speed>0.088</gom:speed></extensions></trkpt>
   <trkpt lat="59.068502567" lon="30.0262734317"><ele>80.336</ele><time>2026-04-20T18:15:49.252Z</time><hdop>5.75</hdop><vdop>5.0</vdop><extensions><gom:speed>0.126</gom:speed></extensions></trkpt>
   <trkpt lat="59.0685030699" lon="30.0262720906"><ele>80.371</ele><time>2026-04-20T18:15:50.039Z</time><hdop>5.875</hdop><vdop>5.0</vdop><extensions><gom:speed>0.091</gom:speed></extensions></trkpt>
   <trkpt lat="59.0685027765" lon="30.0262709171"><ele>80.41</ele><time>2026-04-20T18:15:50.987Z</time><hdop>6.0</hdop><vdop>5.0</vdop><extensions><gom:speed>0.101</gom:speed></extensions></trkpt>
   <trkpt lat="59.0685018964" lon="30.0262706657"><ele>80.444</ele><time>2026-04-20T18:15:52.053Z</time><hdop>6.125</hdop><vdop>4.937</vdop><extensions><gom:speed>0.16</gom:speed></extensions></trkpt>
   <trkpt lat="59.0685005972" lon="30.0262709171"><ele>80.49</ele><time>2026-04-20T18:15:53.002Z</time><hdop>6.25</hdop><vdop>4.812</vdop><extensions><gom:speed>0.198</gom:speed></extensions></trkpt>
   <trkpt lat="59.068499759" lon="30.026272342"><ele>80.518</ele><time>2026-04-20T18:15:53.599Z</time><hdop>6.312</hdop><vdop>4.812</vdop><extensions><gom:speed>0.234</gom:speed></extensions></trkpt>
   <trkpt lat="59.068496071" lon="30.0262715877"><ele>80.312</ele><time>2026-04-20T18:15:54.075Z</time><hdop>6.312</hdop><vdop>4.437</vdop><extensions><gom:speed>0.261</gom:speed></extensions></trkpt>
   <trkpt lat="59.0684933888" lon="30.0262726773"><ele>80.188</ele><time>2026-04-20T18:15:54.554Z</time><hdop>6.375</hdop><vdop>4.437</vdop><extensions><gom:speed>0.345</gom:speed></extensions></trkpt>
   <trkpt lat="59.0684859708" lon="30.0262702466"><ele>80.653</ele><time>2026-04-20T18:15:55.075Z</time><hdop>6.312</hdop><vdop>4.312</vdop><extensions><gom:speed>0.367</gom:speed></extensions></trkpt>
   <trkpt lat="59.068483582" lon="30.0262699951"><ele>80.93</ele><time>2026-04-20T18:15:55.529Z</time><hdop>6.25</hdop><vdop>4.312</vdop><extensions><gom:speed>0.411</gom:speed></extensions></trkpt>
   <trkpt lat="59.0684778823" lon="30.0262669776"><ele>81.248</ele><time>2026-04-20T18:15:56.075Z</time><hdop>6.187</hdop><vdop>4.5</vdop><extensions><gom:speed>0.448</gom:speed></extensions></trkpt>
   <trkpt lat="59.0684739847" lon="30.0262654689"><ele>81.438</ele><time>2026-04-20T18:15:56.814Z</time><hdop>6.062</hdop><vdop>4.5</vdop><extensions><gom:speed>0.417</gom:speed></extensions></trkpt>
   <trkpt lat="59.0684647646" lon="30.0262577575"><ele>81.746</ele><time>2026-04-20T18:15:58.075Z</time><hdop>5.812</hdop><vdop>4.625</vdop><extensions><gom:speed>0.382</gom:speed></extensions></trkpt>
   <trkpt lat="59.0684597774" lon="30.0262563326"><ele>81.997</ele><time>2026-04-20T18:15:59.075Z</time><hdop>5.375</hdop><vdop>6.312</vdop><extensions><gom:speed>0.339</gom:speed></extensions></trkpt>
   <trkpt lat="59.0684549997" lon="30.0262551591"><ele>82.451</ele><time>2026-04-20T18:16:00.075Z</time><hdop>5.125</hdop><vdop>6.312</vdop><extensions><gom:speed>0.275</gom:speed></extensions></trkpt>
   <trkpt lat="59.0684542872" lon="30.0262551591"><ele>82.722</ele><time>2026-04-20T18:16:00.939Z</time><hdop>5.125</hdop><vdop>6.312</vdop><extensions><gom:speed>0.24</gom:speed></extensions></trkpt>
   <trkpt lat="59.0684474979" lon="30.0262545724"><ele>83.735</ele><time>2026-04-20T18:16:02.075Z</time><hdop>4.812</hdop><vdop>6.125</vdop><extensions><gom:speed>0.152</gom:speed></extensions></trkpt>
   <trkpt lat="59.0684445642" lon="30.0262549915"><ele>84.866</ele><time>2026-04-20T18:16:03.075Z</time><hdop>4.75</hdop><vdop>6.187</vdop><extensions><gom:speed>0.153</gom:speed></extensions></trkpt>
   <trkpt lat="59.0684415886" lon="30.02625474"><ele>86.114</ele><time>2026-04-20T18:16:04.075Z</time><hdop>4.625</hdop><vdop>6.312</vdop><extensions><gom:speed>0.094</gom:speed></extensions></trkpt>
   <trkpt lat="59.0684379844" lon="30.026253818"><ele>87.204</ele><time>2026-04-20T18:16:05.075Z</time><hdop>4.562</hdop><vdop>6.312</vdop><extensions><gom:speed>0.077</gom:speed></extensions></trkpt>
   <trkpt lat="59.0684366852" lon="30.0262517225"><ele>88.428</ele><time>2026-04-20T18:16:06.033Z</time><hdop>4.562</hdop><vdop>6.375</vdop><extensions><gom:speed>0.076</gom:speed></extensions></trkpt>
   <trkpt lat="59.0684333744" lon="30.0262503814"><ele>89.591</ele><time>2026-04-20T18:16:07.076Z</time><hdop>4.562</hdop><vdop>6.375</vdop><extensions><gom:speed>0.101</gom:speed></extensions></trkpt>
   <trkpt lat="59.0684318656" lon="30.0262511358"><ele>90.413</ele><time>2026-04-20T18:16:08.047Z</time><hdop>4.562</hdop><vdop>6.437</vdop><extensions><gom:speed>0.076</gom:speed></extensions></trkpt>
   <trkpt lat="59.0684313627" lon="30.0262521416"><ele>90.905</ele><time>2026-04-20T18:16:08.997Z</time><hdop>4.625</hdop><vdop>6.437</vdop><extensions><gom:speed>0.091</gom:speed></extensions></trkpt>
   <trkpt lat="59.0684315723" lon="30.0262521416"><ele>91.282</ele><time>2026-04-20T18:16:09.503Z</time><hdop>4.687</hdop><vdop>6.437</vdop><extensions><gom:speed>0.081</gom:speed></extensions></trkpt>
   <trkpt lat="59.0684283871" lon="30.026251974"><ele>91.47</ele><time>2026-04-20T18:16:10.075Z</time><hdop>4.75</hdop><vdop>6.5</vdop><extensions><gom:speed>0.117</gom:speed></extensions></trkpt>
   <trkpt lat="59.0684261659" lon="30.0262509682"><ele>91.586</ele><time>2026-04-20T18:16:11.009Z</time><hdop>4.812</hdop><vdop>6.375</vdop><extensions><gom:speed>0.124</gom:speed></extensions></trkpt>
   <trkpt lat="59.0684249925" lon="30.0262506329"><ele>91.765</ele><time>2026-04-20T18:16:11.956Z</time><hdop>4.875</hdop><vdop>6.187</vdop><extensions><gom:speed>0.14</gom:speed></extensions></trkpt>
   <trkpt lat="59.06841967" lon="30.0262495433"><ele>92.614</ele><time>2026-04-20T18:16:13.075Z</time><hdop>4.937</hdop><vdop>5.562</vdop><extensions><gom:speed>0.214</gom:speed></extensions></trkpt>
   <trkpt lat="59.0684110785" lon="30.0262429216"><ele>93.666</ele><time>2026-04-20T18:16:14.075Z</time><hdop>4.937</hdop><vdop>5.625</vdop><extensions><gom:speed>0.355</gom:speed></extensions></trkpt>
   <trkpt lat="59.0684038701" lon="30.0262329471"><ele>95.014</ele><time>2026-04-20T18:16:15.075Z</time><hdop>4.875</hdop><vdop>5.5</vdop><extensions><gom:speed>0.426</gom:speed></extensions></trkpt>
   <trkpt lat="59.0683967874" lon="30.0262210448"><ele>96.532</ele><time>2026-04-20T18:16:16.075Z</time><hdop>4.812</hdop><vdop>5.25</vdop><extensions><gom:speed>0.43</gom:speed></extensions></trkpt>
   <trkpt lat="59.0683887826" lon="30.0262083881"><ele>97.552</ele><time>2026-04-20T18:16:17.076Z</time><hdop>4.812</hdop><vdop>5.062</vdop><extensions><gom:speed>0.476</gom:speed></extensions></trkpt>
   <trkpt lat="59.0683835859" lon="30.0262030237"><ele>98.162</ele><time>2026-04-20T18:16:17.913Z</time><hdop>4.812</hdop><vdop>5.062</vdop><extensions><gom:speed>0.52</gom:speed></extensions></trkpt>
   <trkpt lat="59.0683778862" lon="30.0262003415"><ele>98.059</ele><time>2026-04-20T18:16:19.057Z</time><hdop>4.875</hdop><vdop>6.5</vdop><extensions><gom:speed>0.508</gom:speed></extensions></trkpt>
   <trkpt lat="59.0683755811" lon="30.0261961505"><ele>97.081</ele><time>2026-04-20T18:16:19.538Z</time><hdop>4.937</hdop><vdop>6.562</vdop><extensions><gom:speed>0.488</gom:speed></extensions></trkpt>
   <trkpt lat="59.0683690852" lon="30.0261907861"><ele>95.715</ele><time>2026-04-20T18:16:20.075Z</time><hdop>5.0</hdop><vdop>6.875</vdop><extensions><gom:speed>0.458</gom:speed></extensions></trkpt>
   <trkpt lat="59.0683637627" lon="30.0261881877"><ele>94.419</ele><time>2026-04-20T18:16:21.075Z</time><hdop>5.0</hdop><vdop>6.812</vdop><extensions><gom:speed>0.477</gom:speed></extensions></trkpt>
   <trkpt lat="59.0683586916" lon="30.0261864275"><ele>93.645</ele><time>2026-04-20T18:16:22.080Z</time><hdop>5.062</hdop><vdop>6.812</vdop><extensions><gom:speed>0.51</gom:speed></extensions></trkpt>
   <trkpt lat="59.0683565961" lon="30.0261860922"><ele>92.688</ele><time>2026-04-20T18:16:22.661Z</time><hdop>5.125</hdop><vdop>6.562</vdop><extensions><gom:speed>0.413</gom:speed></extensions></trkpt>
   <trkpt lat="59.0683531596" lon="30.0261881877"><ele>91.718</ele><time>2026-04-20T18:16:23.757Z</time><hdop>5.125</hdop><vdop>6.812</vdop><extensions><gom:speed>0.38</gom:speed></extensions></trkpt>
   <trkpt lat="59.0683493877" lon="30.0261881877"><ele>91.131</ele><time>2026-04-20T18:16:24.852Z</time><hdop>5.125</hdop><vdop>7.125</vdop><extensions><gom:speed>0.333</gom:speed></extensions></trkpt>
   <trkpt lat="59.0683486752" lon="30.0261867628"><ele>90.724</ele><time>2026-04-20T18:16:25.699Z</time><hdop>5.187</hdop><vdop>7.312</vdop><extensions><gom:speed>0.295</gom:speed></extensions></trkpt>
   <trkpt lat="59.068345071" lon="30.0261821528"><ele>90.275</ele><time>2026-04-20T18:16:27.002Z</time><hdop>5.312</hdop><vdop>7.562</vdop><extensions><gom:speed>0.246</gom:speed></extensions></trkpt>
   <trkpt lat="59.0683444843" lon="30.0261816498"><ele>90.007</ele><time>2026-04-20T18:16:27.577Z</time><hdop>5.312</hdop><vdop>7.562</vdop><extensions><gom:speed>0.23</gom:speed></extensions></trkpt>
   <trkpt lat="59.0683433946" lon="30.0261828233"><ele>89.838</ele><time>2026-04-20T18:16:28.417Z</time><hdop>5.312</hdop><vdop>6.875</vdop><extensions><gom:speed>0.202</gom:speed></extensions></trkpt>
   <trkpt lat="59.0683422631" lon="30.0261835777"><ele>90.187</ele><time>2026-04-20T18:16:29.075Z</time><hdop>5.312</hdop><vdop>6.437</vdop><extensions><gom:speed>0.207</gom:speed></extensions></trkpt>
   <trkpt lat="59.0683395809" lon="30.0261853379"><ele>90.218</ele><time>2026-04-20T18:16:30.075Z</time><hdop>5.187</hdop><vdop>5.562</vdop><extensions><gom:speed>0.233</gom:speed></extensions></trkpt>
   <trkpt lat="59.0683352642" lon="30.0261878524"><ele>89.764</ele><time>2026-04-20T18:16:31.075Z</time><hdop>5.062</hdop><vdop>5.125</vdop><extensions><gom:speed>0.285</gom:speed></extensions></trkpt>
   <trkpt lat="59.0683343841" lon="30.0261882715"><ele>89.493</ele><time>2026-04-20T18:16:31.860Z</time><hdop>5.062</hdop><vdop>5.125</vdop><extensions><gom:speed>0.262</gom:speed></extensions></trkpt>
   <trkpt lat="59.0683213921" lon="30.026193133"><ele>89.769</ele><time>2026-04-20T18:16:33.075Z</time><hdop>4.937</hdop><vdop>4.75</vdop><extensions><gom:speed>0.348</gom:speed></extensions></trkpt>
   <trkpt lat="59.0683141837" lon="30.02619548"><ele>89.934</ele><time>2026-04-20T18:16:33.994Z</time><hdop>4.875</hdop><vdop>4.75</vdop><extensions><gom:speed>0.445</gom:speed></extensions></trkpt>
   <trkpt lat="59.0683013594" lon="30.0261993357"><ele>89.558</ele><time>2026-04-20T18:16:34.934Z</time><hdop>4.875</hdop><vdop>4.75</vdop><extensions><gom:speed>0.575</gom:speed></extensions></trkpt>
   <trkpt lat="59.0682878645" lon="30.0262006768"><ele>88.828</ele><time>2026-04-20T18:16:35.920Z</time><hdop>4.875</hdop><vdop>4.625</vdop><extensions><gom:speed>0.62</gom:speed></extensions></trkpt>
   <trkpt lat="59.0682781834" lon="30.0261970725"><ele>88.418</ele><time>2026-04-20T18:16:36.701Z</time><hdop>4.812</hdop><vdop>4.375</vdop><extensions><gom:speed>0.654</gom:speed></extensions></trkpt>
   <trkpt lat="59.0682629703" lon="30.0261983298"><ele>87.825</ele><time>2026-04-20T18:16:38.076Z</time><hdop>4.812</hdop><vdop>4.25</vdop><extensions><gom:speed>0.539</gom:speed></extensions></trkpt>
   <trkpt lat="59.0682564743" lon="30.0262103998"><ele>87.847</ele><time>2026-04-20T18:16:39.075Z</time><hdop>4.75</hdop><vdop>4.062</vdop><extensions><gom:speed>0.362</gom:speed></extensions></trkpt>
   <trkpt lat="59.0682546722" lon="30.0262109865"><ele>87.861</ele><time>2026-04-20T18:16:39.819Z</time><hdop>4.687</hdop><vdop>4.062</vdop><extensions><gom:speed>0.294</gom:speed></extensions></trkpt>
   <trkpt lat="59.0682493916" lon="30.0262102321"><ele>88.288</ele><time>2026-04-20T18:16:40.797Z</time><hdop>4.562</hdop><vdop>4.062</vdop><extensions><gom:speed>0.292</gom:speed></extensions></trkpt>
   <trkpt lat="59.0682461646" lon="30.0262100645"><ele>88.178</ele><time>2026-04-20T18:16:41.695Z</time><hdop>4.562</hdop><vdop>4.25</vdop><extensions><gom:speed>0.305</gom:speed></extensions></trkpt>
   <trkpt lat="59.0682402972" lon="30.0262096454"><ele>88.269</ele><time>2026-04-20T18:16:42.634Z</time><hdop>4.562</hdop><vdop>4.562</vdop><extensions><gom:speed>0.37</gom:speed></extensions></trkpt>
   <trkpt lat="59.0682346814" lon="30.0262082205"><ele>87.811</ele><time>2026-04-20T18:16:43.581Z</time><hdop>4.625</hdop><vdop>6.375</vdop><extensions><gom:speed>0.484</gom:speed></extensions></trkpt>
   <trkpt lat="59.068229275" lon="30.0262037781"><ele>87.492</ele><time>2026-04-20T18:16:44.441Z</time><hdop>4.75</hdop><vdop>6.062</vdop><extensions><gom:speed>0.554</gom:speed></extensions></trkpt>
   <trkpt lat="59.068224665" lon="30.0261974916"><ele>87.254</ele><time>2026-04-20T18:16:45.010Z</time><hdop>4.875</hdop><vdop>5.812</vdop><extensions><gom:speed>0.549</gom:speed></extensions></trkpt>
   <trkpt lat="59.0682222761" lon="30.0261930492"><ele>87.112</ele><time>2026-04-20T18:16:45.821Z</time><hdop>5.062</hdop><vdop>5.812</vdop><extensions><gom:speed>0.527</gom:speed></extensions></trkpt>
   <trkpt lat="59.0682171632" lon="30.0261892774"><ele>87.129</ele><time>2026-04-20T18:16:46.820Z</time><hdop>5.187</hdop><vdop>5.687</vdop><extensions><gom:speed>0.487</gom:speed></extensions></trkpt>
   <trkpt lat="59.0682130979" lon="30.0261869304"><ele>87.192</ele><time>2026-04-20T18:16:47.521Z</time><hdop>5.312</hdop><vdop>5.687</vdop><extensions><gom:speed>0.553</gom:speed></extensions></trkpt>
   <trkpt lat="59.0682097871" lon="30.0261851702"><ele>87.058</ele><time>2026-04-20T18:16:48.076Z</time><hdop>5.375</hdop><vdop>5.812</vdop><extensions><gom:speed>0.528</gom:speed></extensions></trkpt>
   <trkpt lat="59.0682031654" lon="30.0261809793"><ele>86.775</ele><time>2026-04-20T18:16:49.038Z</time><hdop>5.5</hdop><vdop>5.687</vdop><extensions><gom:speed>0.605</gom:speed></extensions></trkpt>
   <trkpt lat="59.0681961665" lon="30.0261774589"><ele>86.766</ele><time>2026-04-20T18:16:49.985Z</time><hdop>5.625</hdop><vdop>5.562</vdop><extensions><gom:speed>0.627</gom:speed></extensions></trkpt>
   <trkpt lat="59.0681929814" lon="30.026176034"><ele>86.761</ele><time>2026-04-20T18:16:50.696Z</time><hdop>5.75</hdop><vdop>5.562</vdop><extensions><gom:speed>0.626</gom:speed></extensions></trkpt>
   <trkpt lat="59.0681881618" lon="30.0261759501"><ele>86.767</ele><time>2026-04-20T18:16:51.360Z</time><hdop>5.812</hdop><vdop>5.562</vdop><extensions><gom:speed>0.594</gom:speed></extensions></trkpt>
   <trkpt lat="59.0681856891" lon="30.0261766207"><ele>86.844</ele><time>2026-04-20T18:16:51.999Z</time><hdop>5.875</hdop><vdop>5.562</vdop><extensions><gom:speed>0.546</gom:speed></extensions></trkpt>
   <trkpt lat="59.0681824621" lon="30.0261813984"><ele>86.819</ele><time>2026-04-20T18:16:53.076Z</time><hdop>5.937</hdop><vdop>5.375</vdop><extensions><gom:speed>0.54</gom:speed></extensions></trkpt>
   <trkpt lat="59.0681780616" lon="30.026184332"><ele>86.804</ele><time>2026-04-20T18:16:53.996Z</time><hdop>5.937</hdop><vdop>5.375</vdop><extensions><gom:speed>0.589</gom:speed></extensions></trkpt>
   <trkpt lat="59.0681723619" lon="30.0261870981"><ele>86.769</ele><time>2026-04-20T18:16:55.034Z</time><hdop>5.937</hdop><vdop>5.062</vdop><extensions><gom:speed>0.599</gom:speed></extensions></trkpt>
   <trkpt lat="59.0681678776" lon="30.0261910376"><ele>86.735</ele><time>2026-04-20T18:16:55.902Z</time><hdop>5.937</hdop><vdop>4.937</vdop><extensions><gom:speed>0.653</gom:speed></extensions></trkpt>
   <trkpt lat="59.0681651954" lon="30.0261913728"><ele>86.777</ele><time>2026-04-20T18:16:56.800Z</time><hdop>5.937</hdop><vdop>4.937</vdop><extensions><gom:speed>0.68</gom:speed></extensions></trkpt>
   <trkpt lat="59.0681581965" lon="30.026190367"><ele>86.843</ele><time>2026-04-20T18:16:57.720Z</time><hdop>6.0</hdop><vdop>4.875</vdop><extensions><gom:speed>0.681</gom:speed></extensions></trkpt>
   <trkpt lat="59.0681545923" lon="30.0261905347"><ele>86.219</ele><time>2026-04-20T18:16:58.636Z</time><hdop>6.062</hdop><vdop>4.687</vdop><extensions><gom:speed>0.677</gom:speed></extensions></trkpt>
   <trkpt lat="59.0681489764" lon="30.026193636"><ele>85.592</ele><time>2026-04-20T18:16:59.720Z</time><hdop>6.062</hdop><vdop>4.562</vdop><extensions><gom:speed>0.697</gom:speed></extensions></trkpt>
   <trkpt lat="59.0681437796" lon="30.0261983298"><ele>84.575</ele><time>2026-04-20T18:17:00.660Z</time><hdop>6.062</hdop><vdop>4.5</vdop><extensions><gom:speed>0.664</gom:speed></extensions></trkpt>
   <trkpt lat="59.0681402592" lon="30.0262029399"><ele>83.113</ele><time>2026-04-20T18:17:01.292Z</time><hdop>6.0</hdop><vdop>4.375</vdop><extensions><gom:speed>0.65</gom:speed></extensions></trkpt>
   <trkpt lat="59.0681362778" lon="30.0262049515"><ele>82.046</ele><time>2026-04-20T18:17:02.075Z</time><hdop>5.937</hdop><vdop>4.625</vdop><extensions><gom:speed>0.596</gom:speed></extensions></trkpt>
   <trkpt lat="59.0681341823" lon="30.0262046163"><ele>81.409</ele><time>2026-04-20T18:17:02.558Z</time><hdop>5.875</hdop><vdop>4.625</vdop><extensions><gom:speed>0.507</gom:speed></extensions></trkpt>
   <trkpt lat="59.0681316678" lon="30.0262058735"><ele>81.512</ele><time>2026-04-20T18:17:03.076Z</time><hdop>5.812</hdop><vdop>4.687</vdop><extensions><gom:speed>0.501</gom:speed></extensions></trkpt>
   <trkpt lat="59.0681257585" lon="30.0262084719"><ele>81.726</ele><time>2026-04-20T18:17:04.076Z</time><hdop>5.687</hdop><vdop>4.687</vdop><extensions><gom:speed>0.526</gom:speed></extensions></trkpt>
   <trkpt lat="59.0681189692" lon="30.0262096454"><ele>81.818</ele><time>2026-04-20T18:17:05.075Z</time><hdop>5.625</hdop><vdop>4.5</vdop><extensions><gom:speed>0.584</gom:speed></extensions></trkpt>
   <trkpt lat="59.0681122637" lon="30.0262146745"><ele>81.446</ele><time>2026-04-20T18:17:06.075Z</time><hdop>5.562</hdop><vdop>4.312</vdop><extensions><gom:speed>0.635</gom:speed></extensions></trkpt>
   <trkpt lat="59.068106564" lon="30.0262216315"><ele>81.224</ele><time>2026-04-20T18:17:06.943Z</time><hdop>5.5</hdop><vdop>4.312</vdop><extensions><gom:speed>0.697</gom:speed></extensions></trkpt>
   <trkpt lat="59.0681014929" lon="30.0262353778"><ele>80.576</ele><time>2026-04-20T18:17:07.858Z</time><hdop>5.5</hdop><vdop>4.062</vdop><extensions><gom:speed>0.703</gom:speed></extensions></trkpt>
   <trkpt lat="59.068095877" lon="30.0262498785"><ele>80.336</ele><time>2026-04-20T18:17:08.739Z</time><hdop>5.437</hdop><vdop>4.0</vdop><extensions><gom:speed>0.715</gom:speed></extensions></trkpt>
   <trkpt lat="59.068091267" lon="30.0262567517"><ele>80.623</ele><time>2026-04-20T18:17:09.296Z</time><hdop>5.437</hdop><vdop>4.375</vdop><extensions><gom:speed>0.718</gom:speed></extensions></trkpt>
   <trkpt lat="59.0680815859" lon="30.0262660556"><ele>81.198</ele><time>2026-04-20T18:17:10.075Z</time><hdop>5.437</hdop><vdop>4.437</vdop><extensions><gom:speed>0.747</gom:speed></extensions></trkpt>
   <trkpt lat="59.0680765987" lon="30.0262687378"><ele>81.541</ele><time>2026-04-20T18:17:10.720Z</time><hdop>5.437</hdop><vdop>4.437</vdop><extensions><gom:speed>0.758</gom:speed></extensions></trkpt>
   <trkpt lat="59.0680677977" lon="30.0262744375"><ele>81.45</ele><time>2026-04-20T18:17:11.639Z</time><hdop>5.375</hdop><vdop>4.312</vdop><extensions><gom:speed>0.741</gom:speed></extensions></trkpt>
   <trkpt lat="59.0680605892" lon="30.0262805563"><ele>80.939</ele><time>2026-04-20T18:17:12.438Z</time><hdop>5.312</hdop><vdop>4.187</vdop><extensions><gom:speed>0.731</gom:speed></extensions></trkpt>
   <trkpt lat="59.0680553924" lon="30.0262870942"><ele>80.484</ele><time>2026-04-20T18:17:13.075Z</time><hdop>5.25</hdop><vdop>3.875</vdop><extensions><gom:speed>0.738</gom:speed></extensions></trkpt>
   <trkpt lat="59.0680491898" lon="30.0262954761"><ele>80.212</ele><time>2026-04-20T18:17:14.037Z</time><hdop>5.187</hdop><vdop>3.875</vdop><extensions><gom:speed>0.706</gom:speed></extensions></trkpt>
   <trkpt lat="59.0680424843" lon="30.0263001699"><ele>80.046</ele><time>2026-04-20T18:17:14.878Z</time><hdop>5.125</hdop><vdop>6.062</vdop><extensions><gom:speed>0.695</gom:speed></extensions></trkpt>
   <trkpt lat="59.0680401793" lon="30.0263008405"><ele>80.011</ele><time>2026-04-20T18:17:15.456Z</time><hdop>5.125</hdop><vdop>6.062</vdop><extensions><gom:speed>0.68</gom:speed></extensions></trkpt>
   <trkpt lat="59.0680333899" lon="30.0263030198"><ele>79.991</ele><time>2026-04-20T18:17:15.992Z</time><hdop>5.125</hdop><vdop>6.062</vdop><extensions><gom:speed>0.664</gom:speed></extensions></trkpt>
   <trkpt lat="59.0680288637" lon="30.0263040256"><ele>79.798</ele><time>2026-04-20T18:17:16.775Z</time><hdop>5.125</hdop><vdop>5.937</vdop><extensions><gom:speed>0.646</gom:speed></extensions></trkpt>
   <trkpt lat="59.0680226611" lon="30.0263062887"><ele>79.541</ele><time>2026-04-20T18:17:17.760Z</time><hdop>5.187</hdop><vdop>5.937</vdop><extensions><gom:speed>0.65</gom:speed></extensions></trkpt>
   <trkpt lat="59.0680169614" lon="30.0263086357"><ele>79.364</ele><time>2026-04-20T18:17:18.638Z</time><hdop>5.312</hdop><vdop>5.812</vdop><extensions><gom:speed>0.667</gom:speed></extensions></trkpt>
   <trkpt lat="59.0680110941" lon="30.026311737"><ele>79.351</ele><time>2026-04-20T18:17:19.523Z</time><hdop>5.5</hdop><vdop>5.75</vdop><extensions><gom:speed>0.646</gom:speed></extensions></trkpt>
   <trkpt lat="59.0680089986" lon="30.0263122399"><ele>79.417</ele><time>2026-04-20T18:17:20.075Z</time><hdop>5.562</hdop><vdop>5.875</vdop><extensions><gom:speed>0.622</gom:speed></extensions></trkpt>
   <trkpt lat="59.068004179" lon="30.0263136648"><ele>79.556</ele><time>2026-04-20T18:17:21.024Z</time><hdop>5.625</hdop><vdop>5.75</vdop><extensions><gom:speed>0.606</gom:speed></extensions></trkpt>
   <trkpt lat="59.0680024607" lon="30.0263140839"><ele>79.639</ele><time>2026-04-20T18:17:21.617Z</time><hdop>5.75</hdop><vdop>5.75</vdop><extensions><gom:speed>0.608</gom:speed></extensions></trkpt>
   <trkpt lat="59.0679965934" lon="30.0263161794"><ele>79.763</ele><time>2026-04-20T18:17:22.320Z</time><hdop>5.937</hdop><vdop>5.875</vdop><extensions><gom:speed>0.613</gom:speed></extensions></trkpt>
   <trkpt lat="59.0679960905" lon="30.0263162632"><ele>80.108</ele><time>2026-04-20T18:17:23.075Z</time><hdop>6.0</hdop><vdop>5.562</vdop><extensions><gom:speed>0.544</gom:speed></extensions></trkpt>
   <trkpt lat="59.0679962581" lon="30.0263191969"><ele>80.314</ele><time>2026-04-20T18:17:23.614Z</time><hdop>6.0</hdop><vdop>5.562</vdop><extensions><gom:speed>0.512</gom:speed></extensions></trkpt>
   <trkpt lat="59.0679959647" lon="30.026329339"><ele>80.728</ele><time>2026-04-20T18:17:24.996Z</time><hdop>6.125</hdop><vdop>5.5</vdop><extensions><gom:speed>0.451</gom:speed></extensions></trkpt>
   <trkpt lat="59.0679958809" lon="30.0263285846"><ele>81.378</ele><time>2026-04-20T18:17:26.000Z</time><hdop>6.125</hdop><vdop>5.437</vdop><extensions><gom:speed>0.301</gom:speed></extensions></trkpt>
   <trkpt lat="59.0679956714" lon="30.0263271597"><ele>81.767</ele><time>2026-04-20T18:17:26.536Z</time><hdop>6.125</hdop><vdop>5.437</vdop><extensions><gom:speed>0.218</gom:speed></extensions></trkpt>
   <trkpt lat="59.0679947913" lon="30.0263249804"><ele>81.715</ele><time>2026-04-20T18:17:27.075Z</time><hdop>6.062</hdop><vdop>5.25</vdop><extensions><gom:speed>0.245</gom:speed></extensions></trkpt>
   <trkpt lat="59.0679938693" lon="30.0263235555"><ele>81.684</ele><time>2026-04-20T18:17:27.896Z</time><hdop>6.0</hdop><vdop>5.25</vdop><extensions><gom:speed>0.272</gom:speed></extensions></trkpt>
   <trkpt lat="59.0679844815" lon="30.0263250642"><ele>81.007</ele><time>2026-04-20T18:17:29.075Z</time><hdop>5.812</hdop><vdop>5.187</vdop><extensions><gom:speed>0.309</gom:speed></extensions></trkpt>
   <trkpt lat="59.0679802906" lon="30.0263247289"><ele>80.602</ele><time>2026-04-20T18:17:30.021Z</time><hdop>5.687</hdop><vdop>5.187</vdop><extensions><gom:speed>0.331</gom:speed></extensions></trkpt>
   <trkpt lat="59.0679722859" lon="30.0263247289"><ele>80.533</ele><time>2026-04-20T18:17:31.075Z</time><hdop>5.562</hdop><vdop>4.812</vdop><extensions><gom:speed>0.348</gom:speed></extensions></trkpt>
   <trkpt lat="59.0679663766" lon="30.0263218791"><ele>80.971</ele><time>2026-04-20T18:17:32.075Z</time><hdop>5.312</hdop><vdop>4.75</vdop><extensions><gom:speed>0.349</gom:speed></extensions></trkpt>
   <trkpt lat="59.0679602998" lon="30.0263168499"><ele>81.812</ele><time>2026-04-20T18:17:33.075Z</time><hdop>5.187</hdop><vdop>4.625</vdop><extensions><gom:speed>0.394</gom:speed></extensions></trkpt>
   <trkpt lat="59.0679537619" lon="30.0263116532"><ele>82.36</ele><time>2026-04-20T18:17:34.075Z</time><hdop>5.062</hdop><vdop>4.5</vdop><extensions><gom:speed>0.416</gom:speed></extensions></trkpt>
   <trkpt lat="59.0679474754" lon="30.0263056182"><ele>83.55</ele><time>2026-04-20T18:17:35.075Z</time><hdop>4.875</hdop><vdop>4.25</vdop><extensions><gom:speed>0.418</gom:speed></extensions></trkpt>
   <trkpt lat="59.0679394707" lon="30.0262982421"><ele>84.136</ele><time>2026-04-20T18:17:36.075Z</time><hdop>4.812</hdop><vdop>4.437</vdop><extensions><gom:speed>0.472</gom:speed></extensions></trkpt>
   <trkpt lat="59.0679319689" lon="30.026291788"><ele>84.726</ele><time>2026-04-20T18:17:37.075Z</time><hdop>4.687</hdop><vdop>4.562</vdop><extensions><gom:speed>0.485</gom:speed></extensions></trkpt>
   <trkpt lat="59.0679245928" lon="30.0262880162"><ele>84.521</ele><time>2026-04-20T18:17:38.075Z</time><hdop>4.625</hdop><vdop>4.375</vdop><extensions><gom:speed>0.521</gom:speed></extensions></trkpt>
   <trkpt lat="59.0679176778" lon="30.0262872618"><ele>84.623</ele><time>2026-04-20T18:17:39.075Z</time><hdop>4.5</hdop><vdop>5.625</vdop><extensions><gom:speed>0.527</gom:speed></extensions></trkpt>
   <trkpt lat="59.0679123972" lon="30.0262839929"><ele>84.684</ele><time>2026-04-20T18:17:39.994Z</time><hdop>4.437</hdop><vdop>5.625</vdop><extensions><gom:speed>0.544</gom:speed></extensions></trkpt>
   <trkpt lat="59.0679060688" lon="30.0262738508"><ele>85.022</ele><time>2026-04-20T18:17:41.020Z</time><hdop>4.375</hdop><vdop>5.375</vdop><extensions><gom:speed>0.509</gom:speed></extensions></trkpt>
   <trkpt lat="59.0679026742" lon="30.0262685702"><ele>85.253</ele><time>2026-04-20T18:17:41.937Z</time><hdop>4.375</hdop><vdop>5.312</vdop><extensions><gom:speed>0.545</gom:speed></extensions></trkpt>
   <trkpt lat="59.0678984832" lon="30.0262622837"><ele>85.359</ele><time>2026-04-20T18:17:42.780Z</time><hdop>4.437</hdop><vdop>5.375</vdop><extensions><gom:speed>0.558</gom:speed></extensions></trkpt>
   <trkpt lat="59.0678963877" lon="30.0262569193"><ele>85.555</ele><time>2026-04-20T18:17:43.358Z</time><hdop>4.5</hdop><vdop>5.375</vdop><extensions><gom:speed>0.564</gom:speed></extensions></trkpt>
   <trkpt lat="59.0678931607" lon="30.0262480345"><ele>85.287</ele><time>2026-04-20T18:17:44.075Z</time><hdop>4.5</hdop><vdop>5.375</vdop><extensions><gom:speed>0.641</gom:speed></extensions></trkpt>
   <trkpt lat="59.0678875867" lon="30.026238563"><ele>84.581</ele><time>2026-04-20T18:17:45.075Z</time><hdop>4.562</hdop><vdop>5.312</vdop><extensions><gom:speed>0.623</gom:speed></extensions></trkpt>
   <trkpt lat="59.0678804621" lon="30.0262350426"><ele>83.396</ele><time>2026-04-20T18:17:46.075Z</time><hdop>4.625</hdop><vdop>5.312</vdop><extensions><gom:speed>0.566</gom:speed></extensions></trkpt>
   <trkpt lat="59.067872667" lon="30.0262339529"><ele>82.522</ele><time>2026-04-20T18:17:47.075Z</time><hdop>4.562</hdop><vdop>5.687</vdop><extensions><gom:speed>0.508</gom:speed></extensions></trkpt>
   <trkpt lat="59.0678683922" lon="30.0262315222"><ele>81.977</ele><time>2026-04-20T18:17:48.075Z</time><hdop>4.562</hdop><vdop>5.562</vdop><extensions><gom:speed>0.405</gom:speed></extensions></trkpt>
   <trkpt lat="59.0678650813" lon="30.0262282532"><ele>81.995</ele><time>2026-04-20T18:17:49.075Z</time><hdop>4.562</hdop><vdop>5.375</vdop><extensions><gom:speed>0.275</gom:speed></extensions></trkpt>
   <trkpt lat="59.0678651651" lon="30.0262286723"><ele>82.353</ele><time>2026-04-20T18:17:50.051Z</time><hdop>4.5</hdop><vdop>5.187</vdop><extensions><gom:speed>0.164</gom:speed></extensions></trkpt>
   <trkpt lat="59.0678636983" lon="30.0262281694"><ele>82.645</ele><time>2026-04-20T18:17:51.075Z</time><hdop>4.5</hdop><vdop>5.062</vdop><extensions><gom:speed>0.087</gom:speed></extensions></trkpt>
   <trkpt lat="59.0678634888" lon="30.0262285885"><ele>82.908</ele><time>2026-04-20T18:17:51.945Z</time><hdop>4.5</hdop><vdop>4.812</vdop><extensions><gom:speed>0.065</gom:speed></extensions></trkpt>
   <trkpt lat="59.0678637821" lon="30.02622884"><ele>83.065</ele><time>2026-04-20T18:17:52.539Z</time><hdop>4.562</hdop><vdop>4.812</vdop><extensions><gom:speed>0.024</gom:speed></extensions></trkpt>
   <trkpt lat="59.0678616867" lon="30.0262267445"><ele>83.19</ele><time>2026-04-20T18:17:53.076Z</time><hdop>4.562</hdop><vdop>4.625</vdop><extensions><gom:speed>0.064</gom:speed></extensions></trkpt>
   <trkpt lat="59.0678587949" lon="30.0262245652"><ele>83.248</ele><time>2026-04-20T18:17:54.075Z</time><hdop>4.562</hdop><vdop>4.437</vdop><extensions><gom:speed>0.102</gom:speed></extensions></trkpt>
   <trkpt lat="59.0678557774" lon="30.0262219668"><ele>83.221</ele><time>2026-04-20T18:17:55.075Z</time><hdop>4.562</hdop><vdop>4.437</vdop><extensions><gom:speed>0.083</gom:speed></extensions></trkpt>
   <trkpt lat="59.0678546878" lon="30.0262220506"><ele>83.205</ele><time>2026-04-20T18:17:56.054Z</time><hdop>4.562</hdop><vdop>4.437</vdop><extensions><gom:speed>0.124</gom:speed></extensions></trkpt>
   <trkpt lat="59.0678514607" lon="30.0262210448"><ele>83.228</ele><time>2026-04-20T18:17:56.955Z</time><hdop>4.562</hdop><vdop>4.312</vdop><extensions><gom:speed>0.177</gom:speed></extensions></trkpt>
   <trkpt lat="59.0678459706" lon="30.0262215477"><ele>83.531</ele><time>2026-04-20T18:17:57.812Z</time><hdop>4.5</hdop><vdop>4.125</vdop><extensions><gom:speed>0.329</gom:speed></extensions></trkpt>
   <trkpt lat="59.0678414863" lon="30.0262240623"><ele>84.148</ele><time>2026-04-20T18:17:58.817Z</time><hdop>4.437</hdop><vdop>4.062</vdop><extensions><gom:speed>0.406</gom:speed></extensions></trkpt>
   <trkpt lat="59.0678321824" lon="30.0262324442"><ele>84.791</ele><time>2026-04-20T18:18:00.054Z</time><hdop>4.312</hdop><vdop>3.937</vdop><extensions><gom:speed>0.459</gom:speed></extensions></trkpt>
   <trkpt lat="59.067827698" lon="30.0262312707"><ele>85.267</ele><time>2026-04-20T18:18:00.697Z</time><hdop>4.25</hdop><vdop>3.75</vdop><extensions><gom:speed>0.5</gom:speed></extensions></trkpt>
   <trkpt lat="59.0678224594" lon="30.0262244814"><ele>85.59</ele><time>2026-04-20T18:18:01.840Z</time><hdop>4.125</hdop><vdop>3.625</vdop><extensions><gom:speed>0.433</gom:speed></extensions></trkpt>
   <trkpt lat="59.0678200705" lon="30.0262164347"><ele>85.831</ele><time>2026-04-20T18:18:02.917Z</time><hdop>4.0</hdop><vdop>3.625</vdop><extensions><gom:speed>0.385</gom:speed></extensions></trkpt>
   <trkpt lat="59.0678176817" lon="30.0262108189"><ele>86.335</ele><time>2026-04-20T18:18:04.076Z</time><hdop>4.0</hdop><vdop>3.562</vdop><extensions><gom:speed>0.298</gom:speed></extensions></trkpt>
   <trkpt lat="59.0678148737" lon="30.0262115732"><ele>86.636</ele><time>2026-04-20T18:18:05.019Z</time><hdop>4.0</hdop><vdop>3.562</vdop><extensions><gom:speed>0.315</gom:speed></extensions></trkpt>
   <trkpt lat="59.0678117724" lon="30.026215848"><ele>86.704</ele><time>2026-04-20T18:18:06.044Z</time><hdop>4.062</hdop><vdop>3.875</vdop><extensions><gom:speed>0.347</gom:speed></extensions></trkpt>
   <trkpt lat="59.0678106828" lon="30.0262190331"><ele>86.745</ele><time>2026-04-20T18:18:06.699Z</time><hdop>4.125</hdop><vdop>3.875</vdop><extensions><gom:speed>0.341</gom:speed></extensions></trkpt>
   <trkpt lat="59.0678081682" lon="30.026220961"><ele>86.689</ele><time>2026-04-20T18:18:07.340Z</time><hdop>4.187</hdop><vdop>3.812</vdop><extensions><gom:speed>0.334</gom:speed></extensions></trkpt>
   <trkpt lat="59.0678053603" lon="30.0262220506"><ele>86.773</ele><time>2026-04-20T18:18:08.075Z</time><hdop>4.187</hdop><vdop>3.812</vdop><extensions><gom:speed>0.29</gom:speed></extensions></trkpt>
   <trkpt lat="59.0678037677" lon="30.0262222182"><ele>86.824</ele><time>2026-04-20T18:18:08.781Z</time><hdop>4.187</hdop><vdop>3.812</vdop><extensions><gom:speed>0.222</gom:speed></extensions></trkpt>
   <trkpt lat="59.0678024685" lon="30.0262221344"><ele>86.633</ele><time>2026-04-20T18:18:09.453Z</time><hdop>4.312</hdop><vdop>3.875</vdop><extensions><gom:speed>0.223</gom:speed></extensions></trkpt>
   <trkpt lat="59.0678005826" lon="30.0262210448"><ele>86.3</ele><time>2026-04-20T18:18:10.075Z</time><hdop>4.312</hdop><vdop>3.812</vdop><extensions><gom:speed>0.226</gom:speed></extensions></trkpt>
   <trkpt lat="59.0677972717" lon="30.026217692"><ele>85.913</ele><time>2026-04-20T18:18:11.076Z</time><hdop>4.375</hdop><vdop>3.75</vdop><extensions><gom:speed>0.22</gom:speed></extensions></trkpt>
   <trkpt lat="59.0677926617" lon="30.0262143393"><ele>85.731</ele><time>2026-04-20T18:18:12.075Z</time><hdop>4.375</hdop><vdop>3.687</vdop><extensions><gom:speed>0.264</gom:speed></extensions></trkpt>
   <trkpt lat="59.0677888898" lon="30.0262141716"><ele>85.622</ele><time>2026-04-20T18:18:12.957Z</time><hdop>4.437</hdop><vdop>3.687</vdop><extensions><gom:speed>0.344</gom:speed></extensions></trkpt>
   <trkpt lat="59.067782771" lon="30.0262118247"><ele>85.518</ele><time>2026-04-20T18:18:13.737Z</time><hdop>4.437</hdop><vdop>3.437</vdop><extensions><gom:speed>0.443</gom:speed></extensions></trkpt>
   <trkpt lat="59.0677731738" lon="30.0262028561"><ele>85.529</ele><time>2026-04-20T18:18:15.076Z</time><hdop>4.5</hdop><vdop>3.75</vdop><extensions><gom:speed>0.416</gom:speed></extensions></trkpt>
   <trkpt lat="59.0677678932" lon="30.0261938874"><ele>85.629</ele><time>2026-04-20T18:18:16.076Z</time><hdop>4.562</hdop><vdop>4.437</vdop><extensions><gom:speed>0.418</gom:speed></extensions></trkpt>
   <trkpt lat="59.0677624868" lon="30.0261882715"><ele>85.688</ele><time>2026-04-20T18:18:16.974Z</time><hdop>4.687</hdop><vdop>4.437</vdop><extensions><gom:speed>0.52</gom:speed></extensions></trkpt>
   <trkpt lat="59.0677542726" lon="30.0261849188"><ele>85.651</ele><time>2026-04-20T18:18:17.715Z</time><hdop>4.75</hdop><vdop>4.5</vdop><extensions><gom:speed>0.538</gom:speed></extensions></trkpt>
   <trkpt lat="59.0677497883" lon="30.0261844997"><ele>85.638</ele><time>2026-04-20T18:18:18.595Z</time><hdop>4.812</hdop><vdop>4.5</vdop><extensions><gom:speed>0.612</gom:speed></extensions></trkpt>
   <trkpt lat="59.0677456811" lon="30.0261838291"><ele>85.783</ele><time>2026-04-20T18:18:19.075Z</time><hdop>4.875</hdop><vdop>4.5</vdop><extensions><gom:speed>0.585</gom:speed></extensions></trkpt>
   <trkpt lat="59.0677354971" lon="30.0261842482"><ele>86.859</ele><time>2026-04-20T18:18:20.076Z</time><hdop>4.937</hdop><vdop>4.437</vdop><extensions><gom:speed>0.713</gom:speed></extensions></trkpt>
   <trkpt lat="59.0677242654" lon="30.0261872657"><ele>87.515</ele><time>2026-04-20T18:18:21.076Z</time><hdop>5.0</hdop><vdop>4.187</vdop><extensions><gom:speed>0.797</gom:speed></extensions></trkpt>
   <trkpt lat="59.0677156739" lon="30.0261910376"><ele>87.906</ele><time>2026-04-20T18:18:22.000Z</time><hdop>5.062</hdop><vdop>4.187</vdop><extensions><gom:speed>0.814</gom:speed></extensions></trkpt>
   <trkpt lat="59.0677073758" lon="30.0261971564"><ele>88.145</ele><time>2026-04-20T18:18:22.783Z</time><hdop>5.062</hdop><vdop>4.0</vdop><extensions><gom:speed>0.864</gom:speed></extensions></trkpt>
   <trkpt lat="59.0677014666" lon="30.0262014311"><ele>88.148</ele><time>2026-04-20T18:18:23.459Z</time><hdop>5.062</hdop><vdop>4.0</vdop><extensions><gom:speed>0.879</gom:speed></extensions></trkpt>
   <trkpt lat="59.0676921627" lon="30.0262131658"><ele>87.93</ele><time>2026-04-20T18:18:24.075Z</time><hdop>5.0</hdop><vdop>4.0</vdop><extensions><gom:speed>0.89</gom:speed></extensions></trkpt>
   <trkpt lat="59.0676889775" lon="30.0262189493"><ele>87.799</ele><time>2026-04-20T18:18:24.538Z</time><hdop>4.937</hdop><vdop>4.0</vdop><extensions><gom:speed>0.882</gom:speed></extensions></trkpt>
   <trkpt lat="59.0676842837" lon="30.0262273312"><ele>87.873</ele><time>2026-04-20T18:18:25.075Z</time><hdop>4.937</hdop><vdop>3.937</vdop><extensions><gom:speed>0.885</gom:speed></extensions></trkpt>
   <trkpt lat="59.067675776" lon="30.0262397364"><ele>87.714</ele><time>2026-04-20T18:18:26.075Z</time><hdop>4.812</hdop><vdop>3.937</vdop><extensions><gom:speed>0.834</gom:speed></extensions></trkpt>
   <trkpt lat="59.0676666817" lon="30.0262499623"><ele>87.445</ele><time>2026-04-20T18:18:27.076Z</time><hdop>4.625</hdop><vdop>4.062</vdop><extensions><gom:speed>0.785</gom:speed></extensions></trkpt>
   <trkpt lat="59.0676596828" lon="30.0262578413"><ele>87.284</ele><time>2026-04-20T18:18:27.996Z</time><hdop>4.5</hdop><vdop>4.062</vdop><extensions><gom:speed>0.797</gom:speed></extensions></trkpt>
   <trkpt lat="59.067649876" lon="30.0262637925"><ele>87.021</ele><time>2026-04-20T18:18:28.943Z</time><hdop>4.437</hdop><vdop>4.25</vdop><extensions><gom:speed>0.795</gom:speed></extensions></trkpt>
   <trkpt lat="59.067644763" lon="30.0262646307"><ele>87.128</ele><time>2026-04-20T18:18:29.737Z</time><hdop>4.375</hdop><vdop>4.375</vdop><extensions><gom:speed>0.771</gom:speed></extensions></trkpt>
   <trkpt lat="59.0676302623" lon="30.0262638763"><ele>87.341</ele><time>2026-04-20T18:18:30.777Z</time><hdop>4.312</hdop><vdop>4.25</vdop><extensions><gom:speed>0.738</gom:speed></extensions></trkpt>
   <trkpt lat="59.0676249817" lon="30.0262590986"><ele>87.402</ele><time>2026-04-20T18:18:31.556Z</time><hdop>4.375</hdop><vdop>4.437</vdop><extensions><gom:speed>0.725</gom:speed></extensions></trkpt>
   <trkpt lat="59.0676205812" lon="30.0262560811"><ele>87.391</ele><time>2026-04-20T18:18:32.075Z</time><hdop>4.375</hdop><vdop>4.562</vdop><extensions><gom:speed>0.709</gom:speed></extensions></trkpt>
   <trkpt lat="59.0676165998" lon="30.0262491242"><ele>87.515</ele><time>2026-04-20T18:18:32.936Z</time><hdop>4.375</hdop><vdop>4.625</vdop><extensions><gom:speed>0.638</gom:speed></extensions></trkpt>
   <trkpt lat="59.067617899" lon="30.0262425863"><ele>87.603</ele><time>2026-04-20T18:18:34.075Z</time><hdop>4.437</hdop><vdop>4.5</vdop><extensions><gom:speed>0.486</gom:speed></extensions></trkpt>
   <trkpt lat="59.0676177733" lon="30.0262416643"><ele>87.655</ele><time>2026-04-20T18:18:34.597Z</time><hdop>4.5</hdop><vdop>4.5</vdop><extensions><gom:speed>0.424</gom:speed></extensions></trkpt>
   <trkpt lat="59.0676149653" lon="30.0262417481"><ele>88.183</ele><time>2026-04-20T18:18:35.075Z</time><hdop>4.5</hdop><vdop>4.437</vdop><extensions><gom:speed>0.445</gom:speed></extensions></trkpt>
   <trkpt lat="59.0676125765" lon="30.0262427539"><ele>88.499</ele><time>2026-04-20T18:18:35.536Z</time><hdop>4.5</hdop><vdop>4.437</vdop><extensions><gom:speed>0.459</gom:speed></extensions></trkpt>
   <trkpt lat="59.0676072959" lon="30.0262462743"><ele>89.24</ele><time>2026-04-20T18:18:36.075Z</time><hdop>4.562</hdop><vdop>4.125</vdop><extensions><gom:speed>0.495</gom:speed></extensions></trkpt>
   <trkpt lat="59.0676051585" lon="30.0262512196"><ele>89.683</ele><time>2026-04-20T18:18:36.878Z</time><hdop>4.562</hdop><vdop>4.125</vdop><extensions><gom:speed>0.457</gom:speed></extensions></trkpt>
   <trkpt lat="59.0676018896" lon="30.0262592663"><ele>89.989</ele><time>2026-04-20T18:18:37.934Z</time><hdop>4.5</hdop><vdop>4.0</vdop><extensions><gom:speed>0.371</gom:speed></extensions></trkpt>
   <trkpt lat="59.0675986625" lon="30.0262630381"><ele>90.476</ele><time>2026-04-20T18:18:38.853Z</time><hdop>4.562</hdop><vdop>4.0</vdop><extensions><gom:speed>0.395</gom:speed></extensions></trkpt>
   <trkpt lat="59.067592879" lon="30.0262618647"><ele>90.557</ele><time>2026-04-20T18:18:39.513Z</time><hdop>4.562</hdop><vdop>3.875</vdop><extensions><gom:speed>0.52</gom:speed></extensions></trkpt>
   <trkpt lat="59.0675873889" lon="30.0262612779"><ele>90.528</ele><time>2026-04-20T18:18:40.075Z</time><hdop>4.562</hdop><vdop>3.875</vdop><extensions><gom:speed>0.554</gom:speed></extensions></trkpt>
   <trkpt lat="59.0675785879" lon="30.0262617808"><ele>90.341</ele><time>2026-04-20T18:18:41.075Z</time><hdop>4.562</hdop><vdop>3.875</vdop><extensions><gom:speed>0.598</gom:speed></extensions></trkpt>
   <trkpt lat="59.0675717985" lon="30.0262620323"><ele>89.901</ele><time>2026-04-20T18:18:42.075Z</time><hdop>4.562</hdop><vdop>3.937</vdop><extensions><gom:speed>0.525</gom:speed></extensions></trkpt>
   <trkpt lat="59.067567859" lon="30.0262628705"><ele>89.639</ele><time>2026-04-20T18:18:42.574Z</time><hdop>4.562</hdop><vdop>3.937</vdop><extensions><gom:speed>0.576</gom:speed></extensions></trkpt>
   <trkpt lat="59.0675634585" lon="30.0262637925"><ele>89.258</ele><time>2026-04-20T18:18:43.075Z</time><hdop>4.562</hdop><vdop>3.812</vdop><extensions><gom:speed>0.567</gom:speed></extensions></trkpt>
   <trkpt lat="59.0675578846" lon="30.0262657203"><ele>89.133</ele><time>2026-04-20T18:18:44.076Z</time><hdop>4.5</hdop><vdop>3.687</vdop><extensions><gom:speed>0.463</gom:speed></extensions></trkpt>
   <trkpt lat="59.067553987" lon="30.0262668938"><ele>89.076</ele><time>2026-04-20T18:18:45.075Z</time><hdop>4.5</hdop><vdop>3.375</vdop><extensions><gom:speed>0.336</gom:speed></extensions></trkpt>
   <trkpt lat="59.0675544899" lon="30.0262667262"><ele>89.042</ele><time>2026-04-20T18:18:45.536Z</time><hdop>4.5</hdop><vdop>3.375</vdop><extensions><gom:speed>0.209</gom:speed></extensions></trkpt>
   <trkpt lat="59.0675525621" lon="30.0262669776"><ele>89.189</ele><time>2026-04-20T18:18:46.075Z</time><hdop>4.5</hdop><vdop>3.187</vdop><extensions><gom:speed>0.24</gom:speed></extensions></trkpt>
   <trkpt lat="59.0675496703" lon="30.0262690731"><ele>89.347</ele><time>2026-04-20T18:18:47.075Z</time><hdop>4.5</hdop><vdop>3.062</vdop><extensions><gom:speed>0.215</gom:speed></extensions></trkpt>
   <trkpt lat="59.0675471977" lon="30.026270498"><ele>89.324</ele><time>2026-04-20T18:18:48.075Z</time><hdop>4.5</hdop><vdop>3.25</vdop><extensions><gom:speed>0.205</gom:speed></extensions></trkpt>
   <trkpt lat="59.0675452698" lon="30.0262705818"><ele>89.265</ele><time>2026-04-20T18:18:49.048Z</time><hdop>4.5</hdop><vdop>3.625</vdop><extensions><gom:speed>0.22</gom:speed></extensions></trkpt>
   <trkpt lat="59.0675421685" lon="30.0262717553"><ele>89.087</ele><time>2026-04-20T18:18:50.075Z</time><hdop>4.5</hdop><vdop>3.812</vdop><extensions><gom:speed>0.248</gom:speed></extensions></trkpt>
   <trkpt lat="59.0675404921" lon="30.0262724258"><ele>88.981</ele><time>2026-04-20T18:18:50.603Z</time><hdop>4.5</hdop><vdop>3.812</vdop><extensions><gom:speed>0.282</gom:speed></extensions></trkpt>
   <trkpt lat="59.0675382709" lon="30.0262754433"><ele>88.472</ele><time>2026-04-20T18:18:51.075Z</time><hdop>4.5</hdop><vdop>4.0</vdop><extensions><gom:speed>0.302</gom:speed></extensions></trkpt>
   <trkpt lat="59.0675366784" lon="30.0262789637"><ele>88.168</ele><time>2026-04-20T18:18:51.578Z</time><hdop>4.5</hdop><vdop>4.0</vdop><extensions><gom:speed>0.343</gom:speed></extensions></trkpt>
   <trkpt lat="59.0675341638" lon="30.0262852502"><ele>87.764</ele><time>2026-04-20T18:18:52.075Z</time><hdop>4.437</hdop><vdop>4.0</vdop><extensions><gom:speed>0.377</gom:speed></extensions></trkpt>
   <trkpt lat="59.0675307691" lon="30.0262911175"><ele>87.522</ele><time>2026-04-20T18:18:52.832Z</time><hdop>4.437</hdop><vdop>4.0</vdop><extensions><gom:speed>0.469</gom:speed></extensions></trkpt>
   <trkpt lat="59.0675192859" lon="30.0263086357"><ele>87.11</ele><time>2026-04-20T18:18:54.075Z</time><hdop>4.5</hdop><vdop>3.687</vdop><extensions><gom:speed>0.568</gom:speed></extensions></trkpt>
   <trkpt lat="59.0675111974" lon="30.0263218791"><ele>86.952</ele><time>2026-04-20T18:18:55.076Z</time><hdop>4.5</hdop><vdop>3.562</vdop><extensions><gom:speed>0.593</gom:speed></extensions></trkpt>
   <trkpt lat="59.067502564" lon="30.0263391458"><ele>86.835</ele><time>2026-04-20T18:18:56.075Z</time><hdop>4.5</hdop><vdop>3.5</vdop><extensions><gom:speed>0.711</gom:speed></extensions></trkpt>
   <trkpt lat="59.0674942659" lon="30.0263508805"><ele>86.765</ele><time>2026-04-20T18:18:57.001Z</time><hdop>4.562</hdop><vdop>3.5</vdop><extensions><gom:speed>0.778</gom:speed></extensions></trkpt>
   <trkpt lat="59.0674850877" lon="30.02635943"><ele>86.505</ele><time>2026-04-20T18:18:57.837Z</time><hdop>4.625</hdop><vdop>3.5</vdop><extensions><gom:speed>0.769</gom:speed></extensions></trkpt>
   <trkpt lat="59.0674780889" lon="30.0263616931"><ele>86.348</ele><time>2026-04-20T18:18:58.637Z</time><hdop>4.687</hdop><vdop>3.625</vdop><extensions><gom:speed>0.771</gom:speed></extensions></trkpt>
   <trkpt lat="59.0674714672" lon="30.0263588433"><ele>86.422</ele><time>2026-04-20T18:18:59.516Z</time><hdop>4.75</hdop><vdop>3.687</vdop><extensions><gom:speed>0.758</gom:speed></extensions></trkpt>
   <trkpt lat="59.0674678629" lon="30.0263581727"><ele>86.371</ele><time>2026-04-20T18:19:00.076Z</time><hdop>4.812</hdop><vdop>3.875</vdop><extensions><gom:speed>0.731</gom:speed></extensions></trkpt>
   <trkpt lat="59.0674657675" lon="30.0263565802"><ele>86.34</ele><time>2026-04-20T18:19:00.658Z</time><hdop>4.875</hdop><vdop>3.875</vdop><extensions><gom:speed>0.67</gom:speed></extensions></trkpt>
   <trkpt lat="59.0674617861" lon="30.0263486173"><ele>86.325</ele><time>2026-04-20T18:19:01.293Z</time><hdop>5.0</hdop><vdop>4.0</vdop><extensions><gom:speed>0.671</gom:speed></extensions></trkpt>
   <trkpt lat="59.0674592715" lon="30.0263491203"><ele>86.092</ele><time>2026-04-20T18:19:02.076Z</time><hdop>5.0</hdop><vdop>3.937</vdop><extensions><gom:speed>0.6</gom:speed></extensions></trkpt>
   <trkpt lat="59.0674551644" lon="30.0263553229"><ele>86.083</ele><time>2026-04-20T18:19:03.075Z</time><hdop>5.125</hdop><vdop>3.937</vdop><extensions><gom:speed>0.535</gom:speed></extensions></trkpt>
   <trkpt lat="59.0674505962" lon="30.026363621"><ele>86.0</ele><time>2026-04-20T18:19:04.075Z</time><hdop>5.125</hdop><vdop>4.062</vdop><extensions><gom:speed>0.567</gom:speed></extensions></trkpt>
   <trkpt lat="59.0674461957" lon="30.0263699912"><ele>85.95</ele><time>2026-04-20T18:19:04.878Z</time><hdop>5.125</hdop><vdop>4.062</vdop><extensions><gom:speed>0.617</gom:speed></extensions></trkpt>
   <trkpt lat="59.0674399931" lon="30.0263791275"><ele>85.507</ele><time>2026-04-20T18:19:05.755Z</time><hdop>5.125</hdop><vdop>4.0</vdop><extensions><gom:speed>0.688</gom:speed></extensions></trkpt>
   <trkpt lat="59.067433078" lon="30.0263851624"><ele>85.212</ele><time>2026-04-20T18:19:06.556Z</time><hdop>5.062</hdop><vdop>4.0</vdop><extensions><gom:speed>0.707</gom:speed></extensions></trkpt>
   <trkpt lat="59.0674264982" lon="30.0263879285"><ele>85.302</ele><time>2026-04-20T18:19:07.075Z</time><hdop>5.062</hdop><vdop>3.937</vdop><extensions><gom:speed>0.726</gom:speed></extensions></trkpt>
   <trkpt lat="59.0674199604" lon="30.026390024"><ele>85.212</ele><time>2026-04-20T18:19:08.076Z</time><hdop>5.0</hdop><vdop>3.812</vdop><extensions><gom:speed>0.707</gom:speed></extensions></trkpt>
   <trkpt lat="59.0674123747" lon="30.0263934605"><ele>84.747</ele><time>2026-04-20T18:19:09.075Z</time><hdop>4.937</hdop><vdop>3.75</vdop><extensions><gom:speed>0.677</gom:speed></extensions></trkpt>
   <trkpt lat="59.0674057949" lon="30.0263965618"><ele>84.469</ele><time>2026-04-20T18:19:09.922Z</time><hdop>4.937</hdop><vdop>3.75</vdop><extensions><gom:speed>0.684</gom:speed></extensions></trkpt>
   <trkpt lat="59.0673996762" lon="30.0264032674"><ele>83.789</ele><time>2026-04-20T18:19:10.763Z</time><hdop>4.875</hdop><vdop>3.75</vdop><extensions><gom:speed>0.712</gom:speed></extensions></trkpt>
   <trkpt lat="59.0673942698" lon="30.0264083803"><ele>83.114</ele><time>2026-04-20T18:19:11.501Z</time><hdop>4.812</hdop><vdop>3.812</vdop><extensions><gom:speed>0.735</gom:speed></extensions></trkpt>
   <trkpt lat="59.067389576" lon="30.0264101405"><ele>82.466</ele><time>2026-04-20T18:19:12.075Z</time><hdop>4.812</hdop><vdop>3.812</vdop><extensions><gom:speed>0.76</gom:speed></extensions></trkpt>
   <trkpt lat="59.0673856784" lon="30.0264099729"><ele>82.079</ele><time>2026-04-20T18:19:12.579Z</time><hdop>4.75</hdop><vdop>3.812</vdop><extensions><gom:speed>0.722</gom:speed></extensions></trkpt>
   <trkpt lat="59.0673803978" lon="30.0264081289"><ele>81.771</ele><time>2026-04-20T18:19:13.076Z</time><hdop>4.75</hdop><vdop>3.625</vdop><extensions><gom:speed>0.711</gom:speed></extensions></trkpt>
   <trkpt lat="59.0673778832" lon="30.0264069554"><ele>81.587</ele><time>2026-04-20T18:19:13.555Z</time><hdop>4.75</hdop><vdop>3.625</vdop><extensions><gom:speed>0.691</gom:speed></extensions></trkpt>
   <trkpt lat="59.0673740694" lon="30.0264063687"><ele>81.393</ele><time>2026-04-20T18:19:14.075Z</time><hdop>4.687</hdop><vdop>3.5</vdop><extensions><gom:speed>0.717</gom:speed></extensions></trkpt>
   <trkpt lat="59.0673673639" lon="30.0264095538"><ele>81.634</ele><time>2026-04-20T18:19:15.076Z</time><hdop>4.625</hdop><vdop>3.25</vdop><extensions><gom:speed>0.67</gom:speed></extensions></trkpt>
   <trkpt lat="59.0673621671" lon="30.0264165946"><ele>81.778</ele><time>2026-04-20T18:19:15.993Z</time><hdop>4.687</hdop><vdop>3.25</vdop><extensions><gom:speed>0.704</gom:speed></extensions></trkpt>
   <trkpt lat="59.0673553778" lon="30.0264257309"><ele>81.694</ele><time>2026-04-20T18:19:16.902Z</time><hdop>4.687</hdop><vdop>3.187</vdop><extensions><gom:speed>0.762</gom:speed></extensions></trkpt>
   <trkpt lat="59.0673491752" lon="30.0264326878"><ele>81.644</ele><time>2026-04-20T18:19:17.594Z</time><hdop>4.687</hdop><vdop>3.187</vdop><extensions><gom:speed>0.809</gom:speed></extensions></trkpt>
   <trkpt lat="59.0673448585" lon="30.0264380523"><ele>81.382</ele><time>2026-04-20T18:19:18.075Z</time><hdop>4.687</hdop><vdop>3.125</vdop><extensions><gom:speed>0.83</gom:speed></extensions></trkpt>
   <trkpt lat="59.0673366862" lon="30.0264491164"><ele>81.063</ele><time>2026-04-20T18:19:19.075Z</time><hdop>4.687</hdop><vdop>2.937</vdop><extensions><gom:speed>0.851</gom:speed></extensions></trkpt>
   <trkpt lat="59.0673255801" lon="30.0264597614"><ele>80.935</ele><time>2026-04-20T18:19:20.076Z</time><hdop>4.687</hdop><vdop>2.937</vdop><extensions><gom:speed>0.868</gom:speed></extensions></trkpt>
   <trkpt lat="59.0673165696" lon="30.026466886"><ele>81.237</ele><time>2026-04-20T18:19:21.075Z</time><hdop>4.687</hdop><vdop>3.125</vdop><extensions><gom:speed>0.82</gom:speed></extensions></trkpt>
   <trkpt lat="59.0673079781" lon="30.0264714961"><ele>81.418</ele><time>2026-04-20T18:19:22.037Z</time><hdop>4.687</hdop><vdop>3.125</vdop><extensions><gom:speed>0.801</gom:speed></extensions></trkpt>
   <trkpt lat="59.0672989676" lon="30.0264744297"><ele>81.88</ele><time>2026-04-20T18:19:22.953Z</time><hdop>4.687</hdop><vdop>3.25</vdop><extensions><gom:speed>0.79</gom:speed></extensions></trkpt>
   <trkpt lat="59.067291382" lon="30.0264771957"><ele>82.633</ele><time>2026-04-20T18:19:23.775Z</time><hdop>4.687</hdop><vdop>3.312</vdop><extensions><gom:speed>0.774</gom:speed></extensions></trkpt>
   <trkpt lat="59.0672838802" lon="30.0264779501"><ele>83.254</ele><time>2026-04-20T18:19:24.612Z</time><hdop>4.687</hdop><vdop>3.125</vdop><extensions><gom:speed>0.773</gom:speed></extensions></trkpt>
   <trkpt lat="59.067279773" lon="30.0264774472"><ele>83.564</ele><time>2026-04-20T18:19:25.075Z</time><hdop>4.687</hdop><vdop>3.125</vdop><extensions><gom:speed>0.76</gom:speed></extensions></trkpt>
   <trkpt lat="59.0672707625" lon="30.0264750164"><ele>83.691</ele><time>2026-04-20T18:19:26.076Z</time><hdop>4.687</hdop><vdop>3.25</vdop><extensions><gom:speed>0.752</gom:speed></extensions></trkpt>
   <trkpt lat="59.0672638893" lon="30.0264739268"><ele>83.775</ele><time>2026-04-20T18:19:27.075Z</time><hdop>4.687</hdop><vdop>3.312</vdop><extensions><gom:speed>0.753</gom:speed></extensions></trkpt>
   <trkpt lat="59.0672562618" lon="30.0264723342"><ele>83.825</ele><time>2026-04-20T18:19:27.941Z</time><hdop>4.75</hdop><vdop>3.312</vdop><extensions><gom:speed>0.766</gom:speed></extensions></trkpt>
   <trkpt lat="59.067249682" lon="30.0264715799"><ele>83.948</ele><time>2026-04-20T18:19:28.798Z</time><hdop>4.75</hdop><vdop>3.437</vdop><extensions><gom:speed>0.745</gom:speed></extensions></trkpt>
   <trkpt lat="59.0672432698" lon="30.0264713284"><ele>84.098</ele><time>2026-04-20T18:19:29.779Z</time><hdop>4.75</hdop><vdop>3.437</vdop><extensions><gom:speed>0.696</gom:speed></extensions></trkpt>
   <trkpt lat="59.0672374863" lon="30.0264734239"><ele>84.52</ele><time>2026-04-20T18:19:30.694Z</time><hdop>4.75</hdop><vdop>3.437</vdop><extensions><gom:speed>0.719</gom:speed></extensions></trkpt>
   <trkpt lat="59.0672328763" lon="30.0264779501"><ele>84.933</ele><time>2026-04-20T18:19:31.592Z</time><hdop>4.75</hdop><vdop>4.875</vdop><extensions><gom:speed>0.661</gom:speed></extensions></trkpt>
   <trkpt lat="59.0672276795" lon="30.0264824763"><ele>85.487</ele><time>2026-04-20T18:19:32.541Z</time><hdop>4.812</hdop><vdop>4.75</vdop><extensions><gom:speed>0.641</gom:speed></extensions></trkpt>
   <trkpt lat="59.0672247877" lon="30.0264841527"><ele>85.809</ele><time>2026-04-20T18:19:33.001Z</time><hdop>4.812</hdop><vdop>4.562</vdop><extensions><gom:speed>0.628</gom:speed></extensions></trkpt>
   <trkpt lat="59.0672197586" lon="30.0264833984"><ele>86.175</ele><time>2026-04-20T18:19:33.949Z</time><hdop>4.875</hdop><vdop>4.562</vdop><extensions><gom:speed>0.573</gom:speed></extensions></trkpt>
   <trkpt lat="59.0672191719" lon="30.0264733401"><ele>86.524</ele><time>2026-04-20T18:19:35.075Z</time><hdop>4.937</hdop><vdop>4.75</vdop><extensions><gom:speed>0.406</gom:speed></extensions></trkpt>
   <trkpt lat="59.0672197586" lon="30.0264680595"><ele>86.66</ele><time>2026-04-20T18:19:35.963Z</time><hdop>5.0</hdop><vdop>4.875</vdop><extensions><gom:speed>0.243</gom:speed></extensions></trkpt>
   <trkpt lat="59.0672208902" lon="30.0264665507"><ele>86.885</ele><time>2026-04-20T18:19:37.029Z</time><hdop>5.187</hdop><vdop>5.187</vdop><extensions><gom:speed>0.136</gom:speed></extensions></trkpt>
   <trkpt lat="59.0672216864" lon="30.0264672213"><ele>87.02</ele><time>2026-04-20T18:19:37.740Z</time><hdop>5.187</hdop><vdop>5.187</vdop><extensions><gom:speed>0.084</gom:speed></extensions></trkpt>
   <trkpt lat="59.0672240753" lon="30.0264655449"><ele>87.031</ele><time>2026-04-20T18:19:38.724Z</time><hdop>5.25</hdop><vdop>5.312</vdop><extensions><gom:speed>0.08</gom:speed></extensions></trkpt>
   <trkpt lat="59.0672243687" lon="30.0264649582"><ele>86.909</ele><time>2026-04-20T18:19:39.779Z</time><hdop>5.187</hdop><vdop>5.375</vdop><extensions><gom:speed>0.06</gom:speed></extensions></trkpt>
   <trkpt lat="59.0672238657" lon="30.0264640362"><ele>86.809</ele><time>2026-04-20T18:19:40.833Z</time><hdop>5.187</hdop><vdop>5.375</vdop><extensions><gom:speed>0.099</gom:speed></extensions></trkpt>
   <trkpt lat="59.0672236981" lon="30.0264627789"><ele>86.649</ele><time>2026-04-20T18:19:41.554Z</time><hdop>5.062</hdop><vdop>5.437</vdop><extensions><gom:speed>0.093</gom:speed></extensions></trkpt>
   <trkpt lat="59.067223279" lon="30.0264621921"><ele>86.606</ele><time>2026-04-20T18:19:42.005Z</time><hdop>5.0</hdop><vdop>5.5</vdop><extensions><gom:speed>0.13</gom:speed></extensions></trkpt>
   <trkpt lat="59.0672216864" lon="30.0264615216"><ele>86.841</ele><time>2026-04-20T18:19:42.953Z</time><hdop>4.937</hdop><vdop>5.562</vdop><extensions><gom:speed>0.168</gom:speed></extensions></trkpt>
   <trkpt lat="59.067220974" lon="30.0264616892"><ele>86.982</ele><time>2026-04-20T18:19:43.902Z</time><hdop>4.937</hdop><vdop>5.562</vdop><extensions><gom:speed>0.152</gom:speed></extensions></trkpt>
   <trkpt lat="59.0672192976" lon="30.0264602643"><ele>87.246</ele><time>2026-04-20T18:19:45.076Z</time><hdop>4.875</hdop><vdop>6.062</vdop><extensions><gom:speed>0.125</gom:speed></extensions></trkpt>
   <trkpt lat="59.067218166" lon="30.0264592585"><ele>87.515</ele><time>2026-04-20T18:19:46.033Z</time><hdop>4.812</hdop><vdop>6.375</vdop><extensions><gom:speed>0.076</gom:speed></extensions></trkpt>
   <trkpt lat="59.0672182918" lon="30.026458085"><ele>87.71</ele><time>2026-04-20T18:19:46.981Z</time><hdop>4.812</hdop><vdop>6.687</vdop><extensions><gom:speed>0.077</gom:speed></extensions></trkpt>
   <trkpt lat="59.0672183756" lon="30.0264574983"><ele>87.836</ele><time>2026-04-20T18:19:48.047Z</time><hdop>4.812</hdop><vdop>6.812</vdop><extensions><gom:speed>0.105</gom:speed></extensions></trkpt>
   <trkpt lat="59.067218166" lon="30.0264565763"><ele>87.927</ele><time>2026-04-20T18:19:49.113Z</time><hdop>4.812</hdop><vdop>6.875</vdop><extensions><gom:speed>0.068</gom:speed></extensions></trkpt>
   <trkpt lat="59.0672175793" lon="30.026457163"><ele>87.981</ele><time>2026-04-20T18:19:49.659Z</time><hdop>4.812</hdop><vdop>6.875</vdop><extensions><gom:speed>0.024</gom:speed></extensions></trkpt>
   <trkpt lat="59.0672164897" lon="30.0264582526"><ele>88.02</ele><time>2026-04-20T18:19:51.043Z</time><hdop>4.875</hdop><vdop>6.812</vdop><extensions><gom:speed>0.078</gom:speed></extensions></trkpt>
   <trkpt lat="59.0672166992" lon="30.0264587556"><ele>88.048</ele><time>2026-04-20T18:19:51.920Z</time><hdop>5.0</hdop><vdop>6.562</vdop><extensions><gom:speed>0.076</gom:speed></extensions></trkpt>
   <trkpt lat="59.0672164897" lon="30.0264594261"><ele>88.096</ele><time>2026-04-20T18:19:52.780Z</time><hdop>5.062</hdop><vdop>6.437</vdop><extensions><gom:speed>0.133</gom:speed></extensions></trkpt>
   <trkpt lat="59.0672142685" lon="30.0264600967"><ele>88.128</ele><time>2026-04-20T18:19:53.697Z</time><hdop>5.187</hdop><vdop>6.312</vdop><extensions><gom:speed>0.224</gom:speed></extensions></trkpt>
   <trkpt lat="59.0672106642" lon="30.026460851"><ele>88.162</ele><time>2026-04-20T18:19:54.635Z</time><hdop>5.375</hdop><vdop>6.187</vdop><extensions><gom:speed>0.325</gom:speed></extensions></trkpt>
   <trkpt lat="59.0672049645" lon="30.0264618569"><ele>88.197</ele><time>2026-04-20T18:19:55.553Z</time><hdop>5.625</hdop><vdop>6.312</vdop><extensions><gom:speed>0.431</gom:speed></extensions></trkpt>
   <trkpt lat="59.0672012765" lon="30.026463198"><ele>88.258</ele><time>2026-04-20T18:19:56.222Z</time><hdop>5.812</hdop><vdop>6.375</vdop><extensions><gom:speed>0.451</gom:speed></extensions></trkpt>
   <trkpt lat="59.0671951996" lon="30.0264648743"><ele>88.314</ele><time>2026-04-20T18:19:56.934Z</time><hdop>6.0</hdop><vdop>6.5</vdop><extensions><gom:speed>0.483</gom:speed></extensions></trkpt>
   <trkpt lat="59.0671892904" lon="30.0264655449"><ele>88.354</ele><time>2026-04-20T18:19:57.999Z</time><hdop>6.25</hdop><vdop>6.375</vdop><extensions><gom:speed>0.543</gom:speed></extensions></trkpt>
   <trkpt lat="59.0671824591" lon="30.0264651258"><ele>88.401</ele><time>2026-04-20T18:19:58.947Z</time><hdop>6.562</hdop><vdop>6.375</vdop><extensions><gom:speed>0.586</gom:speed></extensions></trkpt>
   <trkpt lat="59.0671756698" lon="30.0264649582"><ele>88.437</ele><time>2026-04-20T18:20:00.013Z</time><hdop>6.812</hdop><vdop>6.312</vdop><extensions><gom:speed>0.629</gom:speed></extensions></trkpt>
   <trkpt lat="59.0671691738" lon="30.0264658802"><ele>88.458</ele><time>2026-04-20T18:20:00.894Z</time><hdop>7.125</hdop><vdop>6.312</vdop><extensions><gom:speed>0.698</gom:speed></extensions></trkpt>
   <trkpt lat="59.0671610853" lon="30.0264662993"><ele>88.49</ele><time>2026-04-20T18:20:01.862Z</time><hdop>7.375</hdop><vdop>6.187</vdop><extensions><gom:speed>0.744</gom:speed></extensions></trkpt>
   <trkpt lat="59.0671576906" lon="30.0264662993"><ele>88.528</ele><time>2026-04-20T18:20:02.383Z</time><hdop>7.5</hdop><vdop>6.062</vdop><extensions><gom:speed>0.763</gom:speed></extensions></trkpt>
   <trkpt lat="59.0671550922" lon="30.0264670536"><ele>88.609</ele><time>2026-04-20T18:20:03.075Z</time><hdop>7.687</hdop><vdop>5.75</vdop><extensions><gom:speed>0.768</gom:speed></extensions></trkpt>
   <trkpt lat="59.0671550922" lon="30.0264674727"><ele>88.658</ele><time>2026-04-20T18:20:03.581Z</time><hdop>7.75</hdop><vdop>5.75</vdop><extensions><gom:speed>0.789</gom:speed></extensions></trkpt>
   <trkpt lat="59.0671575649" lon="30.0264669698"><ele>89.531</ele><time>2026-04-20T18:20:04.075Z</time><hdop>7.687</hdop><vdop>4.437</vdop><extensions><gom:speed>0.792</gom:speed></extensions></trkpt>
   <trkpt lat="59.0671546731" lon="30.0264658802"><ele>90.653</ele><time>2026-04-20T18:20:05.075Z</time><hdop>7.5</hdop><vdop>3.937</vdop><extensions><gom:speed>0.771</gom:speed></extensions></trkpt>
   <trkpt lat="59.0671466684" lon="30.0264658802"><ele>91.401</ele><time>2026-04-20T18:20:06.076Z</time><hdop>7.187</hdop><vdop>3.375</vdop><extensions><gom:speed>0.758</gom:speed></extensions></trkpt>
   <trkpt lat="59.06713946" lon="30.026469652"><ele>91.848</ele><time>2026-04-20T18:20:07.016Z</time><hdop>6.687</hdop><vdop>3.375</vdop><extensions><gom:speed>0.777</gom:speed></extensions></trkpt>
   <trkpt lat="59.067128773" lon="30.0264748488"><ele>91.978</ele><time>2026-04-20T18:20:07.894Z</time><hdop>6.187</hdop><vdop>3.125</vdop><extensions><gom:speed>0.802</gom:speed></extensions></trkpt>
   <trkpt lat="59.0671220675" lon="30.0264781178"><ele>92.226</ele><time>2026-04-20T18:20:08.543Z</time><hdop>6.0</hdop><vdop>3.187</vdop><extensions><gom:speed>0.787</gom:speed></extensions></trkpt>
   <trkpt lat="59.0671107939" lon="30.0264859967"><ele>92.451</ele><time>2026-04-20T18:20:09.075Z</time><hdop>5.687</hdop><vdop>3.187</vdop><extensions><gom:speed>0.803</gom:speed></extensions></trkpt>
   <trkpt lat="59.0671052618" lon="30.0264899362"><ele>92.585</ele><time>2026-04-20T18:20:09.662Z</time><hdop>5.5</hdop><vdop>3.187</vdop><extensions><gom:speed>0.818</gom:speed></extensions></trkpt>
   <trkpt lat="59.0670948682" lon="30.0265013356"><ele>92.536</ele><time>2026-04-20T18:20:10.501Z</time><hdop>5.375</hdop><vdop>3.125</vdop><extensions><gom:speed>0.831</gom:speed></extensions></trkpt>
   <trkpt lat="59.0670880789" lon="30.026509969"><ele>92.576</ele><time>2026-04-20T18:20:11.075Z</time><hdop>5.375</hdop><vdop>3.062</vdop><extensions><gom:speed>0.811</gom:speed></extensions></trkpt>
   <trkpt lat="59.0670817925" lon="30.0265214522"><ele>92.601</ele><time>2026-04-20T18:20:11.942Z</time><hdop>5.312</hdop><vdop>3.062</vdop><extensions><gom:speed>0.795</gom:speed></extensions></trkpt>
   <trkpt lat="59.0670747936" lon="30.0265339412"><ele>92.437</ele><time>2026-04-20T18:20:12.842Z</time><hdop>5.25</hdop><vdop>3.062</vdop><extensions><gom:speed>0.821</gom:speed></extensions></trkpt>
   <trkpt lat="59.0670663698" lon="30.026540982"><ele>92.11</ele><time>2026-04-20T18:20:13.660Z</time><hdop>5.125</hdop><vdop>3.25</vdop><extensions><gom:speed>0.824</gom:speed></extensions></trkpt>
   <trkpt lat="59.0670586584" lon="30.0265420717"><ele>91.617</ele><time>2026-04-20T18:20:14.341Z</time><hdop>5.062</hdop><vdop>3.437</vdop><extensions><gom:speed>0.812</gom:speed></extensions></trkpt>
   <trkpt lat="59.0670567725" lon="30.0265423231"><ele>91.322</ele><time>2026-04-20T18:20:14.822Z</time><hdop>5.062</hdop><vdop>3.437</vdop><extensions><gom:speed>0.832</gom:speed></extensions></trkpt>
   <trkpt lat="59.0670406792" lon="30.0265413173"><ele>91.17</ele><time>2026-04-20T18:20:16.041Z</time><hdop>5.0</hdop><vdop>3.312</vdop><extensions><gom:speed>0.881</gom:speed></extensions></trkpt>
   <trkpt lat="59.0670309981" lon="30.0265408982"><ele>91.477</ele><time>2026-04-20T18:20:17.016Z</time><hdop>4.937</hdop><vdop>3.125</vdop><extensions><gom:speed>0.866</gom:speed></extensions></trkpt>
   <trkpt lat="59.0670221971" lon="30.0265369587"><ele>91.68</ele><time>2026-04-20T18:20:17.896Z</time><hdop>4.812</hdop><vdop>3.25</vdop><extensions><gom:speed>0.791</gom:speed></extensions></trkpt>
   <trkpt lat="59.0670131866" lon="30.0265322648"><ele>92.095</ele><time>2026-04-20T18:20:18.961Z</time><hdop>4.75</hdop><vdop>3.312</vdop><extensions><gom:speed>0.726</gom:speed></extensions></trkpt>
   <trkpt lat="59.0670059782" lon="30.0265308399"><ele>92.242</ele><time>2026-04-20T18:20:19.721Z</time><hdop>4.687</hdop><vdop>3.437</vdop><extensions><gom:speed>0.717</gom:speed></extensions></trkpt>
   <trkpt lat="59.0669976801" lon="30.0265323487"><ele>92.639</ele><time>2026-04-20T18:20:20.542Z</time><hdop>4.625</hdop><vdop>3.375</vdop><extensions><gom:speed>0.744</gom:speed></extensions></trkpt>
   <trkpt lat="59.0669921899" lon="30.0265338574"><ele>92.727</ele><time>2026-04-20T18:20:21.075Z</time><hdop>4.562</hdop><vdop>3.25</vdop><extensions><gom:speed>0.742</gom:speed></extensions></trkpt>
   <trkpt lat="59.0669810839" lon="30.0265336898"><ele>92.78</ele><time>2026-04-20T18:20:22.062Z</time><hdop>4.5</hdop><vdop>3.25</vdop><extensions><gom:speed>0.775</gom:speed></extensions></trkpt>
   <trkpt lat="59.0669744622" lon="30.0265320972"><ele>92.956</ele><time>2026-04-20T18:20:22.960Z</time><hdop>4.5</hdop><vdop>3.25</vdop><extensions><gom:speed>0.789</gom:speed></extensions></trkpt>
   <trkpt lat="59.0669678824" lon="30.0265277386"><ele>92.91</ele><time>2026-04-20T18:20:23.740Z</time><hdop>4.5</hdop><vdop>3.312</vdop><extensions><gom:speed>0.813</gom:speed></extensions></trkpt>
   <trkpt lat="59.0669609673" lon="30.0265200273"><ele>93.073</ele><time>2026-04-20T18:20:24.698Z</time><hdop>4.5</hdop><vdop>3.5</vdop><extensions><gom:speed>0.81</gom:speed></extensions></trkpt>
   <trkpt lat="59.0669532979" lon="30.0265124836"><ele>93.231</ele><time>2026-04-20T18:20:25.795Z</time><hdop>4.5</hdop><vdop>3.375</vdop><extensions><gom:speed>0.794</gom:speed></extensions></trkpt>
   <trkpt lat="59.0669498613" lon="30.0265104719"><ele>93.364</ele><time>2026-04-20T18:20:26.415Z</time><hdop>4.562</hdop><vdop>3.25</vdop><extensions><gom:speed>0.716</gom:speed></extensions></trkpt>
   <trkpt lat="59.0669466762" lon="30.0265091308"><ele>93.385</ele><time>2026-04-20T18:20:27.075Z</time><hdop>4.562</hdop><vdop>3.312</vdop><extensions><gom:speed>0.68</gom:speed></extensions></trkpt>
   <trkpt lat="59.0669409765" lon="30.0265087955"><ele>93.233</ele><time>2026-04-20T18:20:28.075Z</time><hdop>4.562</hdop><vdop>3.0</vdop><extensions><gom:speed>0.615</gom:speed></extensions></trkpt>
   <trkpt lat="59.0669363665" lon="30.0265111425"><ele>92.95</ele><time>2026-04-20T18:20:29.075Z</time><hdop>4.562</hdop><vdop>2.937</vdop><extensions><gom:speed>0.682</gom:speed></extensions></trkpt>
   <trkpt lat="59.0669296609" lon="30.0265122321"><ele>92.781</ele><time>2026-04-20T18:20:30.020Z</time><hdop>4.625</hdop><vdop>2.937</vdop><extensions><gom:speed>0.729</gom:speed></extensions></trkpt>
   <trkpt lat="59.0669220753" lon="30.0265115615"><ele>92.602</ele><time>2026-04-20T18:20:30.956Z</time><hdop>4.625</hdop><vdop>3.0</vdop><extensions><gom:speed>0.704</gom:speed></extensions></trkpt>
   <trkpt lat="59.0669144897" lon="30.0265115615"><ele>92.83</ele><time>2026-04-20T18:20:32.013Z</time><hdop>4.687</hdop><vdop>3.0</vdop><extensions><gom:speed>0.68</gom:speed></extensions></trkpt>
   <trkpt lat="59.0669073651" lon="30.0265117292"><ele>93.089</ele><time>2026-04-20T18:20:32.923Z</time><hdop>4.687</hdop><vdop>2.937</vdop><extensions><gom:speed>0.702</gom:speed></extensions></trkpt>
   <trkpt lat="59.0669038866" lon="30.0265113939"><ele>92.781</ele><time>2026-04-20T18:20:33.540Z</time><hdop>4.687</hdop><vdop>2.937</vdop><extensions><gom:speed>0.732</gom:speed></extensions></trkpt>
   <trkpt lat="59.0668958819" lon="30.0265072868"><ele>92.546</ele><time>2026-04-20T18:20:34.075Z</time><hdop>4.687</hdop><vdop>3.062</vdop><extensions><gom:speed>0.731</gom:speed></extensions></trkpt>
   <trkpt lat="59.0668876676" lon="30.0265034311"><ele>92.536</ele><time>2026-04-20T18:20:35.075Z</time><hdop>4.687</hdop><vdop>3.25</vdop><extensions><gom:speed>0.754</gom:speed></extensions></trkpt>
   <trkpt lat="59.0668789923" lon="30.0265004974"><ele>92.744</ele><time>2026-04-20T18:20:36.076Z</time><hdop>4.687</hdop><vdop>3.125</vdop><extensions><gom:speed>0.741</gom:speed></extensions></trkpt>
   <trkpt lat="59.0668690598" lon="30.0265021738"><ele>92.883</ele><time>2026-04-20T18:20:37.076Z</time><hdop>4.625</hdop><vdop>3.062</vdop><extensions><gom:speed>0.755</gom:speed></extensions></trkpt>
   <trkpt lat="59.0668609712" lon="30.0265044369"><ele>92.966</ele><time>2026-04-20T18:20:37.995Z</time><hdop>4.625</hdop><vdop>3.062</vdop><extensions><gom:speed>0.765</gom:speed></extensions></trkpt>
   <trkpt lat="59.0668519607" lon="30.0265097175"><ele>92.795</ele><time>2026-04-20T18:20:38.954Z</time><hdop>4.562</hdop><vdop>3.125</vdop><extensions><gom:speed>0.747</gom:speed></extensions></trkpt>
   <trkpt lat="59.0668437883" lon="30.0265142438"><ele>92.604</ele><time>2026-04-20T18:20:39.813Z</time><hdop>4.562</hdop><vdop>3.062</vdop><extensions><gom:speed>0.72</gom:speed></extensions></trkpt>
   <trkpt lat="59.0668343587" lon="30.0265128188"><ele>91.805</ele><time>2026-04-20T18:20:40.741Z</time><hdop>4.562</hdop><vdop>2.937</vdop><extensions><gom:speed>0.732</gom:speed></extensions></trkpt>
   <trkpt lat="59.0668244681" lon="30.0265105557"><ele>91.298</ele><time>2026-04-20T18:20:41.737Z</time><hdop>4.562</hdop><vdop>2.875</vdop><extensions><gom:speed>0.727</gom:speed></extensions></trkpt>
   <trkpt lat="59.0668169662" lon="30.0265072868"><ele>90.54</ele><time>2026-04-20T18:20:42.656Z</time><hdop>4.562</hdop><vdop>2.875</vdop><extensions><gom:speed>0.684</gom:speed></extensions></trkpt>
   <trkpt lat="59.0668117695" lon="30.0265047722"><ele>90.146</ele><time>2026-04-20T18:20:43.376Z</time><hdop>4.562</hdop><vdop>2.875</vdop><extensions><gom:speed>0.661</gom:speed></extensions></trkpt>
   <trkpt lat="59.0668066984" lon="30.0265034311"><ele>89.554</ele><time>2026-04-20T18:20:44.076Z</time><hdop>4.562</hdop><vdop>2.625</vdop><extensions><gom:speed>0.682</gom:speed></extensions></trkpt>
   <trkpt lat="59.0667981908" lon="30.0265035987"><ele>89.395</ele><time>2026-04-20T18:20:45.075Z</time><hdop>4.5</hdop><vdop>2.687</vdop><extensions><gom:speed>0.734</gom:speed></extensions></trkpt>
   <trkpt lat="59.0667913595" lon="30.0265045207"><ele>89.301</ele><time>2026-04-20T18:20:45.933Z</time><hdop>4.5</hdop><vdop>2.687</vdop><extensions><gom:speed>0.742</gom:speed></extensions></trkpt>
   <trkpt lat="59.0667827681" lon="30.0265029282"><ele>89.251</ele><time>2026-04-20T18:20:46.861Z</time><hdop>4.5</hdop><vdop>2.875</vdop><extensions><gom:speed>0.704</gom:speed></extensions></trkpt>
   <trkpt lat="59.0667783676" lon="30.0265007489"><ele>88.968</ele><time>2026-04-20T18:20:47.641Z</time><hdop>4.5</hdop><vdop>2.937</vdop><extensions><gom:speed>0.671</gom:speed></extensions></trkpt>
   <trkpt lat="59.0667734642" lon="30.0264976476"><ele>88.427</ele><time>2026-04-20T18:20:48.443Z</time><hdop>4.437</hdop><vdop>3.062</vdop><extensions><gom:speed>0.687</gom:speed></extensions></trkpt>
   <trkpt lat="59.0667692732" lon="30.026495133"><ele>87.936</ele><time>2026-04-20T18:20:49.075Z</time><hdop>4.437</hdop><vdop>3.062</vdop><extensions><gom:speed>0.685</gom:speed></extensions></trkpt>
   <trkpt lat="59.0667630706" lon="30.0264912773"><ele>87.744</ele><time>2026-04-20T18:20:50.075Z</time><hdop>4.437</hdop><vdop>3.0</vdop><extensions><gom:speed>0.664</gom:speed></extensions></trkpt>
   <trkpt lat="59.0667581672" lon="30.0264888466"><ele>87.79</ele><time>2026-04-20T18:20:51.075Z</time><hdop>4.437</hdop><vdop>2.875</vdop><extensions><gom:speed>0.596</gom:speed></extensions></trkpt>
   <trkpt lat="59.06675318" lon="30.0264896848"><ele>87.726</ele><time>2026-04-20T18:20:52.075Z</time><hdop>4.437</hdop><vdop>2.937</vdop><extensions><gom:speed>0.562</gom:speed></extensions></trkpt>
   <trkpt lat="59.0667478994" lon="30.0264931214"><ele>87.632</ele><time>2026-04-20T18:20:53.076Z</time><hdop>4.437</hdop><vdop>2.937</vdop><extensions><gom:speed>0.555</gom:speed></extensions></trkpt>
   <trkpt lat="59.0667440856" lon="30.0264945463"><ele>87.434</ele><time>2026-04-20T18:20:54.075Z</time><hdop>4.437</hdop><vdop>3.062</vdop><extensions><gom:speed>0.513</gom:speed></extensions></trkpt>
   <trkpt lat="59.0667400623" lon="30.0264955521"><ele>87.514</ele><time>2026-04-20T18:20:55.075Z</time><hdop>4.375</hdop><vdop>3.187</vdop><extensions><gom:speed>0.497</gom:speed></extensions></trkpt>
   <trkpt lat="59.0667367933" lon="30.0264979829"><ele>87.081</ele><time>2026-04-20T18:20:56.076Z</time><hdop>4.312</hdop><vdop>3.312</vdop><extensions><gom:speed>0.456</gom:speed></extensions></trkpt>
   <trkpt lat="59.0667322671" lon="30.0264997431"><ele>86.822</ele><time>2026-04-20T18:20:57.020Z</time><hdop>4.312</hdop><vdop>3.312</vdop><extensions><gom:speed>0.493</gom:speed></extensions></trkpt>
   <trkpt lat="59.0667289982" lon="30.0265042693"><ele>86.343</ele><time>2026-04-20T18:20:58.075Z</time><hdop>4.312</hdop><vdop>3.562</vdop><extensions><gom:speed>0.519</gom:speed></extensions></trkpt>
   <trkpt lat="59.0667254778" lon="30.0265074544"><ele>86.534</ele><time>2026-04-20T18:20:59.075Z</time><hdop>4.25</hdop><vdop>3.437</vdop><extensions><gom:speed>0.445</gom:speed></extensions></trkpt>
   <trkpt lat="59.0667246815" lon="30.0265116454"><ele>86.716</ele><time>2026-04-20T18:21:00.075Z</time><hdop>4.25</hdop><vdop>3.437</vdop><extensions><gom:speed>0.376</gom:speed></extensions></trkpt>
   <trkpt lat="59.066723969" lon="30.0265148305"><ele>86.775</ele><time>2026-04-20T18:21:01.026Z</time><hdop>4.312</hdop><vdop>3.625</vdop><extensions><gom:speed>0.261</gom:speed></extensions></trkpt>
   <trkpt lat="59.066723969" lon="30.0265164231"><ele>87.046</ele><time>2026-04-20T18:21:02.075Z</time><hdop>4.312</hdop><vdop>3.812</vdop><extensions><gom:speed>0.189</gom:speed></extensions></trkpt>
   <trkpt lat="59.066724891" lon="30.0265149981"><ele>87.27</ele><time>2026-04-20T18:21:03.075Z</time><hdop>4.375</hdop><vdop>8.125</vdop><extensions><gom:speed>0.185</gom:speed></extensions></trkpt>
   <trkpt lat="59.0667258969" lon="30.0265121483"><ele>87.538</ele><time>2026-04-20T18:21:04.075Z</time><hdop>4.437</hdop><vdop>7.875</vdop><extensions><gom:speed>0.169</gom:speed></extensions></trkpt>
   <trkpt lat="59.0667254778" lon="30.0265093823"><ele>87.726</ele><time>2026-04-20T18:21:04.936Z</time><hdop>4.5</hdop><vdop>7.687</vdop><extensions><gom:speed>0.204</gom:speed></extensions></trkpt>
   <trkpt lat="59.0667247653" lon="30.0265084602"><ele>87.838</ele><time>2026-04-20T18:21:05.561Z</time><hdop>4.562</hdop><vdop>7.687</vdop><extensions><gom:speed>0.201</gom:speed></extensions></trkpt>
   <trkpt lat="59.0667247653" lon="30.0265064486"><ele>87.958</ele><time>2026-04-20T18:21:06.075Z</time><hdop>4.562</hdop><vdop>7.25</vdop><extensions><gom:speed>0.222</gom:speed></extensions></trkpt>
   <trkpt lat="59.0667235918" lon="30.0265028444"><ele>87.986</ele><time>2026-04-20T18:21:06.950Z</time><hdop>4.625</hdop><vdop>7.062</vdop><extensions><gom:speed>0.25</gom:speed></extensions></trkpt>
   <trkpt lat="59.0667220831" lon="30.026496055"><ele>88.109</ele><time>2026-04-20T18:21:08.075Z</time><hdop>4.75</hdop><vdop>7.25</vdop><extensions><gom:speed>0.32</gom:speed></extensions></trkpt>
   <trkpt lat="59.0667210773" lon="30.0264919479"><ele>88.183</ele><time>2026-04-20T18:21:08.720Z</time><hdop>4.812</hdop><vdop>7.25</vdop><extensions><gom:speed>0.319</gom:speed></extensions></trkpt>
   <trkpt lat="59.0667190656" lon="30.0264851586"><ele>88.288</ele><time>2026-04-20T18:21:09.479Z</time><hdop>5.0</hdop><vdop>7.375</vdop><extensions><gom:speed>0.426</gom:speed></extensions></trkpt>
   <trkpt lat="59.0667170959" lon="30.0264803809"><ele>88.323</ele><time>2026-04-20T18:21:10.030Z</time><hdop>5.062</hdop><vdop>7.437</vdop><extensions><gom:speed>0.428</gom:speed></extensions></trkpt>
   <trkpt lat="59.066713785" lon="30.0264759385"><ele>88.344</ele><time>2026-04-20T18:21:10.622Z</time><hdop>5.187</hdop><vdop>7.437</vdop><extensions><gom:speed>0.5</gom:speed></extensions></trkpt>
   <trkpt lat="59.0667118991" lon="30.0264716637"><ele>88.427</ele><time>2026-04-20T18:21:11.076Z</time><hdop>5.25</hdop><vdop>7.312</vdop><extensions><gom:speed>0.469</gom:speed></extensions></trkpt>
   <trkpt lat="59.0667085882" lon="30.0264684786"><ele>88.477</ele><time>2026-04-20T18:21:12.058Z</time><hdop>5.437</hdop><vdop>7.312</vdop><extensions><gom:speed>0.503</gom:speed></extensions></trkpt>
   <trkpt lat="59.0667038944" lon="30.0264661316"><ele>88.277</ele><time>2026-04-20T18:21:12.993Z</time><hdop>5.562</hdop><vdop>6.812</vdop><extensions><gom:speed>0.503</gom:speed></extensions></trkpt>
   <trkpt lat="59.0667011703" lon="30.0264653773"><ele>88.158</ele><time>2026-04-20T18:21:13.597Z</time><hdop>5.75</hdop><vdop>6.812</vdop><extensions><gom:speed>0.477</gom:speed></extensions></trkpt>
   <trkpt lat="59.0666983623" lon="30.02646412"><ele>88.079</ele><time>2026-04-20T18:21:14.218Z</time><hdop>5.875</hdop><vdop>6.75</vdop><extensions><gom:speed>0.477</gom:speed></extensions></trkpt>
   <trkpt lat="59.0666985719" lon="30.0264634494"><ele>88.042</ele><time>2026-04-20T18:21:15.076Z</time><hdop>5.937</hdop><vdop>6.937</vdop><extensions><gom:speed>0.429</gom:speed></extensions></trkpt>
   <trkpt lat="59.0666982785" lon="30.0264637847"><ele>88.076</ele><time>2026-04-20T18:21:15.953Z</time><hdop>6.062</hdop><vdop>6.812</vdop><extensions><gom:speed>0.364</gom:speed></extensions></trkpt>
   <trkpt lat="59.0666974822" lon="30.0264632818"><ele>88.095</ele><time>2026-04-20T18:21:16.902Z</time><hdop>6.187</hdop><vdop>6.812</vdop><extensions><gom:speed>0.36</gom:speed></extensions></trkpt>
   <trkpt lat="59.0666981947" lon="30.0264590908"><ele>88.14</ele><time>2026-04-20T18:21:17.457Z</time><hdop>6.187</hdop><vdop>6.312</vdop><extensions><gom:speed>0.325</gom:speed></extensions></trkpt>
   <trkpt lat="59.0666981947" lon="30.0264540617"><ele>89.063</ele><time>2026-04-20T18:21:18.075Z</time><hdop>6.125</hdop><vdop>5.875</vdop><extensions><gom:speed>0.336</gom:speed></extensions></trkpt>
   <trkpt lat="59.0666963926" lon="30.0264435843"><ele>89.577</ele><time>2026-04-20T18:21:19.075Z</time><hdop>6.062</hdop><vdop>5.437</vdop><extensions><gom:speed>0.387</gom:speed></extensions></trkpt>
   <trkpt lat="59.0666954706" lon="30.026439561"><ele>89.883</ele><time>2026-04-20T18:21:19.560Z</time><hdop>5.937</hdop><vdop>5.437</vdop><extensions><gom:speed>0.374</gom:speed></extensions></trkpt>
   <trkpt lat="59.0666933751" lon="30.0264337775"><ele>91.214</ele><time>2026-04-20T18:21:20.075Z</time><hdop>5.875</hdop><vdop>5.25</vdop><extensions><gom:speed>0.385</gom:speed></extensions></trkpt>
   <trkpt lat="59.0666884717" lon="30.026427994"><ele>92.137</ele><time>2026-04-20T18:21:21.075Z</time><hdop>5.75</hdop><vdop>4.25</vdop><extensions><gom:speed>0.349</gom:speed></extensions></trkpt>
   <trkpt lat="59.0666812632" lon="30.0264264852"><ele>91.005</ele><time>2026-04-20T18:21:22.075Z</time><hdop>5.5</hdop><vdop>5.812</vdop><extensions><gom:speed>0.349</gom:speed></extensions></trkpt>
   <trkpt lat="59.0666735938" lon="30.0264239707"><ele>90.172</ele><time>2026-04-20T18:21:23.075Z</time><hdop>5.312</hdop><vdop>5.75</vdop><extensions><gom:speed>0.337</gom:speed></extensions></trkpt>
   <trkpt lat="59.0666671816" lon="30.0264188577"><ele>89.501</ele><time>2026-04-20T18:21:24.076Z</time><hdop>5.125</hdop><vdop>6.062</vdop><extensions><gom:speed>0.268</gom:speed></extensions></trkpt>
   <trkpt lat="59.066666092" lon="30.0264174328"><ele>89.367</ele><time>2026-04-20T18:21:24.957Z</time><hdop>5.0</hdop><vdop>6.187</vdop><extensions><gom:speed>0.196</gom:speed></extensions></trkpt>
   <trkpt lat="59.0666659663" lon="30.0264174328"><ele>89.288</ele><time>2026-04-20T18:21:25.513Z</time><hdop>4.937</hdop><vdop>6.187</vdop><extensions><gom:speed>0.155</gom:speed></extensions></trkpt>
   <trkpt lat="59.0666625716" lon="30.0264145829"><ele>89.456</ele><time>2026-04-20T18:21:26.075Z</time><hdop>4.937</hdop><vdop>6.375</vdop><extensions><gom:speed>0.174</gom:speed></extensions></trkpt>
   <trkpt lat="59.0666605599" lon="30.0264138286"><ele>89.557</ele><time>2026-04-20T18:21:26.737Z</time><hdop>4.875</hdop><vdop>6.375</vdop><extensions><gom:speed>0.158</gom:speed></extensions></trkpt>
   <trkpt lat="59.0666588836" lon="30.0264134933"><ele>89.829</ele><time>2026-04-20T18:21:27.836Z</time><hdop>4.875</hdop><vdop>6.625</vdop><extensions><gom:speed>0.169</gom:speed></extensions></trkpt>
   <trkpt lat="59.0666531839" lon="30.0264087994"><ele>90.52</ele><time>2026-04-20T18:21:28.899Z</time><hdop>4.875</hdop><vdop>6.625</vdop><extensions><gom:speed>0.189</gom:speed></extensions></trkpt>
   <trkpt lat="59.0666490767" lon="30.0264065363"><ele>91.423</ele><time>2026-04-20T18:21:29.935Z</time><hdop>5.0</hdop><vdop>6.562</vdop><extensions><gom:speed>0.248</gom:speed></extensions></trkpt>
   <trkpt lat="59.0666422874" lon="30.0263984897"><ele>92.334</ele><time>2026-04-20T18:21:30.933Z</time><hdop>5.062</hdop><vdop>6.312</vdop><extensions><gom:speed>0.359</gom:speed></extensions></trkpt>
   <trkpt lat="59.0666379707" lon="30.0263920356"><ele>93.232</ele><time>2026-04-20T18:21:31.940Z</time><hdop>5.187</hdop><vdop>6.25</vdop><extensions><gom:speed>0.464</gom:speed></extensions></trkpt>
   <trkpt lat="59.0666312652" lon="30.0263824802"><ele>93.981</ele><time>2026-04-20T18:21:32.917Z</time><hdop>5.312</hdop><vdop>6.25</vdop><extensions><gom:speed>0.507</gom:speed></extensions></trkpt>
   <trkpt lat="59.0666250626" lon="30.0263793789"><ele>94.669</ele><time>2026-04-20T18:21:33.915Z</time><hdop>5.437</hdop><vdop>6.312</vdop><extensions><gom:speed>0.569</gom:speed></extensions></trkpt>
   <trkpt lat="59.066618399" lon="30.0263790437"><ele>94.598</ele><time>2026-04-20T18:21:34.981Z</time><hdop>5.625</hdop><vdop>6.312</vdop><extensions><gom:speed>0.574</gom:speed></extensions></trkpt>
   <trkpt lat="59.0666118611" lon="30.0263795466"><ele>94.566</ele><time>2026-04-20T18:21:36.075Z</time><hdop>5.875</hdop><vdop>6.375</vdop><extensions><gom:speed>0.44</gom:speed></extensions></trkpt>
   <trkpt lat="59.0666096818" lon="30.026381642"><ele>94.502</ele><time>2026-04-20T18:21:37.041Z</time><hdop>5.937</hdop><vdop>6.437</vdop><extensions><gom:speed>0.396</gom:speed></extensions></trkpt>
   <trkpt lat="59.0666064967" lon="30.0263828993"><ele>94.412</ele><time>2026-04-20T18:21:37.989Z</time><hdop>6.062</hdop><vdop>6.312</vdop><extensions><gom:speed>0.383</gom:speed></extensions></trkpt>
   <trkpt lat="59.0666030601" lon="30.0263831508"><ele>94.48</ele><time>2026-04-20T18:21:38.937Z</time><hdop>6.187</hdop><vdop>6.25</vdop><extensions><gom:speed>0.379</gom:speed></extensions></trkpt>
   <trkpt lat="59.0665996654" lon="30.0263833184"><ele>94.563</ele><time>2026-04-20T18:21:40.003Z</time><hdop>6.25</hdop><vdop>6.187</vdop><extensions><gom:speed>0.35</gom:speed></extensions></trkpt>
   <trkpt lat="59.0665964803" lon="30.0263809715"><ele>94.631</ele><time>2026-04-20T18:21:40.951Z</time><hdop>6.312</hdop><vdop>6.25</vdop><extensions><gom:speed>0.37</gom:speed></extensions></trkpt>
   <trkpt lat="59.066595684" lon="30.0263791275"><ele>94.671</ele><time>2026-04-20T18:21:41.517Z</time><hdop>6.437</hdop><vdop>6.25</vdop><extensions><gom:speed>0.344</gom:speed></extensions></trkpt>
   <trkpt lat="59.0665938819" lon="30.0263748527"><ele>94.702</ele><time>2026-04-20T18:21:42.017Z</time><hdop>6.562</hdop><vdop>6.125</vdop><extensions><gom:speed>0.351</gom:speed></extensions></trkpt>
   <trkpt lat="59.0665925827" lon="30.0263737631"><ele>94.72</ele><time>2026-04-20T18:21:42.684Z</time><hdop>6.687</hdop><vdop>6.125</vdop><extensions><gom:speed>0.338</gom:speed></extensions></trkpt>
   <trkpt lat="59.0665918702" lon="30.0263699912"><ele>94.275</ele><time>2026-04-20T18:21:43.718Z</time><hdop>6.75</hdop><vdop>6.0</vdop><extensions><gom:speed>0.32</gom:speed></extensions></trkpt>
   <trkpt lat="59.0665890623" lon="30.0263665546"><ele>94.488</ele><time>2026-04-20T18:21:44.597Z</time><hdop>6.687</hdop><vdop>4.5</vdop><extensions><gom:speed>0.35</gom:speed></extensions></trkpt>
   <trkpt lat="59.0665854581" lon="30.0263646268"><ele>92.856</ele><time>2026-04-20T18:21:45.075Z</time><hdop>6.625</hdop><vdop>4.437</vdop><extensions><gom:speed>0.366</gom:speed></extensions></trkpt>
   <trkpt lat="59.06658177" lon="30.026363118"><ele>91.881</ele><time>2026-04-20T18:21:45.594Z</time><hdop>6.5</hdop><vdop>4.437</vdop><extensions><gom:speed>0.44</gom:speed></extensions></trkpt>
   <trkpt lat="59.0665770762" lon="30.0263623637"><ele>90.893</ele><time>2026-04-20T18:21:46.075Z</time><hdop>6.375</hdop><vdop>4.312</vdop><extensions><gom:speed>0.448</gom:speed></extensions></trkpt>
   <trkpt lat="59.0665680656" lon="30.0263616931"><ele>89.865</ele><time>2026-04-20T18:21:47.075Z</time><hdop>6.062</hdop><vdop>4.25</vdop><extensions><gom:speed>0.506</gom:speed></extensions></trkpt>
   <trkpt lat="59.0665645871" lon="30.0263604358"><ele>89.251</ele><time>2026-04-20T18:21:47.704Z</time><hdop>5.875</hdop><vdop>4.25</vdop><extensions><gom:speed>0.525</gom:speed></extensions></trkpt>
   <trkpt lat="59.0665561633" lon="30.0263559934"><ele>88.507</ele><time>2026-04-20T18:21:48.457Z</time><hdop>5.562</hdop><vdop>4.312</vdop><extensions><gom:speed>0.538</gom:speed></extensions></trkpt>
   <trkpt lat="59.0665513856" lon="30.0263530598"><ele>88.207</ele><time>2026-04-20T18:21:49.075Z</time><hdop>5.437</hdop><vdop>4.5</vdop><extensions><gom:speed>0.538</gom:speed></extensions></trkpt>
   <trkpt lat="59.066542878" lon="30.0263491203"><ele>88.94</ele><time>2026-04-20T18:21:50.075Z</time><hdop>5.25</hdop><vdop>4.187</vdop><extensions><gom:speed>0.57</gom:speed></extensions></trkpt>
   <trkpt lat="59.0665335741" lon="30.0263488688"><ele>89.093</ele><time>2026-04-20T18:21:51.075Z</time><hdop>5.062</hdop><vdop>4.062</vdop><extensions><gom:speed>0.6</gom:speed></extensions></trkpt>
   <trkpt lat="59.066523893" lon="30.0263520539"><ele>88.972</ele><time>2026-04-20T18:21:52.075Z</time><hdop>4.937</hdop><vdop>3.875</vdop><extensions><gom:speed>0.606</gom:speed></extensions></trkpt>
   <trkpt lat="59.066515092" lon="30.026356664"><ele>89.58</ele><time>2026-04-20T18:21:53.075Z</time><hdop>4.812</hdop><vdop>3.75</vdop><extensions><gom:speed>0.585</gom:speed></extensions></trkpt>
   <trkpt lat="59.0665129965" lon="30.0263573345"><ele>89.944</ele><time>2026-04-20T18:21:53.865Z</time><hdop>4.812</hdop><vdop>3.75</vdop><extensions><gom:speed>0.575</gom:speed></extensions></trkpt>
   <trkpt lat="59.0665037764" lon="30.0263600167"><ele>90.702</ele><time>2026-04-20T18:21:54.459Z</time><hdop>4.75</hdop><vdop>3.562</vdop><extensions><gom:speed>0.504</gom:speed></extensions></trkpt>
   <trkpt lat="59.0664986635" lon="30.0263617769"><ele>91.481</ele><time>2026-04-20T18:21:55.075Z</time><hdop>4.687</hdop><vdop>3.625</vdop><extensions><gom:speed>0.513</gom:speed></extensions></trkpt>
   <trkpt lat="59.0664922932" lon="30.0263641239"><ele>91.84</ele><time>2026-04-20T18:21:56.076Z</time><hdop>4.687</hdop><vdop>3.375</vdop><extensions><gom:speed>0.462</gom:speed></extensions></trkpt>
   <trkpt lat="59.066487767" lon="30.0263640401"><ele>92.162</ele><time>2026-04-20T18:21:57.075Z</time><hdop>4.687</hdop><vdop>6.25</vdop><extensions><gom:speed>0.308</gom:speed></extensions></trkpt>
   <trkpt lat="59.0664839951" lon="30.0263619446"><ele>92.378</ele><time>2026-04-20T18:21:58.075Z</time><hdop>4.625</hdop><vdop>6.25</vdop><extensions><gom:speed>0.245</gom:speed></extensions></trkpt>
   <trkpt lat="59.0664811872" lon="30.0263597653"><ele>92.4</ele><time>2026-04-20T18:21:58.959Z</time><hdop>4.562</hdop><vdop>6.25</vdop><extensions><gom:speed>0.241</gom:speed></extensions></trkpt>
   <trkpt lat="59.0664765772" lon="30.0263573345"><ele>92.384</ele><time>2026-04-20T18:22:00.075Z</time><hdop>4.562</hdop><vdop>6.187</vdop><extensions><gom:speed>0.242</gom:speed></extensions></trkpt>
   <trkpt lat="59.0664720928" lon="30.0263555743"><ele>92.375</ele><time>2026-04-20T18:22:00.976Z</time><hdop>4.562</hdop><vdop>6.187</vdop><extensions><gom:speed>0.321</gom:speed></extensions></trkpt>
   <trkpt lat="59.0664641719" lon="30.0263522216"><ele>92.332</ele><time>2026-04-20T18:22:02.013Z</time><hdop>4.687</hdop><vdop>5.937</vdop><extensions><gom:speed>0.557</gom:speed></extensions></trkpt>
   <trkpt lat="59.066454868" lon="30.0263474439"><ele>92.371</ele><time>2026-04-20T18:22:02.674Z</time><hdop>4.812</hdop><vdop>5.812</vdop><extensions><gom:speed>0.706</gom:speed></extensions></trkpt>
   <trkpt lat="59.0664468633" lon="30.0263408222"><ele>92.357</ele><time>2026-04-20T18:22:03.534Z</time><hdop>5.0</hdop><vdop>5.625</vdop><extensions><gom:speed>0.755</gom:speed></extensions></trkpt>
   <trkpt lat="59.0664419599" lon="30.0263374694"><ele>92.23</ele><time>2026-04-20T18:22:04.075Z</time><hdop>5.0</hdop><vdop>5.312</vdop><extensions><gom:speed>0.749</gom:speed></extensions></trkpt>
   <trkpt lat="59.0664331589" lon="30.0263316859"><ele>92.218</ele><time>2026-04-20T18:22:05.075Z</time><hdop>5.125</hdop><vdop>5.5</vdop><extensions><gom:speed>0.789</gom:speed></extensions></trkpt>
   <trkpt lat="59.0664279621" lon="30.0263283331"><ele>92.211</ele><time>2026-04-20T18:22:05.655Z</time><hdop>5.25</hdop><vdop>5.5</vdop><extensions><gom:speed>0.789</gom:speed></extensions></trkpt>
   <trkpt lat="59.0664217595" lon="30.0263320212"><ele>90.382</ele><time>2026-04-20T18:22:06.220Z</time><hdop>5.25</hdop><vdop>5.437</vdop><extensions><gom:speed>0.787</gom:speed></extensions></trkpt>
   <trkpt lat="59.0664146768" lon="30.0263366312"><ele>89.29</ele><time>2026-04-20T18:22:06.784Z</time><hdop>5.25</hdop><vdop>5.437</vdop><extensions><gom:speed>0.856</gom:speed></extensions></trkpt>
   <trkpt lat="59.0664089771" lon="30.0263480306"><ele>89.738</ele><time>2026-04-20T18:22:07.624Z</time><hdop>5.25</hdop><vdop>4.625</vdop><extensions><gom:speed>0.872</gom:speed></extensions></trkpt>
   <trkpt lat="59.0664045766" lon="30.0263555743"><ele>90.064</ele><time>2026-04-20T18:22:08.075Z</time><hdop>5.25</hdop><vdop>4.062</vdop><extensions><gom:speed>0.881</gom:speed></extensions></trkpt>
   <trkpt lat="59.0663961947" lon="30.0263688177"><ele>89.933</ele><time>2026-04-20T18:22:09.075Z</time><hdop>5.187</hdop><vdop>3.75</vdop><extensions><gom:speed>0.85</gom:speed></extensions></trkpt>
   <trkpt lat="59.0663882738" lon="30.0263814744"><ele>90.033</ele><time>2026-04-20T18:22:10.076Z</time><hdop>5.125</hdop><vdop>3.687</vdop><extensions><gom:speed>0.807</gom:speed></extensions></trkpt>
   <trkpt lat="59.0663821969" lon="30.026388599"><ele>90.093</ele><time>2026-04-20T18:22:10.961Z</time><hdop>5.125</hdop><vdop>3.687</vdop><extensions><gom:speed>0.794</gom:speed></extensions></trkpt>
   <trkpt lat="59.066374276" lon="30.0263984897"><ele>89.509</ele><time>2026-04-20T18:22:11.955Z</time><hdop>5.062</hdop><vdop>3.562</vdop><extensions><gom:speed>0.791</gom:speed></extensions></trkpt>
   <trkpt lat="59.0663713843" lon="30.0264020939"><ele>88.832</ele><time>2026-04-20T18:22:12.466Z</time><hdop>5.062</hdop><vdop>3.625</vdop><extensions><gom:speed>0.762</gom:speed></extensions></trkpt>
   <trkpt lat="59.0663646788" lon="30.0264146667"><ele>88.591</ele><time>2026-04-20T18:22:13.075Z</time><hdop>5.062</hdop><vdop>3.5</vdop><extensions><gom:speed>0.75</gom:speed></extensions></trkpt>
   <trkpt lat="59.0663619965" lon="30.0264217914"><ele>88.447</ele><time>2026-04-20T18:22:13.722Z</time><hdop>5.062</hdop><vdop>3.5</vdop><extensions><gom:speed>0.703</gom:speed></extensions></trkpt>
   <trkpt lat="59.0663531955" lon="30.0264354539"><ele>88.936</ele><time>2026-04-20T18:22:14.836Z</time><hdop>5.062</hdop><vdop>3.312</vdop><extensions><gom:speed>0.648</gom:speed></extensions></trkpt>
   <trkpt lat="59.0663460709" lon="30.026443249"><ele>89.418</ele><time>2026-04-20T18:22:15.479Z</time><hdop>5.0</hdop><vdop>3.312</vdop><extensions><gom:speed>0.534</gom:speed></extensions></trkpt>
   <trkpt lat="59.0663401617" lon="30.0264489487"><ele>90.171</ele><time>2026-04-20T18:22:16.075Z</time><hdop>5.0</hdop><vdop>3.25</vdop><extensions><gom:speed>0.527</gom:speed></extensions></trkpt>
   <trkpt lat="59.0663319893" lon="30.0264542293"><ele>90.346</ele><time>2026-04-20T18:22:17.076Z</time><hdop>4.937</hdop><vdop>3.125</vdop><extensions><gom:speed>0.401</gom:speed></extensions></trkpt>
   <trkpt lat="59.0663263735" lon="30.0264545646"><ele>90.451</ele><time>2026-04-20T18:22:18.075Z</time><hdop>4.875</hdop><vdop>3.187</vdop><extensions><gom:speed>0.224</gom:speed></extensions></trkpt>
   <trkpt lat="59.0663253676" lon="30.0264531397"><ele>90.514</ele><time>2026-04-20T18:22:18.639Z</time><hdop>4.812</hdop><vdop>3.187</vdop><extensions><gom:speed>0.14</gom:speed></extensions></trkpt>
   <trkpt lat="59.0663215958" lon="30.0264536426"><ele>90.337</ele><time>2026-04-20T18:22:19.496Z</time><hdop>4.687</hdop><vdop>3.25</vdop><extensions><gom:speed>0.139</gom:speed></extensions></trkpt>
   <trkpt lat="59.0663190812" lon="30.0264560733"><ele>90.591</ele><time>2026-04-20T18:22:20.075Z</time><hdop>4.562</hdop><vdop>3.375</vdop><extensions><gom:speed>0.173</gom:speed></extensions></trkpt>
   <trkpt lat="59.066315477" lon="30.0264596776"><ele>90.709</ele><time>2026-04-20T18:22:21.075Z</time><hdop>4.437</hdop><vdop>3.375</vdop><extensions><gom:speed>0.17</gom:speed></extensions></trkpt>
   <trkpt lat="59.0663118728" lon="30.0264662993"><ele>90.701</ele><time>2026-04-20T18:22:22.075Z</time><hdop>4.312</hdop><vdop>3.437</vdop><extensions><gom:speed>0.234</gom:speed></extensions></trkpt>
   <trkpt lat="59.0663085619" lon="30.0264763576"><ele>90.823</ele><time>2026-04-20T18:22:23.075Z</time><hdop>4.312</hdop><vdop>3.562</vdop><extensions><gom:speed>0.341</gom:speed></extensions></trkpt>
   <trkpt lat="59.0663074723" lon="30.026481722"><ele>90.895</ele><time>2026-04-20T18:22:23.554Z</time><hdop>4.25</hdop><vdop>3.562</vdop><extensions><gom:speed>0.38</gom:speed></extensions></trkpt>
   <trkpt lat="59.066305293" lon="30.0264889304"><ele>90.812</ele><time>2026-04-20T18:22:24.075Z</time><hdop>4.25</hdop><vdop>3.5</vdop><extensions><gom:speed>0.41</gom:speed></extensions></trkpt>
   <trkpt lat="59.0663032813" lon="30.0264972285"><ele>90.762</ele><time>2026-04-20T18:22:24.786Z</time><hdop>4.187</hdop><vdop>3.5</vdop><extensions><gom:speed>0.475</gom:speed></extensions></trkpt>
   <trkpt lat="59.0662989646" lon="30.0265102204"><ele>90.776</ele><time>2026-04-20T18:22:25.402Z</time><hdop>4.187</hdop><vdop>3.5</vdop><extensions><gom:speed>0.503</gom:speed></extensions></trkpt>
   <trkpt lat="59.0662958633" lon="30.0265186862"><ele>90.632</ele><time>2026-04-20T18:22:26.075Z</time><hdop>4.125</hdop><vdop>3.437</vdop><extensions><gom:speed>0.527</gom:speed></extensions></trkpt>
   <trkpt lat="59.0662896607" lon="30.0265327678"><ele>90.891</ele><time>2026-04-20T18:22:27.076Z</time><hdop>4.125</hdop><vdop>3.437</vdop><extensions><gom:speed>0.597</gom:speed></extensions></trkpt>
   <trkpt lat="59.0662827876" lon="30.026547017"><ele>91.081</ele><time>2026-04-20T18:22:28.075Z</time><hdop>4.125</hdop><vdop>3.437</vdop><extensions><gom:speed>0.638</gom:speed></extensions></trkpt>
   <trkpt lat="59.0662769621" lon="30.0265614339"><ele>91.373</ele><time>2026-04-20T18:22:29.075Z</time><hdop>4.062</hdop><vdop>3.312</vdop><extensions><gom:speed>0.662</gom:speed></extensions></trkpt>
   <trkpt lat="59.0662720587" lon="30.0265782815"><ele>91.548</ele><time>2026-04-20T18:22:30.040Z</time><hdop>4.187</hdop><vdop>3.312</vdop><extensions><gom:speed>0.765</gom:speed></extensions></trkpt>
   <trkpt lat="59.066267784" lon="30.0265974761"><ele>91.678</ele><time>2026-04-20T18:22:30.960Z</time><hdop>4.312</hdop><vdop>3.125</vdop><extensions><gom:speed>0.809</gom:speed></extensions></trkpt>
   <trkpt lat="59.0662637606" lon="30.0266142399"><ele>91.636</ele><time>2026-04-20T18:22:31.699Z</time><hdop>4.437</hdop><vdop>3.062</vdop><extensions><gom:speed>0.836</gom:speed></extensions></trkpt>
   <trkpt lat="59.0662576838" lon="30.0266302493"><ele>91.57</ele><time>2026-04-20T18:22:32.716Z</time><hdop>4.5</hdop><vdop>3.0</vdop><extensions><gom:speed>0.81</gom:speed></extensions></trkpt>
   <trkpt lat="59.0662514812" lon="30.0266393856"><ele>91.935</ele><time>2026-04-20T18:22:33.575Z</time><hdop>4.625</hdop><vdop>3.0</vdop><extensions><gom:speed>0.842</gom:speed></extensions></trkpt>
   <trkpt lat="59.0662478769" lon="30.0266446662"><ele>92.161</ele><time>2026-04-20T18:22:34.075Z</time><hdop>4.625</hdop><vdop>3.0</vdop><extensions><gom:speed>0.848</gom:speed></extensions></trkpt>
   <trkpt lat="59.0662441889" lon="30.0266509526"><ele>92.295</ele><time>2026-04-20T18:22:34.641Z</time><hdop>4.687</hdop><vdop>3.0</vdop><extensions><gom:speed>0.816</gom:speed></extensions></trkpt>
   <trkpt lat="59.0662395788" lon="30.0266613462"><ele>92.473</ele><time>2026-04-20T18:22:35.461Z</time><hdop>4.687</hdop><vdop>3.062</vdop><extensions><gom:speed>0.773</gom:speed></extensions></trkpt>
   <trkpt lat="59.0662351783" lon="30.0266703986"><ele>93.275</ele><time>2026-04-20T18:22:36.075Z</time><hdop>4.625</hdop><vdop>3.062</vdop><extensions><gom:speed>0.848</gom:speed></extensions></trkpt>
   <trkpt lat="59.0662289757" lon="30.0266849831"><ele>93.755</ele><time>2026-04-20T18:22:37.061Z</time><hdop>4.687</hdop><vdop>3.062</vdop><extensions><gom:speed>0.848</gom:speed></extensions></trkpt>
   <trkpt lat="59.0662226893" lon="30.0267079495"><ele>94.033</ele><time>2026-04-20T18:22:37.999Z</time><hdop>4.75</hdop><vdop>2.812</vdop><extensions><gom:speed>0.847</gom:speed></extensions></trkpt>
   <trkpt lat="59.066219588" lon="30.0267200195"><ele>94.217</ele><time>2026-04-20T18:22:38.759Z</time><hdop>4.812</hdop><vdop>2.812</vdop><extensions><gom:speed>0.839</gom:speed></extensions></trkpt>
   <trkpt lat="59.0662136788" lon="30.02673737"><ele>94.739</ele><time>2026-04-20T18:22:39.893Z</time><hdop>4.875</hdop><vdop>2.812</vdop><extensions><gom:speed>0.803</gom:speed></extensions></trkpt>
   <trkpt lat="59.0662095716" lon="30.0267513678"><ele>95.095</ele><time>2026-04-20T18:22:40.793Z</time><hdop>4.875</hdop><vdop>2.75</vdop><extensions><gom:speed>0.777</gom:speed></extensions></trkpt>
   <trkpt lat="59.0662050873" lon="30.0267650303"><ele>95.195</ele><time>2026-04-20T18:22:41.722Z</time><hdop>4.937</hdop><vdop>2.75</vdop><extensions><gom:speed>0.778</gom:speed></extensions></trkpt>
   <trkpt lat="59.0662003935" lon="30.0267757591"><ele>95.097</ele><time>2026-04-20T18:22:42.559Z</time><hdop>4.937</hdop><vdop>2.75</vdop><extensions><gom:speed>0.781</gom:speed></extensions></trkpt>
   <trkpt lat="59.0661975855" lon="30.0267820456"><ele>95.031</ele><time>2026-04-20T18:22:43.075Z</time><hdop>4.875</hdop><vdop>2.937</vdop><extensions><gom:speed>0.777</gom:speed></extensions></trkpt>
   <trkpt lat="59.0661906704" lon="30.0267908466"><ele>95.134</ele><time>2026-04-20T18:22:44.075Z</time><hdop>4.812</hdop><vdop>3.187</vdop><extensions><gom:speed>0.759</gom:speed></extensions></trkpt>
   <trkpt lat="59.0661855994" lon="30.0267966301"><ele>95.715</ele><time>2026-04-20T18:22:45.076Z</time><hdop>4.75</hdop><vdop>3.437</vdop><extensions><gom:speed>0.771</gom:speed></extensions></trkpt>
   <trkpt lat="59.0661794806" lon="30.0268038385"><ele>96.234</ele><time>2026-04-20T18:22:46.075Z</time><hdop>4.75</hdop><vdop>3.562</vdop><extensions><gom:speed>0.787</gom:speed></extensions></trkpt>
   <trkpt lat="59.0661721883" lon="30.0268081971"><ele>96.543</ele><time>2026-04-20T18:22:46.974Z</time><hdop>4.687</hdop><vdop>3.562</vdop><extensions><gom:speed>0.823</gom:speed></extensions></trkpt>
   <trkpt lat="59.0661655666" lon="30.0268100411"><ele>96.878</ele><time>2026-04-20T18:22:47.754Z</time><hdop>4.687</hdop><vdop>3.625</vdop><extensions><gom:speed>0.849</gom:speed></extensions></trkpt>
   <trkpt lat="59.0661576877" lon="30.0268142321"><ele>97.176</ele><time>2026-04-20T18:22:48.700Z</time><hdop>4.625</hdop><vdop>3.375</vdop><extensions><gom:speed>0.848</gom:speed></extensions></trkpt>
   <trkpt lat="59.0661507726" lon="30.0268201832"><ele>97.686</ele><time>2026-04-20T18:22:49.638Z</time><hdop>4.625</hdop><vdop>3.25</vdop><extensions><gom:speed>0.828</gom:speed></extensions></trkpt>
   <trkpt lat="59.0661449891" lon="30.0268234522"><ele>98.048</ele><time>2026-04-20T18:22:50.615Z</time><hdop>4.625</hdop><vdop>3.25</vdop><extensions><gom:speed>0.76</gom:speed></extensions></trkpt>
   <trkpt lat="59.066142684" lon="30.0268227816"><ele>98.07</ele><time>2026-04-20T18:22:51.075Z</time><hdop>4.625</hdop><vdop>3.187</vdop><extensions><gom:speed>0.754</gom:speed></extensions></trkpt>
   <trkpt lat="59.0661367748" lon="30.0268206861"><ele>97.874</ele><time>2026-04-20T18:22:52.075Z</time><hdop>4.562</hdop><vdop>3.125</vdop><extensions><gom:speed>0.728</gom:speed></extensions></trkpt>
   <trkpt lat="59.0661308656" lon="30.0268190936"><ele>97.757</ele><time>2026-04-20T18:22:52.995Z</time><hdop>4.562</hdop><vdop>3.125</vdop><extensions><gom:speed>0.712</gom:speed></extensions></trkpt>
   <trkpt lat="59.0661249982" lon="30.0268182554"><ele>97.637</ele><time>2026-04-20T18:22:53.972Z</time><hdop>4.562</hdop><vdop>3.125</vdop><extensions><gom:speed>0.724</gom:speed></extensions></trkpt>
   <trkpt lat="59.0661189633" lon="30.0268221949"><ele>97.403</ele><time>2026-04-20T18:22:54.881Z</time><hdop>4.625</hdop><vdop>3.125</vdop><extensions><gom:speed>0.747</gom:speed></extensions></trkpt>
   <trkpt lat="59.0661140598" lon="30.0268289842"><ele>97.179</ele><time>2026-04-20T18:22:55.839Z</time><hdop>4.625</hdop><vdop>3.25</vdop><extensions><gom:speed>0.732</gom:speed></extensions></trkpt>
   <trkpt lat="59.0661095755" lon="30.0268373661"><ele>97.337</ele><time>2026-04-20T18:22:56.815Z</time><hdop>4.687</hdop><vdop>3.25</vdop><extensions><gom:speed>0.717</gom:speed></extensions></trkpt>
   <trkpt lat="59.0661054684" lon="30.0268464186"><ele>97.182</ele><time>2026-04-20T18:22:57.875Z</time><hdop>4.687</hdop><vdop>3.125</vdop><extensions><gom:speed>0.683</gom:speed></extensions></trkpt>
   <trkpt lat="59.0661013613" lon="30.0268539623"><ele>96.65</ele><time>2026-04-20T18:22:58.823Z</time><hdop>4.687</hdop><vdop>3.125</vdop><extensions><gom:speed>0.693</gom:speed></extensions></trkpt>
   <trkpt lat="59.0660958711" lon="30.02686335"><ele>96.204</ele><time>2026-04-20T18:22:59.956Z</time><hdop>4.687</hdop><vdop>3.312</vdop><extensions><gom:speed>0.703</gom:speed></extensions></trkpt>
   <trkpt lat="59.0660913868" lon="30.0268725701"><ele>95.713</ele><time>2026-04-20T18:23:00.954Z</time><hdop>4.687</hdop><vdop>3.437</vdop><extensions><gom:speed>0.641</gom:speed></extensions></trkpt>
   <trkpt lat="59.066087573" lon="30.0268824608"><ele>95.485</ele><time>2026-04-20T18:23:02.019Z</time><hdop>4.687</hdop><vdop>3.187</vdop><extensions><gom:speed>0.601</gom:speed></extensions></trkpt>
   <trkpt lat="59.0660840945" lon="30.0268894177"><ele>95.151</ele><time>2026-04-20T18:23:03.075Z</time><hdop>4.625</hdop><vdop>3.187</vdop><extensions><gom:speed>0.513</gom:speed></extensions></trkpt>
   <trkpt lat="59.0660803646" lon="30.0268932734"><ele>94.692</ele><time>2026-04-20T18:23:04.075Z</time><hdop>4.562</hdop><vdop>3.437</vdop><extensions><gom:speed>0.451</gom:speed></extensions></trkpt>
   <trkpt lat="59.0660768861" lon="30.026897632"><ele>94.417</ele><time>2026-04-20T18:23:04.922Z</time><hdop>4.562</hdop><vdop>3.437</vdop><extensions><gom:speed>0.533</gom:speed></extensions></trkpt>
   <trkpt lat="59.0660723599" lon="30.0269076903"><ele>93.695</ele><time>2026-04-20T18:23:05.740Z</time><hdop>4.5</hdop><vdop>3.375</vdop><extensions><gom:speed>0.645</gom:speed></extensions></trkpt>
   <trkpt lat="59.0660675822" lon="30.0269200955"><ele>93.333</ele><time>2026-04-20T18:23:06.560Z</time><hdop>4.5</hdop><vdop>3.25</vdop><extensions><gom:speed>0.705</gom:speed></extensions></trkpt>
   <trkpt lat="59.0660648581" lon="30.0269281421"><ele>93.245</ele><time>2026-04-20T18:23:07.075Z</time><hdop>4.437</hdop><vdop>3.125</vdop><extensions><gom:speed>0.714</gom:speed></extensions></trkpt>
   <trkpt lat="59.0660596613" lon="30.0269440678"><ele>93.112</ele><time>2026-04-20T18:23:08.075Z</time><hdop>4.5</hdop><vdop>3.0</vdop><extensions><gom:speed>0.754</gom:speed></extensions></trkpt>
   <trkpt lat="59.0660584878" lon="30.0269619212"><ele>93.056</ele><time>2026-04-20T18:23:09.076Z</time><hdop>4.5</hdop><vdop>3.062</vdop><extensions><gom:speed>0.828</gom:speed></extensions></trkpt>
   <trkpt lat="59.0660648581" lon="30.026974075"><ele>93.057</ele><time>2026-04-20T18:23:10.042Z</time><hdop>4.562</hdop><vdop>4.687</vdop><extensions><gom:speed>0.846</gom:speed></extensions></trkpt>
   <trkpt lat="59.0660698872" lon="30.0269755837"><ele>92.893</ele><time>2026-04-20T18:23:11.075Z</time><hdop>4.625</hdop><vdop>4.625</vdop><extensions><gom:speed>0.63</gom:speed></extensions></trkpt>
   <trkpt lat="59.0660748745" lon="30.0269826245"><ele>92.739</ele><time>2026-04-20T18:23:11.938Z</time><hdop>4.687</hdop><vdop>4.375</vdop><extensions><gom:speed>0.695</gom:speed></extensions></trkpt>
   <trkpt lat="59.0660758803" lon="30.0269896653"><ele>92.646</ele><time>2026-04-20T18:23:12.402Z</time><hdop>4.812</hdop><vdop>4.375</vdop><extensions><gom:speed>0.767</gom:speed></extensions></trkpt>
   <trkpt lat="59.0660730723" lon="30.0269978796"><ele>92.531</ele><time>2026-04-20T18:23:13.075Z</time><hdop>4.875</hdop><vdop>4.25</vdop><extensions><gom:speed>0.703</gom:speed></extensions></trkpt>
   <trkpt lat="59.0660686718" lon="30.0270018191"><ele>92.474</ele><time>2026-04-20T18:23:13.952Z</time><hdop>5.062</hdop><vdop>4.187</vdop><extensions><gom:speed>0.557</gom:speed></extensions></trkpt>
   <trkpt lat="59.0660623854" lon="30.0270104524"><ele>92.441</ele><time>2026-04-20T18:23:15.040Z</time><hdop>5.312</hdop><vdop>4.187</vdop><extensions><gom:speed>0.588</gom:speed></extensions></trkpt>
   <trkpt lat="59.0660570629" lon="30.0270154816"><ele>92.352</ele><time>2026-04-20T18:23:16.058Z</time><hdop>5.437</hdop><vdop>4.125</vdop><extensions><gom:speed>0.619</gom:speed></extensions></trkpt>
   <trkpt lat="59.0660507765" lon="30.0270205945"><ele>92.19</ele><time>2026-04-20T18:23:16.956Z</time><hdop>5.562</hdop><vdop>4.062</vdop><extensions><gom:speed>0.647</gom:speed></extensions></trkpt>
   <trkpt lat="59.0660444901" lon="30.0270249531"><ele>92.01</ele><time>2026-04-20T18:23:17.815Z</time><hdop>5.75</hdop><vdop>4.062</vdop><extensions><gom:speed>0.671</gom:speed></extensions></trkpt>
   <trkpt lat="59.0660374912" lon="30.0270277191"><ele>91.789</ele><time>2026-04-20T18:23:18.772Z</time><hdop>6.062</hdop><vdop>4.25</vdop><extensions><gom:speed>0.704</gom:speed></extensions></trkpt>
   <trkpt lat="59.0660305761" lon="30.027029647"><ele>91.594</ele><time>2026-04-20T18:23:19.592Z</time><hdop>6.25</hdop><vdop>4.125</vdop><extensions><gom:speed>0.738</gom:speed></extensions></trkpt>
   <trkpt lat="59.066023661" lon="30.0270293955"><ele>91.528</ele><time>2026-04-20T18:23:20.560Z</time><hdop>6.375</hdop><vdop>4.125</vdop><extensions><gom:speed>0.681</gom:speed></extensions></trkpt>
   <trkpt lat="59.0660161592" lon="30.0270239473"><ele>91.616</ele><time>2026-04-20T18:23:22.008Z</time><hdop>6.625</hdop><vdop>4.75</vdop><extensions><gom:speed>0.568</gom:speed></extensions></trkpt>
   <trkpt lat="59.0660151953" lon="30.02702269"><ele>91.669</ele><time>2026-04-20T18:23:22.516Z</time><hdop>6.687</hdop><vdop>4.75</vdop><extensions><gom:speed>0.532</gom:speed></extensions></trkpt>
   <trkpt lat="59.0660108786" lon="30.0270231929"><ele>91.787</ele><time>2026-04-20T18:23:24.022Z</time><hdop>6.937</hdop><vdop>5.0</vdop><extensions><gom:speed>0.415</gom:speed></extensions></trkpt>
   <trkpt lat="59.0660142733" lon="30.0270200916"><ele>91.949</ele><time>2026-04-20T18:23:25.075Z</time><hdop>7.0</hdop><vdop>5.0</vdop><extensions><gom:speed>0.263</gom:speed></extensions></trkpt>
   <trkpt lat="59.066015782" lon="30.0270196725"><ele>92.052</ele><time>2026-04-20T18:23:26.036Z</time><hdop>7.0</hdop><vdop>5.062</vdop><extensions><gom:speed>0.13</gom:speed></extensions></trkpt>
   <trkpt lat="59.0660168717" lon="30.0270188343"><ele>92.113</ele><time>2026-04-20T18:23:26.553Z</time><hdop>6.937</hdop><vdop>5.062</vdop><extensions><gom:speed>0.083</gom:speed></extensions></trkpt>
   <trkpt lat="59.0660166621" lon="30.0270185829"><ele>92.14</ele><time>2026-04-20T18:23:27.619Z</time><hdop>6.875</hdop><vdop>5.125</vdop><extensions><gom:speed>0.094</gom:speed></extensions></trkpt>
   <trkpt lat="59.0660156982" lon="30.0270184991"><ele>92.157</ele><time>2026-04-20T18:23:28.459Z</time><hdop>6.812</hdop><vdop>5.0</vdop><extensions><gom:speed>0.085</gom:speed></extensions></trkpt>
   <trkpt lat="59.0660150696" lon="30.0270185829"><ele>92.224</ele><time>2026-04-20T18:23:28.998Z</time><hdop>6.812</hdop><vdop>4.937</vdop><extensions><gom:speed>0.121</gom:speed></extensions></trkpt>
   <trkpt lat="59.0660125969" lon="30.027017577"><ele>92.266</ele><time>2026-04-20T18:23:29.946Z</time><hdop>6.812</hdop><vdop>5.0</vdop><extensions><gom:speed>0.23</gom:speed></extensions></trkpt>
   <trkpt lat="59.0660081964" lon="30.0270169903"><ele>92.299</ele><time>2026-04-20T18:23:31.012Z</time><hdop>7.0</hdop><vdop>5.062</vdop><extensions><gom:speed>0.402</gom:speed></extensions></trkpt>
   <trkpt lat="59.0660008622" lon="30.0270167389"><ele>92.32</ele><time>2026-04-20T18:23:31.954Z</time><hdop>7.187</hdop><vdop>5.062</vdop><extensions><gom:speed>0.56</gom:speed></extensions></trkpt>
   <trkpt lat="59.0659911811" lon="30.0270189181"><ele>92.329</ele><time>2026-04-20T18:23:32.881Z</time><hdop>7.5</hdop><vdop>5.0</vdop><extensions><gom:speed>0.709</gom:speed></extensions></trkpt>
   <trkpt lat="59.0659915583" lon="30.0270264619"><ele>92.941</ele><time>2026-04-20T18:23:33.700Z</time><hdop>7.75</hdop><vdop>4.812</vdop><extensions><gom:speed>0.796</gom:speed></extensions></trkpt>
   <trkpt lat="59.0659946596" lon="30.027034257"><ele>93.759</ele><time>2026-04-20T18:23:34.581Z</time><hdop>7.812</hdop><vdop>4.5</vdop><extensions><gom:speed>0.828</gom:speed></extensions></trkpt>
   <trkpt lat="59.0659956655" lon="30.0270394538"><ele>93.812</ele><time>2026-04-20T18:23:35.076Z</time><hdop>7.687</hdop><vdop>4.187</vdop><extensions><gom:speed>0.821</gom:speed></extensions></trkpt>
   <trkpt lat="59.0659923965" lon="30.0270483386"><ele>93.902</ele><time>2026-04-20T18:23:36.075Z</time><hdop>7.625</hdop><vdop>4.0</vdop><extensions><gom:speed>0.79</gom:speed></extensions></trkpt>
   <trkpt lat="59.0659874931" lon="30.0270580616"><ele>93.673</ele><time>2026-04-20T18:23:37.075Z</time><hdop>7.125</hdop><vdop>3.687</vdop><extensions><gom:speed>0.798</gom:speed></extensions></trkpt>
   <trkpt lat="59.0659818772" lon="30.0270669465"><ele>93.227</ele><time>2026-04-20T18:23:38.076Z</time><hdop>6.625</hdop><vdop>3.5</vdop><extensions><gom:speed>0.756</gom:speed></extensions></trkpt>
   <trkpt lat="59.0659755908" lon="30.0270740711"><ele>92.818</ele><time>2026-04-20T18:23:39.075Z</time><hdop>6.125</hdop><vdop>3.375</vdop><extensions><gom:speed>0.717</gom:speed></extensions></trkpt>
   <trkpt lat="59.0659695977" lon="30.027079184"><ele>92.574</ele><time>2026-04-20T18:23:40.000Z</time><hdop>5.75</hdop><vdop>3.375</vdop><extensions><gom:speed>0.727</gom:speed></extensions></trkpt>
   <trkpt lat="59.0659627665" lon="30.0270851352"><ele>92.552</ele><time>2026-04-20T18:23:40.780Z</time><hdop>5.437</hdop><vdop>3.437</vdop><extensions><gom:speed>0.723</gom:speed></extensions></trkpt>
   <trkpt lat="59.0659540912" lon="30.0270988815"><ele>92.659</ele><time>2026-04-20T18:23:42.075Z</time><hdop>5.187</hdop><vdop>4.937</vdop><extensions><gom:speed>0.564</gom:speed></extensions></trkpt>
   <trkpt lat="59.0659515767" lon="30.027107431"><ele>92.727</ele><time>2026-04-20T18:23:43.075Z</time><hdop>5.0</hdop><vdop>4.812</vdop><extensions><gom:speed>0.385</gom:speed></extensions></trkpt>
   <trkpt lat="59.0659513671" lon="30.0271103647"><ele>92.768</ele><time>2026-04-20T18:23:43.781Z</time><hdop>4.937</hdop><vdop>4.812</vdop><extensions><gom:speed>0.284</gom:speed></extensions></trkpt>
   <trkpt lat="59.065948182" lon="30.0271120411"><ele>92.537</ele><time>2026-04-20T18:23:44.316Z</time><hdop>4.812</hdop><vdop>4.562</vdop><extensions><gom:speed>0.295</gom:speed></extensions></trkpt>
   <trkpt lat="59.0659468828" lon="30.0271114544"><ele>92.174</ele><time>2026-04-20T18:23:44.992Z</time><hdop>4.687</hdop><vdop>4.437</vdop><extensions><gom:speed>0.184</gom:speed></extensions></trkpt>
   <trkpt lat="59.0659429852" lon="30.0271109514"><ele>91.842</ele><time>2026-04-20T18:23:46.075Z</time><hdop>4.625</hdop><vdop>4.375</vdop><extensions><gom:speed>0.224</gom:speed></extensions></trkpt>
   <trkpt lat="59.0659398839" lon="30.0271109514"><ele>91.643</ele><time>2026-04-20T18:23:47.041Z</time><hdop>4.625</hdop><vdop>4.375</vdop><extensions><gom:speed>0.258</gom:speed></extensions></trkpt>
   <trkpt lat="59.0659298675" lon="30.0271107838"><ele>90.442</ele><time>2026-04-20T18:23:47.917Z</time><hdop>4.625</hdop><vdop>4.312</vdop><extensions><gom:speed>0.513</gom:speed></extensions></trkpt>
   <trkpt lat="59.0659167918" lon="30.0271128793"><ele>89.274</ele><time>2026-04-20T18:23:48.757Z</time><hdop>4.625</hdop><vdop>4.25</vdop><extensions><gom:speed>0.736</gom:speed></extensions></trkpt>
   <trkpt lat="59.0659065658" lon="30.0271150586"><ele>88.31</ele><time>2026-04-20T18:23:49.615Z</time><hdop>4.687</hdop><vdop>4.187</vdop><extensions><gom:speed>0.823</gom:speed></extensions></trkpt>
   <trkpt lat="59.0659006985" lon="30.0271173217"><ele>87.432</ele><time>2026-04-20T18:23:50.075Z</time><hdop>4.687</hdop><vdop>3.937</vdop><extensions><gom:speed>0.817</gom:speed></extensions></trkpt>
   <trkpt lat="59.0658951664" lon="30.0271184952"><ele>86.907</ele><time>2026-04-20T18:23:50.594Z</time><hdop>4.75</hdop><vdop>3.937</vdop><extensions><gom:speed>0.84</gom:speed></extensions></trkpt>
   <trkpt lat="59.0658894668" lon="30.0271209259"><ele>86.383</ele><time>2026-04-20T18:23:51.076Z</time><hdop>4.75</hdop><vdop>3.937</vdop><extensions><gom:speed>0.847</gom:speed></extensions></trkpt>
   <trkpt lat="59.0658770615" lon="30.027129224"><ele>86.137</ele><time>2026-04-20T18:23:52.075Z</time><hdop>4.812</hdop><vdop>3.812</vdop><extensions><gom:speed>0.81</gom:speed></extensions></trkpt>
   <trkpt lat="59.0658693921" lon="30.0271392823"><ele>86.611</ele><time>2026-04-20T18:23:53.075Z</time><hdop>4.875</hdop><vdop>3.812</vdop><extensions><gom:speed>0.847</gom:speed></extensions></trkpt>
   <trkpt lat="59.0658613874" lon="30.0271498435"><ele>86.894</ele><time>2026-04-20T18:23:54.058Z</time><hdop>4.937</hdop><vdop>3.812</vdop><extensions><gom:speed>0.877</gom:speed></extensions></trkpt>
   <trkpt lat="59.0658537598" lon="30.0271591474"><ele>86.988</ele><time>2026-04-20T18:23:54.742Z</time><hdop>4.875</hdop><vdop>3.875</vdop><extensions><gom:speed>0.873</gom:speed></extensions></trkpt>
   <trkpt lat="59.0658459647" lon="30.0271715526"><ele>87.141</ele><time>2026-04-20T18:23:55.638Z</time><hdop>4.875</hdop><vdop>3.812</vdop><extensions><gom:speed>0.86</gom:speed></extensions></trkpt>
   <trkpt lat="59.0658382952" lon="30.0271841255"><ele>87.176</ele><time>2026-04-20T18:23:56.557Z</time><hdop>4.812</hdop><vdop>3.75</vdop><extensions><gom:speed>0.879</gom:speed></extensions></trkpt>
   <trkpt lat="59.0658328889" lon="30.0271897413"><ele>87.084</ele><time>2026-04-20T18:23:57.075Z</time><hdop>4.75</hdop><vdop>3.812</vdop><extensions><gom:speed>0.882</gom:speed></extensions></trkpt>
   <trkpt lat="59.0658292847" lon="30.0271929265"><ele>87.029</ele><time>2026-04-20T18:23:57.668Z</time><hdop>4.75</hdop><vdop>3.812</vdop><extensions><gom:speed>0.898</gom:speed></extensions></trkpt>
   <trkpt lat="59.0658190588" lon="30.0272010569"><ele>87.224</ele><time>2026-04-20T18:23:58.195Z</time><hdop>4.687</hdop><vdop>3.625</vdop><extensions><gom:speed>0.92</gom:speed></extensions></trkpt>
   <trkpt lat="59.0658122694" lon="30.0272052479"><ele>87.341</ele><time>2026-04-20T18:23:58.994Z</time><hdop>4.687</hdop><vdop>3.625</vdop><extensions><gom:speed>0.917</gom:speed></extensions></trkpt>
   <trkpt lat="59.065803678" lon="30.0272126239"><ele>87.269</ele><time>2026-04-20T18:23:59.799Z</time><hdop>4.562</hdop><vdop>3.375</vdop><extensions><gom:speed>0.928</gom:speed></extensions></trkpt>
   <trkpt lat="59.0657952961" lon="30.0272200838"><ele>87.181</ele><time>2026-04-20T18:24:00.539Z</time><hdop>4.562</hdop><vdop>3.312</vdop><extensions><gom:speed>0.925</gom:speed></extensions></trkpt>
   <trkpt lat="59.0657896802" lon="30.0272257835"><ele>87.386</ele><time>2026-04-20T18:24:01.076Z</time><hdop>4.562</hdop><vdop>3.187</vdop><extensions><gom:speed>0.918</gom:speed></extensions></trkpt>
   <trkpt lat="59.0657811726" lon="30.0272358418"><ele>87.253</ele><time>2026-04-20T18:24:02.076Z</time><hdop>4.625</hdop><vdop>3.25</vdop><extensions><gom:speed>0.887</gom:speed></extensions></trkpt>
   <trkpt lat="59.0657714915" lon="30.0272444752"><ele>87.247</ele><time>2026-04-20T18:24:03.075Z</time><hdop>4.625</hdop><vdop>3.437</vdop><extensions><gom:speed>0.923</gom:speed></extensions></trkpt>
   <trkpt lat="59.0657676777" lon="30.0272458163"><ele>87.243</ele><time>2026-04-20T18:24:03.829Z</time><hdop>4.687</hdop><vdop>3.437</vdop><extensions><gom:speed>0.921</gom:speed></extensions></trkpt>
   <trkpt lat="59.065754099" lon="30.0272493367"><ele>86.764</ele><time>2026-04-20T18:24:04.760Z</time><hdop>4.687</hdop><vdop>3.375</vdop><extensions><gom:speed>0.878</gom:speed></extensions></trkpt>
   <trkpt lat="59.0657464715" lon="30.0272513483"><ele>86.313</ele><time>2026-04-20T18:24:05.659Z</time><hdop>4.687</hdop><vdop>3.312</vdop><extensions><gom:speed>0.78</gom:speed></extensions></trkpt>
   <trkpt lat="59.0657386763" lon="30.0272548687"><ele>86.003</ele><time>2026-04-20T18:24:06.655Z</time><hdop>4.687</hdop><vdop>3.312</vdop><extensions><gom:speed>0.739</gom:speed></extensions></trkpt>
   <trkpt lat="59.0657326833" lon="30.0272599817"><ele>85.915</ele><time>2026-04-20T18:24:07.396Z</time><hdop>4.687</hdop><vdop>3.187</vdop><extensions><gom:speed>0.75</gom:speed></extensions></trkpt>
   <trkpt lat="59.0657277798" lon="30.0272656814"><ele>85.654</ele><time>2026-04-20T18:24:08.075Z</time><hdop>4.687</hdop><vdop>3.187</vdop><extensions><gom:speed>0.744</gom:speed></extensions></trkpt>
   <trkpt lat="59.0657226669" lon="30.0272759911"><ele>85.733</ele><time>2026-04-20T18:24:09.075Z</time><hdop>4.625</hdop><vdop>3.25</vdop><extensions><gom:speed>0.708</gom:speed></extensions></trkpt>
   <trkpt lat="59.0657168834" lon="30.0272847921"><ele>86.194</ele><time>2026-04-20T18:24:10.075Z</time><hdop>4.625</hdop><vdop>3.437</vdop><extensions><gom:speed>0.722</gom:speed></extensions></trkpt>
   <trkpt lat="59.0657102617" lon="30.0272912462"><ele>86.202</ele><time>2026-04-20T18:24:11.075Z</time><hdop>4.625</hdop><vdop>3.312</vdop><extensions><gom:speed>0.689</gom:speed></extensions></trkpt>
   <trkpt lat="59.0657034723" lon="30.0272939284"><ele>86.177</ele><time>2026-04-20T18:24:12.075Z</time><hdop>4.625</hdop><vdop>3.312</vdop><extensions><gom:speed>0.675</gom:speed></extensions></trkpt>
   <trkpt lat="59.0656972697" lon="30.0272966944"><ele>86.167</ele><time>2026-04-20T18:24:12.951Z</time><hdop>4.687</hdop><vdop>5.125</vdop><extensions><gom:speed>0.709</gom:speed></extensions></trkpt>
   <trkpt lat="59.0656908995" lon="30.0272999634"><ele>86.161</ele><time>2026-04-20T18:24:14.040Z</time><hdop>4.687</hdop><vdop>5.125</vdop><extensions><gom:speed>0.707</gom:speed></extensions></trkpt>
   <trkpt lat="59.0656867923" lon="30.0273043219"><ele>86.204</ele><time>2026-04-20T18:24:15.075Z</time><hdop>4.75</hdop><vdop>4.687</vdop><extensions><gom:speed>0.602</gom:speed></extensions></trkpt>
   <trkpt lat="59.0656831881" lon="30.0273082614"><ele>86.23</ele><time>2026-04-20T18:24:15.857Z</time><hdop>4.875</hdop><vdop>4.687</vdop><extensions><gom:speed>0.614</gom:speed></extensions></trkpt>
   <trkpt lat="59.0656770693" lon="30.027318655"><ele>86.575</ele><time>2026-04-20T18:24:16.776Z</time><hdop>4.937</hdop><vdop>4.312</vdop><extensions><gom:speed>0.729</gom:speed></extensions></trkpt>
   <trkpt lat="59.0656726688" lon="30.0273294677"><ele>87.314</ele><time>2026-04-20T18:24:17.694Z</time><hdop>5.0</hdop><vdop>4.0</vdop><extensions><gom:speed>0.761</gom:speed></extensions></trkpt>
   <trkpt lat="59.065668897" lon="30.0273430463"><ele>87.86</ele><time>2026-04-20T18:24:18.602Z</time><hdop>5.0</hdop><vdop>3.875</vdop><extensions><gom:speed>0.759</gom:speed></extensions></trkpt>
   <trkpt lat="59.0656666758" lon="30.027350171"><ele>88.262</ele><time>2026-04-20T18:24:19.076Z</time><hdop>5.0</hdop><vdop>3.875</vdop><extensions><gom:speed>0.766</gom:speed></extensions></trkpt>
   <trkpt lat="59.0656601798" lon="30.0273573794"><ele>88.379</ele><time>2026-04-20T18:24:20.075Z</time><hdop>4.937</hdop><vdop>3.625</vdop><extensions><gom:speed>0.783</gom:speed></extensions></trkpt>
   <trkpt lat="59.0656536838" lon="30.0273582176"><ele>88.105</ele><time>2026-04-20T18:24:21.075Z</time><hdop>4.875</hdop><vdop>3.625</vdop><extensions><gom:speed>0.748</gom:speed></extensions></trkpt>
   <trkpt lat="59.0656471878" lon="30.0273602292"><ele>87.969</ele><time>2026-04-20T18:24:22.075Z</time><hdop>4.812</hdop><vdop>3.812</vdop><extensions><gom:speed>0.697</gom:speed></extensions></trkpt>
   <trkpt lat="59.0656419911" lon="30.0273610674"><ele>87.889</ele><time>2026-04-20T18:24:23.015Z</time><hdop>4.75</hdop><vdop>3.812</vdop><extensions><gom:speed>0.611</gom:speed></extensions></trkpt>
   <trkpt lat="59.065637381" lon="30.0273586367"><ele>87.628</ele><time>2026-04-20T18:24:23.932Z</time><hdop>4.75</hdop><vdop>3.812</vdop><extensions><gom:speed>0.624</gom:speed></extensions></trkpt>
   <trkpt lat="59.0656325614" lon="30.0273517635"><ele>87.148</ele><time>2026-04-20T18:24:24.899Z</time><hdop>4.75</hdop><vdop>3.75</vdop><extensions><gom:speed>0.643</gom:speed></extensions></trkpt>
   <trkpt lat="59.0656275742" lon="30.0273446389"><ele>86.562</ele><time>2026-04-20T18:24:25.741Z</time><hdop>4.75</hdop><vdop>3.937</vdop><extensions><gom:speed>0.702</gom:speed></extensions></trkpt>
   <trkpt lat="59.0656219583" lon="30.0273387716"><ele>85.881</ele><time>2026-04-20T18:24:26.558Z</time><hdop>4.75</hdop><vdop>4.0</vdop><extensions><gom:speed>0.721</gom:speed></extensions></trkpt>
   <trkpt lat="59.0656181865" lon="30.0273369276"><ele>85.333</ele><time>2026-04-20T18:24:27.075Z</time><hdop>4.75</hdop><vdop>3.812</vdop><extensions><gom:speed>0.716</gom:speed></extensions></trkpt>
   <trkpt lat="59.0656106847" lon="30.0273366761"><ele>84.958</ele><time>2026-04-20T18:24:28.076Z</time><hdop>4.75</hdop><vdop>3.812</vdop><extensions><gom:speed>0.68</gom:speed></extensions></trkpt>
   <trkpt lat="59.0656091759" lon="30.027337179"><ele>84.733</ele><time>2026-04-20T18:24:28.590Z</time><hdop>4.812</hdop><vdop>3.812</vdop><extensions><gom:speed>0.665</gom:speed></extensions></trkpt>
   <trkpt lat="59.0656033924" lon="30.0273374305"><ele>84.385</ele><time>2026-04-20T18:24:29.075Z</time><hdop>4.812</hdop><vdop>3.875</vdop><extensions><gom:speed>0.644</gom:speed></extensions></trkpt>
   <trkpt lat="59.0655987824" lon="30.0273370952"><ele>84.176</ele><time>2026-04-20T18:24:30.033Z</time><hdop>4.812</hdop><vdop>3.875</vdop><extensions><gom:speed>0.656</gom:speed></extensions></trkpt>
   <trkpt lat="59.0655927893" lon="30.0273384363"><ele>83.978</ele><time>2026-04-20T18:24:30.982Z</time><hdop>4.812</hdop><vdop>3.75</vdop><extensions><gom:speed>0.679</gom:speed></extensions></trkpt>
   <trkpt lat="59.0655874668" lon="30.0273385201"><ele>84.203</ele><time>2026-04-20T18:24:31.822Z</time><hdop>4.812</hdop><vdop>3.875</vdop><extensions><gom:speed>0.662</gom:speed></extensions></trkpt>
   <trkpt lat="59.0655830663" lon="30.0273358379"><ele>84.369</ele><time>2026-04-20T18:24:32.818Z</time><hdop>4.812</hdop><vdop>5.375</vdop><extensions><gom:speed>0.589</gom:speed></extensions></trkpt>
   <trkpt lat="59.0655778695" lon="30.0273346644"><ele>84.479</ele><time>2026-04-20T18:24:34.054Z</time><hdop>4.875</hdop><vdop>5.375</vdop><extensions><gom:speed>0.503</gom:speed></extensions></trkpt>
   <trkpt lat="59.0655772828" lon="30.0273351674"><ele>84.581</ele><time>2026-04-20T18:24:34.751Z</time><hdop>4.937</hdop><vdop>5.375</vdop><extensions><gom:speed>0.47</gom:speed></extensions></trkpt>
   <trkpt lat="59.0655749777" lon="30.0273344968"><ele>84.411</ele><time>2026-04-20T18:24:35.217Z</time><hdop>5.0</hdop><vdop>4.875</vdop><extensions><gom:speed>0.452</gom:speed></extensions></trkpt>
   <trkpt lat="59.0655725889" lon="30.027333491"><ele>84.659</ele><time>2026-04-20T18:24:36.075Z</time><hdop>5.0</hdop><vdop>4.812</vdop><extensions><gom:speed>0.416</gom:speed></extensions></trkpt>
   <trkpt lat="59.0655682722" lon="30.0273317308"><ele>85.259</ele><time>2026-04-20T18:24:37.075Z</time><hdop>5.0</hdop><vdop>4.687</vdop><extensions><gom:speed>0.447</gom:speed></extensions></trkpt>
   <trkpt lat="59.0655638717" lon="30.0273327366"><ele>85.667</ele><time>2026-04-20T18:24:38.076Z</time><hdop>5.0</hdop><vdop>4.375</vdop><extensions><gom:speed>0.435</gom:speed></extensions></trkpt>
   <trkpt lat="59.0655597646" lon="30.0273359217"><ele>86.315</ele><time>2026-04-20T18:24:39.076Z</time><hdop>4.812</hdop><vdop>4.125</vdop><extensions><gom:speed>0.41</gom:speed></extensions></trkpt>
   <trkpt lat="59.0655550707" lon="30.0273394421"><ele>86.606</ele><time>2026-04-20T18:24:40.075Z</time><hdop>4.812</hdop><vdop>4.0</vdop><extensions><gom:speed>0.419</gom:speed></extensions></trkpt>
   <trkpt lat="59.0655496644" lon="30.0273398612"><ele>86.779</ele><time>2026-04-20T18:24:41.032Z</time><hdop>4.687</hdop><vdop>4.0</vdop><extensions><gom:speed>0.475</gom:speed></extensions></trkpt>
   <trkpt lat="59.0655450963" lon="30.0273402803"><ele>86.837</ele><time>2026-04-20T18:24:41.657Z</time><hdop>4.625</hdop><vdop>4.0</vdop><extensions><gom:speed>0.464</gom:speed></extensions></trkpt>
   <trkpt lat="59.0655404862" lon="30.0273483269"><ele>87.031</ele><time>2026-04-20T18:24:43.076Z</time><hdop>4.562</hdop><vdop>5.25</vdop><extensions><gom:speed>0.354</gom:speed></extensions></trkpt>
   <trkpt lat="59.0655390613" lon="30.0273514282"><ele>87.096</ele><time>2026-04-20T18:24:44.075Z</time><hdop>4.562</hdop><vdop>5.25</vdop><extensions><gom:speed>0.257</gom:speed></extensions></trkpt>
   <trkpt lat="59.0655378878" lon="30.0273527693"><ele>87.116</ele><time>2026-04-20T18:24:44.939Z</time><hdop>4.562</hdop><vdop>5.25</vdop><extensions><gom:speed>0.206</gom:speed></extensions></trkpt>
   <trkpt lat="59.0655363791" lon="30.0273517635"><ele>87.127</ele><time>2026-04-20T18:24:45.860Z</time><hdop>4.625</hdop><vdop>5.25</vdop><extensions><gom:speed>0.181</gom:speed></extensions></trkpt>
   <trkpt lat="59.0655328587" lon="30.0273503386"><ele>87.244</ele><time>2026-04-20T18:24:46.916Z</time><hdop>4.625</hdop><vdop>5.437</vdop><extensions><gom:speed>0.159</gom:speed></extensions></trkpt>
   <trkpt lat="59.0655310985" lon="30.0273515959"><ele>87.345</ele><time>2026-04-20T18:24:47.736Z</time><hdop>4.687</hdop><vdop>5.312</vdop><extensions><gom:speed>0.198</gom:speed></extensions></trkpt>
   <trkpt lat="59.0655281648" lon="30.0273535237"><ele>87.408</ele><time>2026-04-20T18:24:48.615Z</time><hdop>4.75</hdop><vdop>5.125</vdop><extensions><gom:speed>0.307</gom:speed></extensions></trkpt>
   <trkpt lat="59.06552389" lon="30.0273548648"><ele>87.355</ele><time>2026-04-20T18:24:49.477Z</time><hdop>4.937</hdop><vdop>5.0</vdop><extensions><gom:speed>0.447</gom:speed></extensions></trkpt>
   <trkpt lat="59.0655186933" lon="30.0273545295"><ele>87.127</ele><time>2026-04-20T18:24:50.076Z</time><hdop>4.937</hdop><vdop>4.625</vdop><extensions><gom:speed>0.479</gom:speed></extensions></trkpt>
   <trkpt lat="59.0655086769" lon="30.0273541943"><ele>86.965</ele><time>2026-04-20T18:24:51.075Z</time><hdop>5.125</hdop><vdop>4.437</vdop><extensions><gom:speed>0.611</gom:speed></extensions></trkpt>
   <trkpt lat="59.0654976966" lon="30.0273536914"><ele>86.716</ele><time>2026-04-20T18:24:52.075Z</time><hdop>5.25</hdop><vdop>4.437</vdop><extensions><gom:speed>0.714</gom:speed></extensions></trkpt>
   <trkpt lat="59.0654881831" lon="30.0273530208"><ele>86.566</ele><time>2026-04-20T18:24:53.058Z</time><hdop>5.375</hdop><vdop>4.437</vdop><extensions><gom:speed>0.803</gom:speed></extensions></trkpt>
   <trkpt lat="59.0654757779" lon="30.0273531884"><ele>86.77</ele><time>2026-04-20T18:24:53.917Z</time><hdop>5.437</hdop><vdop>4.375</vdop><extensions><gom:speed>0.829</gom:speed></extensions></trkpt>
   <trkpt lat="59.0654683599" lon="30.0273551163"><ele>87.007</ele><time>2026-04-20T18:24:54.796Z</time><hdop>5.375</hdop><vdop>4.125</vdop><extensions><gom:speed>0.822</gom:speed></extensions></trkpt>
   <trkpt lat="59.0654609839" lon="30.0273577985"><ele>87.467</ele><time>2026-04-20T18:24:55.438Z</time><hdop>5.312</hdop><vdop>4.062</vdop><extensions><gom:speed>0.881</gom:speed></extensions></trkpt>
   <trkpt lat="59.0654543622" lon="30.0273623247"><ele>87.865</ele><time>2026-04-20T18:24:56.075Z</time><hdop>5.25</hdop><vdop>3.75</vdop><extensions><gom:speed>0.882</gom:speed></extensions></trkpt>
   <trkpt lat="59.0654453935" lon="30.0273715448"><ele>88.203</ele><time>2026-04-20T18:24:57.075Z</time><hdop>5.125</hdop><vdop>3.562</vdop><extensions><gom:speed>0.876</gom:speed></extensions></trkpt>
   <trkpt lat="59.0654374726" lon="30.0273815193"><ele>88.48</ele><time>2026-04-20T18:24:58.075Z</time><hdop>4.937</hdop><vdop>3.375</vdop><extensions><gom:speed>0.818</gom:speed></extensions></trkpt>
   <trkpt lat="59.0654304737" lon="30.0273914937"><ele>88.765</ele><time>2026-04-20T18:24:59.075Z</time><hdop>4.812</hdop><vdop>3.25</vdop><extensions><gom:speed>0.794</gom:speed></extensions></trkpt>
   <trkpt lat="59.0654217985" lon="30.0273964391"><ele>88.935</ele><time>2026-04-20T18:24:59.860Z</time><hdop>4.75</hdop><vdop>3.25</vdop><extensions><gom:speed>0.854</gom:speed></extensions></trkpt>
   <trkpt lat="59.0654143805" lon="30.0274018873"><ele>88.956</ele><time>2026-04-20T18:25:00.817Z</time><hdop>4.75</hdop><vdop>3.187</vdop><extensions><gom:speed>0.852</gom:speed></extensions></trkpt>
   <trkpt lat="59.0654091837" lon="30.027407587"><ele>89.006</ele><time>2026-04-20T18:25:01.459Z</time><hdop>4.75</hdop><vdop>3.125</vdop><extensions><gom:speed>0.848</gom:speed></extensions></trkpt>
   <trkpt lat="59.0654040707" lon="30.0274127838"><ele>89.341</ele><time>2026-04-20T18:25:02.075Z</time><hdop>4.75</hdop><vdop>3.0</vdop><extensions><gom:speed>0.854</gom:speed></extensions></trkpt>
   <trkpt lat="59.0653953955" lon="30.0274180644"><ele>89.543</ele><time>2026-04-20T18:25:03.075Z</time><hdop>4.75</hdop><vdop>2.875</vdop><extensions><gom:speed>0.824</gom:speed></extensions></trkpt>
   <trkpt lat="59.0653867621" lon="30.0274239317"><ele>89.317</ele><time>2026-04-20T18:25:04.075Z</time><hdop>4.812</hdop><vdop>2.687</vdop><extensions><gom:speed>0.851</gom:speed></extensions></trkpt>
   <trkpt lat="59.0653777935" lon="30.0274298829"><ele>89.31</ele><time>2026-04-20T18:25:05.075Z</time><hdop>4.812</hdop><vdop>2.562</vdop><extensions><gom:speed>0.793</gom:speed></extensions></trkpt>
   <trkpt lat="59.0653750694" lon="30.0274311401"><ele>89.306</ele><time>2026-04-20T18:25:05.672Z</time><hdop>4.875</hdop><vdop>2.562</vdop><extensions><gom:speed>0.785</gom:speed></extensions></trkpt>
   <trkpt lat="59.0653619936" lon="30.0274337385"><ele>89.323</ele><time>2026-04-20T18:25:06.899Z</time><hdop>4.937</hdop><vdop>2.562</vdop><extensions><gom:speed>0.761</gom:speed></extensions></trkpt>
   <trkpt lat="59.0653554976" lon="30.0274365884"><ele>89.742</ele><time>2026-04-20T18:25:07.819Z</time><hdop>4.937</hdop><vdop>2.625</vdop><extensions><gom:speed>0.73</gom:speed></extensions></trkpt>
   <trkpt lat="59.0653484987" lon="30.027441869"><ele>90.173</ele><time>2026-04-20T18:25:08.932Z</time><hdop>4.937</hdop><vdop>2.5</vdop><extensions><gom:speed>0.695</gom:speed></extensions></trkpt>
   <trkpt lat="59.065342799" lon="30.0274484907"><ele>90.41</ele><time>2026-04-20T18:25:09.900Z</time><hdop>4.937</hdop><vdop>2.5</vdop><extensions><gom:speed>0.682</gom:speed></extensions></trkpt>
   <trkpt lat="59.0653371832" lon="30.0274550286"><ele>90.619</ele><time>2026-04-20T18:25:10.740Z</time><hdop>5.0</hdop><vdop>2.5</vdop><extensions><gom:speed>0.753</gom:speed></extensions></trkpt>
   <trkpt lat="59.0653308967" lon="30.0274632428"><ele>90.735</ele><time>2026-04-20T18:25:11.657Z</time><hdop>5.0</hdop><vdop>2.5</vdop><extensions><gom:speed>0.736</gom:speed></extensions></trkpt>
   <trkpt lat="59.0653248618" lon="30.0274713733"><ele>90.684</ele><time>2026-04-20T18:25:12.406Z</time><hdop>5.062</hdop><vdop>2.562</vdop><extensions><gom:speed>0.775</gom:speed></extensions></trkpt>
   <trkpt lat="59.0653211737" lon="30.027477073"><ele>90.665</ele><time>2026-04-20T18:25:13.075Z</time><hdop>5.125</hdop><vdop>2.75</vdop><extensions><gom:speed>0.776</gom:speed></extensions></trkpt>
   <trkpt lat="59.0653176952" lon="30.0274830241"><ele>90.653</ele><time>2026-04-20T18:25:13.681Z</time><hdop>5.187</hdop><vdop>2.75</vdop><extensions><gom:speed>0.789</gom:speed></extensions></trkpt>
   <trkpt lat="59.0653146777" lon="30.0274958484"><ele>90.23</ele><time>2026-04-20T18:25:14.502Z</time><hdop>5.187</hdop><vdop>2.687</vdop><extensions><gom:speed>0.805</gom:speed></extensions></trkpt>
   <trkpt lat="59.065313169" lon="30.02750532"><ele>90.214</ele><time>2026-04-20T18:25:15.075Z</time><hdop>5.187</hdop><vdop>2.5</vdop><extensions><gom:speed>0.8</gom:speed></extensions></trkpt>
   <trkpt lat="59.065308978" lon="30.0275164679"><ele>90.215</ele><time>2026-04-20T18:25:16.075Z</time><hdop>5.187</hdop><vdop>2.5</vdop><extensions><gom:speed>0.772</gom:speed></extensions></trkpt>
   <trkpt lat="59.0653025659" lon="30.0275186472"><ele>90.216</ele><time>2026-04-20T18:25:17.058Z</time><hdop>5.125</hdop><vdop>2.5</vdop><extensions><gom:speed>0.721</gom:speed></extensions></trkpt>
   <trkpt lat="59.0652984588" lon="30.027518731"><ele>90.667</ele><time>2026-04-20T18:25:18.075Z</time><hdop>5.062</hdop><vdop>2.875</vdop><extensions><gom:speed>0.64</gom:speed></extensions></trkpt>
   <trkpt lat="59.0652949803" lon="30.0275167194"><ele>90.937</ele><time>2026-04-20T18:25:18.993Z</time><hdop>5.062</hdop><vdop>2.875</vdop><extensions><gom:speed>0.534</gom:speed></extensions></trkpt>
   <trkpt lat="59.0652927591" lon="30.0275164679"><ele>91.343</ele><time>2026-04-20T18:25:19.903Z</time><hdop>5.062</hdop><vdop>3.0</vdop><extensions><gom:speed>0.5</gom:speed></extensions></trkpt>
   <trkpt lat="59.0652888615" lon="30.0275155459"><ele>92.023</ele><time>2026-04-20T18:25:20.800Z</time><hdop>5.0</hdop><vdop>3.125</vdop><extensions><gom:speed>0.55</gom:speed></extensions></trkpt>
   <trkpt lat="59.0652843772" lon="30.027513199"><ele>92.589</ele><time>2026-04-20T18:25:21.876Z</time><hdop>4.937</hdop><vdop>3.062</vdop><extensions><gom:speed>0.535</gom:speed></extensions></trkpt>
   <trkpt lat="59.0652803958" lon="30.02750993"><ele>92.727</ele><time>2026-04-20T18:25:23.075Z</time><hdop>4.875</hdop><vdop>2.875</vdop><extensions><gom:speed>0.475</gom:speed></extensions></trkpt>
   <trkpt lat="59.0652764982" lon="30.0275094271"><ele>92.81</ele><time>2026-04-20T18:25:24.018Z</time><hdop>4.875</hdop><vdop>2.875</vdop><extensions><gom:speed>0.463</gom:speed></extensions></trkpt>
   <trkpt lat="59.0652719719" lon="30.0275086727"><ele>93.152</ele><time>2026-04-20T18:25:24.917Z</time><hdop>4.875</hdop><vdop>3.0</vdop><extensions><gom:speed>0.52</gom:speed></extensions></trkpt>
   <trkpt lat="59.0652676972" lon="30.0275070802"><ele>93.308</ele><time>2026-04-20T18:25:25.737Z</time><hdop>4.937</hdop><vdop>3.125</vdop><extensions><gom:speed>0.59</gom:speed></extensions></trkpt>
   <trkpt lat="59.0652632967" lon="30.0275076669"><ele>93.733</ele><time>2026-04-20T18:25:26.812Z</time><hdop>4.937</hdop><vdop>3.187</vdop><extensions><gom:speed>0.575</gom:speed></extensions></trkpt>
   <trkpt lat="59.0652594829" lon="30.027512277"><ele>93.925</ele><time>2026-04-20T18:25:27.898Z</time><hdop>5.0</hdop><vdop>3.062</vdop><extensions><gom:speed>0.573</gom:speed></extensions></trkpt>
   <trkpt lat="59.0652559625" lon="30.0275173899"><ele>94.151</ele><time>2026-04-20T18:25:28.875Z</time><hdop>5.0</hdop><vdop>3.062</vdop><extensions><gom:speed>0.576</gom:speed></extensions></trkpt>
   <trkpt lat="59.0652534898" lon="30.0275205751"><ele>94.027</ele><time>2026-04-20T18:25:29.835Z</time><hdop>5.0</hdop><vdop>3.125</vdop><extensions><gom:speed>0.544</gom:speed></extensions></trkpt>
   <trkpt lat="59.0652520649" lon="30.0275212456"><ele>93.963</ele><time>2026-04-20T18:25:30.433Z</time><hdop>5.0</hdop><vdop>3.312</vdop><extensions><gom:speed>0.553</gom:speed></extensions></trkpt>
   <trkpt lat="59.0652474968" lon="30.0275254366"><ele>94.016</ele><time>2026-04-20T18:25:31.075Z</time><hdop>5.0</hdop><vdop>3.187</vdop><extensions><gom:speed>0.563</gom:speed></extensions></trkpt>
   <trkpt lat="59.065243683" lon="30.0275269453"><ele>94.047</ele><time>2026-04-20T18:25:31.876Z</time><hdop>5.0</hdop><vdop>3.187</vdop><extensions><gom:speed>0.575</gom:speed></extensions></trkpt>
   <trkpt lat="59.0652391987" lon="30.0275302981"><ele>94.398</ele><time>2026-04-20T18:25:32.854Z</time><hdop>5.0</hdop><vdop>3.062</vdop><extensions><gom:speed>0.575</gom:speed></extensions></trkpt>
   <trkpt lat="59.0652345887" lon="30.0275318906"><ele>94.566</ele><time>2026-04-20T18:25:33.694Z</time><hdop>4.937</hdop><vdop>3.125</vdop><extensions><gom:speed>0.589</gom:speed></extensions></trkpt>
   <trkpt lat="59.0652298948" lon="30.0275306333"><ele>95.181</ele><time>2026-04-20T18:25:34.554Z</time><hdop>4.937</hdop><vdop>3.187</vdop><extensions><gom:speed>0.587</gom:speed></extensions></trkpt>
   <trkpt lat="59.0652272964" lon="30.0275280349"><ele>95.904</ele><time>2026-04-20T18:25:35.075Z</time><hdop>4.875</hdop><vdop>3.25</vdop><extensions><gom:speed>0.6</gom:speed></extensions></trkpt>
   <trkpt lat="59.0652231893" lon="30.0275194854"><ele>95.935</ele><time>2026-04-20T18:25:36.075Z</time><hdop>4.812</hdop><vdop>3.187</vdop><extensions><gom:speed>0.587</gom:speed></extensions></trkpt>
   <trkpt lat="59.0652217643" lon="30.0275157974"><ele>95.954</ele><time>2026-04-20T18:25:36.594Z</time><hdop>4.812</hdop><vdop>3.187</vdop><extensions><gom:speed>0.615</gom:speed></extensions></trkpt>
   <trkpt lat="59.0652180763" lon="30.02750532"><ele>96.225</ele><time>2026-04-20T18:25:37.076Z</time><hdop>4.75</hdop><vdop>3.125</vdop><extensions><gom:speed>0.659</gom:speed></extensions></trkpt>
   <trkpt lat="59.0652133824" lon="30.027497441"><ele>96.388</ele><time>2026-04-20T18:25:38.037Z</time><hdop>4.687</hdop><vdop>3.125</vdop><extensions><gom:speed>0.695</gom:speed></extensions></trkpt>
   <trkpt lat="59.0652080599" lon="30.0274902326"><ele>96.211</ele><time>2026-04-20T18:25:38.838Z</time><hdop>4.625</hdop><vdop>3.062</vdop><extensions><gom:speed>0.728</gom:speed></extensions></trkpt>
   <trkpt lat="59.0652012706" lon="30.0274823536"><ele>95.812</ele><time>2026-04-20T18:25:39.874Z</time><hdop>4.625</hdop><vdop>3.187</vdop><extensions><gom:speed>0.705</gom:speed></extensions></trkpt>
   <trkpt lat="59.0651966605" lon="30.0274780788"><ele>95.325</ele><time>2026-04-20T18:25:40.753Z</time><hdop>4.625</hdop><vdop>3.187</vdop><extensions><gom:speed>0.666</gom:speed></extensions></trkpt>
   <trkpt lat="59.0651901646" lon="30.0274759833"><ele>94.841</ele><time>2026-04-20T18:25:41.740Z</time><hdop>4.687</hdop><vdop>3.25</vdop><extensions><gom:speed>0.659</gom:speed></extensions></trkpt>
   <trkpt lat="59.0651857641" lon="30.0274733849"><ele>94.29</ele><time>2026-04-20T18:25:42.579Z</time><hdop>4.75</hdop><vdop>3.187</vdop><extensions><gom:speed>0.673</gom:speed></extensions></trkpt>
   <trkpt lat="59.065182076" lon="30.0274708704"><ele>93.825</ele><time>2026-04-20T18:25:43.075Z</time><hdop>4.75</hdop><vdop>3.125</vdop><extensions><gom:speed>0.665</gom:speed></extensions></trkpt>
   <trkpt lat="59.065180693" lon="30.0274699484"><ele>93.548</ele><time>2026-04-20T18:25:43.576Z</time><hdop>4.812</hdop><vdop>3.125</vdop><extensions><gom:speed>0.645</gom:speed></extensions></trkpt>
   <trkpt lat="59.0651745742" lon="30.0274658412"><ele>92.481</ele><time>2026-04-20T18:25:44.898Z</time><hdop>4.875</hdop><vdop>3.312</vdop><extensions><gom:speed>0.566</gom:speed></extensions></trkpt>
   <trkpt lat="59.0651723949" lon="30.0274639972"><ele>91.77</ele><time>2026-04-20T18:25:45.679Z</time><hdop>4.875</hdop><vdop>3.437</vdop><extensions><gom:speed>0.606</gom:speed></extensions></trkpt>
   <trkpt lat="59.0651673658" lon="30.0274582975"><ele>91.326</ele><time>2026-04-20T18:25:46.815Z</time><hdop>4.937</hdop><vdop>3.562</vdop><extensions><gom:speed>0.565</gom:speed></extensions></trkpt>
   <trkpt lat="59.0651667791" lon="30.0274553638"><ele>90.928</ele><time>2026-04-20T18:25:47.962Z</time><hdop>4.937</hdop><vdop>3.687</vdop><extensions><gom:speed>0.472</gom:speed></extensions></trkpt>
   <trkpt lat="59.0651683716" lon="30.0274584651"><ele>90.894</ele><time>2026-04-20T18:25:48.914Z</time><hdop>4.937</hdop><vdop>3.75</vdop><extensions><gom:speed>0.452</gom:speed></extensions></trkpt>
   <trkpt lat="59.0651710957" lon="30.0274644163"><ele>91.974</ele><time>2026-04-20T18:25:50.075Z</time><hdop>4.875</hdop><vdop>3.375</vdop><extensions><gom:speed>0.379</gom:speed></extensions></trkpt>
   <trkpt lat="59.0651728978" lon="30.0274654221"><ele>92.745</ele><time>2026-04-20T18:25:51.075Z</time><hdop>4.875</hdop><vdop>3.375</vdop><extensions><gom:speed>0.349</gom:speed></extensions></trkpt>
   <trkpt lat="59.065175161" lon="30.0274624885"><ele>93.352</ele><time>2026-04-20T18:25:52.075Z</time><hdop>4.75</hdop><vdop>3.437</vdop><extensions><gom:speed>0.356</gom:speed></extensions></trkpt>
   <trkpt lat="59.0651766697" lon="30.027457627"><ele>93.735</ele><time>2026-04-20T18:25:53.075Z</time><hdop>4.687</hdop><vdop>3.375</vdop><extensions><gom:speed>0.381</gom:speed></extensions></trkpt>
   <trkpt lat="59.0651758734" lon="30.0274529331"><ele>94.107</ele><time>2026-04-20T18:25:54.075Z</time><hdop>4.687</hdop><vdop>3.437</vdop><extensions><gom:speed>0.429</gom:speed></extensions></trkpt>
   <trkpt lat="59.0651723949" lon="30.0274495803"><ele>94.329</ele><time>2026-04-20T18:25:54.801Z</time><hdop>4.687</hdop><vdop>3.437</vdop><extensions><gom:speed>0.511</gom:speed></extensions></trkpt>
   <trkpt lat="59.0651685812" lon="30.0274424557"><ele>94.362</ele><time>2026-04-20T18:25:55.492Z</time><hdop>4.687</hdop><vdop>3.375</vdop><extensions><gom:speed>0.604</gom:speed></extensions></trkpt>
   <trkpt lat="59.0651669886" lon="30.0274389353"><ele>94.674</ele><time>2026-04-20T18:25:56.075Z</time><hdop>4.687</hdop><vdop>3.312</vdop><extensions><gom:speed>0.613</gom:speed></extensions></trkpt>
   <trkpt lat="59.0651627977" lon="30.0274313916"><ele>94.336</ele><time>2026-04-20T18:25:57.075Z</time><hdop>4.687</hdop><vdop>3.312</vdop><extensions><gom:speed>0.65</gom:speed></extensions></trkpt>
   <trkpt lat="59.0651581876" lon="30.0274205789"><ele>93.664</ele><time>2026-04-20T18:25:58.075Z</time><hdop>4.75</hdop><vdop>3.562</vdop><extensions><gom:speed>0.736</gom:speed></extensions></trkpt>
   <trkpt lat="59.0651528651" lon="30.027409431"><ele>93.262</ele><time>2026-04-20T18:25:59.037Z</time><hdop>4.812</hdop><vdop>3.562</vdop><extensions><gom:speed>0.771</gom:speed></extensions></trkpt>
   <trkpt lat="59.065148297" lon="30.0273986184"><ele>93.182</ele><time>2026-04-20T18:25:59.956Z</time><hdop>4.875</hdop><vdop>3.875</vdop><extensions><gom:speed>0.773</gom:speed></extensions></trkpt>
   <trkpt lat="59.0651438965" lon="30.0273916614"><ele>92.631</ele><time>2026-04-20T18:26:00.914Z</time><hdop>5.0</hdop><vdop>4.125</vdop><extensions><gom:speed>0.743</gom:speed></extensions></trkpt>
   <trkpt lat="59.0651373586" lon="30.0273859617"><ele>92.946</ele><time>2026-04-20T18:26:01.802Z</time><hdop>5.062</hdop><vdop>4.125</vdop><extensions><gom:speed>0.735</gom:speed></extensions></trkpt>
   <trkpt lat="59.0651340896" lon="30.0273832795"><ele>92.581</ele><time>2026-04-20T18:26:02.660Z</time><hdop>5.125</hdop><vdop>3.937</vdop><extensions><gom:speed>0.728</gom:speed></extensions></trkpt>
   <trkpt lat="59.065129773" lon="30.0273819384"><ele>91.83</ele><time>2026-04-20T18:26:03.381Z</time><hdop>5.125</hdop><vdop>3.812</vdop><extensions><gom:speed>0.726</gom:speed></extensions></trkpt>
   <trkpt lat="59.0651260849" lon="30.0273810164"><ele>91.014</ele><time>2026-04-20T18:26:04.075Z</time><hdop>5.062</hdop><vdop>3.437</vdop><extensions><gom:speed>0.699</gom:speed></extensions></trkpt>
   <trkpt lat="59.0651208881" lon="30.027377496"><ele>90.77</ele><time>2026-04-20T18:26:05.027Z</time><hdop>5.062</hdop><vdop>3.375</vdop><extensions><gom:speed>0.638</gom:speed></extensions></trkpt>
   <trkpt lat="59.065116781" lon="30.0273771607"><ele>90.587</ele><time>2026-04-20T18:26:05.975Z</time><hdop>5.062</hdop><vdop>3.312</vdop><extensions><gom:speed>0.545</gom:speed></extensions></trkpt>
   <trkpt lat="59.0651152723" lon="30.0273832795"><ele>90.434</ele><time>2026-04-20T18:26:07.041Z</time><hdop>5.062</hdop><vdop>6.687</vdop><extensions><gom:speed>0.426</gom:speed></extensions></trkpt>
   <trkpt lat="59.0651163619" lon="30.027383028"><ele>90.342</ele><time>2026-04-20T18:26:07.516Z</time><hdop>5.062</hdop><vdop>6.687</vdop><extensions><gom:speed>0.315</gom:speed></extensions></trkpt>
   <trkpt lat="59.0651160685" lon="30.0273859617"><ele>90.298</ele><time>2026-04-20T18:26:08.075Z</time><hdop>5.125</hdop><vdop>6.75</vdop><extensions><gom:speed>0.276</gom:speed></extensions></trkpt>
   <trkpt lat="59.0651163619" lon="30.0273879733"><ele>90.214</ele><time>2026-04-20T18:26:08.936Z</time><hdop>5.125</hdop><vdop>6.687</vdop><extensions><gom:speed>0.247</gom:speed></extensions></trkpt>
   <trkpt lat="59.0651157752" lon="30.0273891468"><ele>90.163</ele><time>2026-04-20T18:26:09.452Z</time><hdop>5.187</hdop><vdop>6.687</vdop><extensions><gom:speed>0.23</gom:speed></extensions></trkpt>
   <trkpt lat="59.0651150627" lon="30.0273921643"><ele>90.569</ele><time>2026-04-20T18:26:10.075Z</time><hdop>5.25</hdop><vdop>6.5</vdop><extensions><gom:speed>0.248</gom:speed></extensions></trkpt>
   <trkpt lat="59.0651131768" lon="30.0273962714"><ele>90.956</ele><time>2026-04-20T18:26:11.075Z</time><hdop>5.25</hdop><vdop>6.437</vdop><extensions><gom:speed>0.288</gom:speed></extensions></trkpt>
   <trkpt lat="59.065109363" lon="30.0273998756"><ele>91.219</ele><time>2026-04-20T18:26:12.017Z</time><hdop>5.187</hdop><vdop>6.375</vdop><extensions><gom:speed>0.375</gom:speed></extensions></trkpt>
   <trkpt lat="59.065104292" lon="30.0274043181"><ele>91.356</ele><time>2026-04-20T18:26:13.075Z</time><hdop>5.25</hdop><vdop>6.312</vdop><extensions><gom:speed>0.475</gom:speed></extensions></trkpt>
   <trkpt lat="59.0651021965" lon="30.0274061621"><ele>91.437</ele><time>2026-04-20T18:26:13.675Z</time><hdop>5.312</hdop><vdop>6.312</vdop><extensions><gom:speed>0.523</gom:speed></extensions></trkpt>
   <trkpt lat="59.0650906714" lon="30.0274171424"><ele>91.697</ele><time>2026-04-20T18:26:14.913Z</time><hdop>5.437</hdop><vdop>6.25</vdop><extensions><gom:speed>0.687</gom:speed></extensions></trkpt>
   <trkpt lat="59.0650854746" lon="30.0274184835"><ele>91.974</ele><time>2026-04-20T18:26:15.724Z</time><hdop>5.562</hdop><vdop>6.125</vdop><extensions><gom:speed>0.759</gom:speed></extensions></trkpt>
   <trkpt lat="59.0650781823" lon="30.0274219201"><ele>92.249</ele><time>2026-04-20T18:26:16.659Z</time><hdop>5.75</hdop><vdop>6.125</vdop><extensions><gom:speed>0.802</gom:speed></extensions></trkpt>
   <trkpt lat="59.0650734885" lon="30.0274249375"><ele>92.693</ele><time>2026-04-20T18:26:17.519Z</time><hdop>5.875</hdop><vdop>6.0</vdop><extensions><gom:speed>0.782</gom:speed></extensions></trkpt>
   <trkpt lat="59.0650718959" lon="30.0274272845"><ele>93.148</ele><time>2026-04-20T18:26:18.075Z</time><hdop>5.875</hdop><vdop>5.75</vdop><extensions><gom:speed>0.75</gom:speed></extensions></trkpt>
   <trkpt lat="59.0650694652" lon="30.0274364207"><ele>93.539</ele><time>2026-04-20T18:26:19.007Z</time><hdop>5.937</hdop><vdop>5.625</vdop><extensions><gom:speed>0.728</gom:speed></extensions></trkpt>
   <trkpt lat="59.0650683755" lon="30.0274406955"><ele>93.772</ele><time>2026-04-20T18:26:19.836Z</time><hdop>5.937</hdop><vdop>5.625</vdop><extensions><gom:speed>0.712</gom:speed></extensions></trkpt>
   <trkpt lat="59.0650634721" lon="30.0274463952"><ele>94.018</ele><time>2026-04-20T18:26:21.013Z</time><hdop>5.937</hdop><vdop>5.437</vdop><extensions><gom:speed>0.706</gom:speed></extensions></trkpt>
   <trkpt lat="59.0650576886" lon="30.0274532684"><ele>94.261</ele><time>2026-04-20T18:26:21.852Z</time><hdop>5.937</hdop><vdop>5.312</vdop><extensions><gom:speed>0.798</gom:speed></extensions></trkpt>
   <trkpt lat="59.0650533719" lon="30.0274508376"><ele>94.469</ele><time>2026-04-20T18:26:22.633Z</time><hdop>5.875</hdop><vdop>5.187</vdop><extensions><gom:speed>0.841</gom:speed></extensions></trkpt>
   <trkpt lat="59.065047295" lon="30.0274510891"><ele>95.855</ele><time>2026-04-20T18:26:23.549Z</time><hdop>5.812</hdop><vdop>4.0</vdop><extensions><gom:speed>0.849</gom:speed></extensions></trkpt>
   <trkpt lat="59.0650429784" lon="30.0274517596"><ele>97.525</ele><time>2026-04-20T18:26:24.075Z</time><hdop>5.75</hdop><vdop>3.25</vdop><extensions><gom:speed>0.85</gom:speed></extensions></trkpt>
   <trkpt lat="59.0650359795" lon="30.0274586328"><ele>98.522</ele><time>2026-04-20T18:26:24.992Z</time><hdop>5.625</hdop><vdop>3.25</vdop><extensions><gom:speed>0.891</gom:speed></extensions></trkpt>
   <trkpt lat="59.0650251668" lon="30.0274635781"><ele>99.24</ele><time>2026-04-20T18:26:26.020Z</time><hdop>5.437</hdop><vdop>3.062</vdop><extensions><gom:speed>0.917</gom:speed></extensions></trkpt>
   <trkpt lat="59.0650140608" lon="30.0274670985"><ele>99.669</ele><time>2026-04-20T18:26:26.898Z</time><hdop>5.187</hdop><vdop>2.875</vdop><extensions><gom:speed>0.92</gom:speed></extensions></trkpt>
   <trkpt lat="59.0650013622" lon="30.0274708704"><ele>99.672</ele><time>2026-04-20T18:26:27.994Z</time><hdop>5.0</hdop><vdop>2.75</vdop><extensions><gom:speed>0.873</gom:speed></extensions></trkpt>
   <trkpt lat="59.0649913877" lon="30.0274703675"><ele>99.256</ele><time>2026-04-20T18:26:28.774Z</time><hdop>4.937</hdop><vdop>2.875</vdop><extensions><gom:speed>0.836</gom:speed></extensions></trkpt>
   <trkpt lat="59.0649807846" lon="30.0274695293"><ele>98.749</ele><time>2026-04-20T18:26:29.514Z</time><hdop>4.812</hdop><vdop>3.0</vdop><extensions><gom:speed>0.883</gom:speed></extensions></trkpt>
   <trkpt lat="59.0649727799" lon="30.0274685234"><ele>98.302</ele><time>2026-04-20T18:26:30.076Z</time><hdop>4.75</hdop><vdop>3.25</vdop><extensions><gom:speed>0.893</gom:speed></extensions></trkpt>
   <trkpt lat="59.0649636855" lon="30.0274654221"><ele>98.034</ele><time>2026-04-20T18:26:30.856Z</time><hdop>4.75</hdop><vdop>3.25</vdop><extensions><gom:speed>0.957</gom:speed></extensions></trkpt>
   <trkpt lat="59.0649519928" lon="30.0274644163"><ele>97.883</ele><time>2026-04-20T18:26:31.696Z</time><hdop>4.625</hdop><vdop>3.187</vdop><extensions><gom:speed>0.939</gom:speed></extensions></trkpt>
   <trkpt lat="59.064944491" lon="30.0274683558"><ele>97.704</ele><time>2026-04-20T18:26:32.276Z</time><hdop>4.562</hdop><vdop>3.062</vdop><extensions><gom:speed>0.94</gom:speed></extensions></trkpt>
   <trkpt lat="59.0649316667" lon="30.0274765701"><ele>97.303</ele><time>2026-04-20T18:26:33.075Z</time><hdop>4.5</hdop><vdop>3.0</vdop><extensions><gom:speed>0.905</gom:speed></extensions></trkpt>
   <trkpt lat="59.0649230752" lon="30.0274850358"><ele>97.063</ele><time>2026-04-20T18:26:34.017Z</time><hdop>4.437</hdop><vdop>3.0</vdop><extensions><gom:speed>0.912</gom:speed></extensions></trkpt>
   <trkpt lat="59.0649124721" lon="30.0274973572"><ele>96.924</ele><time>2026-04-20T18:26:35.034Z</time><hdop>4.437</hdop><vdop>2.75</vdop><extensions><gom:speed>0.901</gom:speed></extensions></trkpt>
   <trkpt lat="59.0649029587" lon="30.0275039789"><ele>96.86</ele><time>2026-04-20T18:26:35.902Z</time><hdop>4.437</hdop><vdop>2.812</vdop><extensions><gom:speed>0.826</gom:speed></extensions></trkpt>
   <trkpt lat="59.0648937805" lon="30.0275072478"><ele>96.847</ele><time>2026-04-20T18:26:36.662Z</time><hdop>4.375</hdop><vdop>2.687</vdop><extensions><gom:speed>0.84</gom:speed></extensions></trkpt>
   <trkpt lat="59.0648843927" lon="30.0275118579"><ele>96.764</ele><time>2026-04-20T18:26:37.482Z</time><hdop>4.375</hdop><vdop>2.75</vdop><extensions><gom:speed>0.813</gom:speed></extensions></trkpt>
   <trkpt lat="59.0648780644" lon="30.0275158812"><ele>96.831</ele><time>2026-04-20T18:26:38.075Z</time><hdop>4.375</hdop><vdop>2.75</vdop><extensions><gom:speed>0.795</gom:speed></extensions></trkpt>
   <trkpt lat="59.0648730772" lon="30.0275170547"><ele>96.872</ele><time>2026-04-20T18:26:38.735Z</time><hdop>4.437</hdop><vdop>2.75</vdop><extensions><gom:speed>0.733</gom:speed></extensions></trkpt>
   <trkpt lat="59.0648637733" lon="30.0275135343"><ele>96.828</ele><time>2026-04-20T18:26:39.761Z</time><hdop>4.437</hdop><vdop>2.812</vdop><extensions><gom:speed>0.704</gom:speed></extensions></trkpt>
   <trkpt lat="59.0648581993" lon="30.0275106844"><ele>96.832</ele><time>2026-04-20T18:26:40.642Z</time><hdop>4.437</hdop><vdop>2.937</vdop><extensions><gom:speed>0.721</gom:speed></extensions></trkpt>
   <trkpt lat="59.0648511585" lon="30.0275078346"><ele>96.604</ele><time>2026-04-20T18:26:41.619Z</time><hdop>4.437</hdop><vdop>3.0</vdop><extensions><gom:speed>0.662</gom:speed></extensions></trkpt>
   <trkpt lat="59.06484768" lon="30.0275085889"><ele>96.475</ele><time>2026-04-20T18:26:42.075Z</time><hdop>4.437</hdop><vdop>2.937</vdop><extensions><gom:speed>0.671</gom:speed></extensions></trkpt>
   <trkpt lat="59.0648437824" lon="30.0275089242"><ele>96.398</ele><time>2026-04-20T18:26:42.576Z</time><hdop>4.437</hdop><vdop>2.937</vdop><extensions><gom:speed>0.662</gom:speed></extensions></trkpt>
   <trkpt lat="59.0648394657" lon="30.027510852"><ele>96.144</ele><time>2026-04-20T18:26:43.075Z</time><hdop>4.437</hdop><vdop>3.062</vdop><extensions><gom:speed>0.678</gom:speed></extensions></trkpt>
   <trkpt lat="59.0648315868" lon="30.0275147915"><ele>95.76</ele><time>2026-04-20T18:26:44.075Z</time><hdop>4.5</hdop><vdop>3.125</vdop><extensions><gom:speed>0.652</gom:speed></extensions></trkpt>
   <trkpt lat="59.064827773" lon="30.0275177252"><ele>95.531</ele><time>2026-04-20T18:26:44.952Z</time><hdop>4.5</hdop><vdop>3.125</vdop><extensions><gom:speed>0.644</gom:speed></extensions></trkpt>
   <trkpt lat="59.0648162898" lon="30.027527532"><ele>95.335</ele><time>2026-04-20T18:26:46.075Z</time><hdop>4.562</hdop><vdop>2.875</vdop><extensions><gom:speed>0.633</gom:speed></extensions></trkpt>
   <trkpt lat="59.0648122665" lon="30.0275312201"><ele>95.218</ele><time>2026-04-20T18:26:46.902Z</time><hdop>4.562</hdop><vdop>2.875</vdop><extensions><gom:speed>0.556</gom:speed></extensions></trkpt>
   <trkpt lat="59.0648084946" lon="30.0275350757"><ele>95.11</ele><time>2026-04-20T18:26:47.640Z</time><hdop>4.562</hdop><vdop>2.812</vdop><extensions><gom:speed>0.545</gom:speed></extensions></trkpt>
   <trkpt lat="59.0648028787" lon="30.0275359978"><ele>95.573</ele><time>2026-04-20T18:26:48.500Z</time><hdop>4.562</hdop><vdop>2.812</vdop><extensions><gom:speed>0.603</gom:speed></extensions></trkpt>
   <trkpt lat="59.0647991907" lon="30.0275349919"><ele>95.818</ele><time>2026-04-20T18:26:49.075Z</time><hdop>4.562</hdop><vdop>2.875</vdop><extensions><gom:speed>0.603</gom:speed></extensions></trkpt>
   <trkpt lat="59.0647926947" lon="30.0275328964"><ele>96.491</ele><time>2026-04-20T18:26:50.075Z</time><hdop>4.562</hdop><vdop>2.937</vdop><extensions><gom:speed>0.655</gom:speed></extensions></trkpt>
   <trkpt lat="59.0647862826" lon="30.0275316392"><ele>96.893</ele><time>2026-04-20T18:26:51.017Z</time><hdop>4.562</hdop><vdop>2.937</vdop><extensions><gom:speed>0.666</gom:speed></extensions></trkpt>
   <trkpt lat="59.0647741707" lon="30.0275302981"><ele>97.551</ele><time>2026-04-20T18:26:52.087Z</time><hdop>4.562</hdop><vdop>2.687</vdop><extensions><gom:speed>0.787</gom:speed></extensions></trkpt>
   <trkpt lat="59.0647699798" lon="30.0275368359"><ele>98.331</ele><time>2026-04-20T18:26:53.075Z</time><hdop>4.562</hdop><vdop>2.625</vdop><extensions><gom:speed>0.669</gom:speed></extensions></trkpt>
   <trkpt lat="59.0647699798" lon="30.027537255"><ele>98.798</ele><time>2026-04-20T18:26:53.694Z</time><hdop>4.562</hdop><vdop>2.625</vdop><extensions><gom:speed>0.508</gom:speed></extensions></trkpt>
   <trkpt lat="59.0647702731" lon="30.0275385961"><ele>99.224</ele><time>2026-04-20T18:26:55.022Z</time><hdop>4.75</hdop><vdop>4.812</vdop><extensions><gom:speed>0.334</gom:speed></extensions></trkpt>
   <trkpt lat="59.0647727877" lon="30.0275378418"><ele>99.478</ele><time>2026-04-20T18:26:55.970Z</time><hdop>4.875</hdop><vdop>4.375</vdop><extensions><gom:speed>0.2</gom:speed></extensions></trkpt>
   <trkpt lat="59.0647748832" lon="30.0275379256"><ele>99.63</ele><time>2026-04-20T18:26:56.961Z</time><hdop>5.0</hdop><vdop>4.375</vdop><extensions><gom:speed>0.171</gom:speed></extensions></trkpt>
   <trkpt lat="59.0647736678" lon="30.0275406916"><ele>99.767</ele><time>2026-04-20T18:26:57.898Z</time><hdop>5.0</hdop><vdop>4.0</vdop><extensions><gom:speed>0.179</gom:speed></extensions></trkpt>
   <trkpt lat="59.0647740869" lon="30.0275416974"><ele>99.838</ele><time>2026-04-20T18:26:58.757Z</time><hdop>5.062</hdop><vdop>3.625</vdop><extensions><gom:speed>0.144</gom:speed></extensions></trkpt>
   <trkpt lat="59.0647731649" lon="30.0275450502"><ele>99.898</ele><time>2026-04-20T18:26:59.943Z</time><hdop>5.0</hdop><vdop>3.375</vdop><extensions><gom:speed>0.147</gom:speed></extensions></trkpt>
   <trkpt lat="59.0647716981" lon="30.0275476486"><ele>100.297</ele><time>2026-04-20T18:27:00.762Z</time><hdop>4.937</hdop><vdop>3.0</vdop><extensions><gom:speed>0.155</gom:speed></extensions></trkpt>
   <trkpt lat="59.0647690997" lon="30.0275507499"><ele>100.014</ele><time>2026-04-20T18:27:01.679Z</time><hdop>4.812</hdop><vdop>3.0</vdop><extensions><gom:speed>0.153</gom:speed></extensions></trkpt>
   <trkpt lat="59.064766166" lon="30.0275525939"><ele>100.23</ele><time>2026-04-20T18:27:02.420Z</time><hdop>4.625</hdop><vdop>3.25</vdop><extensions><gom:speed>0.103</gom:speed></extensions></trkpt>
   <trkpt lat="59.0647634838" lon="30.0275540188"><ele>100.439</ele><time>2026-04-20T18:27:03.075Z</time><hdop>4.562</hdop><vdop>2.937</vdop><extensions><gom:speed>0.166</gom:speed></extensions></trkpt>
   <trkpt lat="59.064761975" lon="30.0275543541"><ele>100.565</ele><time>2026-04-20T18:27:03.553Z</time><hdop>4.5</hdop><vdop>2.937</vdop><extensions><gom:speed>0.158</gom:speed></extensions></trkpt>
   <trkpt lat="59.0647578679" lon="30.027558126"><ele>100.621</ele><time>2026-04-20T18:27:04.075Z</time><hdop>4.437</hdop><vdop>2.75</vdop><extensions><gom:speed>0.203</gom:speed></extensions></trkpt>
   <trkpt lat="59.0647566944" lon="30.0275609758"><ele>100.655</ele><time>2026-04-20T18:27:05.057Z</time><hdop>4.375</hdop><vdop>2.75</vdop><extensions><gom:speed>0.218</gom:speed></extensions></trkpt>
   <trkpt lat="59.0647533836" lon="30.0275653344"><ele>100.576</ele><time>2026-04-20T18:27:05.560Z</time><hdop>4.437</hdop><vdop>2.875</vdop><extensions><gom:speed>0.259</gom:speed></extensions></trkpt>
   <trkpt lat="59.0647487735" lon="30.0275703636"><ele>100.669</ele><time>2026-04-20T18:27:06.075Z</time><hdop>4.437</hdop><vdop>3.0</vdop><extensions><gom:speed>0.342</gom:speed></extensions></trkpt>
   <trkpt lat="59.0647426967" lon="30.0275753927"><ele>100.686</ele><time>2026-04-20T18:27:07.076Z</time><hdop>4.5</hdop><vdop>3.125</vdop><extensions><gom:speed>0.331</gom:speed></extensions></trkpt>
   <trkpt lat="59.0647403916" lon="30.0275736325"><ele>100.641</ele><time>2026-04-20T18:27:07.936Z</time><hdop>4.687</hdop><vdop>3.937</vdop><extensions><gom:speed>0.283</gom:speed></extensions></trkpt>
   <trkpt lat="59.0647405593" lon="30.0275716208"><ele>100.615</ele><time>2026-04-20T18:27:08.432Z</time><hdop>4.75</hdop><vdop>3.937</vdop><extensions><gom:speed>0.266</gom:speed></extensions></trkpt>
   <trkpt lat="59.0647384638" lon="30.027572459"><ele>100.598</ele><time>2026-04-20T18:27:09.075Z</time><hdop>4.75</hdop><vdop>4.0</vdop><extensions><gom:speed>0.272</gom:speed></extensions></trkpt>
   <trkpt lat="59.0647382962" lon="30.0275727943"><ele>100.588</ele><time>2026-04-20T18:27:09.713Z</time><hdop>4.75</hdop><vdop>4.0</vdop><extensions><gom:speed>0.251</gom:speed></extensions></trkpt>
   <trkpt lat="59.0647372903" lon="30.0275718723"><ele>100.657</ele><time>2026-04-20T18:27:10.496Z</time><hdop>4.812</hdop><vdop>4.062</vdop><extensions><gom:speed>0.258</gom:speed></extensions></trkpt>
   <trkpt lat="59.0647359911" lon="30.0275720399"><ele>100.601</ele><time>2026-04-20T18:27:11.016Z</time><hdop>4.812</hdop><vdop>4.062</vdop><extensions><gom:speed>0.281</gom:speed></extensions></trkpt>
   <trkpt lat="59.064733267" lon="30.0275727943"><ele>100.555</ele><time>2026-04-20T18:27:11.964Z</time><hdop>4.875</hdop><vdop>4.062</vdop><extensions><gom:speed>0.296</gom:speed></extensions></trkpt>
   <trkpt lat="59.0647306686" lon="30.0275743869"><ele>100.439</ele><time>2026-04-20T18:27:13.030Z</time><hdop>4.937</hdop><vdop>3.875</vdop><extensions><gom:speed>0.317</gom:speed></extensions></trkpt>
   <trkpt lat="59.0647266872" lon="30.0275811762"><ele>100.453</ele><time>2026-04-20T18:27:14.075Z</time><hdop>5.125</hdop><vdop>3.75</vdop><extensions><gom:speed>0.326</gom:speed></extensions></trkpt>
   <trkpt lat="59.0647179701" lon="30.027590983"><ele>100.399</ele><time>2026-04-20T18:27:15.076Z</time><hdop>5.25</hdop><vdop>3.312</vdop><extensions><gom:speed>0.449</gom:speed></extensions></trkpt>
   <trkpt lat="59.0647094624" lon="30.0275967666"><ele>100.366</ele><time>2026-04-20T18:27:15.876Z</time><hdop>5.437</hdop><vdop>3.312</vdop><extensions><gom:speed>0.629</gom:speed></extensions></trkpt>
   <trkpt lat="59.0646972668" lon="30.0276060705"><ele>99.962</ele><time>2026-04-20T18:27:16.737Z</time><hdop>5.5</hdop><vdop>3.125</vdop><extensions><gom:speed>0.756</gom:speed></extensions></trkpt>
   <trkpt lat="59.0646859931" lon="30.0276159611"><ele>99.647</ele><time>2026-04-20T18:27:17.574Z</time><hdop>5.437</hdop><vdop>2.937</vdop><extensions><gom:speed>0.819</gom:speed></extensions></trkpt>
   <trkpt lat="59.0646800839" lon="30.0276228343"><ele>99.397</ele><time>2026-04-20T18:27:18.076Z</time><hdop>5.375</hdop><vdop>3.0</vdop><extensions><gom:speed>0.824</gom:speed></extensions></trkpt>
   <trkpt lat="59.0646695646" lon="30.0276313838"><ele>99.092</ele><time>2026-04-20T18:27:19.075Z</time><hdop>5.25</hdop><vdop>2.937</vdop><extensions><gom:speed>0.839</gom:speed></extensions></trkpt>
   <trkpt lat="59.0646593806" lon="30.0276395981"><ele>99.005</ele><time>2026-04-20T18:27:20.075Z</time><hdop>5.125</hdop><vdop>2.75</vdop><extensions><gom:speed>0.84</gom:speed></extensions></trkpt>
   <trkpt lat="59.0646525912" lon="30.0276488182"><ele>98.953</ele><time>2026-04-20T18:27:20.902Z</time><hdop>5.0</hdop><vdop>2.75</vdop><extensions><gom:speed>0.825</gom:speed></extensions></trkpt>
   <trkpt lat="59.0646450894" lon="30.0276633189"><ele>99.229</ele><time>2026-04-20T18:27:21.701Z</time><hdop>5.0</hdop><vdop>2.75</vdop><extensions><gom:speed>0.828</gom:speed></extensions></trkpt>
   <trkpt lat="59.064636498" lon="30.0276738801"><ele>99.227</ele><time>2026-04-20T18:27:22.521Z</time><hdop>4.875</hdop><vdop>2.562</vdop><extensions><gom:speed>0.81</gom:speed></extensions></trkpt>
   <trkpt lat="59.0646303792" lon="30.027678993"><ele>99.038</ele><time>2026-04-20T18:27:23.075Z</time><hdop>4.812</hdop><vdop>2.5</vdop><extensions><gom:speed>0.816</gom:speed></extensions></trkpt>
   <trkpt lat="59.0646193989" lon="30.027685028"><ele>98.81</ele><time>2026-04-20T18:27:24.076Z</time><hdop>4.75</hdop><vdop>2.5</vdop><extensions><gom:speed>0.843</gom:speed></extensions></trkpt>
   <trkpt lat="59.0646104721" lon="30.0276885484"><ele>98.673</ele><time>2026-04-20T18:27:24.999Z</time><hdop>4.75</hdop><vdop>2.5</vdop><extensions><gom:speed>0.877</gom:speed></extensions></trkpt>
   <trkpt lat="59.0646014616" lon="30.0276928232"><ele>98.396</ele><time>2026-04-20T18:27:25.999Z</time><hdop>4.625</hdop><vdop>2.5</vdop><extensions><gom:speed>0.846</gom:speed></extensions></trkpt>
   <trkpt lat="59.0645934988" lon="30.0276985229"><ele>98.236</ele><time>2026-04-20T18:27:26.895Z</time><hdop>4.625</hdop><vdop>2.562</vdop><extensions><gom:speed>0.831</gom:speed></extensions></trkpt>
   <trkpt lat="59.0645867933" lon="30.0277020433"><ele>97.865</ele><time>2026-04-20T18:27:27.637Z</time><hdop>4.625</hdop><vdop>2.5</vdop><extensions><gom:speed>0.805</gom:speed></extensions></trkpt>
   <trkpt lat="59.0645801716" lon="30.0276999478"><ele>97.46</ele><time>2026-04-20T18:27:28.296Z</time><hdop>4.625</hdop><vdop>2.625</vdop><extensions><gom:speed>0.794</gom:speed></extensions></trkpt>
   <trkpt lat="59.0645719992" lon="30.0276968465"><ele>97.218</ele><time>2026-04-20T18:27:29.038Z</time><hdop>4.625</hdop><vdop>2.625</vdop><extensions><gom:speed>0.813</gom:speed></extensions></trkpt>
   <trkpt lat="59.0645657966" lon="30.0276959245"><ele>96.932</ele><time>2026-04-20T18:27:29.856Z</time><hdop>4.625</hdop><vdop>2.5</vdop><extensions><gom:speed>0.773</gom:speed></extensions></trkpt>
   <trkpt lat="59.0645579595" lon="30.027697517"><ele>96.786</ele><time>2026-04-20T18:27:30.736Z</time><hdop>4.687</hdop><vdop>2.5</vdop><extensions><gom:speed>0.807</gom:speed></extensions></trkpt>
   <trkpt lat="59.0645515893" lon="30.0276980199"><ele>96.623</ele><time>2026-04-20T18:27:31.416Z</time><hdop>4.625</hdop><vdop>2.5</vdop><extensions><gom:speed>0.814</gom:speed></extensions></trkpt>
   <trkpt lat="59.0645454705" lon="30.0277002831"><ele>96.356</ele><time>2026-04-20T18:27:32.075Z</time><hdop>4.625</hdop><vdop>2.5</vdop><extensions><gom:speed>0.825</gom:speed></extensions></trkpt>
   <trkpt lat="59.0645376753" lon="30.0277103413"><ele>96.226</ele><time>2026-04-20T18:27:33.075Z</time><hdop>4.625</hdop><vdop>2.5</vdop><extensions><gom:speed>0.819</gom:speed></extensions></trkpt>
   <trkpt lat="59.0645347836" lon="30.0277206511"><ele>96.149</ele><time>2026-04-20T18:27:33.796Z</time><hdop>4.625</hdop><vdop>2.5</vdop><extensions><gom:speed>0.81</gom:speed></extensions></trkpt>
   <trkpt lat="59.0645344902" lon="30.0277311285"><ele>96.543</ele><time>2026-04-20T18:27:34.457Z</time><hdop>4.625</hdop><vdop>2.5</vdop><extensions><gom:speed>0.802</gom:speed></extensions></trkpt>
   <trkpt lat="59.0645350769" lon="30.0277451262"><ele>96.87</ele><time>2026-04-20T18:27:35.075Z</time><hdop>4.562</hdop><vdop>2.5</vdop><extensions><gom:speed>0.8</gom:speed></extensions></trkpt>
   <trkpt lat="59.0645362923" lon="30.0277533405"><ele>97.23</ele><time>2026-04-20T18:27:36.075Z</time><hdop>4.562</hdop><vdop>2.5</vdop><extensions><gom:speed>0.612</gom:speed></extensions></trkpt>
   <trkpt lat="59.064536879" lon="30.0277560227"><ele>97.445</ele><time>2026-04-20T18:27:36.601Z</time><hdop>4.562</hdop><vdop>2.5</vdop><extensions><gom:speed>0.523</gom:speed></extensions></trkpt>
   <trkpt lat="59.0645365857" lon="30.0277602975"><ele>97.782</ele><time>2026-04-20T18:27:37.075Z</time><hdop>4.5</hdop><vdop>2.5</vdop><extensions><gom:speed>0.512</gom:speed></extensions></trkpt>
   <trkpt lat="59.0645358732" lon="30.0277717807"><ele>98.024</ele><time>2026-04-20T18:27:38.076Z</time><hdop>4.5</hdop><vdop>2.5</vdop><extensions><gom:speed>0.544</gom:speed></extensions></trkpt>
   <trkpt lat="59.0645355798" lon="30.0277837668"><ele>98.169</ele><time>2026-04-20T18:27:38.899Z</time><hdop>4.437</hdop><vdop>2.5</vdop><extensions><gom:speed>0.633</gom:speed></extensions></trkpt>
   <trkpt lat="59.0645335682" lon="30.0277995248"><ele>98.312</ele><time>2026-04-20T18:27:39.722Z</time><hdop>4.437</hdop><vdop>2.5</vdop><extensions><gom:speed>0.701</gom:speed></extensions></trkpt>
   <trkpt lat="59.0645292934" lon="30.0278157857"><ele>98.459</ele><time>2026-04-20T18:27:40.519Z</time><hdop>4.437</hdop><vdop>2.5</vdop><extensions><gom:speed>0.806</gom:speed></extensions></trkpt>
   <trkpt lat="59.0645237614" lon="30.0278302864"><ele>98.543</ele><time>2026-04-20T18:27:41.075Z</time><hdop>4.375</hdop><vdop>2.5</vdop><extensions><gom:speed>0.824</gom:speed></extensions></trkpt>
   <trkpt lat="59.0645195704" lon="30.0278460444"><ele>98.486</ele><time>2026-04-20T18:27:42.075Z</time><hdop>4.375</hdop><vdop>2.5</vdop><extensions><gom:speed>0.861</gom:speed></extensions></trkpt>
   <trkpt lat="59.0645167625" lon="30.027861048"><ele>98.452</ele><time>2026-04-20T18:27:42.958Z</time><hdop>4.375</hdop><vdop>2.5</vdop><extensions><gom:speed>0.852</gom:speed></extensions></trkpt>
   <trkpt lat="59.064513284" lon="30.0278768898"><ele>98.332</ele><time>2026-04-20T18:27:43.817Z</time><hdop>4.375</hdop><vdop>2.5</vdop><extensions><gom:speed>0.822</gom:speed></extensions></trkpt>
   <trkpt lat="59.0645096798" lon="30.027892061"><ele>98.187</ele><time>2026-04-20T18:27:44.560Z</time><hdop>4.375</hdop><vdop>2.5</vdop><extensions><gom:speed>0.864</gom:speed></extensions></trkpt>
   <trkpt lat="59.0645071652" lon="30.0279028737"><ele>98.293</ele><time>2026-04-20T18:27:45.075Z</time><hdop>4.312</hdop><vdop>2.5</vdop><extensions><gom:speed>0.88</gom:speed></extensions></trkpt>
   <trkpt lat="59.0645034772" lon="30.0279224873"><ele>98.218</ele><time>2026-04-20T18:27:46.075Z</time><hdop>4.375</hdop><vdop>2.5</vdop><extensions><gom:speed>0.84</gom:speed></extensions></trkpt>
   <trkpt lat="59.0645025971" lon="30.0279278517"><ele>98.174</ele><time>2026-04-20T18:27:46.795Z</time><hdop>4.375</hdop><vdop>2.5</vdop><extensions><gom:speed>0.83</gom:speed></extensions></trkpt>
   <trkpt lat="59.0644984899" lon="30.0279531651"><ele>98.085</ele><time>2026-04-20T18:27:47.835Z</time><hdop>4.5</hdop><vdop>2.5</vdop><extensions><gom:speed>0.789</gom:speed></extensions></trkpt>
   <trkpt lat="59.0644945923" lon="30.0279649836"><ele>98.15</ele><time>2026-04-20T18:27:48.559Z</time><hdop>4.5</hdop><vdop>2.5</vdop><extensions><gom:speed>0.825</gom:speed></extensions></trkpt>
   <trkpt lat="59.0644915749" lon="30.0279733655"><ele>98.323</ele><time>2026-04-20T18:27:49.075Z</time><hdop>4.437</hdop><vdop>2.5</vdop><extensions><gom:speed>0.828</gom:speed></extensions></trkpt>
   <trkpt lat="59.0644860847" lon="30.0279894587"><ele>98.19</ele><time>2026-04-20T18:27:50.076Z</time><hdop>4.437</hdop><vdop>2.5</vdop><extensions><gom:speed>0.808</gom:speed></extensions></trkpt>
   <trkpt lat="59.0644815585" lon="30.0280033727"><ele>98.108</ele><time>2026-04-20T18:27:51.075Z</time><hdop>4.437</hdop><vdop>2.5</vdop><extensions><gom:speed>0.758</gom:speed></extensions></trkpt>
   <trkpt lat="59.0644747691" lon="30.028011084"><ele>98.192</ele><time>2026-04-20T18:27:52.075Z</time><hdop>4.437</hdop><vdop>2.5</vdop><extensions><gom:speed>0.742</gom:speed></extensions></trkpt>
   <trkpt lat="59.0644687761" lon="30.02800924"><ele>98.242</ele><time>2026-04-20T18:27:52.820Z</time><hdop>4.437</hdop><vdop>2.5</vdop><extensions><gom:speed>0.761</gom:speed></extensions></trkpt>
   <trkpt lat="59.0644619867" lon="30.0280104973"><ele>98.254</ele><time>2026-04-20T18:27:53.601Z</time><hdop>4.437</hdop><vdop>2.5</vdop><extensions><gom:speed>0.786</gom:speed></extensions></trkpt>
   <trkpt lat="59.0644577958" lon="30.0280150235"><ele>98.264</ele><time>2026-04-20T18:27:54.075Z</time><hdop>4.437</hdop><vdop>2.5</vdop><extensions><gom:speed>0.79</gom:speed></extensions></trkpt>
   <trkpt lat="59.0644501682" lon="30.0280258362"><ele>98.601</ele><time>2026-04-20T18:27:55.076Z</time><hdop>4.5</hdop><vdop>2.5</vdop><extensions><gom:speed>0.805</gom:speed></extensions></trkpt>
   <trkpt lat="59.064444259" lon="30.0280308653"><ele>98.802</ele><time>2026-04-20T18:27:55.842Z</time><hdop>4.5</hdop><vdop>2.5</vdop><extensions><gom:speed>0.838</gom:speed></extensions></trkpt>
   <trkpt lat="59.064438685" lon="30.0280360621"><ele>98.963</ele><time>2026-04-20T18:27:56.512Z</time><hdop>4.5</hdop><vdop>2.5</vdop><extensions><gom:speed>0.89</gom:speed></extensions></trkpt>
   <trkpt lat="59.064434075" lon="30.0280409236"><ele>98.807</ele><time>2026-04-20T18:27:57.075Z</time><hdop>4.5</hdop><vdop>2.5</vdop><extensions><gom:speed>0.878</gom:speed></extensions></trkpt>
   <trkpt lat="59.0644254835" lon="30.0280484673"><ele>98.586</ele><time>2026-04-20T18:27:58.075Z</time><hdop>4.5</hdop><vdop>2.5</vdop><extensions><gom:speed>0.914</gom:speed></extensions></trkpt>
   <trkpt lat="59.0644161796" lon="30.0280517363"><ele>98.454</ele><time>2026-04-20T18:27:59.079Z</time><hdop>4.5</hdop><vdop>2.5</vdop><extensions><gom:speed>0.923</gom:speed></extensions></trkpt>
   <trkpt lat="59.0644056603" lon="30.028052323"><ele>98.205</ele><time>2026-04-20T18:27:59.819Z</time><hdop>4.5</hdop><vdop>2.5</vdop><extensions><gom:speed>0.961</gom:speed></extensions></trkpt>
   <trkpt lat="59.0643993739" lon="30.0280508981"><ele>98.082</ele><time>2026-04-20T18:28:00.679Z</time><hdop>4.5</hdop><vdop>2.5</vdop><extensions><gom:speed>0.904</gom:speed></extensions></trkpt>
   <trkpt lat="59.0643922912" lon="30.0280518201"><ele>97.951</ele><time>2026-04-20T18:28:01.560Z</time><hdop>4.5</hdop><vdop>2.5</vdop><extensions><gom:speed>0.825</gom:speed></extensions></trkpt>
   <trkpt lat="59.0643887708" lon="30.0280553405"><ele>98.108</ele><time>2026-04-20T18:28:02.075Z</time><hdop>4.5</hdop><vdop>2.5</vdop><extensions><gom:speed>0.821</gom:speed></extensions></trkpt>
   <trkpt lat="59.0643833645" lon="30.0280669913"><ele>98.407</ele><time>2026-04-20T18:28:03.075Z</time><hdop>4.5</hdop><vdop>2.625</vdop><extensions><gom:speed>0.772</gom:speed></extensions></trkpt>
   <trkpt lat="59.0643779582" lon="30.0280780554"><ele>98.586</ele><time>2026-04-20T18:28:04.055Z</time><hdop>4.5</hdop><vdop>2.625</vdop><extensions><gom:speed>0.806</gom:speed></extensions></trkpt>
   <trkpt lat="59.06437339" lon="30.0280877784"><ele>98.954</ele><time>2026-04-20T18:28:04.796Z</time><hdop>4.5</hdop><vdop>2.5</vdop><extensions><gom:speed>0.836</gom:speed></extensions></trkpt>
   <trkpt lat="59.0643705821" lon="30.0280927238"><ele>99.397</ele><time>2026-04-20T18:28:05.395Z</time><hdop>4.5</hdop><vdop>2.5</vdop><extensions><gom:speed>0.832</gom:speed></extensions></trkpt>
   <trkpt lat="59.0643632898" lon="30.0280983396"><ele>99.359</ele><time>2026-04-20T18:28:06.075Z</time><hdop>4.562</hdop><vdop>2.5</vdop><extensions><gom:speed>0.815</gom:speed></extensions></trkpt>
   <trkpt lat="59.0643598952" lon="30.0280964956"><ele>99.336</ele><time>2026-04-20T18:28:06.641Z</time><hdop>4.562</hdop><vdop>2.5</vdop><extensions><gom:speed>0.764</gom:speed></extensions></trkpt>
   <trkpt lat="59.0643562909" lon="30.0280917179"><ele>99.24</ele><time>2026-04-20T18:28:07.373Z</time><hdop>4.562</hdop><vdop>2.5</vdop><extensions><gom:speed>0.74</gom:speed></extensions></trkpt>
   <trkpt lat="59.0643531896" lon="30.0280876946"><ele>99.075</ele><time>2026-04-20T18:28:08.075Z</time><hdop>4.562</hdop><vdop>2.562</vdop><extensions><gom:speed>0.726</gom:speed></extensions></trkpt>
   <trkpt lat="59.0643485796" lon="30.0280828331"><ele>99.306</ele><time>2026-04-20T18:28:09.075Z</time><hdop>4.562</hdop><vdop>2.687</vdop><extensions><gom:speed>0.702</gom:speed></extensions></trkpt>
   <trkpt lat="59.064344682" lon="30.028081492"><ele>99.353</ele><time>2026-04-20T18:28:10.075Z</time><hdop>4.562</hdop><vdop>2.562</vdop><extensions><gom:speed>0.599</gom:speed></extensions></trkpt>
   <trkpt lat="59.0643412873" lon="30.0280834198"><ele>99.178</ele><time>2026-04-20T18:28:11.075Z</time><hdop>4.5</hdop><vdop>2.562</vdop><extensions><gom:speed>0.56</gom:speed></extensions></trkpt>
   <trkpt lat="59.0643405749" lon="30.0280843419"><ele>99.074</ele><time>2026-04-20T18:28:11.555Z</time><hdop>4.5</hdop><vdop>2.562</vdop><extensions><gom:speed>0.543</gom:speed></extensions></trkpt>
   <trkpt lat="59.0643373897" lon="30.0280848448"><ele>98.531</ele><time>2026-04-20T18:28:12.075Z</time><hdop>4.5</hdop><vdop>2.562</vdop><extensions><gom:speed>0.519</gom:speed></extensions></trkpt>
   <trkpt lat="59.0643343723" lon="30.0280837551"><ele>97.747</ele><time>2026-04-20T18:28:13.076Z</time><hdop>4.5</hdop><vdop>2.625</vdop><extensions><gom:speed>0.551</gom:speed></extensions></trkpt>
   <trkpt lat="59.0643297622" lon="30.0280824978"><ele>97.279</ele><time>2026-04-20T18:28:13.898Z</time><hdop>4.5</hdop><vdop>2.625</vdop><extensions><gom:speed>0.627</gom:speed></extensions></trkpt>
   <trkpt lat="59.0643246912" lon="30.0280807376"><ele>96.903</ele><time>2026-04-20T18:28:14.658Z</time><hdop>4.5</hdop><vdop>2.687</vdop><extensions><gom:speed>0.694</gom:speed></extensions></trkpt>
   <trkpt lat="59.0643183628" lon="30.0280779716"><ele>96.473</ele><time>2026-04-20T18:28:15.478Z</time><hdop>4.562</hdop><vdop>2.812</vdop><extensions><gom:speed>0.703</gom:speed></extensions></trkpt>
   <trkpt lat="59.0643141719" lon="30.0280773849"><ele>96.262</ele><time>2026-04-20T18:28:16.075Z</time><hdop>4.562</hdop><vdop>2.625</vdop><extensions><gom:speed>0.725</gom:speed></extensions></trkpt>
   <trkpt lat="59.0643068796" lon="30.02808057"><ele>95.783</ele><time>2026-04-20T18:28:17.076Z</time><hdop>4.625</hdop><vdop>2.5</vdop><extensions><gom:speed>0.74</gom:speed></extensions></trkpt>
   <trkpt lat="59.0643039879" lon="30.0280825817"><ele>95.497</ele><time>2026-04-20T18:28:17.834Z</time><hdop>4.625</hdop><vdop>2.5</vdop><extensions><gom:speed>0.717</gom:speed></extensions></trkpt>
   <trkpt lat="59.0642979948" lon="30.0280832522"><ele>95.264</ele><time>2026-04-20T18:28:18.421Z</time><hdop>4.75</hdop><vdop>2.5</vdop><extensions><gom:speed>0.623</gom:speed></extensions></trkpt>
   <trkpt lat="59.0642945582" lon="30.0280823302"><ele>95.316</ele><time>2026-04-20T18:28:19.075Z</time><hdop>4.687</hdop><vdop>2.5</vdop><extensions><gom:speed>0.614</gom:speed></extensions></trkpt>
   <trkpt lat="59.0642885652" lon="30.0280798995"><ele>95.346</ele><time>2026-04-20T18:28:20.076Z</time><hdop>4.75</hdop><vdop>2.5</vdop><extensions><gom:speed>0.626</gom:speed></extensions></trkpt>
   <trkpt lat="59.064283997" lon="30.0280795642"><ele>95.358</ele><time>2026-04-20T18:28:21.075Z</time><hdop>4.687</hdop><vdop>2.5</vdop><extensions><gom:speed>0.525</gom:speed></extensions></trkpt>
   <trkpt lat="59.0642826978" lon="30.0280800671"><ele>95.366</ele><time>2026-04-20T18:28:21.539Z</time><hdop>4.75</hdop><vdop>2.5</vdop><extensions><gom:speed>0.499</gom:speed></extensions></trkpt>
   <trkpt lat="59.0642804766" lon="30.0280804862"><ele>95.351</ele><time>2026-04-20T18:28:22.075Z</time><hdop>4.687</hdop><vdop>2.5</vdop><extensions><gom:speed>0.496</gom:speed></extensions></trkpt>
   <trkpt lat="59.0642746931" lon="30.0280826655"><ele>95.551</ele><time>2026-04-20T18:28:23.075Z</time><hdop>4.625</hdop><vdop>2.5</vdop><extensions><gom:speed>0.583</gom:speed></extensions></trkpt>
   <trkpt lat="59.064271969" lon="30.028083336"><ele>95.671</ele><time>2026-04-20T18:28:23.995Z</time><hdop>4.625</hdop><vdop>2.5</vdop><extensions><gom:speed>0.594</gom:speed></extensions></trkpt>
   <trkpt lat="59.0642629584" lon="30.0280869402"><ele>95.66</ele><time>2026-04-20T18:28:25.075Z</time><hdop>4.625</hdop><vdop>2.5</vdop><extensions><gom:speed>0.594</gom:speed></extensions></trkpt>
   <trkpt lat="59.0642583903" lon="30.0280936458"><ele>95.653</ele><time>2026-04-20T18:28:26.003Z</time><hdop>4.625</hdop><vdop>2.5</vdop><extensions><gom:speed>0.629</gom:speed></extensions></trkpt>
   <trkpt lat="59.0642540736" lon="30.0281036202"><ele>95.777</ele><time>2026-04-20T18:28:26.920Z</time><hdop>4.625</hdop><vdop>2.5</vdop><extensions><gom:speed>0.687</gom:speed></extensions></trkpt>
   <trkpt lat="59.0642504694" lon="30.0281153549"><ele>95.874</ele><time>2026-04-20T18:28:27.761Z</time><hdop>4.625</hdop><vdop>2.5</vdop><extensions><gom:speed>0.751</gom:speed></extensions></trkpt>
   <trkpt lat="59.0642469909" lon="30.0281270896"><ele>95.926</ele><time>2026-04-20T18:28:28.578Z</time><hdop>4.687</hdop><vdop>2.5</vdop><extensions><gom:speed>0.758</gom:speed></extensions></trkpt>
   <trkpt lat="59.0642446859" lon="30.0281328731"><ele>95.894</ele><time>2026-04-20T18:28:29.075Z</time><hdop>4.687</hdop><vdop>2.5</vdop><extensions><gom:speed>0.738</gom:speed></extensions></trkpt>
   <trkpt lat="59.0642400758" lon="30.0281399977"><ele>96.181</ele><time>2026-04-20T18:28:30.075Z</time><hdop>4.687</hdop><vdop>2.5</vdop><extensions><gom:speed>0.63</gom:speed></extensions></trkpt>
   <trkpt lat="59.0642352982" lon="30.0281451945"><ele>96.136</ele><time>2026-04-20T18:28:31.075Z</time><hdop>4.625</hdop><vdop>2.5</vdop><extensions><gom:speed>0.603</gom:speed></extensions></trkpt>
   <trkpt lat="59.064231191" lon="30.0281499722"><ele>96.093</ele><time>2026-04-20T18:28:32.075Z</time><hdop>4.625</hdop><vdop>2.5</vdop><extensions><gom:speed>0.574</gom:speed></extensions></trkpt>
   <trkpt lat="59.0642269582" lon="30.0281540793"><ele>96.037</ele><time>2026-04-20T18:28:33.075Z</time><hdop>4.562</hdop><vdop>2.5</vdop><extensions><gom:speed>0.552</gom:speed></extensions></trkpt>
   <trkpt lat="59.0642229768" lon="30.0281561748"><ele>96.005</ele><time>2026-04-20T18:28:33.821Z</time><hdop>4.625</hdop><vdop>2.5</vdop><extensions><gom:speed>0.573</gom:speed></extensions></trkpt>
   <trkpt lat="59.0642171932" lon="30.0281594437"><ele>95.885</ele><time>2026-04-20T18:28:34.778Z</time><hdop>4.625</hdop><vdop>2.5</vdop><extensions><gom:speed>0.629</gom:speed></extensions></trkpt>
   <trkpt lat="59.0642092724" lon="30.0281657301"><ele>96.233</ele><time>2026-04-20T18:28:35.758Z</time><hdop>4.687</hdop><vdop>2.5</vdop><extensions><gom:speed>0.699</gom:speed></extensions></trkpt>
   <trkpt lat="59.0642054586" lon="30.0281692505"><ele>96.076</ele><time>2026-04-20T18:28:36.351Z</time><hdop>4.687</hdop><vdop>2.5</vdop><extensions><gom:speed>0.709</gom:speed></extensions></trkpt>
   <trkpt lat="59.0641980825" lon="30.0281730224"><ele>95.81</ele><time>2026-04-20T18:28:37.076Z</time><hdop>4.75</hdop><vdop>2.5</vdop><extensions><gom:speed>0.711</gom:speed></extensions></trkpt>
   <trkpt lat="59.0641960709" lon="30.0281725195"><ele>95.651</ele><time>2026-04-20T18:28:37.535Z</time><hdop>4.75</hdop><vdop>2.5</vdop><extensions><gom:speed>0.657</gom:speed></extensions></trkpt>
   <trkpt lat="59.0641929695" lon="30.0281714298"><ele>95.997</ele><time>2026-04-20T18:28:38.076Z</time><hdop>4.75</hdop><vdop>2.5</vdop><extensions><gom:speed>0.654</gom:speed></extensions></trkpt>
   <trkpt lat="59.0641906645" lon="30.028170424"><ele>96.204</ele><time>2026-04-20T18:28:38.639Z</time><hdop>4.812</hdop><vdop>2.5</vdop><extensions><gom:speed>0.572</gom:speed></extensions></trkpt>
   <trkpt lat="59.0641861802" lon="30.0281712622"><ele>96.38</ele><time>2026-04-20T18:28:39.675Z</time><hdop>4.812</hdop><vdop>2.5</vdop><extensions><gom:speed>0.494</gom:speed></extensions></trkpt>
   <trkpt lat="59.0641820731" lon="30.0281753693"><ele>96.42</ele><time>2026-04-20T18:28:40.617Z</time><hdop>4.812</hdop><vdop>2.5</vdop><extensions><gom:speed>0.492</gom:speed></extensions></trkpt>
   <trkpt lat="59.064180271" lon="30.0281781354"><ele>96.593</ele><time>2026-04-20T18:28:41.075Z</time><hdop>4.812</hdop><vdop>2.5</vdop><extensions><gom:speed>0.483</gom:speed></extensions></trkpt>
   <trkpt lat="59.064178385" lon="30.0281820748"><ele>96.697</ele><time>2026-04-20T18:28:41.621Z</time><hdop>4.812</hdop><vdop>2.5</vdop><extensions><gom:speed>0.5</gom:speed></extensions></trkpt>
   <trkpt lat="59.0641765829" lon="30.0281847571"><ele>96.996</ele><time>2026-04-20T18:28:42.075Z</time><hdop>4.812</hdop><vdop>2.5</vdop><extensions><gom:speed>0.494</gom:speed></extensions></trkpt>
   <trkpt lat="59.0641713861" lon="30.0281924684"><ele>97.304</ele><time>2026-04-20T18:28:43.075Z</time><hdop>4.812</hdop><vdop>2.5</vdop><extensions><gom:speed>0.481</gom:speed></extensions></trkpt>
   <trkpt lat="59.0641680753" lon="30.0281948992"><ele>97.657</ele><time>2026-04-20T18:28:44.075Z</time><hdop>4.812</hdop><vdop>2.5</vdop><extensions><gom:speed>0.423</gom:speed></extensions></trkpt>
   <trkpt lat="59.0641633814" lon="30.0281982519"><ele>97.869</ele><time>2026-04-20T18:28:45.075Z</time><hdop>4.75</hdop><vdop>2.5</vdop><extensions><gom:speed>0.463</gom:speed></extensions></trkpt>
   <trkpt lat="59.0641581847" lon="30.0282040354"><ele>97.995</ele><time>2026-04-20T18:28:45.914Z</time><hdop>4.75</hdop><vdop>2.5</vdop><extensions><gom:speed>0.578</gom:speed></extensions></trkpt>
   <trkpt lat="59.0641515629" lon="30.0282154348"><ele>98.188</ele><time>2026-04-20T18:28:46.853Z</time><hdop>4.812</hdop><vdop>2.5</vdop><extensions><gom:speed>0.622</gom:speed></extensions></trkpt>
   <trkpt lat="59.0641455699" lon="30.0282242358"><ele>98.315</ele><time>2026-04-20T18:28:47.652Z</time><hdop>4.812</hdop><vdop>2.5</vdop><extensions><gom:speed>0.656</gom:speed></extensions></trkpt>
   <trkpt lat="59.0641377747" lon="30.0282349647"><ele>98.499</ele><time>2026-04-20T18:28:48.463Z</time><hdop>4.812</hdop><vdop>2.562</vdop><extensions><gom:speed>0.804</gom:speed></extensions></trkpt>
   <trkpt lat="59.0641301891" lon="30.0282462802"><ele>98.744</ele><time>2026-04-20T18:28:49.075Z</time><hdop>4.812</hdop><vdop>2.5</vdop><extensions><gom:speed>0.832</gom:speed></extensions></trkpt>
   <trkpt lat="59.0641229807" lon="30.0282538239"><ele>98.89</ele><time>2026-04-20T18:28:50.081Z</time><hdop>4.875</hdop><vdop>2.5</vdop><extensions><gom:speed>0.875</gom:speed></extensions></trkpt>
   <trkpt lat="59.0641160656" lon="30.0282596913"><ele>98.909</ele><time>2026-04-20T18:28:50.861Z</time><hdop>4.875</hdop><vdop>2.5</vdop><extensions><gom:speed>0.885</gom:speed></extensions></trkpt>
   <trkpt lat="59.0641091924" lon="30.0282686599"><ele>99.066</ele><time>2026-04-20T18:28:51.700Z</time><hdop>4.875</hdop><vdop>2.5</vdop><extensions><gom:speed>0.905</gom:speed></extensions></trkpt>
   <trkpt lat="59.0641025707" lon="30.0282807299"><ele>99.202</ele><time>2026-04-20T18:28:52.640Z</time><hdop>4.875</hdop><vdop>2.5</vdop><extensions><gom:speed>0.856</gom:speed></extensions></trkpt>
   <trkpt lat="59.0640989665" lon="30.0282927998"><ele>99.363</ele><time>2026-04-20T18:28:53.437Z</time><hdop>4.875</hdop><vdop>2.5</vdop><extensions><gom:speed>0.837</gom:speed></extensions></trkpt>
   <trkpt lat="59.0640973739" lon="30.0283038639"><ele>99.498</ele><time>2026-04-20T18:28:54.075Z</time><hdop>4.875</hdop><vdop>2.5</vdop><extensions><gom:speed>0.836</gom:speed></extensions></trkpt>
   <trkpt lat="59.0640961586" lon="30.028310318"><ele>99.579</ele><time>2026-04-20T18:28:54.917Z</time><hdop>4.937</hdop><vdop>2.5</vdop><extensions><gom:speed>0.853</gom:speed></extensions></trkpt>
   <trkpt lat="59.0640913809" lon="30.0283359666"><ele>99.534</ele><time>2026-04-20T18:28:56.074Z</time><hdop>4.937</hdop><vdop>2.5</vdop><extensions><gom:speed>0.801</gom:speed></extensions></trkpt>
   <trkpt lat="59.0640890759" lon="30.0283480365"><ele>99.453</ele><time>2026-04-20T18:28:56.932Z</time><hdop>4.937</hdop><vdop>2.5</vdop><extensions><gom:speed>0.745</gom:speed></extensions></trkpt>
   <trkpt lat="59.0640845915" lon="30.028357089"><ele>99.495</ele><time>2026-04-20T18:28:57.805Z</time><hdop>4.937</hdop><vdop>2.5</vdop><extensions><gom:speed>0.738</gom:speed></extensions></trkpt>
   <trkpt lat="59.0640811969" lon="30.0283647165"><ele>99.54</ele><time>2026-04-20T18:28:58.493Z</time><hdop>4.937</hdop><vdop>2.5</vdop><extensions><gom:speed>0.781</gom:speed></extensions></trkpt>
   <trkpt lat="59.0640783889" lon="30.0283722602"><ele>99.444</ele><time>2026-04-20T18:28:59.075Z</time><hdop>4.875</hdop><vdop>2.5</vdop><extensions><gom:speed>0.798</gom:speed></extensions></trkpt>
   <trkpt lat="59.0640754972" lon="30.0283778761"><ele>99.387</ele><time>2026-04-20T18:28:59.561Z</time><hdop>4.875</hdop><vdop>2.5</vdop><extensions><gom:speed>0.787</gom:speed></extensions></trkpt>
   <trkpt lat="59.0640700908" lon="30.0283844978"><ele>99.515</ele><time>2026-04-20T18:29:00.498Z</time><hdop>4.937</hdop><vdop>5.937</vdop><extensions><gom:speed>0.711</gom:speed></extensions></trkpt>
   <trkpt lat="59.06406678" lon="30.0283860904"><ele>99.66</ele><time>2026-04-20T18:29:00.957Z</time><hdop>4.937</hdop><vdop>5.75</vdop><extensions><gom:speed>0.708</gom:speed></extensions></trkpt>
   <trkpt lat="59.0640587753" lon="30.0283848331"><ele>99.837</ele><time>2026-04-20T18:29:02.024Z</time><hdop>5.125</hdop><vdop>5.562</vdop><extensions><gom:speed>0.632</gom:speed></extensions></trkpt>
   <trkpt lat="59.0640541652" lon="30.02838718"><ele>99.943</ele><time>2026-04-20T18:29:03.073Z</time><hdop>5.25</hdop><vdop>5.562</vdop><extensions><gom:speed>0.609</gom:speed></extensions></trkpt>
   <trkpt lat="59.064049178" lon="30.0283911195"><ele>100.035</ele><time>2026-04-20T18:29:03.912Z</time><hdop>5.375</hdop><vdop>5.562</vdop><extensions><gom:speed>0.669</gom:speed></extensions></trkpt>
   <trkpt lat="59.0640455738" lon="30.0283979927"><ele>100.188</ele><time>2026-04-20T18:29:04.999Z</time><hdop>5.625</hdop><vdop>5.5</vdop><extensions><gom:speed>0.667</gom:speed></extensions></trkpt>
   <trkpt lat="59.0640420953" lon="30.02840386"><ele>100.292</ele><time>2026-04-20T18:29:05.758Z</time><hdop>5.812</hdop><vdop>5.437</vdop><extensions><gom:speed>0.685</gom:speed></extensions></trkpt>
   <trkpt lat="59.064038072" lon="30.028413583"><ele>100.384</ele><time>2026-04-20T18:29:06.697Z</time><hdop>6.062</hdop><vdop>5.375</vdop><extensions><gom:speed>0.718</gom:speed></extensions></trkpt>
   <trkpt lat="59.0640390778" lon="30.0284164329"><ele>100.414</ele><time>2026-04-20T18:29:07.236Z</time><hdop>6.062</hdop><vdop>5.375</vdop><extensions><gom:speed>0.673</gom:speed></extensions></trkpt>
   <trkpt lat="59.0640326657" lon="30.0284193665"><ele>100.471</ele><time>2026-04-20T18:29:07.947Z</time><hdop>6.187</hdop><vdop>5.437</vdop><extensions><gom:speed>0.733</gom:speed></extensions></trkpt>
   <trkpt lat="59.0640310731" lon="30.0284204562"><ele>100.505</ele><time>2026-04-20T18:29:08.434Z</time><hdop>6.25</hdop><vdop>5.437</vdop><extensions><gom:speed>0.702</gom:speed></extensions></trkpt>
   <trkpt lat="59.064027888" lon="30.0284233898"><ele>100.568</ele><time>2026-04-20T18:29:09.013Z</time><hdop>6.312</hdop><vdop>5.312</vdop><extensions><gom:speed>0.689</gom:speed></extensions></trkpt>
   <trkpt lat="59.064027888" lon="30.0284291734"><ele>100.614</ele><time>2026-04-20T18:29:10.075Z</time><hdop>6.437</hdop><vdop>5.375</vdop><extensions><gom:speed>0.578</gom:speed></extensions></trkpt>
   <trkpt lat="59.0640277622" lon="30.0284373876"><ele>100.607</ele><time>2026-04-20T18:29:11.027Z</time><hdop>6.437</hdop><vdop>5.625</vdop><extensions><gom:speed>0.543</gom:speed></extensions></trkpt>
   <trkpt lat="59.0640272593" lon="30.028447865"><ele>100.628</ele><time>2026-04-20T18:29:11.975Z</time><hdop>6.562</hdop><vdop>5.625</vdop><extensions><gom:speed>0.559</gom:speed></extensions></trkpt>
   <trkpt lat="59.0640252896" lon="30.0284590967"><ele>100.64</ele><time>2026-04-20T18:29:13.041Z</time><hdop>6.75</hdop><vdop>5.562</vdop><extensions><gom:speed>0.567</gom:speed></extensions></trkpt>
   <trkpt lat="59.0640207633" lon="30.0284737651"><ele>100.641</ele><time>2026-04-20T18:29:13.989Z</time><hdop>7.0</hdop><vdop>5.312</vdop><extensions><gom:speed>0.593</gom:speed></extensions></trkpt>
   <trkpt lat="59.0640171591" lon="30.0284803868"><ele>100.653</ele><time>2026-04-20T18:29:15.056Z</time><hdop>7.187</hdop><vdop>5.125</vdop><extensions><gom:speed>0.598</gom:speed></extensions></trkpt>
   <trkpt lat="59.0640124653" lon="30.0284861703"><ele>100.675</ele><time>2026-04-20T18:29:16.003Z</time><hdop>7.5</hdop><vdop>5.0</vdop><extensions><gom:speed>0.59</gom:speed></extensions></trkpt>
   <trkpt lat="59.0640072685" lon="30.0284897745"><ele>100.689</ele><time>2026-04-20T18:29:16.951Z</time><hdop>7.75</hdop><vdop>4.875</vdop><extensions><gom:speed>0.63</gom:speed></extensions></trkpt>
   <trkpt lat="59.0640023651" lon="30.028485835"><ele>100.83</ele><time>2026-04-20T18:29:18.075Z</time><hdop>8.0</hdop><vdop>3.687</vdop><extensions><gom:speed>0.716</gom:speed></extensions></trkpt>
   <trkpt lat="59.0639966654" lon="30.0284844939"><ele>100.914</ele><time>2026-04-20T18:29:18.939Z</time><hdop>8.062</hdop><vdop>3.687</vdop><extensions><gom:speed>0.756</gom:speed></extensions></trkpt>
   <trkpt lat="59.0639961625" lon="30.0284810573"><ele>100.975</ele><time>2026-04-20T18:29:19.557Z</time><hdop>7.875</hdop><vdop>2.812</vdop><extensions><gom:speed>0.711</gom:speed></extensions></trkpt>
   <trkpt lat="59.0639902951" lon="30.0284791295"><ele>101.696</ele><time>2026-04-20T18:29:20.076Z</time><hdop>7.687</hdop><vdop>2.5</vdop><extensions><gom:speed>0.664</gom:speed></extensions></trkpt>
   <trkpt lat="59.0639870681" lon="30.0284813926"><ele>102.128</ele><time>2026-04-20T18:29:21.001Z</time><hdop>7.437</hdop><vdop>2.5</vdop><extensions><gom:speed>0.62</gom:speed></extensions></trkpt>
   <trkpt lat="59.0639823742" lon="30.0284874276"><ele>102.414</ele><time>2026-04-20T18:29:22.080Z</time><hdop>6.875</hdop><vdop>2.5</vdop><extensions><gom:speed>0.61</gom:speed></extensions></trkpt>
   <trkpt lat="59.0639759621" lon="30.0284860865"><ele>102.038</ele><time>2026-04-20T18:29:23.075Z</time><hdop>6.562</hdop><vdop>2.5</vdop><extensions><gom:speed>0.541</gom:speed></extensions></trkpt>
   <trkpt lat="59.0639721902" lon="30.0284829852"><ele>101.813</ele><time>2026-04-20T18:29:23.815Z</time><hdop>6.062</hdop><vdop>2.5</vdop><extensions><gom:speed>0.526</gom:speed></extensions></trkpt>
   <trkpt lat="59.0639642693" lon="30.028483069"><ele>101.884</ele><time>2026-04-20T18:29:24.713Z</time><hdop>5.625</hdop><vdop>2.5</vdop><extensions><gom:speed>0.619</gom:speed></extensions></trkpt>
   <trkpt lat="59.0639540853" lon="30.0284851645"><ele>101.904</ele><time>2026-04-20T18:29:25.760Z</time><hdop>5.375</hdop><vdop>2.5</vdop><extensions><gom:speed>0.68</gom:speed></extensions></trkpt>
   <trkpt lat="59.0639437756" lon="30.0284855836"><ele>101.965</ele><time>2026-04-20T18:29:26.659Z</time><hdop>5.125</hdop><vdop>2.5</vdop><extensions><gom:speed>0.694</gom:speed></extensions></trkpt>
   <trkpt lat="59.063934765" lon="30.0284864218"><ele>101.922</ele><time>2026-04-20T18:29:27.775Z</time><hdop>4.937</hdop><vdop>2.5</vdop><extensions><gom:speed>0.679</gom:speed></extensions></trkpt>
   <trkpt lat="59.0639265927" lon="30.0284882658"><ele>101.628</ele><time>2026-04-20T18:29:28.741Z</time><hdop>4.812</hdop><vdop>2.5</vdop><extensions><gom:speed>0.66</gom:speed></extensions></trkpt>
   <trkpt lat="59.0639186718" lon="30.0284896907"><ele>100.936</ele><time>2026-04-20T18:29:29.837Z</time><hdop>4.687</hdop><vdop>2.5</vdop><extensions><gom:speed>0.555</gom:speed></extensions></trkpt>
   <trkpt lat="59.0639121758" lon="30.0284898583"><ele>100.465</ele><time>2026-04-20T18:29:30.854Z</time><hdop>4.625</hdop><vdop>2.5</vdop><extensions><gom:speed>0.478</gom:speed></extensions></trkpt>
   <trkpt lat="59.063905596" lon="30.0284936302"><ele>100.255</ele><time>2026-04-20T18:29:31.821Z</time><hdop>4.562</hdop><vdop>2.5</vdop><extensions><gom:speed>0.468</gom:speed></extensions></trkpt>
   <trkpt lat="59.0638976751" lon="30.0285012577"><ele>100.007</ele><time>2026-04-20T18:29:32.700Z</time><hdop>4.625</hdop><vdop>2.5</vdop><extensions><gom:speed>0.555</gom:speed></extensions></trkpt>
   <trkpt lat="59.0638906762" lon="30.0285106455"><ele>99.727</ele><time>2026-04-20T18:29:33.618Z</time><hdop>4.625</hdop><vdop>2.5</vdop><extensions><gom:speed>0.656</gom:speed></extensions></trkpt>
   <trkpt lat="59.0638861919" lon="30.0285175186"><ele>99.272</ele><time>2026-04-20T18:29:34.075Z</time><hdop>4.562</hdop><vdop>2.5</vdop><extensions><gom:speed>0.714</gom:speed></extensions></trkpt>
   <trkpt lat="59.0638787739" lon="30.0285325222"><ele>98.836</ele><time>2026-04-20T18:29:35.075Z</time><hdop>4.625</hdop><vdop>2.5</vdop><extensions><gom:speed>0.743</gom:speed></extensions></trkpt>
   <trkpt lat="59.0638710626" lon="30.0285469391"><ele>98.702</ele><time>2026-04-20T18:29:36.075Z</time><hdop>4.625</hdop><vdop>2.5</vdop><extensions><gom:speed>0.748</gom:speed></extensions></trkpt>
   <trkpt lat="59.0638633931" lon="30.028558087"><ele>98.617</ele><time>2026-04-20T18:29:37.075Z</time><hdop>4.625</hdop><vdop>2.5</vdop><extensions><gom:speed>0.715</gom:speed></extensions></trkpt>
   <trkpt lat="59.0638555979" lon="30.028561356"><ele>98.566</ele><time>2026-04-20T18:29:38.062Z</time><hdop>4.687</hdop><vdop>2.5</vdop><extensions><gom:speed>0.741</gom:speed></extensions></trkpt>
   <trkpt lat="59.0638465874" lon="30.028564122"><ele>98.447</ele><time>2026-04-20T18:29:38.881Z</time><hdop>4.687</hdop><vdop>2.5</vdop><extensions><gom:speed>0.736</gom:speed></extensions></trkpt>
   <trkpt lat="59.0638403848" lon="30.0285677262"><ele>98.002</ele><time>2026-04-20T18:29:39.857Z</time><hdop>4.687</hdop><vdop>2.5</vdop><extensions><gom:speed>0.726</gom:speed></extensions></trkpt>
   <trkpt lat="59.0638334697" lon="30.0285694864"><ele>97.553</ele><time>2026-04-20T18:29:40.798Z</time><hdop>4.75</hdop><vdop>2.5</vdop><extensions><gom:speed>0.714</gom:speed></extensions></trkpt>
   <trkpt lat="59.0638298655" lon="30.0285709952"><ele>97.356</ele><time>2026-04-20T18:29:41.280Z</time><hdop>4.75</hdop><vdop>2.5</vdop><extensions><gom:speed>0.713</gom:speed></extensions></trkpt>
   <trkpt lat="59.0638235791" lon="30.0285740965"><ele>96.816</ele><time>2026-04-20T18:29:42.075Z</time><hdop>4.75</hdop><vdop>2.5</vdop><extensions><gom:speed>0.764</gom:speed></extensions></trkpt>
   <trkpt lat="59.0638167897" lon="30.0285831489"><ele>96.467</ele><time>2026-04-20T18:29:43.076Z</time><hdop>4.75</hdop><vdop>2.562</vdop><extensions><gom:speed>0.691</gom:speed></extensions></trkpt>
   <trkpt lat="59.063810168" lon="30.0285922852"><ele>96.034</ele><time>2026-04-20T18:29:44.075Z</time><hdop>4.75</hdop><vdop>2.625</vdop><extensions><gom:speed>0.693</gom:speed></extensions></trkpt>
   <trkpt lat="59.0638019957" lon="30.0286029302"><ele>95.952</ele><time>2026-04-20T18:29:45.075Z</time><hdop>4.75</hdop><vdop>2.5</vdop><extensions><gom:speed>0.632</gom:speed></extensions></trkpt>
   <trkpt lat="59.0637960864" lon="30.0286084623"><ele>96.089</ele><time>2026-04-20T18:29:46.075Z</time><hdop>4.75</hdop><vdop>2.5</vdop><extensions><gom:speed>0.636</gom:speed></extensions></trkpt>
   <trkpt lat="59.0637920631" lon="30.0286110607"><ele>96.171</ele><time>2026-04-20T18:29:46.660Z</time><hdop>4.75</hdop><vdop>2.5</vdop><extensions><gom:speed>0.655</gom:speed></extensions></trkpt>
   <trkpt lat="59.0637881655" lon="30.0286148325"><ele>96.263</ele><time>2026-04-20T18:29:47.155Z</time><hdop>4.75</hdop><vdop>2.562</vdop><extensions><gom:speed>0.653</gom:speed></extensions></trkpt>
   <trkpt lat="59.0637836812" lon="30.0286158383"><ele>96.318</ele><time>2026-04-20T18:29:47.815Z</time><hdop>4.812</hdop><vdop>2.562</vdop><extensions><gom:speed>0.673</gom:speed></extensions></trkpt>
   <trkpt lat="59.0637736648" lon="30.0286260643"><ele>96.154</ele><time>2026-04-20T18:29:48.940Z</time><hdop>4.812</hdop><vdop>2.5</vdop><extensions><gom:speed>0.801</gom:speed></extensions></trkpt>
   <trkpt lat="59.0637656601" lon="30.0286360387"><ele>96.008</ele><time>2026-04-20T18:29:49.998Z</time><hdop>4.875</hdop><vdop>2.5</vdop><extensions><gom:speed>0.759</gom:speed></extensions></trkpt>
   <trkpt lat="59.0637648638" lon="30.028638218"><ele>95.748</ele><time>2026-04-20T18:29:50.597Z</time><hdop>4.875</hdop><vdop>2.5</vdop><extensions><gom:speed>0.712</gom:speed></extensions></trkpt>
   <trkpt lat="59.0637596671" lon="30.0286397268"><ele>95.592</ele><time>2026-04-20T18:29:51.095Z</time><hdop>4.937</hdop><vdop>2.5</vdop><extensions><gom:speed>0.663</gom:speed></extensions></trkpt>
   <trkpt lat="59.0637551827" lon="30.0286485278"><ele>95.273</ele><time>2026-04-20T18:29:52.075Z</time><hdop>5.0</hdop><vdop>4.0</vdop><extensions><gom:speed>0.646</gom:speed></extensions></trkpt>
   <trkpt lat="59.0637543865" lon="30.0286511262"><ele>95.074</ele><time>2026-04-20T18:29:52.966Z</time><hdop>5.125</hdop><vdop>4.062</vdop><extensions><gom:speed>0.526</gom:speed></extensions></trkpt>
   <trkpt lat="59.063753674" lon="30.0286515452"><ele>94.955</ele><time>2026-04-20T18:29:53.640Z</time><hdop>5.187</hdop><vdop>4.062</vdop><extensions><gom:speed>0.462</gom:speed></extensions></trkpt>
   <trkpt lat="59.0637534645" lon="30.0286512938"><ele>94.884</ele><time>2026-04-20T18:29:54.981Z</time><hdop>5.562</hdop><vdop>4.437</vdop><extensions><gom:speed>0.344</gom:speed></extensions></trkpt>
   <trkpt lat="59.0637553923" lon="30.0286492821"><ele>94.842</ele><time>2026-04-20T18:29:55.516Z</time><hdop>5.687</hdop><vdop>4.437</vdop><extensions><gom:speed>0.274</gom:speed></extensions></trkpt>
   <trkpt lat="59.0637553923" lon="30.028649366"><ele>94.767</ele><time>2026-04-20T18:29:56.046Z</time><hdop>5.812</hdop><vdop>4.5</vdop><extensions><gom:speed>0.288</gom:speed></extensions></trkpt>
   <trkpt lat="59.0637564819" lon="30.028647941"><ele>94.721</ele><time>2026-04-20T18:29:56.757Z</time><hdop>5.937</hdop><vdop>4.5</vdop><extensions><gom:speed>0.241</gom:speed></extensions></trkpt>
   <trkpt lat="59.0637583679" lon="30.0286475219"><ele>94.545</ele><time>2026-04-20T18:29:58.060Z</time><hdop>6.187</hdop><vdop>4.687</vdop><extensions><gom:speed>0.186</gom:speed></extensions></trkpt>
   <trkpt lat="59.0637614692" lon="30.0286463485"><ele>94.383</ele><time>2026-04-20T18:29:59.075Z</time><hdop>6.25</hdop><vdop>4.875</vdop><extensions><gom:speed>0.115</gom:speed></extensions></trkpt>
   <trkpt lat="59.0637619721" lon="30.0286466837"><ele>94.292</ele><time>2026-04-20T18:29:59.956Z</time><hdop>6.187</hdop><vdop>5.062</vdop><extensions><gom:speed>0.11</gom:speed></extensions></trkpt>
   <trkpt lat="59.063761092" lon="30.0286463485"><ele>94.211</ele><time>2026-04-20T18:30:01.022Z</time><hdop>6.062</hdop><vdop>5.187</vdop><extensions><gom:speed>0.103</gom:speed></extensions></trkpt>
   <trkpt lat="59.0637602957" lon="30.0286457617"><ele>94.155</ele><time>2026-04-20T18:30:01.971Z</time><hdop>5.937</hdop><vdop>5.437</vdop><extensions><gom:speed>0.07</gom:speed></extensions></trkpt>
   <trkpt lat="59.0637603795" lon="30.0286454265"><ele>94.121</ele><time>2026-04-20T18:30:02.917Z</time><hdop>6.0</hdop><vdop>5.437</vdop><extensions><gom:speed>0.072</gom:speed></extensions></trkpt>
   <trkpt lat="59.0637603795" lon="30.028644253"><ele>94.145</ele><time>2026-04-20T18:30:03.985Z</time><hdop>5.937</hdop><vdop>5.562</vdop><extensions><gom:speed>0.069</gom:speed></extensions></trkpt>
   <trkpt lat="59.0637603795" lon="30.0286463485"><ele>94.167</ele><time>2026-04-20T18:30:05.050Z</time><hdop>6.125</hdop><vdop>5.687</vdop><extensions><gom:speed>0.102</gom:speed></extensions></trkpt>
   <trkpt lat="59.0637591642" lon="30.0286487792"><ele>94.18</ele><time>2026-04-20T18:30:05.998Z</time><hdop>6.25</hdop><vdop>5.562</vdop><extensions><gom:speed>0.072</gom:speed></extensions></trkpt>
   <trkpt lat="59.063757865" lon="30.0286508747"><ele>94.185</ele><time>2026-04-20T18:30:06.945Z</time><hdop>6.5</hdop><vdop>5.562</vdop><extensions><gom:speed>0.08</gom:speed></extensions></trkpt>
   <trkpt lat="59.0637565658" lon="30.0286520482"><ele>94.189</ele><time>2026-04-20T18:30:08.012Z</time><hdop>6.75</hdop><vdop>5.562</vdop><extensions><gom:speed>0.071</gom:speed></extensions></trkpt>
   <trkpt lat="59.0637560628" lon="30.0286514614"><ele>94.199</ele><time>2026-04-20T18:30:08.959Z</time><hdop>6.937</hdop><vdop>5.5</vdop><extensions><gom:speed>0.062</gom:speed></extensions></trkpt>
   <trkpt lat="59.0637549732" lon="30.0286517967"><ele>94.245</ele><time>2026-04-20T18:30:10.026Z</time><hdop>7.187</hdop><vdop>5.437</vdop><extensions><gom:speed>0.076</gom:speed></extensions></trkpt>
   <trkpt lat="59.0637552666" lon="30.028653054"><ele>94.33</ele><time>2026-04-20T18:30:10.973Z</time><hdop>7.312</hdop><vdop>5.5</vdop><extensions><gom:speed>0.069</gom:speed></extensions></trkpt>
   <trkpt lat="59.0637540931" lon="30.0286648725"><ele>94.42</ele><time>2026-04-20T18:30:12.076Z</time><hdop>8.0</hdop><vdop>5.375</vdop><extensions><gom:speed>0.069</gom:speed></extensions></trkpt>
   <trkpt lat="59.0637532968" lon="30.028673422"><ele>94.479</ele><time>2026-04-20T18:30:13.075Z</time><hdop>8.875</hdop><vdop>5.437</vdop><extensions><gom:speed>0.073</gom:speed></extensions></trkpt>
   <trkpt lat="59.0637528777" lon="30.0286788703"><ele>94.548</ele><time>2026-04-20T18:30:14.075Z</time><hdop>9.562</hdop><vdop>5.312</vdop><extensions><gom:speed>0.08</gom:speed></extensions></trkpt>
   <trkpt lat="59.0637527939" lon="30.0286821392"><ele>94.596</ele><time>2026-04-20T18:30:15.076Z</time><hdop>10.25</hdop><vdop>5.187</vdop><extensions><gom:speed>0.084</gom:speed></extensions></trkpt>
   <trkpt lat="59.0637527939" lon="30.0286841508"><ele>94.651</ele><time>2026-04-20T18:30:16.075Z</time><hdop>10.875</hdop><vdop>5.125</vdop><extensions><gom:speed>0.084</gom:speed></extensions></trkpt>
   <trkpt lat="59.0637528777" lon="30.0286852405"><ele>94.687</ele><time>2026-04-20T18:30:17.075Z</time><hdop>11.437</hdop><vdop>5.062</vdop><extensions><gom:speed>0.081</gom:speed></extensions></trkpt>
   <trkpt lat="59.0637529615" lon="30.0286851567"><ele>94.732</ele><time>2026-04-20T18:30:18.075Z</time><hdop>11.437</hdop><vdop>5.25</vdop><extensions><gom:speed>0.007</gom:speed></extensions></trkpt>
   <trkpt lat="59.0637527939" lon="30.0286870845"><ele>94.763</ele><time>2026-04-20T18:30:19.075Z</time><hdop>11.125</hdop><vdop>5.187</vdop><extensions><gom:speed>0.18</gom:speed></extensions></trkpt>
   <trkpt lat="59.0637526682" lon="30.0286899344"><ele>94.782</ele><time>2026-04-20T18:30:20.076Z</time><hdop>10.625</hdop><vdop>5.25</vdop><extensions><gom:speed>0.232</gom:speed></extensions></trkpt>
   <trkpt lat="59.0637525844" lon="30.0286920298"><ele>94.798</ele><time>2026-04-20T18:30:21.075Z</time><hdop>10.0</hdop><vdop>5.25</vdop><extensions><gom:speed>0.292</gom:speed></extensions></trkpt>
   <trkpt lat="59.0637526682" lon="30.0286940415"><ele>94.811</ele><time>2026-04-20T18:30:22.076Z</time><hdop>9.062</hdop><vdop>5.437</vdop><extensions><gom:speed>0.334</gom:speed></extensions></trkpt>
   <trkpt lat="59.063752291" lon="30.0286943768"><ele>94.819</ele><time>2026-04-20T18:30:23.075Z</time><hdop>8.437</hdop><vdop>5.75</vdop><extensions><gom:speed>0.354</gom:speed></extensions></trkpt>
   <trkpt lat="59.0637524586" lon="30.0286948797"><ele>94.824</ele><time>2026-04-20T18:30:24.075Z</time><hdop>7.75</hdop><vdop>6.0</vdop><extensions><gom:speed>0.423</gom:speed></extensions></trkpt>
   <trkpt lat="59.0637526682" lon="30.0286960532"><ele>94.829</ele><time>2026-04-20T18:30:25.075Z</time><hdop>7.312</hdop><vdop>6.312</vdop><extensions><gom:speed>0.526</gom:speed></extensions></trkpt>
   <trkpt lat="59.0637528777" lon="30.0286981486"><ele>94.833</ele><time>2026-04-20T18:30:26.075Z</time><hdop>7.0</hdop><vdop>6.375</vdop><extensions><gom:speed>0.605</gom:speed></extensions></trkpt>
   <trkpt lat="59.0637529615" lon="30.0287003279"><ele>94.839</ele><time>2026-04-20T18:30:27.075Z</time><hdop>7.0</hdop><vdop>6.562</vdop><extensions><gom:speed>0.657</gom:speed></extensions></trkpt>
   <trkpt lat="59.0637529615" lon="30.0286985677"><ele>94.842</ele><time>2026-04-20T18:30:27.678Z</time><hdop>7.125</hdop><vdop>6.562</vdop><extensions><gom:speed>0.669</gom:speed></extensions></trkpt>
   <trkpt lat="59.0637532968" lon="30.0287019205"><ele>94.848</ele><time>2026-04-20T18:30:29.075Z</time><hdop>7.437</hdop><vdop>6.0</vdop><extensions><gom:speed>0.698</gom:speed></extensions></trkpt>
   <trkpt lat="59.0637534645" lon="30.0287010823"><ele>94.851</ele><time>2026-04-20T18:30:30.075Z</time><hdop>7.687</hdop><vdop>5.937</vdop><extensions><gom:speed>0.695</gom:speed></extensions></trkpt>
   <trkpt lat="59.0637537997" lon="30.0287003279"><ele>94.854</ele><time>2026-04-20T18:30:31.075Z</time><hdop>7.937</hdop><vdop>5.875</vdop><extensions><gom:speed>0.672</gom:speed></extensions></trkpt>
   <trkpt lat="59.0637540931" lon="30.0286995736"><ele>94.855</ele><time>2026-04-20T18:30:32.075Z</time><hdop>8.187</hdop><vdop>5.687</vdop><extensions><gom:speed>0.624</gom:speed></extensions></trkpt>
   <trkpt lat="59.063754596" lon="30.0286991545"><ele>94.865</ele><time>2026-04-20T18:30:33.075Z</time><hdop>8.375</hdop><vdop>5.812</vdop><extensions><gom:speed>0.577</gom:speed></extensions></trkpt>
   <trkpt lat="59.0637547637" lon="30.028696137"><ele>94.872</ele><time>2026-04-20T18:30:33.838Z</time><hdop>8.562</hdop><vdop>5.812</vdop><extensions><gom:speed>0.571</gom:speed></extensions></trkpt>
   <trkpt lat="59.0637547637" lon="30.0286985677"><ele>94.758</ele><time>2026-04-20T18:30:35.075Z</time><hdop>8.625</hdop><vdop>6.25</vdop><extensions><gom:speed>0.852</gom:speed></extensions></trkpt>
   <trkpt lat="59.0637544703" lon="30.0286981486"><ele>94.316</ele><time>2026-04-20T18:30:36.075Z</time><hdop>8.562</hdop><vdop>4.437</vdop><extensions><gom:speed>0.508</gom:speed></extensions></trkpt>
   <trkpt lat="59.0637523748" lon="30.0286966399"><ele>93.228</ele><time>2026-04-20T18:30:37.075Z</time><hdop>8.5</hdop><vdop>6.875</vdop><extensions><gom:speed>0.454</gom:speed></extensions></trkpt>
   <trkpt lat="59.0637473876" lon="30.0286958855"><ele>92.547</ele><time>2026-04-20T18:30:38.075Z</time><hdop>8.187</hdop><vdop>5.187</vdop><extensions><gom:speed>0.415</gom:speed></extensions></trkpt>
   <trkpt lat="59.063742568" lon="30.0286943768"><ele>91.452</ele><time>2026-04-20T18:30:39.075Z</time><hdop>8.125</hdop><vdop>7.312</vdop><extensions><gom:speed>0.364</gom:speed></extensions></trkpt>
   <trkpt lat="59.0637418974" lon="30.0286927842"><ele>90.797</ele><time>2026-04-20T18:30:39.998Z</time><hdop>8.125</hdop><vdop>7.312</vdop><extensions><gom:speed>0.348</gom:speed></extensions></trkpt>
   <trkpt lat="59.0637302885" lon="30.0286927842"><ele>89.149</ele><time>2026-04-20T18:30:41.075Z</time><hdop>8.062</hdop><vdop>7.687</vdop><extensions><gom:speed>0.471</gom:speed></extensions></trkpt>
   <trkpt lat="59.0637245888" lon="30.0286924489"><ele>87.943</ele><time>2026-04-20T18:30:42.076Z</time><hdop>8.062</hdop><vdop>7.812</vdop><extensions><gom:speed>0.531</gom:speed></extensions></trkpt>
   <trkpt lat="59.06371847" lon="30.0286931195"><ele>87.484</ele><time>2026-04-20T18:30:43.075Z</time><hdop>8.187</hdop><vdop>7.937</vdop><extensions><gom:speed>0.571</gom:speed></extensions></trkpt>
   <trkpt lat="59.0637123931" lon="30.0286943768"><ele>87.394</ele><time>2026-04-20T18:30:44.075Z</time><hdop>8.312</hdop><vdop>8.437</vdop><extensions><gom:speed>0.583</gom:speed></extensions></trkpt>
   <trkpt lat="59.0637064839" lon="30.0286968913"><ele>87.28</ele><time>2026-04-20T18:30:45.075Z</time><hdop>8.437</hdop><vdop>8.5</vdop><extensions><gom:speed>0.608</gom:speed></extensions></trkpt>
   <trkpt lat="59.0637005746" lon="30.0287014176"><ele>87.077</ele><time>2026-04-20T18:30:46.075Z</time><hdop>8.625</hdop><vdop>8.687</vdop><extensions><gom:speed>0.649</gom:speed></extensions></trkpt>
   <trkpt lat="59.063694372" lon="30.0287101347"><ele>86.874</ele><time>2026-04-20T18:30:47.075Z</time><hdop>8.812</hdop><vdop>8.812</vdop><extensions><gom:speed>0.716</gom:speed></extensions></trkpt>
   <trkpt lat="59.0636910612" lon="30.0287123979"><ele>86.687</ele><time>2026-04-20T18:30:48.076Z</time><hdop>8.937</hdop><vdop>8.562</vdop><extensions><gom:speed>0.733</gom:speed></extensions></trkpt>
   <trkpt lat="59.0636871636" lon="30.0287136551"><ele>86.441</ele><time>2026-04-20T18:30:49.076Z</time><hdop>9.0</hdop><vdop>8.625</vdop><extensions><gom:speed>0.728</gom:speed></extensions></trkpt>
   <trkpt lat="59.0636836851" lon="30.0287143257"><ele>86.478</ele><time>2026-04-20T18:30:50.076Z</time><hdop>9.125</hdop><vdop>8.5</vdop><extensions><gom:speed>0.705</gom:speed></extensions></trkpt>
   <trkpt lat="59.0636812963" lon="30.0287153315"><ele>86.695</ele><time>2026-04-20T18:30:51.075Z</time><hdop>9.187</hdop><vdop>8.312</vdop><extensions><gom:speed>0.656</gom:speed></extensions></trkpt>
   <trkpt lat="59.0636810867" lon="30.0287144933"><ele>86.95</ele><time>2026-04-20T18:30:52.076Z</time><hdop>9.125</hdop><vdop>7.875</vdop><extensions><gom:speed>0.513</gom:speed></extensions></trkpt>
   <trkpt lat="59.0636800809" lon="30.028714661"><ele>87.096</ele><time>2026-04-20T18:30:53.075Z</time><hdop>9.0</hdop><vdop>8.187</vdop><extensions><gom:speed>0.479</gom:speed></extensions></trkpt>
   <trkpt lat="59.0636797875" lon="30.0287142419"><ele>87.212</ele><time>2026-04-20T18:30:54.075Z</time><hdop>8.875</hdop><vdop>8.187</vdop><extensions><gom:speed>0.487</gom:speed></extensions></trkpt>
   <trkpt lat="59.0636791589" lon="30.0287119788"><ele>87.185</ele><time>2026-04-20T18:30:55.075Z</time><hdop>8.75</hdop><vdop>8.187</vdop><extensions><gom:speed>0.5</gom:speed></extensions></trkpt>
   <trkpt lat="59.0636788655" lon="30.0287069496"><ele>87.182</ele><time>2026-04-20T18:30:56.075Z</time><hdop>8.5</hdop><vdop>8.437</vdop><extensions><gom:speed>0.503</gom:speed></extensions></trkpt>
   <trkpt lat="59.0636791589" lon="30.0287011661"><ele>87.228</ele><time>2026-04-20T18:30:57.075Z</time><hdop>8.25</hdop><vdop>8.375</vdop><extensions><gom:speed>0.502</gom:speed></extensions></trkpt>
   <trkpt lat="59.0636802904" lon="30.028696137"><ele>87.269</ele><time>2026-04-20T18:30:58.075Z</time><hdop>8.062</hdop><vdop>8.375</vdop><extensions><gom:speed>0.496</gom:speed></extensions></trkpt>
   <trkpt lat="59.0636810867" lon="30.0286957179"><ele>87.294</ele><time>2026-04-20T18:30:58.598Z</time><hdop>8.062</hdop><vdop>8.375</vdop><extensions><gom:speed>0.496</gom:speed></extensions></trkpt>
   <trkpt lat="59.0636820926" lon="30.0286918622"><ele>87.317</ele><time>2026-04-20T18:30:59.076Z</time><hdop>7.875</hdop><vdop>8.0</vdop><extensions><gom:speed>0.433</gom:speed></extensions></trkpt>
   <trkpt lat="59.0636838947" lon="30.0286896829"><ele>87.322</ele><time>2026-04-20T18:31:00.075Z</time><hdop>7.625</hdop><vdop>7.937</vdop><extensions><gom:speed>0.376</gom:speed></extensions></trkpt>
   <trkpt lat="59.0636851939" lon="30.0286881742"><ele>87.313</ele><time>2026-04-20T18:31:01.075Z</time><hdop>7.437</hdop><vdop>7.75</vdop><extensions><gom:speed>0.352</gom:speed></extensions></trkpt>
   <trkpt lat="59.0636861997" lon="30.0286884256"><ele>87.296</ele><time>2026-04-20T18:31:02.075Z</time><hdop>7.187</hdop><vdop>7.687</vdop><extensions><gom:speed>0.301</gom:speed></extensions></trkpt>
   <trkpt lat="59.0636877922" lon="30.0286912755"><ele>87.283</ele><time>2026-04-20T18:31:03.075Z</time><hdop>6.75</hdop><vdop>7.625</vdop><extensions><gom:speed>0.312</gom:speed></extensions></trkpt>
   <trkpt lat="59.0636890914" lon="30.02869379"><ele>87.241</ele><time>2026-04-20T18:31:04.075Z</time><hdop>6.437</hdop><vdop>7.437</vdop><extensions><gom:speed>0.321</gom:speed></extensions></trkpt>
   <trkpt lat="59.0636895944" lon="30.0286934548"><ele>87.216</ele><time>2026-04-20T18:31:04.758Z</time><hdop>6.187</hdop><vdop>7.437</vdop><extensions><gom:speed>0.322</gom:speed></extensions></trkpt>
   <trkpt lat="59.0636918994" lon="30.0286963884"><ele>87.264</ele><time>2026-04-20T18:31:06.075Z</time><hdop>6.0</hdop><vdop>7.25</vdop><extensions><gom:speed>0.364</gom:speed></extensions></trkpt>
   <trkpt lat="59.0636931986" lon="30.0286966399"><ele>87.317</ele><time>2026-04-20T18:31:07.075Z</time><hdop>5.875</hdop><vdop>7.187</vdop><extensions><gom:speed>0.384</gom:speed></extensions></trkpt>
   <trkpt lat="59.0636945816" lon="30.0286977295"><ele>87.382</ele><time>2026-04-20T18:31:08.075Z</time><hdop>5.812</hdop><vdop>6.937</vdop><extensions><gom:speed>0.381</gom:speed></extensions></trkpt>
   <trkpt lat="59.0636958808" lon="30.0286981486"><ele>87.469</ele><time>2026-04-20T18:31:09.076Z</time><hdop>5.812</hdop><vdop>6.75</vdop><extensions><gom:speed>0.392</gom:speed></extensions></trkpt>
   <trkpt lat="59.0636966771" lon="30.0286990706"><ele>87.53</ele><time>2026-04-20T18:31:10.075Z</time><hdop>5.875</hdop><vdop>6.687</vdop><extensions><gom:speed>0.385</gom:speed></extensions></trkpt>
   <trkpt lat="59.0636967609" lon="30.0286992383"><ele>87.567</ele><time>2026-04-20T18:31:10.919Z</time><hdop>6.0</hdop><vdop>6.687</vdop><extensions><gom:speed>0.385</gom:speed></extensions></trkpt>
   <trkpt lat="59.0636978924" lon="30.028700747"><ele>87.625</ele><time>2026-04-20T18:31:12.076Z</time><hdop>6.187</hdop><vdop>6.125</vdop><extensions><gom:speed>0.375</gom:speed></extensions></trkpt>
   <trkpt lat="59.0636986887" lon="30.0287014176"><ele>87.669</ele><time>2026-04-20T18:31:13.075Z</time><hdop>6.25</hdop><vdop>5.937</vdop><extensions><gom:speed>0.345</gom:speed></extensions></trkpt>
   <trkpt lat="59.063699485" lon="30.0287015852"><ele>87.696</ele><time>2026-04-20T18:31:14.075Z</time><hdop>6.375</hdop><vdop>6.0</vdop><extensions><gom:speed>0.323</gom:speed></extensions></trkpt>
   <trkpt lat="59.0637004908" lon="30.028701669"><ele>87.722</ele><time>2026-04-20T18:31:15.075Z</time><hdop>6.437</hdop><vdop>6.0</vdop><extensions><gom:speed>0.304</gom:speed></extensions></trkpt>
   <trkpt lat="59.0637015805" lon="30.0287031778"><ele>87.731</ele><time>2026-04-20T18:31:16.075Z</time><hdop>6.5</hdop><vdop>6.0</vdop><extensions><gom:speed>0.302</gom:speed></extensions></trkpt>
   <trkpt lat="59.0637026701" lon="30.0287034292"><ele>87.74</ele><time>2026-04-20T18:31:17.075Z</time><hdop>6.562</hdop><vdop>6.0</vdop><extensions><gom:speed>0.316</gom:speed></extensions></trkpt>
   <trkpt lat="59.063703676" lon="30.0287037645"><ele>87.741</ele><time>2026-04-20T18:31:18.075Z</time><hdop>6.562</hdop><vdop>5.875</vdop><extensions><gom:speed>0.333</gom:speed></extensions></trkpt>
   <trkpt lat="59.0637043884" lon="30.0287037645"><ele>87.76</ele><time>2026-04-20T18:31:19.075Z</time><hdop>6.5</hdop><vdop>5.812</vdop><extensions><gom:speed>0.314</gom:speed></extensions></trkpt>
   <trkpt lat="59.0637053942" lon="30.0287037645"><ele>87.778</ele><time>2026-04-20T18:31:20.075Z</time><hdop>6.5</hdop><vdop>5.562</vdop><extensions><gom:speed>0.313</gom:speed></extensions></trkpt>
   <trkpt lat="59.0637062743" lon="30.0287042674"><ele>87.8</ele><time>2026-04-20T18:31:21.075Z</time><hdop>6.5</hdop><vdop>5.5</vdop><extensions><gom:speed>0.329</gom:speed></extensions></trkpt>
   <trkpt lat="59.0637072802" lon="30.0287048542"><ele>87.818</ele><time>2026-04-20T18:31:22.076Z</time><hdop>6.437</hdop><vdop>5.312</vdop><extensions><gom:speed>0.313</gom:speed></extensions></trkpt>
   <trkpt lat="59.0637080765" lon="30.0287051894"><ele>87.847</ele><time>2026-04-20T18:31:23.075Z</time><hdop>6.437</hdop><vdop>5.437</vdop><extensions><gom:speed>0.317</gom:speed></extensions></trkpt>
   <trkpt lat="59.0637088727" lon="30.028706782"><ele>87.869</ele><time>2026-04-20T18:31:24.075Z</time><hdop>6.5</hdop><vdop>5.375</vdop><extensions><gom:speed>0.326</gom:speed></extensions></trkpt>
   <trkpt lat="59.0637094595" lon="30.0287068658"><ele>87.886</ele><time>2026-04-20T18:31:25.076Z</time><hdop>6.5</hdop><vdop>5.25</vdop><extensions><gom:speed>0.325</gom:speed></extensions></trkpt>
   <trkpt lat="59.0637106748" lon="30.0287076202"><ele>87.917</ele><time>2026-04-20T18:31:26.075Z</time><hdop>6.562</hdop><vdop>5.25</vdop><extensions><gom:speed>0.327</gom:speed></extensions></trkpt>
   <trkpt lat="59.0637116807" lon="30.0287082907"><ele>87.939</ele><time>2026-04-20T18:31:27.075Z</time><hdop>6.562</hdop><vdop>5.187</vdop><extensions><gom:speed>0.309</gom:speed></extensions></trkpt>
   <trkpt lat="59.0637129799" lon="30.0287085422"><ele>87.95</ele><time>2026-04-20T18:31:28.076Z</time><hdop>6.625</hdop><vdop>5.312</vdop><extensions><gom:speed>0.282</gom:speed></extensions></trkpt>
   <trkpt lat="59.0637139857" lon="30.0287076202"><ele>87.954</ele><time>2026-04-20T18:31:29.076Z</time><hdop>6.625</hdop><vdop>5.25</vdop><extensions><gom:speed>0.29</gom:speed></extensions></trkpt>
   <trkpt lat="59.0637150753" lon="30.0287066982"><ele>87.951</ele><time>2026-04-20T18:31:30.075Z</time><hdop>6.687</hdop><vdop>5.25</vdop><extensions><gom:speed>0.286</gom:speed></extensions></trkpt>
   <trkpt lat="59.0637154944" lon="30.0287055247"><ele>87.946</ele><time>2026-04-20T18:31:31.075Z</time><hdop>6.687</hdop><vdop>5.312</vdop><extensions><gom:speed>0.309</gom:speed></extensions></trkpt>
   <trkpt lat="59.063716165" lon="30.0287052732"><ele>87.942</ele><time>2026-04-20T18:31:32.076Z</time><hdop>6.687</hdop><vdop>5.25</vdop><extensions><gom:speed>0.307</gom:speed></extensions></trkpt>
   <trkpt lat="59.0637165841" lon="30.0287051894"><ele>87.939</ele><time>2026-04-20T18:31:33.076Z</time><hdop>6.687</hdop><vdop>5.187</vdop><extensions><gom:speed>0.304</gom:speed></extensions></trkpt>
   <trkpt lat="59.063717087" lon="30.0287052732"><ele>87.935</ele><time>2026-04-20T18:31:34.075Z</time><hdop>6.687</hdop><vdop>5.375</vdop><extensions><gom:speed>0.323</gom:speed></extensions></trkpt>
   <trkpt lat="59.0637174642" lon="30.0287051894"><ele>87.929</ele><time>2026-04-20T18:31:35.075Z</time><hdop>6.75</hdop><vdop>5.25</vdop><extensions><gom:speed>0.328</gom:speed></extensions></trkpt>
   <trkpt lat="59.0637171708" lon="30.0287047703"><ele>87.926</ele><time>2026-04-20T18:31:35.679Z</time><hdop>6.812</hdop><vdop>5.25</vdop><extensions><gom:speed>0.329</gom:speed></extensions></trkpt>
   <trkpt lat="59.0637182605" lon="30.0287056923"><ele>87.917</ele><time>2026-04-20T18:31:37.076Z</time><hdop>6.875</hdop><vdop>5.062</vdop><extensions><gom:speed>0.339</gom:speed></extensions></trkpt>
   <trkpt lat="59.0637180928" lon="30.0287046865"><ele>87.905</ele><time>2026-04-20T18:31:38.075Z</time><hdop>6.937</hdop><vdop>5.0</vdop><extensions><gom:speed>0.323</gom:speed></extensions></trkpt>
   <trkpt lat="59.0637182605" lon="30.0287039321"><ele>87.888</ele><time>2026-04-20T18:31:39.075Z</time><hdop>7.0</hdop><vdop>4.937</vdop><extensions><gom:speed>0.323</gom:speed></extensions></trkpt>
   <trkpt lat="59.0637183862" lon="30.0287036807"><ele>87.87</ele><time>2026-04-20T18:31:40.075Z</time><hdop>7.0</hdop><vdop>5.062</vdop><extensions><gom:speed>0.309</gom:speed></extensions></trkpt>
   <trkpt lat="59.0637187634" lon="30.0287027587"><ele>87.866</ele><time>2026-04-20T18:31:41.075Z</time><hdop>7.062</hdop><vdop>5.125</vdop><extensions><gom:speed>0.319</gom:speed></extensions></trkpt>
   <trkpt lat="59.0637186796" lon="30.0287023396"><ele>87.863</ele><time>2026-04-20T18:31:41.839Z</time><hdop>7.125</hdop><vdop>5.125</vdop><extensions><gom:speed>0.319</gom:speed></extensions></trkpt>
   <trkpt lat="59.0637197692" lon="30.028700747"><ele>87.855</ele><time>2026-04-20T18:31:43.075Z</time><hdop>7.25</hdop><vdop>5.375</vdop><extensions><gom:speed>0.299</gom:speed></extensions></trkpt>
   <trkpt lat="59.0637194758" lon="30.0286994897"><ele>87.847</ele><time>2026-04-20T18:31:44.075Z</time><hdop>7.25</hdop><vdop>5.25</vdop><extensions><gom:speed>0.278</gom:speed></extensions></trkpt>
   <trkpt lat="59.063719392" lon="30.0286992383"><ele>87.842</ele><time>2026-04-20T18:31:45.076Z</time><hdop>7.187</hdop><vdop>5.187</vdop><extensions><gom:speed>0.314</gom:speed></extensions></trkpt>
   <trkpt lat="59.0637194758" lon="30.0286990706"><ele>87.832</ele><time>2026-04-20T18:31:46.076Z</time><hdop>7.062</hdop><vdop>5.312</vdop><extensions><gom:speed>0.332</gom:speed></extensions></trkpt>
   <trkpt lat="59.0637195597" lon="30.0286985677"><ele>87.824</ele><time>2026-04-20T18:31:47.075Z</time><hdop>7.062</hdop><vdop>5.5</vdop><extensions><gom:speed>0.335</gom:speed></extensions></trkpt>
   <trkpt lat="59.0637192663" lon="30.0286990706"><ele>87.837</ele><time>2026-04-20T18:31:48.075Z</time><hdop>6.937</hdop><vdop>5.562</vdop><extensions><gom:speed>0.339</gom:speed></extensions></trkpt>
   <trkpt lat="59.0637191825" lon="30.0286988192"><ele>87.842</ele><time>2026-04-20T18:31:49.075Z</time><hdop>6.937</hdop><vdop>5.625</vdop><extensions><gom:speed>0.347</gom:speed></extensions></trkpt>
   <trkpt lat="59.0637192663" lon="30.0286977295"><ele>87.848</ele><time>2026-04-20T18:31:50.075Z</time><hdop>6.937</hdop><vdop>5.75</vdop><extensions><gom:speed>0.348</gom:speed></extensions></trkpt>
   <trkpt lat="59.0637197692" lon="30.0286977295"><ele>87.852</ele><time>2026-04-20T18:31:51.079Z</time><hdop>7.062</hdop><vdop>5.812</vdop><extensions><gom:speed>0.349</gom:speed></extensions></trkpt>
   <trkpt lat="59.0637192663" lon="30.0286955502"><ele>87.853</ele><time>2026-04-20T18:31:52.075Z</time><hdop>7.062</hdop><vdop>5.75</vdop><extensions><gom:speed>0.364</gom:speed></extensions></trkpt>
   <trkpt lat="59.0637190987" lon="30.0286933709"><ele>87.854</ele><time>2026-04-20T18:31:53.076Z</time><hdop>7.125</hdop><vdop>5.625</vdop><extensions><gom:speed>0.338</gom:speed></extensions></trkpt>
   <trkpt lat="59.0637188891" lon="30.0286911916"><ele>87.853</ele><time>2026-04-20T18:31:54.075Z</time><hdop>7.125</hdop><vdop>5.562</vdop><extensions><gom:speed>0.324</gom:speed></extensions></trkpt>
   <trkpt lat="59.0637190987" lon="30.0286893476"><ele>87.852</ele><time>2026-04-20T18:31:55.075Z</time><hdop>7.125</hdop><vdop>5.437</vdop><extensions><gom:speed>0.345</gom:speed></extensions></trkpt>
   <trkpt lat="59.0637192663" lon="30.0286896829"><ele>87.867</ele><time>2026-04-20T18:31:56.075Z</time><hdop>7.125</hdop><vdop>5.375</vdop><extensions><gom:speed>0.319</gom:speed></extensions></trkpt>
   <trkpt lat="59.0637195597" lon="30.0286909402"><ele>87.876</ele><time>2026-04-20T18:31:57.076Z</time><hdop>7.0</hdop><vdop>5.25</vdop><extensions><gom:speed>0.286</gom:speed></extensions></trkpt>
   <trkpt lat="59.0637203978" lon="30.0286893476"><ele>87.877</ele><time>2026-04-20T18:31:58.075Z</time><hdop>7.0</hdop><vdop>5.25</vdop><extensions><gom:speed>0.288</gom:speed></extensions></trkpt>
   <trkpt lat="59.0637204817" lon="30.0286880903"><ele>87.877</ele><time>2026-04-20T18:31:59.075Z</time><hdop>6.875</hdop><vdop>5.25</vdop><extensions><gom:speed>0.292</gom:speed></extensions></trkpt>
   <trkpt lat="59.0637206912" lon="30.0286872522"><ele>87.876</ele><time>2026-04-20T18:32:00.075Z</time><hdop>6.812</hdop><vdop>5.125</vdop><extensions><gom:speed>0.298</gom:speed></extensions></trkpt>
   <trkpt lat="59.0637211941" lon="30.0286865816"><ele>87.881</ele><time>2026-04-20T18:32:01.075Z</time><hdop>6.812</hdop><vdop>5.25</vdop><extensions><gom:speed>0.297</gom:speed></extensions></trkpt>
   <trkpt lat="59.0637211941" lon="30.0286878389"><ele>86.588</ele><time>2026-04-20T18:32:02.075Z</time><hdop>6.812</hdop><vdop>4.437</vdop><extensions><gom:speed>0.312</gom:speed></extensions></trkpt>
   <trkpt lat="59.0637214875" lon="30.0286912755"><ele>85.63</ele><time>2026-04-20T18:32:03.075Z</time><hdop>6.75</hdop><vdop>5.937</vdop><extensions><gom:speed>0.313</gom:speed></extensions></trkpt>
   <trkpt lat="59.0637220742" lon="30.0286934548"><ele>85.011</ele><time>2026-04-20T18:32:04.075Z</time><hdop>6.75</hdop><vdop>5.75</vdop><extensions><gom:speed>0.321</gom:speed></extensions></trkpt>
   <trkpt lat="59.0637236668" lon="30.0286947959"><ele>84.582</ele><time>2026-04-20T18:32:05.075Z</time><hdop>6.687</hdop><vdop>5.875</vdop><extensions><gom:speed>0.328</gom:speed></extensions></trkpt>
   <trkpt lat="59.0637257623" lon="30.0286946282"><ele>84.386</ele><time>2026-04-20T18:32:06.076Z</time><hdop>6.625</hdop><vdop>4.875</vdop><extensions><gom:speed>0.328</gom:speed></extensions></trkpt>
   <trkpt lat="59.0637257623" lon="30.0286941253"><ele>84.269</ele><time>2026-04-20T18:32:06.599Z</time><hdop>6.687</hdop><vdop>4.875</vdop><extensions><gom:speed>0.327</gom:speed></extensions></trkpt>
   <trkpt lat="59.0637284864" lon="30.0286951311"><ele>83.026</ele><time>2026-04-20T18:32:07.075Z</time><hdop>6.625</hdop><vdop>4.375</vdop><extensions><gom:speed>0.313</gom:speed></extensions></trkpt>
   <trkpt lat="59.0637294922" lon="30.0286956341"><ele>82.223</ele><time>2026-04-20T18:32:08.075Z</time><hdop>6.625</hdop><vdop>6.25</vdop><extensions><gom:speed>0.294</gom:speed></extensions></trkpt>
   <trkpt lat="59.0637302885" lon="30.0286967237"><ele>82.575</ele><time>2026-04-20T18:32:09.075Z</time><hdop>6.625</hdop><vdop>5.25</vdop><extensions><gom:speed>0.308</gom:speed></extensions></trkpt>
   <trkpt lat="59.0637310848" lon="30.0286983163"><ele>82.705</ele><time>2026-04-20T18:32:10.075Z</time><hdop>6.625</hdop><vdop>4.687</vdop><extensions><gom:speed>0.331</gom:speed></extensions></trkpt>
   <trkpt lat="59.063732384" lon="30.0286995736"><ele>82.906</ele><time>2026-04-20T18:32:11.075Z</time><hdop>6.562</hdop><vdop>4.375</vdop><extensions><gom:speed>0.346</gom:speed></extensions></trkpt>
   <trkpt lat="59.0637333898" lon="30.0287008308"><ele>82.587</ele><time>2026-04-20T18:32:12.075Z</time><hdop>6.625</hdop><vdop>7.437</vdop><extensions><gom:speed>0.324</gom:speed></extensions></trkpt>
   <trkpt lat="59.0637331803" lon="30.0287006632"><ele>82.397</ele><time>2026-04-20T18:32:12.759Z</time><hdop>6.687</hdop><vdop>7.437</vdop><extensions><gom:speed>0.322</gom:speed></extensions></trkpt>
   <trkpt lat="59.0637353595" lon="30.0287027587"><ele>82.213</ele><time>2026-04-20T18:32:14.076Z</time><hdop>6.75</hdop><vdop>7.375</vdop><extensions><gom:speed>0.321</gom:speed></extensions></trkpt>
   <trkpt lat="59.0637357786" lon="30.0287034292"><ele>81.481</ele><time>2026-04-20T18:32:15.075Z</time><hdop>6.75</hdop><vdop>6.312</vdop><extensions><gom:speed>0.296</gom:speed></extensions></trkpt>
   <trkpt lat="59.0637365749" lon="30.0287026749"><ele>81.13</ele><time>2026-04-20T18:32:16.075Z</time><hdop>6.75</hdop><vdop>5.437</vdop><extensions><gom:speed>0.308</gom:speed></extensions></trkpt>
   <trkpt lat="59.0637374969" lon="30.0287015852"><ele>81.133</ele><time>2026-04-20T18:32:17.076Z</time><hdop>6.75</hdop><vdop>4.875</vdop><extensions><gom:speed>0.359</gom:speed></extensions></trkpt>
   <trkpt lat="59.0637386704" lon="30.0287013338"><ele>81.007</ele><time>2026-04-20T18:32:18.075Z</time><hdop>6.687</hdop><vdop>4.375</vdop><extensions><gom:speed>0.346</gom:speed></extensions></trkpt>
   <trkpt lat="59.0637387961" lon="30.0287012499"><ele>80.932</ele><time>2026-04-20T18:32:18.921Z</time><hdop>6.75</hdop><vdop>4.375</vdop><extensions><gom:speed>0.346</gom:speed></extensions></trkpt>
   <trkpt lat="59.0637405982" lon="30.0286995736"><ele>80.679</ele><time>2026-04-20T18:32:20.076Z</time><hdop>6.687</hdop><vdop>7.0</vdop><extensions><gom:speed>0.315</gom:speed></extensions></trkpt>
   <trkpt lat="59.0637412688" lon="30.0286988192"><ele>80.683</ele><time>2026-04-20T18:32:21.075Z</time><hdop>6.687</hdop><vdop>6.562</vdop><extensions><gom:speed>0.316</gom:speed></extensions></trkpt>
   <trkpt lat="59.0637417717" lon="30.0286986515"><ele>80.733</ele><time>2026-04-20T18:32:22.075Z</time><hdop>6.625</hdop><vdop>5.312</vdop><extensions><gom:speed>0.328</gom:speed></extensions></trkpt>
   <trkpt lat="59.0637427775" lon="30.0286982324"><ele>80.844</ele><time>2026-04-20T18:32:23.075Z</time><hdop>6.562</hdop><vdop>6.312</vdop><extensions><gom:speed>0.297</gom:speed></extensions></trkpt>
   <trkpt lat="59.0637436995" lon="30.0286974781"><ele>80.781</ele><time>2026-04-20T18:32:24.076Z</time><hdop>6.562</hdop><vdop>6.187</vdop><extensions><gom:speed>0.304</gom:speed></extensions></trkpt>
   <trkpt lat="59.0637447892" lon="30.0286965561"><ele>80.657</ele><time>2026-04-20T18:32:25.075Z</time><hdop>6.562</hdop><vdop>6.0</vdop><extensions><gom:speed>0.314</gom:speed></extensions></trkpt>
   <trkpt lat="59.0637465913" lon="30.0286952988"><ele>80.619</ele><time>2026-04-20T18:32:26.075Z</time><hdop>6.5</hdop><vdop>5.812</vdop><extensions><gom:speed>0.308</gom:speed></extensions></trkpt>
   <trkpt lat="59.0637472618" lon="30.0286950473"><ele>81.266</ele><time>2026-04-20T18:32:27.075Z</time><hdop>6.5</hdop><vdop>4.562</vdop><extensions><gom:speed>0.326</gom:speed></extensions></trkpt>
   <trkpt lat="59.0637477648" lon="30.0286951311"><ele>81.891</ele><time>2026-04-20T18:32:28.075Z</time><hdop>6.5</hdop><vdop>5.75</vdop><extensions><gom:speed>0.293</gom:speed></extensions></trkpt>
   <trkpt lat="59.0637483934" lon="30.0286955502"><ele>82.286</ele><time>2026-04-20T18:32:29.075Z</time><hdop>6.5</hdop><vdop>5.812</vdop><extensions><gom:speed>0.282</gom:speed></extensions></trkpt>
   <trkpt lat="59.063749064" lon="30.0286954664"><ele>82.532</ele><time>2026-04-20T18:32:30.075Z</time><hdop>6.437</hdop><vdop>5.75</vdop><extensions><gom:speed>0.266</gom:speed></extensions></trkpt>
   <trkpt lat="59.0637496926" lon="30.0286953826"><ele>82.671</ele><time>2026-04-20T18:32:31.076Z</time><hdop>6.437</hdop><vdop>5.562</vdop><extensions><gom:speed>0.265</gom:speed></extensions></trkpt>
   <trkpt lat="59.0637504889" lon="30.0286948797"><ele>82.933</ele><time>2026-04-20T18:32:32.075Z</time><hdop>6.375</hdop><vdop>5.562</vdop><extensions><gom:speed>0.276</gom:speed></extensions></trkpt>
   <trkpt lat="59.0637510756" lon="30.0286946282"><ele>83.769</ele><time>2026-04-20T18:32:33.075Z</time><hdop>6.312</hdop><vdop>4.5</vdop><extensions><gom:speed>0.317</gom:speed></extensions></trkpt>
   <trkpt lat="59.0637521653" lon="30.02869379"><ele>84.958</ele><time>2026-04-20T18:32:34.075Z</time><hdop>6.25</hdop><vdop>5.562</vdop><extensions><gom:speed>0.305</gom:speed></extensions></trkpt>
   <trkpt lat="59.063753674" lon="30.0286921975"><ele>85.932</ele><time>2026-04-20T18:32:35.075Z</time><hdop>6.187</hdop><vdop>4.625</vdop><extensions><gom:speed>0.29</gom:speed></extensions></trkpt>
   <trkpt lat="59.0637549732" lon="30.0286903535"><ele>86.626</ele><time>2026-04-20T18:32:36.075Z</time><hdop>6.187</hdop><vdop>5.437</vdop><extensions><gom:speed>0.265</gom:speed></extensions></trkpt>
   <trkpt lat="59.0637563981" lon="30.0286877551"><ele>87.196</ele><time>2026-04-20T18:32:37.075Z</time><hdop>6.125</hdop><vdop>4.5</vdop><extensions><gom:speed>0.317</gom:speed></extensions></trkpt>
   <trkpt lat="59.0637585774" lon="30.0286836479"><ele>87.808</ele><time>2026-04-20T18:32:38.075Z</time><hdop>6.125</hdop><vdop>5.312</vdop><extensions><gom:speed>0.317</gom:speed></extensions></trkpt>
   <trkpt lat="59.0637596671" lon="30.0286806305"><ele>87.985</ele><time>2026-04-20T18:32:39.076Z</time><hdop>6.125</hdop><vdop>5.5</vdop><extensions><gom:speed>0.355</gom:speed></extensions></trkpt>
   <trkpt lat="59.0637612596" lon="30.0286780321"><ele>88.588</ele><time>2026-04-20T18:32:40.075Z</time><hdop>6.187</hdop><vdop>5.562</vdop><extensions><gom:speed>0.341</gom:speed></extensions></trkpt>
   <trkpt lat="59.0637625588" lon="30.0286754337"><ele>88.604</ele><time>2026-04-20T18:32:41.075Z</time><hdop>6.187</hdop><vdop>4.687</vdop><extensions><gom:speed>0.345</gom:speed></extensions></trkpt>
   <trkpt lat="59.0637636904" lon="30.0286741764"><ele>88.695</ele><time>2026-04-20T18:32:42.075Z</time><hdop>6.187</hdop><vdop>4.312</vdop><extensions><gom:speed>0.345</gom:speed></extensions></trkpt>
   <trkpt lat="59.0637644867" lon="30.0286732544"><ele>88.796</ele><time>2026-04-20T18:32:43.075Z</time><hdop>6.187</hdop><vdop>3.937</vdop><extensions><gom:speed>0.359</gom:speed></extensions></trkpt>
   <trkpt lat="59.0637642771" lon="30.0286733382"><ele>88.857</ele><time>2026-04-20T18:32:43.680Z</time><hdop>6.25</hdop><vdop>3.937</vdop><extensions><gom:speed>0.361</gom:speed></extensions></trkpt>
   <trkpt lat="59.0637655763" lon="30.0286712427"><ele>88.443</ele><time>2026-04-20T18:32:45.075Z</time><hdop>6.25</hdop><vdop>5.75</vdop><extensions><gom:speed>0.325</gom:speed></extensions></trkpt>
   <trkpt lat="59.0637652829" lon="30.0286716618"><ele>88.359</ele><time>2026-04-20T18:32:46.075Z</time><hdop>6.25</hdop><vdop>4.937</vdop><extensions><gom:speed>0.326</gom:speed></extensions></trkpt>
   <trkpt lat="59.0637654925" lon="30.0286698178"><ele>87.923</ele><time>2026-04-20T18:32:47.075Z</time><hdop>6.25</hdop><vdop>4.375</vdop><extensions><gom:speed>0.316</gom:speed></extensions></trkpt>
   <trkpt lat="59.0637662888" lon="30.0286695663"><ele>87.506</ele><time>2026-04-20T18:32:48.075Z</time><hdop>6.125</hdop><vdop>3.875</vdop><extensions><gom:speed>0.352</gom:speed></extensions></trkpt>
   <trkpt lat="59.063767085" lon="30.0286691472"><ele>87.268</ele><time>2026-04-20T18:32:49.075Z</time><hdop>6.125</hdop><vdop>3.625</vdop><extensions><gom:speed>0.355</gom:speed></extensions></trkpt>
   <trkpt lat="59.0637671689" lon="30.0286690634"><ele>87.125</ele><time>2026-04-20T18:32:49.841Z</time><hdop>6.187</hdop><vdop>3.625</vdop><extensions><gom:speed>0.355</gom:speed></extensions></trkpt>
   <trkpt lat="59.0637686776" lon="30.0286677223"><ele>87.021</ele><time>2026-04-20T18:32:51.075Z</time><hdop>6.25</hdop><vdop>5.875</vdop><extensions><gom:speed>0.349</gom:speed></extensions></trkpt>
   <trkpt lat="59.0637692643" lon="30.0286674709"><ele>86.875</ele><time>2026-04-20T18:32:52.076Z</time><hdop>6.25</hdop><vdop>5.75</vdop><extensions><gom:speed>0.299</gom:speed></extensions></trkpt>
   <trkpt lat="59.0637701864" lon="30.0286668841"><ele>87.166</ele><time>2026-04-20T18:32:53.075Z</time><hdop>6.312</hdop><vdop>5.0</vdop><extensions><gom:speed>0.316</gom:speed></extensions></trkpt>
   <trkpt lat="59.0637705635" lon="30.0286668841"><ele>87.585</ele><time>2026-04-20T18:32:54.075Z</time><hdop>6.375</hdop><vdop>5.75</vdop><extensions><gom:speed>0.298</gom:speed></extensions></trkpt>
   <trkpt lat="59.0637707731" lon="30.0286677223"><ele>87.803</ele><time>2026-04-20T18:32:55.075Z</time><hdop>6.437</hdop><vdop>5.0</vdop><extensions><gom:speed>0.296</gom:speed></extensions></trkpt>
   <trkpt lat="59.0637706893" lon="30.0286689796"><ele>88.143</ele><time>2026-04-20T18:32:56.075Z</time><hdop>6.375</hdop><vdop>5.875</vdop><extensions><gom:speed>0.27</gom:speed></extensions></trkpt>
   <trkpt lat="59.0637703959" lon="30.0286710751"><ele>88.565</ele><time>2026-04-20T18:32:57.075Z</time><hdop>6.375</hdop><vdop>5.875</vdop><extensions><gom:speed>0.475</gom:speed></extensions></trkpt>
   <trkpt lat="59.0637710665" lon="30.0286705722"><ele>88.795</ele><time>2026-04-20T18:32:58.075Z</time><hdop>6.437</hdop><vdop>5.625</vdop><extensions><gom:speed>0.267</gom:speed></extensions></trkpt>
   <trkpt lat="59.0637713598" lon="30.0286700693"><ele>88.711</ele><time>2026-04-20T18:32:59.080Z</time><hdop>6.5</hdop><vdop>4.687</vdop><extensions><gom:speed>0.267</gom:speed></extensions></trkpt>
   <trkpt lat="59.0637704797" lon="30.0286716618"><ele>88.584</ele><time>2026-04-20T18:33:00.075Z</time><hdop>6.562</hdop><vdop>5.312</vdop><extensions><gom:speed>0.268</gom:speed></extensions></trkpt>
   <trkpt lat="59.0637702702" lon="30.0286726676"><ele>88.949</ele><time>2026-04-20T18:33:01.075Z</time><hdop>6.562</hdop><vdop>4.562</vdop><extensions><gom:speed>0.309</gom:speed></extensions></trkpt>
   <trkpt lat="59.0637699768" lon="30.0286737573"><ele>89.529</ele><time>2026-04-20T18:33:02.075Z</time><hdop>6.562</hdop><vdop>3.937</vdop><extensions><gom:speed>0.321</gom:speed></extensions></trkpt>
   <trkpt lat="59.0637699768" lon="30.028675266"><ele>90.074</ele><time>2026-04-20T18:33:03.076Z</time><hdop>6.5</hdop><vdop>3.625</vdop><extensions><gom:speed>0.318</gom:speed></extensions></trkpt>
   <trkpt lat="59.0637705635" lon="30.0286764395"><ele>90.652</ele><time>2026-04-20T18:33:04.075Z</time><hdop>6.5</hdop><vdop>5.812</vdop><extensions><gom:speed>0.287</gom:speed></extensions></trkpt>
   <trkpt lat="59.063771276" lon="30.0286780321"><ele>90.805</ele><time>2026-04-20T18:33:05.076Z</time><hdop>6.375</hdop><vdop>4.812</vdop><extensions><gom:speed>0.323</gom:speed></extensions></trkpt>
   <trkpt lat="59.063772198" lon="30.0286796246"><ele>90.979</ele><time>2026-04-20T18:33:06.075Z</time><hdop>6.312</hdop><vdop>6.0</vdop><extensions><gom:speed>0.288</gom:speed></extensions></trkpt>
   <trkpt lat="59.0637731619" lon="30.0286809657"><ele>90.828</ele><time>2026-04-20T18:33:07.075Z</time><hdop>6.312</hdop><vdop>5.187</vdop><extensions><gom:speed>0.316</gom:speed></extensions></trkpt>
   <trkpt lat="59.0637744611" lon="30.0286818877"><ele>90.504</ele><time>2026-04-20T18:33:08.076Z</time><hdop>6.312</hdop><vdop>4.812</vdop><extensions><gom:speed>0.343</gom:speed></extensions></trkpt>
   <trkpt lat="59.0637755927" lon="30.0286819716"><ele>90.421</ele><time>2026-04-20T18:33:09.075Z</time><hdop>6.312</hdop><vdop>6.25</vdop><extensions><gom:speed>0.305</gom:speed></extensions></trkpt>
   <trkpt lat="59.0637759699" lon="30.028683145"><ele>90.977</ele><time>2026-04-20T18:33:10.075Z</time><hdop>6.312</hdop><vdop>5.375</vdop><extensions><gom:speed>0.315</gom:speed></extensions></trkpt>
   <trkpt lat="59.0637761794" lon="30.0286859949"><ele>91.692</ele><time>2026-04-20T18:33:11.075Z</time><hdop>6.312</hdop><vdop>6.5</vdop><extensions><gom:speed>0.283</gom:speed></extensions></trkpt>
   <trkpt lat="59.063775886" lon="30.0286899344"><ele>92.402</ele><time>2026-04-20T18:33:12.076Z</time><hdop>6.312</hdop><vdop>5.875</vdop><extensions><gom:speed>0.334</gom:speed></extensions></trkpt>
   <trkpt lat="59.0637751736" lon="30.0286951311"><ele>93.678</ele><time>2026-04-20T18:33:13.075Z</time><hdop>6.312</hdop><vdop>6.375</vdop><extensions><gom:speed>0.305</gom:speed></extensions></trkpt>
   <trkpt lat="59.0637741678" lon="30.0287001603"><ele>94.227</ele><time>2026-04-20T18:33:14.075Z</time><hdop>6.375</hdop><vdop>5.75</vdop><extensions><gom:speed>0.302</gom:speed></extensions></trkpt>
   <trkpt lat="59.0637738744" lon="30.028700747"><ele>94.555</ele><time>2026-04-20T18:33:14.600Z</time><hdop>6.437</hdop><vdop>5.75</vdop><extensions><gom:speed>0.303</gom:speed></extensions></trkpt>
   <trkpt lat="59.063773581" lon="30.0287042674"><ele>94.422</ele><time>2026-04-20T18:33:15.075Z</time><hdop>6.437</hdop><vdop>6.625</vdop><extensions><gom:speed>0.267</gom:speed></extensions></trkpt>
   <trkpt lat="59.0637731619" lon="30.0287050218"><ele>94.061</ele><time>2026-04-20T18:33:16.075Z</time><hdop>6.5</hdop><vdop>6.562</vdop><extensions><gom:speed>0.432</gom:speed></extensions></trkpt>
   <trkpt lat="59.0637737906" lon="30.0287079555"><ele>93.299</ele><time>2026-04-20T18:33:17.076Z</time><hdop>6.562</hdop><vdop>6.437</vdop><extensions><gom:speed>0.292</gom:speed></extensions></trkpt>
   <trkpt lat="59.0637740839" lon="30.0287091289"><ele>93.026</ele><time>2026-04-20T18:33:18.075Z</time><hdop>6.562</hdop><vdop>5.5</vdop><extensions><gom:speed>0.289</gom:speed></extensions></trkpt>
   <trkpt lat="59.063774964" lon="30.0287097995"><ele>92.451</ele><time>2026-04-20T18:33:19.075Z</time><hdop>6.625</hdop><vdop>6.312</vdop><extensions><gom:speed>0.257</gom:speed></extensions></trkpt>
   <trkpt lat="59.0637756765" lon="30.0287106377"><ele>92.229</ele><time>2026-04-20T18:33:20.076Z</time><hdop>6.562</hdop><vdop>5.5</vdop><extensions><gom:speed>0.269</gom:speed></extensions></trkpt>
   <trkpt lat="59.0637756765" lon="30.02871047"><ele>92.096</ele><time>2026-04-20T18:33:20.760Z</time><hdop>6.625</hdop><vdop>5.5</vdop><extensions><gom:speed>0.27</gom:speed></extensions></trkpt>
   <trkpt lat="59.063777772" lon="30.0287096318"><ele>91.801</ele><time>2026-04-20T18:33:22.075Z</time><hdop>6.562</hdop><vdop>6.5</vdop><extensions><gom:speed>0.378</gom:speed></extensions></trkpt>
   <trkpt lat="59.0637787778" lon="30.0287085422"><ele>91.082</ele><time>2026-04-20T18:33:23.075Z</time><hdop>6.562</hdop><vdop>6.437</vdop><extensions><gom:speed>0.278</gom:speed></extensions></trkpt>
   <trkpt lat="59.0637790712" lon="30.0287060276"><ele>90.038</ele><time>2026-04-20T18:33:24.075Z</time><hdop>6.562</hdop><vdop>5.375</vdop><extensions><gom:speed>0.283</gom:speed></extensions></trkpt>
   <trkpt lat="59.0637792807" lon="30.0287031778"><ele>89.747</ele><time>2026-04-20T18:33:25.075Z</time><hdop>6.5</hdop><vdop>4.937</vdop><extensions><gom:speed>0.314</gom:speed></extensions></trkpt>
   <trkpt lat="59.0637793645" lon="30.0287012499"><ele>89.707</ele><time>2026-04-20T18:33:26.076Z</time><hdop>6.5</hdop><vdop>6.437</vdop><extensions><gom:speed>0.289</gom:speed></extensions></trkpt>
   <trkpt lat="59.0637789874" lon="30.0287006632"><ele>89.684</ele><time>2026-04-20T18:33:26.921Z</time><hdop>6.562</hdop><vdop>6.437</vdop><extensions><gom:speed>0.287</gom:speed></extensions></trkpt>
   <trkpt lat="59.0637787778" lon="30.0286969752"><ele>89.169</ele><time>2026-04-20T18:33:28.075Z</time><hdop>6.625</hdop><vdop>6.5</vdop><extensions><gom:speed>0.285</gom:speed></extensions></trkpt>
   <trkpt lat="59.0637784844" lon="30.0286939577"><ele>89.06</ele><time>2026-04-20T18:33:29.075Z</time><hdop>6.625</hdop><vdop>5.562</vdop><extensions><gom:speed>0.304</gom:speed></extensions></trkpt>
   <trkpt lat="59.0637775624" lon="30.0286905211"><ele>88.635</ele><time>2026-04-20T18:33:30.075Z</time><hdop>6.625</hdop><vdop>6.25</vdop><extensions><gom:speed>0.277</gom:speed></extensions></trkpt>
   <trkpt lat="59.0637766823" lon="30.0286874198"><ele>88.144</ele><time>2026-04-20T18:33:31.076Z</time><hdop>6.562</hdop><vdop>5.312</vdop><extensions><gom:speed>0.305</gom:speed></extensions></trkpt>
   <trkpt lat="59.063776389" lon="30.0286839832"><ele>87.526</ele><time>2026-04-20T18:33:32.075Z</time><hdop>6.625</hdop><vdop>6.0</vdop><extensions><gom:speed>0.277</gom:speed></extensions></trkpt>
   <trkpt lat="59.063776389" lon="30.0286801275"><ele>87.252</ele><time>2026-04-20T18:33:33.075Z</time><hdop>6.687</hdop><vdop>5.187</vdop><extensions><gom:speed>0.316</gom:speed></extensions></trkpt>
   <trkpt lat="59.0637764728" lon="30.0286753499"><ele>86.989</ele><time>2026-04-20T18:33:34.076Z</time><hdop>6.75</hdop><vdop>5.875</vdop><extensions><gom:speed>0.286</gom:speed></extensions></trkpt>
   <trkpt lat="59.063776389" lon="30.0286717456"><ele>86.981</ele><time>2026-04-20T18:33:35.075Z</time><hdop>6.75</hdop><vdop>5.062</vdop><extensions><gom:speed>0.335</gom:speed></extensions></trkpt>
   <trkpt lat="59.0637761794" lon="30.0286677223"><ele>86.878</ele><time>2026-04-20T18:33:36.075Z</time><hdop>6.812</hdop><vdop>5.812</vdop><extensions><gom:speed>0.296</gom:speed></extensions></trkpt>
   <trkpt lat="59.0637757603" lon="30.0286645372"><ele>86.92</ele><time>2026-04-20T18:33:37.075Z</time><hdop>6.812</hdop><vdop>5.062</vdop><extensions><gom:speed>0.342</gom:speed></extensions></trkpt>
   <trkpt lat="59.0637753831" lon="30.0286619388"><ele>87.475</ele><time>2026-04-20T18:33:38.075Z</time><hdop>6.875</hdop><vdop>5.562</vdop><extensions><gom:speed>0.318</gom:speed></extensions></trkpt>
   <trkpt lat="59.0637747964" lon="30.0286604301"><ele>88.134</ele><time>2026-04-20T18:33:39.076Z</time><hdop>6.875</hdop><vdop>4.875</vdop><extensions><gom:speed>0.32</gom:speed></extensions></trkpt>
   <trkpt lat="59.0637738744" lon="30.0286587537"><ele>88.265</ele><time>2026-04-20T18:33:40.075Z</time><hdop>7.0</hdop><vdop>5.562</vdop><extensions><gom:speed>0.282</gom:speed></extensions></trkpt>
   <trkpt lat="59.0637725752" lon="30.0286583346"><ele>88.313</ele><time>2026-04-20T18:33:41.075Z</time><hdop>7.0</hdop><vdop>5.0</vdop><extensions><gom:speed>0.337</gom:speed></extensions></trkpt>
   <trkpt lat="59.0637711922" lon="30.0286572449"><ele>88.588</ele><time>2026-04-20T18:33:42.075Z</time><hdop>7.0</hdop><vdop>5.562</vdop><extensions><gom:speed>0.302</gom:speed></extensions></trkpt>
   <trkpt lat="59.0637702702" lon="30.0286571611"><ele>89.067</ele><time>2026-04-20T18:33:43.076Z</time><hdop>7.062</hdop><vdop>5.187</vdop><extensions><gom:speed>0.292</gom:speed></extensions></trkpt>
   <trkpt lat="59.0637700606" lon="30.0286575802"><ele>89.474</ele><time>2026-04-20T18:33:44.075Z</time><hdop>7.062</hdop><vdop>5.75</vdop><extensions><gom:speed>0.258</gom:speed></extensions></trkpt>
   <trkpt lat="59.0637700606" lon="30.0286584184"><ele>89.864</ele><time>2026-04-20T18:33:45.075Z</time><hdop>7.0</hdop><vdop>5.312</vdop><extensions><gom:speed>0.284</gom:speed></extensions></trkpt>
   <trkpt lat="59.063769893" lon="30.0286579993"><ele>90.378</ele><time>2026-04-20T18:33:46.076Z</time><hdop>7.0</hdop><vdop>6.062</vdop><extensions><gom:speed>0.256</gom:speed></extensions></trkpt>
   <trkpt lat="59.0637696834" lon="30.0286577479"><ele>90.535</ele><time>2026-04-20T18:33:47.076Z</time><hdop>6.937</hdop><vdop>6.187</vdop><extensions><gom:speed>0.32</gom:speed></extensions></trkpt>
   <trkpt lat="59.0637691805" lon="30.0286575802"><ele>90.377</ele><time>2026-04-20T18:33:48.075Z</time><hdop>6.937</hdop><vdop>6.125</vdop><extensions><gom:speed>0.284</gom:speed></extensions></trkpt>
   <trkpt lat="59.0637685938" lon="30.0286578317"><ele>89.696</ele><time>2026-04-20T18:33:49.075Z</time><hdop>6.875</hdop><vdop>5.062</vdop><extensions><gom:speed>0.304</gom:speed></extensions></trkpt>
   <trkpt lat="59.0637677975" lon="30.0286586699"><ele>89.743</ele><time>2026-04-20T18:33:50.075Z</time><hdop>6.75</hdop><vdop>4.687</vdop><extensions><gom:speed>0.346</gom:speed></extensions></trkpt>
   <trkpt lat="59.0637674622" lon="30.028657664"><ele>89.482</ele><time>2026-04-20T18:33:51.088Z</time><hdop>6.812</hdop><vdop>4.375</vdop><extensions><gom:speed>0.347</gom:speed></extensions></trkpt>
   <trkpt lat="59.0637671689" lon="30.0286588375"><ele>89.326</ele><time>2026-04-20T18:33:51.680Z</time><hdop>6.812</hdop><vdop>4.375</vdop><extensions><gom:speed>0.343</gom:speed></extensions></trkpt>
   <trkpt lat="59.0637658697" lon="30.0286644534"><ele>89.12</ele><time>2026-04-20T18:33:53.075Z</time><hdop>6.875</hdop><vdop>5.375</vdop><extensions><gom:speed>0.261</gom:speed></extensions></trkpt>
   <trkpt lat="59.0637650734" lon="30.0286687281"><ele>89.124</ele><time>2026-04-20T18:33:54.075Z</time><hdop>6.937</hdop><vdop>5.0</vdop><extensions><gom:speed>0.231</gom:speed></extensions></trkpt>
   <trkpt lat="59.0637638999" lon="30.0286738411"><ele>89.235</ele><time>2026-04-20T18:33:55.075Z</time><hdop>6.937</hdop><vdop>4.875</vdop><extensions><gom:speed>0.208</gom:speed></extensions></trkpt>
   <trkpt lat="59.0637627684" lon="30.0286791217"><ele>89.321</ele><time>2026-04-20T18:33:56.075Z</time><hdop>7.0</hdop><vdop>4.812</vdop><extensions><gom:speed>0.212</gom:speed></extensions></trkpt>
   <trkpt lat="59.0637609663" lon="30.0286869169"><ele>89.361</ele><time>2026-04-20T18:33:57.075Z</time><hdop>7.0</hdop><vdop>4.687</vdop><extensions><gom:speed>0.208</gom:speed></extensions></trkpt>
   <trkpt lat="59.0637606729" lon="30.0286876712"><ele>89.384</ele><time>2026-04-20T18:33:57.841Z</time><hdop>7.062</hdop><vdop>4.687</vdop><extensions><gom:speed>0.208</gom:speed></extensions></trkpt>
   <trkpt lat="59.063757362" lon="30.0286988192"><ele>88.778</ele><time>2026-04-20T18:33:59.075Z</time><hdop>7.062</hdop><vdop>5.062</vdop><extensions><gom:speed>0.247</gom:speed></extensions></trkpt>
   <trkpt lat="59.063755979" lon="30.0287040998"><ele>88.49</ele><time>2026-04-20T18:34:00.075Z</time><hdop>7.062</hdop><vdop>4.875</vdop><extensions><gom:speed>0.245</gom:speed></extensions></trkpt>
   <trkpt lat="59.0637544703" lon="30.028708626"><ele>87.968</ele><time>2026-04-20T18:34:01.075Z</time><hdop>7.062</hdop><vdop>4.812</vdop><extensions><gom:speed>0.247</gom:speed></extensions></trkpt>
   <trkpt lat="59.0637528777" lon="30.0287131522"><ele>88.092</ele><time>2026-04-20T18:34:02.076Z</time><hdop>6.937</hdop><vdop>4.25</vdop><extensions><gom:speed>0.265</gom:speed></extensions></trkpt>
   <trkpt lat="59.0637515785" lon="30.0287173432"><ele>87.904</ele><time>2026-04-20T18:34:03.075Z</time><hdop>6.875</hdop><vdop>5.062</vdop><extensions><gom:speed>0.242</gom:speed></extensions></trkpt>
   <trkpt lat="59.0637502793" lon="30.0287198578"><ele>87.768</ele><time>2026-04-20T18:34:04.075Z</time><hdop>6.75</hdop><vdop>4.687</vdop><extensions><gom:speed>0.277</gom:speed></extensions></trkpt>
   <trkpt lat="59.0637489801" lon="30.0287220371"><ele>88.03</ele><time>2026-04-20T18:34:05.076Z</time><hdop>6.687</hdop><vdop>5.187</vdop><extensions><gom:speed>0.265</gom:speed></extensions></trkpt>
   <trkpt lat="59.0637476809" lon="30.028724384"><ele>88.073</ele><time>2026-04-20T18:34:06.075Z</time><hdop>6.562</hdop><vdop>5.125</vdop><extensions><gom:speed>0.244</gom:speed></extensions></trkpt>
   <trkpt lat="59.0637468847" lon="30.0287255575"><ele>88.047</ele><time>2026-04-20T18:34:07.081Z</time><hdop>6.562</hdop><vdop>5.062</vdop><extensions><gom:speed>0.242</gom:speed></extensions></trkpt>
   <trkpt lat="59.0637455855" lon="30.028728072"><ele>88.253</ele><time>2026-04-20T18:34:08.076Z</time><hdop>6.437</hdop><vdop>4.937</vdop><extensions><gom:speed>0.209</gom:speed></extensions></trkpt>
   <trkpt lat="59.0637445796" lon="30.0287305866"><ele>88.37</ele><time>2026-04-20T18:34:09.075Z</time><hdop>6.375</hdop><vdop>4.937</vdop><extensions><gom:speed>0.194</gom:speed></extensions></trkpt>
   <trkpt lat="59.0637437834" lon="30.0287328497"><ele>88.34</ele><time>2026-04-20T18:34:10.075Z</time><hdop>6.25</hdop><vdop>4.937</vdop><extensions><gom:speed>0.199</gom:speed></extensions></trkpt>
   <trkpt lat="59.0637428613" lon="30.0287357834"><ele>88.391</ele><time>2026-04-20T18:34:11.075Z</time><hdop>6.125</hdop><vdop>5.0</vdop><extensions><gom:speed>0.276</gom:speed></extensions></trkpt>
   <trkpt lat="59.0637422746" lon="30.0287376274"><ele>87.884</ele><time>2026-04-20T18:34:12.075Z</time><hdop>6.062</hdop><vdop>4.437</vdop><extensions><gom:speed>0.296</gom:speed></extensions></trkpt>
   <trkpt lat="59.0637415622" lon="30.0287400581"><ele>87.688</ele><time>2026-04-20T18:34:13.075Z</time><hdop>5.937</hdop><vdop>4.187</vdop><extensions><gom:speed>0.295</gom:speed></extensions></trkpt>
   <trkpt lat="59.0637409754" lon="30.0287417345"><ele>87.595</ele><time>2026-04-20T18:34:14.076Z</time><hdop>5.937</hdop><vdop>3.937</vdop><extensions><gom:speed>0.311</gom:speed></extensions></trkpt>
   <trkpt lat="59.063740263" lon="30.0287424889"><ele>87.593</ele><time>2026-04-20T18:34:15.075Z</time><hdop>5.875</hdop><vdop>3.75</vdop><extensions><gom:speed>0.327</gom:speed></extensions></trkpt>
   <trkpt lat="59.0637395924" lon="30.0287434947"><ele>87.459</ele><time>2026-04-20T18:34:16.075Z</time><hdop>5.875</hdop><vdop>3.625</vdop><extensions><gom:speed>0.321</gom:speed></extensions></trkpt>
   <trkpt lat="59.0637389638" lon="30.0287443329"><ele>87.074</ele><time>2026-04-20T18:34:17.075Z</time><hdop>5.937</hdop><vdop>3.5</vdop><extensions><gom:speed>0.319</gom:speed></extensions></trkpt>
   <trkpt lat="59.063738377" lon="30.0287443329"><ele>86.685</ele><time>2026-04-20T18:34:18.075Z</time><hdop>5.937</hdop><vdop>3.375</vdop><extensions><gom:speed>0.316</gom:speed></extensions></trkpt>
   <trkpt lat="59.0637380837" lon="30.028744752"><ele>86.386</ele><time>2026-04-20T18:34:19.075Z</time><hdop>5.937</hdop><vdop>6.312</vdop><extensions><gom:speed>0.33</gom:speed></extensions></trkpt>
   <trkpt lat="59.0637378741" lon="30.0287449196"><ele>86.338</ele><time>2026-04-20T18:34:20.075Z</time><hdop>6.062</hdop><vdop>6.5</vdop><extensions><gom:speed>0.354</gom:speed></extensions></trkpt>
   <trkpt lat="59.0637374969" lon="30.0287448358"><ele>86.362</ele><time>2026-04-20T18:34:21.075Z</time><hdop>6.187</hdop><vdop>6.812</vdop><extensions><gom:speed>0.396</gom:speed></extensions></trkpt>
   <trkpt lat="59.063736994" lon="30.0287444167"><ele>86.399</ele><time>2026-04-20T18:34:22.075Z</time><hdop>6.375</hdop><vdop>6.937</vdop><extensions><gom:speed>0.449</gom:speed></extensions></trkpt>
   <trkpt lat="59.0637373712" lon="30.0287434947"><ele>86.422</ele><time>2026-04-20T18:34:22.601Z</time><hdop>6.562</hdop><vdop>6.937</vdop><extensions><gom:speed>0.461</gom:speed></extensions></trkpt>
   <trkpt lat="59.063736072" lon="30.0287440815"><ele>86.474</ele><time>2026-04-20T18:34:23.075Z</time><hdop>6.812</hdop><vdop>7.062</vdop><extensions><gom:speed>0.499</gom:speed></extensions></trkpt>
   <trkpt lat="59.0637358625" lon="30.0287434947"><ele>86.573</ele><time>2026-04-20T18:34:24.076Z</time><hdop>7.062</hdop><vdop>7.125</vdop><extensions><gom:speed>0.551</gom:speed></extensions></trkpt>
   <trkpt lat="59.0637353595" lon="30.0287429918"><ele>86.546</ele><time>2026-04-20T18:34:25.075Z</time><hdop>7.375</hdop><vdop>7.187</vdop><extensions><gom:speed>0.601</gom:speed></extensions></trkpt>
   <trkpt lat="59.0637344794" lon="30.0287431594"><ele>86.383</ele><time>2026-04-20T18:34:26.075Z</time><hdop>7.75</hdop><vdop>7.312</vdop><extensions><gom:speed>0.639</gom:speed></extensions></trkpt>
   <trkpt lat="59.0637334736" lon="30.0287432433"><ele>86.145</ele><time>2026-04-20T18:34:27.075Z</time><hdop>8.25</hdop><vdop>7.312</vdop><extensions><gom:speed>0.659</gom:speed></extensions></trkpt>
   <trkpt lat="59.063732384" lon="30.0287432433"><ele>86.043</ele><time>2026-04-20T18:34:28.075Z</time><hdop>8.75</hdop><vdop>7.062</vdop><extensions><gom:speed>0.682</gom:speed></extensions></trkpt>
   <trkpt lat="59.0637334736" lon="30.0287418183"><ele>85.983</ele><time>2026-04-20T18:34:28.761Z</time><hdop>9.062</hdop><vdop>7.062</vdop><extensions><gom:speed>0.69</gom:speed></extensions></trkpt>
   <trkpt lat="59.0637297856" lon="30.0287436624"><ele>86.057</ele><time>2026-04-20T18:34:30.076Z</time><hdop>9.937</hdop><vdop>6.812</vdop><extensions><gom:speed>0.766</gom:speed></extensions></trkpt>
   <trkpt lat="59.0637288636" lon="30.0287435785"><ele>86.123</ele><time>2026-04-20T18:34:31.075Z</time><hdop>10.375</hdop><vdop>6.687</vdop><extensions><gom:speed>0.768</gom:speed></extensions></trkpt>
   <trkpt lat="59.0637283607" lon="30.0287430756"><ele>86.175</ele><time>2026-04-20T18:34:32.075Z</time><hdop>10.687</hdop><vdop>6.625</vdop><extensions><gom:speed>0.769</gom:speed></extensions></trkpt>
   <trkpt lat="59.0637279835" lon="30.0287415669"><ele>86.214</ele><time>2026-04-20T18:34:33.075Z</time><hdop>11.0</hdop><vdop>6.375</vdop><extensions><gom:speed>0.771</gom:speed></extensions></trkpt>
   <trkpt lat="59.0637277739" lon="30.0287393876"><ele>86.237</ele><time>2026-04-20T18:34:34.075Z</time><hdop>11.187</hdop><vdop>6.125</vdop><extensions><gom:speed>0.755</gom:speed></extensions></trkpt>
   <trkpt lat="59.0637297856" lon="30.0287374598"><ele>86.25</ele><time>2026-04-20T18:34:34.921Z</time><hdop>11.375</hdop><vdop>6.125</vdop><extensions><gom:speed>0.751</gom:speed></extensions></trkpt>
   <trkpt lat="59.0637261814" lon="30.0287343584"><ele>86.259</ele><time>2026-04-20T18:34:36.075Z</time><hdop>11.625</hdop><vdop>5.937</vdop><extensions><gom:speed>0.735</gom:speed></extensions></trkpt>
   <trkpt lat="59.0637253851" lon="30.028731341"><ele>86.262</ele><time>2026-04-20T18:34:37.075Z</time><hdop>11.625</hdop><vdop>5.937</vdop><extensions><gom:speed>0.698</gom:speed></extensions></trkpt>
   <trkpt lat="59.0637245888" lon="30.0287288264"><ele>86.264</ele><time>2026-04-20T18:34:38.075Z</time><hdop>11.625</hdop><vdop>5.75</vdop><extensions><gom:speed>0.679</gom:speed></extensions></trkpt>
   <trkpt lat="59.0637246726" lon="30.0287267309"><ele>86.265</ele><time>2026-04-20T18:34:39.075Z</time><hdop>11.437</hdop><vdop>5.687</vdop><extensions><gom:speed>0.648</gom:speed></extensions></trkpt>
   <trkpt lat="59.0637252594" lon="30.0287295808"><ele>86.27</ele><time>2026-04-20T18:34:40.075Z</time><hdop>11.437</hdop><vdop>5.625</vdop><extensions><gom:speed>0.682</gom:speed></extensions></trkpt>
   <trkpt lat="59.0637260975" lon="30.0287305866"><ele>86.274</ele><time>2026-04-20T18:34:41.076Z</time><hdop>11.312</hdop><vdop>5.812</vdop><extensions><gom:speed>0.585</gom:speed></extensions></trkpt>
   <trkpt lat="59.0637259718" lon="30.0287269824"><ele>86.276</ele><time>2026-04-20T18:34:42.075Z</time><hdop>11.187</hdop><vdop>5.937</vdop><extensions><gom:speed>0.503</gom:speed></extensions></trkpt>
   <trkpt lat="59.0637273967" lon="30.0287226238"><ele>86.316</ele><time>2026-04-20T18:34:43.075Z</time><hdop>11.125</hdop><vdop>5.875</vdop><extensions><gom:speed>0.496</gom:speed></extensions></trkpt>
   <trkpt lat="59.0637282768" lon="30.0287187681"><ele>86.337</ele><time>2026-04-20T18:34:44.075Z</time><hdop>10.937</hdop><vdop>5.875</vdop><extensions><gom:speed>0.498</gom:speed></extensions></trkpt>
   <trkpt lat="59.0637285702" lon="30.028715583"><ele>86.347</ele><time>2026-04-20T18:34:45.075Z</time><hdop>10.812</hdop><vdop>6.125</vdop><extensions><gom:speed>0.477</gom:speed></extensions></trkpt>
   <trkpt lat="59.0637286959" lon="30.0287131522"><ele>86.396</ele><time>2026-04-20T18:34:46.075Z</time><hdop>10.625</hdop><vdop>5.937</vdop><extensions><gom:speed>0.449</gom:speed></extensions></trkpt>
   <trkpt lat="59.0637283607" lon="30.0287120626"><ele>86.431</ele><time>2026-04-20T18:34:47.076Z</time><hdop>10.437</hdop><vdop>5.687</vdop><extensions><gom:speed>0.42</gom:speed></extensions></trkpt>
   <trkpt lat="59.0637269776" lon="30.0287124817"><ele>86.458</ele><time>2026-04-20T18:34:48.075Z</time><hdop>10.187</hdop><vdop>5.5</vdop><extensions><gom:speed>0.405</gom:speed></extensions></trkpt>
   <trkpt lat="59.0637268938" lon="30.028711392"><ele>86.475</ele><time>2026-04-20T18:34:49.076Z</time><hdop>9.937</hdop><vdop>5.5</vdop><extensions><gom:speed>0.413</gom:speed></extensions></trkpt>
   <trkpt lat="59.0637274806" lon="30.0287090451"><ele>86.618</ele><time>2026-04-20T18:34:50.075Z</time><hdop>9.75</hdop><vdop>5.375</vdop><extensions><gom:speed>0.427</gom:speed></extensions></trkpt>
   <trkpt lat="59.0637286959" lon="30.0287066982"><ele>86.716</ele><time>2026-04-20T18:34:51.075Z</time><hdop>9.5</hdop><vdop>5.375</vdop><extensions><gom:speed>0.427</gom:speed></extensions></trkpt>
   <trkpt lat="59.0637300789" lon="30.0287060276"><ele>86.824</ele><time>2026-04-20T18:34:52.076Z</time><hdop>9.25</hdop><vdop>5.312</vdop><extensions><gom:speed>0.378</gom:speed></extensions></trkpt>
   <trkpt lat="59.063731462" lon="30.0287062791"><ele>86.919</ele><time>2026-04-20T18:34:53.075Z</time><hdop>9.0</hdop><vdop>5.437</vdop><extensions><gom:speed>0.341</gom:speed></extensions></trkpt>
   <trkpt lat="59.0637334736" lon="30.0287066982"><ele>87.008</ele><time>2026-04-20T18:34:54.075Z</time><hdop>8.875</hdop><vdop>5.625</vdop><extensions><gom:speed>0.357</gom:speed></extensions></trkpt>
   <trkpt lat="59.0637348985" lon="30.0287074525"><ele>87.098</ele><time>2026-04-20T18:34:55.075Z</time><hdop>8.812</hdop><vdop>6.0</vdop><extensions><gom:speed>0.417</gom:speed></extensions></trkpt>
   <trkpt lat="59.0637364911" lon="30.0287092966"><ele>87.182</ele><time>2026-04-20T18:34:56.075Z</time><hdop>8.812</hdop><vdop>6.062</vdop><extensions><gom:speed>0.505</gom:speed></extensions></trkpt>
   <trkpt lat="59.0637385866" lon="30.0287097995"><ele>87.28</ele><time>2026-04-20T18:34:57.075Z</time><hdop>8.812</hdop><vdop>6.0</vdop><extensions><gom:speed>0.577</gom:speed></extensions></trkpt>
   <trkpt lat="59.0637406821" lon="30.0287094642"><ele>87.387</ele><time>2026-04-20T18:34:58.075Z</time><hdop>8.937</hdop><vdop>6.375</vdop><extensions><gom:speed>0.568</gom:speed></extensions></trkpt>
   <trkpt lat="59.063742568" lon="30.028709548"><ele>87.489</ele><time>2026-04-20T18:34:59.076Z</time><hdop>9.125</hdop><vdop>6.187</vdop><extensions><gom:speed>0.571</gom:speed></extensions></trkpt>
   <trkpt lat="59.0637424842" lon="30.0287109729"><ele>87.55</ele><time>2026-04-20T18:34:59.682Z</time><hdop>9.312</hdop><vdop>6.187</vdop><extensions><gom:speed>0.571</gom:speed></extensions></trkpt>
   <trkpt lat="59.0637465913" lon="30.0287111406"><ele>87.645</ele><time>2026-04-20T18:35:01.075Z</time><hdop>9.625</hdop><vdop>6.062</vdop><extensions><gom:speed>0.598</gom:speed></extensions></trkpt>
   <trkpt lat="59.0637489801" lon="30.0287100509"><ele>87.739</ele><time>2026-04-20T18:35:02.075Z</time><hdop>9.812</hdop><vdop>6.0</vdop><extensions><gom:speed>0.612</gom:speed></extensions></trkpt>
   <trkpt lat="59.0637502793" lon="30.0287099671"><ele>87.813</ele><time>2026-04-20T18:35:03.075Z</time><hdop>9.937</hdop><vdop>5.937</vdop><extensions><gom:speed>0.604</gom:speed></extensions></trkpt>
   <trkpt lat="59.063751369" lon="30.0287118949"><ele>87.931</ele><time>2026-04-20T18:35:04.075Z</time><hdop>9.937</hdop><vdop>6.187</vdop><extensions><gom:speed>0.585</gom:speed></extensions></trkpt>
   <trkpt lat="59.0637521653" lon="30.0287152477"><ele>88.089</ele><time>2026-04-20T18:35:05.075Z</time><hdop>9.937</hdop><vdop>5.937</vdop><extensions><gom:speed>0.572</gom:speed></extensions></trkpt>
   <trkpt lat="59.0637516623" lon="30.0287152477"><ele>88.183</ele><time>2026-04-20T18:35:05.959Z</time><hdop>10.062</hdop><vdop>5.937</vdop><extensions><gom:speed>0.572</gom:speed></extensions></trkpt>
   <trkpt lat="59.0637535902" lon="30.0287189357"><ele>88.316</ele><time>2026-04-20T18:35:07.075Z</time><hdop>10.0</hdop><vdop>5.937</vdop><extensions><gom:speed>0.487</gom:speed></extensions></trkpt>
   <trkpt lat="59.0637538836" lon="30.0287190196"><ele>88.404</ele><time>2026-04-20T18:35:08.076Z</time><hdop>9.812</hdop><vdop>6.0</vdop><extensions><gom:speed>0.422</gom:speed></extensions></trkpt>
   <trkpt lat="59.0637547637" lon="30.0287195225"><ele>88.483</ele><time>2026-04-20T18:35:09.076Z</time><hdop>9.562</hdop><vdop>5.875</vdop><extensions><gom:speed>0.382</gom:speed></extensions></trkpt>
   <trkpt lat="59.0637555599" lon="30.0287202769"><ele>88.538</ele><time>2026-04-20T18:35:10.075Z</time><hdop>9.125</hdop><vdop>6.125</vdop><extensions><gom:speed>0.376</gom:speed></extensions></trkpt>
   <trkpt lat="59.0637568591" lon="30.0287209474"><ele>88.588</ele><time>2026-04-20T18:35:11.076Z</time><hdop>8.812</hdop><vdop>6.0</vdop><extensions><gom:speed>0.349</gom:speed></extensions></trkpt>
   <trkpt lat="59.0637585774" lon="30.0287215341"><ele>88.623</ele><time>2026-04-20T18:35:12.075Z</time><hdop>8.437</hdop><vdop>6.125</vdop><extensions><gom:speed>0.311</gom:speed></extensions></trkpt>
   <trkpt lat="59.0637597928" lon="30.0287217856"><ele>88.649</ele><time>2026-04-20T18:35:13.076Z</time><hdop>8.0</hdop><vdop>6.0</vdop><extensions><gom:speed>0.293</gom:speed></extensions></trkpt>
   <trkpt lat="59.0637603795" lon="30.0287218694"><ele>88.681</ele><time>2026-04-20T18:35:14.075Z</time><hdop>7.75</hdop><vdop>5.687</vdop><extensions><gom:speed>0.292</gom:speed></extensions></trkpt>
   <trkpt lat="59.0637564819" lon="30.0287245516"><ele>88.704</ele><time>2026-04-20T18:35:15.075Z</time><hdop>8.125</hdop><vdop>5.625</vdop><extensions><gom:speed>0.0</gom:speed></extensions></trkpt>
   <trkpt lat="59.0637564819" lon="30.0287245516"><ele>88.724</ele><time>2026-04-20T18:35:16.075Z</time><hdop>8.625</hdop><vdop>5.375</vdop><extensions><gom:speed>0.0</gom:speed></extensions></trkpt>
   <trkpt lat="59.0637565658" lon="30.0287244678"><ele>88.745</ele><time>2026-04-20T18:35:17.075Z</time><hdop>9.062</hdop><vdop>5.187</vdop><extensions><gom:speed>0.0</gom:speed></extensions></trkpt>
   <trkpt lat="59.0637566915" lon="30.0287244678"><ele>88.76</ele><time>2026-04-20T18:35:18.075Z</time><hdop>9.562</hdop><vdop>5.187</vdop><extensions><gom:speed>0.0</gom:speed></extensions></trkpt>
   <trkpt lat="59.0637566915" lon="30.0287245516"><ele>88.773</ele><time>2026-04-20T18:35:19.075Z</time><hdop>10.125</hdop><vdop>5.312</vdop><extensions><gom:speed>0.0</gom:speed></extensions></trkpt>
   <trkpt lat="59.0637566915" lon="30.0287245516"><ele>88.782</ele><time>2026-04-20T18:35:20.075Z</time><hdop>10.687</hdop><vdop>5.187</vdop><extensions><gom:speed>0.0</gom:speed></extensions></trkpt>
   <trkpt lat="59.0637567753" lon="30.0287245516"><ele>88.788</ele><time>2026-04-20T18:35:21.075Z</time><hdop>10.625</hdop><vdop>5.125</vdop><extensions><gom:speed>0.0</gom:speed></extensions></trkpt>
   <trkpt lat="59.0637567753" lon="30.0287245516"><ele>88.793</ele><time>2026-04-20T18:35:22.075Z</time><hdop>10.562</hdop><vdop>4.937</vdop><extensions><gom:speed>0.0</gom:speed></extensions></trkpt>
   <trkpt lat="59.0637567753" lon="30.0287245516"><ele>88.796</ele><time>2026-04-20T18:35:23.075Z</time><hdop>10.562</hdop><vdop>4.75</vdop><extensions><gom:speed>0.0</gom:speed></extensions></trkpt>
   <trkpt lat="59.0637595832" lon="30.0287131522"><ele>89.101</ele><time>2026-04-20T18:35:24.075Z</time><hdop>10.437</hdop><vdop>3.75</vdop><extensions><gom:speed>0.0</gom:speed></extensions></trkpt>
   <trkpt lat="59.0637611758" lon="30.0286996574"><ele>89.113</ele><time>2026-04-20T18:35:25.075Z</time><hdop>10.375</hdop><vdop>4.875</vdop><extensions><gom:speed>0.0</gom:speed></extensions></trkpt>
   <trkpt lat="59.0637629779" lon="30.0286887609"><ele>89.265</ele><time>2026-04-20T18:35:26.075Z</time><hdop>10.375</hdop><vdop>4.875</vdop><extensions><gom:speed>0.0</gom:speed></extensions></trkpt>
   <trkpt lat="59.0637608824" lon="30.0286851567"><ele>89.483</ele><time>2026-04-20T18:35:27.075Z</time><hdop>10.375</hdop><vdop>4.812</vdop><extensions><gom:speed>0.0</gom:speed></extensions></trkpt>
   <trkpt lat="59.0637609663" lon="30.0286832288"><ele>89.31</ele><time>2026-04-20T18:35:28.075Z</time><hdop>10.312</hdop><vdop>4.187</vdop><extensions><gom:speed>0.169</gom:speed></extensions></trkpt>
   <trkpt lat="59.0637553923" lon="30.0286844861"><ele>89.39</ele><time>2026-04-20T18:35:29.075Z</time><hdop>10.25</hdop><vdop>3.75</vdop><extensions><gom:speed>0.329</gom:speed></extensions></trkpt>
   <trkpt lat="59.0637524586" lon="30.0286793732"><ele>89.879</ele><time>2026-04-20T18:35:30.075Z</time><hdop>10.312</hdop><vdop>3.437</vdop><extensions><gom:speed>0.259</gom:speed></extensions></trkpt>
   <trkpt lat="59.0637468847" lon="30.0286747631"><ele>90.428</ele><time>2026-04-20T18:35:31.075Z</time><hdop>10.312</hdop><vdop>3.562</vdop><extensions><gom:speed>0.479</gom:speed></extensions></trkpt>
   <trkpt lat="59.0637391733" lon="30.0286653754"><ele>90.959</ele><time>2026-04-20T18:35:32.075Z</time><hdop>10.375</hdop><vdop>3.875</vdop><extensions><gom:speed>0.639</gom:speed></extensions></trkpt>
   <trkpt lat="59.0637330964" lon="30.0286580831"><ele>91.389</ele><time>2026-04-20T18:35:33.075Z</time><hdop>10.562</hdop><vdop>5.437</vdop><extensions><gom:speed>0.0</gom:speed></extensions></trkpt>
   <trkpt lat="59.0637333898" lon="30.0286580831"><ele>91.782</ele><time>2026-04-20T18:35:34.075Z</time><hdop>10.75</hdop><vdop>5.312</vdop><extensions><gom:speed>0.0</gom:speed></extensions></trkpt>
   <trkpt lat="59.0637296599" lon="30.0286584184"><ele>91.8</ele><time>2026-04-20T18:35:35.076Z</time><hdop>11.0</hdop><vdop>5.187</vdop><extensions><gom:speed>0.0</gom:speed></extensions></trkpt>
   <trkpt lat="59.0637274806" lon="30.0286577479"><ele>91.661</ele><time>2026-04-20T18:35:36.075Z</time><hdop>11.187</hdop><vdop>5.125</vdop><extensions><gom:speed>0.0</gom:speed></extensions></trkpt>
   <trkpt lat="59.0637245888" lon="30.0286566582"><ele>91.39</ele><time>2026-04-20T18:35:37.075Z</time><hdop>11.312</hdop><vdop>5.187</vdop><extensions><gom:speed>0.0</gom:speed></extensions></trkpt>
   <trkpt lat="59.0637254689" lon="30.0286559877"><ele>91.411</ele><time>2026-04-20T18:35:38.075Z</time><hdop>11.375</hdop><vdop>5.25</vdop><extensions><gom:speed>0.0</gom:speed></extensions></trkpt>
   <trkpt lat="59.063727271" lon="30.028653054"><ele>91.565</ele><time>2026-04-20T18:35:39.075Z</time><hdop>11.437</hdop><vdop>5.25</vdop><extensions><gom:speed>0.0</gom:speed></extensions></trkpt>
   <trkpt lat="59.0637310848" lon="30.0286495336"><ele>91.763</ele><time>2026-04-20T18:35:40.075Z</time><hdop>11.437</hdop><vdop>5.25</vdop><extensions><gom:speed>0.0</gom:speed></extensions></trkpt>
   <trkpt lat="59.0637387961" lon="30.0286485278"><ele>92.087</ele><time>2026-04-20T18:35:41.075Z</time><hdop>11.437</hdop><vdop>5.312</vdop><extensions><gom:speed>0.0</gom:speed></extensions></trkpt>
   <trkpt lat="59.06374349" lon="30.0286454265"><ele>92.159</ele><time>2026-04-20T18:35:42.075Z</time><hdop>11.5</hdop><vdop>5.375</vdop><extensions><gom:speed>0.0</gom:speed></extensions></trkpt>
   <trkpt lat="59.0637463817" lon="30.0286434986"><ele>92.124</ele><time>2026-04-20T18:35:43.075Z</time><hdop>11.625</hdop><vdop>5.375</vdop><extensions><gom:speed>0.0</gom:speed></extensions></trkpt>
   <trkpt lat="59.0637504889" lon="30.028640984"><ele>92.226</ele><time>2026-04-20T18:35:44.076Z</time><hdop>11.812</hdop><vdop>5.375</vdop><extensions><gom:speed>0.0</gom:speed></extensions></trkpt>
   <trkpt lat="59.0637520814" lon="30.0286423252"><ele>92.28</ele><time>2026-04-20T18:35:45.075Z</time><hdop>12.062</hdop><vdop>5.437</vdop><extensions><gom:speed>0.0</gom:speed></extensions></trkpt>
   <trkpt lat="59.0637528777" lon="30.0286472705"><ele>92.369</ele><time>2026-04-20T18:35:46.075Z</time><hdop>12.375</hdop><vdop>5.312</vdop><extensions><gom:speed>0.0</gom:speed></extensions></trkpt>
   <trkpt lat="59.0637541769" lon="30.0286526349"><ele>92.518</ele><time>2026-04-20T18:35:47.075Z</time><hdop>12.625</hdop><vdop>5.062</vdop><extensions><gom:speed>0.0</gom:speed></extensions></trkpt>
   <trkpt lat="59.0637551827" lon="30.0286605977"><ele>92.649</ele><time>2026-04-20T18:35:48.075Z</time><hdop>12.687</hdop><vdop>4.812</vdop><extensions><gom:speed>0.0</gom:speed></extensions></trkpt>
   <trkpt lat="59.0637591642" lon="30.028671578"><ele>92.698</ele><time>2026-04-20T18:35:49.076Z</time><hdop>12.437</hdop><vdop>4.312</vdop><extensions><gom:speed>0.0</gom:speed></extensions></trkpt>
   <trkpt lat="59.0637652829" lon="30.0286784512"><ele>93.478</ele><time>2026-04-20T18:35:50.075Z</time><hdop>12.125</hdop><vdop>4.562</vdop><extensions><gom:speed>0.0</gom:speed></extensions></trkpt>
   <trkpt lat="59.0637676718" lon="30.0286797923"><ele>93.853</ele><time>2026-04-20T18:35:51.075Z</time><hdop>11.687</hdop><vdop>4.375</vdop><extensions><gom:speed>0.0</gom:speed></extensions></trkpt>
   <trkpt lat="59.0637706893" lon="30.028680379"><ele>94.234</ele><time>2026-04-20T18:35:52.075Z</time><hdop>11.125</hdop><vdop>4.187</vdop><extensions><gom:speed>0.0</gom:speed></extensions></trkpt>
   <trkpt lat="59.0637736648" lon="30.0286806305"><ele>94.576</ele><time>2026-04-20T18:35:53.075Z</time><hdop>10.687</hdop><vdop>4.187</vdop><extensions><gom:speed>0.0</gom:speed></extensions></trkpt>
   <trkpt lat="59.0637771852" lon="30.0286806305"><ele>95.005</ele><time>2026-04-20T18:35:54.075Z</time><hdop>10.312</hdop><vdop>4.125</vdop><extensions><gom:speed>0.0</gom:speed></extensions></trkpt>
   <trkpt lat="59.0637801608" lon="30.0286807981"><ele>95.386</ele><time>2026-04-20T18:35:55.075Z</time><hdop>10.187</hdop><vdop>4.125</vdop><extensions><gom:speed>0.0</gom:speed></extensions></trkpt>
   <trkpt lat="59.0637808733" lon="30.028680379"><ele>95.567</ele><time>2026-04-20T18:35:56.076Z</time><hdop>10.125</hdop><vdop>4.187</vdop><extensions><gom:speed>0.0</gom:speed></extensions></trkpt>
   <trkpt lat="59.0637817953" lon="30.0286805466"><ele>95.743</ele><time>2026-04-20T18:35:57.075Z</time><hdop>10.062</hdop><vdop>4.187</vdop><extensions><gom:speed>0.0</gom:speed></extensions></trkpt>
   <trkpt lat="59.0637829688" lon="30.0286817201"><ele>95.955</ele><time>2026-04-20T18:35:58.075Z</time><hdop>10.062</hdop><vdop>4.0</vdop><extensions><gom:speed>0.0</gom:speed></extensions></trkpt>
   <trkpt lat="59.0637841841" lon="30.0286828936"><ele>96.146</ele><time>2026-04-20T18:35:59.075Z</time><hdop>10.0</hdop><vdop>3.875</vdop><extensions><gom:speed>0.0</gom:speed></extensions></trkpt>
   <trkpt lat="59.0637847709" lon="30.0286838994"><ele>96.283</ele><time>2026-04-20T18:36:00.075Z</time><hdop>10.0</hdop><vdop>3.687</vdop><extensions><gom:speed>0.0</gom:speed></extensions></trkpt>
   <trkpt lat="59.06378519" lon="30.0286846538"><ele>96.399</ele><time>2026-04-20T18:36:01.076Z</time><hdop>9.937</hdop><vdop>3.625</vdop><extensions><gom:speed>0.0</gom:speed></extensions></trkpt>
   <trkpt lat="59.0637854833" lon="30.0286853243"><ele>96.478</ele><time>2026-04-20T18:36:02.075Z</time><hdop>9.937</hdop><vdop>3.5</vdop><extensions><gom:speed>0.0</gom:speed></extensions></trkpt>
   <trkpt lat="59.0637860701" lon="30.0286863301"><ele>96.608</ele><time>2026-04-20T18:36:03.076Z</time><hdop>9.937</hdop><vdop>3.312</vdop><extensions><gom:speed>0.0</gom:speed></extensions></trkpt>
   <trkpt lat="59.0637855671" lon="30.0286838994"><ele>96.711</ele><time>2026-04-20T18:36:04.075Z</time><hdop>9.937</hdop><vdop>2.875</vdop><extensions><gom:speed>0.149</gom:speed></extensions></trkpt>
   <trkpt lat="59.0637897581" lon="30.028680379"><ele>96.546</ele><time>2026-04-20T18:36:05.075Z</time><hdop>9.875</hdop><vdop>3.125</vdop><extensions><gom:speed>0.0</gom:speed></extensions></trkpt>
   <trkpt lat="59.0637945777" lon="30.0286795408"><ele>96.329</ele><time>2026-04-20T18:36:06.075Z</time><hdop>9.875</hdop><vdop>3.0</vdop><extensions><gom:speed>0.0</gom:speed></extensions></trkpt>
   <trkpt lat="59.0637984753" lon="30.0286782835"><ele>96.362</ele><time>2026-04-20T18:36:07.075Z</time><hdop>9.875</hdop><vdop>3.062</vdop><extensions><gom:speed>0.0</gom:speed></extensions></trkpt>
   <trkpt lat="59.0638021633" lon="30.0286763557"><ele>96.591</ele><time>2026-04-20T18:36:08.075Z</time><hdop>9.875</hdop><vdop>3.0</vdop><extensions><gom:speed>0.0</gom:speed></extensions></trkpt>
   <trkpt lat="59.0638052646" lon="30.0286744278"><ele>96.557</ele><time>2026-04-20T18:36:09.075Z</time><hdop>9.875</hdop><vdop>3.125</vdop><extensions><gom:speed>0.0</gom:speed></extensions></trkpt>
   <trkpt lat="59.0638076954" lon="30.0286721647"><ele>96.485</ele><time>2026-04-20T18:36:10.075Z</time><hdop>9.875</hdop><vdop>3.187</vdop><extensions><gom:speed>0.0</gom:speed></extensions></trkpt>
   <trkpt lat="59.0638100842" lon="30.0286708236"><ele>96.431</ele><time>2026-04-20T18:36:11.075Z</time><hdop>9.875</hdop><vdop>3.187</vdop><extensions><gom:speed>0.0</gom:speed></extensions></trkpt>
   <trkpt lat="59.0638131855" lon="30.0286689796"><ele>96.511</ele><time>2026-04-20T18:36:12.076Z</time><hdop>9.875</hdop><vdop>3.125</vdop><extensions><gom:speed>0.0</gom:speed></extensions></trkpt>
   <trkpt lat="59.0638154905" lon="30.0286667165"><ele>96.653</ele><time>2026-04-20T18:36:13.075Z</time><hdop>9.875</hdop><vdop>3.062</vdop><extensions><gom:speed>0.0</gom:speed></extensions></trkpt>
   <trkpt lat="59.063817586" lon="30.0286663812"><ele>96.979</ele><time>2026-04-20T18:36:14.075Z</time><hdop>9.875</hdop><vdop>3.0</vdop><extensions><gom:speed>0.0</gom:speed></extensions></trkpt>
   <trkpt lat="59.0638191786" lon="30.0286674709"><ele>97.317</ele><time>2026-04-20T18:36:15.075Z</time><hdop>9.875</hdop><vdop>2.937</vdop><extensions><gom:speed>0.0</gom:speed></extensions></trkpt>
   <trkpt lat="59.0638204778" lon="30.0286684767"><ele>97.614</ele><time>2026-04-20T18:36:16.075Z</time><hdop>9.875</hdop><vdop>2.812</vdop><extensions><gom:speed>0.0</gom:speed></extensions></trkpt>
   <trkpt lat="59.0638216931" lon="30.0286693987"><ele>97.9</ele><time>2026-04-20T18:36:17.075Z</time><hdop>9.875</hdop><vdop>2.75</vdop><extensions><gom:speed>0.0</gom:speed></extensions></trkpt>
   <trkpt lat="59.0638225732" lon="30.0286701531"><ele>98.101</ele><time>2026-04-20T18:36:18.075Z</time><hdop>9.875</hdop><vdop>2.687</vdop><extensions><gom:speed>0.0</gom:speed></extensions></trkpt>
   <trkpt lat="59.0638232857" lon="30.0286708236"><ele>98.27</ele><time>2026-04-20T18:36:19.075Z</time><hdop>9.875</hdop><vdop>2.625</vdop><extensions><gom:speed>0.0</gom:speed></extensions></trkpt>
   <trkpt lat="59.0638239982" lon="30.0286717456"><ele>98.423</ele><time>2026-04-20T18:36:20.075Z</time><hdop>9.875</hdop><vdop>2.562</vdop><extensions><gom:speed>0.0</gom:speed></extensions></trkpt>
   <trkpt lat="59.0638246687" lon="30.0286724162"><ele>98.56</ele><time>2026-04-20T18:36:21.075Z</time><hdop>9.875</hdop><vdop>2.5</vdop><extensions><gom:speed>0.0</gom:speed></extensions></trkpt>
   <trkpt lat="59.0638252974" lon="30.0286731706"><ele>98.692</ele><time>2026-04-20T18:36:22.075Z</time><hdop>9.875</hdop><vdop>2.5</vdop><extensions><gom:speed>0.0</gom:speed></extensions></trkpt>
   <trkpt lat="59.0638257584" lon="30.0286738411"><ele>98.815</ele><time>2026-04-20T18:36:23.075Z</time><hdop>9.875</hdop><vdop>2.5</vdop><extensions><gom:speed>0.0</gom:speed></extensions></trkpt>
   <trkpt lat="59.0638262613" lon="30.028674344"><ele>98.931</ele><time>2026-04-20T18:36:24.075Z</time><hdop>9.875</hdop><vdop>2.5</vdop><extensions><gom:speed>0.0</gom:speed></extensions></trkpt>
   <trkpt lat="59.0638268899" lon="30.0286748469"><ele>99.053</ele><time>2026-04-20T18:36:25.075Z</time><hdop>9.875</hdop><vdop>2.5</vdop><extensions><gom:speed>0.0</gom:speed></extensions></trkpt>
   <trkpt lat="59.0638271833" lon="30.028675266"><ele>99.14</ele><time>2026-04-20T18:36:26.075Z</time><hdop>9.875</hdop><vdop>2.5</vdop><extensions><gom:speed>0.0</gom:speed></extensions></trkpt>
   <trkpt lat="59.0638273928" lon="30.0286754337"><ele>99.198</ele><time>2026-04-20T18:36:27.075Z</time><hdop>9.875</hdop><vdop>2.5</vdop><extensions><gom:speed>0.0</gom:speed></extensions></trkpt>
   <trkpt lat="59.0638275605" lon="30.0286755175"><ele>99.241</ele><time>2026-04-20T18:36:28.076Z</time><hdop>9.875</hdop><vdop>2.5</vdop><extensions><gom:speed>0.0</gom:speed></extensions></trkpt>
   <trkpt lat="59.0638275605" lon="30.0286756851"><ele>99.272</ele><time>2026-04-20T18:36:29.075Z</time><hdop>9.875</hdop><vdop>2.5</vdop><extensions><gom:speed>0.0</gom:speed></extensions></trkpt>
   <trkpt lat="59.0638276862" lon="30.0286757689"><ele>99.292</ele><time>2026-04-20T18:36:30.075Z</time><hdop>9.875</hdop><vdop>2.5</vdop><extensions><gom:speed>0.0</gom:speed></extensions></trkpt>
   <trkpt lat="59.0638276862" lon="30.0286758528"><ele>99.306</ele><time>2026-04-20T18:36:31.075Z</time><hdop>9.875</hdop><vdop>2.5</vdop><extensions><gom:speed>0.0</gom:speed></extensions></trkpt>
   <trkpt lat="59.0638278958" lon="30.0286757689"><ele>99.318</ele><time>2026-04-20T18:36:32.075Z</time><hdop>9.875</hdop><vdop>2.5</vdop><extensions><gom:speed>0.0</gom:speed></extensions></trkpt>
   <trkpt lat="59.0638280634" lon="30.0286757689"><ele>99.332</ele><time>2026-04-20T18:36:33.076Z</time><hdop>9.875</hdop><vdop>2.5</vdop><extensions><gom:speed>0.0</gom:speed></extensions></trkpt>
   <trkpt lat="59.0638281891" lon="30.0286757689"><ele>99.341</ele><time>2026-04-20T18:36:34.075Z</time><hdop>9.875</hdop><vdop>2.5</vdop><extensions><gom:speed>0.0</gom:speed></extensions></trkpt>
   <trkpt lat="59.0638282729" lon="30.0286757689"><ele>99.347</ele><time>2026-04-20T18:36:35.075Z</time><hdop>9.875</hdop><vdop>2.5</vdop><extensions><gom:speed>0.0</gom:speed></extensions></trkpt>
   <trkpt lat="59.0638281891" lon="30.0286757689"><ele>99.343</ele><time>2026-04-20T18:36:36.075Z</time><hdop>9.875</hdop><vdop>2.5</vdop><extensions><gom:speed>0.0</gom:speed></extensions></trkpt>
   <trkpt lat="59.0638280634" lon="30.0286758528"><ele>99.34</ele><time>2026-04-20T18:36:37.075Z</time><hdop>9.875</hdop><vdop>2.5</vdop><extensions><gom:speed>0.0</gom:speed></extensions></trkpt>
   <trkpt lat="59.0638280634" lon="30.0286758528"><ele>99.34</ele><time>2026-04-20T18:36:38.075Z</time><hdop>9.875</hdop><vdop>2.5</vdop><extensions><gom:speed>0.0</gom:speed></extensions></trkpt>
   <trkpt lat="59.0638280634" lon="30.0286758528"><ele>99.343</ele><time>2026-04-20T18:36:39.075Z</time><hdop>9.875</hdop><vdop>2.5</vdop><extensions><gom:speed>0.0</gom:speed></extensions></trkpt>
   <trkpt lat="59.0638280634" lon="30.0286759366"><ele>99.345</ele><time>2026-04-20T18:36:40.075Z</time><hdop>9.875</hdop><vdop>2.5</vdop><extensions><gom:speed>0.0</gom:speed></extensions></trkpt>
   <trkpt lat="59.0638280634" lon="30.0286759366"><ele>99.349</ele><time>2026-04-20T18:36:41.075Z</time><hdop>9.875</hdop><vdop>2.5</vdop><extensions><gom:speed>0.0</gom:speed></extensions></trkpt>
   <trkpt lat="59.0638280634" lon="30.0286760204"><ele>99.354</ele><time>2026-04-20T18:36:42.075Z</time><hdop>9.875</hdop><vdop>2.5</vdop><extensions><gom:speed>0.0</gom:speed></extensions></trkpt>
   <trkpt lat="59.0638280634" lon="30.0286760204"><ele>99.359</ele><time>2026-04-20T18:36:43.075Z</time><hdop>9.875</hdop><vdop>2.562</vdop><extensions><gom:speed>0.0</gom:speed></extensions></trkpt>
   <trkpt lat="59.0638280634" lon="30.028676188"><ele>99.361</ele><time>2026-04-20T18:36:44.075Z</time><hdop>9.875</hdop><vdop>2.625</vdop><extensions><gom:speed>0.0</gom:speed></extensions></trkpt>
   <trkpt lat="59.0638279796" lon="30.028676188"><ele>99.361</ele><time>2026-04-20T18:36:45.075Z</time><hdop>9.875</hdop><vdop>2.625</vdop><extensions><gom:speed>0.0</gom:speed></extensions></trkpt>
   <trkpt lat="59.0638279796" lon="30.0286762719"><ele>99.361</ele><time>2026-04-20T18:36:46.076Z</time><hdop>9.875</hdop><vdop>2.562</vdop><extensions><gom:speed>0.0</gom:speed></extensions></trkpt>
   <trkpt lat="59.0638279796" lon="30.0286762719"><ele>99.359</ele><time>2026-04-20T18:36:47.075Z</time><hdop>9.875</hdop><vdop>2.5</vdop><extensions><gom:speed>0.0</gom:speed></extensions></trkpt>
   <trkpt lat="59.0638280634" lon="30.0286763557"><ele>99.363</ele><time>2026-04-20T18:36:48.075Z</time><hdop>9.875</hdop><vdop>2.5</vdop><extensions><gom:speed>0.0</gom:speed></extensions></trkpt>
   <trkpt lat="59.0638280634" lon="30.0286763557"><ele>99.364</ele><time>2026-04-20T18:36:49.076Z</time><hdop>9.875</hdop><vdop>2.5</vdop><extensions><gom:speed>0.0</gom:speed></extensions></trkpt>
   <trkpt lat="59.0638280634" lon="30.0286764395"><ele>99.363</ele><time>2026-04-20T18:36:50.075Z</time><hdop>9.875</hdop><vdop>2.5</vdop><extensions><gom:speed>0.0</gom:speed></extensions></trkpt>
   <trkpt lat="59.0638280634" lon="30.0286764395"><ele>99.362</ele><time>2026-04-20T18:36:50.622Z</time><hdop>13.562</hdop><vdop>2.5</vdop></trkpt>
   <trkpt lat="59.0638280634" lon="30.0286764395"><ele>99.36</ele><time>2026-04-20T18:36:51.075Z</time><hdop>13.0</hdop><vdop>2.562</vdop><extensions><gom:speed>0.0</gom:speed></extensions></trkpt>
   <trkpt lat="59.0638280634" lon="30.0286765233"><ele>99.357</ele><time>2026-04-20T18:36:52.075Z</time><hdop>13.0</hdop><vdop>2.625</vdop><extensions><gom:speed>0.0</gom:speed></extensions></trkpt>
   <trkpt lat="59.0638280634" lon="30.0286765233"><ele>99.354</ele><time>2026-04-20T18:36:53.075Z</time><hdop>13.0</hdop><vdop>2.625</vdop><extensions><gom:speed>0.0</gom:speed></extensions></trkpt>
   <trkpt lat="59.0638279796" lon="30.028676691"><ele>99.352</ele><time>2026-04-20T18:36:54.075Z</time><hdop>13.0</hdop><vdop>2.687</vdop><extensions><gom:speed>0.0</gom:speed></extensions></trkpt>
   <trkpt lat="59.0638279796" lon="30.028676691"><ele>99.349</ele><time>2026-04-20T18:36:55.075Z</time><hdop>13.0</hdop><vdop>2.75</vdop><extensions><gom:speed>0.0</gom:speed></extensions></trkpt>
   <trkpt lat="59.0638279796" lon="30.028676691"><ele>99.347</ele><time>2026-04-20T18:36:56.075Z</time><hdop>9.875</hdop><vdop>2.875</vdop><extensions><gom:speed>0.0</gom:speed></extensions></trkpt>
   <trkpt lat="59.0638279796" lon="30.0286767748"><ele>99.346</ele><time>2026-04-20T18:36:57.075Z</time><hdop>9.875</hdop><vdop>2.937</vdop><extensions><gom:speed>0.0</gom:speed></extensions></trkpt>
   <trkpt lat="59.0638279796" lon="30.0286767748"><ele>99.343</ele><time>2026-04-20T18:36:58.076Z</time><hdop>9.875</hdop><vdop>3.125</vdop><extensions><gom:speed>0.0</gom:speed></extensions></trkpt>
   <trkpt lat="59.0638278958" lon="30.0286767748"><ele>99.341</ele><time>2026-04-20T18:36:59.075Z</time><hdop>9.875</hdop><vdop>3.25</vdop><extensions><gom:speed>0.0</gom:speed></extensions></trkpt>
   <trkpt lat="59.0638278958" lon="30.0286767748"><ele>99.338</ele><time>2026-04-20T18:37:00.075Z</time><hdop>9.875</hdop><vdop>3.312</vdop><extensions><gom:speed>0.0</gom:speed></extensions></trkpt>
   <trkpt lat="59.0638278958" lon="30.0286768586"><ele>99.334</ele><time>2026-04-20T18:37:01.076Z</time><hdop>9.875</hdop><vdop>3.312</vdop><extensions><gom:speed>0.0</gom:speed></extensions></trkpt>
   <trkpt lat="59.0638278958" lon="30.0286768586"><ele>99.331</ele><time>2026-04-20T18:37:02.075Z</time><hdop>9.875</hdop><vdop>3.375</vdop><extensions><gom:speed>0.0</gom:speed></extensions></trkpt>
   <trkpt lat="59.0638278958" lon="30.0286768586"><ele>99.327</ele><time>2026-04-20T18:37:03.075Z</time><hdop>9.875</hdop><vdop>3.312</vdop><extensions><gom:speed>0.0</gom:speed></extensions></trkpt>
   <trkpt lat="59.0638278958" lon="30.0286768586"><ele>99.324</ele><time>2026-04-20T18:37:04.075Z</time><hdop>9.875</hdop><vdop>3.25</vdop><extensions><gom:speed>0.0</gom:speed></extensions></trkpt>
   <trkpt lat="59.06382777" lon="30.0286768586"><ele>99.322</ele><time>2026-04-20T18:37:05.075Z</time><hdop>9.875</hdop><vdop>3.25</vdop><extensions><gom:speed>0.0</gom:speed></extensions></trkpt>
   <trkpt lat="59.06382777" lon="30.0286768586"><ele>99.321</ele><time>2026-04-20T18:37:06.075Z</time><hdop>9.875</hdop><vdop>3.312</vdop><extensions><gom:speed>0.0</gom:speed></extensions></trkpt>
   <trkpt lat="59.06382777" lon="30.0286769424"><ele>99.319</ele><time>2026-04-20T18:37:07.075Z</time><hdop>9.875</hdop><vdop>3.25</vdop><extensions><gom:speed>0.0</gom:speed></extensions></trkpt>
   <trkpt lat="59.06382777" lon="30.0286769424"><ele>99.317</ele><time>2026-04-20T18:37:08.075Z</time><hdop>9.875</hdop><vdop>3.312</vdop><extensions><gom:speed>0.0</gom:speed></extensions></trkpt>
   <trkpt lat="59.0638279796" lon="30.0286771939"><ele>99.365</ele><time>2026-04-20T18:37:09.075Z</time><hdop>9.875</hdop><vdop>3.25</vdop><extensions><gom:speed>0.0</gom:speed></extensions></trkpt>
   <trkpt lat="59.0638284825" lon="30.0286775291"><ele>99.454</ele><time>2026-04-20T18:37:10.075Z</time><hdop>9.875</hdop><vdop>3.187</vdop><extensions><gom:speed>0.0</gom:speed></extensions></trkpt>
   <trkpt lat="59.0638287759" lon="30.0286777806"><ele>99.511</ele><time>2026-04-20T18:37:11.075Z</time><hdop>9.875</hdop><vdop>2.937</vdop><extensions><gom:speed>0.0</gom:speed></extensions></trkpt>
   <trkpt lat="59.0638288597" lon="30.0286779482"><ele>99.545</ele><time>2026-04-20T18:37:12.075Z</time><hdop>9.875</hdop><vdop>2.875</vdop><extensions><gom:speed>0.0</gom:speed></extensions></trkpt>
   <trkpt lat="59.0638288597" lon="30.0286779482"><ele>99.567</ele><time>2026-04-20T18:37:13.075Z</time><hdop>9.875</hdop><vdop>2.875</vdop><extensions><gom:speed>0.0</gom:speed></extensions></trkpt>
   <trkpt lat="59.0638289854" lon="30.0286780321"><ele>99.582</ele><time>2026-04-20T18:37:14.075Z</time><hdop>9.875</hdop><vdop>2.937</vdop><extensions><gom:speed>0.0</gom:speed></extensions></trkpt>
   <trkpt lat="59.0638289854" lon="30.0286780321"><ele>99.591</ele><time>2026-04-20T18:37:15.075Z</time><hdop>9.875</hdop><vdop>3.0</vdop><extensions><gom:speed>0.0</gom:speed></extensions></trkpt>
   <trkpt lat="59.0638288597" lon="30.0286780321"><ele>99.597</ele><time>2026-04-20T18:37:16.076Z</time><hdop>9.875</hdop><vdop>3.0</vdop><extensions><gom:speed>0.0</gom:speed></extensions></trkpt>
   <trkpt lat="59.0638288597" lon="30.0286780321"><ele>99.599</ele><time>2026-04-20T18:37:17.075Z</time><hdop>9.875</hdop><vdop>2.937</vdop><extensions><gom:speed>0.0</gom:speed></extensions></trkpt>
   <trkpt lat="59.0638288597" lon="30.0286780321"><ele>99.602</ele><time>2026-04-20T18:37:18.075Z</time><hdop>9.875</hdop><vdop>2.875</vdop><extensions><gom:speed>0.0</gom:speed></extensions></trkpt>
   <trkpt lat="59.0638288597" lon="30.0286780321"><ele>99.606</ele><time>2026-04-20T18:37:19.075Z</time><hdop>9.875</hdop><vdop>2.937</vdop><extensions><gom:speed>0.0</gom:speed></extensions></trkpt>
   <trkpt lat="59.0638288597" lon="30.0286780321"><ele>99.607</ele><time>2026-04-20T18:37:20.075Z</time><hdop>9.875</hdop><vdop>2.937</vdop><extensions><gom:speed>0.0</gom:speed></extensions></trkpt>
   <trkpt lat="59.0638288597" lon="30.0286780321"><ele>99.607</ele><time>2026-04-20T18:37:21.075Z</time><hdop>9.875</hdop><vdop>2.875</vdop><extensions><gom:speed>0.0</gom:speed></extensions></trkpt>
   <trkpt lat="59.0638288597" lon="30.0286780321"><ele>99.61</ele><time>2026-04-20T18:37:22.075Z</time><hdop>9.875</hdop><vdop>2.812</vdop><extensions><gom:speed>0.0</gom:speed></extensions></trkpt>
   <trkpt lat="59.0638288597" lon="30.0286780321"><ele>99.611</ele><time>2026-04-20T18:37:23.076Z</time><hdop>9.875</hdop><vdop>2.875</vdop><extensions><gom:speed>0.0</gom:speed></extensions></trkpt>
   <trkpt lat="59.0638288597" lon="30.0286780321"><ele>99.612</ele><time>2026-04-20T18:37:24.076Z</time><hdop>9.875</hdop><vdop>2.812</vdop><extensions><gom:speed>0.0</gom:speed></extensions></trkpt>
   <trkpt lat="59.0638290692" lon="30.0286781997"><ele>99.658</ele><time>2026-04-20T18:37:25.075Z</time><hdop>9.875</hdop><vdop>2.812</vdop><extensions><gom:speed>0.0</gom:speed></extensions></trkpt>
   <trkpt lat="59.0638292788" lon="30.0286783673"><ele>99.687</ele><time>2026-04-20T18:37:26.075Z</time><hdop>9.875</hdop><vdop>2.812</vdop><extensions><gom:speed>0.0</gom:speed></extensions></trkpt>
   <trkpt lat="59.0638294883" lon="30.028678535"><ele>99.738</ele><time>2026-04-20T18:37:27.075Z</time><hdop>9.875</hdop><vdop>2.875</vdop><extensions><gom:speed>0.0</gom:speed></extensions></trkpt>
   <trkpt lat="59.0638296979" lon="30.0286786188"><ele>99.777</ele><time>2026-04-20T18:37:28.076Z</time><hdop>9.875</hdop><vdop>2.875</vdop><extensions><gom:speed>0.0</gom:speed></extensions></trkpt>
   <trkpt lat="59.0638297817" lon="30.0286787864"><ele>99.801</ele><time>2026-04-20T18:37:29.076Z</time><hdop>9.875</hdop><vdop>3.062</vdop><extensions><gom:speed>0.0</gom:speed></extensions></trkpt>
   <trkpt lat="59.0638298655" lon="30.0286787864"><ele>99.817</ele><time>2026-04-20T18:37:30.075Z</time><hdop>9.875</hdop><vdop>3.0</vdop><extensions><gom:speed>0.0</gom:speed></extensions></trkpt>
   <trkpt lat="59.0638298655" lon="30.0286788703"><ele>99.827</ele><time>2026-04-20T18:37:31.075Z</time><hdop>9.875</hdop><vdop>3.062</vdop><extensions><gom:speed>0.0</gom:speed></extensions></trkpt>
   <trkpt lat="59.0638298655" lon="30.0286788703"><ele>99.835</ele><time>2026-04-20T18:37:32.075Z</time><hdop>9.875</hdop><vdop>3.125</vdop><extensions><gom:speed>0.0</gom:speed></extensions></trkpt>
   <trkpt lat="59.0638299912" lon="30.0286788703"><ele>99.841</ele><time>2026-04-20T18:37:33.076Z</time><hdop>9.875</hdop><vdop>3.125</vdop><extensions><gom:speed>0.0</gom:speed></extensions></trkpt>
   <trkpt lat="59.0638298655" lon="30.0286788703"><ele>99.846</ele><time>2026-04-20T18:37:34.075Z</time><hdop>9.875</hdop><vdop>3.125</vdop><extensions><gom:speed>0.0</gom:speed></extensions></trkpt>
   <trkpt lat="59.0638298655" lon="30.0286788703"><ele>99.849</ele><time>2026-04-20T18:37:35.075Z</time><hdop>9.875</hdop><vdop>3.125</vdop><extensions><gom:speed>0.0</gom:speed></extensions></trkpt>
   <trkpt lat="59.0638300751" lon="30.0286789541"><ele>99.874</ele><time>2026-04-20T18:37:36.075Z</time><hdop>9.875</hdop><vdop>3.25</vdop><extensions><gom:speed>0.0</gom:speed></extensions></trkpt>
   <trkpt lat="59.0638302846" lon="30.0286790379"><ele>99.91</ele><time>2026-04-20T18:37:37.075Z</time><hdop>9.875</hdop><vdop>3.312</vdop><extensions><gom:speed>0.0</gom:speed></extensions></trkpt>
   <trkpt lat="59.0638304941" lon="30.0286791217"><ele>99.94</ele><time>2026-04-20T18:37:38.075Z</time><hdop>9.875</hdop><vdop>3.312</vdop><extensions><gom:speed>0.0</gom:speed></extensions></trkpt>
   <trkpt lat="59.063830578" lon="30.0286792893"><ele>99.962</ele><time>2026-04-20T18:37:39.075Z</time><hdop>9.875</hdop><vdop>3.375</vdop><extensions><gom:speed>0.0</gom:speed></extensions></trkpt>
   <trkpt lat="59.0638306618" lon="30.0286792893"><ele>99.978</ele><time>2026-04-20T18:37:40.075Z</time><hdop>9.875</hdop><vdop>3.437</vdop><extensions><gom:speed>0.0</gom:speed></extensions></trkpt>
   <trkpt lat="59.0638306618" lon="30.0286792893"><ele>99.988</ele><time>2026-04-20T18:37:41.076Z</time><hdop>9.875</hdop><vdop>3.312</vdop><extensions><gom:speed>0.0</gom:speed></extensions></trkpt>
   <trkpt lat="59.0638307875" lon="30.0286793732"><ele>99.995</ele><time>2026-04-20T18:37:42.076Z</time><hdop>9.875</hdop><vdop>3.312</vdop><extensions><gom:speed>0.0</gom:speed></extensions></trkpt>
   <trkpt lat="59.0638307875" lon="30.0286793732"><ele>99.998</ele><time>2026-04-20T18:37:43.075Z</time><hdop>9.875</hdop><vdop>3.375</vdop><extensions><gom:speed>0.0</gom:speed></extensions></trkpt>
   <trkpt lat="59.0638307875" lon="30.0286793732"><ele>100.002</ele><time>2026-04-20T18:37:44.075Z</time><hdop>9.875</hdop><vdop>3.312</vdop><extensions><gom:speed>0.0</gom:speed></extensions></trkpt>
   <trkpt lat="59.0638307875" lon="30.0286793732"><ele>100.004</ele><time>2026-04-20T18:37:45.076Z</time><hdop>9.875</hdop><vdop>3.25</vdop><extensions><gom:speed>0.0</gom:speed></extensions></trkpt>
   <trkpt lat="59.0638307875" lon="30.0286793732"><ele>100.01</ele><time>2026-04-20T18:37:46.076Z</time><hdop>9.875</hdop><vdop>3.25</vdop><extensions><gom:speed>0.0</gom:speed></extensions></trkpt>
   <trkpt lat="59.0638307875" lon="30.0286793732"><ele>100.014</ele><time>2026-04-20T18:37:47.075Z</time><hdop>9.875</hdop><vdop>3.187</vdop><extensions><gom:speed>0.0</gom:speed></extensions></trkpt>
   <trkpt lat="59.0638307875" lon="30.0286793732"><ele>100.016</ele><time>2026-04-20T18:37:48.075Z</time><hdop>9.875</hdop><vdop>3.125</vdop><extensions><gom:speed>0.0</gom:speed></extensions></trkpt>
   <trkpt lat="59.0638307875" lon="30.028679457"><ele>100.016</ele><time>2026-04-20T18:37:49.075Z</time><hdop>9.875</hdop><vdop>3.062</vdop><extensions><gom:speed>0.0</gom:speed></extensions></trkpt>
   <trkpt lat="59.0638307875" lon="30.028679457"><ele>100.017</ele><time>2026-04-20T18:37:50.075Z</time><hdop>9.875</hdop><vdop>3.062</vdop><extensions><gom:speed>0.0</gom:speed></extensions></trkpt>
   <trkpt lat="59.0638307875" lon="30.028679457"><ele>100.018</ele><time>2026-04-20T18:37:51.076Z</time><hdop>9.875</hdop><vdop>3.125</vdop><extensions><gom:speed>0.0</gom:speed></extensions></trkpt>
   <trkpt lat="59.0638307875" lon="30.028679457"><ele>100.018</ele><time>2026-04-20T18:37:52.076Z</time><hdop>9.875</hdop><vdop>3.125</vdop><extensions><gom:speed>0.0</gom:speed></extensions></trkpt>
   <trkpt lat="59.0638307875" lon="30.028679457"><ele>100.018</ele><time>2026-04-20T18:37:53.075Z</time><hdop>9.875</hdop><vdop>3.062</vdop><extensions><gom:speed>0.0</gom:speed></extensions></trkpt>
   <trkpt lat="59.0638307875" lon="30.028679457"><ele>100.022</ele><time>2026-04-20T18:37:54.075Z</time><hdop>9.875</hdop><vdop>3.0</vdop><extensions><gom:speed>0.0</gom:speed></extensions></trkpt>
   <trkpt lat="59.0638307875" lon="30.0286795408"><ele>100.031</ele><time>2026-04-20T18:37:55.075Z</time><hdop>9.875</hdop><vdop>2.937</vdop><extensions><gom:speed>0.0</gom:speed></extensions></trkpt>
   <trkpt lat="59.0638308713" lon="30.0286795408"><ele>100.038</ele><time>2026-04-20T18:37:56.075Z</time><hdop>9.875</hdop><vdop>2.875</vdop><extensions><gom:speed>0.0</gom:speed></extensions></trkpt>
   <trkpt lat="59.0638308713" lon="30.0286796246"><ele>100.044</ele><time>2026-04-20T18:37:57.075Z</time><hdop>9.875</hdop><vdop>2.875</vdop><extensions><gom:speed>0.0</gom:speed></extensions></trkpt>
   <trkpt lat="59.0638308713" lon="30.0286796246"><ele>100.049</ele><time>2026-04-20T18:37:58.075Z</time><hdop>9.875</hdop><vdop>2.812</vdop><extensions><gom:speed>0.0</gom:speed></extensions></trkpt>
   <trkpt lat="59.0638308713" lon="30.0286797923"><ele>100.054</ele><time>2026-04-20T18:37:59.075Z</time><hdop>9.875</hdop><vdop>2.75</vdop><extensions><gom:speed>0.0</gom:speed></extensions></trkpt>
   <trkpt lat="59.0638309971" lon="30.0286798761"><ele>100.062</ele><time>2026-04-20T18:38:00.075Z</time><hdop>9.875</hdop><vdop>2.687</vdop><extensions><gom:speed>0.0</gom:speed></extensions></trkpt>
   <trkpt lat="59.0638309971" lon="30.0286798761"><ele>100.065</ele><time>2026-04-20T18:38:01.075Z</time><hdop>9.875</hdop><vdop>2.625</vdop><extensions><gom:speed>0.0</gom:speed></extensions></trkpt>
   <trkpt lat="59.0638309971" lon="30.0286799599"><ele>100.071</ele><time>2026-04-20T18:38:02.075Z</time><hdop>9.875</hdop><vdop>2.687</vdop><extensions><gom:speed>0.0</gom:speed></extensions></trkpt>
   <trkpt lat="59.0638309971" lon="30.0286799599"><ele>100.078</ele><time>2026-04-20T18:38:03.076Z</time><hdop>9.875</hdop><vdop>2.687</vdop><extensions><gom:speed>0.0</gom:speed></extensions></trkpt>
   <trkpt lat="59.0638310809" lon="30.0286800437"><ele>100.082</ele><time>2026-04-20T18:38:04.075Z</time><hdop>9.875</hdop><vdop>2.687</vdop><extensions><gom:speed>0.0</gom:speed></extensions></trkpt>
   <trkpt lat="59.0638310809" lon="30.0286800437"><ele>100.087</ele><time>2026-04-20T18:38:05.075Z</time><hdop>9.875</hdop><vdop>2.625</vdop><extensions><gom:speed>0.0</gom:speed></extensions></trkpt>
   <trkpt lat="59.0638310809" lon="30.0286800437"><ele>100.088</ele><time>2026-04-20T18:38:06.075Z</time><hdop>9.875</hdop><vdop>2.562</vdop><extensions><gom:speed>0.0</gom:speed></extensions></trkpt>
   <trkpt lat="59.0638310809" lon="30.0286801275"><ele>100.091</ele><time>2026-04-20T18:38:07.075Z</time><hdop>9.875</hdop><vdop>2.562</vdop><extensions><gom:speed>0.0</gom:speed></extensions></trkpt>
   <trkpt lat="59.0638310809" lon="30.0286801275"><ele>100.091</ele><time>2026-04-20T18:38:08.075Z</time><hdop>9.875</hdop><vdop>2.562</vdop><extensions><gom:speed>0.0</gom:speed></extensions></trkpt>
   <trkpt lat="59.0638310809" lon="30.0286802952"><ele>100.093</ele><time>2026-04-20T18:38:09.076Z</time><hdop>9.875</hdop><vdop>2.625</vdop><extensions><gom:speed>0.0</gom:speed></extensions></trkpt>
   <trkpt lat="59.0638310809" lon="30.0286802952"><ele>100.097</ele><time>2026-04-20T18:38:10.076Z</time><hdop>9.875</hdop><vdop>2.625</vdop><extensions><gom:speed>0.0</gom:speed></extensions></trkpt>
   <trkpt lat="59.0638310809" lon="30.028680379"><ele>100.101</ele><time>2026-04-20T18:38:11.076Z</time><hdop>10.375</hdop><vdop>2.562</vdop><extensions><gom:speed>0.0</gom:speed></extensions></trkpt>
   <trkpt lat="59.0638310809" lon="30.028680379"><ele>100.102</ele><time>2026-04-20T18:38:12.075Z</time><hdop>10.375</hdop><vdop>2.5</vdop><extensions><gom:speed>0.0</gom:speed></extensions></trkpt>
   <trkpt lat="59.0638310809" lon="30.028680379"><ele>100.104</ele><time>2026-04-20T18:38:13.076Z</time><hdop>10.375</hdop><vdop>2.5</vdop><extensions><gom:speed>0.0</gom:speed></extensions></trkpt>
   <trkpt lat="59.0638310809" lon="30.0286804628"><ele>100.104</ele><time>2026-04-20T18:38:14.075Z</time><hdop>10.375</hdop><vdop>2.5</vdop><extensions><gom:speed>0.0</gom:speed></extensions></trkpt>
   <trkpt lat="59.0638310809" lon="30.0286804628"><ele>100.104</ele><time>2026-04-20T18:38:15.075Z</time><hdop>10.375</hdop><vdop>2.5</vdop><extensions><gom:speed>0.0</gom:speed></extensions></trkpt>
   <trkpt lat="59.0638309971" lon="30.0286804628"><ele>100.103</ele><time>2026-04-20T18:38:16.075Z</time><hdop>9.875</hdop><vdop>2.562</vdop><extensions><gom:speed>0.0</gom:speed></extensions></trkpt>
   <trkpt lat="59.0638309971" lon="30.0286804628"><ele>100.102</ele><time>2026-04-20T18:38:17.075Z</time><hdop>9.875</hdop><vdop>2.5</vdop><extensions><gom:speed>0.0</gom:speed></extensions></trkpt>
   <trkpt lat="59.0638309971" lon="30.0286804628"><ele>100.1</ele><time>2026-04-20T18:38:18.075Z</time><hdop>9.875</hdop><vdop>2.5</vdop><extensions><gom:speed>0.0</gom:speed></extensions></trkpt>
   <trkpt lat="59.0638309971" lon="30.0286805466"><ele>100.098</ele><time>2026-04-20T18:38:19.075Z</time><hdop>9.875</hdop><vdop>2.5</vdop><extensions><gom:speed>0.0</gom:speed></extensions></trkpt>
   <trkpt lat="59.0638309971" lon="30.0286805466"><ele>100.097</ele><time>2026-04-20T18:38:20.075Z</time><hdop>9.875</hdop><vdop>2.5</vdop><extensions><gom:speed>0.0</gom:speed></extensions></trkpt>
   <trkpt lat="59.0638309971" lon="30.0286805466"><ele>100.096</ele><time>2026-04-20T18:38:21.075Z</time><hdop>9.875</hdop><vdop>2.5</vdop><extensions><gom:speed>0.0</gom:speed></extensions></trkpt>
   <trkpt lat="59.0638309971" lon="30.0286806305"><ele>100.094</ele><time>2026-04-20T18:38:22.075Z</time><hdop>9.875</hdop><vdop>2.5</vdop><extensions><gom:speed>0.0</gom:speed></extensions></trkpt>
   <trkpt lat="59.0638309971" lon="30.0286806305"><ele>100.093</ele><time>2026-04-20T18:38:23.076Z</time><hdop>9.875</hdop><vdop>2.5</vdop><extensions><gom:speed>0.0</gom:speed></extensions></trkpt>
   <trkpt lat="59.0638309971" lon="30.0286807981"><ele>100.093</ele><time>2026-04-20T18:38:24.075Z</time><hdop>9.875</hdop><vdop>2.5</vdop><extensions><gom:speed>0.0</gom:speed></extensions></trkpt>
   <trkpt lat="59.0638308713" lon="30.0286807981"><ele>100.093</ele><time>2026-04-20T18:38:25.075Z</time><hdop>9.875</hdop><vdop>2.5</vdop><extensions><gom:speed>0.0</gom:speed></extensions></trkpt>
   <trkpt lat="59.0638308713" lon="30.0286807981"><ele>100.093</ele><time>2026-04-20T18:38:26.075Z</time><hdop>9.875</hdop><vdop>2.5</vdop><extensions><gom:speed>0.0</gom:speed></extensions></trkpt>
   <trkpt lat="59.0638308713" lon="30.0286808819"><ele>100.092</ele><time>2026-04-20T18:38:27.076Z</time><hdop>9.875</hdop><vdop>2.5</vdop><extensions><gom:speed>0.0</gom:speed></extensions></trkpt>
   <trkpt lat="59.0638308713" lon="30.0286808819"><ele>100.091</ele><time>2026-04-20T18:38:28.075Z</time><hdop>9.875</hdop><vdop>2.5</vdop><extensions><gom:speed>0.0</gom:speed></extensions></trkpt>
   <trkpt lat="59.0638308713" lon="30.0286808819"><ele>100.093</ele><time>2026-04-20T18:38:29.075Z</time><hdop>9.875</hdop><vdop>2.5</vdop><extensions><gom:speed>0.0</gom:speed></extensions></trkpt>
   <trkpt lat="59.0638308713" lon="30.0286809657"><ele>100.095</ele><time>2026-04-20T18:38:30.075Z</time><hdop>9.875</hdop><vdop>2.562</vdop><extensions><gom:speed>0.0</gom:speed></extensions></trkpt>
   <trkpt lat="59.0638308713" lon="30.0286809657"><ele>100.096</ele><time>2026-04-20T18:38:31.075Z</time><hdop>9.875</hdop><vdop>2.687</vdop><extensions><gom:speed>0.0</gom:speed></extensions></trkpt>
   <trkpt lat="59.0638308713" lon="30.0286809657"><ele>100.096</ele><time>2026-04-20T18:38:32.075Z</time><hdop>9.875</hdop><vdop>2.75</vdop><extensions><gom:speed>0.0</gom:speed></extensions></trkpt>
   <trkpt lat="59.0638308713" lon="30.0286809657"><ele>100.096</ele><time>2026-04-20T18:38:33.075Z</time><hdop>9.875</hdop><vdop>2.875</vdop><extensions><gom:speed>0.0</gom:speed></extensions></trkpt>
   <trkpt lat="59.0638308713" lon="30.0286809657"><ele>100.095</ele><time>2026-04-20T18:38:34.075Z</time><hdop>9.875</hdop><vdop>2.875</vdop><extensions><gom:speed>0.0</gom:speed></extensions></trkpt>
   <trkpt lat="59.0638308713" lon="30.0286809657"><ele>100.095</ele><time>2026-04-20T18:38:35.075Z</time><hdop>9.875</hdop><vdop>2.937</vdop><extensions><gom:speed>0.0</gom:speed></extensions></trkpt>
   <trkpt lat="59.0638308713" lon="30.0286810495"><ele>100.095</ele><time>2026-04-20T18:38:36.075Z</time><hdop>9.875</hdop><vdop>3.062</vdop><extensions><gom:speed>0.0</gom:speed></extensions></trkpt>
   <trkpt lat="59.0638307875" lon="30.0286810495"><ele>100.093</ele><time>2026-04-20T18:38:37.075Z</time><hdop>9.875</hdop><vdop>3.062</vdop><extensions><gom:speed>0.0</gom:speed></extensions></trkpt>
   <trkpt lat="59.0638307875" lon="30.0286810495"><ele>100.093</ele><time>2026-04-20T18:38:38.076Z</time><hdop>9.875</hdop><vdop>2.937</vdop><extensions><gom:speed>0.0</gom:speed></extensions></trkpt>
   <trkpt lat="59.0638307875" lon="30.0286810495"><ele>100.092</ele><time>2026-04-20T18:38:39.076Z</time><hdop>9.875</hdop><vdop>2.875</vdop><extensions><gom:speed>0.0</gom:speed></extensions></trkpt>
   <trkpt lat="59.0638307875" lon="30.0286811334"><ele>100.092</ele><time>2026-04-20T18:38:40.075Z</time><hdop>9.875</hdop><vdop>3.125</vdop><extensions><gom:speed>0.0</gom:speed></extensions></trkpt>
   <trkpt lat="59.0638307875" lon="30.0286811334"><ele>100.091</ele><time>2026-04-20T18:38:41.075Z</time><hdop>9.937</hdop><vdop>3.375</vdop><extensions><gom:speed>0.0</gom:speed></extensions></trkpt>
   <trkpt lat="59.0638307875" lon="30.0286811334"><ele>100.091</ele><time>2026-04-20T18:38:42.076Z</time><hdop>9.937</hdop><vdop>3.187</vdop><extensions><gom:speed>0.0</gom:speed></extensions></trkpt>
   <trkpt lat="59.0638306618" lon="30.0286811334"><ele>100.091</ele><time>2026-04-20T18:38:43.075Z</time><hdop>9.937</hdop><vdop>3.25</vdop><extensions><gom:speed>0.0</gom:speed></extensions></trkpt>
   <trkpt lat="59.0638306618" lon="30.0286812172"><ele>100.091</ele><time>2026-04-20T18:38:44.075Z</time><hdop>9.937</hdop><vdop>3.25</vdop><extensions><gom:speed>0.0</gom:speed></extensions></trkpt>
   <trkpt lat="59.0638306618" lon="30.0286812172"><ele>100.09</ele><time>2026-04-20T18:38:45.076Z</time><hdop>9.937</hdop><vdop>3.312</vdop><extensions><gom:speed>0.0</gom:speed></extensions></trkpt>
   <trkpt lat="59.0638306618" lon="30.0286812172"><ele>100.09</ele><time>2026-04-20T18:38:46.075Z</time><hdop>9.937</hdop><vdop>3.375</vdop><extensions><gom:speed>0.0</gom:speed></extensions></trkpt>
   <trkpt lat="59.063830578" lon="30.0286812172"><ele>100.088</ele><time>2026-04-20T18:38:47.075Z</time><hdop>9.875</hdop><vdop>3.437</vdop><extensions><gom:speed>0.0</gom:speed></extensions></trkpt>
   <trkpt lat="59.063830578" lon="30.0286812172"><ele>100.089</ele><time>2026-04-20T18:38:48.075Z</time><hdop>9.875</hdop><vdop>3.437</vdop><extensions><gom:speed>0.0</gom:speed></extensions></trkpt>
   <trkpt lat="59.063830578" lon="30.0286813848"><ele>100.09</ele><time>2026-04-20T18:38:49.075Z</time><hdop>9.875</hdop><vdop>3.5</vdop><extensions><gom:speed>0.0</gom:speed></extensions></trkpt>
   <trkpt lat="59.0638304941" lon="30.0286813848"><ele>100.091</ele><time>2026-04-20T18:38:50.075Z</time><hdop>9.875</hdop><vdop>3.562</vdop><extensions><gom:speed>0.0</gom:speed></extensions></trkpt>
   <trkpt lat="59.0638304941" lon="30.0286813848"><ele>100.092</ele><time>2026-04-20T18:38:51.075Z</time><hdop>9.937</hdop><vdop>3.75</vdop><extensions><gom:speed>0.0</gom:speed></extensions></trkpt>
   <trkpt lat="59.0638303684" lon="30.0286814686"><ele>100.093</ele><time>2026-04-20T18:38:52.075Z</time><hdop>9.937</hdop><vdop>3.687</vdop><extensions><gom:speed>0.0</gom:speed></extensions></trkpt>
   <trkpt lat="59.0638303684" lon="30.0286814686"><ele>100.095</ele><time>2026-04-20T18:38:53.075Z</time><hdop>9.937</hdop><vdop>3.812</vdop><extensions><gom:speed>0.0</gom:speed></extensions></trkpt>
   <trkpt lat="59.0638303684" lon="30.0286814686"><ele>100.096</ele><time>2026-04-20T18:38:54.075Z</time><hdop>9.937</hdop><vdop>3.875</vdop><extensions><gom:speed>0.0</gom:speed></extensions></trkpt>
   <trkpt lat="59.0638302846" lon="30.0286815525"><ele>100.098</ele><time>2026-04-20T18:38:55.075Z</time><hdop>9.937</hdop><vdop>3.875</vdop><extensions><gom:speed>0.0</gom:speed></extensions></trkpt>
   <trkpt lat="59.0638302846" lon="30.0286815525"><ele>100.101</ele><time>2026-04-20T18:38:56.075Z</time><hdop>9.937</hdop><vdop>3.875</vdop><extensions><gom:speed>0.0</gom:speed></extensions></trkpt>
   <trkpt lat="59.0638302846" lon="30.0286815525"><ele>100.103</ele><time>2026-04-20T18:38:57.075Z</time><hdop>9.937</hdop><vdop>3.937</vdop><extensions><gom:speed>0.0</gom:speed></extensions></trkpt>
   <trkpt lat="59.0638301589" lon="30.0286816363"><ele>100.105</ele><time>2026-04-20T18:38:58.075Z</time><hdop>10.0</hdop><vdop>3.937</vdop><extensions><gom:speed>0.0</gom:speed></extensions></trkpt>
   <trkpt lat="59.0638301589" lon="30.0286816363"><ele>100.107</ele><time>2026-04-20T18:38:59.075Z</time><hdop>10.0</hdop><vdop>4.0</vdop><extensions><gom:speed>0.0</gom:speed></extensions></trkpt>
   <trkpt lat="59.0638301589" lon="30.0286816363"><ele>100.11</ele><time>2026-04-20T18:39:00.075Z</time><hdop>10.0</hdop><vdop>4.0</vdop><extensions><gom:speed>0.0</gom:speed></extensions></trkpt>
   <trkpt lat="59.0638300751" lon="30.0286817201"><ele>100.112</ele><time>2026-04-20T18:39:01.075Z</time><hdop>10.0</hdop><vdop>4.0</vdop><extensions><gom:speed>0.0</gom:speed></extensions></trkpt>
   <trkpt lat="59.0638300751" lon="30.0286817201"><ele>100.115</ele><time>2026-04-20T18:39:02.076Z</time><hdop>9.937</hdop><vdop>3.875</vdop><extensions><gom:speed>0.0</gom:speed></extensions></trkpt>
   <trkpt lat="59.0638300751" lon="30.0286817201"><ele>100.117</ele><time>2026-04-20T18:39:03.075Z</time><hdop>9.937</hdop><vdop>3.875</vdop><extensions><gom:speed>0.0</gom:speed></extensions></trkpt>
   <trkpt lat="59.0638300751" lon="30.0286817201"><ele>100.118</ele><time>2026-04-20T18:39:04.075Z</time><hdop>9.937</hdop><vdop>3.812</vdop><extensions><gom:speed>0.0</gom:speed></extensions></trkpt>
   <trkpt lat="59.0638300751" lon="30.0286818877"><ele>100.121</ele><time>2026-04-20T18:39:05.075Z</time><hdop>9.937</hdop><vdop>3.75</vdop><extensions><gom:speed>0.0</gom:speed></extensions></trkpt>
   <trkpt lat="59.0638300751" lon="30.0286818877"><ele>100.123</ele><time>2026-04-20T18:39:06.075Z</time><hdop>9.937</hdop><vdop>3.75</vdop><extensions><gom:speed>0.0</gom:speed></extensions></trkpt>
   <trkpt lat="59.0638299912" lon="30.0286818877"><ele>100.125</ele><time>2026-04-20T18:39:07.075Z</time><hdop>9.937</hdop><vdop>3.562</vdop><extensions><gom:speed>0.0</gom:speed></extensions></trkpt>
   <trkpt lat="59.0638299912" lon="30.0286818877"><ele>100.127</ele><time>2026-04-20T18:39:08.075Z</time><hdop>9.937</hdop><vdop>3.5</vdop><extensions><gom:speed>0.0</gom:speed></extensions></trkpt>
   <trkpt lat="59.0638299912" lon="30.0286819716"><ele>100.128</ele><time>2026-04-20T18:39:09.075Z</time><hdop>9.937</hdop><vdop>3.5</vdop><extensions><gom:speed>0.0</gom:speed></extensions></trkpt>
   <trkpt lat="59.0638299912" lon="30.0286819716"><ele>100.13</ele><time>2026-04-20T18:39:10.075Z</time><hdop>9.937</hdop><vdop>3.625</vdop><extensions><gom:speed>0.0</gom:speed></extensions></trkpt>
   <trkpt lat="59.0638298655" lon="30.0286819716"><ele>100.132</ele><time>2026-04-20T18:39:11.075Z</time><hdop>9.937</hdop><vdop>3.562</vdop><extensions><gom:speed>0.0</gom:speed></extensions></trkpt>
   <trkpt lat="59.0638298655" lon="30.0286819716"><ele>100.135</ele><time>2026-04-20T18:39:12.076Z</time><hdop>9.937</hdop><vdop>3.562</vdop><extensions><gom:speed>0.0</gom:speed></extensions></trkpt>
   <trkpt lat="59.0638298655" lon="30.0286820554"><ele>100.137</ele><time>2026-04-20T18:39:13.075Z</time><hdop>10.0</hdop><vdop>3.75</vdop><extensions><gom:speed>0.0</gom:speed></extensions></trkpt>
   <trkpt lat="59.0638298655" lon="30.0286820554"><ele>100.138</ele><time>2026-04-20T18:39:14.075Z</time><hdop>10.0</hdop><vdop>3.812</vdop><extensions><gom:speed>0.0</gom:speed></extensions></trkpt>
   <trkpt lat="59.0638297817" lon="30.0286820554"><ele>100.14</ele><time>2026-04-20T18:39:15.076Z</time><hdop>10.0</hdop><vdop>3.625</vdop><extensions><gom:speed>0.0</gom:speed></extensions></trkpt>
   <trkpt lat="59.0638297817" lon="30.0286821392"><ele>100.142</ele><time>2026-04-20T18:39:16.076Z</time><hdop>10.0</hdop><vdop>3.562</vdop><extensions><gom:speed>0.0</gom:speed></extensions></trkpt>
   <trkpt lat="59.0638297817" lon="30.0286821392"><ele>100.144</ele><time>2026-04-20T18:39:17.075Z</time><hdop>10.0</hdop><vdop>3.562</vdop><extensions><gom:speed>0.0</gom:speed></extensions></trkpt>
   <trkpt lat="59.0638297817" lon="30.0286821392"><ele>100.145</ele><time>2026-04-20T18:39:18.075Z</time><hdop>10.0</hdop><vdop>3.5</vdop><extensions><gom:speed>0.0</gom:speed></extensions></trkpt>
   <trkpt lat="59.0638297817" lon="30.0286821392"><ele>100.146</ele><time>2026-04-20T18:39:19.075Z</time><hdop>10.0</hdop><vdop>3.75</vdop><extensions><gom:speed>0.0</gom:speed></extensions></trkpt>
   <trkpt lat="59.0638296979" lon="30.0286821392"><ele>100.146</ele><time>2026-04-20T18:39:20.075Z</time><hdop>9.937</hdop><vdop>3.812</vdop><extensions><gom:speed>0.0</gom:speed></extensions></trkpt>
   <trkpt lat="59.0638296979" lon="30.028682223"><ele>100.146</ele><time>2026-04-20T18:39:21.075Z</time><hdop>9.937</hdop><vdop>3.812</vdop><extensions><gom:speed>0.0</gom:speed></extensions></trkpt>
   <trkpt lat="59.0638295721" lon="30.028682223"><ele>100.145</ele><time>2026-04-20T18:39:22.075Z</time><hdop>9.937</hdop><vdop>3.75</vdop><extensions><gom:speed>0.0</gom:speed></extensions></trkpt>
   <trkpt lat="59.0638295721" lon="30.028682223"><ele>100.144</ele><time>2026-04-20T18:39:23.075Z</time><hdop>9.937</hdop><vdop>3.812</vdop><extensions><gom:speed>0.0</gom:speed></extensions></trkpt>
   <trkpt lat="59.0638295721" lon="30.028682223"><ele>100.143</ele><time>2026-04-20T18:39:24.075Z</time><hdop>10.0</hdop><vdop>3.875</vdop><extensions><gom:speed>0.0</gom:speed></extensions></trkpt>
   <trkpt lat="59.0638294883" lon="30.028682223"><ele>100.142</ele><time>2026-04-20T18:39:25.075Z</time><hdop>10.0</hdop><vdop>3.875</vdop><extensions><gom:speed>0.0</gom:speed></extensions></trkpt>
   <trkpt lat="59.0638294883" lon="30.028682223"><ele>100.141</ele><time>2026-04-20T18:39:26.075Z</time><hdop>10.0</hdop><vdop>3.937</vdop><extensions><gom:speed>0.0</gom:speed></extensions></trkpt>
   <trkpt lat="59.0638293626" lon="30.0286823907"><ele>100.138</ele><time>2026-04-20T18:39:27.075Z</time><hdop>10.0</hdop><vdop>3.937</vdop><extensions><gom:speed>0.0</gom:speed></extensions></trkpt>
   <trkpt lat="59.0638293626" lon="30.0286823907"><ele>100.136</ele><time>2026-04-20T18:39:28.075Z</time><hdop>10.0</hdop><vdop>4.062</vdop><extensions><gom:speed>0.0</gom:speed></extensions></trkpt>
   <trkpt lat="59.0638293626" lon="30.0286823907"><ele>100.134</ele><time>2026-04-20T18:39:29.075Z</time><hdop>10.0</hdop><vdop>4.062</vdop><extensions><gom:speed>0.0</gom:speed></extensions></trkpt>
   <trkpt lat="59.0638292788" lon="30.0286823907"><ele>100.131</ele><time>2026-04-20T18:39:30.075Z</time><hdop>10.0</hdop><vdop>4.062</vdop><extensions><gom:speed>0.0</gom:speed></extensions></trkpt>
   <trkpt lat="59.0638292788" lon="30.0286823907"><ele>100.129</ele><time>2026-04-20T18:39:31.075Z</time><hdop>10.687</hdop><vdop>4.0</vdop><extensions><gom:speed>0.0</gom:speed></extensions></trkpt>
   <trkpt lat="59.063829195" lon="30.0286823907"><ele>100.128</ele><time>2026-04-20T18:39:32.076Z</time><hdop>10.687</hdop><vdop>4.0</vdop><extensions><gom:speed>0.0</gom:speed></extensions></trkpt>
   <trkpt lat="59.063829195" lon="30.0286823907"><ele>100.126</ele><time>2026-04-20T18:39:33.075Z</time><hdop>10.687</hdop><vdop>3.812</vdop><extensions><gom:speed>0.0</gom:speed></extensions></trkpt>
   <trkpt lat="59.0638290692" lon="30.0286823907"><ele>100.125</ele><time>2026-04-20T18:39:34.076Z</time><hdop>10.687</hdop><vdop>3.687</vdop><extensions><gom:speed>0.0</gom:speed></extensions></trkpt>
   <trkpt lat="59.0638290692" lon="30.0286823907"><ele>100.124</ele><time>2026-04-20T18:39:35.075Z</time><hdop>10.625</hdop><vdop>3.687</vdop><extensions><gom:speed>0.0</gom:speed></extensions></trkpt>
   <trkpt lat="59.0638289854" lon="30.0286823907"><ele>100.124</ele><time>2026-04-20T18:39:36.075Z</time><hdop>9.937</hdop><vdop>3.687</vdop><extensions><gom:speed>0.0</gom:speed></extensions></trkpt>
   <trkpt lat="59.0638289854" lon="30.0286823907"><ele>100.123</ele><time>2026-04-20T18:39:37.075Z</time><hdop>9.937</hdop><vdop>3.625</vdop><extensions><gom:speed>0.0</gom:speed></extensions></trkpt>
   <trkpt lat="59.0638289854" lon="30.0286824745"><ele>100.122</ele><time>2026-04-20T18:39:38.075Z</time><hdop>9.875</hdop><vdop>3.625</vdop><extensions><gom:speed>0.0</gom:speed></extensions></trkpt>
   <trkpt lat="59.0638288597" lon="30.0286824745"><ele>100.123</ele><time>2026-04-20T18:39:39.075Z</time><hdop>9.875</hdop><vdop>3.5</vdop><extensions><gom:speed>0.0</gom:speed></extensions></trkpt>
   <trkpt lat="59.0638288597" lon="30.0286824745"><ele>100.125</ele><time>2026-04-20T18:39:40.075Z</time><hdop>9.875</hdop><vdop>3.625</vdop><extensions><gom:speed>0.0</gom:speed></extensions></trkpt>
   <trkpt lat="59.0638288597" lon="30.0286824745"><ele>100.125</ele><time>2026-04-20T18:39:41.075Z</time><hdop>9.875</hdop><vdop>3.562</vdop><extensions><gom:speed>0.0</gom:speed></extensions></trkpt>
   <trkpt lat="59.0638288597" lon="30.0286824745"><ele>100.124</ele><time>2026-04-20T18:39:42.075Z</time><hdop>9.875</hdop><vdop>3.375</vdop><extensions><gom:speed>0.0</gom:speed></extensions></trkpt>
   <trkpt lat="59.0638287759" lon="30.0286823907"><ele>100.123</ele><time>2026-04-20T18:39:43.075Z</time><hdop>9.875</hdop><vdop>3.375</vdop><extensions><gom:speed>0.0</gom:speed></extensions></trkpt>
   <trkpt lat="59.0638287759" lon="30.0286823907"><ele>100.124</ele><time>2026-04-20T18:39:44.075Z</time><hdop>9.875</hdop><vdop>3.375</vdop><extensions><gom:speed>0.0</gom:speed></extensions></trkpt>
   <trkpt lat="59.0638287759" lon="30.0286823907"><ele>100.123</ele><time>2026-04-20T18:39:45.075Z</time><hdop>9.875</hdop><vdop>3.437</vdop><extensions><gom:speed>0.0</gom:speed></extensions></trkpt>
   <trkpt lat="59.063828692" lon="30.0286823907"><ele>100.123</ele><time>2026-04-20T18:39:46.075Z</time><hdop>9.875</hdop><vdop>3.375</vdop><extensions><gom:speed>0.0</gom:speed></extensions></trkpt>
   <trkpt lat="59.063828692" lon="30.0286823907"><ele>100.124</ele><time>2026-04-20T18:39:47.075Z</time><hdop>9.875</hdop><vdop>3.562</vdop><extensions><gom:speed>0.0</gom:speed></extensions></trkpt>
   <trkpt lat="59.063828692" lon="30.0286824745"><ele>100.125</ele><time>2026-04-20T18:39:48.075Z</time><hdop>9.875</hdop><vdop>3.5</vdop><extensions><gom:speed>0.0</gom:speed></extensions></trkpt>
   <trkpt lat="59.063828692" lon="30.0286824745"><ele>100.126</ele><time>2026-04-20T18:39:49.075Z</time><hdop>9.875</hdop><vdop>3.437</vdop><extensions><gom:speed>0.0</gom:speed></extensions></trkpt>
   <trkpt lat="59.0638285663" lon="30.0286824745"><ele>100.128</ele><time>2026-04-20T18:39:50.076Z</time><hdop>9.875</hdop><vdop>3.437</vdop><extensions><gom:speed>0.0</gom:speed></extensions></trkpt>
   <trkpt lat="59.0638285663" lon="30.0286824745"><ele>100.13</ele><time>2026-04-20T18:39:51.075Z</time><hdop>9.875</hdop><vdop>3.437</vdop><extensions><gom:speed>0.0</gom:speed></extensions></trkpt>
   <trkpt lat="59.0638285663" lon="30.0286824745"><ele>100.13</ele><time>2026-04-20T18:39:52.075Z</time><hdop>9.875</hdop><vdop>3.437</vdop><extensions><gom:speed>0.0</gom:speed></extensions></trkpt>
   <trkpt lat="59.0638284825" lon="30.0286824745"><ele>100.131</ele><time>2026-04-20T18:39:53.076Z</time><hdop>9.875</hdop><vdop>3.5</vdop><extensions><gom:speed>0.0</gom:speed></extensions></trkpt>
   <trkpt lat="59.0638284825" lon="30.0286825583"><ele>100.131</ele><time>2026-04-20T18:39:54.076Z</time><hdop>9.937</hdop><vdop>3.687</vdop><extensions><gom:speed>0.0</gom:speed></extensions></trkpt>
   <trkpt lat="59.0638284825" lon="30.0286825583"><ele>100.132</ele><time>2026-04-20T18:39:55.076Z</time><hdop>9.937</hdop><vdop>3.937</vdop><extensions><gom:speed>0.0</gom:speed></extensions></trkpt>
   <trkpt lat="59.0638283987" lon="30.0286825583"><ele>100.133</ele><time>2026-04-20T18:39:56.076Z</time><hdop>10.0</hdop><vdop>4.062</vdop><extensions><gom:speed>0.0</gom:speed></extensions></trkpt>
   <trkpt lat="59.0638283987" lon="30.0286825583"><ele>100.133</ele><time>2026-04-20T18:39:57.075Z</time><hdop>10.062</hdop><vdop>4.187</vdop><extensions><gom:speed>0.0</gom:speed></extensions></trkpt>
   <trkpt lat="59.0638283987" lon="30.0286825583"><ele>100.132</ele><time>2026-04-20T18:39:58.075Z</time><hdop>10.125</hdop><vdop>4.062</vdop><extensions><gom:speed>0.0</gom:speed></extensions></trkpt>
   <trkpt lat="59.0638283987" lon="30.0286825583"><ele>100.131</ele><time>2026-04-20T18:39:59.075Z</time><hdop>10.125</hdop><vdop>3.937</vdop><extensions><gom:speed>0.0</gom:speed></extensions></trkpt>
   <trkpt lat="59.0638283987" lon="30.0286825583"><ele>100.134</ele><time>2026-04-20T18:40:00.075Z</time><hdop>10.125</hdop><vdop>3.937</vdop><extensions><gom:speed>0.0</gom:speed></extensions></trkpt>
   <trkpt lat="59.0638283987" lon="30.0286826421"><ele>100.136</ele><time>2026-04-20T18:40:01.075Z</time><hdop>10.125</hdop><vdop>4.062</vdop><extensions><gom:speed>0.0</gom:speed></extensions></trkpt>
   <trkpt lat="59.0638283987" lon="30.0286826421"><ele>100.138</ele><time>2026-04-20T18:40:02.075Z</time><hdop>10.125</hdop><vdop>4.0</vdop><extensions><gom:speed>0.0</gom:speed></extensions></trkpt>
   <trkpt lat="59.0638283987" lon="30.0286826421"><ele>100.135</ele><time>2026-04-20T18:40:03.076Z</time><hdop>10.062</hdop><vdop>4.0</vdop><extensions><gom:speed>0.0</gom:speed></extensions></trkpt>
   <trkpt lat="59.0638283987" lon="30.0286826421"><ele>100.131</ele><time>2026-04-20T18:40:04.076Z</time><hdop>10.062</hdop><vdop>4.0</vdop><extensions><gom:speed>0.0</gom:speed></extensions></trkpt>
   <trkpt lat="59.0638283987" lon="30.0286826421"><ele>100.125</ele><time>2026-04-20T18:40:05.075Z</time><hdop>10.062</hdop><vdop>3.812</vdop><extensions><gom:speed>0.0</gom:speed></extensions></trkpt>
   <trkpt lat="59.0638282729" lon="30.0286825583"><ele>100.118</ele><time>2026-04-20T18:40:06.075Z</time><hdop>10.062</hdop><vdop>3.875</vdop><extensions><gom:speed>0.0</gom:speed></extensions></trkpt>
   <trkpt lat="59.0638282729" lon="30.0286825583"><ele>100.111</ele><time>2026-04-20T18:40:07.075Z</time><hdop>10.0</hdop><vdop>3.75</vdop><extensions><gom:speed>0.0</gom:speed></extensions></trkpt>
   <trkpt lat="59.0638282729" lon="30.0286825583"><ele>100.103</ele><time>2026-04-20T18:40:08.075Z</time><hdop>10.0</hdop><vdop>3.812</vdop><extensions><gom:speed>0.0</gom:speed></extensions></trkpt>
   <trkpt lat="59.0638281891" lon="30.0286825583"><ele>100.097</ele><time>2026-04-20T18:40:09.075Z</time><hdop>9.937</hdop><vdop>3.75</vdop><extensions><gom:speed>0.0</gom:speed></extensions></trkpt>
   <trkpt lat="59.0638281891" lon="30.0286825583"><ele>100.094</ele><time>2026-04-20T18:40:10.075Z</time><hdop>9.937</hdop><vdop>3.75</vdop><extensions><gom:speed>0.0</gom:speed></extensions></trkpt>
   <trkpt lat="59.0638281891" lon="30.0286825583"><ele>100.092</ele><time>2026-04-20T18:40:11.075Z</time><hdop>9.937</hdop><vdop>3.875</vdop><extensions><gom:speed>0.0</gom:speed></extensions></trkpt>
   <trkpt lat="59.0638281891" lon="30.0286825583"><ele>100.091</ele><time>2026-04-20T18:40:12.075Z</time><hdop>10.0</hdop><vdop>4.062</vdop><extensions><gom:speed>0.0</gom:speed></extensions></trkpt>
   <trkpt lat="59.0638281891" lon="30.0286825583"><ele>100.091</ele><time>2026-04-20T18:40:13.075Z</time><hdop>10.0</hdop><vdop>3.937</vdop><extensions><gom:speed>0.0</gom:speed></extensions></trkpt>
   <trkpt lat="59.0638281891" lon="30.0286825583"><ele>100.09</ele><time>2026-04-20T18:40:14.075Z</time><hdop>10.0</hdop><vdop>3.937</vdop><extensions><gom:speed>0.0</gom:speed></extensions></trkpt>
   <trkpt lat="59.0638281891" lon="30.0286825583"><ele>100.091</ele><time>2026-04-20T18:40:15.076Z</time><hdop>10.062</hdop><vdop>3.875</vdop><extensions><gom:speed>0.0</gom:speed></extensions></trkpt>
   <trkpt lat="59.0638281891" lon="30.0286825583"><ele>100.093</ele><time>2026-04-20T18:40:16.075Z</time><hdop>10.062</hdop><vdop>3.875</vdop><extensions><gom:speed>0.0</gom:speed></extensions></trkpt>
   <trkpt lat="59.0638281891" lon="30.0286825583"><ele>100.093</ele><time>2026-04-20T18:40:17.075Z</time><hdop>10.062</hdop><vdop>3.75</vdop><extensions><gom:speed>0.0</gom:speed></extensions></trkpt>
   <trkpt lat="59.0638281891" lon="30.0286825583"><ele>100.094</ele><time>2026-04-20T18:40:18.075Z</time><hdop>10.0</hdop><vdop>3.75</vdop><extensions><gom:speed>0.0</gom:speed></extensions></trkpt>
   <trkpt lat="59.0638281891" lon="30.0286825583"><ele>100.095</ele><time>2026-04-20T18:40:19.075Z</time><hdop>10.0</hdop><vdop>3.812</vdop><extensions><gom:speed>0.0</gom:speed></extensions></trkpt>
   <trkpt lat="59.0638281891" lon="30.0286825583"><ele>100.096</ele><time>2026-04-20T18:40:20.075Z</time><hdop>10.0</hdop><vdop>3.812</vdop><extensions><gom:speed>0.0</gom:speed></extensions></trkpt>
   <trkpt lat="59.0638281891" lon="30.0286825583"><ele>100.098</ele><time>2026-04-20T18:40:21.075Z</time><hdop>9.937</hdop><vdop>3.812</vdop><extensions><gom:speed>0.0</gom:speed></extensions></trkpt>
   <trkpt lat="59.0638281891" lon="30.0286825583"><ele>100.1</ele><time>2026-04-20T18:40:22.076Z</time><hdop>9.937</hdop><vdop>3.687</vdop><extensions><gom:speed>0.0</gom:speed></extensions></trkpt>
   <trkpt lat="59.0638282729" lon="30.0286826421"><ele>100.103</ele><time>2026-04-20T18:40:23.075Z</time><hdop>9.937</hdop><vdop>3.625</vdop><extensions><gom:speed>0.0</gom:speed></extensions></trkpt>
   <trkpt lat="59.0638282729" lon="30.0286826421"><ele>100.107</ele><time>2026-04-20T18:40:24.075Z</time><hdop>9.937</hdop><vdop>3.562</vdop><extensions><gom:speed>0.0</gom:speed></extensions></trkpt>
   <trkpt lat="59.0638282729" lon="30.0286826421"><ele>100.109</ele><time>2026-04-20T18:40:25.075Z</time><hdop>9.937</hdop><vdop>3.625</vdop><extensions><gom:speed>0.0</gom:speed></extensions></trkpt>
   <trkpt lat="59.0638282729" lon="30.0286826421"><ele>100.11</ele><time>2026-04-20T18:40:26.075Z</time><hdop>9.875</hdop><vdop>3.625</vdop><extensions><gom:speed>0.0</gom:speed></extensions></trkpt>
   <trkpt lat="59.0638281891" lon="30.0286826421"><ele>100.109</ele><time>2026-04-20T18:40:27.075Z</time><hdop>9.875</hdop><vdop>3.437</vdop><extensions><gom:speed>0.0</gom:speed></extensions></trkpt>
   <trkpt lat="59.0638281891" lon="30.0286826421"><ele>100.107</ele><time>2026-04-20T18:40:28.075Z</time><hdop>9.875</hdop><vdop>3.312</vdop><extensions><gom:speed>0.0</gom:speed></extensions></trkpt>
   <trkpt lat="59.0638281891" lon="30.0286826421"><ele>100.105</ele><time>2026-04-20T18:40:29.076Z</time><hdop>9.875</hdop><vdop>3.25</vdop><extensions><gom:speed>0.0</gom:speed></extensions></trkpt>
   <trkpt lat="59.0638281891" lon="30.0286826421"><ele>100.103</ele><time>2026-04-20T18:40:30.075Z</time><hdop>9.875</hdop><vdop>3.375</vdop><extensions><gom:speed>0.0</gom:speed></extensions></trkpt>
   <trkpt lat="59.0638280634" lon="30.0286826421"><ele>100.102</ele><time>2026-04-20T18:40:31.075Z</time><hdop>9.875</hdop><vdop>3.562</vdop><extensions><gom:speed>0.0</gom:speed></extensions></trkpt>
   <trkpt lat="59.0638280634" lon="30.0286826421"><ele>100.101</ele><time>2026-04-20T18:40:32.075Z</time><hdop>9.875</hdop><vdop>3.812</vdop><extensions><gom:speed>0.0</gom:speed></extensions></trkpt>
   <trkpt lat="59.0638280634" lon="30.0286826421"><ele>100.1</ele><time>2026-04-20T18:40:33.075Z</time><hdop>9.937</hdop><vdop>4.062</vdop><extensions><gom:speed>0.0</gom:speed></extensions></trkpt>
   <trkpt lat="59.0638280634" lon="30.0286826421"><ele>100.098</ele><time>2026-04-20T18:40:34.076Z</time><hdop>9.937</hdop><vdop>4.125</vdop><extensions><gom:speed>0.0</gom:speed></extensions></trkpt>
   <trkpt lat="59.0638280634" lon="30.0286826421"><ele>100.097</ele><time>2026-04-20T18:40:35.075Z</time><hdop>9.937</hdop><vdop>4.125</vdop><extensions><gom:speed>0.0</gom:speed></extensions></trkpt>
   <trkpt lat="59.0638280634" lon="30.0286826421"><ele>100.095</ele><time>2026-04-20T18:40:36.075Z</time><hdop>10.0</hdop><vdop>4.125</vdop><extensions><gom:speed>0.0</gom:speed></extensions></trkpt>
   <trkpt lat="59.0638279796" lon="30.0286827259"><ele>100.094</ele><time>2026-04-20T18:40:37.075Z</time><hdop>10.0</hdop><vdop>4.25</vdop><extensions><gom:speed>0.0</gom:speed></extensions></trkpt>
   <trkpt lat="59.0638279796" lon="30.0286827259"><ele>100.093</ele><time>2026-04-20T18:40:38.075Z</time><hdop>10.0</hdop><vdop>4.062</vdop><extensions><gom:speed>0.0</gom:speed></extensions></trkpt>
   <trkpt lat="59.0638279796" lon="30.0286827259"><ele>100.092</ele><time>2026-04-20T18:40:39.075Z</time><hdop>10.0</hdop><vdop>4.125</vdop><extensions><gom:speed>0.0</gom:speed></extensions></trkpt>
   <trkpt lat="59.0638279796" lon="30.0286827259"><ele>100.09</ele><time>2026-04-20T18:40:40.075Z</time><hdop>10.0</hdop><vdop>4.062</vdop><extensions><gom:speed>0.0</gom:speed></extensions></trkpt>
   <trkpt lat="59.0638279796" lon="30.0286827259"><ele>100.09</ele><time>2026-04-20T18:40:41.075Z</time><hdop>10.0</hdop><vdop>4.0</vdop><extensions><gom:speed>0.0</gom:speed></extensions></trkpt>
   <trkpt lat="59.0638279796" lon="30.0286827259"><ele>100.089</ele><time>2026-04-20T18:40:42.075Z</time><hdop>9.937</hdop><vdop>4.062</vdop><extensions><gom:speed>0.0</gom:speed></extensions></trkpt>
   <trkpt lat="59.0638278958" lon="30.0286828936"><ele>100.09</ele><time>2026-04-20T18:40:43.076Z</time><hdop>9.937</hdop><vdop>4.062</vdop><extensions><gom:speed>0.0</gom:speed></extensions></trkpt>
   <trkpt lat="59.0638278958" lon="30.0286828936"><ele>100.09</ele><time>2026-04-20T18:40:44.076Z</time><hdop>9.937</hdop><vdop>4.187</vdop><extensions><gom:speed>0.0</gom:speed></extensions></trkpt>
   <trkpt lat="59.0638278958" lon="30.0286828936"><ele>100.09</ele><time>2026-04-20T18:40:45.075Z</time><hdop>9.937</hdop><vdop>4.25</vdop><extensions><gom:speed>0.0</gom:speed></extensions></trkpt>
   <trkpt lat="59.0638278958" lon="30.0286828936"><ele>100.09</ele><time>2026-04-20T18:40:46.075Z</time><hdop>9.937</hdop><vdop>4.437</vdop><extensions><gom:speed>0.0</gom:speed></extensions></trkpt>
   <trkpt lat="59.0638278958" lon="30.0286828936"><ele>100.09</ele><time>2026-04-20T18:40:47.075Z</time><hdop>9.937</hdop><vdop>4.5</vdop><extensions><gom:speed>0.0</gom:speed></extensions></trkpt>
   <trkpt lat="59.0638278958" lon="30.0286828936"><ele>100.09</ele><time>2026-04-20T18:40:48.075Z</time><hdop>10.0</hdop><vdop>4.5</vdop><extensions><gom:speed>0.0</gom:speed></extensions></trkpt>
   <trkpt lat="59.0638278958" lon="30.0286828936"><ele>100.089</ele><time>2026-04-20T18:40:49.075Z</time><hdop>10.0</hdop><vdop>4.562</vdop><extensions><gom:speed>0.0</gom:speed></extensions></trkpt>
   <trkpt lat="59.0638278958" lon="30.0286828936"><ele>100.089</ele><time>2026-04-20T18:40:50.075Z</time><hdop>10.0</hdop><vdop>4.75</vdop><extensions><gom:speed>0.0</gom:speed></extensions></trkpt>
   <trkpt lat="59.0638278958" lon="30.0286828936"><ele>100.088</ele><time>2026-04-20T18:40:51.075Z</time><hdop>10.75</hdop><vdop>4.687</vdop><extensions><gom:speed>0.0</gom:speed></extensions></trkpt>
   <trkpt lat="59.0638278958" lon="30.0286828936"><ele>100.088</ele><time>2026-04-20T18:40:52.075Z</time><hdop>10.75</hdop><vdop>4.75</vdop><extensions><gom:speed>0.0</gom:speed></extensions></trkpt>
   <trkpt lat="59.0638278958" lon="30.0286828936"><ele>100.087</ele><time>2026-04-20T18:40:53.075Z</time><hdop>10.812</hdop><vdop>4.687</vdop><extensions><gom:speed>0.0</gom:speed></extensions></trkpt>
   <trkpt lat="59.06382777" lon="30.0286828936"><ele>100.086</ele><time>2026-04-20T18:40:54.076Z</time><hdop>10.812</hdop><vdop>4.562</vdop><extensions><gom:speed>0.0</gom:speed></extensions></trkpt>
   <trkpt lat="59.06382777" lon="30.0286828936"><ele>100.087</ele><time>2026-04-20T18:40:55.075Z</time><hdop>10.75</hdop><vdop>4.437</vdop><extensions><gom:speed>0.0</gom:speed></extensions></trkpt>
   <trkpt lat="59.06382777" lon="30.0286828936"><ele>100.087</ele><time>2026-04-20T18:40:56.075Z</time><hdop>10.0</hdop><vdop>4.375</vdop><extensions><gom:speed>0.0</gom:speed></extensions></trkpt>
   <trkpt lat="59.06382777" lon="30.0286829774"><ele>100.087</ele><time>2026-04-20T18:40:57.075Z</time><hdop>10.0</hdop><vdop>4.375</vdop><extensions><gom:speed>0.0</gom:speed></extensions></trkpt>
   <trkpt lat="59.06382777" lon="30.0286829774"><ele>100.086</ele><time>2026-04-20T18:40:58.075Z</time><hdop>9.937</hdop><vdop>4.375</vdop><extensions><gom:speed>0.0</gom:speed></extensions></trkpt>
   <trkpt lat="59.06382777" lon="30.0286829774"><ele>100.084</ele><time>2026-04-20T18:40:59.076Z</time><hdop>9.937</hdop><vdop>4.5</vdop><extensions><gom:speed>0.0</gom:speed></extensions></trkpt>
   <trkpt lat="59.0638276862" lon="30.0286829774"><ele>100.083</ele><time>2026-04-20T18:41:00.075Z</time><hdop>9.937</hdop><vdop>4.687</vdop><extensions><gom:speed>0.0</gom:speed></extensions></trkpt>
   <trkpt lat="59.0638276862" lon="30.0286829774"><ele>100.08</ele><time>2026-04-20T18:41:01.075Z</time><hdop>10.0</hdop><vdop>4.687</vdop><extensions><gom:speed>0.0</gom:speed></extensions></trkpt>
   <trkpt lat="59.0638276862" lon="30.0286829774"><ele>100.078</ele><time>2026-04-20T18:41:02.076Z</time><hdop>10.0</hdop><vdop>4.687</vdop><extensions><gom:speed>0.0</gom:speed></extensions></trkpt>
   <trkpt lat="59.0638276862" lon="30.0286829774"><ele>100.076</ele><time>2026-04-20T18:41:03.075Z</time><hdop>10.0</hdop><vdop>4.625</vdop><extensions><gom:speed>0.0</gom:speed></extensions></trkpt>
   <trkpt lat="59.0638276862" lon="30.0286829774"><ele>100.076</ele><time>2026-04-20T18:41:04.075Z</time><hdop>10.0</hdop><vdop>4.437</vdop><extensions><gom:speed>0.0</gom:speed></extensions></trkpt>
   <trkpt lat="59.0638276862" lon="30.0286830612"><ele>100.076</ele><time>2026-04-20T18:41:05.076Z</time><hdop>10.0</hdop><vdop>4.187</vdop><extensions><gom:speed>0.0</gom:speed></extensions></trkpt>
   <trkpt lat="59.0638275605" lon="30.0286830612"><ele>100.076</ele><time>2026-04-20T18:41:06.075Z</time><hdop>10.0</hdop><vdop>4.125</vdop><extensions><gom:speed>0.0</gom:speed></extensions></trkpt>
   <trkpt lat="59.0638275605" lon="30.0286830612"><ele>100.077</ele><time>2026-04-20T18:41:07.075Z</time><hdop>10.0</hdop><vdop>4.187</vdop><extensions><gom:speed>0.0</gom:speed></extensions></trkpt>
   <trkpt lat="59.0638275605" lon="30.028683145"><ele>100.077</ele><time>2026-04-20T18:41:08.075Z</time><hdop>9.937</hdop><vdop>4.062</vdop><extensions><gom:speed>0.0</gom:speed></extensions></trkpt>
   <trkpt lat="59.0638275605" lon="30.028683145"><ele>100.077</ele><time>2026-04-20T18:41:09.075Z</time><hdop>9.937</hdop><vdop>3.937</vdop><extensions><gom:speed>0.0</gom:speed></extensions></trkpt>
   <trkpt lat="59.0638275605" lon="30.0286832288"><ele>100.077</ele><time>2026-04-20T18:41:10.075Z</time><hdop>9.937</hdop><vdop>3.875</vdop><extensions><gom:speed>0.0</gom:speed></extensions></trkpt>
   <trkpt lat="59.0638275605" lon="30.0286832288"><ele>100.075</ele><time>2026-04-20T18:41:11.075Z</time><hdop>9.937</hdop><vdop>3.937</vdop><extensions><gom:speed>0.0</gom:speed></extensions></trkpt>
   <trkpt lat="59.0638275605" lon="30.0286833965"><ele>100.075</ele><time>2026-04-20T18:41:12.075Z</time><hdop>9.937</hdop><vdop>4.0</vdop><extensions><gom:speed>0.0</gom:speed></extensions></trkpt>
   <trkpt lat="59.0638275605" lon="30.0286833965"><ele>100.075</ele><time>2026-04-20T18:41:13.075Z</time><hdop>9.875</hdop><vdop>4.0</vdop><extensions><gom:speed>0.0</gom:speed></extensions></trkpt>
   <trkpt lat="59.0638275605" lon="30.0286833965"><ele>100.076</ele><time>2026-04-20T18:41:14.075Z</time><hdop>9.875</hdop><vdop>4.062</vdop><extensions><gom:speed>0.0</gom:speed></extensions></trkpt>
   <trkpt lat="59.0638275605" lon="30.0286834803"><ele>100.077</ele><time>2026-04-20T18:41:15.075Z</time><hdop>9.875</hdop><vdop>4.187</vdop><extensions><gom:speed>0.0</gom:speed></extensions></trkpt>
   <trkpt lat="59.0638275605" lon="30.0286835641"><ele>100.078</ele><time>2026-04-20T18:41:16.075Z</time><hdop>9.875</hdop><vdop>4.187</vdop><extensions><gom:speed>0.0</gom:speed></extensions></trkpt>
   <trkpt lat="59.0638275605" lon="30.0286835641"><ele>100.08</ele><time>2026-04-20T18:41:17.075Z</time><hdop>9.875</hdop><vdop>4.062</vdop><extensions><gom:speed>0.0</gom:speed></extensions></trkpt>
   <trkpt lat="59.0638275605" lon="30.0286836479"><ele>100.08</ele><time>2026-04-20T18:41:18.075Z</time><hdop>9.875</hdop><vdop>4.062</vdop><extensions><gom:speed>0.0</gom:speed></extensions></trkpt>
   <trkpt lat="59.0638275605" lon="30.0286836479"><ele>100.081</ele><time>2026-04-20T18:41:19.075Z</time><hdop>9.875</hdop><vdop>4.0</vdop><extensions><gom:speed>0.0</gom:speed></extensions></trkpt>
   <trkpt lat="59.0638275605" lon="30.0286837318"><ele>100.08</ele><time>2026-04-20T18:41:20.075Z</time><hdop>9.875</hdop><vdop>3.812</vdop><extensions><gom:speed>0.0</gom:speed></extensions></trkpt>
   <trkpt lat="59.0638275605" lon="30.0286837318"><ele>100.079</ele><time>2026-04-20T18:41:21.075Z</time><hdop>9.875</hdop><vdop>3.75</vdop><extensions><gom:speed>0.0</gom:speed></extensions></trkpt>
   <trkpt lat="59.0638275605" lon="30.0286837318"><ele>100.076</ele><time>2026-04-20T18:41:22.075Z</time><hdop>9.875</hdop><vdop>3.625</vdop><extensions><gom:speed>0.0</gom:speed></extensions></trkpt>
   <trkpt lat="59.0638275605" lon="30.0286837318"><ele>100.074</ele><time>2026-04-20T18:41:23.076Z</time><hdop>9.875</hdop><vdop>3.625</vdop><extensions><gom:speed>0.0</gom:speed></extensions></trkpt>
   <trkpt lat="59.0638275605" lon="30.0286837318"><ele>100.073</ele><time>2026-04-20T18:41:24.075Z</time><hdop>9.875</hdop><vdop>3.5</vdop><extensions><gom:speed>0.0</gom:speed></extensions></trkpt>
   <trkpt lat="59.0638275605" lon="30.0286838994"><ele>100.074</ele><time>2026-04-20T18:41:25.075Z</time><hdop>9.875</hdop><vdop>3.437</vdop><extensions><gom:speed>0.0</gom:speed></extensions></trkpt>
   <trkpt lat="59.0638274767" lon="30.0286838994"><ele>100.076</ele><time>2026-04-20T18:41:26.075Z</time><hdop>9.875</hdop><vdop>3.437</vdop><extensions><gom:speed>0.0</gom:speed></extensions></trkpt>
   <trkpt lat="59.0638274767" lon="30.0286838994"><ele>100.077</ele><time>2026-04-20T18:41:27.075Z</time><hdop>9.875</hdop><vdop>3.312</vdop><extensions><gom:speed>0.0</gom:speed></extensions></trkpt>
   <trkpt lat="59.0638274767" lon="30.0286838994"><ele>100.077</ele><time>2026-04-20T18:41:28.075Z</time><hdop>9.875</hdop><vdop>3.25</vdop><extensions><gom:speed>0.0</gom:speed></extensions></trkpt>
   <trkpt lat="59.0638275605" lon="30.0286837318"><ele>100.077</ele><time>2026-04-20T18:41:29.076Z</time><hdop>9.875</hdop><vdop>3.187</vdop><extensions><gom:speed>0.0</gom:speed></extensions></trkpt>
   <trkpt lat="59.0638275605" lon="30.0286837318"><ele>100.078</ele><time>2026-04-20T18:41:30.075Z</time><hdop>9.875</hdop><vdop>3.312</vdop><extensions><gom:speed>0.0</gom:speed></extensions></trkpt>
   <trkpt lat="59.0638275605" lon="30.0286837318"><ele>100.08</ele><time>2026-04-20T18:41:31.076Z</time><hdop>9.875</hdop><vdop>3.312</vdop><extensions><gom:speed>0.0</gom:speed></extensions></trkpt>
   <trkpt lat="59.0638275605" lon="30.0286837318"><ele>100.081</ele><time>2026-04-20T18:41:32.075Z</time><hdop>9.875</hdop><vdop>3.312</vdop><extensions><gom:speed>0.0</gom:speed></extensions></trkpt>
   <trkpt lat="59.0638275605" lon="30.0286837318"><ele>100.082</ele><time>2026-04-20T18:41:33.075Z</time><hdop>9.875</hdop><vdop>3.187</vdop><extensions><gom:speed>0.0</gom:speed></extensions></trkpt>
   <trkpt lat="59.0638275605" lon="30.0286837318"><ele>100.083</ele><time>2026-04-20T18:41:34.075Z</time><hdop>9.875</hdop><vdop>3.25</vdop><extensions><gom:speed>0.0</gom:speed></extensions></trkpt>
   <trkpt lat="59.0638276862" lon="30.0286837318"><ele>100.084</ele><time>2026-04-20T18:41:35.075Z</time><hdop>9.875</hdop><vdop>3.25</vdop><extensions><gom:speed>0.0</gom:speed></extensions></trkpt>
   <trkpt lat="59.0638276862" lon="30.0286837318"><ele>100.086</ele><time>2026-04-20T18:41:36.075Z</time><hdop>9.875</hdop><vdop>3.312</vdop><extensions><gom:speed>0.0</gom:speed></extensions></trkpt>
   <trkpt lat="59.0638276862" lon="30.0286837318"><ele>100.088</ele><time>2026-04-20T18:41:37.076Z</time><hdop>9.875</hdop><vdop>3.312</vdop><extensions><gom:speed>0.0</gom:speed></extensions></trkpt>
   <trkpt lat="59.0638276862" lon="30.0286838994"><ele>100.091</ele><time>2026-04-20T18:41:38.075Z</time><hdop>9.875</hdop><vdop>3.375</vdop><extensions><gom:speed>0.0</gom:speed></extensions></trkpt>
   <trkpt lat="59.0638275605" lon="30.0286838994"><ele>100.094</ele><time>2026-04-20T18:41:39.075Z</time><hdop>9.875</hdop><vdop>3.312</vdop><extensions><gom:speed>0.0</gom:speed></extensions></trkpt>
   <trkpt lat="59.0638275605" lon="30.0286838994"><ele>100.096</ele><time>2026-04-20T18:41:40.075Z</time><hdop>9.875</hdop><vdop>3.312</vdop><extensions><gom:speed>0.0</gom:speed></extensions></trkpt>
   <trkpt lat="59.0638275605" lon="30.0286839832"><ele>100.098</ele><time>2026-04-20T18:41:41.075Z</time><hdop>9.875</hdop><vdop>3.375</vdop><extensions><gom:speed>0.0</gom:speed></extensions></trkpt>
   <trkpt lat="59.0638275605" lon="30.0286839832"><ele>100.1</ele><time>2026-04-20T18:41:42.075Z</time><hdop>9.875</hdop><vdop>3.562</vdop><extensions><gom:speed>0.0</gom:speed></extensions></trkpt>
   <trkpt lat="59.0638275605" lon="30.028684067"><ele>100.1</ele><time>2026-04-20T18:41:43.075Z</time><hdop>9.875</hdop><vdop>3.625</vdop><extensions><gom:speed>0.0</gom:speed></extensions></trkpt>
   <trkpt lat="59.0638275605" lon="30.028684067"><ele>100.099</ele><time>2026-04-20T18:41:44.075Z</time><hdop>9.937</hdop><vdop>3.875</vdop><extensions><gom:speed>0.0</gom:speed></extensions></trkpt>
   <trkpt lat="59.0638275605" lon="30.028684067"><ele>100.098</ele><time>2026-04-20T18:41:45.075Z</time><hdop>10.0</hdop><vdop>4.25</vdop><extensions><gom:speed>0.0</gom:speed></extensions></trkpt>
   <trkpt lat="59.0638274767" lon="30.028684067"><ele>100.096</ele><time>2026-04-20T18:41:46.076Z</time><hdop>10.062</hdop><vdop>4.625</vdop><extensions><gom:speed>0.0</gom:speed></extensions></trkpt>
   <trkpt lat="59.0638274767" lon="30.028684067"><ele>100.094</ele><time>2026-04-20T18:41:47.075Z</time><hdop>10.25</hdop><vdop>5.0</vdop><extensions><gom:speed>0.0</gom:speed></extensions></trkpt>
   <trkpt lat="59.0638274767" lon="30.028684067"><ele>100.092</ele><time>2026-04-20T18:41:48.075Z</time><hdop>10.562</hdop><vdop>5.312</vdop><extensions><gom:speed>0.0</gom:speed></extensions></trkpt>
   <trkpt lat="59.0638273928" lon="30.028684067"><ele>100.091</ele><time>2026-04-20T18:41:49.075Z</time><hdop>10.937</hdop><vdop>5.5</vdop><extensions><gom:speed>0.0</gom:speed></extensions></trkpt>
   <trkpt lat="59.0638273928" lon="30.028684067"><ele>100.089</ele><time>2026-04-20T18:41:50.076Z</time><hdop>11.437</hdop><vdop>5.687</vdop><extensions><gom:speed>0.0</gom:speed></extensions></trkpt>
   <trkpt lat="59.0638273928" lon="30.028684067"><ele>100.089</ele><time>2026-04-20T18:41:51.075Z</time><hdop>11.937</hdop><vdop>5.812</vdop><extensions><gom:speed>0.0</gom:speed></extensions></trkpt>
   <trkpt lat="59.0638273928" lon="30.0286841508"><ele>100.087</ele><time>2026-04-20T18:41:52.075Z</time><hdop>12.375</hdop><vdop>5.875</vdop><extensions><gom:speed>0.0</gom:speed></extensions></trkpt>
   <trkpt lat="59.0638272671" lon="30.0286841508"><ele>100.086</ele><time>2026-04-20T18:41:53.076Z</time><hdop>12.75</hdop><vdop>5.937</vdop><extensions><gom:speed>0.0</gom:speed></extensions></trkpt>
   <trkpt lat="59.0638272671" lon="30.0286841508"><ele>100.086</ele><time>2026-04-20T18:41:54.075Z</time><hdop>13.062</hdop><vdop>5.812</vdop><extensions><gom:speed>0.0</gom:speed></extensions></trkpt>
   <trkpt lat="59.0638272671" lon="30.0286841508"><ele>100.084</ele><time>2026-04-20T18:41:55.075Z</time><hdop>13.125</hdop><vdop>5.625</vdop><extensions><gom:speed>0.0</gom:speed></extensions></trkpt>
   <trkpt lat="59.0638271833" lon="30.0286841508"><ele>100.085</ele><time>2026-04-20T18:41:56.076Z</time><hdop>13.125</hdop><vdop>5.687</vdop><extensions><gom:speed>0.0</gom:speed></extensions></trkpt>
   <trkpt lat="59.0638271833" lon="30.0286841508"><ele>100.085</ele><time>2026-04-20T18:41:57.076Z</time><hdop>13.062</hdop><vdop>5.562</vdop><extensions><gom:speed>0.0</gom:speed></extensions></trkpt>
   <trkpt lat="59.0638271833" lon="30.0286842347"><ele>100.086</ele><time>2026-04-20T18:41:58.075Z</time><hdop>13.0</hdop><vdop>5.562</vdop><extensions><gom:speed>0.0</gom:speed></extensions></trkpt>
   <trkpt lat="59.0638270995" lon="30.0286842347"><ele>100.086</ele><time>2026-04-20T18:41:59.076Z</time><hdop>13.0</hdop><vdop>5.625</vdop><extensions><gom:speed>0.0</gom:speed></extensions></trkpt>
   <trkpt lat="59.0638270995" lon="30.0286842347"><ele>100.087</ele><time>2026-04-20T18:42:00.076Z</time><hdop>13.0</hdop><vdop>5.75</vdop><extensions><gom:speed>0.0</gom:speed></extensions></trkpt>
   <trkpt lat="59.0638269737" lon="30.0286842347"><ele>100.086</ele><time>2026-04-20T18:42:01.075Z</time><hdop>13.062</hdop><vdop>5.75</vdop><extensions><gom:speed>0.0</gom:speed></extensions></trkpt>
   <trkpt lat="59.0638269737" lon="30.0286842347"><ele>100.083</ele><time>2026-04-20T18:42:02.075Z</time><hdop>13.125</hdop><vdop>5.937</vdop><extensions><gom:speed>0.0</gom:speed></extensions></trkpt>
   <trkpt lat="59.0638268899" lon="30.0286843185"><ele>100.08</ele><time>2026-04-20T18:42:03.075Z</time><hdop>12.937</hdop><vdop>5.812</vdop><extensions><gom:speed>0.0</gom:speed></extensions></trkpt>
   <trkpt lat="59.0638268899" lon="30.0286843185"><ele>100.077</ele><time>2026-04-20T18:42:04.076Z</time><hdop>12.625</hdop><vdop>5.687</vdop><extensions><gom:speed>0.0</gom:speed></extensions></trkpt>
   <trkpt lat="59.0638267642" lon="30.0286844861"><ele>100.075</ele><time>2026-04-20T18:42:05.075Z</time><hdop>12.25</hdop><vdop>5.562</vdop><extensions><gom:speed>0.0</gom:speed></extensions></trkpt>
   <trkpt lat="59.0637943681" lon="30.0287349452"><ele>99.549</ele><time>2026-04-20T18:42:06.075Z</time><hdop>11.687</hdop><vdop>3.875</vdop><extensions><gom:speed>0.439</gom:speed></extensions></trkpt>
   <trkpt lat="59.0637523748" lon="30.0287959654"><ele>98.42</ele><time>2026-04-20T18:42:07.076Z</time><hdop>11.25</hdop><vdop>5.437</vdop><extensions><gom:speed>0.0</gom:speed></extensions></trkpt>
   <trkpt lat="59.0637232896" lon="30.0288361986"><ele>98.379</ele><time>2026-04-20T18:42:08.076Z</time><hdop>10.812</hdop><vdop>5.125</vdop><extensions><gom:speed>0.0</gom:speed></extensions></trkpt>
   <trkpt lat="59.0637047656" lon="30.0288569857"><ele>98.341</ele><time>2026-04-20T18:42:09.075Z</time><hdop>10.562</hdop><vdop>4.937</vdop><extensions><gom:speed>0.0</gom:speed></extensions></trkpt>
   <trkpt lat="59.063695797" lon="30.0288629368"><ele>98.348</ele><time>2026-04-20T18:42:10.075Z</time><hdop>10.437</hdop><vdop>4.75</vdop><extensions><gom:speed>0.0</gom:speed></extensions></trkpt>
   <trkpt lat="59.0636849843" lon="30.028879533"><ele>98.515</ele><time>2026-04-20T18:42:11.075Z</time><hdop>10.312</hdop><vdop>4.125</vdop><extensions><gom:speed>1.609</gom:speed></extensions></trkpt>
   <trkpt lat="59.0636794942" lon="30.028893447"><ele>98.189</ele><time>2026-04-20T18:42:12.076Z</time><hdop>10.312</hdop><vdop>3.5</vdop><extensions><gom:speed>0.229</gom:speed></extensions></trkpt>
   <trkpt lat="59.0636749679" lon="30.0289007392"><ele>97.892</ele><time>2026-04-20T18:42:13.075Z</time><hdop>10.187</hdop><vdop>3.187</vdop><extensions><gom:speed>0.509</gom:speed></extensions></trkpt>
   <trkpt lat="59.0636699807" lon="30.0289141503"><ele>97.262</ele><time>2026-04-20T18:42:14.076Z</time><hdop>10.125</hdop><vdop>3.062</vdop><extensions><gom:speed>0.739</gom:speed></extensions></trkpt>
   <trkpt lat="59.0636609702" lon="30.0289300759"><ele>96.989</ele><time>2026-04-20T18:42:15.075Z</time><hdop>10.0</hdop><vdop>3.062</vdop><extensions><gom:speed>0.849</gom:speed></extensions></trkpt>
   <trkpt lat="59.0636541808" lon="30.0289449957"><ele>96.754</ele><time>2026-04-20T18:42:16.075Z</time><hdop>9.937</hdop><vdop>2.937</vdop><extensions><gom:speed>0.279</gom:speed></extensions></trkpt>
   <trkpt lat="59.0636487745" lon="30.028955976"><ele>96.135</ele><time>2026-04-20T18:42:17.075Z</time><hdop>9.875</hdop><vdop>2.812</vdop><extensions><gom:speed>0.449</gom:speed></extensions></trkpt>
   <trkpt lat="59.0636402669" lon="30.0289720692"><ele>95.969</ele><time>2026-04-20T18:42:18.075Z</time><hdop>10.0</hdop><vdop>5.25</vdop><extensions><gom:speed>0.0</gom:speed></extensions></trkpt>
   <trkpt lat="59.0636389677" lon="30.0289775175"><ele>95.609</ele><time>2026-04-20T18:42:19.076Z</time><hdop>10.062</hdop><vdop>5.312</vdop><extensions><gom:speed>0.0</gom:speed></extensions></trkpt>
   <trkpt lat="59.0636386743" lon="30.0289802835"><ele>95.309</ele><time>2026-04-20T18:42:20.075Z</time><hdop>10.125</hdop><vdop>5.375</vdop><extensions><gom:speed>0.0</gom:speed></extensions></trkpt>
   <trkpt lat="59.0636382971" lon="30.0289845583"><ele>95.092</ele><time>2026-04-20T18:42:21.075Z</time><hdop>10.25</hdop><vdop>5.062</vdop><extensions><gom:speed>0.0</gom:speed></extensions></trkpt>
   <trkpt lat="59.0636372913" lon="30.0289891683"><ele>94.862</ele><time>2026-04-20T18:42:22.075Z</time><hdop>10.312</hdop><vdop>4.937</vdop><extensions><gom:speed>0.0</gom:speed></extensions></trkpt>
   <trkpt lat="59.0636380876" lon="30.0289949518"><ele>94.798</ele><time>2026-04-20T18:42:23.075Z</time><hdop>10.375</hdop><vdop>5.0</vdop><extensions><gom:speed>0.0</gom:speed></extensions></trkpt>
   <trkpt lat="59.0636402669" lon="30.0289988913"><ele>94.81</ele><time>2026-04-20T18:42:24.075Z</time><hdop>10.312</hdop><vdop>4.875</vdop><extensions><gom:speed>0.0</gom:speed></extensions></trkpt>
   <trkpt lat="59.0636436615" lon="30.0290112965"><ele>94.717</ele><time>2026-04-20T18:42:25.075Z</time><hdop>10.312</hdop><vdop>4.75</vdop><extensions><gom:speed>0.999</gom:speed></extensions></trkpt>
   <trkpt lat="59.0636497803" lon="30.0290447403"><ele>94.688</ele><time>2026-04-20T18:42:26.076Z</time><hdop>10.187</hdop><vdop>3.687</vdop><extensions><gom:speed>1.309</gom:speed></extensions></trkpt>
   <trkpt lat="59.0636582879" lon="30.0290820398"><ele>94.431</ele><time>2026-04-20T18:42:27.075Z</time><hdop>10.125</hdop><vdop>3.187</vdop><extensions><gom:speed>1.349</gom:speed></extensions></trkpt>
   <trkpt lat="59.0636650773" lon="30.0291146454"><ele>94.17</ele><time>2026-04-20T18:42:28.075Z</time><hdop>10.062</hdop><vdop>3.312</vdop><extensions><gom:speed>1.129</gom:speed></extensions></trkpt>
   <trkpt lat="59.0636714894" lon="30.0291357678"><ele>93.9</ele><time>2026-04-20T18:42:29.075Z</time><hdop>10.0</hdop><vdop>3.375</vdop><extensions><gom:speed>0.639</gom:speed></extensions></trkpt>
   <trkpt lat="59.0636780692" lon="30.0291465804"><ele>93.626</ele><time>2026-04-20T18:42:30.075Z</time><hdop>9.937</hdop><vdop>3.5</vdop><extensions><gom:speed>0.369</gom:speed></extensions></trkpt>
   <trkpt lat="59.0636833917" lon="30.0291541242"><ele>93.245</ele><time>2026-04-20T18:42:31.075Z</time><hdop>9.875</hdop><vdop>3.687</vdop><extensions><gom:speed>0.209</gom:speed></extensions></trkpt>
   <trkpt lat="59.0636884628" lon="30.0291535374"><ele>92.761</ele><time>2026-04-20T18:42:32.075Z</time><hdop>9.875</hdop><vdop>3.5</vdop><extensions><gom:speed>0.189</gom:speed></extensions></trkpt>
   <trkpt lat="59.0636618922" lon="30.0291526992"><ele>92.412</ele><time>2026-04-20T18:42:33.075Z</time><hdop>9.062</hdop><vdop>3.5</vdop><extensions><gom:speed>0.731</gom:speed></extensions></trkpt>
   <trkpt lat="59.0636637781" lon="30.0291627575"><ele>92.082</ele><time>2026-04-20T18:42:34.075Z</time><hdop>7.75</hdop><vdop>3.375</vdop><extensions><gom:speed>0.681</gom:speed></extensions></trkpt>
   <trkpt lat="59.0636638619" lon="30.0291715585"><ele>91.885</ele><time>2026-04-20T18:42:34.776Z</time><hdop>6.75</hdop><vdop>3.375</vdop><extensions><gom:speed>0.714</gom:speed></extensions></trkpt>
   <trkpt lat="59.0636670889" lon="30.0291807786"><ele>91.777</ele><time>2026-04-20T18:42:35.792Z</time><hdop>5.937</hdop><vdop>3.125</vdop><extensions><gom:speed>0.644</gom:speed></extensions></trkpt>
   <trkpt lat="59.0636705674" lon="30.0291826226"><ele>91.548</ele><time>2026-04-20T18:42:36.351Z</time><hdop>5.75</hdop><vdop>3.062</vdop><extensions><gom:speed>0.64</gom:speed></extensions></trkpt>
   <trkpt lat="59.063673082" lon="30.0291918427"><ele>91.575</ele><time>2026-04-20T18:42:37.076Z</time><hdop>5.25</hdop><vdop>5.125</vdop><extensions><gom:speed>0.607</gom:speed></extensions></trkpt>
   <trkpt lat="59.0636729982" lon="30.0292006437"><ele>91.592</ele><time>2026-04-20T18:42:37.876Z</time><hdop>4.875</hdop><vdop>5.125</vdop><extensions><gom:speed>0.709</gom:speed></extensions></trkpt>
   <trkpt lat="59.0636714894" lon="30.029211624"><ele>91.613</ele><time>2026-04-20T18:42:38.595Z</time><hdop>4.937</hdop><vdop>5.312</vdop><extensions><gom:speed>0.747</gom:speed></extensions></trkpt>
   <trkpt lat="59.0636738783" lon="30.0292170723"><ele>91.743</ele><time>2026-04-20T18:42:39.075Z</time><hdop>5.0</hdop><vdop>5.375</vdop><extensions><gom:speed>0.691</gom:speed></extensions></trkpt>
   <trkpt lat="59.0636759738" lon="30.0292312377"><ele>91.837</ele><time>2026-04-20T18:42:40.014Z</time><hdop>5.187</hdop><vdop>5.5</vdop><extensions><gom:speed>0.717</gom:speed></extensions></trkpt>
   <trkpt lat="59.0636778597" lon="30.0292467442"><ele>91.89</ele><time>2026-04-20T18:42:40.962Z</time><hdop>5.562</hdop><vdop>5.562</vdop><extensions><gom:speed>0.882</gom:speed></extensions></trkpt>
   <trkpt lat="59.0636865769" lon="30.0292584789"><ele>91.88</ele><time>2026-04-20T18:42:42.075Z</time><hdop>5.812</hdop><vdop>5.5</vdop><extensions><gom:speed>0.829</gom:speed></extensions></trkpt>
   <trkpt lat="59.0636939949" lon="30.0292726443"><ele>91.874</ele><time>2026-04-20T18:42:42.998Z</time><hdop>6.25</hdop><vdop>5.5</vdop><extensions><gom:speed>0.789</gom:speed></extensions></trkpt>
   <trkpt lat="59.0636960903" lon="30.0292797689"><ele>91.749</ele><time>2026-04-20T18:42:43.916Z</time><hdop>6.562</hdop><vdop>5.375</vdop><extensions><gom:speed>0.683</gom:speed></extensions></trkpt>
   <trkpt lat="59.0636968866" lon="30.0292728957"><ele>91.515</ele><time>2026-04-20T18:42:44.989Z</time><hdop>6.812</hdop><vdop>5.062</vdop><extensions><gom:speed>0.334</gom:speed></extensions></trkpt>
   <trkpt lat="59.0636963837" lon="30.0292692915"><ele>91.375</ele><time>2026-04-20T18:42:45.763Z</time><hdop>6.937</hdop><vdop>5.062</vdop><extensions><gom:speed>0.259</gom:speed></extensions></trkpt>
   <trkpt lat="59.0636966771" lon="30.0292666931"><ele>91.32</ele><time>2026-04-20T18:42:46.512Z</time><hdop>6.937</hdop><vdop>5.125</vdop><extensions><gom:speed>0.225</gom:speed></extensions></trkpt>
   <trkpt lat="59.06369718" lon="30.0292670284"><ele>91.288</ele><time>2026-04-20T18:42:47.056Z</time><hdop>6.937</hdop><vdop>5.125</vdop><extensions><gom:speed>0.242</gom:speed></extensions></trkpt>
   <trkpt lat="59.0636973895" lon="30.0292604905"><ele>91.368</ele><time>2026-04-20T18:42:47.950Z</time><hdop>6.812</hdop><vdop>5.25</vdop><extensions><gom:speed>0.144</gom:speed></extensions></trkpt>
   <trkpt lat="59.0636967609" lon="30.0292579759"><ele>91.415</ele><time>2026-04-20T18:42:48.661Z</time><hdop>6.812</hdop><vdop>5.25</vdop><extensions><gom:speed>0.073</gom:speed></extensions></trkpt>
   <trkpt lat="59.0636966771" lon="30.0292546232"><ele>91.56</ele><time>2026-04-20T18:42:49.964Z</time><hdop>6.625</hdop><vdop>5.625</vdop><extensions><gom:speed>0.083</gom:speed></extensions></trkpt>
   <trkpt lat="59.063695294" lon="30.0292543717"><ele>91.625</ele><time>2026-04-20T18:42:51.030Z</time><hdop>6.562</hdop><vdop>5.75</vdop><extensions><gom:speed>0.084</gom:speed></extensions></trkpt>
   <trkpt lat="59.063694372" lon="30.0292518572"><ele>91.685</ele><time>2026-04-20T18:42:52.075Z</time><hdop>6.375</hdop><vdop>5.875</vdop><extensions><gom:speed>0.071</gom:speed></extensions></trkpt>
   <trkpt lat="59.0636944978" lon="30.0292515219"><ele>91.72</ele><time>2026-04-20T18:42:52.977Z</time><hdop>6.312</hdop><vdop>5.875</vdop><extensions><gom:speed>0.102</gom:speed></extensions></trkpt>
   <trkpt lat="59.0636946654" lon="30.0292505999"><ele>91.772</ele><time>2026-04-20T18:42:53.639Z</time><hdop>6.25</hdop><vdop>5.875</vdop><extensions><gom:speed>0.074</gom:speed></extensions></trkpt>
   <trkpt lat="59.063695797" lon="30.029249594"><ele>91.768</ele><time>2026-04-20T18:42:54.894Z</time><hdop>6.25</hdop><vdop>6.062</vdop><extensions><gom:speed>0.094</gom:speed></extensions></trkpt>
   <trkpt lat="59.0636968866" lon="30.0292482529"><ele>91.786</ele><time>2026-04-20T18:42:56.005Z</time><hdop>6.25</hdop><vdop>6.125</vdop><extensions><gom:speed>0.114</gom:speed></extensions></trkpt>
   <trkpt lat="59.06369718" lon="30.029246828"><ele>91.795</ele><time>2026-04-20T18:42:56.953Z</time><hdop>6.25</hdop><vdop>6.187</vdop><extensions><gom:speed>0.101</gom:speed></extensions></trkpt>
   <trkpt lat="59.0636982696" lon="30.0292465766"><ele>91.805</ele><time>2026-04-20T18:42:58.019Z</time><hdop>6.375</hdop><vdop>6.312</vdop><extensions><gom:speed>0.11</gom:speed></extensions></trkpt>
   <trkpt lat="59.0636997784" lon="30.0292464927"><ele>91.815</ele><time>2026-04-20T18:42:58.967Z</time><hdop>6.437</hdop><vdop>6.5</vdop><extensions><gom:speed>0.123</gom:speed></extensions></trkpt>
   <trkpt lat="59.0637010776" lon="30.0292464927"><ele>91.821</ele><time>2026-04-20T18:42:59.897Z</time><hdop>6.562</hdop><vdop>6.5</vdop><extensions><gom:speed>0.148</gom:speed></extensions></trkpt>
   <trkpt lat="59.0637015805" lon="30.0292461575"><ele>91.839</ele><time>2026-04-20T18:43:00.599Z</time><hdop>6.687</hdop><vdop>6.562</vdop><extensions><gom:speed>0.149</gom:speed></extensions></trkpt>
   <trkpt lat="59.0637024606" lon="30.0292456545"><ele>91.855</ele><time>2026-04-20T18:43:01.475Z</time><hdop>6.75</hdop><vdop>6.437</vdop><extensions><gom:speed>0.173</gom:speed></extensions></trkpt>
   <trkpt lat="59.0637034664" lon="30.0292457384"><ele>91.856</ele><time>2026-04-20T18:43:02.047Z</time><hdop>6.75</hdop><vdop>6.0</vdop><extensions><gom:speed>0.199</gom:speed></extensions></trkpt>
   <trkpt lat="59.063705981" lon="30.0292479177"><ele>91.87</ele><time>2026-04-20T18:43:02.993Z</time><hdop>6.875</hdop><vdop>5.812</vdop><extensions><gom:speed>0.267</gom:speed></extensions></trkpt>
   <trkpt lat="59.0637095852" lon="30.029249594"><ele>91.878</ele><time>2026-04-20T18:43:03.975Z</time><hdop>7.0</hdop><vdop>5.812</vdop><extensions><gom:speed>0.33</gom:speed></extensions></trkpt>
   <trkpt lat="59.0637132732" lon="30.0292496779"><ele>91.905</ele><time>2026-04-20T18:43:04.863Z</time><hdop>7.062</hdop><vdop>5.625</vdop><extensions><gom:speed>0.344</gom:speed></extensions></trkpt>
   <trkpt lat="59.0637160812" lon="30.0292476662"><ele>91.976</ele><time>2026-04-20T18:43:05.956Z</time><hdop>7.25</hdop><vdop>5.562</vdop><extensions><gom:speed>0.279</gom:speed></extensions></trkpt>
   <trkpt lat="59.0637165841" lon="30.0292463251"><ele>92.019</ele><time>2026-04-20T18:43:06.737Z</time><hdop>7.5</hdop><vdop>5.562</vdop><extensions><gom:speed>0.217</gom:speed></extensions></trkpt>
   <trkpt lat="59.0637167936" lon="30.0292461575"><ele>92.054</ele><time>2026-04-20T18:43:07.258Z</time><hdop>7.562</hdop><vdop>5.562</vdop><extensions><gom:speed>0.233</gom:speed></extensions></trkpt>
   <trkpt lat="59.063717087" lon="30.0292460736"><ele>92.075</ele><time>2026-04-20T18:43:07.892Z</time><hdop>7.687</hdop><vdop>5.562</vdop><extensions><gom:speed>0.167</gom:speed></extensions></trkpt>
   <trkpt lat="59.0637159973" lon="30.0292450678"><ele>92.086</ele><time>2026-04-20T18:43:09.034Z</time><hdop>7.812</hdop><vdop>5.312</vdop><extensions><gom:speed>0.159</gom:speed></extensions></trkpt>
   <trkpt lat="59.0637157878" lon="30.0292445649"><ele>92.093</ele><time>2026-04-20T18:43:09.502Z</time><hdop>7.812</hdop><vdop>5.312</vdop><extensions><gom:speed>0.138</gom:speed></extensions></trkpt>
   <trkpt lat="59.0637160812" lon="30.0292443973"><ele>92.098</ele><time>2026-04-20T18:43:09.982Z</time><hdop>7.875</hdop><vdop>5.062</vdop><extensions><gom:speed>0.158</gom:speed></extensions></trkpt>
   <trkpt lat="59.0637169613" lon="30.0292439782"><ele>92.101</ele><time>2026-04-20T18:43:10.517Z</time><hdop>7.937</hdop><vdop>5.062</vdop><extensions><gom:speed>0.152</gom:speed></extensions></trkpt>
   <trkpt lat="59.0637178833" lon="30.0292438943"><ele>92.107</ele><time>2026-04-20T18:43:11.048Z</time><hdop>8.0</hdop><vdop>4.875</vdop><extensions><gom:speed>0.176</gom:speed></extensions></trkpt>
   <trkpt lat="59.0637194758" lon="30.0292432238"><ele>92.11</ele><time>2026-04-20T18:43:11.840Z</time><hdop>8.125</hdop><vdop>4.875</vdop><extensions><gom:speed>0.174</gom:speed></extensions></trkpt>
   <trkpt lat="59.063717087" lon="30.0292397872"><ele>92.112</ele><time>2026-04-20T18:43:12.838Z</time><hdop>8.0</hdop><vdop>4.687</vdop><extensions><gom:speed>0.143</gom:speed></extensions></trkpt>
   <trkpt lat="59.0637176737" lon="30.0292397872"><ele>91.785</ele><time>2026-04-20T18:43:13.417Z</time><hdop>7.75</hdop><vdop>4.0</vdop><extensions><gom:speed>0.175</gom:speed></extensions></trkpt>
   <trkpt lat="59.0637223676" lon="30.0292436429"><ele>90.829</ele><time>2026-04-20T18:43:14.075Z</time><hdop>7.5</hdop><vdop>4.375</vdop><extensions><gom:speed>0.248</gom:speed></extensions></trkpt>
   <trkpt lat="59.063729576" lon="30.0292493426"><ele>90.287</ele><time>2026-04-20T18:43:15.075Z</time><hdop>7.25</hdop><vdop>4.437</vdop><extensions><gom:speed>0.303</gom:speed></extensions></trkpt>
   <trkpt lat="59.0637394667" lon="30.0292594847"><ele>89.821</ele><time>2026-04-20T18:43:16.075Z</time><hdop>6.937</hdop><vdop>4.312</vdop><extensions><gom:speed>0.409</gom:speed></extensions></trkpt>
   <trkpt lat="59.0637515785" lon="30.0292724766"><ele>89.019</ele><time>2026-04-20T18:43:17.075Z</time><hdop>6.437</hdop><vdop>4.25</vdop><extensions><gom:speed>0.491</gom:speed></extensions></trkpt>
   <trkpt lat="59.0637581583" lon="30.0292749912"><ele>88.002</ele><time>2026-04-20T18:43:18.036Z</time><hdop>6.25</hdop><vdop>4.25</vdop><extensions><gom:speed>0.467</gom:speed></extensions></trkpt>
   <trkpt lat="59.0637608824" lon="30.0292709679"><ele>87.009</ele><time>2026-04-20T18:43:18.985Z</time><hdop>6.25</hdop><vdop>4.375</vdop><extensions><gom:speed>0.423</gom:speed></extensions></trkpt>
   <trkpt lat="59.0637625588" lon="30.0292692915"><ele>86.415</ele><time>2026-04-20T18:43:19.540Z</time><hdop>6.25</hdop><vdop>4.375</vdop><extensions><gom:speed>0.452</gom:speed></extensions></trkpt>
   <trkpt lat="59.063768971" lon="30.0292740692"><ele>85.993</ele><time>2026-04-20T18:43:20.076Z</time><hdop>6.312</hdop><vdop>4.375</vdop><extensions><gom:speed>0.436</gom:speed></extensions></trkpt>
   <trkpt lat="59.0637713598" lon="30.0292754941"><ele>85.74</ele><time>2026-04-20T18:43:20.695Z</time><hdop>6.312</hdop><vdop>4.375</vdop><extensions><gom:speed>0.431</gom:speed></extensions></trkpt>
   <trkpt lat="59.0637746707" lon="30.0292757456"><ele>85.849</ele><time>2026-04-20T18:43:21.612Z</time><hdop>6.312</hdop><vdop>4.562</vdop><extensions><gom:speed>0.414</gom:speed></extensions></trkpt>
   <trkpt lat="59.0637779815" lon="30.029280188"><ele>85.645</ele><time>2026-04-20T18:43:22.075Z</time><hdop>6.25</hdop><vdop>4.437</vdop><extensions><gom:speed>0.389</gom:speed></extensions></trkpt>
   <trkpt lat="59.0637799932" lon="30.0292819482"><ele>85.522</ele><time>2026-04-20T18:43:22.639Z</time><hdop>6.25</hdop><vdop>4.437</vdop><extensions><gom:speed>0.332</gom:speed></extensions></trkpt>
   <trkpt lat="59.0637822982" lon="30.0292824511"><ele>85.275</ele><time>2026-04-20T18:43:23.536Z</time><hdop>6.187</hdop><vdop>4.75</vdop><extensions><gom:speed>0.324</gom:speed></extensions></trkpt>
   <trkpt lat="59.0637843937" lon="30.0292866421"><ele>85.155</ele><time>2026-04-20T18:43:24.075Z</time><hdop>6.125</hdop><vdop>5.062</vdop><extensions><gom:speed>0.313</gom:speed></extensions></trkpt>
   <trkpt lat="59.0637873693" lon="30.0292894919"><ele>85.221</ele><time>2026-04-20T18:43:25.025Z</time><hdop>5.937</hdop><vdop>4.937</vdop><extensions><gom:speed>0.287</gom:speed></extensions></trkpt>
   <trkpt lat="59.0637885846" lon="30.0292913359"><ele>85.261</ele><time>2026-04-20T18:43:25.736Z</time><hdop>5.875</hdop><vdop>4.937</vdop><extensions><gom:speed>0.278</gom:speed></extensions></trkpt>
   <trkpt lat="59.0637910992" lon="30.029300556"><ele>85.401</ele><time>2026-04-20T18:43:26.955Z</time><hdop>5.687</hdop><vdop>4.75</vdop><extensions><gom:speed>0.236</gom:speed></extensions></trkpt>
   <trkpt lat="59.0637922727" lon="30.0293068424"><ele>85.76</ele><time>2026-04-20T18:43:28.075Z</time><hdop>5.625</hdop><vdop>4.812</vdop><extensions><gom:speed>0.185</gom:speed></extensions></trkpt>
   <trkpt lat="59.0637927756" lon="30.0293109496"><ele>86.109</ele><time>2026-04-20T18:43:29.052Z</time><hdop>5.5</hdop><vdop>4.75</vdop><extensions><gom:speed>0.205</gom:speed></extensions></trkpt>
   <trkpt lat="59.0637956673" lon="30.0293187447"><ele>86.448</ele><time>2026-04-20T18:43:30.075Z</time><hdop>5.562</hdop><vdop>4.625</vdop><extensions><gom:speed>0.269</gom:speed></extensions></trkpt>
   <trkpt lat="59.0638004869" lon="30.0293263723"><ele>86.77</ele><time>2026-04-20T18:43:31.007Z</time><hdop>5.562</hdop><vdop>4.375</vdop><extensions><gom:speed>0.398</gom:speed></extensions></trkpt>
   <trkpt lat="59.0638033787" lon="30.0293300603"><ele>86.963</ele><time>2026-04-20T18:43:31.819Z</time><hdop>5.687</hdop><vdop>4.375</vdop><extensions><gom:speed>0.408</gom:speed></extensions></trkpt>
   <trkpt lat="59.0638068991" lon="30.0293312338"><ele>87.139</ele><time>2026-04-20T18:43:32.599Z</time><hdop>6.0</hdop><vdop>4.312</vdop><extensions><gom:speed>0.402</gom:speed></extensions></trkpt>
   <trkpt lat="59.0638086593" lon="30.0293322396"><ele>87.282</ele><time>2026-04-20T18:43:33.075Z</time><hdop>6.062</hdop><vdop>4.312</vdop><extensions><gom:speed>0.389</gom:speed></extensions></trkpt>
   <trkpt lat="59.0638114672" lon="30.0293343351"><ele>87.398</ele><time>2026-04-20T18:43:34.027Z</time><hdop>6.187</hdop><vdop>4.312</vdop><extensions><gom:speed>0.369</gom:speed></extensions></trkpt>
   <trkpt lat="59.063812976" lon="30.0293373526"><ele>87.467</ele><time>2026-04-20T18:43:34.839Z</time><hdop>6.375</hdop><vdop>4.312</vdop><extensions><gom:speed>0.356</gom:speed></extensions></trkpt>
   <trkpt lat="59.0638145685" lon="30.0293412921"><ele>87.614</ele><time>2026-04-20T18:43:36.075Z</time><hdop>6.312</hdop><vdop>4.125</vdop><extensions><gom:speed>0.277</gom:speed></extensions></trkpt>
   <trkpt lat="59.0638163706" lon="30.0293431361"><ele>87.76</ele><time>2026-04-20T18:43:37.075Z</time><hdop>6.187</hdop><vdop>4.062</vdop><extensions><gom:speed>0.262</gom:speed></extensions></trkpt>
   <trkpt lat="59.0638197653" lon="30.0293451477"><ele>87.858</ele><time>2026-04-20T18:43:38.055Z</time><hdop>6.0</hdop><vdop>4.125</vdop><extensions><gom:speed>0.353</gom:speed></extensions></trkpt>
   <trkpt lat="59.063819891" lon="30.0293430523"><ele>87.94</ele><time>2026-04-20T18:43:39.002Z</time><hdop>5.937</hdop><vdop>4.312</vdop><extensions><gom:speed>0.251</gom:speed></extensions></trkpt>
   <trkpt lat="59.0638182985" lon="30.0293382746"><ele>88.007</ele><time>2026-04-20T18:43:40.075Z</time><hdop>5.625</hdop><vdop>4.0</vdop><extensions><gom:speed>0.144</gom:speed></extensions></trkpt>
   <trkpt lat="59.0638180889" lon="30.0293370173"><ele>88.06</ele><time>2026-04-20T18:43:41.075Z</time><hdop>5.375</hdop><vdop>4.062</vdop><extensions><gom:speed>0.152</gom:speed></extensions></trkpt>
   <trkpt lat="59.0638186757" lon="30.0293384422"><ele>88.102</ele><time>2026-04-20T18:43:42.076Z</time><hdop>5.25</hdop><vdop>4.0</vdop><extensions><gom:speed>0.165</gom:speed></extensions></trkpt>
   <trkpt lat="59.0638190948" lon="30.0293392804"><ele>88.128</ele><time>2026-04-20T18:43:42.953Z</time><hdop>5.187</hdop><vdop>4.0</vdop><extensions><gom:speed>0.133</gom:speed></extensions></trkpt>
   <trkpt lat="59.0638201844" lon="30.0293401186"><ele>88.172</ele><time>2026-04-20T18:43:44.075Z</time><hdop>4.937</hdop><vdop>3.875</vdop><extensions><gom:speed>0.122</gom:speed></extensions></trkpt>
   <trkpt lat="59.0638206873" lon="30.0293398671"><ele>88.206</ele><time>2026-04-20T18:43:45.075Z</time><hdop>4.562</hdop><vdop>3.875</vdop><extensions><gom:speed>0.122</gom:speed></extensions></trkpt>
   <trkpt lat="59.0638209807" lon="30.0293409568"><ele>88.248</ele><time>2026-04-20T18:43:46.075Z</time><hdop>4.437</hdop><vdop>4.0</vdop><extensions><gom:speed>0.132</gom:speed></extensions></trkpt>
   <trkpt lat="59.0638215674" lon="30.0293418788"><ele>88.278</ele><time>2026-04-20T18:43:47.075Z</time><hdop>4.312</hdop><vdop>4.0</vdop><extensions><gom:speed>0.121</gom:speed></extensions></trkpt>
   <trkpt lat="59.0638220703" lon="30.0293420464"><ele>88.296</ele><time>2026-04-20T18:43:47.721Z</time><hdop>4.312</hdop><vdop>4.0</vdop><extensions><gom:speed>0.159</gom:speed></extensions></trkpt>
   <trkpt lat="59.0638233695" lon="30.0293400348"><ele>88.309</ele><time>2026-04-20T18:43:48.817Z</time><hdop>4.187</hdop><vdop>4.0</vdop><extensions><gom:speed>0.162</gom:speed></extensions></trkpt>
   <trkpt lat="59.0638235791" lon="30.0293389451"><ele>88.32</ele><time>2026-04-20T18:43:49.301Z</time><hdop>4.125</hdop><vdop>4.062</vdop><extensions><gom:speed>0.156</gom:speed></extensions></trkpt>
   <trkpt lat="59.0638236629" lon="30.0293380231"><ele>88.329</ele><time>2026-04-20T18:43:50.075Z</time><hdop>4.125</hdop><vdop>4.125</vdop><extensions><gom:speed>0.176</gom:speed></extensions></trkpt>
   <trkpt lat="59.063825465" lon="30.0293374364"><ele>87.208</ele><time>2026-04-20T18:43:51.076Z</time><hdop>4.062</hdop><vdop>3.812</vdop><extensions><gom:speed>0.22</gom:speed></extensions></trkpt>
   <trkpt lat="59.0638267642" lon="30.0293369335"><ele>86.539</ele><time>2026-04-20T18:43:51.876Z</time><hdop>4.0</hdop><vdop>3.812</vdop><extensions><gom:speed>0.238</gom:speed></extensions></trkpt>
   <trkpt lat="59.0638285663" lon="30.0293448963"><ele>86.296</ele><time>2026-04-20T18:43:53.075Z</time><hdop>4.0</hdop><vdop>4.437</vdop><extensions><gom:speed>0.199</gom:speed></extensions></trkpt>
   <trkpt lat="59.0638309971" lon="30.0293521885"><ele>86.268</ele><time>2026-04-20T18:43:54.076Z</time><hdop>4.0</hdop><vdop>4.625</vdop><extensions><gom:speed>0.209</gom:speed></extensions></trkpt>
   <trkpt lat="59.0638341822" lon="30.0293623306"><ele>86.023</ele><time>2026-04-20T18:43:55.076Z</time><hdop>4.062</hdop><vdop>4.75</vdop><extensions><gom:speed>0.262</gom:speed></extensions></trkpt>
   <trkpt lat="59.0638390856" lon="30.0293680303"><ele>85.877</ele><time>2026-04-20T18:43:55.974Z</time><hdop>4.187</hdop><vdop>4.75</vdop><extensions><gom:speed>0.371</gom:speed></extensions></trkpt>
   <trkpt lat="59.0638425641" lon="30.0293789268"><ele>86.046</ele><time>2026-04-20T18:43:56.651Z</time><hdop>4.312</hdop><vdop>4.875</vdop><extensions><gom:speed>0.411</gom:speed></extensions></trkpt>
   <trkpt lat="59.06385279" lon="30.0294003845"><ele>86.315</ele><time>2026-04-20T18:43:57.798Z</time><hdop>4.562</hdop><vdop>5.062</vdop><extensions><gom:speed>0.478</gom:speed></extensions></trkpt>
   <trkpt lat="59.0638572743" lon="30.0294139632"><ele>86.202</ele><time>2026-04-20T18:43:58.677Z</time><hdop>4.75</hdop><vdop>5.062</vdop><extensions><gom:speed>0.462</gom:speed></extensions></trkpt>
   <trkpt lat="59.0638595794" lon="30.0294281286"><ele>86.129</ele><time>2026-04-20T18:43:59.180Z</time><hdop>4.875</hdop><vdop>4.937</vdop><extensions><gom:speed>0.468</gom:speed></extensions></trkpt>
   <trkpt lat="59.0638611719" lon="30.0294436351"><ele>86.076</ele><time>2026-04-20T18:44:00.075Z</time><hdop>4.937</hdop><vdop>4.875</vdop><extensions><gom:speed>0.447</gom:speed></extensions></trkpt>
   <trkpt lat="59.0638599984" lon="30.0294554536"><ele>86.035</ele><time>2026-04-20T18:44:01.075Z</time><hdop>5.062</hdop><vdop>5.0</vdop><extensions><gom:speed>0.311</gom:speed></extensions></trkpt>
   <trkpt lat="59.0638590764" lon="30.0294545316"><ele>86.01</ele><time>2026-04-20T18:44:01.640Z</time><hdop>5.125</hdop><vdop>5.0</vdop><extensions><gom:speed>0.19</gom:speed></extensions></trkpt>
   <trkpt lat="59.0638582802" lon="30.0294515979"><ele>85.834</ele><time>2026-04-20T18:44:02.459Z</time><hdop>5.187</hdop><vdop>4.937</vdop><extensions><gom:speed>0.1</gom:speed></extensions></trkpt>
   <trkpt lat="59.0638584897" lon="30.0294611533"><ele>85.67</ele><time>2026-04-20T18:44:03.075Z</time><hdop>5.187</hdop><vdop>4.937</vdop><extensions><gom:speed>0.136</gom:speed></extensions></trkpt>
   <trkpt lat="59.0638580706" lon="30.0294620753"><ele>85.671</ele><time>2026-04-20T18:44:04.034Z</time><hdop>5.187</hdop><vdop>4.937</vdop><extensions><gom:speed>0.111</gom:speed></extensions></trkpt>
   <trkpt lat="59.0638579868" lon="30.0294614886"><ele>85.672</ele><time>2026-04-20T18:44:04.600Z</time><hdop>5.25</hdop><vdop>4.937</vdop><extensions><gom:speed>0.085</gom:speed></extensions></trkpt>
   <trkpt lat="59.0638587831" lon="30.029470541"><ele>85.779</ele><time>2026-04-20T18:44:05.075Z</time><hdop>5.25</hdop><vdop>5.062</vdop><extensions><gom:speed>0.111</gom:speed></extensions></trkpt>
   <trkpt lat="59.063859286" lon="30.0294745643"><ele>86.081</ele><time>2026-04-20T18:44:06.010Z</time><hdop>5.25</hdop><vdop>4.937</vdop><extensions><gom:speed>0.099</gom:speed></extensions></trkpt>
   <trkpt lat="59.063861591" lon="30.0294860475"><ele>86.316</ele><time>2026-04-20T18:44:07.075Z</time><hdop>5.312</hdop><vdop>4.937</vdop><extensions><gom:speed>0.15</gom:speed></extensions></trkpt>
   <trkpt lat="59.0638617586" lon="30.0294911605"><ele>86.452</ele><time>2026-04-20T18:44:08.022Z</time><hdop>5.375</hdop><vdop>4.937</vdop><extensions><gom:speed>0.157</gom:speed></extensions></trkpt>
   <trkpt lat="59.0638610881" lon="30.029492753"><ele>86.533</ele><time>2026-04-20T18:44:08.953Z</time><hdop>5.562</hdop><vdop>4.937</vdop><extensions><gom:speed>0.153</gom:speed></extensions></trkpt>
   <trkpt lat="59.0638612976" lon="30.0294938427"><ele>86.6</ele><time>2026-04-20T18:44:09.477Z</time><hdop>5.687</hdop><vdop>5.062</vdop><extensions><gom:speed>0.183</gom:speed></extensions></trkpt>
   <trkpt lat="59.0638619682" lon="30.0294952676"><ele>86.708</ele><time>2026-04-20T18:44:10.037Z</time><hdop>5.75</hdop><vdop>5.125</vdop><extensions><gom:speed>0.213</gom:speed></extensions></trkpt>
   <trkpt lat="59.0638632674" lon="30.029496022"><ele>86.772</ele><time>2026-04-20T18:44:11.075Z</time><hdop>6.0</hdop><vdop>5.125</vdop><extensions><gom:speed>0.226</gom:speed></extensions></trkpt>
   <trkpt lat="59.0638642732" lon="30.0294966925"><ele>86.878</ele><time>2026-04-20T18:44:12.032Z</time><hdop>6.125</hdop><vdop>5.187</vdop><extensions><gom:speed>0.235</gom:speed></extensions></trkpt>
   <trkpt lat="59.0638659915" lon="30.0295086787"><ele>87.04</ele><time>2026-04-20T18:44:12.997Z</time><hdop>6.187</hdop><vdop>4.75</vdop><extensions><gom:speed>0.248</gom:speed></extensions></trkpt>
   <trkpt lat="59.0638659915" lon="30.0295118638"><ele>87.18</ele><time>2026-04-20T18:44:13.945Z</time><hdop>6.312</hdop><vdop>4.437</vdop><extensions><gom:speed>0.209</gom:speed></extensions></trkpt>
   <trkpt lat="59.0638663687" lon="30.0295123667"><ele>87.264</ele><time>2026-04-20T18:44:14.618Z</time><hdop>6.437</hdop><vdop>4.437</vdop><extensions><gom:speed>0.25</gom:speed></extensions></trkpt>
   <trkpt lat="59.0638678774" lon="30.029519156"><ele>87.375</ele><time>2026-04-20T18:44:15.075Z</time><hdop>6.375</hdop><vdop>4.062</vdop><extensions><gom:speed>0.246</gom:speed></extensions></trkpt>
   <trkpt lat="59.0638700986" lon="30.0295241852"><ele>87.441</ele><time>2026-04-20T18:44:15.757Z</time><hdop>6.312</hdop><vdop>4.062</vdop><extensions><gom:speed>0.264</gom:speed></extensions></trkpt>
   <trkpt lat="59.0638734933" lon="30.0295340758"><ele>87.56</ele><time>2026-04-20T18:44:16.614Z</time><hdop>6.125</hdop><vdop>4.0</vdop><extensions><gom:speed>0.33</gom:speed></extensions></trkpt>
   <trkpt lat="59.0638762593" lon="30.029540949"><ele>86.898</ele><time>2026-04-20T18:44:17.075Z</time><hdop>6.0</hdop><vdop>3.812</vdop><extensions><gom:speed>0.353</gom:speed></extensions></trkpt>
   <trkpt lat="59.0638790673" lon="30.0295432959"><ele>86.501</ele><time>2026-04-20T18:44:17.836Z</time><hdop>6.0</hdop><vdop>3.812</vdop><extensions><gom:speed>0.34</gom:speed></extensions></trkpt>
   <trkpt lat="59.0638849765" lon="30.0295530189"><ele>86.511</ele><time>2026-04-20T18:44:18.656Z</time><hdop>5.812</hdop><vdop>3.5</vdop><extensions><gom:speed>0.345</gom:speed></extensions></trkpt>
   <trkpt lat="59.063892185" lon="30.0295649212"><ele>86.634</ele><time>2026-04-20T18:44:19.455Z</time><hdop>5.562</hdop><vdop>3.437</vdop><extensions><gom:speed>0.395</gom:speed></extensions></trkpt>
   <trkpt lat="59.063898178" lon="30.0295755663"><ele>86.52</ele><time>2026-04-20T18:44:20.075Z</time><hdop>5.437</hdop><vdop>3.437</vdop><extensions><gom:speed>0.432</gom:speed></extensions></trkpt>
   <trkpt lat="59.0639053865" lon="30.0295907375"><ele>86.128</ele><time>2026-04-20T18:44:21.075Z</time><hdop>5.25</hdop><vdop>3.312</vdop><extensions><gom:speed>0.424</gom:speed></extensions></trkpt>
   <trkpt lat="59.0639113795" lon="30.0296000414"><ele>85.894</ele><time>2026-04-20T18:44:22.041Z</time><hdop>5.187</hdop><vdop>3.312</vdop><extensions><gom:speed>0.444</gom:speed></extensions></trkpt>
   <trkpt lat="59.0639210606" lon="30.0296116923"><ele>85.972</ele><time>2026-04-20T18:44:23.075Z</time><hdop>5.062</hdop><vdop>3.312</vdop><extensions><gom:speed>0.459</gom:speed></extensions></trkpt>
   <trkpt lat="59.0639251677" lon="30.0296154641"><ele>86.018</ele><time>2026-04-20T18:44:24.076Z</time><hdop>5.0</hdop><vdop>3.312</vdop><extensions><gom:speed>0.393</gom:speed></extensions></trkpt>
   <trkpt lat="59.0639328791" lon="30.0296306354"><ele>86.55</ele><time>2026-04-20T18:44:24.954Z</time><hdop>4.937</hdop><vdop>3.187</vdop><extensions><gom:speed>0.507</gom:speed></extensions></trkpt>
   <trkpt lat="59.0639392913" lon="30.0296537694"><ele>87.174</ele><time>2026-04-20T18:44:25.674Z</time><hdop>4.875</hdop><vdop>3.125</vdop><extensions><gom:speed>0.67</gom:speed></extensions></trkpt>
   <trkpt lat="59.0639432727" lon="30.0296778255"><ele>88.082</ele><time>2026-04-20T18:44:26.414Z</time><hdop>4.75</hdop><vdop>3.0</vdop><extensions><gom:speed>0.779</gom:speed></extensions></trkpt>
   <trkpt lat="59.0639456615" lon="30.0296953436"><ele>88.676</ele><time>2026-04-20T18:44:27.076Z</time><hdop>4.625</hdop><vdop>3.0</vdop><extensions><gom:speed>0.814</gom:speed></extensions></trkpt>
   <trkpt lat="59.0639465835" lon="30.0297038932"><ele>89.03</ele><time>2026-04-20T18:44:27.567Z</time><hdop>4.562</hdop><vdop>3.0</vdop><extensions><gom:speed>0.837</gom:speed></extensions></trkpt>
   <trkpt lat="59.0639469607" lon="30.0297199864"><ele>89.242</ele><time>2026-04-20T18:44:28.073Z</time><hdop>4.5</hdop><vdop>3.0</vdop><extensions><gom:speed>0.852</gom:speed></extensions></trkpt>
   <trkpt lat="59.0639508583" lon="30.0297375884"><ele>89.649</ele><time>2026-04-20T18:44:28.902Z</time><hdop>4.437</hdop><vdop>2.937</vdop><extensions><gom:speed>0.915</gom:speed></extensions></trkpt>
   <trkpt lat="59.0639572704" lon="30.0297602196"><ele>90.172</ele><time>2026-04-20T18:44:29.839Z</time><hdop>4.375</hdop><vdop>3.062</vdop><extensions><gom:speed>0.967</gom:speed></extensions></trkpt>
   <trkpt lat="59.0639632635" lon="30.0297800847"><ele>90.569</ele><time>2026-04-20T18:44:30.600Z</time><hdop>4.312</hdop><vdop>3.25</vdop><extensions><gom:speed>0.982</gom:speed></extensions></trkpt>
   <trkpt lat="59.0639678735" lon="30.0297929928"><ele>91.046</ele><time>2026-04-20T18:44:31.075Z</time><hdop>4.312</hdop><vdop>3.437</vdop><extensions><gom:speed>0.985</gom:speed></extensions></trkpt>
   <trkpt lat="59.0639715616" lon="30.0298055657"><ele>91.331</ele><time>2026-04-20T18:44:31.636Z</time><hdop>4.437</hdop><vdop>3.437</vdop><extensions><gom:speed>1.022</gom:speed></extensions></trkpt>
   <trkpt lat="59.0639794825" lon="30.0298277777"><ele>91.609</ele><time>2026-04-20T18:44:32.555Z</time><hdop>4.562</hdop><vdop>3.625</vdop><extensions><gom:speed>1.027</gom:speed></extensions></trkpt>
   <trkpt lat="59.0639836734" lon="30.0298407697"><ele>91.821</ele><time>2026-04-20T18:44:33.076Z</time><hdop>4.625</hdop><vdop>3.812</vdop><extensions><gom:speed>1.009</gom:speed></extensions></trkpt>
   <trkpt lat="59.0639845954" lon="30.0298524205"><ele>91.948</ele><time>2026-04-20T18:44:33.699Z</time><hdop>4.75</hdop><vdop>3.812</vdop><extensions><gom:speed>0.926</gom:speed></extensions></trkpt>
   <trkpt lat="59.0639843859" lon="30.0298698549"><ele>92.351</ele><time>2026-04-20T18:44:34.499Z</time><hdop>4.937</hdop><vdop>3.875</vdop><extensions><gom:speed>0.846</gom:speed></extensions></trkpt>
   <trkpt lat="59.0639831705" lon="30.0298789911"><ele>92.732</ele><time>2026-04-20T18:44:35.075Z</time><hdop>4.937</hdop><vdop>3.687</vdop><extensions><gom:speed>0.842</gom:speed></extensions></trkpt>
   <trkpt lat="59.0639812846" lon="30.0298953359"><ele>93.749</ele><time>2026-04-20T18:44:36.075Z</time><hdop>5.0</hdop><vdop>3.437</vdop><extensions><gom:speed>0.804</gom:speed></extensions></trkpt>
   <trkpt lat="59.0639828771" lon="30.0299089984"><ele>94.356</ele><time>2026-04-20T18:44:37.077Z</time><hdop>5.0</hdop><vdop>3.437</vdop><extensions><gom:speed>0.702</gom:speed></extensions></trkpt>
   <trkpt lat="59.0639859785" lon="30.0299149495"><ele>95.01</ele><time>2026-04-20T18:44:37.599Z</time><hdop>5.0</hdop><vdop>6.937</vdop><extensions><gom:speed>0.629</gom:speed></extensions></trkpt>
   <trkpt lat="59.0639887864" lon="30.0299224932"><ele>95.658</ele><time>2026-04-20T18:44:38.075Z</time><hdop>5.0</hdop><vdop>6.875</vdop><extensions><gom:speed>0.604</gom:speed></extensions></trkpt>
   <trkpt lat="59.0639905885" lon="30.0299281929"><ele>96.044</ele><time>2026-04-20T18:44:38.537Z</time><hdop>5.0</hdop><vdop>6.875</vdop><extensions><gom:speed>0.622</gom:speed></extensions></trkpt>
   <trkpt lat="59.0639924744" lon="30.0299357366"><ele>96.425</ele><time>2026-04-20T18:44:39.076Z</time><hdop>5.0</hdop><vdop>6.812</vdop><extensions><gom:speed>0.596</gom:speed></extensions></trkpt>
   <trkpt lat="59.063992684" lon="30.0299394247"><ele>96.653</ele><time>2026-04-20T18:44:39.885Z</time><hdop>5.062</hdop><vdop>6.812</vdop><extensions><gom:speed>0.571</gom:speed></extensions></trkpt>
   <trkpt lat="59.0639948633" lon="30.0299502373"><ele>96.79</ele><time>2026-04-20T18:44:41.075Z</time><hdop>5.187</hdop><vdop>6.437</vdop><extensions><gom:speed>0.468</gom:speed></extensions></trkpt>
   <trkpt lat="59.0639973778" lon="30.029955937"><ele>96.872</ele><time>2026-04-20T18:44:41.815Z</time><hdop>5.375</hdop><vdop>6.437</vdop><extensions><gom:speed>0.51</gom:speed></extensions></trkpt>
   <trkpt lat="59.063999599" lon="30.0299565238"><ele>96.782</ele><time>2026-04-20T18:44:42.965Z</time><hdop>5.562</hdop><vdop>6.375</vdop><extensions><gom:speed>0.326</gom:speed></extensions></trkpt>
   <trkpt lat="59.0639984675" lon="30.0299483933"><ele>96.68</ele><time>2026-04-20T18:44:44.031Z</time><hdop>5.75</hdop><vdop>6.375</vdop><extensions><gom:speed>0.155</gom:speed></extensions></trkpt>
   <trkpt lat="59.0639973778" lon="30.0299424422"><ele>96.619</ele><time>2026-04-20T18:44:44.873Z</time><hdop>5.937</hdop><vdop>6.375</vdop><extensions><gom:speed>0.129</gom:speed></extensions></trkpt>
   <trkpt lat="59.0639971683" lon="30.0299405981"><ele>96.493</ele><time>2026-04-20T18:44:45.763Z</time><hdop>6.062</hdop><vdop>6.375</vdop><extensions><gom:speed>0.112</gom:speed></extensions></trkpt>
   <trkpt lat="59.0639977969" lon="30.029940682"><ele>96.28</ele><time>2026-04-20T18:44:46.680Z</time><hdop>6.187</hdop><vdop>6.312</vdop><extensions><gom:speed>0.135</gom:speed></extensions></trkpt>
   <trkpt lat="59.0639980903" lon="30.0299410172"><ele>96.214</ele><time>2026-04-20T18:44:47.321Z</time><hdop>6.25</hdop><vdop>6.312</vdop><extensions><gom:speed>0.159</gom:speed></extensions></trkpt>
   <trkpt lat="59.0639984675" lon="30.0299409334"><ele>96.174</ele><time>2026-04-20T18:44:47.858Z</time><hdop>6.25</hdop><vdop>6.312</vdop><extensions><gom:speed>0.118</gom:speed></extensions></trkpt>
   <trkpt lat="59.064001485" lon="30.0299469684"><ele>96.023</ele><time>2026-04-20T18:44:49.006Z</time><hdop>6.25</hdop><vdop>6.062</vdop><extensions><gom:speed>0.166</gom:speed></extensions></trkpt>
   <trkpt lat="59.0640053826" lon="30.0299507402"><ele>95.919</ele><time>2026-04-20T18:44:50.075Z</time><hdop>6.187</hdop><vdop>6.062</vdop><extensions><gom:speed>0.206</gom:speed></extensions></trkpt>
   <trkpt lat="59.0640086934" lon="30.029951327"><ele>95.886</ele><time>2026-04-20T18:44:51.020Z</time><hdop>6.125</hdop><vdop>5.937</vdop><extensions><gom:speed>0.243</gom:speed></extensions></trkpt>
   <trkpt lat="59.0640131777" lon="30.0299549312"><ele>95.866</ele><time>2026-04-20T18:44:52.040Z</time><hdop>6.187</hdop><vdop>5.937</vdop><extensions><gom:speed>0.387</gom:speed></extensions></trkpt>
   <trkpt lat="59.0640177878" lon="30.0299673364"><ele>95.907</ele><time>2026-04-20T18:44:53.016Z</time><hdop>6.125</hdop><vdop>5.937</vdop><extensions><gom:speed>0.463</gom:speed></extensions></trkpt>
   <trkpt lat="59.0640164886" lon="30.0299745448"><ele>95.924</ele><time>2026-04-20T18:44:53.981Z</time><hdop>6.25</hdop><vdop>6.0</vdop><extensions><gom:speed>0.463</gom:speed></extensions></trkpt>
   <trkpt lat="59.0640126748" lon="30.0299785682"><ele>95.934</ele><time>2026-04-20T18:44:55.083Z</time><hdop>6.375</hdop><vdop>6.0</vdop><extensions><gom:speed>0.383</gom:speed></extensions></trkpt>
   <trkpt lat="59.0640099926" lon="30.0299794902"><ele>95.906</ele><time>2026-04-20T18:44:56.056Z</time><hdop>6.5</hdop><vdop>6.187</vdop><extensions><gom:speed>0.314</gom:speed></extensions></trkpt>
   <trkpt lat="59.0640106632" lon="30.0299811665"><ele>95.859</ele><time>2026-04-20T18:44:56.943Z</time><hdop>6.625</hdop><vdop>7.062</vdop><extensions><gom:speed>0.289</gom:speed></extensions></trkpt>
   <trkpt lat="59.0640122976" lon="30.0299811665"><ele>95.835</ele><time>2026-04-20T18:44:58.009Z</time><hdop>6.875</hdop><vdop>7.437</vdop><extensions><gom:speed>0.277</gom:speed></extensions></trkpt>
   <trkpt lat="59.0640130939" lon="30.0299813342"><ele>95.821</ele><time>2026-04-20T18:44:58.483Z</time><hdop>7.062</hdop><vdop>7.437</vdop><extensions><gom:speed>0.302</gom:speed></extensions></trkpt>
   <trkpt lat="59.0640152732" lon="30.0299861957"><ele>95.807</ele><time>2026-04-20T18:44:58.956Z</time><hdop>7.125</hdop><vdop>7.625</vdop><extensions><gom:speed>0.338</gom:speed></extensions></trkpt>
   <trkpt lat="59.0640168658" lon="30.0299988524"><ele>95.798</ele><time>2026-04-20T18:45:00.056Z</time><hdop>7.5</hdop><vdop>7.625</vdop><extensions><gom:speed>0.526</gom:speed></extensions></trkpt>
   <trkpt lat="59.0640157761" lon="30.0300080725"><ele>95.791</ele><time>2026-04-20T18:45:00.893Z</time><hdop>7.75</hdop><vdop>7.875</vdop><extensions><gom:speed>0.513</gom:speed></extensions></trkpt>
   <trkpt lat="59.064014896" lon="30.0300201424"><ele>95.788</ele><time>2026-04-20T18:45:01.717Z</time><hdop>8.187</hdop><vdop>8.062</vdop><extensions><gom:speed>0.613</gom:speed></extensions></trkpt>
   <trkpt lat="59.0640158599" lon="30.0300381635"><ele>95.787</ele><time>2026-04-20T18:45:02.662Z</time><hdop>8.875</hdop><vdop>8.25</vdop><extensions><gom:speed>0.712</gom:speed></extensions></trkpt>
   <trkpt lat="59.0640205957" lon="30.0300556817"><ele>95.792</ele><time>2026-04-20T18:45:03.639Z</time><hdop>9.687</hdop><vdop>8.25</vdop><extensions><gom:speed>0.785</gom:speed></extensions></trkpt>
   <trkpt lat="59.0640309893" lon="30.0300560169"><ele>95.241</ele><time>2026-04-20T18:45:04.439Z</time><hdop>10.062</hdop><vdop>6.312</vdop><extensions><gom:speed>0.744</gom:speed></extensions></trkpt>
   <trkpt lat="59.0640419696" lon="30.0300572742"><ele>92.215</ele><time>2026-04-20T18:45:05.075Z</time><hdop>9.937</hdop><vdop>5.125</vdop><extensions><gom:speed>0.744</gom:speed></extensions></trkpt>
   <trkpt lat="59.0640497647" lon="30.030061549"><ele>89.281</ele><time>2026-04-20T18:45:06.075Z</time><hdop>9.625</hdop><vdop>4.75</vdop><extensions><gom:speed>0.777</gom:speed></extensions></trkpt>
   <trkpt lat="59.0640552968" lon="30.0300625548"><ele>87.528</ele><time>2026-04-20T18:45:06.796Z</time><hdop>9.437</hdop><vdop>4.75</vdop><extensions><gom:speed>0.749</gom:speed></extensions></trkpt>
   <trkpt lat="59.0640598649" lon="30.0300739542"><ele>85.655</ele><time>2026-04-20T18:45:07.410Z</time><hdop>8.937</hdop><vdop>8.812</vdop><extensions><gom:speed>0.747</gom:speed></extensions></trkpt>
   <trkpt lat="59.0640648941" lon="30.0300840963"><ele>85.1</ele><time>2026-04-20T18:45:08.075Z</time><hdop>8.625</hdop><vdop>9.5</vdop><extensions><gom:speed>0.748</gom:speed></extensions></trkpt>
   <trkpt lat="59.0640724797" lon="30.0301033747"><ele>85.168</ele><time>2026-04-20T18:45:09.075Z</time><hdop>7.625</hdop><vdop>9.437</vdop><extensions><gom:speed>0.799</gom:speed></extensions></trkpt>
   <trkpt lat="59.0640798977" lon="30.0301212281"><ele>85.209</ele><time>2026-04-20T18:45:10.054Z</time><hdop>7.125</hdop><vdop>9.437</vdop><extensions><gom:speed>0.899</gom:speed></extensions></trkpt>
   <trkpt lat="59.0640869804" lon="30.0301392492"><ele>85.108</ele><time>2026-04-20T18:45:10.915Z</time><hdop>6.875</hdop><vdop>8.937</vdop><extensions><gom:speed>0.886</gom:speed></extensions></trkpt>
   <trkpt lat="59.0640927639" lon="30.0301559292"><ele>85.222</ele><time>2026-04-20T18:45:11.802Z</time><hdop>6.75</hdop><vdop>8.562</vdop><extensions><gom:speed>0.859</gom:speed></extensions></trkpt>
   <trkpt lat="59.0640986731" lon="30.0301651493"><ele>85.321</ele><time>2026-04-20T18:45:12.679Z</time><hdop>6.75</hdop><vdop>8.625</vdop><extensions><gom:speed>0.832</gom:speed></extensions></trkpt>
   <trkpt lat="59.0641030736" lon="30.0301806558"><ele>85.429</ele><time>2026-04-20T18:45:13.637Z</time><hdop>6.75</hdop><vdop>8.25</vdop><extensions><gom:speed>0.875</gom:speed></extensions></trkpt>
   <trkpt lat="59.0641058816" lon="30.0301978387"><ele>85.914</ele><time>2026-04-20T18:45:14.496Z</time><hdop>6.687</hdop><vdop>6.187</vdop><extensions><gom:speed>0.9</gom:speed></extensions></trkpt>
   <trkpt lat="59.0641094858" lon="30.0302075618"><ele>86.944</ele><time>2026-04-20T18:45:15.075Z</time><hdop>6.562</hdop><vdop>4.562</vdop><extensions><gom:speed>0.896</gom:speed></extensions></trkpt>
   <trkpt lat="59.0641176581" lon="30.0302191288"><ele>87.924</ele><time>2026-04-20T18:45:16.075Z</time><hdop>6.437</hdop><vdop>4.062</vdop><extensions><gom:speed>0.847</gom:speed></extensions></trkpt>
   <trkpt lat="59.0641246989" lon="30.0302353897"><ele>88.914</ele><time>2026-04-20T18:45:17.075Z</time><hdop>6.25</hdop><vdop>3.437</vdop><extensions><gom:speed>0.928</gom:speed></extensions></trkpt>
   <trkpt lat="59.0641256629" lon="30.0302585237"><ele>89.681</ele><time>2026-04-20T18:45:18.075Z</time><hdop>6.062</hdop><vdop>3.25</vdop><extensions><gom:speed>0.91</gom:speed></extensions></trkpt>
   <trkpt lat="59.0641249923" lon="30.0302796461"><ele>90.33</ele><time>2026-04-20T18:45:19.075Z</time><hdop>5.875</hdop><vdop>3.062</vdop><extensions><gom:speed>0.835</gom:speed></extensions></trkpt>
   <trkpt lat="59.0641227711" lon="30.030296829"><ele>90.928</ele><time>2026-04-20T18:45:20.075Z</time><hdop>5.625</hdop><vdop>3.0</vdop><extensions><gom:speed>0.718</gom:speed></extensions></trkpt>
   <trkpt lat="59.0641196698" lon="30.03030563"><ele>91.361</ele><time>2026-04-20T18:45:21.075Z</time><hdop>5.5</hdop><vdop>3.062</vdop><extensions><gom:speed>0.517</gom:speed></extensions></trkpt>
   <trkpt lat="59.0641202984" lon="30.0303072226"><ele>91.707</ele><time>2026-04-20T18:45:22.075Z</time><hdop>5.375</hdop><vdop>3.0</vdop><extensions><gom:speed>0.254</gom:speed></extensions></trkpt>
   <trkpt lat="59.064121891" lon="30.0303055462"><ele>91.934</ele><time>2026-04-20T18:45:23.075Z</time><hdop>5.125</hdop><vdop>3.0</vdop><extensions><gom:speed>0.108</gom:speed></extensions></trkpt>
   <trkpt lat="59.0641222682" lon="30.0303058815"><ele>92.107</ele><time>2026-04-20T18:45:24.075Z</time><hdop>4.812</hdop><vdop>2.812</vdop><extensions><gom:speed>0.083</gom:speed></extensions></trkpt>
   <trkpt lat="59.0641230645" lon="30.0303081446"><ele>92.307</ele><time>2026-04-20T18:45:25.075Z</time><hdop>4.625</hdop><vdop>2.687</vdop><extensions><gom:speed>0.111</gom:speed></extensions></trkpt>
   <trkpt lat="59.0641242799" lon="30.0303112459"><ele>92.552</ele><time>2026-04-20T18:45:26.075Z</time><hdop>4.5</hdop><vdop>2.5</vdop><extensions><gom:speed>0.088</gom:speed></extensions></trkpt>
   <trkpt lat="59.0641254952" lon="30.0303143472"><ele>92.543</ele><time>2026-04-20T18:45:27.075Z</time><hdop>4.5</hdop><vdop>2.5</vdop><extensions><gom:speed>0.124</gom:speed></extensions></trkpt>
   <trkpt lat="59.0641270878" lon="30.0303207174"><ele>92.682</ele><time>2026-04-20T18:45:28.076Z</time><hdop>4.5</hdop><vdop>2.5</vdop><extensions><gom:speed>0.201</gom:speed></extensions></trkpt>
   <trkpt lat="59.0641299795" lon="30.0303296861"><ele>92.835</ele><time>2026-04-20T18:45:29.075Z</time><hdop>4.5</hdop><vdop>2.5</vdop><extensions><gom:speed>0.242</gom:speed></extensions></trkpt>
   <trkpt lat="59.0641338771" lon="30.0303410855"><ele>92.927</ele><time>2026-04-20T18:45:29.934Z</time><hdop>4.625</hdop><vdop>2.5</vdop><extensions><gom:speed>0.399</gom:speed></extensions></trkpt>
   <trkpt lat="59.0641389901" lon="30.0303583522"><ele>92.994</ele><time>2026-04-20T18:45:30.866Z</time><hdop>4.687</hdop><vdop>2.5</vdop><extensions><gom:speed>0.643</gom:speed></extensions></trkpt>
   <trkpt lat="59.0641453603" lon="30.0303777982"><ele>93.259</ele><time>2026-04-20T18:45:31.839Z</time><hdop>4.75</hdop><vdop>2.5</vdop><extensions><gom:speed>0.75</gom:speed></extensions></trkpt>
   <trkpt lat="59.0641507667" lon="30.0303943944"><ele>93.521</ele><time>2026-04-20T18:45:32.697Z</time><hdop>4.875</hdop><vdop>2.5</vdop><extensions><gom:speed>0.795</gom:speed></extensions></trkpt>
   <trkpt lat="59.0641562987" lon="30.0304232281"><ele>93.425</ele><time>2026-04-20T18:45:34.075Z</time><hdop>5.0</hdop><vdop>2.875</vdop><extensions><gom:speed>0.917</gom:speed></extensions></trkpt>
   <trkpt lat="59.0641639682" lon="30.0304371421"><ele>93.368</ele><time>2026-04-20T18:45:35.056Z</time><hdop>5.187</hdop><vdop>2.875</vdop><extensions><gom:speed>0.935</gom:speed></extensions></trkpt>
   <trkpt lat="59.064164974" lon="30.0304411654"><ele>92.655</ele><time>2026-04-20T18:45:35.557Z</time><hdop>5.187</hdop><vdop>2.812</vdop><extensions><gom:speed>0.911</gom:speed></extensions></trkpt>
   <trkpt lat="59.0641718891" lon="30.0304549955"><ele>92.164</ele><time>2026-04-20T18:45:36.075Z</time><hdop>5.187</hdop><vdop>2.625</vdop><extensions><gom:speed>0.875</gom:speed></extensions></trkpt>
   <trkpt lat="59.0641769601" lon="30.0304644671"><ele>91.986</ele><time>2026-04-20T18:45:37.076Z</time><hdop>5.187</hdop><vdop>2.625</vdop><extensions><gom:speed>0.81</gom:speed></extensions></trkpt>
   <trkpt lat="59.0641815702" lon="30.0304729328"><ele>91.531</ele><time>2026-04-20T18:45:38.076Z</time><hdop>5.062</hdop><vdop>2.562</vdop><extensions><gom:speed>0.725</gom:speed></extensions></trkpt>
   <trkpt lat="59.0641837914" lon="30.0304828235"><ele>91.113</ele><time>2026-04-20T18:45:39.076Z</time><hdop>5.0</hdop><vdop>2.625</vdop><extensions><gom:speed>0.6</gom:speed></extensions></trkpt>
   <trkpt lat="59.0641853839" lon="30.0304897804"><ele>90.871</ele><time>2026-04-20T18:45:40.075Z</time><hdop>4.75</hdop><vdop>2.562</vdop><extensions><gom:speed>0.497</gom:speed></extensions></trkpt>
   <trkpt lat="59.0641896587" lon="30.0305054546"><ele>90.552</ele><time>2026-04-20T18:45:41.075Z</time><hdop>4.625</hdop><vdop>2.5</vdop><extensions><gom:speed>0.688</gom:speed></extensions></trkpt>
   <trkpt lat="59.0641895749" lon="30.0305133336"><ele>90.361</ele><time>2026-04-20T18:45:41.621Z</time><hdop>4.562</hdop><vdop>2.5</vdop><extensions><gom:speed>0.677</gom:speed></extensions></trkpt>
   <trkpt lat="59.0641881919" lon="30.0305219669"><ele>90.234</ele><time>2026-04-20T18:45:42.076Z</time><hdop>4.562</hdop><vdop>2.5</vdop><extensions><gom:speed>0.657</gom:speed></extensions></trkpt>
   <trkpt lat="59.0641842943" lon="30.0305298459"><ele>89.873</ele><time>2026-04-20T18:45:43.075Z</time><hdop>4.562</hdop><vdop>2.5</vdop><extensions><gom:speed>0.629</gom:speed></extensions></trkpt>
   <trkpt lat="59.064180271" lon="30.030538144"><ele>89.658</ele><time>2026-04-20T18:45:43.902Z</time><hdop>4.562</hdop><vdop>2.5</vdop><extensions><gom:speed>0.673</gom:speed></extensions></trkpt>
   <trkpt lat="59.0641768763" lon="30.030544179"><ele>89.539</ele><time>2026-04-20T18:45:44.454Z</time><hdop>4.562</hdop><vdop>2.5</vdop><extensions><gom:speed>0.652</gom:speed></extensions></trkpt>
   <trkpt lat="59.064173775" lon="30.0305504654"><ele>89.338</ele><time>2026-04-20T18:45:45.075Z</time><hdop>4.562</hdop><vdop>2.5</vdop><extensions><gom:speed>0.641</gom:speed></extensions></trkpt>
   <trkpt lat="59.0641710928" lon="30.0305573386"><ele>89.177</ele><time>2026-04-20T18:45:46.075Z</time><hdop>4.562</hdop><vdop>2.5</vdop><extensions><gom:speed>0.499</gom:speed></extensions></trkpt>
   <trkpt lat="59.0641712604" lon="30.0305596855"><ele>88.556</ele><time>2026-04-20T18:45:47.075Z</time><hdop>4.562</hdop><vdop>2.5</vdop><extensions><gom:speed>0.384</gom:speed></extensions></trkpt>
   <trkpt lat="59.0641716795" lon="30.0305595179"><ele>88.185</ele><time>2026-04-20T18:45:47.876Z</time><hdop>4.562</hdop><vdop>2.5</vdop><extensions><gom:speed>0.353</gom:speed></extensions></trkpt>
   <trkpt lat="59.0641717633" lon="30.0305601884"><ele>87.916</ele><time>2026-04-20T18:45:48.392Z</time><hdop>4.562</hdop><vdop>2.5</vdop><extensions><gom:speed>0.3</gom:speed></extensions></trkpt>
   <trkpt lat="59.0641702965" lon="30.0305637926"><ele>87.559</ele><time>2026-04-20T18:45:49.075Z</time><hdop>4.625</hdop><vdop>2.562</vdop><extensions><gom:speed>0.376</gom:speed></extensions></trkpt>
   <trkpt lat="59.0641676981" lon="30.0305725936"><ele>87.345</ele><time>2026-04-20T18:45:49.873Z</time><hdop>4.687</hdop><vdop>2.562</vdop><extensions><gom:speed>0.496</gom:speed></extensions></trkpt>
   <trkpt lat="59.0641611602" lon="30.0305834901"><ele>86.844</ele><time>2026-04-20T18:45:50.821Z</time><hdop>4.812</hdop><vdop>2.687</vdop><extensions><gom:speed>0.65</gom:speed></extensions></trkpt>
   <trkpt lat="59.064153868" lon="30.0305892736"><ele>86.7</ele><time>2026-04-20T18:45:51.680Z</time><hdop>4.875</hdop><vdop>2.562</vdop><extensions><gom:speed>0.682</gom:speed></extensions></trkpt>
   <trkpt lat="59.0641458633" lon="30.0305942189"><ele>86.613</ele><time>2026-04-20T18:45:52.656Z</time><hdop>4.875</hdop><vdop>2.5</vdop><extensions><gom:speed>0.677</gom:speed></extensions></trkpt>
   <trkpt lat="59.064139493" lon="30.0305979908"><ele>86.544</ele><time>2026-04-20T18:45:53.574Z</time><hdop>4.937</hdop><vdop>2.5</vdop><extensions><gom:speed>0.655</gom:speed></extensions></trkpt>
   <trkpt lat="59.0641347991" lon="30.0305991643"><ele>86.651</ele><time>2026-04-20T18:45:54.075Z</time><hdop>4.937</hdop><vdop>2.562</vdop><extensions><gom:speed>0.665</gom:speed></extensions></trkpt>
   <trkpt lat="59.0641267944" lon="30.0306017627"><ele>86.651</ele><time>2026-04-20T18:45:55.075Z</time><hdop>4.937</hdop><vdop>2.562</vdop><extensions><gom:speed>0.589</gom:speed></extensions></trkpt>
   <trkpt lat="59.0641239865" lon="30.0306009245"><ele>86.783</ele><time>2026-04-20T18:45:56.050Z</time><hdop>4.937</hdop><vdop>2.687</vdop><extensions><gom:speed>0.488</gom:speed></extensions></trkpt>
   <trkpt lat="59.0641202984" lon="30.0305981584"><ele>86.861</ele><time>2026-04-20T18:45:57.001Z</time><hdop>4.937</hdop><vdop>2.687</vdop><extensions><gom:speed>0.473</gom:speed></extensions></trkpt>
   <trkpt lat="59.0641126709" lon="30.0305975717"><ele>86.975</ele><time>2026-04-20T18:45:57.820Z</time><hdop>5.0</hdop><vdop>2.812</vdop><extensions><gom:speed>0.564</gom:speed></extensions></trkpt>
   <trkpt lat="59.0641051691" lon="30.0306008406"><ele>86.925</ele><time>2026-04-20T18:45:58.836Z</time><hdop>5.125</hdop><vdop>2.687</vdop><extensions><gom:speed>0.507</gom:speed></extensions></trkpt>
   <trkpt lat="59.0641002657" lon="30.030602517"><ele>87.27</ele><time>2026-04-20T18:46:00.076Z</time><hdop>5.125</hdop><vdop>2.625</vdop><extensions><gom:speed>0.361</gom:speed></extensions></trkpt>
   <trkpt lat="59.0640963681" lon="30.0306097255"><ele>87.736</ele><time>2026-04-20T18:46:01.075Z</time><hdop>5.187</hdop><vdop>10.25</vdop><extensions><gom:speed>0.468</gom:speed></extensions></trkpt>
   <trkpt lat="59.0640959909" lon="30.0306166824"><ele>88.014</ele><time>2026-04-20T18:46:01.540Z</time><hdop>5.25</hdop><vdop>10.25</vdop><extensions><gom:speed>0.587</gom:speed></extensions></trkpt>
   <trkpt lat="59.0640974997" lon="30.0306249805"><ele>88.188</ele><time>2026-04-20T18:46:02.242Z</time><hdop>5.312</hdop><vdop>9.875</vdop><extensions><gom:speed>0.629</gom:speed></extensions></trkpt>
   <trkpt lat="59.0641009782" lon="30.0306294229"><ele>88.311</ele><time>2026-04-20T18:46:03.038Z</time><hdop>5.375</hdop><vdop>9.75</vdop><extensions><gom:speed>0.566</gom:speed></extensions></trkpt>
   <trkpt lat="59.0641009782" lon="30.0306183588"><ele>88.309</ele><time>2026-04-20T18:46:04.075Z</time><hdop>5.437</hdop><vdop>9.437</vdop><extensions><gom:speed>0.262</gom:speed></extensions></trkpt>
   <trkpt lat="59.0641006848" lon="30.0306140841"><ele>88.21</ele><time>2026-04-20T18:46:05.052Z</time><hdop>5.562</hdop><vdop>9.375</vdop><extensions><gom:speed>0.223</gom:speed></extensions></trkpt>
   <trkpt lat="59.0640997628" lon="30.0306121562"><ele>88.138</ele><time>2026-04-20T18:46:06.000Z</time><hdop>5.625</hdop><vdop>9.75</vdop><extensions><gom:speed>0.177</gom:speed></extensions></trkpt>
   <trkpt lat="59.0640989665" lon="30.0306106475"><ele>88.095</ele><time>2026-04-20T18:46:06.473Z</time><hdop>5.687</hdop><vdop>9.75</vdop><extensions><gom:speed>0.153</gom:speed></extensions></trkpt>
   <trkpt lat="59.0640976673" lon="30.0306109828"><ele>87.962</ele><time>2026-04-20T18:46:07.076Z</time><hdop>5.687</hdop><vdop>9.5</vdop><extensions><gom:speed>0.151</gom:speed></extensions></trkpt>
   <trkpt lat="59.0640965777" lon="30.0306121562"><ele>87.83</ele><time>2026-04-20T18:46:08.013Z</time><hdop>5.75</hdop><vdop>9.125</vdop><extensions><gom:speed>0.168</gom:speed></extensions></trkpt>
   <trkpt lat="59.0640948594" lon="30.0306144193"><ele>87.751</ele><time>2026-04-20T18:46:08.974Z</time><hdop>5.75</hdop><vdop>9.125</vdop><extensions><gom:speed>0.239</gom:speed></extensions></trkpt>
   <trkpt lat="59.0640919676" lon="30.0306155928"><ele>87.974</ele><time>2026-04-20T18:46:10.075Z</time><hdop>5.812</hdop><vdop>8.625</vdop><extensions><gom:speed>0.258</gom:speed></extensions></trkpt>
   <trkpt lat="59.0640906684" lon="30.0306138326"><ele>88.209</ele><time>2026-04-20T18:46:10.974Z</time><hdop>5.875</hdop><vdop>8.062</vdop><extensions><gom:speed>0.169</gom:speed></extensions></trkpt>
   <trkpt lat="59.0640903751" lon="30.0306135811"><ele>88.341</ele><time>2026-04-20T18:46:12.041Z</time><hdop>5.937</hdop><vdop>7.75</vdop><extensions><gom:speed>0.146</gom:speed></extensions></trkpt>
   <trkpt lat="59.0640897883" lon="30.0306115695"><ele>88.42</ele><time>2026-04-20T18:46:12.634Z</time><hdop>6.0</hdop><vdop>7.75</vdop><extensions><gom:speed>0.065</gom:speed></extensions></trkpt>
   <trkpt lat="59.0640879862" lon="30.0306108989"><ele>88.549</ele><time>2026-04-20T18:46:14.054Z</time><hdop>6.0</hdop><vdop>7.437</vdop><extensions><gom:speed>0.122</gom:speed></extensions></trkpt>
   <trkpt lat="59.0640869804" lon="30.0306109828"><ele>88.629</ele><time>2026-04-20T18:46:15.003Z</time><hdop>6.062</hdop><vdop>7.437</vdop><extensions><gom:speed>0.091</gom:speed></extensions></trkpt>
   <trkpt lat="59.0640858907" lon="30.0306133297"><ele>88.682</ele><time>2026-04-20T18:46:15.950Z</time><hdop>6.187</hdop><vdop>7.437</vdop><extensions><gom:speed>0.103</gom:speed></extensions></trkpt>
   <trkpt lat="59.0640860584" lon="30.0306147546"><ele>88.714</ele><time>2026-04-20T18:46:16.416Z</time><hdop>6.312</hdop><vdop>7.437</vdop><extensions><gom:speed>0.062</gom:speed></extensions></trkpt>
   <trkpt lat="59.0640862679" lon="30.0306159281"><ele>88.748</ele><time>2026-04-20T18:46:17.015Z</time><hdop>6.375</hdop><vdop>7.375</vdop><extensions><gom:speed>0.094</gom:speed></extensions></trkpt>
   <trkpt lat="59.0640869804" lon="30.030617353"><ele>88.83</ele><time>2026-04-20T18:46:17.963Z</time><hdop>6.562</hdop><vdop>7.375</vdop><extensions><gom:speed>0.101</gom:speed></extensions></trkpt>
   <trkpt lat="59.0640875671" lon="30.0306175206"><ele>88.879</ele><time>2026-04-20T18:46:18.792Z</time><hdop>6.625</hdop><vdop>7.375</vdop><extensions><gom:speed>0.116</gom:speed></extensions></trkpt>
   <trkpt lat="59.0640892854" lon="30.0306205381"><ele>88.999</ele><time>2026-04-20T18:46:19.977Z</time><hdop>6.937</hdop><vdop>7.625</vdop><extensions><gom:speed>0.125</gom:speed></extensions></trkpt>
   <trkpt lat="59.0640901655" lon="30.030620119"><ele>89.07</ele><time>2026-04-20T18:46:20.553Z</time><hdop>7.187</hdop><vdop>7.625</vdop><extensions><gom:speed>0.111</gom:speed></extensions></trkpt>
   <trkpt lat="59.0640907942" lon="30.0306206219"><ele>89.108</ele><time>2026-04-20T18:46:21.043Z</time><hdop>7.25</hdop><vdop>7.437</vdop><extensions><gom:speed>0.142</gom:speed></extensions></trkpt>
   <trkpt lat="59.0640916742" lon="30.0306220469"><ele>89.143</ele><time>2026-04-20T18:46:21.990Z</time><hdop>7.437</hdop><vdop>7.062</vdop><extensions><gom:speed>0.134</gom:speed></extensions></trkpt>
   <trkpt lat="59.0640919676" lon="30.0306241423"><ele>89.173</ele><time>2026-04-20T18:46:23.058Z</time><hdop>7.625</hdop><vdop>6.937</vdop><extensions><gom:speed>0.141</gom:speed></extensions></trkpt>
   <trkpt lat="59.0640926801" lon="30.0306254834"><ele>89.191</ele><time>2026-04-20T18:46:23.780Z</time><hdop>7.75</hdop><vdop>6.937</vdop><extensions><gom:speed>0.135</gom:speed></extensions></trkpt>
   <trkpt lat="59.0640937697" lon="30.0306304288"><ele>90.362</ele><time>2026-04-20T18:46:24.352Z</time><hdop>7.687</hdop><vdop>4.75</vdop><extensions><gom:speed>0.161</gom:speed></extensions></trkpt>
   <trkpt lat="59.0640957814" lon="30.0306365476"><ele>88.457</ele><time>2026-04-20T18:46:25.075Z</time><hdop>7.562</hdop><vdop>4.375</vdop><extensions><gom:speed>0.172</gom:speed></extensions></trkpt>
   <trkpt lat="59.064097793" lon="30.0306447618"><ele>87.335</ele><time>2026-04-20T18:46:26.075Z</time><hdop>7.375</hdop><vdop>4.125</vdop><extensions><gom:speed>0.134</gom:speed></extensions></trkpt>
   <trkpt lat="59.064099679" lon="30.0306530599"><ele>86.217</ele><time>2026-04-20T18:46:27.075Z</time><hdop>7.062</hdop><vdop>3.937</vdop><extensions><gom:speed>0.124</gom:speed></extensions></trkpt>
   <trkpt lat="59.0641013973" lon="30.030660436"><ele>86.479</ele><time>2026-04-20T18:46:28.076Z</time><hdop>6.687</hdop><vdop>8.0</vdop><extensions><gom:speed>0.13</gom:speed></extensions></trkpt>
   <trkpt lat="59.0641026965" lon="30.0306674768"><ele>87.005</ele><time>2026-04-20T18:46:29.076Z</time><hdop>6.062</hdop><vdop>8.25</vdop><extensions><gom:speed>0.142</gom:speed></extensions></trkpt>
   <trkpt lat="59.0641041633" lon="30.0306746852"><ele>87.564</ele><time>2026-04-20T18:46:30.075Z</time><hdop>5.562</hdop><vdop>8.312</vdop><extensions><gom:speed>0.108</gom:speed></extensions></trkpt>
   <trkpt lat="59.0641037861" lon="30.0306766969"><ele>87.899</ele><time>2026-04-20T18:46:30.561Z</time><hdop>5.375</hdop><vdop>8.312</vdop><extensions><gom:speed>0.069</gom:speed></extensions></trkpt>
   <trkpt lat="59.0641035766" lon="30.0306782894"><ele>87.747</ele><time>2026-04-20T18:46:31.231Z</time><hdop>5.375</hdop><vdop>8.187</vdop><extensions><gom:speed>0.1</gom:speed></extensions></trkpt>
   <trkpt lat="59.0641051691" lon="30.0306857493"><ele>88.155</ele><time>2026-04-20T18:46:32.076Z</time><hdop>5.25</hdop><vdop>7.75</vdop><extensions><gom:speed>0.126</gom:speed></extensions></trkpt>
   <trkpt lat="59.0641063845" lon="30.0306901917"><ele>88.344</ele><time>2026-04-20T18:46:33.007Z</time><hdop>5.187</hdop><vdop>7.312</vdop><extensions><gom:speed>0.114</gom:speed></extensions></trkpt>
   <trkpt lat="59.0641072646" lon="30.0306912814"><ele>88.457</ele><time>2026-04-20T18:46:33.495Z</time><hdop>5.187</hdop><vdop>7.312</vdop><extensions><gom:speed>0.118</gom:speed></extensions></trkpt>
   <trkpt lat="59.0641091924" lon="30.0306982384"><ele>88.091</ele><time>2026-04-20T18:46:34.075Z</time><hdop>5.125</hdop><vdop>5.687</vdop><extensions><gom:speed>0.138</gom:speed></extensions></trkpt>
   <trkpt lat="59.0641100725" lon="30.0307010882"><ele>87.873</ele><time>2026-04-20T18:46:34.599Z</time><hdop>5.125</hdop><vdop>5.687</vdop><extensions><gom:speed>0.122</gom:speed></extensions></trkpt>
   <trkpt lat="59.0641111622" lon="30.0307073746"><ele>86.3</ele><time>2026-04-20T18:46:35.075Z</time><hdop>5.062</hdop><vdop>4.875</vdop><extensions><gom:speed>0.151</gom:speed></extensions></trkpt>
   <trkpt lat="59.0641123776" lon="30.0307124876"><ele>85.36</ele><time>2026-04-20T18:46:35.753Z</time><hdop>5.0</hdop><vdop>4.875</vdop><extensions><gom:speed>0.165</gom:speed></extensions></trkpt>
   <trkpt lat="59.0641139701" lon="30.0307265692"><ele>84.559</ele><time>2026-04-20T18:46:36.957Z</time><hdop>4.937</hdop><vdop>4.375</vdop><extensions><gom:speed>0.22</gom:speed></extensions></trkpt>
   <trkpt lat="59.0641122937" lon="30.0307425786"><ele>84.343</ele><time>2026-04-20T18:46:37.619Z</time><hdop>4.75</hdop><vdop>3.75</vdop><extensions><gom:speed>0.298</gom:speed></extensions></trkpt>
   <trkpt lat="59.0641110784" lon="30.0307496194"><ele>83.607</ele><time>2026-04-20T18:46:38.075Z</time><hdop>4.75</hdop><vdop>3.625</vdop><extensions><gom:speed>0.308</gom:speed></extensions></trkpt>
   <trkpt lat="59.0641089829" lon="30.0307534751"><ele>82.744</ele><time>2026-04-20T18:46:39.075Z</time><hdop>4.625</hdop><vdop>3.375</vdop><extensions><gom:speed>0.221</gom:speed></extensions></trkpt>
   <trkpt lat="59.0641079771" lon="30.0307560735"><ele>82.063</ele><time>2026-04-20T18:46:40.075Z</time><hdop>4.437</hdop><vdop>3.187</vdop><extensions><gom:speed>0.127</gom:speed></extensions></trkpt>
   <trkpt lat="59.0641066779" lon="30.0307601806"><ele>81.989</ele><time>2026-04-20T18:46:41.075Z</time><hdop>4.312</hdop><vdop>3.125</vdop><extensions><gom:speed>0.093</gom:speed></extensions></trkpt>
   <trkpt lat="59.064105672" lon="30.0307647907"><ele>82.185</ele><time>2026-04-20T18:46:42.075Z</time><hdop>4.187</hdop><vdop>3.062</vdop><extensions><gom:speed>0.078</gom:speed></extensions></trkpt>
   <trkpt lat="59.0641043728" lon="30.0307699875"><ele>82.485</ele><time>2026-04-20T18:46:43.075Z</time><hdop>4.062</hdop><vdop>2.875</vdop><extensions><gom:speed>0.105</gom:speed></extensions></trkpt>
   <trkpt lat="59.0641043728" lon="30.0307700713"><ele>82.665</ele><time>2026-04-20T18:46:43.549Z</time><hdop>4.0</hdop><vdop>2.875</vdop><extensions><gom:speed>0.06</gom:speed></extensions></trkpt>
   <trkpt lat="59.0641038699" lon="30.0307747651"><ele>83.181</ele><time>2026-04-20T18:46:44.075Z</time><hdop>3.937</hdop><vdop>2.812</vdop><extensions><gom:speed>0.088</gom:speed></extensions></trkpt>
   <trkpt lat="59.064103367" lon="30.0307795428"><ele>83.622</ele><time>2026-04-20T18:46:45.075Z</time><hdop>3.875</hdop><vdop>2.75</vdop><extensions><gom:speed>0.109</gom:speed></extensions></trkpt>
   <trkpt lat="59.0641016906" lon="30.0307833985"><ele>84.042</ele><time>2026-04-20T18:46:46.076Z</time><hdop>3.875</hdop><vdop>2.812</vdop><extensions><gom:speed>0.124</gom:speed></extensions></trkpt>
   <trkpt lat="59.0641005591" lon="30.0307866674"><ele>84.376</ele><time>2026-04-20T18:46:47.075Z</time><hdop>3.812</hdop><vdop>2.75</vdop><extensions><gom:speed>0.11</gom:speed></extensions></trkpt>
   <trkpt lat="59.0641001819" lon="30.0307918642"><ele>84.791</ele><time>2026-04-20T18:46:48.075Z</time><hdop>3.812</hdop><vdop>2.75</vdop><extensions><gom:speed>0.089</gom:speed></extensions></trkpt>
   <trkpt lat="59.0640999723" lon="30.030797061"><ele>85.468</ele><time>2026-04-20T18:46:49.075Z</time><hdop>3.75</hdop><vdop>2.625</vdop><extensions><gom:speed>0.073</gom:speed></extensions></trkpt>
   <trkpt lat="59.0640995951" lon="30.0307976477"><ele>85.873</ele><time>2026-04-20T18:46:49.709Z</time><hdop>3.75</hdop><vdop>2.625</vdop><extensions><gom:speed>0.071</gom:speed></extensions></trkpt>
   <trkpt lat="59.0640979607" lon="30.0308047724"><ele>86.73</ele><time>2026-04-20T18:46:51.076Z</time><hdop>3.625</hdop><vdop>2.625</vdop><extensions><gom:speed>0.067</gom:speed></extensions></trkpt>
   <trkpt lat="59.0640978769" lon="30.0308078737"><ele>87.15</ele><time>2026-04-20T18:46:52.075Z</time><hdop>3.625</hdop><vdop>2.625</vdop><extensions><gom:speed>0.079</gom:speed></extensions></trkpt>
   <trkpt lat="59.064097793" lon="30.0308097177"><ele>86.87</ele><time>2026-04-20T18:46:53.075Z</time><hdop>3.625</hdop><vdop>2.687</vdop><extensions><gom:speed>0.088</gom:speed></extensions></trkpt>
   <trkpt lat="59.0640978769" lon="30.0308119808"><ele>86.235</ele><time>2026-04-20T18:46:54.075Z</time><hdop>3.625</hdop><vdop>2.812</vdop><extensions><gom:speed>0.11</gom:speed></extensions></trkpt>
   <trkpt lat="59.0640987989" lon="30.030813741"><ele>85.507</ele><time>2026-04-20T18:46:55.075Z</time><hdop>3.625</hdop><vdop>2.75</vdop><extensions><gom:speed>0.079</gom:speed></extensions></trkpt>
   <trkpt lat="59.0640989665" lon="30.0308141601"><ele>85.073</ele><time>2026-04-20T18:46:55.869Z</time><hdop>3.687</hdop><vdop>2.75</vdop><extensions><gom:speed>0.075</gom:speed></extensions></trkpt>
   <trkpt lat="59.0641009782" lon="30.0308178481"><ele>84.232</ele><time>2026-04-20T18:46:57.075Z</time><hdop>3.75</hdop><vdop>2.5</vdop><extensions><gom:speed>0.179</gom:speed></extensions></trkpt>
   <trkpt lat="59.0641029898" lon="30.0308189378"><ele>83.526</ele><time>2026-04-20T18:46:58.076Z</time><hdop>3.75</hdop><vdop>2.5</vdop><extensions><gom:speed>0.321</gom:speed></extensions></trkpt>
   <trkpt lat="59.0641059654" lon="30.030820698"><ele>83.092</ele><time>2026-04-20T18:46:59.075Z</time><hdop>3.812</hdop><vdop>2.5</vdop><extensions><gom:speed>0.271</gom:speed></extensions></trkpt>
   <trkpt lat="59.0641074741" lon="30.0308244698"><ele>82.855</ele><time>2026-04-20T18:47:00.075Z</time><hdop>3.812</hdop><vdop>7.75</vdop><extensions><gom:speed>0.281</gom:speed></extensions></trkpt>
   <trkpt lat="59.0641082704" lon="30.0308277388"><ele>82.601</ele><time>2026-04-20T18:47:01.076Z</time><hdop>3.875</hdop><vdop>7.375</vdop><extensions><gom:speed>0.274</gom:speed></extensions></trkpt>
   <trkpt lat="59.0641095696" lon="30.030829499"><ele>82.517</ele><time>2026-04-20T18:47:02.075Z</time><hdop>3.937</hdop><vdop>7.125</vdop><extensions><gom:speed>0.258</gom:speed></extensions></trkpt>
   <trkpt lat="59.064110785" lon="30.0308308401"><ele>82.382</ele><time>2026-04-20T18:47:03.075Z</time><hdop>4.0</hdop><vdop>7.062</vdop><extensions><gom:speed>0.259</gom:speed></extensions></trkpt>
   <trkpt lat="59.0641118746" lon="30.030831343"><ele>82.115</ele><time>2026-04-20T18:47:04.075Z</time><hdop>4.125</hdop><vdop>7.125</vdop><extensions><gom:speed>0.252</gom:speed></extensions></trkpt>
   <trkpt lat="59.0641129643" lon="30.0308309239"><ele>81.786</ele><time>2026-04-20T18:47:05.075Z</time><hdop>4.25</hdop><vdop>7.062</vdop><extensions><gom:speed>0.24</gom:speed></extensions></trkpt>
   <trkpt lat="59.0641141797" lon="30.0308298342"><ele>81.5</ele><time>2026-04-20T18:47:06.076Z</time><hdop>4.312</hdop><vdop>7.125</vdop><extensions><gom:speed>0.239</gom:speed></extensions></trkpt>
   <trkpt lat="59.064115395" lon="30.0308290799"><ele>81.282</ele><time>2026-04-20T18:47:07.076Z</time><hdop>4.375</hdop><vdop>7.375</vdop><extensions><gom:speed>0.238</gom:speed></extensions></trkpt>
   <trkpt lat="59.0641162751" lon="30.030828577"><ele>81.088</ele><time>2026-04-20T18:47:08.076Z</time><hdop>4.437</hdop><vdop>7.062</vdop><extensions><gom:speed>0.247</gom:speed></extensions></trkpt>
   <trkpt lat="59.0641173648" lon="30.0308284931"><ele>80.85</ele><time>2026-04-20T18:47:09.075Z</time><hdop>4.437</hdop><vdop>6.937</vdop><extensions><gom:speed>0.243</gom:speed></extensions></trkpt>
   <trkpt lat="59.0641180772" lon="30.0308281579"><ele>80.747</ele><time>2026-04-20T18:47:10.075Z</time><hdop>4.5</hdop><vdop>7.25</vdop><extensions><gom:speed>0.247</gom:speed></extensions></trkpt>
   <trkpt lat="59.0641187897" lon="30.0308276549"><ele>80.736</ele><time>2026-04-20T18:47:11.075Z</time><hdop>4.5</hdop><vdop>7.0</vdop><extensions><gom:speed>0.245</gom:speed></extensions></trkpt>
   <trkpt lat="59.0641193764" lon="30.0308269844"><ele>80.798</ele><time>2026-04-20T18:47:12.075Z</time><hdop>4.562</hdop><vdop>6.562</vdop><extensions><gom:speed>0.24</gom:speed></extensions></trkpt>
   <trkpt lat="59.0641198794" lon="30.0308259786"><ele>80.866</ele><time>2026-04-20T18:47:13.075Z</time><hdop>4.625</hdop><vdop>6.437</vdop><extensions><gom:speed>0.241</gom:speed></extensions></trkpt>
   <trkpt lat="59.0641204661" lon="30.0308248889"><ele>80.948</ele><time>2026-04-20T18:47:14.075Z</time><hdop>4.687</hdop><vdop>6.187</vdop><extensions><gom:speed>0.242</gom:speed></extensions></trkpt>
   <trkpt lat="59.0641215976" lon="30.0308238831"><ele>80.997</ele><time>2026-04-20T18:47:14.941Z</time><hdop>4.812</hdop><vdop>6.187</vdop><extensions><gom:speed>0.243</gom:speed></extensions></trkpt>
   <trkpt lat="59.0641219748" lon="30.0308233802"><ele>81.047</ele><time>2026-04-20T18:47:15.920Z</time><hdop>4.875</hdop><vdop>6.187</vdop><extensions><gom:speed>0.251</gom:speed></extensions></trkpt>
   <trkpt lat="59.0641224777" lon="30.0308233802"><ele>81.085</ele><time>2026-04-20T18:47:16.797Z</time><hdop>4.937</hdop><vdop>6.312</vdop><extensions><gom:speed>0.256</gom:speed></extensions></trkpt>
   <trkpt lat="59.0641230645" lon="30.030822542"><ele>81.114</ele><time>2026-04-20T18:47:17.579Z</time><hdop>5.0</hdop><vdop>6.437</vdop><extensions><gom:speed>0.27</gom:speed></extensions></trkpt>
   <trkpt lat="59.0641231902" lon="30.0308223743"><ele>81.207</ele><time>2026-04-20T18:47:18.076Z</time><hdop>5.0</hdop><vdop>6.187</vdop><extensions><gom:speed>0.266</gom:speed></extensions></trkpt>
   <trkpt lat="59.064124196" lon="30.0308223743"><ele>81.262</ele><time>2026-04-20T18:47:18.939Z</time><hdop>5.062</hdop><vdop>6.187</vdop><extensions><gom:speed>0.265</gom:speed></extensions></trkpt>
   <trkpt lat="59.0641250761" lon="30.03082162"><ele>81.341</ele><time>2026-04-20T18:47:19.778Z</time><hdop>5.187</hdop><vdop>6.312</vdop><extensions><gom:speed>0.261</gom:speed></extensions></trkpt>
   <trkpt lat="59.064125579" lon="30.0308210332"><ele>81.445</ele><time>2026-04-20T18:47:20.321Z</time><hdop>5.312</hdop><vdop>6.75</vdop><extensions><gom:speed>0.271</gom:speed></extensions></trkpt>
   <trkpt lat="59.0641263753" lon="30.0308185187"><ele>81.508</ele><time>2026-04-20T18:47:21.061Z</time><hdop>5.375</hdop><vdop>6.75</vdop><extensions><gom:speed>0.239</gom:speed></extensions></trkpt>
   <trkpt lat="59.0641278841" lon="30.0308162556"><ele>81.562</ele><time>2026-04-20T18:47:21.674Z</time><hdop>5.5</hdop><vdop>7.0</vdop><extensions><gom:speed>0.283</gom:speed></extensions></trkpt>
   <trkpt lat="59.0641300634" lon="30.0308138248"><ele>81.614</ele><time>2026-04-20T18:47:22.581Z</time><hdop>5.812</hdop><vdop>6.875</vdop><extensions><gom:speed>0.341</gom:speed></extensions></trkpt>
   <trkpt lat="59.0641333742" lon="30.0308132381"><ele>81.662</ele><time>2026-04-20T18:47:23.941Z</time><hdop>6.125</hdop><vdop>7.125</vdop><extensions><gom:speed>0.357</gom:speed></extensions></trkpt>
   <trkpt lat="59.0641341705" lon="30.0308158365"><ele>81.69</ele><time>2026-04-20T18:47:24.883Z</time><hdop>6.562</hdop><vdop>7.125</vdop><extensions><gom:speed>0.324</gom:speed></extensions></trkpt>
   <trkpt lat="59.0641342962" lon="30.0308161717"><ele>81.721</ele><time>2026-04-20T18:47:25.553Z</time><hdop>6.875</hdop><vdop>6.875</vdop><extensions><gom:speed>0.281</gom:speed></extensions></trkpt>
   <trkpt lat="59.0641349668" lon="30.0308144954"><ele>81.754</ele><time>2026-04-20T18:47:26.332Z</time><hdop>7.125</hdop><vdop>6.562</vdop><extensions><gom:speed>0.291</gom:speed></extensions></trkpt>
   <trkpt lat="59.0641350925" lon="30.0308136572"><ele>81.773</ele><time>2026-04-20T18:47:26.785Z</time><hdop>7.125</hdop><vdop>6.562</vdop><extensions><gom:speed>0.293</gom:speed></extensions></trkpt>
   <trkpt lat="59.0641373975" lon="30.0308050238"><ele>81.79</ele><time>2026-04-20T18:47:27.962Z</time><hdop>7.437</hdop><vdop>6.25</vdop><extensions><gom:speed>0.334</gom:speed></extensions></trkpt>
   <trkpt lat="59.064138571" lon="30.0308005814"><ele>81.805</ele><time>2026-04-20T18:47:28.534Z</time><hdop>7.625</hdop><vdop>6.0</vdop><extensions><gom:speed>0.426</gom:speed></extensions></trkpt>
   <trkpt lat="59.0641397864" lon="30.030796139"><ele>81.816</ele><time>2026-04-20T18:47:29.035Z</time><hdop>7.687</hdop><vdop>5.812</vdop><extensions><gom:speed>0.464</gom:speed></extensions></trkpt>
   <trkpt lat="59.0641444802" lon="30.0307834823"><ele>81.824</ele><time>2026-04-20T18:47:29.982Z</time><hdop>8.062</hdop><vdop>5.687</vdop><extensions><gom:speed>0.641</gom:speed></extensions></trkpt>
   <trkpt lat="59.0641493837" lon="30.030770658"><ele>81.832</ele><time>2026-04-20T18:47:31.048Z</time><hdop>8.625</hdop><vdop>5.562</vdop><extensions><gom:speed>0.708</gom:speed></extensions></trkpt>
   <trkpt lat="59.0641540775" lon="30.0307566602"><ele>81.838</ele><time>2026-04-20T18:47:31.996Z</time><hdop>9.437</hdop><vdop>5.625</vdop><extensions><gom:speed>0.762</gom:speed></extensions></trkpt>
   <trkpt lat="59.0641563825" lon="30.0307519664"><ele>81.842</ele><time>2026-04-20T18:47:32.944Z</time><hdop>9.687</hdop><vdop>5.625</vdop><extensions><gom:speed>0.741</gom:speed></extensions></trkpt>
   <trkpt lat="59.0641637586" lon="30.0307306763"><ele>81.849</ele><time>2026-04-20T18:47:33.856Z</time><hdop>10.5</hdop><vdop>5.625</vdop><extensions><gom:speed>0.73</gom:speed></extensions></trkpt>
   <trkpt lat="59.0641680753" lon="30.0307210371"><ele>81.86</ele><time>2026-04-20T18:47:34.637Z</time><hdop>11.0</hdop><vdop>5.687</vdop><extensions><gom:speed>0.746</gom:speed></extensions></trkpt>
   <trkpt lat="59.0641739845" lon="30.0307102245"><ele>81.867</ele><time>2026-04-20T18:47:35.514Z</time><hdop>11.437</hdop><vdop>5.75</vdop><extensions><gom:speed>0.814</gom:speed></extensions></trkpt>
   <trkpt lat="59.0641778821" lon="30.0307036866"><ele>81.872</ele><time>2026-04-20T18:47:36.023Z</time><hdop>11.5</hdop><vdop>6.062</vdop><extensions><gom:speed>0.818</gom:speed></extensions></trkpt>
   <trkpt lat="59.064184881" lon="30.0306916167"><ele>81.876</ele><time>2026-04-20T18:47:36.993Z</time><hdop>11.937</hdop><vdop>6.062</vdop><extensions><gom:speed>0.854</gom:speed></extensions></trkpt>
   <trkpt lat="59.0641904969" lon="30.030681726"><ele>81.887</ele><time>2026-04-20T18:47:37.813Z</time><hdop>12.187</hdop><vdop>6.312</vdop><extensions><gom:speed>0.854</gom:speed></extensions></trkpt>
   <trkpt lat="59.0641882757" lon="30.0307029322"><ele>78.829</ele><time>2026-04-20T18:47:38.616Z</time><hdop>11.812</hdop><vdop>5.375</vdop><extensions><gom:speed>0.784</gom:speed></extensions></trkpt>
   <trkpt lat="59.064187689" lon="30.0307182711"><ele>77.252</ele><time>2026-04-20T18:47:39.075Z</time><hdop>11.437</hdop><vdop>4.625</vdop><extensions><gom:speed>0.752</gom:speed></extensions></trkpt>
   <trkpt lat="59.0641910836" lon="30.0307224621"><ele>76.311</ele><time>2026-04-20T18:47:40.033Z</time><hdop>10.625</hdop><vdop>4.625</vdop><extensions><gom:speed>0.617</gom:speed></extensions></trkpt>
   <trkpt lat="59.0641911674" lon="30.0307313469"><ele>76.164</ele><time>2026-04-20T18:47:40.853Z</time><hdop>9.687</hdop><vdop>4.437</vdop><extensions><gom:speed>0.611</gom:speed></extensions></trkpt>
   <trkpt lat="59.0641965738" lon="30.0307310954"><ele>76.495</ele><time>2026-04-20T18:47:42.075Z</time><hdop>8.062</hdop><vdop>4.062</vdop><extensions><gom:speed>0.556</gom:speed></extensions></trkpt>
   <trkpt lat="59.0641996751" lon="30.0307248928"><ele>76.693</ele><time>2026-04-20T18:47:43.054Z</time><hdop>7.125</hdop><vdop>4.062</vdop><extensions><gom:speed>0.508</gom:speed></extensions></trkpt>
   <trkpt lat="59.0642045785" lon="30.0307190255"><ele>76.657</ele><time>2026-04-20T18:47:44.075Z</time><hdop>6.25</hdop><vdop>4.062</vdop><extensions><gom:speed>0.449</gom:speed></extensions></trkpt>
   <trkpt lat="59.0642076798" lon="30.0307162595"><ele>77.24</ele><time>2026-04-20T18:47:45.075Z</time><hdop>5.75</hdop><vdop>4.0</vdop><extensions><gom:speed>0.357</gom:speed></extensions></trkpt>
   <trkpt lat="59.0642100686" lon="30.03071693"><ele>78.277</ele><time>2026-04-20T18:47:46.075Z</time><hdop>5.25</hdop><vdop>4.0</vdop><extensions><gom:speed>0.262</gom:speed></extensions></trkpt>
   <trkpt lat="59.0642106973" lon="30.0307193608"><ele>78.896</ele><time>2026-04-20T18:47:46.601Z</time><hdop>5.062</hdop><vdop>4.0</vdop><extensions><gom:speed>0.2</gom:speed></extensions></trkpt>
   <trkpt lat="59.0642123737" lon="30.0307194446"><ele>79.08</ele><time>2026-04-20T18:47:47.075Z</time><hdop>4.937</hdop><vdop>6.812</vdop><extensions><gom:speed>0.213</gom:speed></extensions></trkpt>
   <trkpt lat="59.0642137986" lon="30.0307199475"><ele>79.19</ele><time>2026-04-20T18:47:47.812Z</time><hdop>4.75</hdop><vdop>6.812</vdop><extensions><gom:speed>0.175</gom:speed></extensions></trkpt>
   <trkpt lat="59.0642196659" lon="30.0307166786"><ele>78.959</ele><time>2026-04-20T18:47:49.075Z</time><hdop>4.5</hdop><vdop>7.0</vdop><extensions><gom:speed>0.187</gom:speed></extensions></trkpt>
   <trkpt lat="59.0642213842" lon="30.0307158404"><ele>79.054</ele><time>2026-04-20T18:47:50.002Z</time><hdop>4.437</hdop><vdop>6.75</vdop><extensions><gom:speed>0.18</gom:speed></extensions></trkpt>
   <trkpt lat="59.0642230606" lon="30.0307147507"><ele>79.111</ele><time>2026-04-20T18:47:51.042Z</time><hdop>4.437</hdop><vdop>6.75</vdop><extensions><gom:speed>0.239</gom:speed></extensions></trkpt>
   <trkpt lat="59.064225659" lon="30.0307116494"><ele>79.118</ele><time>2026-04-20T18:47:51.541Z</time><hdop>4.5</hdop><vdop>6.437</vdop><extensions><gom:speed>0.267</gom:speed></extensions></trkpt>
   <trkpt lat="59.0642299757" lon="30.0307055306"><ele>78.869</ele><time>2026-04-20T18:47:52.015Z</time><hdop>4.562</hdop><vdop>6.125</vdop><extensions><gom:speed>0.335</gom:speed></extensions></trkpt>
   <trkpt lat="59.0642335799" lon="30.03070025"><ele>78.72</ele><time>2026-04-20T18:47:52.679Z</time><hdop>4.687</hdop><vdop>6.125</vdop><extensions><gom:speed>0.461</gom:speed></extensions></trkpt>
   <trkpt lat="59.0642373936" lon="30.0306951371"><ele>78.67</ele><time>2026-04-20T18:47:53.380Z</time><hdop>4.875</hdop><vdop>5.875</vdop><extensions><gom:speed>0.491</gom:speed></extensions></trkpt>
   <trkpt lat="59.0642417941" lon="30.030690527"><ele>78.443</ele><time>2026-04-20T18:47:54.028Z</time><hdop>5.0</hdop><vdop>5.625</vdop><extensions><gom:speed>0.552</gom:speed></extensions></trkpt>
   <trkpt lat="59.0642490864" lon="30.030684995"><ele>78.278</ele><time>2026-04-20T18:47:54.976Z</time><hdop>5.25</hdop><vdop>5.437</vdop><extensions><gom:speed>0.608</gom:speed></extensions></trkpt>
   <trkpt lat="59.0642526906" lon="30.0306820613"><ele>78.179</ele><time>2026-04-20T18:47:55.620Z</time><hdop>5.5</hdop><vdop>5.437</vdop><extensions><gom:speed>0.578</gom:speed></extensions></trkpt>
   <trkpt lat="59.0642584741" lon="30.0306763616"><ele>77.922</ele><time>2026-04-20T18:47:56.933Z</time><hdop>5.937</hdop><vdop>5.437</vdop><extensions><gom:speed>0.522</gom:speed></extensions></trkpt>
   <trkpt lat="59.0642596895" lon="30.030675691"><ele>77.792</ele><time>2026-04-20T18:47:57.497Z</time><hdop>6.187</hdop><vdop>5.5</vdop><extensions><gom:speed>0.46</gom:speed></extensions></trkpt>
   <trkpt lat="59.0642618688" lon="30.0306792953"><ele>77.806</ele><time>2026-04-20T18:47:58.076Z</time><hdop>6.312</hdop><vdop>5.687</vdop><extensions><gom:speed>0.433</gom:speed></extensions></trkpt>
   <trkpt lat="59.0642616592" lon="30.0306813907"><ele>77.815</ele><time>2026-04-20T18:47:59.057Z</time><hdop>6.5</hdop><vdop>5.687</vdop><extensions><gom:speed>0.351</gom:speed></extensions></trkpt>
   <trkpt lat="59.0642637966" lon="30.0306787923"><ele>77.961</ele><time>2026-04-20T18:47:59.858Z</time><hdop>6.625</hdop><vdop>5.812</vdop><extensions><gom:speed>0.367</gom:speed></extensions></trkpt>
   <trkpt lat="59.0642697897" lon="30.0306736794"><ele>78.173</ele><time>2026-04-20T18:48:00.921Z</time><hdop>6.812</hdop><vdop>5.875</vdop><extensions><gom:speed>0.456</gom:speed></extensions></trkpt>
   <trkpt lat="59.064274274" lon="30.0306755234"><ele>78.439</ele><time>2026-04-20T18:48:01.965Z</time><hdop>6.875</hdop><vdop>5.625</vdop><extensions><gom:speed>0.467</gom:speed></extensions></trkpt>
   <trkpt lat="59.0642763695" lon="30.0306764454"><ele>78.661</ele><time>2026-04-20T18:48:03.032Z</time><hdop>7.0</hdop><vdop>5.562</vdop><extensions><gom:speed>0.372</gom:speed></extensions></trkpt>
   <trkpt lat="59.0642723881" lon="30.030679882"><ele>78.793</ele><time>2026-04-20T18:48:03.860Z</time><hdop>7.0</hdop><vdop>5.562</vdop><extensions><gom:speed>0.271</gom:speed></extensions></trkpt>
   <trkpt lat="59.0642644672" lon="30.0306896888"><ele>78.986</ele><time>2026-04-20T18:48:05.075Z</time><hdop>7.0</hdop><vdop>5.437</vdop><extensions><gom:speed>0.093</gom:speed></extensions></trkpt>
   <trkpt lat="59.0642602762" lon="30.0306929578"><ele>79.153</ele><time>2026-04-20T18:48:05.992Z</time><hdop>6.75</hdop><vdop>5.25</vdop><extensions><gom:speed>0.079</gom:speed></extensions></trkpt>
   <trkpt lat="59.0642581808" lon="30.0306954723"><ele>79.263</ele><time>2026-04-20T18:48:06.940Z</time><hdop>6.687</hdop><vdop>5.062</vdop><extensions><gom:speed>0.065</gom:speed></extensions></trkpt>
   <trkpt lat="59.0642579712" lon="30.030696562"><ele>79.342</ele><time>2026-04-20T18:48:08.006Z</time><hdop>6.437</hdop><vdop>4.875</vdop><extensions><gom:speed>0.068</gom:speed></extensions></trkpt>
   <trkpt lat="59.0642578874" lon="30.0306977354"><ele>79.389</ele><time>2026-04-20T18:48:08.877Z</time><hdop>6.25</hdop><vdop>4.875</vdop><extensions><gom:speed>0.099</gom:speed></extensions></trkpt>
   <trkpt lat="59.0642629584" lon="30.0306976516"><ele>80.415</ele><time>2026-04-20T18:48:09.618Z</time><hdop>6.0</hdop><vdop>3.75</vdop><extensions><gom:speed>0.069</gom:speed></extensions></trkpt>
   <trkpt lat="59.0642685743" lon="30.0306954723"><ele>80.946</ele><time>2026-04-20T18:48:10.075Z</time><hdop>5.937</hdop><vdop>3.625</vdop><extensions><gom:speed>0.112</gom:speed></extensions></trkpt>
   <trkpt lat="59.0642787583" lon="30.0306921196"><ele>81.812</ele><time>2026-04-20T18:48:11.075Z</time><hdop>5.812</hdop><vdop>3.312</vdop><extensions><gom:speed>0.135</gom:speed></extensions></trkpt>
   <trkpt lat="59.0642820692" lon="30.0306889345"><ele>82.329</ele><time>2026-04-20T18:48:12.016Z</time><hdop>5.687</hdop><vdop>3.312</vdop><extensions><gom:speed>0.152</gom:speed></extensions></trkpt>
   <trkpt lat="59.0642933847" lon="30.0306802173"><ele>82.945</ele><time>2026-04-20T18:48:12.816Z</time><hdop>5.625</hdop><vdop>3.125</vdop><extensions><gom:speed>0.372</gom:speed></extensions></trkpt>
   <trkpt lat="59.0643114897" lon="30.0306631182"><ele>83.65</ele><time>2026-04-20T18:48:13.655Z</time><hdop>5.562</hdop><vdop>2.875</vdop><extensions><gom:speed>0.718</gom:speed></extensions></trkpt>
   <trkpt lat="59.0643274991" lon="30.0306443427"><ele>84.615</ele><time>2026-04-20T18:48:14.558Z</time><hdop>5.5</hdop><vdop>2.75</vdop><extensions><gom:speed>0.793</gom:speed></extensions></trkpt>
   <trkpt lat="59.0643354619" lon="30.0306344521"><ele>85.064</ele><time>2026-04-20T18:48:15.075Z</time><hdop>5.5</hdop><vdop>2.625</vdop><extensions><gom:speed>0.789</gom:speed></extensions></trkpt>
   <trkpt lat="59.0643471966" lon="30.0306195323"><ele>85.177</ele><time>2026-04-20T18:48:16.075Z</time><hdop>5.5</hdop><vdop>2.625</vdop><extensions><gom:speed>0.763</gom:speed></extensions></trkpt>
   <trkpt lat="59.0643587636" lon="30.0306054507"><ele>85.258</ele><time>2026-04-20T18:48:17.076Z</time><hdop>5.625</hdop><vdop>2.687</vdop><extensions><gom:speed>0.777</gom:speed></extensions></trkpt>
   <trkpt lat="59.0643644633" lon="30.0305985775"><ele>85.307</ele><time>2026-04-20T18:48:17.761Z</time><hdop>5.687</hdop><vdop>2.687</vdop><extensions><gom:speed>0.871</gom:speed></extensions></trkpt>
   <trkpt lat="59.06437339" lon="30.0305884354"><ele>85.042</ele><time>2026-04-20T18:48:18.502Z</time><hdop>5.75</hdop><vdop>2.625</vdop><extensions><gom:speed>0.933</gom:speed></extensions></trkpt>
   <trkpt lat="59.0643805985" lon="30.030583071"><ele>84.839</ele><time>2026-04-20T18:48:19.075Z</time><hdop>5.75</hdop><vdop>2.75</vdop><extensions><gom:speed>0.956</gom:speed></extensions></trkpt>
   <trkpt lat="59.0643893995" lon="30.0305727613"><ele>84.718</ele><time>2026-04-20T18:48:19.952Z</time><hdop>5.75</hdop><vdop>2.75</vdop><extensions><gom:speed>0.989</gom:speed></extensions></trkpt>
   <trkpt lat="59.0643987872" lon="30.030568738"><ele>84.934</ele><time>2026-04-20T18:48:20.734Z</time><hdop>5.812</hdop><vdop>2.812</vdop><extensions><gom:speed>0.989</gom:speed></extensions></trkpt>
   <trkpt lat="59.0644088874" lon="30.030568235"><ele>84.697</ele><time>2026-04-20T18:48:21.512Z</time><hdop>5.875</hdop><vdop>2.812</vdop><extensions><gom:speed>0.949</gom:speed></extensions></trkpt>
   <trkpt lat="59.0644158863" lon="30.0305693247"><ele>84.145</ele><time>2026-04-20T18:48:22.075Z</time><hdop>5.937</hdop><vdop>2.937</vdop><extensions><gom:speed>0.939</gom:speed></extensions></trkpt>
   <trkpt lat="59.0644307641" lon="30.0305703305"><ele>83.679</ele><time>2026-04-20T18:48:23.075Z</time><hdop>6.125</hdop><vdop>2.812</vdop><extensions><gom:speed>0.918</gom:speed></extensions></trkpt>
   <trkpt lat="59.0644365896" lon="30.0305692409"><ele>83.401</ele><time>2026-04-20T18:48:23.882Z</time><hdop>6.25</hdop><vdop>2.812</vdop><extensions><gom:speed>0.891</gom:speed></extensions></trkpt>
   <trkpt lat="59.0644453906" lon="30.0305757788"><ele>83.183</ele><time>2026-04-20T18:48:24.683Z</time><hdop>6.375</hdop><vdop>2.687</vdop><extensions><gom:speed>0.873</gom:speed></extensions></trkpt>
   <trkpt lat="59.0644559937" lon="30.0305823166"><ele>82.885</ele><time>2026-04-20T18:48:25.579Z</time><hdop>6.562</hdop><vdop>2.687</vdop><extensions><gom:speed>0.834</gom:speed></extensions></trkpt>
   <trkpt lat="59.0644622801" lon="30.0305866752"><ele>82.634</ele><time>2026-04-20T18:48:26.076Z</time><hdop>6.562</hdop><vdop>2.625</vdop><extensions><gom:speed>0.83</gom:speed></extensions></trkpt>
   <trkpt lat="59.0644737633" lon="30.0305911176"><ele>82.572</ele><time>2026-04-20T18:48:27.075Z</time><hdop>6.625</hdop><vdop>2.687</vdop><extensions><gom:speed>0.819</gom:speed></extensions></trkpt>
   <trkpt lat="59.0644818938" lon="30.0305933808"><ele>82.535</ele><time>2026-04-20T18:48:27.919Z</time><hdop>6.625</hdop><vdop>2.687</vdop><extensions><gom:speed>0.829</gom:speed></extensions></trkpt>
   <trkpt lat="59.0644865876" lon="30.0305978232"><ele>82.583</ele><time>2026-04-20T18:48:28.617Z</time><hdop>6.562</hdop><vdop>2.75</vdop><extensions><gom:speed>0.82</gom:speed></extensions></trkpt>
   <trkpt lat="59.0644963944" lon="30.0306030199"><ele>82.715</ele><time>2026-04-20T18:48:29.075Z</time><hdop>6.437</hdop><vdop>2.75</vdop><extensions><gom:speed>0.796</gom:speed></extensions></trkpt>
   <trkpt lat="59.0645018846" lon="30.0306075462"><ele>82.793</ele><time>2026-04-20T18:48:29.893Z</time><hdop>6.375</hdop><vdop>2.75</vdop><extensions><gom:speed>0.724</gom:speed></extensions></trkpt>
   <trkpt lat="59.064506788" lon="30.0306159281"><ele>83.173</ele><time>2026-04-20T18:48:30.614Z</time><hdop>6.25</hdop><vdop>2.75</vdop><extensions><gom:speed>0.654</gom:speed></extensions></trkpt>
   <trkpt lat="59.064510476" lon="30.030620119"><ele>83.694</ele><time>2026-04-20T18:48:31.075Z</time><hdop>6.187</hdop><vdop>2.75</vdop><extensions><gom:speed>0.643</gom:speed></extensions></trkpt>
   <trkpt lat="59.0645193609" lon="30.0306248967"><ele>84.182</ele><time>2026-04-20T18:48:32.075Z</time><hdop>6.062</hdop><vdop>2.687</vdop><extensions><gom:speed>0.647</gom:speed></extensions></trkpt>
   <trkpt lat="59.0645297963" lon="30.0306248967"><ele>84.281</ele><time>2026-04-20T18:48:33.075Z</time><hdop>5.812</hdop><vdop>2.812</vdop><extensions><gom:speed>0.644</gom:speed></extensions></trkpt>
   <trkpt lat="59.0645371724" lon="30.0306267407"><ele>84.341</ele><time>2026-04-20T18:48:34.099Z</time><hdop>5.687</hdop><vdop>2.812</vdop><extensions><gom:speed>0.576</gom:speed></extensions></trkpt>
   <trkpt lat="59.0645406928" lon="30.0306278304"><ele>84.388</ele><time>2026-04-20T18:48:34.896Z</time><hdop>5.687</hdop><vdop>2.687</vdop><extensions><gom:speed>0.562</gom:speed></extensions></trkpt>
   <trkpt lat="59.0645603903" lon="30.0306311831"><ele>84.432</ele><time>2026-04-20T18:48:36.075Z</time><hdop>5.562</hdop><vdop>2.625</vdop><extensions><gom:speed>0.566</gom:speed></extensions></trkpt>
   <trkpt lat="59.0645663833" lon="30.0306301773"><ele>84.459</ele><time>2026-04-20T18:48:37.039Z</time><hdop>5.5</hdop><vdop>2.625</vdop><extensions><gom:speed>0.524</gom:speed></extensions></trkpt>
   <trkpt lat="59.0645768607" lon="30.0306314346"><ele>84.543</ele><time>2026-04-20T18:48:38.075Z</time><hdop>5.375</hdop><vdop>2.5</vdop><extensions><gom:speed>0.445</gom:speed></extensions></trkpt>
   <trkpt lat="59.0645819737" lon="30.0306324404"><ele>84.703</ele><time>2026-04-20T18:48:39.075Z</time><hdop>5.25</hdop><vdop>2.5</vdop><extensions><gom:speed>0.291</gom:speed></extensions></trkpt>
   <trkpt lat="59.0645848654" lon="30.0306342844"><ele>84.974</ele><time>2026-04-20T18:48:40.075Z</time><hdop>5.125</hdop><vdop>2.5</vdop><extensions><gom:speed>0.145</gom:speed></extensions></trkpt>
   <trkpt lat="59.0645853683" lon="30.0306350388"><ele>85.02</ele><time>2026-04-20T18:48:40.936Z</time><hdop>5.0</hdop><vdop>8.312</vdop><extensions><gom:speed>0.099</gom:speed></extensions></trkpt>
   <trkpt lat="59.0645865837" lon="30.0306356255"><ele>84.977</ele><time>2026-04-20T18:48:42.003Z</time><hdop>4.875</hdop><vdop>8.375</vdop><extensions><gom:speed>0.071</gom:speed></extensions></trkpt>
   <trkpt lat="59.0645886792" lon="30.0306365476"><ele>84.959</ele><time>2026-04-20T18:48:43.075Z</time><hdop>4.937</hdop><vdop>8.312</vdop><extensions><gom:speed>0.109</gom:speed></extensions></trkpt>
   <trkpt lat="59.0645890983" lon="30.0306374696"><ele>84.879</ele><time>2026-04-20T18:48:44.016Z</time><hdop>5.0</hdop><vdop>8.25</vdop><extensions><gom:speed>0.071</gom:speed></extensions></trkpt>
   <trkpt lat="59.064589685" lon="30.0306390621"><ele>84.794</ele><time>2026-04-20T18:48:44.964Z</time><hdop>5.062</hdop><vdop>7.812</vdop><extensions><gom:speed>0.061</gom:speed></extensions></trkpt>
   <trkpt lat="59.064591068" lon="30.0306385592"><ele>84.723</ele><time>2026-04-20T18:48:46.075Z</time><hdop>5.187</hdop><vdop>7.312</vdop><extensions><gom:speed>0.071</gom:speed></extensions></trkpt>
   <trkpt lat="59.0645912776" lon="30.0306385592"><ele>84.545</ele><time>2026-04-20T18:48:46.977Z</time><hdop>5.25</hdop><vdop>7.187</vdop><extensions><gom:speed>0.059</gom:speed></extensions></trkpt>
   <trkpt lat="59.064591068" lon="30.0306391459"><ele>84.372</ele><time>2026-04-20T18:48:48.044Z</time><hdop>5.312</hdop><vdop>7.187</vdop><extensions><gom:speed>0.074</gom:speed></extensions></trkpt>
   <trkpt lat="59.0645909842" lon="30.0306380563"><ele>84.301</ele><time>2026-04-20T18:48:48.991Z</time><hdop>5.375</hdop><vdop>7.125</vdop><extensions><gom:speed>0.064</gom:speed></extensions></trkpt>
   <trkpt lat="59.0645919901" lon="30.0306387269"><ele>84.238</ele><time>2026-04-20T18:48:49.939Z</time><hdop>5.375</hdop><vdop>7.062</vdop><extensions><gom:speed>0.065</gom:speed></extensions></trkpt>
   <trkpt lat="59.0645916967" lon="30.030638643"><ele>84.215</ele><time>2026-04-20T18:48:51.005Z</time><hdop>5.437</hdop><vdop>7.0</vdop><extensions><gom:speed>0.069</gom:speed></extensions></trkpt>
   <trkpt lat="59.0645907747" lon="30.030638643"><ele>84.219</ele><time>2026-04-20T18:48:52.076Z</time><hdop>5.5</hdop><vdop>7.125</vdop><extensions><gom:speed>0.057</gom:speed></extensions></trkpt>
   <trkpt lat="59.064591068" lon="30.0306380563"><ele>84.203</ele><time>2026-04-20T18:48:53.019Z</time><hdop>5.5</hdop><vdop>7.062</vdop><extensions><gom:speed>0.063</gom:speed></extensions></trkpt>
   <trkpt lat="59.0645913614" lon="30.0306388945"><ele>84.193</ele><time>2026-04-20T18:48:53.492Z</time><hdop>5.5</hdop><vdop>7.062</vdop><extensions><gom:speed>0.066</gom:speed></extensions></trkpt>
   <trkpt lat="59.0645922834" lon="30.0306398165"><ele>84.18</ele><time>2026-04-20T18:48:53.966Z</time><hdop>5.562</hdop><vdop>7.375</vdop><extensions><gom:speed>0.07</gom:speed></extensions></trkpt>
   <trkpt lat="59.0645928702" lon="30.0306397327"><ele>84.177</ele><time>2026-04-20T18:48:55.075Z</time><hdop>5.562</hdop><vdop>7.75</vdop><extensions><gom:speed>0.186</gom:speed></extensions></trkpt>
   <trkpt lat="59.0645941693" lon="30.0306392298"><ele>84.16</ele><time>2026-04-20T18:48:56.075Z</time><hdop>5.5</hdop><vdop>7.437</vdop><extensions><gom:speed>0.231</gom:speed></extensions></trkpt>
   <trkpt lat="59.0645955943" lon="30.0306388945"><ele>84.151</ele><time>2026-04-20T18:48:57.075Z</time><hdop>5.437</hdop><vdop>7.125</vdop><extensions><gom:speed>0.236</gom:speed></extensions></trkpt>
   <trkpt lat="59.0645969773" lon="30.0306382239"><ele>84.139</ele><time>2026-04-20T18:48:58.075Z</time><hdop>5.437</hdop><vdop>6.75</vdop><extensions><gom:speed>0.268</gom:speed></extensions></trkpt>
   <trkpt lat="59.0645983603" lon="30.0306379725"><ele>84.128</ele><time>2026-04-20T18:48:59.076Z</time><hdop>5.375</hdop><vdop>6.625</vdop><extensions><gom:speed>0.276</gom:speed></extensions></trkpt>
   <trkpt lat="59.0645988632" lon="30.0306379725"><ele>84.121</ele><time>2026-04-20T18:48:59.652Z</time><hdop>5.312</hdop><vdop>6.625</vdop><extensions><gom:speed>0.277</gom:speed></extensions></trkpt>
   <trkpt lat="59.0646006653" lon="30.030636799"><ele>84.125</ele><time>2026-04-20T18:49:01.075Z</time><hdop>5.187</hdop><vdop>6.5</vdop><extensions><gom:speed>0.292</gom:speed></extensions></trkpt>
   <trkpt lat="59.0646016711" lon="30.0306362961"><ele>84.136</ele><time>2026-04-20T18:49:02.076Z</time><hdop>5.125</hdop><vdop>6.5</vdop><extensions><gom:speed>0.299</gom:speed></extensions></trkpt>
   <trkpt lat="59.064602677" lon="30.0306355417"><ele>84.159</ele><time>2026-04-20T18:49:03.075Z</time><hdop>5.125</hdop><vdop>6.812</vdop><extensions><gom:speed>0.294</gom:speed></extensions></trkpt>
   <trkpt lat="59.064603599" lon="30.0306351226"><ele>84.189</ele><time>2026-04-20T18:49:04.075Z</time><hdop>5.062</hdop><vdop>6.75</vdop><extensions><gom:speed>0.297</gom:speed></extensions></trkpt>
   <trkpt lat="59.0646042695" lon="30.0306347874"><ele>84.23</ele><time>2026-04-20T18:49:05.075Z</time><hdop>5.062</hdop><vdop>6.687</vdop><extensions><gom:speed>0.308</gom:speed></extensions></trkpt>
   <trkpt lat="59.0646047725" lon="30.0306347874"><ele>84.254</ele><time>2026-04-20T18:49:05.812Z</time><hdop>5.125</hdop><vdop>6.687</vdop><extensions><gom:speed>0.308</gom:speed></extensions></trkpt>
   <trkpt lat="59.0646053592" lon="30.0306337815"><ele>84.292</ele><time>2026-04-20T18:49:07.076Z</time><hdop>5.187</hdop><vdop>7.0</vdop><extensions><gom:speed>0.295</gom:speed></extensions></trkpt>
   <trkpt lat="59.0646055687" lon="30.0306328595"><ele>84.329</ele><time>2026-04-20T18:49:08.075Z</time><hdop>5.25</hdop><vdop>7.0</vdop><extensions><gom:speed>0.29</gom:speed></extensions></trkpt>
   <trkpt lat="59.0646057783" lon="30.0306318537"><ele>84.353</ele><time>2026-04-20T18:49:09.075Z</time><hdop>5.25</hdop><vdop>6.75</vdop><extensions><gom:speed>0.299</gom:speed></extensions></trkpt>
   <trkpt lat="59.0646060716" lon="30.0306309317"><ele>84.375</ele><time>2026-04-20T18:49:10.075Z</time><hdop>5.312</hdop><vdop>6.937</vdop><extensions><gom:speed>0.298</gom:speed></extensions></trkpt>
   <trkpt lat="59.0646064907" lon="30.030629842"><ele>84.398</ele><time>2026-04-20T18:49:11.075Z</time><hdop>5.312</hdop><vdop>7.062</vdop><extensions><gom:speed>0.31</gom:speed></extensions></trkpt>
   <trkpt lat="59.0646068679" lon="30.0306297582"><ele>84.411</ele><time>2026-04-20T18:49:11.971Z</time><hdop>5.375</hdop><vdop>7.062</vdop><extensions><gom:speed>0.31</gom:speed></extensions></trkpt>
   <trkpt lat="59.0646071613" lon="30.0306287524"><ele>84.425</ele><time>2026-04-20T18:49:13.075Z</time><hdop>5.437</hdop><vdop>6.687</vdop><extensions><gom:speed>0.304</gom:speed></extensions></trkpt>
   <trkpt lat="59.0646077899" lon="30.030627998"><ele>84.434</ele><time>2026-04-20T18:49:13.723Z</time><hdop>5.562</hdop><vdop>6.687</vdop><extensions><gom:speed>0.304</gom:speed></extensions></trkpt>
   <trkpt lat="59.0646076642" lon="30.030627076"><ele>84.441</ele><time>2026-04-20T18:49:14.481Z</time><hdop>5.625</hdop><vdop>6.25</vdop><extensions><gom:speed>0.3</gom:speed></extensions></trkpt>
   <trkpt lat="59.0646074966" lon="30.0306266569"><ele>84.447</ele><time>2026-04-20T18:49:15.075Z</time><hdop>5.625</hdop><vdop>6.25</vdop><extensions><gom:speed>0.311</gom:speed></extensions></trkpt>
   <trkpt lat="59.064609173" lon="30.0306236394"><ele>84.453</ele><time>2026-04-20T18:49:15.999Z</time><hdop>5.687</hdop><vdop>6.25</vdop><extensions><gom:speed>0.325</gom:speed></extensions></trkpt>
   <trkpt lat="59.0646129867" lon="30.0306177721"><ele>84.459</ele><time>2026-04-20T18:49:17.065Z</time><hdop>5.812</hdop><vdop>6.375</vdop><extensions><gom:speed>0.436</gom:speed></extensions></trkpt>
   <trkpt lat="59.0646195665" lon="30.0306098931"><ele>84.462</ele><time>2026-04-20T18:49:18.074Z</time><hdop>6.125</hdop><vdop>6.375</vdop><extensions><gom:speed>0.586</gom:speed></extensions></trkpt>
   <trkpt lat="59.064630463" lon="30.0305977393"><ele>84.467</ele><time>2026-04-20T18:49:18.796Z</time><hdop>6.625</hdop><vdop>6.687</vdop><extensions><gom:speed>0.767</gom:speed></extensions></trkpt>
   <trkpt lat="59.0646370847" lon="30.0305897765"><ele>84.47</ele><time>2026-04-20T18:49:19.595Z</time><hdop>7.25</hdop><vdop>6.75</vdop><extensions><gom:speed>0.831</gom:speed></extensions></trkpt>
   <trkpt lat="59.0646446703" lon="30.0305832387"><ele>84.477</ele><time>2026-04-20T18:49:20.436Z</time><hdop>7.875</hdop><vdop>6.812</vdop><extensions><gom:speed>0.83</gom:speed></extensions></trkpt>
   <trkpt lat="59.0646494899" lon="30.0305791315"><ele>84.483</ele><time>2026-04-20T18:49:20.975Z</time><hdop>8.062</hdop><vdop>6.562</vdop><extensions><gom:speed>0.83</gom:speed></extensions></trkpt>
   <trkpt lat="59.0646571593" lon="30.0305713363"><ele>84.489</ele><time>2026-04-20T18:49:22.040Z</time><hdop>8.812</hdop><vdop>6.5</vdop><extensions><gom:speed>0.821</gom:speed></extensions></trkpt>
   <trkpt lat="59.0646641582" lon="30.0305637926"><ele>84.492</ele><time>2026-04-20T18:49:22.884Z</time><hdop>9.437</hdop><vdop>6.5</vdop><extensions><gom:speed>0.87</gom:speed></extensions></trkpt>
   <trkpt lat="59.0646673853" lon="30.0305586797"><ele>84.495</ele><time>2026-04-20T18:49:23.352Z</time><hdop>9.812</hdop><vdop>6.562</vdop><extensions><gom:speed>0.885</gom:speed></extensions></trkpt>
   <trkpt lat="59.0646735879" lon="30.0305475317"><ele>84.499</ele><time>2026-04-20T18:49:23.935Z</time><hdop>10.0</hdop><vdop>6.437</vdop><extensions><gom:speed>0.885</gom:speed></extensions></trkpt>
   <trkpt lat="59.0646760605" lon="30.0305413291"><ele>84.502</ele><time>2026-04-20T18:49:24.422Z</time><hdop>10.187</hdop><vdop>6.437</vdop><extensions><gom:speed>0.88</gom:speed></extensions></trkpt>
   <trkpt lat="59.0646801677" lon="30.0305329472"><ele>84.505</ele><time>2026-04-20T18:49:25.002Z</time><hdop>10.312</hdop><vdop>6.375</vdop><extensions><gom:speed>0.88</gom:speed></extensions></trkpt>
   <trkpt lat="59.0646867894" lon="30.0305237271"><ele>84.507</ele><time>2026-04-20T18:49:25.932Z</time><hdop>10.625</hdop><vdop>6.375</vdop><extensions><gom:speed>0.857</gom:speed></extensions></trkpt>
   <trkpt lat="59.0646922795" lon="30.0305204582"><ele>84.509</ele><time>2026-04-20T18:49:26.721Z</time><hdop>10.875</hdop><vdop>6.375</vdop><extensions><gom:speed>0.779</gom:speed></extensions></trkpt>
   <trkpt lat="59.0646973925" lon="30.0305175245"><ele>84.512</ele><time>2026-04-20T18:49:27.452Z</time><hdop>11.062</hdop><vdop>6.312</vdop><extensions><gom:speed>0.743</gom:speed></extensions></trkpt>
   <trkpt lat="59.0647013739" lon="30.030513585"><ele>84.514</ele><time>2026-04-20T18:49:27.963Z</time><hdop>11.187</hdop><vdop>6.187</vdop><extensions><gom:speed>0.747</gom:speed></extensions></trkpt>
   <trkpt lat="59.0647079956" lon="30.0305041973"><ele>84.515</ele><time>2026-04-20T18:49:29.062Z</time><hdop>11.437</hdop><vdop>6.187</vdop><extensions><gom:speed>0.797</gom:speed></extensions></trkpt>
   <trkpt lat="59.0647093786" lon="30.03050294"><ele>84.517</ele><time>2026-04-20T18:49:29.622Z</time><hdop>11.5</hdop><vdop>6.0</vdop><extensions><gom:speed>0.799</gom:speed></extensions></trkpt>
   <trkpt lat="59.0647198979" lon="30.0304877688"><ele>84.519</ele><time>2026-04-20T18:49:30.622Z</time><hdop>11.812</hdop><vdop>6.0</vdop><extensions><gom:speed>0.835</gom:speed></extensions></trkpt>
   <trkpt lat="59.0647254719" lon="30.030483494"><ele>84.523</ele><time>2026-04-20T18:49:31.420Z</time><hdop>12.0</hdop><vdop>6.0</vdop><extensions><gom:speed>0.802</gom:speed></extensions></trkpt>
   <trkpt lat="59.0647297885" lon="30.0304798898"><ele>84.524</ele><time>2026-04-20T18:49:31.990Z</time><hdop>12.062</hdop><vdop>5.875</vdop><extensions><gom:speed>0.795</gom:speed></extensions></trkpt>
   <trkpt lat="59.0647367874" lon="30.030473771"><ele>84.525</ele><time>2026-04-20T18:49:33.020Z</time><hdop>12.312</hdop><vdop>5.875</vdop><extensions><gom:speed>0.846</gom:speed></extensions></trkpt>
   <trkpt lat="59.0647447921" lon="30.0304669817"><ele>84.529</ele><time>2026-04-20T18:49:33.997Z</time><hdop>12.562</hdop><vdop>5.812</vdop><extensions><gom:speed>0.813</gom:speed></extensions></trkpt>
   <trkpt lat="59.0647511624" lon="30.030461282"><ele>84.535</ele><time>2026-04-20T18:49:34.816Z</time><hdop>12.75</hdop><vdop>5.937</vdop><extensions><gom:speed>0.799</gom:speed></extensions></trkpt>
   <trkpt lat="59.0647588737" lon="30.0304542412"><ele>84.54</ele><time>2026-04-20T18:49:35.814Z</time><hdop>13.0</hdop><vdop>5.937</vdop><extensions><gom:speed>0.852</gom:speed></extensions></trkpt>
   <trkpt lat="59.0647654954" lon="30.0304470327"><ele>84.545</ele><time>2026-04-20T18:49:36.614Z</time><hdop>13.25</hdop><vdop>5.937</vdop><extensions><gom:speed>0.843</gom:speed></extensions></trkpt>
   <trkpt lat="59.0647711951" lon="30.0304407463"><ele>84.551</ele><time>2026-04-20T18:49:37.355Z</time><hdop>13.437</hdop><vdop>5.812</vdop><extensions><gom:speed>0.853</gom:speed></extensions></trkpt>
   <trkpt lat="59.0647760986" lon="30.0304346275"><ele>84.557</ele><time>2026-04-20T18:49:38.033Z</time><hdop>13.562</hdop><vdop>5.875</vdop><extensions><gom:speed>0.843</gom:speed></extensions></trkpt>
   <trkpt lat="59.064782385" lon="30.0304267485"><ele>84.56</ele><time>2026-04-20T18:49:38.933Z</time><hdop>13.75</hdop><vdop>5.875</vdop><extensions><gom:speed>0.894</gom:speed></extensions></trkpt>
   <trkpt lat="59.0647887971" lon="30.0304183666"><ele>84.564</ele><time>2026-04-20T18:49:39.764Z</time><hdop>14.0</hdop><vdop>6.187</vdop><extensions><gom:speed>0.916</gom:speed></extensions></trkpt>
   <trkpt lat="59.0647940777" lon="30.0304095656"><ele>84.566</ele><time>2026-04-20T18:49:40.492Z</time><hdop>14.312</hdop><vdop>6.187</vdop><extensions><gom:speed>0.933</gom:speed></extensions></trkpt>
   <trkpt lat="59.0647978915" lon="30.0304026925"><ele>84.568</ele><time>2026-04-20T18:49:40.994Z</time><hdop>14.5</hdop><vdop>6.25</vdop><extensions><gom:speed>0.952</gom:speed></extensions></trkpt>
   <trkpt lat="59.0648042617" lon="30.0303898681"><ele>84.569</ele><time>2026-04-20T18:49:42.014Z</time><hdop>14.875</hdop><vdop>6.25</vdop><extensions><gom:speed>0.945</gom:speed></extensions></trkpt>
   <trkpt lat="59.0647799961" lon="30.0304122478"><ele>84.127</ele><time>2026-04-20T18:49:42.864Z</time><hdop>14.812</hdop><vdop>5.187</vdop><extensions><gom:speed>0.844</gom:speed></extensions></trkpt>
   <trkpt lat="59.0647219934" lon="30.0304919597"><ele>82.969</ele><time>2026-04-20T18:49:43.621Z</time><hdop>13.062</hdop><vdop>4.5</vdop><extensions><gom:speed>0.836</gom:speed></extensions></trkpt>
   <trkpt lat="59.0647190597" lon="30.030502018"><ele>82.681</ele><time>2026-04-20T18:49:44.075Z</time><hdop>12.125</hdop><vdop>4.062</vdop><extensions><gom:speed>0.829</gom:speed></extensions></trkpt>
   <trkpt lat="59.064722161" lon="30.030512663"><ele>82.555</ele><time>2026-04-20T18:49:45.075Z</time><hdop>10.125</hdop><vdop>4.375</vdop><extensions><gom:speed>0.822</gom:speed></extensions></trkpt>
   <trkpt lat="59.0647290761" lon="30.0305151776"><ele>82.48</ele><time>2026-04-20T18:49:45.981Z</time><hdop>8.062</hdop><vdop>4.375</vdop><extensions><gom:speed>0.89</gom:speed></extensions></trkpt>
   <trkpt lat="59.0647358654" lon="30.0305153452"><ele>82.117</ele><time>2026-04-20T18:49:46.780Z</time><hdop>5.937</hdop><vdop>4.062</vdop><extensions><gom:speed>0.897</gom:speed></extensions></trkpt>
   <trkpt lat="59.0647430739" lon="30.0305109866"><ele>81.568</ele><time>2026-04-20T18:49:47.600Z</time><hdop>4.0</hdop><vdop>4.187</vdop><extensions><gom:speed>0.904</gom:speed></extensions></trkpt>
   <trkpt lat="59.0647474744" lon="30.0305085559"><ele>81.454</ele><time>2026-04-20T18:49:48.075Z</time><hdop>3.125</hdop><vdop>4.062</vdop><extensions><gom:speed>0.904</gom:speed></extensions></trkpt>
   <trkpt lat="59.0647591671" lon="30.0305016827"><ele>80.92</ele><time>2026-04-20T18:49:49.075Z</time><hdop>3.0</hdop><vdop>4.125</vdop><extensions><gom:speed>0.949</gom:speed></extensions></trkpt>
   <trkpt lat="59.0647669623" lon="30.0304971565"><ele>80.602</ele><time>2026-04-20T18:49:49.880Z</time><hdop>3.0</hdop><vdop>4.125</vdop><extensions><gom:speed>0.974</gom:speed></extensions></trkpt>
   <trkpt lat="59.0647760986" lon="30.030495983"><ele>80.306</ele><time>2026-04-20T18:49:50.659Z</time><hdop>3.062</hdop><vdop>4.062</vdop><extensions><gom:speed>0.972</gom:speed></extensions></trkpt>
   <trkpt lat="59.0647857797" lon="30.0305004254"><ele>80.315</ele><time>2026-04-20T18:49:51.459Z</time><hdop>3.125</hdop><vdop>4.0</vdop><extensions><gom:speed>0.94</gom:speed></extensions></trkpt>
   <trkpt lat="59.0647928624" lon="30.0305046164"><ele>80.515</ele><time>2026-04-20T18:49:52.075Z</time><hdop>3.187</hdop><vdop>4.062</vdop><extensions><gom:speed>0.929</gom:speed></extensions></trkpt>
   <trkpt lat="59.0648012862" lon="30.0305145909"><ele>80.635</ele><time>2026-04-20T18:49:53.019Z</time><hdop>3.375</hdop><vdop>4.062</vdop><extensions><gom:speed>0.942</gom:speed></extensions></trkpt>
   <trkpt lat="59.0648028787" lon="30.0305292592"><ele>81.053</ele><time>2026-04-20T18:49:53.781Z</time><hdop>3.562</hdop><vdop>3.937</vdop><extensions><gom:speed>0.905</gom:speed></extensions></trkpt>
   <trkpt lat="59.0648024596" lon="30.0305328634"><ele>81.84</ele><time>2026-04-20T18:49:54.260Z</time><hdop>3.562</hdop><vdop>3.5</vdop><extensions><gom:speed>0.889</gom:speed></extensions></trkpt>
   <trkpt lat="59.0648011604" lon="30.0305454363"><ele>82.515</ele><time>2026-04-20T18:49:55.075Z</time><hdop>3.75</hdop><vdop>3.5</vdop><extensions><gom:speed>0.828</gom:speed></extensions></trkpt>
   <trkpt lat="59.0648044713" lon="30.0305561651"><ele>82.919</ele><time>2026-04-20T18:49:55.773Z</time><hdop>3.875</hdop><vdop>3.5</vdop><extensions><gom:speed>0.938</gom:speed></extensions></trkpt>
   <trkpt lat="59.0648164993" lon="30.0305587635"><ele>82.348</ele><time>2026-04-20T18:49:56.572Z</time><hdop>3.937</hdop><vdop>3.562</vdop><extensions><gom:speed>0.942</gom:speed></extensions></trkpt>
   <trkpt lat="59.0648244621" lon="30.0305563327"><ele>81.735</ele><time>2026-04-20T18:49:57.076Z</time><hdop>3.937</hdop><vdop>3.562</vdop><extensions><gom:speed>0.942</gom:speed></extensions></trkpt>
   <trkpt lat="59.0648376636" lon="30.0305501301"><ele>80.491</ele><time>2026-04-20T18:49:58.075Z</time><hdop>3.937</hdop><vdop>3.5</vdop><extensions><gom:speed>0.911</gom:speed></extensions></trkpt>
   <trkpt lat="59.0648464646" lon="30.0305449334"><ele>79.748</ele><time>2026-04-20T18:49:58.942Z</time><hdop>3.937</hdop><vdop>3.5</vdop><extensions><gom:speed>0.923</gom:speed></extensions></trkpt>
   <trkpt lat="59.0648563972" lon="30.0305410777"><ele>79.095</ele><time>2026-04-20T18:49:59.761Z</time><hdop>3.937</hdop><vdop>3.375</vdop><extensions><gom:speed>0.9</gom:speed></extensions></trkpt>
   <trkpt lat="59.0648633961" lon="30.0305400719"><ele>78.291</ele><time>2026-04-20T18:50:00.420Z</time><hdop>3.937</hdop><vdop>3.562</vdop><extensions><gom:speed>0.888</gom:speed></extensions></trkpt>
   <trkpt lat="59.0648758851" lon="30.0305385631"><ele>77.985</ele><time>2026-04-20T18:50:01.076Z</time><hdop>3.937</hdop><vdop>3.562</vdop><extensions><gom:speed>0.886</gom:speed></extensions></trkpt>
   <trkpt lat="59.0648878712" lon="30.0305345398"><ele>77.374</ele><time>2026-04-20T18:50:02.076Z</time><hdop>3.937</hdop><vdop>3.437</vdop><extensions><gom:speed>0.899</gom:speed></extensions></trkpt>
   <trkpt lat="59.064897259" lon="30.0305288401"><ele>77.009</ele><time>2026-04-20T18:50:02.979Z</time><hdop>3.937</hdop><vdop>3.437</vdop><extensions><gom:speed>0.885</gom:speed></extensions></trkpt>
   <trkpt lat="59.0649078621" lon="30.0305255712"><ele>76.801</ele><time>2026-04-20T18:50:03.719Z</time><hdop>3.937</hdop><vdop>3.25</vdop><extensions><gom:speed>0.89</gom:speed></extensions></trkpt>
   <trkpt lat="59.0649196806" lon="30.0305241462"><ele>76.393</ele><time>2026-04-20T18:50:04.540Z</time><hdop>3.937</hdop><vdop>3.062</vdop><extensions><gom:speed>0.9</gom:speed></extensions></trkpt>
   <trkpt lat="59.0649273919" lon="30.0305216317"><ele>75.907</ele><time>2026-04-20T18:50:05.075Z</time><hdop>3.937</hdop><vdop>2.937</vdop><extensions><gom:speed>0.93</gom:speed></extensions></trkpt>
   <trkpt lat="59.0649373664" lon="30.0305137527"><ele>75.616</ele><time>2026-04-20T18:50:06.060Z</time><hdop>4.0</hdop><vdop>2.937</vdop><extensions><gom:speed>0.904</gom:speed></extensions></trkpt>
   <trkpt lat="59.0649415992" lon="30.0305115734"><ele>75.259</ele><time>2026-04-20T18:50:06.579Z</time><hdop>4.062</hdop><vdop>2.75</vdop><extensions><gom:speed>0.918</gom:speed></extensions></trkpt>
   <trkpt lat="59.0649534596" lon="30.0305031915"><ele>74.786</ele><time>2026-04-20T18:50:07.075Z</time><hdop>4.125</hdop><vdop>2.625</vdop><extensions><gom:speed>0.939</gom:speed></extensions></trkpt>
   <trkpt lat="59.064958866" lon="30.0304981623"><ele>74.503</ele><time>2026-04-20T18:50:07.619Z</time><hdop>4.187</hdop><vdop>2.625</vdop><extensions><gom:speed>0.941</gom:speed></extensions></trkpt>
   <trkpt lat="59.0649653619" lon="30.0304944743"><ele>74.775</ele><time>2026-04-20T18:50:08.075Z</time><hdop>4.187</hdop><vdop>2.5</vdop><extensions><gom:speed>0.957</gom:speed></extensions></trkpt>
   <trkpt lat="59.0649756717" lon="30.030485338"><ele>74.938</ele><time>2026-04-20T18:50:09.020Z</time><hdop>4.25</hdop><vdop>2.5</vdop><extensions><gom:speed>0.992</gom:speed></extensions></trkpt>
   <trkpt lat="59.0649849756" lon="30.0304786325"><ele>75.147</ele><time>2026-04-20T18:50:09.681Z</time><hdop>4.312</hdop><vdop>2.5</vdop><extensions><gom:speed>1.024</gom:speed></extensions></trkpt>
   <trkpt lat="59.0649955787" lon="30.030472849"><ele>75.107</ele><time>2026-04-20T18:50:10.442Z</time><hdop>4.437</hdop><vdop>2.5</vdop><extensions><gom:speed>1.038</gom:speed></extensions></trkpt>
   <trkpt lat="59.0650039606" lon="30.0304696639"><ele>75.575</ele><time>2026-04-20T18:50:11.075Z</time><hdop>4.437</hdop><vdop>2.5</vdop><extensions><gom:speed>1.03</gom:speed></extensions></trkpt>
   <trkpt lat="59.0650140608" lon="30.0304648862"><ele>75.855</ele><time>2026-04-20T18:50:11.952Z</time><hdop>4.562</hdop><vdop>2.5</vdop><extensions><gom:speed>1.037</gom:speed></extensions></trkpt>
   <trkpt lat="59.0650233647" lon="30.0304622878"><ele>75.842</ele><time>2026-04-20T18:50:12.692Z</time><hdop>4.625</hdop><vdop>2.5</vdop><extensions><gom:speed>1.019</gom:speed></extensions></trkpt>
   <trkpt lat="59.0650349736" lon="30.0304616172"><ele>75.735</ele><time>2026-04-20T18:50:13.492Z</time><hdop>4.75</hdop><vdop>2.687</vdop><extensions><gom:speed>0.974</gom:speed></extensions></trkpt>
   <trkpt lat="59.0650414696" lon="30.0304621202"><ele>75.598</ele><time>2026-04-20T18:50:14.075Z</time><hdop>4.75</hdop><vdop>2.687</vdop><extensions><gom:speed>0.984</gom:speed></extensions></trkpt>
   <trkpt lat="59.0650507735" lon="30.0304616172"><ele>75.516</ele><time>2026-04-20T18:50:14.992Z</time><hdop>4.812</hdop><vdop>2.687</vdop><extensions><gom:speed>0.995</gom:speed></extensions></trkpt>
   <trkpt lat="59.0650604965" lon="30.0304609467"><ele>75.27</ele><time>2026-04-20T18:50:15.794Z</time><hdop>4.875</hdop><vdop>2.75</vdop><extensions><gom:speed>1.01</gom:speed></extensions></trkpt>
   <trkpt lat="59.0650693813" lon="30.0304601923"><ele>74.657</ele><time>2026-04-20T18:50:16.532Z</time><hdop>4.937</hdop><vdop>2.937</vdop><extensions><gom:speed>1.005</gom:speed></extensions></trkpt>
   <trkpt lat="59.0650757935" lon="30.0304596894"><ele>73.367</ele><time>2026-04-20T18:50:17.076Z</time><hdop>4.875</hdop><vdop>3.062</vdop><extensions><gom:speed>0.995</gom:speed></extensions></trkpt>
   <trkpt lat="59.0650868995" lon="30.0304577616"><ele>72.888</ele><time>2026-04-20T18:50:18.075Z</time><hdop>4.937</hdop><vdop>2.937</vdop><extensions><gom:speed>0.977</gom:speed></extensions></trkpt>
   <trkpt lat="59.0650947785" lon="30.0304557499"><ele>72.603</ele><time>2026-04-20T18:50:18.833Z</time><hdop>4.937</hdop><vdop>2.937</vdop><extensions><gom:speed>0.981</gom:speed></extensions></trkpt>
   <trkpt lat="59.0651063874" lon="30.0304553308"><ele>72.49</ele><time>2026-04-20T18:50:19.632Z</time><hdop>5.0</hdop><vdop>2.937</vdop><extensions><gom:speed>0.969</gom:speed></extensions></trkpt>
   <trkpt lat="59.065113093" lon="30.0304565881"><ele>72.41</ele><time>2026-04-20T18:50:20.313Z</time><hdop>4.937</hdop><vdop>2.937</vdop><extensions><gom:speed>0.949</gom:speed></extensions></trkpt>
   <trkpt lat="59.065120972" lon="30.0304557499"><ele>72.034</ele><time>2026-04-20T18:50:21.075Z</time><hdop>4.937</hdop><vdop>3.062</vdop><extensions><gom:speed>0.941</gom:speed></extensions></trkpt>
   <trkpt lat="59.0651285995" lon="30.0304550794"><ele>71.81</ele><time>2026-04-20T18:50:21.794Z</time><hdop>4.937</hdop><vdop>3.062</vdop><extensions><gom:speed>0.957</gom:speed></extensions></trkpt>
   <trkpt lat="59.0651378615" lon="30.030457091"><ele>71.798</ele><time>2026-04-20T18:50:22.633Z</time><hdop>4.875</hdop><vdop>3.062</vdop><extensions><gom:speed>0.941</gom:speed></extensions></trkpt>
   <trkpt lat="59.0651452795" lon="30.0304580968"><ele>71.79</ele><time>2026-04-20T18:50:23.376Z</time><hdop>4.75</hdop><vdop>3.187</vdop><extensions><gom:speed>0.936</gom:speed></extensions></trkpt>
   <trkpt lat="59.065151063" lon="30.0304568396"><ele>71.643</ele><time>2026-04-20T18:50:24.075Z</time><hdop>4.75</hdop><vdop>3.375</vdop><extensions><gom:speed>0.897</gom:speed></extensions></trkpt>
   <trkpt lat="59.0651586905" lon="30.0304512237"><ele>71.555</ele><time>2026-04-20T18:50:24.875Z</time><hdop>4.625</hdop><vdop>3.375</vdop><extensions><gom:speed>0.929</gom:speed></extensions></trkpt>
   <trkpt lat="59.065168665" lon="30.0304444343"><ele>71.042</ele><time>2026-04-20T18:50:25.693Z</time><hdop>4.562</hdop><vdop>3.437</vdop><extensions><gom:speed>0.944</gom:speed></extensions></trkpt>
   <trkpt lat="59.0651726883" lon="30.0304435961"><ele>70.569</ele><time>2026-04-20T18:50:26.375Z</time><hdop>4.562</hdop><vdop>3.187</vdop><extensions><gom:speed>0.943</gom:speed></extensions></trkpt>
   <trkpt lat="59.0651779689" lon="30.0304410816"><ele>70.218</ele><time>2026-04-20T18:50:27.076Z</time><hdop>4.5</hdop><vdop>3.062</vdop><extensions><gom:speed>0.943</gom:speed></extensions></trkpt>
   <trkpt lat="59.0651851773" lon="30.0304365553"><ele>70.008</ele><time>2026-04-20T18:50:27.895Z</time><hdop>4.5</hdop><vdop>3.062</vdop><extensions><gom:speed>0.962</gom:speed></extensions></trkpt>
   <trkpt lat="59.0651923858" lon="30.0304340408"><ele>69.727</ele><time>2026-04-20T18:50:28.615Z</time><hdop>4.5</hdop><vdop>2.875</vdop><extensions><gom:speed>0.996</gom:speed></extensions></trkpt>
   <trkpt lat="59.0651970796" lon="30.0304331188"><ele>69.589</ele><time>2026-04-20T18:50:29.075Z</time><hdop>4.5</hdop><vdop>2.75</vdop><extensions><gom:speed>0.995</gom:speed></extensions></trkpt>
   <trkpt lat="59.0652067607" lon="30.0304278382"><ele>69.506</ele><time>2026-04-20T18:50:30.077Z</time><hdop>4.5</hdop><vdop>2.75</vdop><extensions><gom:speed>0.989</gom:speed></extensions></trkpt>
   <trkpt lat="59.0652138854" lon="30.0304244854"><ele>69.136</ele><time>2026-04-20T18:50:30.838Z</time><hdop>4.5</hdop><vdop>2.562</vdop><extensions><gom:speed>1.005</gom:speed></extensions></trkpt>
   <trkpt lat="59.0652169867" lon="30.030426078"><ele>68.725</ele><time>2026-04-20T18:50:31.351Z</time><hdop>4.562</hdop><vdop>2.5</vdop><extensions><gom:speed>1.01</gom:speed></extensions></trkpt>
   <trkpt lat="59.0652271707" lon="30.0304268323"><ele>68.285</ele><time>2026-04-20T18:50:32.075Z</time><hdop>4.562</hdop><vdop>2.5</vdop><extensions><gom:speed>1.025</gom:speed></extensions></trkpt>
   <trkpt lat="59.0652364746" lon="30.0304276705"><ele>68.022</ele><time>2026-04-20T18:50:33.058Z</time><hdop>4.625</hdop><vdop>2.5</vdop><extensions><gom:speed>1.011</gom:speed></extensions></trkpt>
   <trkpt lat="59.0652445631" lon="30.030429766"><ele>67.73</ele><time>2026-04-20T18:50:33.837Z</time><hdop>4.687</hdop><vdop>2.5</vdop><extensions><gom:speed>0.992</gom:speed></extensions></trkpt>
   <trkpt lat="59.0652526936" lon="30.030432532"><ele>67.279</ele><time>2026-04-20T18:50:34.597Z</time><hdop>4.75</hdop><vdop>2.5</vdop><extensions><gom:speed>1.003</gom:speed></extensions></trkpt>
   <trkpt lat="59.0652577646" lon="30.030434879"><ele>67.121</ele><time>2026-04-20T18:50:35.075Z</time><hdop>4.75</hdop><vdop>2.5</vdop><extensions><gom:speed>0.989</gom:speed></extensions></trkpt>
   <trkpt lat="59.0652686611" lon="30.030436723"><ele>67.026</ele><time>2026-04-20T18:50:36.080Z</time><hdop>4.812</hdop><vdop>2.5</vdop><extensions><gom:speed>1.019</gom:speed></extensions></trkpt>
   <trkpt lat="59.0652771687" lon="30.0304379803"><ele>66.834</ele><time>2026-04-20T18:50:36.839Z</time><hdop>4.875</hdop><vdop>2.5</vdop><extensions><gom:speed>1.01</gom:speed></extensions></trkpt>
   <trkpt lat="59.0652852992" lon="30.0304398243"><ele>66.699</ele><time>2026-04-20T18:50:37.578Z</time><hdop>4.875</hdop><vdop>2.5</vdop><extensions><gom:speed>1.006</gom:speed></extensions></trkpt>
   <trkpt lat="59.0652908731" lon="30.0304406625"><ele>66.491</ele><time>2026-04-20T18:50:38.075Z</time><hdop>4.875</hdop><vdop>2.5</vdop><extensions><gom:speed>1.016</gom:speed></extensions></trkpt>
   <trkpt lat="59.0653013924" lon="30.0304415845"><ele>66.508</ele><time>2026-04-20T18:50:39.075Z</time><hdop>4.875</hdop><vdop>2.5</vdop><extensions><gom:speed>1.007</gom:speed></extensions></trkpt>
   <trkpt lat="59.0653083913" lon="30.0304395728"><ele>66.518</ele><time>2026-04-20T18:50:39.760Z</time><hdop>4.937</hdop><vdop>2.5</vdop><extensions><gom:speed>1.01</gom:speed></extensions></trkpt>
   <trkpt lat="59.0653160608" lon="30.0304383994"><ele>66.361</ele><time>2026-04-20T18:50:40.500Z</time><hdop>4.937</hdop><vdop>2.5</vdop><extensions><gom:speed>1.013</gom:speed></extensions></trkpt>
   <trkpt lat="59.0653218862" lon="30.0304377288"><ele>66.098</ele><time>2026-04-20T18:50:41.075Z</time><hdop>4.937</hdop><vdop>2.5</vdop><extensions><gom:speed>1.008</gom:speed></extensions></trkpt>
   <trkpt lat="59.0653309805" lon="30.030433454"><ele>65.941</ele><time>2026-04-20T18:50:41.980Z</time><hdop>4.937</hdop><vdop>2.5</vdop><extensions><gom:speed>1.018</gom:speed></extensions></trkpt>
   <trkpt lat="59.0653384823" lon="30.0304309395"><ele>65.509</ele><time>2026-04-20T18:50:42.653Z</time><hdop>4.937</hdop><vdop>2.5</vdop><extensions><gom:speed>1.055</gom:speed></extensions></trkpt>
   <trkpt lat="59.0653470738" lon="30.0304300175"><ele>65.322</ele><time>2026-04-20T18:50:43.441Z</time><hdop>4.937</hdop><vdop>2.5</vdop><extensions><gom:speed>1.034</gom:speed></extensions></trkpt>
   <trkpt lat="59.0653560843" lon="30.0304293469"><ele>64.926</ele><time>2026-04-20T18:50:44.075Z</time><hdop>4.937</hdop><vdop>2.5</vdop><extensions><gom:speed>1.014</gom:speed></extensions></trkpt>
   <trkpt lat="59.0653628737" lon="30.0304265809"><ele>64.689</ele><time>2026-04-20T18:50:44.982Z</time><hdop>4.875</hdop><vdop>2.5</vdop><extensions><gom:speed>1.003</gom:speed></extensions></trkpt>
   <trkpt lat="59.0653681962" lon="30.0304253236"><ele>64.81</ele><time>2026-04-20T18:50:45.652Z</time><hdop>4.875</hdop><vdop>2.5</vdop><extensions><gom:speed>0.993</gom:speed></extensions></trkpt>
   <trkpt lat="59.0653754884" lon="30.0304232281"><ele>64.744</ele><time>2026-04-20T18:50:46.415Z</time><hdop>4.812</hdop><vdop>2.75</vdop><extensions><gom:speed>1.015</gom:speed></extensions></trkpt>
   <trkpt lat="59.0653820682" lon="30.0304213841"><ele>64.522</ele><time>2026-04-20T18:50:47.075Z</time><hdop>4.812</hdop><vdop>2.875</vdop><extensions><gom:speed>1.027</gom:speed></extensions></trkpt>
   <trkpt lat="59.0653901987" lon="30.0304173608"><ele>64.389</ele><time>2026-04-20T18:50:47.858Z</time><hdop>4.75</hdop><vdop>2.875</vdop><extensions><gom:speed>1.004</gom:speed></extensions></trkpt>
   <trkpt lat="59.0653980777" lon="30.0304161873"><ele>64.182</ele><time>2026-04-20T18:50:48.555Z</time><hdop>4.687</hdop><vdop>3.0</vdop><extensions><gom:speed>1.018</gom:speed></extensions></trkpt>
   <trkpt lat="59.0654039869" lon="30.0304160197"><ele>63.952</ele><time>2026-04-20T18:50:49.075Z</time><hdop>4.625</hdop><vdop>3.125</vdop><extensions><gom:speed>1.031</gom:speed></extensions></trkpt>
   <trkpt lat="59.0654081779" lon="30.0304150977"><ele>63.814</ele><time>2026-04-20T18:50:49.816Z</time><hdop>4.625</hdop><vdop>3.125</vdop><extensions><gom:speed>1.025</gom:speed></extensions></trkpt>
   <trkpt lat="59.0654222595" lon="30.0304099847"><ele>63.836</ele><time>2026-04-20T18:50:50.875Z</time><hdop>4.562</hdop><vdop>3.187</vdop><extensions><gom:speed>0.992</gom:speed></extensions></trkpt>
   <trkpt lat="59.0654284621" lon="30.0304088951"><ele>63.35</ele><time>2026-04-20T18:50:51.557Z</time><hdop>4.562</hdop><vdop>3.187</vdop><extensions><gom:speed>0.962</gom:speed></extensions></trkpt>
   <trkpt lat="59.065433575" lon="30.0304098171"><ele>63.096</ele><time>2026-04-20T18:50:52.075Z</time><hdop>4.562</hdop><vdop>3.375</vdop><extensions><gom:speed>0.962</gom:speed></extensions></trkpt>
   <trkpt lat="59.065442376" lon="30.0304165226"><ele>62.938</ele><time>2026-04-20T18:50:53.075Z</time><hdop>4.562</hdop><vdop>3.562</vdop><extensions><gom:speed>0.92</gom:speed></extensions></trkpt>
   <trkpt lat="59.0654454773" lon="30.0304332864"><ele>62.586</ele><time>2026-04-20T18:50:54.075Z</time><hdop>4.625</hdop><vdop>3.687</vdop><extensions><gom:speed>0.95</gom:speed></extensions></trkpt>
   <trkpt lat="59.0654502969" lon="30.0304463622"><ele>62.123</ele><time>2026-04-20T18:50:55.076Z</time><hdop>4.625</hdop><vdop>3.875</vdop><extensions><gom:speed>0.984</gom:speed></extensions></trkpt>
   <trkpt lat="59.0654597685" lon="30.0304460269"><ele>61.622</ele><time>2026-04-20T18:50:55.976Z</time><hdop>4.687</hdop><vdop>4.0</vdop><extensions><gom:speed>0.934</gom:speed></extensions></trkpt>
   <trkpt lat="59.0654705811" lon="30.0304397405"><ele>61.323</ele><time>2026-04-20T18:50:57.054Z</time><hdop>4.875</hdop><vdop>4.0</vdop><extensions><gom:speed>0.921</gom:speed></extensions></trkpt>
   <trkpt lat="59.0654767837" lon="30.0304319453"><ele>61.087</ele><time>2026-04-20T18:50:57.914Z</time><hdop>4.937</hdop><vdop>3.687</vdop><extensions><gom:speed>0.927</gom:speed></extensions></trkpt>
   <trkpt lat="59.0654816872" lon="30.0304270838"><ele>60.96</ele><time>2026-04-20T18:50:58.576Z</time><hdop>5.0</hdop><vdop>3.625</vdop><extensions><gom:speed>0.881</gom:speed></extensions></trkpt>
   <trkpt lat="59.065485459" lon="30.0304253236"><ele>60.931</ele><time>2026-04-20T18:50:59.075Z</time><hdop>4.937</hdop><vdop>3.625</vdop><extensions><gom:speed>0.874</gom:speed></extensions></trkpt>
   <trkpt lat="59.0654933799" lon="30.0304223899"><ele>60.602</ele><time>2026-04-20T18:51:00.075Z</time><hdop>4.937</hdop><vdop>3.375</vdop><extensions><gom:speed>0.871</gom:speed></extensions></trkpt>
   <trkpt lat="59.0655004626" lon="30.0304201268"><ele>60.405</ele><time>2026-04-20T18:51:00.953Z</time><hdop>5.0</hdop><vdop>3.375</vdop><extensions><gom:speed>0.842</gom:speed></extensions></trkpt>
   <trkpt lat="59.0655068748" lon="30.030419121"><ele>60.489</ele><time>2026-04-20T18:51:02.001Z</time><hdop>4.937</hdop><vdop>3.437</vdop><extensions><gom:speed>0.714</gom:speed></extensions></trkpt>
   <trkpt lat="59.0655101856" lon="30.0304166902"><ele>60.429</ele><time>2026-04-20T18:51:02.643Z</time><hdop>4.875</hdop><vdop>3.375</vdop><extensions><gom:speed>0.579</gom:speed></extensions></trkpt>
   <trkpt lat="59.0655109819" lon="30.0304141757"><ele>60.304</ele><time>2026-04-20T18:51:04.076Z</time><hdop>4.75</hdop><vdop>3.187</vdop><extensions><gom:speed>0.382</gom:speed></extensions></trkpt>
   <trkpt lat="59.0655077968" lon="30.030415852"><ele>59.845</ele><time>2026-04-20T18:51:05.075Z</time><hdop>4.625</hdop><vdop>3.187</vdop><extensions><gom:speed>0.174</gom:speed></extensions></trkpt>
   <trkpt lat="59.065505366" lon="30.0304173608"><ele>59.518</ele><time>2026-04-20T18:51:06.075Z</time><hdop>4.5</hdop><vdop>3.125</vdop><extensions><gom:speed>0.081</gom:speed></extensions></trkpt>
   <trkpt lat="59.0655040668" lon="30.0304184504"><ele>59.782</ele><time>2026-04-20T18:51:07.075Z</time><hdop>4.312</hdop><vdop>3.062</vdop><extensions><gom:speed>0.089</gom:speed></extensions></trkpt>
   <trkpt lat="59.0655045698" lon="30.0304199592"><ele>59.939</ele><time>2026-04-20T18:51:08.001Z</time><hdop>4.187</hdop><vdop>3.062</vdop><extensions><gom:speed>0.127</gom:speed></extensions></trkpt>
   <trkpt lat="59.0655046955" lon="30.0304212165"><ele>59.953</ele><time>2026-04-20T18:51:09.019Z</time><hdop>4.062</hdop><vdop>3.125</vdop><extensions><gom:speed>0.096</gom:speed></extensions></trkpt>
   <trkpt lat="59.0655065814" lon="30.0304224737"><ele>59.759</ele><time>2026-04-20T18:51:10.075Z</time><hdop>3.937</hdop><vdop>3.062</vdop><extensions><gom:speed>0.164</gom:speed></extensions></trkpt>
   <trkpt lat="59.0655095989" lon="30.030424653"><ele>59.347</ele><time>2026-04-20T18:51:11.076Z</time><hdop>3.875</hdop><vdop>3.25</vdop><extensions><gom:speed>0.209</gom:speed></extensions></trkpt>
   <trkpt lat="59.0655130774" lon="30.0304265809"><ele>59.101</ele><time>2026-04-20T18:51:11.883Z</time><hdop>3.937</hdop><vdop>3.25</vdop><extensions><gom:speed>0.363</gom:speed></extensions></trkpt>
   <trkpt lat="59.0655170588" lon="30.0304274191"><ele>59.0</ele><time>2026-04-20T18:51:12.434Z</time><hdop>3.937</hdop><vdop>3.375</vdop><extensions><gom:speed>0.431</gom:speed></extensions></trkpt>
   <trkpt lat="59.0655205792" lon="30.0304275867"><ele>58.87</ele><time>2026-04-20T18:51:13.075Z</time><hdop>3.937</hdop><vdop>3.437</vdop><extensions><gom:speed>0.407</gom:speed></extensions></trkpt>
   <trkpt lat="59.0655251892" lon="30.0304313586"><ele>59.092</ele><time>2026-04-20T18:51:14.076Z</time><hdop>4.0</hdop><vdop>3.5</vdop><extensions><gom:speed>0.444</gom:speed></extensions></trkpt>
   <trkpt lat="59.0655268656" lon="30.0304329511"><ele>59.224</ele><time>2026-04-20T18:51:14.573Z</time><hdop>4.062</hdop><vdop>3.5</vdop><extensions><gom:speed>0.473</gom:speed></extensions></trkpt>
   <trkpt lat="59.0655309728" lon="30.0304360524"><ele>59.718</ele><time>2026-04-20T18:51:15.075Z</time><hdop>4.062</hdop><vdop>3.5</vdop><extensions><gom:speed>0.491</gom:speed></extensions></trkpt>
   <trkpt lat="59.0655340741" lon="30.0304336217"><ele>60.675</ele><time>2026-04-20T18:51:15.995Z</time><hdop>4.125</hdop><vdop>3.75</vdop><extensions><gom:speed>0.424</gom:speed></extensions></trkpt>
   <trkpt lat="59.0655346608" lon="30.0304303527"><ele>61.721</ele><time>2026-04-20T18:51:17.075Z</time><hdop>4.187</hdop><vdop>3.687</vdop><extensions><gom:speed>0.266</gom:speed></extensions></trkpt>
   <trkpt lat="59.0655342836" lon="30.0304291793"><ele>62.637</ele><time>2026-04-20T18:51:18.075Z</time><hdop>4.187</hdop><vdop>10.75</vdop><extensions><gom:speed>0.163</gom:speed></extensions></trkpt>
   <trkpt lat="59.0655338645" lon="30.0304278382"><ele>63.354</ele><time>2026-04-20T18:51:19.075Z</time><hdop>4.187</hdop><vdop>10.625</vdop><extensions><gom:speed>0.109</gom:speed></extensions></trkpt>
   <trkpt lat="59.0655340741" lon="30.0304273353"><ele>64.316</ele><time>2026-04-20T18:51:20.022Z</time><hdop>4.125</hdop><vdop>10.437</vdop><extensions><gom:speed>0.091</gom:speed></extensions></trkpt>
   <trkpt lat="59.0655341998" lon="30.0304278382"><ele>64.89</ele><time>2026-04-20T18:51:20.733Z</time><hdop>4.125</hdop><vdop>10.437</vdop><extensions><gom:speed>0.083</gom:speed></extensions></trkpt>
   <trkpt lat="59.0655351637" lon="30.0304269162"><ele>65.495</ele><time>2026-04-20T18:51:21.616Z</time><hdop>4.125</hdop><vdop>10.0</vdop><extensions><gom:speed>0.088</gom:speed></extensions></trkpt>
   <trkpt lat="59.0655347865" lon="30.0304265809"><ele>65.99</ele><time>2026-04-20T18:51:22.552Z</time><hdop>4.125</hdop><vdop>9.187</vdop><extensions><gom:speed>0.07</gom:speed></extensions></trkpt>
   <trkpt lat="59.0655351637" lon="30.030424653"><ele>66.608</ele><time>2026-04-20T18:51:23.075Z</time><hdop>4.125</hdop><vdop>8.687</vdop><extensions><gom:speed>0.11</gom:speed></extensions></trkpt>
   <trkpt lat="59.0655353733" lon="30.0304217194"><ele>67.245</ele><time>2026-04-20T18:51:24.050Z</time><hdop>4.187</hdop><vdop>7.812</vdop><extensions><gom:speed>0.154</gom:speed></extensions></trkpt>
   <trkpt lat="59.0655358762" lon="30.0304165226"><ele>67.7</ele><time>2026-04-20T18:51:25.075Z</time><hdop>4.312</hdop><vdop>7.437</vdop><extensions><gom:speed>0.223</gom:speed></extensions></trkpt>
   <trkpt lat="59.0655360857" lon="30.0304083922"><ele>68.211</ele><time>2026-04-20T18:51:26.065Z</time><hdop>4.375</hdop><vdop>7.437</vdop><extensions><gom:speed>0.329</gom:speed></extensions></trkpt>
   <trkpt lat="59.0655358762" lon="30.0304062967"><ele>68.516</ele><time>2026-04-20T18:51:26.893Z</time><hdop>4.437</hdop><vdop>7.437</vdop><extensions><gom:speed>0.284</gom:speed></extensions></trkpt>
   <trkpt lat="59.06553596" lon="30.0303980824"><ele>68.852</ele><time>2026-04-20T18:51:27.518Z</time><hdop>4.5</hdop><vdop>7.187</vdop><extensions><gom:speed>0.28</gom:speed></extensions></trkpt>
   <trkpt lat="59.0655347865" lon="30.0303969928"><ele>69.378</ele><time>2026-04-20T18:51:28.078Z</time><hdop>4.562</hdop><vdop>6.687</vdop><extensions><gom:speed>0.289</gom:speed></extensions></trkpt>
   <trkpt lat="59.0655338645" lon="30.0303958193"><ele>69.775</ele><time>2026-04-20T18:51:29.075Z</time><hdop>4.625</hdop><vdop>6.437</vdop><extensions><gom:speed>0.331</gom:speed></extensions></trkpt>
   <trkpt lat="59.0655307632" lon="30.0303933885"><ele>70.012</ele><time>2026-04-20T18:51:29.955Z</time><hdop>4.75</hdop><vdop>6.437</vdop><extensions><gom:speed>0.432</gom:speed></extensions></trkpt>
   <trkpt lat="59.0655256922" lon="30.030388527"><ele>70.221</ele><time>2026-04-20T18:51:30.719Z</time><hdop>4.812</hdop><vdop>6.187</vdop><extensions><gom:speed>0.585</gom:speed></extensions></trkpt>
   <trkpt lat="59.06551928" lon="30.030382073"><ele>70.492</ele><time>2026-04-20T18:51:31.865Z</time><hdop>4.937</hdop><vdop>6.125</vdop><extensions><gom:speed>0.573</gom:speed></extensions></trkpt>
   <trkpt lat="59.0655180646" lon="30.0303730205"><ele>70.697</ele><time>2026-04-20T18:51:33.054Z</time><hdop>5.062</hdop><vdop>5.875</vdop><extensions><gom:speed>0.493</gom:speed></extensions></trkpt>
   <trkpt lat="59.0655233871" lon="30.030369081"><ele>70.813</ele><time>2026-04-20T18:51:34.001Z</time><hdop>5.25</hdop><vdop>5.937</vdop><extensions><gom:speed>0.331</gom:speed></extensions></trkpt>
   <trkpt lat="59.065524393" lon="30.0303725176"><ele>70.858</ele><time>2026-04-20T18:51:34.949Z</time><hdop>5.437</hdop><vdop>6.062</vdop><extensions><gom:speed>0.172</gom:speed></extensions></trkpt>
   <trkpt lat="59.0655240996" lon="30.0303751998"><ele>70.885</ele><time>2026-04-20T18:51:35.493Z</time><hdop>5.5</hdop><vdop>6.062</vdop><extensions><gom:speed>0.106</gom:speed></extensions></trkpt>
   <trkpt lat="59.0655244768" lon="30.0303763733"><ele>70.929</ele><time>2026-04-20T18:51:36.014Z</time><hdop>5.562</hdop><vdop>6.0</vdop><extensions><gom:speed>0.141</gom:speed></extensions></trkpt>
   <trkpt lat="59.065524393" lon="30.0303764571"><ele>70.956</ele><time>2026-04-20T18:51:36.678Z</time><hdop>5.625</hdop><vdop>6.0</vdop><extensions><gom:speed>0.114</gom:speed></extensions></trkpt>
   <trkpt lat="59.0655245606" lon="30.03037696"><ele>71.033</ele><time>2026-04-20T18:51:37.438Z</time><hdop>5.75</hdop><vdop>6.062</vdop><extensions><gom:speed>0.083</gom:speed></extensions></trkpt>
   <trkpt lat="59.0655251892" lon="30.0303771277"><ele>71.117</ele><time>2026-04-20T18:51:38.028Z</time><hdop>5.75</hdop><vdop>6.125</vdop><extensions><gom:speed>0.119</gom:speed></extensions></trkpt>
   <trkpt lat="59.0655261951" lon="30.0303779658"><ele>71.168</ele><time>2026-04-20T18:51:38.900Z</time><hdop>5.812</hdop><vdop>6.125</vdop><extensions><gom:speed>0.19</gom:speed></extensions></trkpt>
   <trkpt lat="59.0655279972" lon="30.0303809833"><ele>71.226</ele><time>2026-04-20T18:51:39.681Z</time><hdop>5.937</hdop><vdop>6.312</vdop><extensions><gom:speed>0.217</gom:speed></extensions></trkpt>
   <trkpt lat="59.0655298831" lon="30.0303854257"><ele>71.197</ele><time>2026-04-20T18:51:40.538Z</time><hdop>6.0</hdop><vdop>6.25</vdop><extensions><gom:speed>0.381</gom:speed></extensions></trkpt>
   <trkpt lat="59.0655311823" lon="30.0303893652"><ele>71.211</ele><time>2026-04-20T18:51:40.989Z</time><hdop>6.062</hdop><vdop>6.125</vdop><extensions><gom:speed>0.403</gom:speed></extensions></trkpt>
   <trkpt lat="59.065534577" lon="30.0304020219"><ele>71.218</ele><time>2026-04-20T18:51:42.038Z</time><hdop>6.125</hdop><vdop>6.125</vdop><extensions><gom:speed>0.648</gom:speed></extensions></trkpt>
   <trkpt lat="59.0655406958" lon="30.0304193724"><ele>71.225</ele><time>2026-04-20T18:51:42.760Z</time><hdop>6.25</hdop><vdop>6.0</vdop><extensions><gom:speed>0.931</gom:speed></extensions></trkpt>
   <trkpt lat="59.0655495806" lon="30.030432532"><ele>71.235</ele><time>2026-04-20T18:51:43.540Z</time><hdop>6.437</hdop><vdop>5.75</vdop><extensions><gom:speed>0.932</gom:speed></extensions></trkpt>
   <trkpt lat="59.0655580882" lon="30.0304374774"><ele>71.261</ele><time>2026-04-20T18:51:44.340Z</time><hdop>6.687</hdop><vdop>5.687</vdop><extensions><gom:speed>0.936</gom:speed></extensions></trkpt>
   <trkpt lat="59.0655649614" lon="30.0304423389"><ele>71.277</ele><time>2026-04-20T18:51:45.059Z</time><hdop>6.812</hdop><vdop>5.687</vdop><extensions><gom:speed>0.932</gom:speed></extensions></trkpt>
   <trkpt lat="59.0655724632" lon="30.0304574263"><ele>71.299</ele><time>2026-04-20T18:51:45.701Z</time><hdop>7.125</hdop><vdop>5.687</vdop><extensions><gom:speed>0.988</gom:speed></extensions></trkpt>
   <trkpt lat="59.0655763608" lon="30.0304604438"><ele>71.343</ele><time>2026-04-20T18:51:46.372Z</time><hdop>7.437</hdop><vdop>5.5</vdop><extensions><gom:speed>0.973</gom:speed></extensions></trkpt>
   <trkpt lat="59.0655823957" lon="30.0304634613"><ele>71.374</ele><time>2026-04-20T18:51:47.031Z</time><hdop>7.625</hdop><vdop>5.5</vdop><extensions><gom:speed>0.976</gom:speed></extensions></trkpt>
   <trkpt lat="59.0655901909" lon="30.0304644671"><ele>71.392</ele><time>2026-04-20T18:51:47.853Z</time><hdop>7.875</hdop><vdop>5.5</vdop><extensions><gom:speed>0.994</gom:speed></extensions></trkpt>
   <trkpt lat="59.0655985728" lon="30.0304638804"><ele>71.408</ele><time>2026-04-20T18:51:48.653Z</time><hdop>8.312</hdop><vdop>5.5</vdop><extensions><gom:speed>0.976</gom:speed></extensions></trkpt>
   <trkpt lat="59.0656058651" lon="30.0304611981"><ele>71.423</ele><time>2026-04-20T18:51:49.401Z</time><hdop>8.812</hdop><vdop>5.5</vdop><extensions><gom:speed>0.964</gom:speed></extensions></trkpt>
   <trkpt lat="59.0656112714" lon="30.0304564205"><ele>71.432</ele><time>2026-04-20T18:51:50.055Z</time><hdop>8.875</hdop><vdop>5.5</vdop><extensions><gom:speed>0.963</gom:speed></extensions></trkpt>
   <trkpt lat="59.0656171806" lon="30.0304498826"><ele>71.44</ele><time>2026-04-20T18:51:50.915Z</time><hdop>9.25</hdop><vdop>5.5</vdop><extensions><gom:speed>0.962</gom:speed></extensions></trkpt>
   <trkpt lat="59.0656207848" lon="30.0304452725"><ele>71.45</ele><time>2026-04-20T18:51:51.593Z</time><hdop>9.625</hdop><vdop>5.687</vdop><extensions><gom:speed>0.901</gom:speed></extensions></trkpt>
   <trkpt lat="59.0656253949" lon="30.0304352981"><ele>71.462</ele><time>2026-04-20T18:51:52.258Z</time><hdop>9.875</hdop><vdop>5.625</vdop><extensions><gom:speed>0.891</gom:speed></extensions></trkpt>
   <trkpt lat="59.0656280771" lon="30.0304287602"><ele>71.469</ele><time>2026-04-20T18:51:52.976Z</time><hdop>10.0</hdop><vdop>5.625</vdop><extensions><gom:speed>0.89</gom:speed></extensions></trkpt>
   <trkpt lat="59.0656322681" lon="30.0304206297"><ele>71.477</ele><time>2026-04-20T18:51:53.795Z</time><hdop>10.125</hdop><vdop>5.687</vdop><extensions><gom:speed>0.873</gom:speed></extensions></trkpt>
   <trkpt lat="59.0656368781" lon="30.0304148462"><ele>71.486</ele><time>2026-04-20T18:51:54.556Z</time><hdop>10.187</hdop><vdop>5.75</vdop><extensions><gom:speed>0.867</gom:speed></extensions></trkpt>
   <trkpt lat="59.0656433741" lon="30.0304077216"><ele>71.498</ele><time>2026-04-20T18:51:55.553Z</time><hdop>10.25</hdop><vdop>5.75</vdop><extensions><gom:speed>0.839</gom:speed></extensions></trkpt>
   <trkpt lat="59.0656469783" lon="30.0304045365"><ele>71.502</ele><time>2026-04-20T18:51:56.033Z</time><hdop>10.25</hdop><vdop>5.812</vdop><extensions><gom:speed>0.831</gom:speed></extensions></trkpt>
   <trkpt lat="59.0656514626" lon="30.0304002617"><ele>71.505</ele><time>2026-04-20T18:51:56.698Z</time><hdop>10.312</hdop><vdop>5.812</vdop><extensions><gom:speed>0.759</gom:speed></extensions></trkpt>
   <trkpt lat="59.0656545639" lon="30.030397328"><ele>71.509</ele><time>2026-04-20T18:51:57.810Z</time><hdop>10.312</hdop><vdop>5.875</vdop><extensions><gom:speed>0.699</gom:speed></extensions></trkpt>
   <trkpt lat="59.0656622753" lon="30.0303895329"><ele>71.526</ele><time>2026-04-20T18:51:58.996Z</time><hdop>10.437</hdop><vdop>6.125</vdop><extensions><gom:speed>0.491</gom:speed></extensions></trkpt>
   <trkpt lat="59.0656627782" lon="30.03039364"><ele>71.538</ele><time>2026-04-20T18:51:59.943Z</time><hdop>10.437</hdop><vdop>6.687</vdop><extensions><gom:speed>0.305</gom:speed></extensions></trkpt>
   <trkpt lat="59.0656610599" lon="30.030401519"><ele>71.548</ele><time>2026-04-20T18:52:01.009Z</time><hdop>10.437</hdop><vdop>7.187</vdop><extensions><gom:speed>0.188</gom:speed></extensions></trkpt>
   <trkpt lat="59.0656596769" lon="30.030406129"><ele>71.554</ele><time>2026-04-20T18:52:01.693Z</time><hdop>10.437</hdop><vdop>7.187</vdop><extensions><gom:speed>0.179</gom:speed></extensions></trkpt>
   <trkpt lat="59.0656589644" lon="30.0304107391"><ele>71.558</ele><time>2026-04-20T18:52:02.433Z</time><hdop>10.375</hdop><vdop>7.562</vdop><extensions><gom:speed>0.17</gom:speed></extensions></trkpt>
   <trkpt lat="59.0656592997" lon="30.0304122478"><ele>71.561</ele><time>2026-04-20T18:52:03.022Z</time><hdop>10.312</hdop><vdop>7.937</vdop><extensions><gom:speed>0.185</gom:speed></extensions></trkpt>
   <trkpt lat="59.0656605989" lon="30.0304118287"><ele>71.562</ele><time>2026-04-20T18:52:03.970Z</time><hdop>10.312</hdop><vdop>8.187</vdop><extensions><gom:speed>0.251</gom:speed></extensions></trkpt>
   <trkpt lat="59.0656638678" lon="30.0304063805"><ele>71.563</ele><time>2026-04-20T18:52:05.059Z</time><hdop>10.375</hdop><vdop>8.187</vdop><extensions><gom:speed>0.34</gom:speed></extensions></trkpt>
   <trkpt lat="59.0656676816" lon="30.0303984177"><ele>71.564</ele><time>2026-04-20T18:52:05.997Z</time><hdop>10.437</hdop><vdop>8.312</vdop><extensions><gom:speed>0.489</gom:speed></extensions></trkpt>
   <trkpt lat="59.0656728784" lon="30.0303877727"><ele>71.565</ele><time>2026-04-20T18:52:06.857Z</time><hdop>10.562</hdop><vdop>8.0</vdop><extensions><gom:speed>0.661</gom:speed></extensions></trkpt>
   <trkpt lat="59.0656803802" lon="30.0303752836"><ele>71.572</ele><time>2026-04-20T18:52:07.998Z</time><hdop>10.812</hdop><vdop>7.562</vdop><extensions><gom:speed>0.6</gom:speed></extensions></trkpt>
   <trkpt lat="59.0656860799" lon="30.0303699192"><ele>71.576</ele><time>2026-04-20T18:52:08.945Z</time><hdop>11.062</hdop><vdop>7.562</vdop><extensions><gom:speed>0.572</gom:speed></extensions></trkpt>
   <trkpt lat="59.0656887621" lon="30.0303659797"><ele>71.577</ele><time>2026-04-20T18:52:10.012Z</time><hdop>11.437</hdop><vdop>7.437</vdop><extensions><gom:speed>0.381</gom:speed></extensions></trkpt>
   <trkpt lat="59.0656883849" lon="30.0303632975"><ele>71.577</ele><time>2026-04-20T18:52:10.960Z</time><hdop>11.437</hdop><vdop>7.5</vdop><extensions><gom:speed>0.317</gom:speed></extensions></trkpt>
   <trkpt lat="59.065686499" lon="30.030365393"><ele>71.577</ele><time>2026-04-20T18:52:12.026Z</time><hdop>11.437</hdop><vdop>6.937</vdop><extensions><gom:speed>0.204</gom:speed></extensions></trkpt>
   <trkpt lat="59.0656844873" lon="30.0303700869"><ele>71.577</ele><time>2026-04-20T18:52:12.541Z</time><hdop>11.437</hdop><vdop>6.937</vdop><extensions><gom:speed>0.182</gom:speed></extensions></trkpt>
   <trkpt lat="59.0656623591" lon="30.0303868507"><ele>70.126</ele><time>2026-04-20T18:52:13.075Z</time><hdop>11.062</hdop><vdop>6.187</vdop><extensions><gom:speed>0.195</gom:speed></extensions></trkpt>
   <trkpt lat="59.0656389736" lon="30.0304014352"><ele>68.271</ele><time>2026-04-20T18:52:14.076Z</time><hdop>10.25</hdop><vdop>5.437</vdop><extensions><gom:speed>0.162</gom:speed></extensions></trkpt>
   <trkpt lat="59.0656288734" lon="30.0304043688"><ele>67.506</ele><time>2026-04-20T18:52:15.075Z</time><hdop>8.937</hdop><vdop>5.062</vdop><extensions><gom:speed>0.195</gom:speed></extensions></trkpt>
   <trkpt lat="59.0656260654" lon="30.0304027763"><ele>67.042</ele><time>2026-04-20T18:52:16.075Z</time><hdop>7.687</hdop><vdop>4.75</vdop><extensions><gom:speed>0.185</gom:speed></extensions></trkpt>
   <trkpt lat="59.0656252692" lon="30.0304013514"><ele>66.765</ele><time>2026-04-20T18:52:17.035Z</time><hdop>6.625</hdop><vdop>4.75</vdop><extensions><gom:speed>0.159</gom:speed></extensions></trkpt>
   <trkpt lat="59.0656277837" lon="30.0303946458"><ele>66.824</ele><time>2026-04-20T18:52:18.001Z</time><hdop>5.562</hdop><vdop>4.937</vdop><extensions><gom:speed>0.173</gom:speed></extensions></trkpt>
   <trkpt lat="59.0656323938" lon="30.0303833303"><ele>65.921</ele><time>2026-04-20T18:52:19.036Z</time><hdop>5.125</hdop><vdop>4.875</vdop><extensions><gom:speed>0.293</gom:speed></extensions></trkpt>
   <trkpt lat="59.0656398956" lon="30.0303671532"><ele>64.881</ele><time>2026-04-20T18:52:19.997Z</time><hdop>5.0</hdop><vdop>4.75</vdop><extensions><gom:speed>0.428</gom:speed></extensions></trkpt>
   <trkpt lat="59.065651295" lon="30.030349635"><ele>65.124</ele><time>2026-04-20T18:52:20.813Z</time><hdop>5.125</hdop><vdop>5.312</vdop><extensions><gom:speed>0.635</gom:speed></extensions></trkpt>
   <trkpt lat="59.0656662986" lon="30.0303317816"><ele>65.405</ele><time>2026-04-20T18:52:21.761Z</time><hdop>5.312</hdop><vdop>5.625</vdop><extensions><gom:speed>0.719</gom:speed></extensions></trkpt>
   <trkpt lat="59.0656756863" lon="30.0303217233"><ele>65.965</ele><time>2026-04-20T18:52:22.569Z</time><hdop>5.312</hdop><vdop>5.625</vdop><extensions><gom:speed>0.717</gom:speed></extensions></trkpt>
   <trkpt lat="59.0656823918" lon="30.0303094857"><ele>66.526</ele><time>2026-04-20T18:52:23.042Z</time><hdop>5.375</hdop><vdop>5.687</vdop><extensions><gom:speed>0.71</gom:speed></extensions></trkpt>
   <trkpt lat="59.0656843616" lon="30.0303039536"><ele>66.861</ele><time>2026-04-20T18:52:23.538Z</time><hdop>5.437</hdop><vdop>5.687</vdop><extensions><gom:speed>0.77</gom:speed></extensions></trkpt>
   <trkpt lat="59.0656890974" lon="30.0302983378"><ele>67.147</ele><time>2026-04-20T18:52:24.075Z</time><hdop>5.437</hdop><vdop>5.562</vdop><extensions><gom:speed>0.74</gom:speed></extensions></trkpt>
   <trkpt lat="59.0656965992" lon="30.03028895"><ele>67.396</ele><time>2026-04-20T18:52:25.075Z</time><hdop>5.312</hdop><vdop>5.437</vdop><extensions><gom:speed>0.682</gom:speed></extensions></trkpt>
   <trkpt lat="59.0657050649" lon="30.0302793947"><ele>67.843</ele><time>2026-04-20T18:52:26.075Z</time><hdop>5.187</hdop><vdop>5.437</vdop><extensions><gom:speed>0.73</gom:speed></extensions></trkpt>
   <trkpt lat="59.0657154584" lon="30.0302682467"><ele>68.076</ele><time>2026-04-20T18:52:27.076Z</time><hdop>5.0</hdop><vdop>5.312</vdop><extensions><gom:speed>0.772</gom:speed></extensions></trkpt>
   <trkpt lat="59.0657222897" lon="30.030256093"><ele>68.216</ele><time>2026-04-20T18:52:28.060Z</time><hdop>4.875</hdop><vdop>5.312</vdop><extensions><gom:speed>0.76</gom:speed></extensions></trkpt>
   <trkpt lat="59.0657272769" lon="30.0302556739"><ele>68.301</ele><time>2026-04-20T18:52:28.728Z</time><hdop>4.75</hdop><vdop>5.0</vdop><extensions><gom:speed>0.729</gom:speed></extensions></trkpt>
   <trkpt lat="59.0657389697" lon="30.0302481302"><ele>68.765</ele><time>2026-04-20T18:52:29.194Z</time><hdop>4.562</hdop><vdop>4.687</vdop><extensions><gom:speed>0.681</gom:speed></extensions></trkpt>
   <trkpt lat="59.0657446694" lon="30.0302407541"><ele>69.184</ele><time>2026-04-20T18:52:30.076Z</time><hdop>4.437</hdop><vdop>8.0</vdop><extensions><gom:speed>0.577</gom:speed></extensions></trkpt>
   <trkpt lat="59.0657488603" lon="30.0302332942"><ele>69.625</ele><time>2026-04-20T18:52:31.075Z</time><hdop>4.312</hdop><vdop>7.75</vdop><extensions><gom:speed>0.511</gom:speed></extensions></trkpt>
   <trkpt lat="59.0657497823" lon="30.0302266725"><ele>69.888</ele><time>2026-04-20T18:52:31.919Z</time><hdop>4.25</hdop><vdop>7.75</vdop><extensions><gom:speed>0.523</gom:speed></extensions></trkpt>
   <trkpt lat="59.0657543924" lon="30.0302207213"><ele>70.337</ele><time>2026-04-20T18:52:32.739Z</time><hdop>4.187</hdop><vdop>7.625</vdop><extensions><gom:speed>0.534</gom:speed></extensions></trkpt>
   <trkpt lat="59.0657602597" lon="30.0302140996"><ele>70.714</ele><time>2026-04-20T18:52:34.076Z</time><hdop>4.125</hdop><vdop>7.375</vdop><extensions><gom:speed>0.424</gom:speed></extensions></trkpt>
   <trkpt lat="59.0657615589" lon="30.0302145187"><ele>70.94</ele><time>2026-04-20T18:52:35.006Z</time><hdop>4.125</hdop><vdop>7.375</vdop><extensions><gom:speed>0.378</gom:speed></extensions></trkpt>
   <trkpt lat="59.0657686835" lon="30.0302133453"><ele>71.469</ele><time>2026-04-20T18:52:36.075Z</time><hdop>4.062</hdop><vdop>6.812</vdop><extensions><gom:speed>0.278</gom:speed></extensions></trkpt>
   <trkpt lat="59.0657724973" lon="30.03021762"><ele>72.027</ele><time>2026-04-20T18:52:37.075Z</time><hdop>4.0</hdop><vdop>6.625</vdop><extensions><gom:speed>0.162</gom:speed></extensions></trkpt>
   <trkpt lat="59.0657735869" lon="30.0302209728"><ele>72.36</ele><time>2026-04-20T18:52:38.059Z</time><hdop>4.0</hdop><vdop>6.625</vdop><extensions><gom:speed>0.126</gom:speed></extensions></trkpt>
   <trkpt lat="59.0657739641" lon="30.0302226492"><ele>72.534</ele><time>2026-04-20T18:52:38.838Z</time><hdop>4.0</hdop><vdop>6.5</vdop><extensions><gom:speed>0.114</gom:speed></extensions></trkpt>
   <trkpt lat="59.0657751795" lon="30.0302231521"><ele>72.32</ele><time>2026-04-20T18:52:39.678Z</time><hdop>4.0</hdop><vdop>6.437</vdop><extensions><gom:speed>0.172</gom:speed></extensions></trkpt>
   <trkpt lat="59.0657775683" lon="30.0302219786"><ele>72.12</ele><time>2026-04-20T18:52:40.636Z</time><hdop>4.125</hdop><vdop>6.25</vdop><extensions><gom:speed>0.269</gom:speed></extensions></trkpt>
   <trkpt lat="59.0657793705" lon="30.0302206375"><ele>71.686</ele><time>2026-04-20T18:52:41.166Z</time><hdop>4.25</hdop><vdop>6.062</vdop><extensions><gom:speed>0.279</gom:speed></extensions></trkpt>
   <trkpt lat="59.0657834776" lon="30.0302168657"><ele>71.427</ele><time>2026-04-20T18:52:42.017Z</time><hdop>4.312</hdop><vdop>6.062</vdop><extensions><gom:speed>0.383</gom:speed></extensions></trkpt>
   <trkpt lat="59.0657877943" lon="30.0302138482"><ele>71.229</ele><time>2026-04-20T18:52:42.956Z</time><hdop>4.437</hdop><vdop>6.125</vdop><extensions><gom:speed>0.464</gom:speed></extensions></trkpt>
   <trkpt lat="59.0657908956" lon="30.0302146864"><ele>71.157</ele><time>2026-04-20T18:52:44.009Z</time><hdop>4.625</hdop><vdop>6.375</vdop><extensions><gom:speed>0.383</gom:speed></extensions></trkpt>
   <trkpt lat="59.0657901831" lon="30.0302155246"><ele>71.168</ele><time>2026-04-20T18:52:44.957Z</time><hdop>4.875</hdop><vdop>6.25</vdop><extensions><gom:speed>0.234</gom:speed></extensions></trkpt>
   <trkpt lat="59.0657899736" lon="30.0302138482"><ele>71.236</ele><time>2026-04-20T18:52:46.023Z</time><hdop>5.187</hdop><vdop>6.312</vdop><extensions><gom:speed>0.161</gom:speed></extensions></trkpt>
   <trkpt lat="59.0657898897" lon="30.0302131776"><ele>71.32</ele><time>2026-04-20T18:52:46.970Z</time><hdop>5.375</hdop><vdop>6.375</vdop><extensions><gom:speed>0.156</gom:speed></extensions></trkpt>
   <trkpt lat="59.0657893868" lon="30.0302138482"><ele>71.411</ele><time>2026-04-20T18:52:48.036Z</time><hdop>5.5</hdop><vdop>6.625</vdop><extensions><gom:speed>0.097</gom:speed></extensions></trkpt>
   <trkpt lat="59.0657895964" lon="30.0302137644"><ele>71.565</ele><time>2026-04-20T18:52:48.984Z</time><hdop>5.562</hdop><vdop>6.687</vdop><extensions><gom:speed>0.12</gom:speed></extensions></trkpt>
   <trkpt lat="59.0657902669" lon="30.0302149378"><ele>71.768</ele><time>2026-04-20T18:52:50.050Z</time><hdop>5.625</hdop><vdop>7.0</vdop><extensions><gom:speed>0.166</gom:speed></extensions></trkpt>
   <trkpt lat="59.0657910632" lon="30.0302161951"><ele>71.928</ele><time>2026-04-20T18:52:50.998Z</time><hdop>5.75</hdop><vdop>7.062</vdop><extensions><gom:speed>0.166</gom:speed></extensions></trkpt>
   <trkpt lat="59.0657924881" lon="30.0302162789"><ele>72.024</ele><time>2026-04-20T18:52:51.722Z</time><hdop>5.875</hdop><vdop>7.062</vdop><extensions><gom:speed>0.208</gom:speed></extensions></trkpt>
   <trkpt lat="59.0657953799" lon="30.0302155246"><ele>72.162</ele><time>2026-04-20T18:52:52.580Z</time><hdop>6.0</hdop><vdop>7.187</vdop><extensions><gom:speed>0.308</gom:speed></extensions></trkpt>
   <trkpt lat="59.0657997804" lon="30.0302124233"><ele>72.257</ele><time>2026-04-20T18:52:53.500Z</time><hdop>6.125</hdop><vdop>7.187</vdop><extensions><gom:speed>0.38</gom:speed></extensions></trkpt>
   <trkpt lat="59.0658021692" lon="30.0302103278"><ele>72.328</ele><time>2026-04-20T18:52:53.959Z</time><hdop>6.187</hdop><vdop>7.375</vdop><extensions><gom:speed>0.393</gom:speed></extensions></trkpt>
   <trkpt lat="59.0658052705" lon="30.0302084838"><ele>72.371</ele><time>2026-04-20T18:52:54.416Z</time><hdop>6.312</hdop><vdop>7.375</vdop><extensions><gom:speed>0.492</gom:speed></extensions></trkpt>
   <trkpt lat="59.0658092938" lon="30.0302053825"><ele>72.421</ele><time>2026-04-20T18:52:55.026Z</time><hdop>6.375</hdop><vdop>7.187</vdop><extensions><gom:speed>0.509</gom:speed></extensions></trkpt>
   <trkpt lat="59.0658174662" lon="30.0301999342"><ele>72.451</ele><time>2026-04-20T18:52:55.995Z</time><hdop>6.625</hdop><vdop>7.187</vdop><extensions><gom:speed>0.642</gom:speed></extensions></trkpt>
   <trkpt lat="59.0658234593" lon="30.030191217"><ele>72.542</ele><time>2026-04-20T18:52:57.039Z</time><hdop>6.875</hdop><vdop>7.187</vdop><extensions><gom:speed>0.615</gom:speed></extensions></trkpt>
   <trkpt lat="59.065822663" lon="30.0301826675"><ele>72.614</ele><time>2026-04-20T18:52:57.987Z</time><hdop>7.062</hdop><vdop>7.375</vdop><extensions><gom:speed>0.521</gom:speed></extensions></trkpt>
   <trkpt lat="59.0658222858" lon="30.0301777222"><ele>72.657</ele><time>2026-04-20T18:52:58.917Z</time><hdop>7.375</hdop><vdop>7.375</vdop><extensions><gom:speed>0.434</gom:speed></extensions></trkpt>
   <trkpt lat="59.065823585" lon="30.0301761296"><ele>72.723</ele><time>2026-04-20T18:52:59.541Z</time><hdop>7.687</hdop><vdop>7.312</vdop><extensions><gom:speed>0.416</gom:speed></extensions></trkpt>
   <trkpt lat="59.0658266863" lon="30.0301740341"><ele>72.797</ele><time>2026-04-20T18:53:00.001Z</time><hdop>7.812</hdop><vdop>7.0</vdop><extensions><gom:speed>0.428</gom:speed></extensions></trkpt>
   <trkpt lat="59.0658278598" lon="30.0301753752"><ele>72.842</ele><time>2026-04-20T18:53:00.754Z</time><hdop>8.062</hdop><vdop>7.0</vdop><extensions><gom:speed>0.393</gom:speed></extensions></trkpt>
   <trkpt lat="59.0658310868" lon="30.0301775545"><ele>72.899</ele><time>2026-04-20T18:53:02.057Z</time><hdop>8.25</hdop><vdop>6.75</vdop><extensions><gom:speed>0.374</gom:speed></extensions></trkpt>
   <trkpt lat="59.0658347748" lon="30.030197252"><ele>73.001</ele><time>2026-04-20T18:53:02.962Z</time><hdop>8.187</hdop><vdop>7.062</vdop><extensions><gom:speed>0.343</gom:speed></extensions></trkpt>
   <trkpt lat="59.0658338947" lon="30.0301988446"><ele>73.076</ele><time>2026-04-20T18:53:04.028Z</time><hdop>8.187</hdop><vdop>7.0</vdop><extensions><gom:speed>0.204</gom:speed></extensions></trkpt>
   <trkpt lat="59.0658324698" lon="30.0301959947"><ele>73.131</ele><time>2026-04-20T18:53:04.976Z</time><hdop>8.187</hdop><vdop>7.25</vdop><extensions><gom:speed>0.142</gom:speed></extensions></trkpt>
   <trkpt lat="59.0658309611" lon="30.0301948213"><ele>73.164</ele><time>2026-04-20T18:53:05.805Z</time><hdop>8.187</hdop><vdop>7.25</vdop><extensions><gom:speed>0.126</gom:speed></extensions></trkpt>
   <trkpt lat="59.0658301648" lon="30.0301931449"><ele>73.211</ele><time>2026-04-20T18:53:06.990Z</time><hdop>7.812</hdop><vdop>7.062</vdop><extensions><gom:speed>0.13</gom:speed></extensions></trkpt>
   <trkpt lat="59.0658302905" lon="30.0301913847"><ele>73.262</ele><time>2026-04-20T18:53:08.057Z</time><hdop>7.875</hdop><vdop>6.687</vdop><extensions><gom:speed>0.144</gom:speed></extensions></trkpt>
   <trkpt lat="59.0658299971" lon="30.0301876966"><ele>73.306</ele><time>2026-04-20T18:53:09.004Z</time><hdop>8.0</hdop><vdop>6.625</vdop><extensions><gom:speed>0.18</gom:speed></extensions></trkpt>
   <trkpt lat="59.0658309611" lon="30.0301828351"><ele>73.364</ele><time>2026-04-20T18:53:09.951Z</time><hdop>8.125</hdop><vdop>6.812</vdop><extensions><gom:speed>0.24</gom:speed></extensions></trkpt>
   <trkpt lat="59.0658318831" lon="30.0301810749"><ele>73.398</ele><time>2026-04-20T18:53:10.517Z</time><hdop>8.25</hdop><vdop>6.812</vdop><extensions><gom:speed>0.276</gom:speed></extensions></trkpt>
   <trkpt lat="59.0658331823" lon="30.0301794824"><ele>73.436</ele><time>2026-04-20T18:53:11.017Z</time><hdop>8.312</hdop><vdop>6.812</vdop><extensions><gom:speed>0.285</gom:speed></extensions></trkpt>
   <trkpt lat="59.065834691" lon="30.0301774707"><ele>73.459</ele><time>2026-04-20T18:53:11.553Z</time><hdop>8.437</hdop><vdop>6.812</vdop><extensions><gom:speed>0.335</gom:speed></extensions></trkpt>
   <trkpt lat="59.0658362836" lon="30.0301755429"><ele>73.482</ele><time>2026-04-20T18:53:12.084Z</time><hdop>8.5</hdop><vdop>6.875</vdop><extensions><gom:speed>0.347</gom:speed></extensions></trkpt>
   <trkpt lat="59.0658392592" lon="30.0301712681"><ele>73.496</ele><time>2026-04-20T18:53:12.560Z</time><hdop>8.625</hdop><vdop>6.875</vdop><extensions><gom:speed>0.364</gom:speed></extensions></trkpt>
   <trkpt lat="59.065840265" lon="30.0301698432"><ele>73.545</ele><time>2026-04-20T18:53:13.032Z</time><hdop>8.625</hdop><vdop>6.562</vdop><extensions><gom:speed>0.373</gom:speed></extensions></trkpt>
   <trkpt lat="59.0658433663" lon="30.0301667419"><ele>73.583</ele><time>2026-04-20T18:53:13.979Z</time><hdop>8.812</hdop><vdop>6.312</vdop><extensions><gom:speed>0.415</gom:speed></extensions></trkpt>
   <trkpt lat="59.0658480602" lon="30.0301807397"><ele>75.306</ele><time>2026-04-20T18:53:15.075Z</time><hdop>8.812</hdop><vdop>5.5</vdop><extensions><gom:speed>0.362</gom:speed></extensions></trkpt>
   <trkpt lat="59.0658535922" lon="30.030198174"><ele>76.858</ele><time>2026-04-20T18:53:16.075Z</time><hdop>8.562</hdop><vdop>5.125</vdop><extensions><gom:speed>0.351</gom:speed></extensions></trkpt>
   <trkpt lat="59.0658595853" lon="30.0302153569"><ele>78.1</ele><time>2026-04-20T18:53:17.075Z</time><hdop>8.125</hdop><vdop>4.75</vdop><extensions><gom:speed>0.338</gom:speed></extensions></trkpt>
   <trkpt lat="59.0658631895" lon="30.0302247447"><ele>78.063</ele><time>2026-04-20T18:53:18.075Z</time><hdop>7.687</hdop><vdop>4.5</vdop><extensions><gom:speed>0.196</gom:speed></extensions></trkpt>
   <trkpt lat="59.0658668775" lon="30.0302297738"><ele>77.99</ele><time>2026-04-20T18:53:19.075Z</time><hdop>6.875</hdop><vdop>6.0</vdop><extensions><gom:speed>0.135</gom:speed></extensions></trkpt>
   <trkpt lat="59.0658664584" lon="30.0302308634"><ele>77.22</ele><time>2026-04-20T18:53:20.020Z</time><hdop>6.437</hdop><vdop>6.0</vdop><extensions><gom:speed>0.087</gom:speed></extensions></trkpt>
   <trkpt lat="59.0658684701" lon="30.0302354735"><ele>76.632</ele><time>2026-04-20T18:53:21.075Z</time><hdop>5.937</hdop><vdop>6.0</vdop><extensions><gom:speed>0.081</gom:speed></extensions></trkpt>
   <trkpt lat="59.065868973" lon="30.0302386586"><ele>76.281</ele><time>2026-04-20T18:53:21.701Z</time><hdop>5.5</hdop><vdop>6.0</vdop><extensions><gom:speed>0.029</gom:speed></extensions></trkpt>
   <trkpt lat="59.0658687635" lon="30.0302415923"><ele>76.067</ele><time>2026-04-20T18:53:22.640Z</time><hdop>5.187</hdop><vdop>5.937</vdop><extensions><gom:speed>0.083</gom:speed></extensions></trkpt>
   <trkpt lat="59.0658692664" lon="30.0302423466"><ele>74.094</ele><time>2026-04-20T18:53:23.459Z</time><hdop>5.125</hdop><vdop>5.625</vdop><extensions><gom:speed>0.102</gom:speed></extensions></trkpt>
   <trkpt lat="59.0658723677" lon="30.0302445259"><ele>72.333</ele><time>2026-04-20T18:53:24.075Z</time><hdop>5.125</hdop><vdop>5.562</vdop><extensions><gom:speed>0.145</gom:speed></extensions></trkpt>
   <trkpt lat="59.0658791989" lon="30.0302470405"><ele>70.407</ele><time>2026-04-20T18:53:25.076Z</time><hdop>5.0</hdop><vdop>5.312</vdop><extensions><gom:speed>0.194</gom:speed></extensions></trkpt>
   <trkpt lat="59.0658845633" lon="30.0302447774"><ele>68.761</ele><time>2026-04-20T18:53:26.075Z</time><hdop>4.937</hdop><vdop>5.375</vdop><extensions><gom:speed>0.247</gom:speed></extensions></trkpt>
   <trkpt lat="59.0658891734" lon="30.0302431848"><ele>67.341</ele><time>2026-04-20T18:53:27.075Z</time><hdop>4.875</hdop><vdop>6.437</vdop><extensions><gom:speed>0.19</gom:speed></extensions></trkpt>
   <trkpt lat="59.0658938673" lon="30.0302427657"><ele>65.925</ele><time>2026-04-20T18:53:28.075Z</time><hdop>4.75</hdop><vdop>6.0</vdop><extensions><gom:speed>0.179</gom:speed></extensions></trkpt>
   <trkpt lat="59.0659003632" lon="30.0302425981"><ele>65.007</ele><time>2026-04-20T18:53:29.076Z</time><hdop>4.625</hdop><vdop>5.562</vdop><extensions><gom:speed>0.229</gom:speed></extensions></trkpt>
   <trkpt lat="59.0659053924" lon="30.0302435201"><ele>64.458</ele><time>2026-04-20T18:53:29.993Z</time><hdop>4.5</hdop><vdop>5.562</vdop><extensions><gom:speed>0.278</gom:speed></extensions></trkpt>
   <trkpt lat="59.0659123913" lon="30.0302392453"><ele>63.326</ele><time>2026-04-20T18:53:30.563Z</time><hdop>4.562</hdop><vdop>5.375</vdop><extensions><gom:speed>0.412</gom:speed></extensions></trkpt>
   <trkpt lat="59.0659248803" lon="30.0302314502"><ele>62.844</ele><time>2026-04-20T18:53:31.075Z</time><hdop>4.562</hdop><vdop>5.187</vdop><extensions><gom:speed>0.592</gom:speed></extensions></trkpt>
   <trkpt lat="59.0659315858" lon="30.0302246608"><ele>62.556</ele><time>2026-04-20T18:53:31.572Z</time><hdop>4.625</hdop><vdop>5.187</vdop><extensions><gom:speed>0.764</gom:speed></extensions></trkpt>
   <trkpt lat="59.0659398839" lon="30.030216698"><ele>62.235</ele><time>2026-04-20T18:53:32.076Z</time><hdop>4.687</hdop><vdop>5.0</vdop><extensions><gom:speed>0.833</gom:speed></extensions></trkpt>
   <trkpt lat="59.0659517862" lon="30.0302100763"><ele>62.042</ele><time>2026-04-20T18:53:33.073Z</time><hdop>4.875</hdop><vdop>5.0</vdop><extensions><gom:speed>0.881</gom:speed></extensions></trkpt>
   <trkpt lat="59.0659635628" lon="30.0301998504"><ele>61.966</ele><time>2026-04-20T18:53:34.021Z</time><hdop>5.062</hdop><vdop>4.687</vdop><extensions><gom:speed>0.861</gom:speed></extensions></trkpt>
   <trkpt lat="59.0659724895" lon="30.0301907979"><ele>61.689</ele><time>2026-04-20T18:53:34.842Z</time><hdop>5.312</hdop><vdop>4.437</vdop><extensions><gom:speed>0.825</gom:speed></extensions></trkpt>
   <trkpt lat="59.0659801589" lon="30.0301820808"><ele>61.593</ele><time>2026-04-20T18:53:35.738Z</time><hdop>5.5</hdop><vdop>4.25</vdop><extensions><gom:speed>0.777</gom:speed></extensions></trkpt>
   <trkpt lat="59.0659832602" lon="30.0301770516"><ele>61.137</ele><time>2026-04-20T18:53:36.723Z</time><hdop>5.687</hdop><vdop>5.75</vdop><extensions><gom:speed>0.722</gom:speed></extensions></trkpt>
   <trkpt lat="59.0659900915" lon="30.0301634729"><ele>60.435</ele><time>2026-04-20T18:53:38.026Z</time><hdop>6.0</hdop><vdop>5.562</vdop><extensions><gom:speed>0.584</gom:speed></extensions></trkpt>
   <trkpt lat="59.0659915583" lon="30.0301602878"><ele>59.916</ele><time>2026-04-20T18:53:38.974Z</time><hdop>6.25</hdop><vdop>5.562</vdop><extensions><gom:speed>0.482</gom:speed></extensions></trkpt>
   <trkpt lat="59.065991265" lon="30.0301630538"><ele>59.459</ele><time>2026-04-20T18:53:40.075Z</time><hdop>6.437</hdop><vdop>5.625</vdop><extensions><gom:speed>0.339</gom:speed></extensions></trkpt>
   <trkpt lat="59.0659905944" lon="30.030164395"><ele>59.125</ele><time>2026-04-20T18:53:40.988Z</time><hdop>6.687</hdop><vdop>5.562</vdop><extensions><gom:speed>0.249</gom:speed></extensions></trkpt>
   <trkpt lat="59.0659902591" lon="30.030165317"><ele>58.926</ele><time>2026-04-20T18:53:41.642Z</time><hdop>6.812</hdop><vdop>5.562</vdop><extensions><gom:speed>0.197</gom:speed></extensions></trkpt>
   <trkpt lat="59.0659902591" lon="30.0301668257"><ele>58.684</ele><time>2026-04-20T18:53:42.445Z</time><hdop>6.875</hdop><vdop>5.437</vdop><extensions><gom:speed>0.166</gom:speed></extensions></trkpt>
   <trkpt lat="59.0659902591" lon="30.030167161"><ele>58.54</ele><time>2026-04-20T18:53:43.001Z</time><hdop>6.875</hdop><vdop>5.437</vdop><extensions><gom:speed>0.176</gom:speed></extensions></trkpt>
   <trkpt lat="59.0659913907" lon="30.0301670772"><ele>58.366</ele><time>2026-04-20T18:53:43.618Z</time><hdop>6.937</hdop><vdop>5.312</vdop><extensions><gom:speed>0.171</gom:speed></extensions></trkpt>
   <trkpt lat="59.0659917679" lon="30.0301676639"><ele>58.097</ele><time>2026-04-20T18:53:44.121Z</time><hdop>7.0</hdop><vdop>5.375</vdop><extensions><gom:speed>0.189</gom:speed></extensions></trkpt>
   <trkpt lat="59.0659926899" lon="30.0301673286"><ele>57.808</ele><time>2026-04-20T18:53:45.015Z</time><hdop>7.062</hdop><vdop>5.25</vdop><extensions><gom:speed>0.197</gom:speed></extensions></trkpt>
   <trkpt lat="59.0659937795" lon="30.0301655684"><ele>57.643</ele><time>2026-04-20T18:53:45.963Z</time><hdop>7.187</hdop><vdop>5.375</vdop><extensions><gom:speed>0.177</gom:speed></extensions></trkpt>
   <trkpt lat="59.0659942825" lon="30.0301639759"><ele>57.755</ele><time>2026-04-20T18:53:47.030Z</time><hdop>7.437</hdop><vdop>5.312</vdop><extensions><gom:speed>0.175</gom:speed></extensions></trkpt>
   <trkpt lat="59.0659939891" lon="30.0301637244"><ele>57.821</ele><time>2026-04-20T18:53:47.614Z</time><hdop>7.562</hdop><vdop>5.312</vdop><extensions><gom:speed>0.109</gom:speed></extensions></trkpt>
   <trkpt lat="59.0659943663" lon="30.0301626348"><ele>58.143</ele><time>2026-04-20T18:53:48.623Z</time><hdop>7.625</hdop><vdop>5.375</vdop><extensions><gom:speed>0.128</gom:speed></extensions></trkpt>
   <trkpt lat="59.0659937795" lon="30.0301651493"><ele>58.541</ele><time>2026-04-20T18:53:49.075Z</time><hdop>7.562</hdop><vdop>5.312</vdop><extensions><gom:speed>0.142</gom:speed></extensions></trkpt>
   <trkpt lat="59.06599357" lon="30.0301666581"><ele>58.778</ele><time>2026-04-20T18:53:49.621Z</time><hdop>7.562</hdop><vdop>5.312</vdop><extensions><gom:speed>0.147</gom:speed></extensions></trkpt>
   <trkpt lat="59.0659938634" lon="30.0301656522"><ele>59.052</ele><time>2026-04-20T18:53:50.695Z</time><hdop>7.5</hdop><vdop>5.25</vdop><extensions><gom:speed>0.156</gom:speed></extensions></trkpt>
   <trkpt lat="59.0659960846" lon="30.0301651493"><ele>58.334</ele><time>2026-04-20T18:53:51.761Z</time><hdop>7.25</hdop><vdop>4.75</vdop><extensions><gom:speed>0.151</gom:speed></extensions></trkpt>
   <trkpt lat="59.0659991859" lon="30.030163892"><ele>57.848</ele><time>2026-04-20T18:53:52.737Z</time><hdop>6.937</hdop><vdop>4.687</vdop><extensions><gom:speed>0.152</gom:speed></extensions></trkpt>
   <trkpt lat="59.0660026644" lon="30.0301612936"><ele>57.115</ele><time>2026-04-20T18:53:53.775Z</time><hdop>6.5</hdop><vdop>4.312</vdop><extensions><gom:speed>0.21</gom:speed></extensions></trkpt>
   <trkpt lat="59.0660067715" lon="30.0301578571"><ele>56.298</ele><time>2026-04-20T18:53:54.920Z</time><hdop>6.25</hdop><vdop>4.75</vdop><extensions><gom:speed>0.223</gom:speed></extensions></trkpt>
   <trkpt lat="59.0660112977" lon="30.0301556778"><ele>55.268</ele><time>2026-04-20T18:53:55.975Z</time><hdop>5.875</hdop><vdop>4.625</vdop><extensions><gom:speed>0.221</gom:speed></extensions></trkpt>
   <trkpt lat="59.0660137704" lon="30.0301538338"><ele>54.041</ele><time>2026-04-20T18:53:56.698Z</time><hdop>5.687</hdop><vdop>4.562</vdop><extensions><gom:speed>0.206</gom:speed></extensions></trkpt>
   <trkpt lat="59.0660146924" lon="30.0301503972"><ele>52.409</ele><time>2026-04-20T18:53:58.046Z</time><hdop>5.5</hdop><vdop>4.812</vdop><extensions><gom:speed>0.169</gom:speed></extensions></trkpt>
   <trkpt lat="59.0660161592" lon="30.0301491399"><ele>51.282</ele><time>2026-04-20T18:53:59.075Z</time><hdop>5.437</hdop><vdop>4.875</vdop><extensions><gom:speed>0.135</gom:speed></extensions></trkpt>
   <trkpt lat="59.0660161592" lon="30.0301489722"><ele>51.057</ele><time>2026-04-20T18:53:59.941Z</time><hdop>5.375</hdop><vdop>4.875</vdop><extensions><gom:speed>0.108</gom:speed></extensions></trkpt>
   <trkpt lat="59.0660170812" lon="30.030148637"><ele>50.812</ele><time>2026-04-20T18:54:01.076Z</time><hdop>5.25</hdop><vdop>4.75</vdop><extensions><gom:speed>0.116</gom:speed></extensions></trkpt>
   <trkpt lat="59.0660165783" lon="30.0301499781"><ele>50.694</ele><time>2026-04-20T18:54:01.956Z</time><hdop>5.312</hdop><vdop>4.812</vdop><extensions><gom:speed>0.107</gom:speed></extensions></trkpt>
   <trkpt lat="59.066017165" lon="30.0301490561"><ele>51.196</ele><time>2026-04-20T18:54:03.075Z</time><hdop>5.25</hdop><vdop>4.937</vdop><extensions><gom:speed>0.131</gom:speed></extensions></trkpt>
   <trkpt lat="59.066017668" lon="30.030146793"><ele>51.667</ele><time>2026-04-20T18:54:04.075Z</time><hdop>5.187</hdop><vdop>4.875</vdop><extensions><gom:speed>0.177</gom:speed></extensions></trkpt>
   <trkpt lat="59.0660169974" lon="30.0301443622"><ele>52.21</ele><time>2026-04-20T18:54:05.036Z</time><hdop>5.187</hdop><vdop>4.687</vdop><extensions><gom:speed>0.163</gom:speed></extensions></trkpt>
   <trkpt lat="59.0660178775" lon="30.0301394169"><ele>53.021</ele><time>2026-04-20T18:54:06.075Z</time><hdop>5.125</hdop><vdop>4.625</vdop><extensions><gom:speed>0.195</gom:speed></extensions></trkpt>
   <trkpt lat="59.0660182966" lon="30.0301367347"><ele>53.732</ele><time>2026-04-20T18:54:07.049Z</time><hdop>5.125</hdop><vdop>4.937</vdop><extensions><gom:speed>0.188</gom:speed></extensions></trkpt>
   <trkpt lat="59.0660183804" lon="30.0301357288"><ele>54.157</ele><time>2026-04-20T18:54:07.576Z</time><hdop>5.062</hdop><vdop>4.937</vdop><extensions><gom:speed>0.188</gom:speed></extensions></trkpt>
   <trkpt lat="59.0660202664" lon="30.0301325437"><ele>54.656</ele><time>2026-04-20T18:54:08.075Z</time><hdop>5.062</hdop><vdop>5.187</vdop><extensions><gom:speed>0.195</gom:speed></extensions></trkpt>
   <trkpt lat="59.0660231581" lon="30.0301278499"><ele>54.611</ele><time>2026-04-20T18:54:09.075Z</time><hdop>5.062</hdop><vdop>5.0</vdop><extensions><gom:speed>0.213</gom:speed></extensions></trkpt>
   <trkpt lat="59.0660239963" lon="30.0301237427"><ele>54.584</ele><time>2026-04-20T18:54:09.994Z</time><hdop>5.062</hdop><vdop>5.0</vdop><extensions><gom:speed>0.207</gom:speed></extensions></trkpt>
   <trkpt lat="59.0660275586" lon="30.0301186298"><ele>54.354</ele><time>2026-04-20T18:54:10.960Z</time><hdop>5.0</hdop><vdop>4.875</vdop><extensions><gom:speed>0.236</gom:speed></extensions></trkpt>
   <trkpt lat="59.0660328811" lon="30.0301129301"><ele>53.716</ele><time>2026-04-20T18:54:11.898Z</time><hdop>5.0</hdop><vdop>5.062</vdop><extensions><gom:speed>0.324</gom:speed></extensions></trkpt>
   <trkpt lat="59.0660364853" lon="30.0301052187"><ele>53.109</ele><time>2026-04-20T18:54:12.778Z</time><hdop>5.0</hdop><vdop>5.062</vdop><extensions><gom:speed>0.435</gom:speed></extensions></trkpt>
   <trkpt lat="59.0660429813" lon="30.0300961663"><ele>53.036</ele><time>2026-04-20T18:54:13.458Z</time><hdop>5.062</hdop><vdop>5.062</vdop><extensions><gom:speed>0.551</gom:speed></extensions></trkpt>
   <trkpt lat="59.0660439871" lon="30.0300938193"><ele>52.992</ele><time>2026-04-20T18:54:13.919Z</time><hdop>5.125</hdop><vdop>5.062</vdop><extensions><gom:speed>0.56</gom:speed></extensions></trkpt>
   <trkpt lat="59.0660504831" lon="30.0300777261"><ele>53.053</ele><time>2026-04-20T18:54:15.058Z</time><hdop>5.25</hdop><vdop>5.0</vdop><extensions><gom:speed>0.594</gom:speed></extensions></trkpt>
   <trkpt lat="59.0660558894" lon="30.0300717749"><ele>52.949</ele><time>2026-04-20T18:54:15.975Z</time><hdop>5.312</hdop><vdop>4.75</vdop><extensions><gom:speed>0.589</gom:speed></extensions></trkpt>
   <trkpt lat="59.0660615891" lon="30.0300670811"><ele>52.71</ele><time>2026-04-20T18:54:16.973Z</time><hdop>5.375</hdop><vdop>4.687</vdop><extensions><gom:speed>0.528</gom:speed></extensions></trkpt>
   <trkpt lat="59.0660656963" lon="30.0300673325"><ele>52.234</ele><time>2026-04-20T18:54:17.947Z</time><hdop>5.312</hdop><vdop>7.5</vdop><extensions><gom:speed>0.419</gom:speed></extensions></trkpt>
   <trkpt lat="59.0660677917" lon="30.0300679192"><ele>51.986</ele><time>2026-04-20T18:54:19.014Z</time><hdop>5.375</hdop><vdop>7.5</vdop><extensions><gom:speed>0.347</gom:speed></extensions></trkpt>
   <trkpt lat="59.0660681689" lon="30.0300635607"><ele>51.838</ele><time>2026-04-20T18:54:20.055Z</time><hdop>5.437</hdop><vdop>7.5</vdop><extensions><gom:speed>0.336</gom:speed></extensions></trkpt>
   <trkpt lat="59.0660693843" lon="30.0300583639"><ele>51.751</ele><time>2026-04-20T18:54:20.960Z</time><hdop>5.5</hdop><vdop>7.187</vdop><extensions><gom:speed>0.295</gom:speed></extensions></trkpt>
   <trkpt lat="59.0660703901" lon="30.0300574419"><ele>51.575</ele><time>2026-04-20T18:54:21.760Z</time><hdop>5.562</hdop><vdop>6.937</vdop><extensions><gom:speed>0.307</gom:speed></extensions></trkpt>
   <trkpt lat="59.0660716893" lon="30.0300541729"><ele>51.171</ele><time>2026-04-20T18:54:22.797Z</time><hdop>5.625</hdop><vdop>7.062</vdop><extensions><gom:speed>0.301</gom:speed></extensions></trkpt>
   <trkpt lat="59.066072779" lon="30.0300503172"><ele>50.739</ele><time>2026-04-20T18:54:23.734Z</time><hdop>5.687</hdop><vdop>6.625</vdop><extensions><gom:speed>0.285</gom:speed></extensions></trkpt>
   <trkpt lat="59.0660743715" lon="30.0300492276"><ele>50.425</ele><time>2026-04-20T18:54:24.455Z</time><hdop>5.75</hdop><vdop>6.437</vdop><extensions><gom:speed>0.321</gom:speed></extensions></trkpt>
   <trkpt lat="59.0660763832" lon="30.0300471321"><ele>51.091</ele><time>2026-04-20T18:54:25.075Z</time><hdop>5.687</hdop><vdop>5.75</vdop><extensions><gom:speed>0.329</gom:speed></extensions></trkpt>
   <trkpt lat="59.066079694" lon="30.030043947"><ele>51.251</ele><time>2026-04-20T18:54:26.075Z</time><hdop>5.625</hdop><vdop>5.437</vdop><extensions><gom:speed>0.321</gom:speed></extensions></trkpt>
   <trkpt lat="59.0660842622" lon="30.0300412648"><ele>50.667</ele><time>2026-04-20T18:54:27.076Z</time><hdop>5.625</hdop><vdop>5.25</vdop><extensions><gom:speed>0.379</gom:speed></extensions></trkpt>
   <trkpt lat="59.0660898781" lon="30.0300390855"><ele>50.647</ele><time>2026-04-20T18:54:28.075Z</time><hdop>5.5</hdop><vdop>5.187</vdop><extensions><gom:speed>0.364</gom:speed></extensions></trkpt>
   <trkpt lat="59.0660966674" lon="30.0300357327"><ele>50.635</ele><time>2026-04-20T18:54:29.037Z</time><hdop>5.437</hdop><vdop>5.187</vdop><extensions><gom:speed>0.583</gom:speed></extensions></trkpt>
   <trkpt lat="59.0661071867" lon="30.0300354813"><ele>51.001</ele><time>2026-04-20T18:54:30.052Z</time><hdop>5.375</hdop><vdop>6.062</vdop><extensions><gom:speed>0.694</gom:speed></extensions></trkpt>
   <trkpt lat="59.0661143951" lon="30.0300376606"><ele>51.491</ele><time>2026-04-20T18:54:31.000Z</time><hdop>5.437</hdop><vdop>6.062</vdop><extensions><gom:speed>0.676</gom:speed></extensions></trkpt>
   <trkpt lat="59.0661198853" lon="30.0300405942"><ele>51.766</ele><time>2026-04-20T18:54:31.842Z</time><hdop>5.562</hdop><vdop>6.062</vdop><extensions><gom:speed>0.628</gom:speed></extensions></trkpt>
   <trkpt lat="59.0661235733" lon="30.0300440308"><ele>52.009</ele><time>2026-04-20T18:54:32.399Z</time><hdop>5.625</hdop><vdop>5.625</vdop><extensions><gom:speed>0.694</gom:speed></extensions></trkpt>
   <trkpt lat="59.0661310751" lon="30.0300496467"><ele>52.155</ele><time>2026-04-20T18:54:32.974Z</time><hdop>5.75</hdop><vdop>5.625</vdop><extensions><gom:speed>0.706</gom:speed></extensions></trkpt>
   <trkpt lat="59.0661374873" lon="30.0300530833"><ele>52.996</ele><time>2026-04-20T18:54:33.736Z</time><hdop>5.937</hdop><vdop>5.187</vdop><extensions><gom:speed>0.749</gom:speed></extensions></trkpt>
   <trkpt lat="59.0661438994" lon="30.0300561846"><ele>53.097</ele><time>2026-04-20T18:54:34.593Z</time><hdop>6.0</hdop><vdop>5.187</vdop><extensions><gom:speed>0.641</gom:speed></extensions></trkpt>
   <trkpt lat="59.0661472941" lon="30.0300592859"><ele>52.941</ele><time>2026-04-20T18:54:35.075Z</time><hdop>6.0</hdop><vdop>5.5</vdop><extensions><gom:speed>0.633</gom:speed></extensions></trkpt>
   <trkpt lat="59.0661539996" lon="30.0300622196"><ele>52.652</ele><time>2026-04-20T18:54:36.075Z</time><hdop>5.875</hdop><vdop>5.375</vdop><extensions><gom:speed>0.623</gom:speed></extensions></trkpt>
   <trkpt lat="59.066162172" lon="30.0300673325"><ele>52.487</ele><time>2026-04-20T18:54:37.075Z</time><hdop>5.812</hdop><vdop>5.187</vdop><extensions><gom:speed>0.676</gom:speed></extensions></trkpt>
   <trkpt lat="59.0661693804" lon="30.0300669972"><ele>52.388</ele><time>2026-04-20T18:54:38.002Z</time><hdop>5.75</hdop><vdop>5.187</vdop><extensions><gom:speed>0.692</gom:speed></extensions></trkpt>
   <trkpt lat="59.0661717693" lon="30.0300705176"><ele>52.61</ele><time>2026-04-20T18:54:38.559Z</time><hdop>5.687</hdop><vdop>5.25</vdop><extensions><gom:speed>0.675</gom:speed></extensions></trkpt>
   <trkpt lat="59.0661787681" lon="30.0300711882"><ele>53.031</ele><time>2026-04-20T18:54:39.075Z</time><hdop>5.562</hdop><vdop>5.125</vdop><extensions><gom:speed>0.669</gom:speed></extensions></trkpt>
   <trkpt lat="59.0661846774" lon="30.0300733675"><ele>53.48</ele><time>2026-04-20T18:54:40.075Z</time><hdop>5.5</hdop><vdop>5.125</vdop><extensions><gom:speed>0.558</gom:speed></extensions></trkpt>
   <trkpt lat="59.0661889941" lon="30.0300738704"><ele>53.749</ele><time>2026-04-20T18:54:41.081Z</time><hdop>5.375</hdop><vdop>5.125</vdop><extensions><gom:speed>0.459</gom:speed></extensions></trkpt>
   <trkpt lat="59.0661943585" lon="30.0300725293"><ele>53.591</ele><time>2026-04-20T18:54:41.996Z</time><hdop>5.312</hdop><vdop>5.25</vdop><extensions><gom:speed>0.499</gom:speed></extensions></trkpt>
   <trkpt lat="59.0662006868" lon="30.0300729484"><ele>53.232</ele><time>2026-04-20T18:54:42.739Z</time><hdop>5.187</hdop><vdop>5.187</vdop><extensions><gom:speed>0.556</gom:speed></extensions></trkpt>
   <trkpt lat="59.0662064703" lon="30.0300725293"><ele>53.162</ele><time>2026-04-20T18:54:43.536Z</time><hdop>5.0</hdop><vdop>5.062</vdop><extensions><gom:speed>0.542</gom:speed></extensions></trkpt>
   <trkpt lat="59.0662103679" lon="30.0300714396"><ele>53.418</ele><time>2026-04-20T18:54:44.075Z</time><hdop>4.937</hdop><vdop>5.062</vdop><extensions><gom:speed>0.549</gom:speed></extensions></trkpt>
   <trkpt lat="59.0662132597" lon="30.0300701824"><ele>53.57</ele><time>2026-04-20T18:54:44.838Z</time><hdop>4.937</hdop><vdop>5.062</vdop><extensions><gom:speed>0.568</gom:speed></extensions></trkpt>
   <trkpt lat="59.0662261678" lon="30.030062471"><ele>53.893</ele><time>2026-04-20T18:54:46.016Z</time><hdop>4.937</hdop><vdop>4.875</vdop><extensions><gom:speed>0.696</gom:speed></extensions></trkpt>
   <trkpt lat="59.0662351783" lon="30.0300572742"><ele>54.615</ele><time>2026-04-20T18:54:47.023Z</time><hdop>4.937</hdop><vdop>5.0</vdop><extensions><gom:speed>0.717</gom:speed></extensions></trkpt>
   <trkpt lat="59.066242764" lon="30.0300559331"><ele>54.872</ele><time>2026-04-20T18:54:47.939Z</time><hdop>5.0</hdop><vdop>4.812</vdop><extensions><gom:speed>0.673</gom:speed></extensions></trkpt>
   <trkpt lat="59.066250182" lon="30.0300572742"><ele>55.333</ele><time>2026-04-20T18:54:48.957Z</time><hdop>5.062</hdop><vdop>4.625</vdop><extensions><gom:speed>0.62</gom:speed></extensions></trkpt>
   <trkpt lat="59.0662520679" lon="30.0300560169"><ele>55.51</ele><time>2026-04-20T18:54:49.421Z</time><hdop>5.187</hdop><vdop>6.875</vdop><extensions><gom:speed>0.531</gom:speed></extensions></trkpt>
   <trkpt lat="59.0662550854" lon="30.0300572742"><ele>55.519</ele><time>2026-04-20T18:54:50.075Z</time><hdop>5.187</hdop><vdop>6.687</vdop><extensions><gom:speed>0.505</gom:speed></extensions></trkpt>
   <trkpt lat="59.0662565941" lon="30.0300583639"><ele>55.525</ele><time>2026-04-20T18:54:50.997Z</time><hdop>5.25</hdop><vdop>6.687</vdop><extensions><gom:speed>0.508</gom:speed></extensions></trkpt>
   <trkpt lat="59.0662669877" lon="30.030066662"><ele>55.442</ele><time>2026-04-20T18:54:52.075Z</time><hdop>5.312</hdop><vdop>6.562</vdop><extensions><gom:speed>0.689</gom:speed></extensions></trkpt>
   <trkpt lat="59.0662725616" lon="30.0300678354"><ele>55.393</ele><time>2026-04-20T18:54:52.877Z</time><hdop>5.437</hdop><vdop>6.562</vdop><extensions><gom:speed>0.702</gom:speed></extensions></trkpt>
   <trkpt lat="59.0662740704" lon="30.0300674163"><ele>55.64</ele><time>2026-04-20T18:54:54.075Z</time><hdop>5.562</hdop><vdop>6.187</vdop><extensions><gom:speed>0.486</gom:speed></extensions></trkpt>
   <trkpt lat="59.066274699" lon="30.0300662429"><ele>55.787</ele><time>2026-04-20T18:54:54.722Z</time><hdop>5.625</hdop><vdop>6.187</vdop><extensions><gom:speed>0.461</gom:speed></extensions></trkpt>
   <trkpt lat="59.0662771717" lon="30.0300618843"><ele>55.756</ele><time>2026-04-20T18:54:55.640Z</time><hdop>5.75</hdop><vdop>5.812</vdop><extensions><gom:speed>0.477</gom:speed></extensions></trkpt>
   <trkpt lat="59.0662782613" lon="30.0300623872"><ele>55.776</ele><time>2026-04-20T18:54:56.382Z</time><hdop>5.75</hdop><vdop>5.187</vdop><extensions><gom:speed>0.483</gom:speed></extensions></trkpt>
   <trkpt lat="59.0662800634" lon="30.0300617166"><ele>55.364</ele><time>2026-04-20T18:54:57.075Z</time><hdop>5.687</hdop><vdop>5.0</vdop><extensions><gom:speed>0.495</gom:speed></extensions></trkpt>
   <trkpt lat="59.0662851764" lon="30.0300574419"><ele>55.118</ele><time>2026-04-20T18:54:58.021Z</time><hdop>5.75</hdop><vdop>5.0</vdop><extensions><gom:speed>0.596</gom:speed></extensions></trkpt>
   <trkpt lat="59.0662933907" lon="30.0300524965"><ele>55.008</ele><time>2026-04-20T18:54:58.858Z</time><hdop>5.75</hdop><vdop>5.062</vdop><extensions><gom:speed>0.751</gom:speed></extensions></trkpt>
   <trkpt lat="59.0663012697" lon="30.030048557"><ele>54.944</ele><time>2026-04-20T18:54:59.678Z</time><hdop>5.687</hdop><vdop>5.125</vdop><extensions><gom:speed>0.814</gom:speed></extensions></trkpt>
   <trkpt lat="59.0663081847" lon="30.0300451205"><ele>55.121</ele><time>2026-04-20T18:55:00.437Z</time><hdop>5.562</hdop><vdop>5.312</vdop><extensions><gom:speed>0.853</gom:speed></extensions></trkpt>
   <trkpt lat="59.0663133815" lon="30.0300423544"><ele>54.95</ele><time>2026-04-20T18:55:01.075Z</time><hdop>5.437</hdop><vdop>5.312</vdop><extensions><gom:speed>0.857</gom:speed></extensions></trkpt>
   <trkpt lat="59.0663216796" lon="30.0300391693"><ele>54.368</ele><time>2026-04-20T18:55:02.075Z</time><hdop>5.375</hdop><vdop>5.562</vdop><extensions><gom:speed>0.828</gom:speed></extensions></trkpt>
   <trkpt lat="59.0663292652" lon="30.0300364871"><ele>53.986</ele><time>2026-04-20T18:55:03.075Z</time><hdop>5.187</hdop><vdop>5.562</vdop><extensions><gom:speed>0.739</gom:speed></extensions></trkpt>
   <trkpt lat="59.0663384853" lon="30.0300340564"><ele>53.758</ele><time>2026-04-20T18:55:04.062Z</time><hdop>5.062</hdop><vdop>5.562</vdop><extensions><gom:speed>0.73</gom:speed></extensions></trkpt>
   <trkpt lat="59.0663440593" lon="30.030030536"><ele>53.907</ele><time>2026-04-20T18:55:04.958Z</time><hdop>5.0</hdop><vdop>5.437</vdop><extensions><gom:speed>0.773</gom:speed></extensions></trkpt>
   <trkpt lat="59.066350681" lon="30.0300278537"><ele>54.009</ele><time>2026-04-20T18:55:05.778Z</time><hdop>5.062</hdop><vdop>5.437</vdop><extensions><gom:speed>0.818</gom:speed></extensions></trkpt>
   <trkpt lat="59.0663569674" lon="30.0300257583"><ele>53.938</ele><time>2026-04-20T18:55:06.519Z</time><hdop>5.062</hdop><vdop>5.375</vdop><extensions><gom:speed>0.826</gom:speed></extensions></trkpt>
   <trkpt lat="59.0663615774" lon="30.0300233275"><ele>53.709</ele><time>2026-04-20T18:55:07.075Z</time><hdop>5.062</hdop><vdop>5.5</vdop><extensions><gom:speed>0.831</gom:speed></extensions></trkpt>
   <trkpt lat="59.0663703784" lon="30.0300211482"><ele>53.695</ele><time>2026-04-20T18:55:08.075Z</time><hdop>5.125</hdop><vdop>5.437</vdop><extensions><gom:speed>0.82</gom:speed></extensions></trkpt>
   <trkpt lat="59.0663789699" lon="30.0300231599"><ele>54.363</ele><time>2026-04-20T18:55:09.076Z</time><hdop>5.125</hdop><vdop>5.437</vdop><extensions><gom:speed>0.8</gom:speed></extensions></trkpt>
   <trkpt lat="59.0663810654" lon="30.0300233275"><ele>54.763</ele><time>2026-04-20T18:55:09.595Z</time><hdop>5.187</hdop><vdop>5.437</vdop><extensions><gom:speed>0.775</gom:speed></extensions></trkpt>
   <trkpt lat="59.0663888605" lon="30.0300248363"><ele>55.289</ele><time>2026-04-20T18:55:10.075Z</time><hdop>5.187</hdop><vdop>5.312</vdop><extensions><gom:speed>0.743</gom:speed></extensions></trkpt>
   <trkpt lat="59.066394686" lon="30.0300240819"><ele>55.603</ele><time>2026-04-20T18:55:11.059Z</time><hdop>5.25</hdop><vdop>5.312</vdop><extensions><gom:speed>0.711</gom:speed></extensions></trkpt>
   <trkpt lat="59.066400679" lon="30.0300244172"><ele>55.763</ele><time>2026-04-20T18:55:11.819Z</time><hdop>5.25</hdop><vdop>5.187</vdop><extensions><gom:speed>0.72</gom:speed></extensions></trkpt>
   <trkpt lat="59.0664075941" lon="30.0300208968"><ele>55.673</ele><time>2026-04-20T18:55:12.718Z</time><hdop>5.312</hdop><vdop>5.125</vdop><extensions><gom:speed>0.748</gom:speed></extensions></trkpt>
   <trkpt lat="59.0664128747" lon="30.0300177955"><ele>55.302</ele><time>2026-04-20T18:55:13.399Z</time><hdop>5.375</hdop><vdop>7.5</vdop><extensions><gom:speed>0.752</gom:speed></extensions></trkpt>
   <trkpt lat="59.0664167723" lon="30.0300170411"><ele>55.153</ele><time>2026-04-20T18:55:13.978Z</time><hdop>5.437</hdop><vdop>7.125</vdop><extensions><gom:speed>0.695</gom:speed></extensions></trkpt>
   <trkpt lat="59.066422472" lon="30.0300187175"><ele>55.421</ele><time>2026-04-20T18:55:15.046Z</time><hdop>5.562</hdop><vdop>7.187</vdop><extensions><gom:speed>0.614</gom:speed></extensions></trkpt>
   <trkpt lat="59.0664239807" lon="30.030018466"><ele>55.581</ele><time>2026-04-20T18:55:15.755Z</time><hdop>5.75</hdop><vdop>7.187</vdop><extensions><gom:speed>0.589</gom:speed></extensions></trkpt>
   <trkpt lat="59.0664276688" lon="30.0300243333"><ele>56.763</ele><time>2026-04-20T18:55:16.657Z</time><hdop>5.875</hdop><vdop>7.25</vdop><extensions><gom:speed>0.487</gom:speed></extensions></trkpt>
   <trkpt lat="59.0664277945" lon="30.0300283567"><ele>57.68</ele><time>2026-04-20T18:55:17.120Z</time><hdop>5.937</hdop><vdop>7.187</vdop><extensions><gom:speed>0.46</gom:speed></extensions></trkpt>
   <trkpt lat="59.0664304767" lon="30.0300298654"><ele>58.228</ele><time>2026-04-20T18:55:17.822Z</time><hdop>5.937</hdop><vdop>7.187</vdop><extensions><gom:speed>0.462</gom:speed></extensions></trkpt>
   <trkpt lat="59.0664320693" lon="30.0300332182"><ele>58.752</ele><time>2026-04-20T18:55:18.543Z</time><hdop>5.937</hdop><vdop>7.062</vdop><extensions><gom:speed>0.475</gom:speed></extensions></trkpt>
   <trkpt lat="59.066434961" lon="30.0300367386"><ele>58.999</ele><time>2026-04-20T18:55:20.076Z</time><hdop>5.875</hdop><vdop>6.5</vdop><extensions><gom:speed>0.365</gom:speed></extensions></trkpt>
   <trkpt lat="59.0664366793" lon="30.0300370738"><ele>59.146</ele><time>2026-04-20T18:55:21.081Z</time><hdop>5.75</hdop><vdop>6.5</vdop><extensions><gom:speed>0.379</gom:speed></extensions></trkpt>
   <trkpt lat="59.066438188" lon="30.0300366547"><ele>58.83</ele><time>2026-04-20T18:55:21.701Z</time><hdop>5.75</hdop><vdop>6.312</vdop><extensions><gom:speed>0.347</gom:speed></extensions></trkpt>
   <trkpt lat="59.0664366793" lon="30.0300387502"><ele>58.62</ele><time>2026-04-20T18:55:22.412Z</time><hdop>5.812</hdop><vdop>6.125</vdop><extensions><gom:speed>0.319</gom:speed></extensions></trkpt>
   <trkpt lat="59.0664376851" lon="30.0300379959"><ele>58.406</ele><time>2026-04-20T18:55:22.981Z</time><hdop>5.812</hdop><vdop>6.375</vdop><extensions><gom:speed>0.332</gom:speed></extensions></trkpt>
   <trkpt lat="59.0664385652" lon="30.0300373253"><ele>58.112</ele><time>2026-04-20T18:55:24.075Z</time><hdop>5.812</hdop><vdop>6.687</vdop><extensions><gom:speed>0.33</gom:speed></extensions></trkpt>
   <trkpt lat="59.0664434686" lon="30.0300343916"><ele>57.936</ele><time>2026-04-20T18:55:24.939Z</time><hdop>5.812</hdop><vdop>6.687</vdop><extensions><gom:speed>0.538</gom:speed></extensions></trkpt>
   <trkpt lat="59.0664495874" lon="30.0300301169"><ele>57.909</ele><time>2026-04-20T18:55:25.859Z</time><hdop>5.812</hdop><vdop>7.062</vdop><extensions><gom:speed>0.663</gom:speed></extensions></trkpt>
   <trkpt lat="59.0664535688" lon="30.0300275185"><ele>57.897</ele><time>2026-04-20T18:55:26.500Z</time><hdop>5.75</hdop><vdop>7.25</vdop><extensions><gom:speed>0.684</gom:speed></extensions></trkpt>
   <trkpt lat="59.0664556643" lon="30.0300250877"><ele>58.198</ele><time>2026-04-20T18:55:27.076Z</time><hdop>5.687</hdop><vdop>7.375</vdop><extensions><gom:speed>0.666</gom:speed></extensions></trkpt>
   <trkpt lat="59.0664611964" lon="30.030017544"><ele>58.379</ele><time>2026-04-20T18:55:27.960Z</time><hdop>5.625</hdop><vdop>7.375</vdop><extensions><gom:speed>0.769</gom:speed></extensions></trkpt>
   <trkpt lat="59.0664675666" lon="30.0300088268"><ele>58.627</ele><time>2026-04-20T18:55:28.760Z</time><hdop>5.5</hdop><vdop>7.5</vdop><extensions><gom:speed>0.825</gom:speed></extensions></trkpt>
   <trkpt lat="59.0664713804" lon="30.0300025404"><ele>58.823</ele><time>2026-04-20T18:55:29.558Z</time><hdop>5.5</hdop><vdop>7.75</vdop><extensions><gom:speed>0.817</gom:speed></extensions></trkpt>
   <trkpt lat="59.0664736854" lon="30.0300003611"><ele>59.083</ele><time>2026-04-20T18:55:30.075Z</time><hdop>5.5</hdop><vdop>7.875</vdop><extensions><gom:speed>0.808</gom:speed></extensions></trkpt>
   <trkpt lat="59.0664785888" lon="30.0299937394"><ele>59.316</ele><time>2026-04-20T18:55:31.038Z</time><hdop>5.5</hdop><vdop>8.062</vdop><extensions><gom:speed>0.765</gom:speed></extensions></trkpt>
   <trkpt lat="59.0664826959" lon="30.0299844355"><ele>59.455</ele><time>2026-04-20T18:55:32.076Z</time><hdop>5.687</hdop><vdop>8.062</vdop><extensions><gom:speed>0.732</gom:speed></extensions></trkpt>
   <trkpt lat="59.066486384" lon="30.0299760536"><ele>59.606</ele><time>2026-04-20T18:55:32.835Z</time><hdop>5.75</hdop><vdop>8.125</vdop><extensions><gom:speed>0.724</gom:speed></extensions></trkpt>
   <trkpt lat="59.0664885633" lon="30.0299752992"><ele>60.06</ele><time>2026-04-20T18:55:33.998Z</time><hdop>5.875</hdop><vdop>7.187</vdop><extensions><gom:speed>0.544</gom:speed></extensions></trkpt>
   <trkpt lat="59.0664902816" lon="30.0299736228"><ele>60.426</ele><time>2026-04-20T18:55:34.946Z</time><hdop>6.0</hdop><vdop>7.0</vdop><extensions><gom:speed>0.369</gom:speed></extensions></trkpt>
   <trkpt lat="59.0664891919" lon="30.0299755507"><ele>60.644</ele><time>2026-04-20T18:55:35.719Z</time><hdop>6.125</hdop><vdop>7.0</vdop><extensions><gom:speed>0.253</gom:speed></extensions></trkpt>
   <trkpt lat="59.066488689" lon="30.0299771432"><ele>60.793</ele><time>2026-04-20T18:55:36.641Z</time><hdop>6.312</hdop><vdop>6.562</vdop><extensions><gom:speed>0.209</gom:speed></extensions></trkpt>
   <trkpt lat="59.0664839951" lon="30.0299847708"><ele>60.924</ele><time>2026-04-20T18:55:37.803Z</time><hdop>6.25</hdop><vdop>6.5</vdop><extensions><gom:speed>0.119</gom:speed></extensions></trkpt>
   <trkpt lat="59.0664804747" lon="30.0299897999"><ele>60.945</ele><time>2026-04-20T18:55:38.454Z</time><hdop>6.062</hdop><vdop>6.187</vdop><extensions><gom:speed>0.133</gom:speed></extensions></trkpt>
   <trkpt lat="59.0664794689" lon="30.0299915601"><ele>61.509</ele><time>2026-04-20T18:55:39.075Z</time><hdop>6.0</hdop><vdop>5.687</vdop><extensions><gom:speed>0.159</gom:speed></extensions></trkpt>
   <trkpt lat="59.0664794689" lon="30.0299905543"><ele>61.846</ele><time>2026-04-20T18:55:39.994Z</time><hdop>5.812</hdop><vdop>5.687</vdop><extensions><gom:speed>0.217</gom:speed></extensions></trkpt>
   <trkpt lat="59.0664808938" lon="30.0299860281"><ele>61.77</ele><time>2026-04-20T18:55:40.864Z</time><hdop>5.5</hdop><vdop>5.437</vdop><extensions><gom:speed>0.28</gom:speed></extensions></trkpt>
   <trkpt lat="59.0664843723" lon="30.0299825915"><ele>61.706</ele><time>2026-04-20T18:55:41.572Z</time><hdop>5.312</hdop><vdop>5.25</vdop><extensions><gom:speed>0.297</gom:speed></extensions></trkpt>
   <trkpt lat="59.0664879765" lon="30.0299802445"><ele>61.139</ele><time>2026-04-20T18:55:42.075Z</time><hdop>5.187</hdop><vdop>5.187</vdop><extensions><gom:speed>0.314</gom:speed></extensions></trkpt>
   <trkpt lat="59.0664915808" lon="30.0299741257"><ele>60.8</ele><time>2026-04-20T18:55:42.936Z</time><hdop>5.062</hdop><vdop>5.187</vdop><extensions><gom:speed>0.414</gom:speed></extensions></trkpt>
   <trkpt lat="59.0664971966" lon="30.0299639836"><ele>60.306</ele><time>2026-04-20T18:55:43.557Z</time><hdop>5.0</hdop><vdop>5.312</vdop><extensions><gom:speed>0.617</gom:speed></extensions></trkpt>
   <trkpt lat="59.066501681" lon="30.0299561885"><ele>59.84</ele><time>2026-04-20T18:55:44.075Z</time><hdop>5.0</hdop><vdop>5.5</vdop><extensions><gom:speed>0.613</gom:speed></extensions></trkpt>
   <trkpt lat="59.0665100629" lon="30.029938335"><ele>59.817</ele><time>2026-04-20T18:55:45.075Z</time><hdop>4.937</hdop><vdop>5.5</vdop><extensions><gom:speed>0.808</gom:speed></extensions></trkpt>
   <trkpt lat="59.0665172713" lon="30.0299220741"><ele>59.804</ele><time>2026-04-20T18:55:45.955Z</time><hdop>4.937</hdop><vdop>5.5</vdop><extensions><gom:speed>0.875</gom:speed></extensions></trkpt>
   <trkpt lat="59.0665254856" lon="30.0299122673"><ele>59.5</ele><time>2026-04-20T18:55:46.677Z</time><hdop>4.937</hdop><vdop>5.312</vdop><extensions><gom:speed>0.904</gom:speed></extensions></trkpt>
   <trkpt lat="59.066534077" lon="30.0299057294"><ele>59.085</ele><time>2026-04-20T18:55:47.408Z</time><hdop>4.875</hdop><vdop>5.312</vdop><extensions><gom:speed>0.893</gom:speed></extensions></trkpt>
   <trkpt lat="59.0665416626" lon="30.0299029634"><ele>59.007</ele><time>2026-04-20T18:55:48.075Z</time><hdop>4.812</hdop><vdop>5.25</vdop><extensions><gom:speed>0.885</gom:speed></extensions></trkpt>
   <trkpt lat="59.0665505894" lon="30.0299048912"><ele>58.961</ele><time>2026-04-20T18:55:48.976Z</time><hdop>4.75</hdop><vdop>5.25</vdop><extensions><gom:speed>0.892</gom:speed></extensions></trkpt>
   <trkpt lat="59.066559097" lon="30.0299099204"><ele>59.002</ele><time>2026-04-20T18:55:49.815Z</time><hdop>4.687</hdop><vdop>5.437</vdop><extensions><gom:speed>0.871</gom:speed></extensions></trkpt>
   <trkpt lat="59.0665676884" lon="30.0299183861"><ele>59.393</ele><time>2026-04-20T18:55:50.794Z</time><hdop>4.625</hdop><vdop>5.312</vdop><extensions><gom:speed>0.806</gom:speed></extensions></trkpt>
   <trkpt lat="59.0665737653" lon="30.0299232476"><ele>59.826</ele><time>2026-04-20T18:55:51.681Z</time><hdop>4.5</hdop><vdop>5.312</vdop><extensions><gom:speed>0.686</gom:speed></extensions></trkpt>
   <trkpt lat="59.0665784592" lon="30.0299254269"><ele>60.143</ele><time>2026-04-20T18:55:52.833Z</time><hdop>4.5</hdop><vdop>5.375</vdop><extensions><gom:speed>0.623</gom:speed></extensions></trkpt>
   <trkpt lat="59.0665856676" lon="30.0299296178"><ele>60.574</ele><time>2026-04-20T18:55:53.497Z</time><hdop>4.437</hdop><vdop>5.125</vdop><extensions><gom:speed>0.522</gom:speed></extensions></trkpt>
   <trkpt lat="59.0665879727" lon="30.0299312942"><ele>61.011</ele><time>2026-04-20T18:55:54.018Z</time><hdop>4.437</hdop><vdop>5.0</vdop><extensions><gom:speed>0.52</gom:speed></extensions></trkpt>
   <trkpt lat="59.0665920798" lon="30.0299335573"><ele>61.278</ele><time>2026-04-20T18:55:55.075Z</time><hdop>4.437</hdop><vdop>5.0</vdop><extensions><gom:speed>0.396</gom:speed></extensions></trkpt>
   <trkpt lat="59.0665915769" lon="30.0299333897"><ele>61.438</ele><time>2026-04-20T18:55:55.936Z</time><hdop>4.5</hdop><vdop>5.0</vdop><extensions><gom:speed>0.244</gom:speed></extensions></trkpt>
   <trkpt lat="59.0665934628" lon="30.0299374968"><ele>61.131</ele><time>2026-04-20T18:55:57.076Z</time><hdop>4.437</hdop><vdop>4.625</vdop><extensions><gom:speed>0.212</gom:speed></extensions></trkpt>
   <trkpt lat="59.0665935885" lon="30.0299375807"><ele>60.862</ele><time>2026-04-20T18:55:58.046Z</time><hdop>4.5</hdop><vdop>8.0</vdop><extensions><gom:speed>0.162</gom:speed></extensions></trkpt>
   <trkpt lat="59.066593379" lon="30.0299367425"><ele>60.7</ele><time>2026-04-20T18:55:58.994Z</time><hdop>4.437</hdop><vdop>8.0</vdop><extensions><gom:speed>0.14</gom:speed></extensions></trkpt>
   <trkpt lat="59.0665953906" lon="30.0299389218"><ele>60.321</ele><time>2026-04-20T18:55:59.942Z</time><hdop>4.375</hdop><vdop>8.0</vdop><extensions><gom:speed>0.12</gom:speed></extensions></trkpt>
   <trkpt lat="59.0665960612" lon="30.0299394247"><ele>59.921</ele><time>2026-04-20T18:56:01.007Z</time><hdop>4.312</hdop><vdop>8.0</vdop><extensions><gom:speed>0.121</gom:speed></extensions></trkpt>
   <trkpt lat="59.0665973604" lon="30.0299395923"><ele>59.681</ele><time>2026-04-20T18:56:01.978Z</time><hdop>4.312</hdop><vdop>8.0</vdop><extensions><gom:speed>0.139</gom:speed></extensions></trkpt>
   <trkpt lat="59.0665976957" lon="30.0299407658"><ele>59.705</ele><time>2026-04-20T18:56:02.639Z</time><hdop>4.375</hdop><vdop>7.625</vdop><extensions><gom:speed>0.074</gom:speed></extensions></trkpt>
   <trkpt lat="59.0665997911" lon="30.0299446214"><ele>59.617</ele><time>2026-04-20T18:56:03.419Z</time><hdop>4.437</hdop><vdop>7.625</vdop><extensions><gom:speed>0.098</gom:speed></extensions></trkpt>
   <trkpt lat="59.0666009646" lon="30.0299450405"><ele>59.536</ele><time>2026-04-20T18:56:03.969Z</time><hdop>4.5</hdop><vdop>7.437</vdop><extensions><gom:speed>0.128</gom:speed></extensions></trkpt>
   <trkpt lat="59.0666016771" lon="30.0299456273"><ele>59.488</ele><time>2026-04-20T18:56:04.781Z</time><hdop>4.625</hdop><vdop>7.437</vdop><extensions><gom:speed>0.113</gom:speed></extensions></trkpt>
   <trkpt lat="59.0666054908" lon="30.0299479742"><ele>59.537</ele><time>2026-04-20T18:56:05.417Z</time><hdop>4.687</hdop><vdop>7.187</vdop><extensions><gom:speed>0.147</gom:speed></extensions></trkpt>
   <trkpt lat="59.06660679" lon="30.0299474713"><ele>59.566</ele><time>2026-04-20T18:56:06.055Z</time><hdop>4.75</hdop><vdop>7.187</vdop><extensions><gom:speed>0.179</gom:speed></extensions></trkpt>
   <trkpt lat="59.0666114839" lon="30.0299458787"><ele>59.54</ele><time>2026-04-20T18:56:06.815Z</time><hdop>4.875</hdop><vdop>7.0</vdop><extensions><gom:speed>0.36</gom:speed></extensions></trkpt>
   <trkpt lat="59.0666194886" lon="30.0299420231"><ele>59.428</ele><time>2026-04-20T18:56:07.576Z</time><hdop>5.062</hdop><vdop>6.812</vdop><extensions><gom:speed>0.585</gom:speed></extensions></trkpt>
   <trkpt lat="59.0666240987" lon="30.0299423583"><ele>59.445</ele><time>2026-04-20T18:56:08.075Z</time><hdop>5.125</hdop><vdop>6.812</vdop><extensions><gom:speed>0.576</gom:speed></extensions></trkpt>
   <trkpt lat="59.0666321872" lon="30.0299379997"><ele>59.561</ele><time>2026-04-20T18:56:08.944Z</time><hdop>5.375</hdop><vdop>6.687</vdop><extensions><gom:speed>0.671</gom:speed></extensions></trkpt>
   <trkpt lat="59.0666366715" lon="30.0299339764"><ele>59.753</ele><time>2026-04-20T18:56:10.075Z</time><hdop>5.562</hdop><vdop>6.625</vdop><extensions><gom:speed>0.58</gom:speed></extensions></trkpt>
   <trkpt lat="59.0666381803" lon="30.0299316295"><ele>59.867</ele><time>2026-04-20T18:56:10.537Z</time><hdop>5.812</hdop><vdop>6.625</vdop><extensions><gom:speed>0.563</gom:speed></extensions></trkpt>
   <trkpt lat="59.066639689" lon="30.0299288635"><ele>60.073</ele><time>2026-04-20T18:56:11.351Z</time><hdop>5.937</hdop><vdop>6.812</vdop><extensions><gom:speed>0.503</gom:speed></extensions></trkpt>
   <trkpt lat="59.0666420778" lon="30.0299294502"><ele>60.319</ele><time>2026-04-20T18:56:12.075Z</time><hdop>5.937</hdop><vdop>7.062</vdop><extensions><gom:speed>0.442</gom:speed></extensions></trkpt>
   <trkpt lat="59.0666423712" lon="30.029931881"><ele>60.558</ele><time>2026-04-20T18:56:12.972Z</time><hdop>5.937</hdop><vdop>7.125</vdop><extensions><gom:speed>0.334</gom:speed></extensions></trkpt>
   <trkpt lat="59.0666425808" lon="30.0299349823"><ele>60.714</ele><time>2026-04-20T18:56:14.038Z</time><hdop>5.937</hdop><vdop>7.125</vdop><extensions><gom:speed>0.214</gom:speed></extensions></trkpt>
   <trkpt lat="59.066641994" lon="30.0299360719"><ele>60.822</ele><time>2026-04-20T18:56:14.986Z</time><hdop>5.875</hdop><vdop>7.125</vdop><extensions><gom:speed>0.154</gom:speed></extensions></trkpt>
   <trkpt lat="59.0666415749" lon="30.0299350661"><ele>60.899</ele><time>2026-04-20T18:56:16.052Z</time><hdop>5.875</hdop><vdop>7.0</vdop><extensions><gom:speed>0.151</gom:speed></extensions></trkpt>
   <trkpt lat="59.0666400662" lon="30.0299363234"><ele>60.962</ele><time>2026-04-20T18:56:17.075Z</time><hdop>5.875</hdop><vdop>6.875</vdop><extensions><gom:speed>0.125</gom:speed></extensions></trkpt>
   <trkpt lat="59.0666397728" lon="30.0299372454"><ele>60.999</ele><time>2026-04-20T18:56:17.593Z</time><hdop>5.812</hdop><vdop>6.875</vdop><extensions><gom:speed>0.115</gom:speed></extensions></trkpt>
   <trkpt lat="59.0666392699" lon="30.0299388379"><ele>60.86</ele><time>2026-04-20T18:56:18.075Z</time><hdop>5.812</hdop><vdop>6.312</vdop><extensions><gom:speed>0.148</gom:speed></extensions></trkpt>
   <trkpt lat="59.0666407786" lon="30.0299384188"><ele>60.361</ele><time>2026-04-20T18:56:19.075Z</time><hdop>5.687</hdop><vdop>6.312</vdop><extensions><gom:speed>0.156</gom:speed></extensions></trkpt>
   <trkpt lat="59.0666416587" lon="30.0299354852"><ele>60.062</ele><time>2026-04-20T18:56:20.053Z</time><hdop>5.625</hdop><vdop>6.312</vdop><extensions><gom:speed>0.209</gom:speed></extensions></trkpt>
   <trkpt lat="59.0666466879" lon="30.0299274385"><ele>61.517</ele><time>2026-04-20T18:56:20.943Z</time><hdop>5.562</hdop><vdop>6.25</vdop><extensions><gom:speed>0.28</gom:speed></extensions></trkpt>
   <trkpt lat="59.0666547764" lon="30.0299173803"><ele>62.193</ele><time>2026-04-20T18:56:21.977Z</time><hdop>5.375</hdop><vdop>5.875</vdop><extensions><gom:speed>0.349</gom:speed></extensions></trkpt>
   <trkpt lat="59.0666647928" lon="30.029904053"><ele>62.509</ele><time>2026-04-20T18:56:23.075Z</time><hdop>5.187</hdop><vdop>5.5</vdop><extensions><gom:speed>0.425</gom:speed></extensions></trkpt>
   <trkpt lat="59.0666745996" lon="30.02988972"><ele>62.03</ele><time>2026-04-20T18:56:23.675Z</time><hdop>5.062</hdop><vdop>5.25</vdop><extensions><gom:speed>0.585</gom:speed></extensions></trkpt>
   <trkpt lat="59.066688765" lon="30.0298684299"><ele>61.844</ele><time>2026-04-20T18:56:24.357Z</time><hdop>4.875</hdop><vdop>5.375</vdop><extensions><gom:speed>0.764</gom:speed></extensions></trkpt>
   <trkpt lat="59.0666934589" lon="30.0298577849"><ele>61.733</ele><time>2026-04-20T18:56:25.018Z</time><hdop>4.875</hdop><vdop>5.375</vdop><extensions><gom:speed>0.86</gom:speed></extensions></trkpt>
   <trkpt lat="59.0667067861" lon="30.02983968"><ele>61.912</ele><time>2026-04-20T18:56:25.720Z</time><hdop>4.75</hdop><vdop>5.125</vdop><extensions><gom:speed>0.974</gom:speed></extensions></trkpt>
   <trkpt lat="59.0667219993" lon="30.0298292865"><ele>61.683</ele><time>2026-04-20T18:56:26.440Z</time><hdop>4.625</hdop><vdop>4.937</vdop><extensions><gom:speed>0.994</gom:speed></extensions></trkpt>
   <trkpt lat="59.0667326862" lon="30.0298242573"><ele>61.326</ele><time>2026-04-20T18:56:27.075Z</time><hdop>4.5</hdop><vdop>4.812</vdop><extensions><gom:speed>1.009</gom:speed></extensions></trkpt>
   <trkpt lat="59.0667433731" lon="30.0298228324"><ele>61.113</ele><time>2026-04-20T18:56:27.888Z</time><hdop>4.437</hdop><vdop>4.812</vdop><extensions><gom:speed>1.036</gom:speed></extensions></trkpt>
   <trkpt lat="59.0667543953" lon="30.0298191444"><ele>60.94</ele><time>2026-04-20T18:56:28.584Z</time><hdop>4.312</hdop><vdop>4.687</vdop><extensions><gom:speed>1.016</gom:speed></extensions></trkpt>
   <trkpt lat="59.0667623581" lon="30.0298159592"><ele>61.235</ele><time>2026-04-20T18:56:29.076Z</time><hdop>4.25</hdop><vdop>4.625</vdop><extensions><gom:speed>1.046</gom:speed></extensions></trkpt>
   <trkpt lat="59.0667680998" lon="30.029815624"><ele>61.411</ele><time>2026-04-20T18:56:29.912Z</time><hdop>4.25</hdop><vdop>4.625</vdop><extensions><gom:speed>0.921</gom:speed></extensions></trkpt>
   <trkpt lat="59.06677908" lon="30.0298185576"><ele>61.289</ele><time>2026-04-20T18:56:30.419Z</time><hdop>4.25</hdop><vdop>4.625</vdop><extensions><gom:speed>0.936</gom:speed></extensions></trkpt>
   <trkpt lat="59.0667825585" lon="30.0298233353"><ele>61.216</ele><time>2026-04-20T18:56:30.921Z</time><hdop>4.25</hdop><vdop>4.625</vdop><extensions><gom:speed>0.928</gom:speed></extensions></trkpt>
   <trkpt lat="59.0667915691" lon="30.0298287835"><ele>61.239</ele><time>2026-04-20T18:56:31.860Z</time><hdop>4.312</hdop><vdop>4.75</vdop><extensions><gom:speed>0.902</gom:speed></extensions></trkpt>
   <trkpt lat="59.0667982746" lon="30.0298301247"><ele>61.114</ele><time>2026-04-20T18:56:32.857Z</time><hdop>4.437</hdop><vdop>4.625</vdop><extensions><gom:speed>0.708</gom:speed></extensions></trkpt>
   <trkpt lat="59.0668039743" lon="30.0298312981"><ele>61.275</ele><time>2026-04-20T18:56:33.617Z</time><hdop>4.562</hdop><vdop>4.875</vdop><extensions><gom:speed>0.651</gom:speed></extensions></trkpt>
   <trkpt lat="59.0668084586" lon="30.0298336451"><ele>61.549</ele><time>2026-04-20T18:56:34.075Z</time><hdop>4.562</hdop><vdop>4.812</vdop><extensions><gom:speed>0.658</gom:speed></extensions></trkpt>
   <trkpt lat="59.066811979" lon="30.0298370816"><ele>61.712</ele><time>2026-04-20T18:56:34.762Z</time><hdop>4.625</hdop><vdop>4.812</vdop><extensions><gom:speed>0.569</gom:speed></extensions></trkpt>
   <trkpt lat="59.0668183912" lon="30.0298389257"><ele>61.59</ele><time>2026-04-20T18:56:35.600Z</time><hdop>4.75</hdop><vdop>4.75</vdop><extensions><gom:speed>0.529</gom:speed></extensions></trkpt>
   <trkpt lat="59.0668231689" lon="30.0298411888"><ele>60.754</ele><time>2026-04-20T18:56:36.075Z</time><hdop>4.75</hdop><vdop>4.812</vdop><extensions><gom:speed>0.571</gom:speed></extensions></trkpt>
   <trkpt lat="59.0668308802" lon="30.0298433681"><ele>60.255</ele><time>2026-04-20T18:56:37.013Z</time><hdop>4.812</hdop><vdop>4.812</vdop><extensions><gom:speed>0.615</gom:speed></extensions></trkpt>
   <trkpt lat="59.0668398908" lon="30.0298473914"><ele>60.053</ele><time>2026-04-20T18:56:37.753Z</time><hdop>4.875</hdop><vdop>4.75</vdop><extensions><gom:speed>0.695</gom:speed></extensions></trkpt>
   <trkpt lat="59.0668492785" lon="30.0298532587"><ele>60.18</ele><time>2026-04-20T18:56:38.512Z</time><hdop>4.937</hdop><vdop>4.75</vdop><extensions><gom:speed>0.755</gom:speed></extensions></trkpt>
   <trkpt lat="59.0668557745" lon="30.0298586231"><ele>60.242</ele><time>2026-04-20T18:56:39.076Z</time><hdop>4.937</hdop><vdop>4.5</vdop><extensions><gom:speed>0.778</gom:speed></extensions></trkpt>
   <trkpt lat="59.0668665871" lon="30.0298636523"><ele>60.337</ele><time>2026-04-20T18:56:40.075Z</time><hdop>5.0</hdop><vdop>4.437</vdop><extensions><gom:speed>0.799</gom:speed></extensions></trkpt>
   <trkpt lat="59.0668756815" lon="30.0298607186"><ele>60.394</ele><time>2026-04-20T18:56:41.060Z</time><hdop>5.062</hdop><vdop>4.437</vdop><extensions><gom:speed>0.824</gom:speed></extensions></trkpt>
   <trkpt lat="59.0668849854" lon="30.029859629"><ele>60.152</ele><time>2026-04-20T18:56:41.859Z</time><hdop>5.125</hdop><vdop>4.437</vdop><extensions><gom:speed>0.858</gom:speed></extensions></trkpt>
   <trkpt lat="59.0668966781" lon="30.0298573658"><ele>60.275</ele><time>2026-04-20T18:56:42.659Z</time><hdop>5.125</hdop><vdop>4.562</vdop><extensions><gom:speed>0.84</gom:speed></extensions></trkpt>
   <trkpt lat="59.0669024617" lon="30.0298559409"><ele>59.552</ele><time>2026-04-20T18:56:43.401Z</time><hdop>5.062</hdop><vdop>4.312</vdop><extensions><gom:speed>0.842</gom:speed></extensions></trkpt>
   <trkpt lat="59.0669089995" lon="30.029852672"><ele>58.618</ele><time>2026-04-20T18:56:44.076Z</time><hdop>5.0</hdop><vdop>4.312</vdop><extensions><gom:speed>0.868</gom:speed></extensions></trkpt>
   <trkpt lat="59.0669169624" lon="30.0298456312"><ele>58.059</ele><time>2026-04-20T18:56:44.939Z</time><hdop>5.0</hdop><vdop>4.312</vdop><extensions><gom:speed>0.9</gom:speed></extensions></trkpt>
   <trkpt lat="59.0669265596" lon="30.0298430328"><ele>57.769</ele><time>2026-04-20T18:56:45.721Z</time><hdop>4.937</hdop><vdop>4.437</vdop><extensions><gom:speed>0.913</gom:speed></extensions></trkpt>
   <trkpt lat="59.0669367856" lon="30.0298391771"><ele>57.629</ele><time>2026-04-20T18:56:46.795Z</time><hdop>4.812</hdop><vdop>4.312</vdop><extensions><gom:speed>0.825</gom:speed></extensions></trkpt>
   <trkpt lat="59.0669415632" lon="30.0298342318"><ele>57.561</ele><time>2026-04-20T18:56:47.537Z</time><hdop>4.75</hdop><vdop>4.312</vdop><extensions><gom:speed>0.774</gom:speed></extensions></trkpt>
   <trkpt lat="59.0669426948" lon="30.0298276939"><ele>57.521</ele><time>2026-04-20T18:56:48.078Z</time><hdop>4.687</hdop><vdop>4.312</vdop><extensions><gom:speed>0.781</gom:speed></extensions></trkpt>
   <trkpt lat="59.0669461733" lon="30.0298129418"><ele>57.848</ele><time>2026-04-20T18:56:48.918Z</time><hdop>4.687</hdop><vdop>4.437</vdop><extensions><gom:speed>0.858</gom:speed></extensions></trkpt>
   <trkpt lat="59.0669499871" lon="30.0298076612"><ele>58.021</ele><time>2026-04-20T18:56:49.559Z</time><hdop>4.625</hdop><vdop>4.375</vdop><extensions><gom:speed>0.818</gom:speed></extensions></trkpt>
   <trkpt lat="59.0669543876" lon="30.0298031349"><ele>57.813</ele><time>2026-04-20T18:56:50.075Z</time><hdop>4.625</hdop><vdop>4.375</vdop><extensions><gom:speed>0.817</gom:speed></extensions></trkpt>
   <trkpt lat="59.0669620989" lon="30.029796597"><ele>57.688</ele><time>2026-04-20T18:56:50.901Z</time><hdop>4.625</hdop><vdop>4.375</vdop><extensions><gom:speed>0.891</gom:speed></extensions></trkpt>
   <trkpt lat="59.0669708999" lon="30.0297905621"><ele>57.03</ele><time>2026-04-20T18:56:51.573Z</time><hdop>4.625</hdop><vdop>4.375</vdop><extensions><gom:speed>1.023</gom:speed></extensions></trkpt>
   <trkpt lat="59.0669774797" lon="30.0297860358"><ele>56.356</ele><time>2026-04-20T18:56:52.075Z</time><hdop>4.625</hdop><vdop>4.625</vdop><extensions><gom:speed>1.053</gom:speed></extensions></trkpt>
   <trkpt lat="59.0669869932" lon="30.0297761452"><ele>55.41</ele><time>2026-04-20T18:56:53.075Z</time><hdop>4.687</hdop><vdop>4.687</vdop><extensions><gom:speed>0.973</gom:speed></extensions></trkpt>
   <trkpt lat="59.06699307" lon="30.0297657516"><ele>54.844</ele><time>2026-04-20T18:56:53.854Z</time><hdop>4.75</hdop><vdop>4.687</vdop><extensions><gom:speed>0.978</gom:speed></extensions></trkpt>
   <trkpt lat="59.0669992726" lon="30.0297581241"><ele>53.987</ele><time>2026-04-20T18:56:54.535Z</time><hdop>4.812</hdop><vdop>4.812</vdop><extensions><gom:speed>0.983</gom:speed></extensions></trkpt>
   <trkpt lat="59.0670065649" lon="30.0297526759"><ele>53.419</ele><time>2026-04-20T18:56:55.075Z</time><hdop>4.812</hdop><vdop>4.75</vdop><extensions><gom:speed>0.975</gom:speed></extensions></trkpt>
   <trkpt lat="59.0670132704" lon="30.0297502451"><ele>53.079</ele><time>2026-04-20T18:56:56.074Z</time><hdop>4.937</hdop><vdop>4.75</vdop><extensions><gom:speed>0.918</gom:speed></extensions></trkpt>
   <trkpt lat="59.0670198921" lon="30.0297481496"><ele>52.643</ele><time>2026-04-20T18:56:56.834Z</time><hdop>5.0</hdop><vdop>4.812</vdop><extensions><gom:speed>0.881</gom:speed></extensions></trkpt>
   <trkpt lat="59.0670272682" lon="30.0297459703"><ele>52.454</ele><time>2026-04-20T18:56:57.733Z</time><hdop>5.0</hdop><vdop>4.5</vdop><extensions><gom:speed>0.857</gom:speed></extensions></trkpt>
   <trkpt lat="59.0670361949" lon="30.0297430367"><ele>52.834</ele><time>2026-04-20T18:56:58.819Z</time><hdop>5.0</hdop><vdop>4.312</vdop><extensions><gom:speed>0.818</gom:speed></extensions></trkpt>
   <trkpt lat="59.0670426909" lon="30.0297416956"><ele>52.877</ele><time>2026-04-20T18:56:59.658Z</time><hdop>5.0</hdop><vdop>4.312</vdop><extensions><gom:speed>0.797</gom:speed></extensions></trkpt>
   <trkpt lat="59.0670490611" lon="30.0297321402"><ele>52.834</ele><time>2026-04-20T18:57:00.536Z</time><hdop>5.0</hdop><vdop>4.375</vdop><extensions><gom:speed>0.832</gom:speed></extensions></trkpt>
   <trkpt lat="59.0670538807" lon="30.0297221657"><ele>52.497</ele><time>2026-04-20T18:57:01.076Z</time><hdop>4.937</hdop><vdop>4.187</vdop><extensions><gom:speed>0.83</gom:speed></extensions></trkpt>
   <trkpt lat="59.0670573592" lon="30.0297188968"><ele>52.458</ele><time>2026-04-20T18:57:02.015Z</time><hdop>4.937</hdop><vdop>4.187</vdop><extensions><gom:speed>0.723</gom:speed></extensions></trkpt>
   <trkpt lat="59.0670623884" lon="30.0297152926"><ele>52.101</ele><time>2026-04-20T18:57:03.076Z</time><hdop>4.937</hdop><vdop>4.187</vdop><extensions><gom:speed>0.666</gom:speed></extensions></trkpt>
   <trkpt lat="59.0670653639" lon="30.0297140353"><ele>51.72</ele><time>2026-04-20T18:57:04.076Z</time><hdop>5.0</hdop><vdop>4.187</vdop><extensions><gom:speed>0.587</gom:speed></extensions></trkpt>
   <trkpt lat="59.0670700997" lon="30.0297188968"><ele>51.348</ele><time>2026-04-20T18:57:05.075Z</time><hdop>5.0</hdop><vdop>4.062</vdop><extensions><gom:speed>0.616</gom:speed></extensions></trkpt>
   <trkpt lat="59.0670756737" lon="30.0297244289"><ele>51.126</ele><time>2026-04-20T18:57:05.956Z</time><hdop>5.0</hdop><vdop>4.062</vdop><extensions><gom:speed>0.706</gom:speed></extensions></trkpt>
   <trkpt lat="59.0670808705" lon="30.0297307991"><ele>51.4</ele><time>2026-04-20T18:57:06.896Z</time><hdop>5.0</hdop><vdop>4.25</vdop><extensions><gom:speed>0.764</gom:speed></extensions></trkpt>
   <trkpt lat="59.0670855643" lon="30.0297371693"><ele>51.418</ele><time>2026-04-20T18:57:07.734Z</time><hdop>5.0</hdop><vdop>4.25</vdop><extensions><gom:speed>0.8</gom:speed></extensions></trkpt>
   <trkpt lat="59.0670922699" lon="30.0297435396"><ele>51.906</ele><time>2026-04-20T18:57:08.623Z</time><hdop>4.937</hdop><vdop>4.187</vdop><extensions><gom:speed>0.832</gom:speed></extensions></trkpt>
   <trkpt lat="59.067096377" lon="30.0297454674"><ele>52.256</ele><time>2026-04-20T18:57:09.075Z</time><hdop>4.937</hdop><vdop>4.125</vdop><extensions><gom:speed>0.85</gom:speed></extensions></trkpt>
   <trkpt lat="59.0671054714" lon="30.0297464733"><ele>52.437</ele><time>2026-04-20T18:57:10.076Z</time><hdop>4.937</hdop><vdop>4.0</vdop><extensions><gom:speed>0.822</gom:speed></extensions></trkpt>
   <trkpt lat="59.0671138952" lon="30.0297465571"><ele>52.546</ele><time>2026-04-20T18:57:10.982Z</time><hdop>4.937</hdop><vdop>4.0</vdop><extensions><gom:speed>0.825</gom:speed></extensions></trkpt>
   <trkpt lat="59.0671237858" lon="30.0297445454"><ele>52.179</ele><time>2026-04-20T18:57:12.059Z</time><hdop>4.937</hdop><vdop>3.937</vdop><extensions><gom:speed>0.8</gom:speed></extensions></trkpt>
   <trkpt lat="59.0671312876" lon="30.0297426176"><ele>51.708</ele><time>2026-04-20T18:57:13.075Z</time><hdop>4.875</hdop><vdop>3.562</vdop><extensions><gom:speed>0.737</gom:speed></extensions></trkpt>
   <trkpt lat="59.0671379931" lon="30.0297399354"><ele>51.426</ele><time>2026-04-20T18:57:14.042Z</time><hdop>4.875</hdop><vdop>3.562</vdop><extensions><gom:speed>0.746</gom:speed></extensions></trkpt>
   <trkpt lat="59.0671439862" lon="30.0297386781"><ele>51.116</ele><time>2026-04-20T18:57:14.782Z</time><hdop>4.875</hdop><vdop>3.625</vdop><extensions><gom:speed>0.798</gom:speed></extensions></trkpt>
   <trkpt lat="59.0671513623" lon="30.0297405221"><ele>50.75</ele><time>2026-04-20T18:57:15.581Z</time><hdop>4.812</hdop><vdop>3.75</vdop><extensions><gom:speed>0.871</gom:speed></extensions></trkpt>
   <trkpt lat="59.0671557628" lon="30.0297439587"><ele>49.787</ele><time>2026-04-20T18:57:16.075Z</time><hdop>4.812</hdop><vdop>3.812</vdop><extensions><gom:speed>0.852</gom:speed></extensions></trkpt>
   <trkpt lat="59.0671650667" lon="30.029746138"><ele>49.211</ele><time>2026-04-20T18:57:17.013Z</time><hdop>4.812</hdop><vdop>3.812</vdop><extensions><gom:speed>0.924</gom:speed></extensions></trkpt>
   <trkpt lat="59.067171395" lon="30.0297472276"><ele>49.179</ele><time>2026-04-20T18:57:17.753Z</time><hdop>4.75</hdop><vdop>3.812</vdop><extensions><gom:speed>0.918</gom:speed></extensions></trkpt>
   <trkpt lat="59.0671772624" lon="30.0297478982"><ele>49.135</ele><time>2026-04-20T18:57:18.534Z</time><hdop>4.75</hdop><vdop>3.687</vdop><extensions><gom:speed>0.882</gom:speed></extensions></trkpt>
   <trkpt lat="59.0671817886" lon="30.0297489878"><ele>49.154</ele><time>2026-04-20T18:57:19.075Z</time><hdop>4.687</hdop><vdop>3.5</vdop><extensions><gom:speed>0.901</gom:speed></extensions></trkpt>
   <trkpt lat="59.0671921821" lon="30.0297482335"><ele>49.165</ele><time>2026-04-20T18:57:19.955Z</time><hdop>4.687</hdop><vdop>3.5</vdop><extensions><gom:speed>0.903</gom:speed></extensions></trkpt>
   <trkpt lat="59.0671981752" lon="30.0297466409"><ele>49.191</ele><time>2026-04-20T18:57:20.852Z</time><hdop>4.625</hdop><vdop>3.437</vdop><extensions><gom:speed>0.934</gom:speed></extensions></trkpt>
   <trkpt lat="59.0672041683" lon="30.0297451322"><ele>49.208</ele><time>2026-04-20T18:57:21.614Z</time><hdop>4.625</hdop><vdop>3.312</vdop><extensions><gom:speed>0.922</gom:speed></extensions></trkpt>
   <trkpt lat="59.0672077725" lon="30.0297457189"><ele>48.946</ele><time>2026-04-20T18:57:22.075Z</time><hdop>4.625</hdop><vdop>3.375</vdop><extensions><gom:speed>0.906</gom:speed></extensions></trkpt>
   <trkpt lat="59.067215861" lon="30.0297432881"><ele>48.659</ele><time>2026-04-20T18:57:23.075Z</time><hdop>4.562</hdop><vdop>3.437</vdop><extensions><gom:speed>0.929</gom:speed></extensions></trkpt>
   <trkpt lat="59.0672235724" lon="30.0297377561"><ele>48.488</ele><time>2026-04-20T18:57:23.933Z</time><hdop>4.625</hdop><vdop>3.437</vdop><extensions><gom:speed>0.967</gom:speed></extensions></trkpt>
   <trkpt lat="59.0672295654" lon="30.0297356606"><ele>48.359</ele><time>2026-04-20T18:57:24.674Z</time><hdop>4.625</hdop><vdop>3.5</vdop><extensions><gom:speed>0.984</gom:speed></extensions></trkpt>
   <trkpt lat="59.067235768" lon="30.0297355768"><ele>48.524</ele><time>2026-04-20T18:57:25.433Z</time><hdop>4.625</hdop><vdop>3.625</vdop><extensions><gom:speed>0.952</gom:speed></extensions></trkpt>
   <trkpt lat="59.0672428927" lon="30.0297364988"><ele>48.821</ele><time>2026-04-20T18:57:26.075Z</time><hdop>4.562</hdop><vdop>3.562</vdop><extensions><gom:speed>0.924</gom:speed></extensions></trkpt>
   <trkpt lat="59.0672498915" lon="30.0297362473"><ele>48.998</ele><time>2026-04-20T18:57:27.072Z</time><hdop>4.625</hdop><vdop>3.562</vdop><extensions><gom:speed>0.919</gom:speed></extensions></trkpt>
   <trkpt lat="59.0672550883" lon="30.0297400192"><ele>49.188</ele><time>2026-04-20T18:57:27.832Z</time><hdop>4.625</hdop><vdop>3.625</vdop><extensions><gom:speed>0.908</gom:speed></extensions></trkpt>
   <trkpt lat="59.0672602851" lon="30.0297418632"><ele>49.288</ele><time>2026-04-20T18:57:28.648Z</time><hdop>4.625</hdop><vdop>3.562</vdop><extensions><gom:speed>0.875</gom:speed></extensions></trkpt>
   <trkpt lat="59.0672640989" lon="30.0297402706"><ele>49.366</ele><time>2026-04-20T18:57:29.334Z</time><hdop>4.625</hdop><vdop>3.625</vdop><extensions><gom:speed>0.866</gom:speed></extensions></trkpt>
   <trkpt lat="59.0672688766" lon="30.0297385943"><ele>49.822</ele><time>2026-04-20T18:57:30.075Z</time><hdop>4.625</hdop><vdop>3.812</vdop><extensions><gom:speed>0.841</gom:speed></extensions></trkpt>
   <trkpt lat="59.067276085" lon="30.0297349901"><ele>50.095</ele><time>2026-04-20T18:57:30.941Z</time><hdop>4.625</hdop><vdop>3.812</vdop><extensions><gom:speed>0.867</gom:speed></extensions></trkpt>
   <trkpt lat="59.0672823714" lon="30.0297313858"><ele>50.012</ele><time>2026-04-20T18:57:31.762Z</time><hdop>4.625</hdop><vdop>3.812</vdop><extensions><gom:speed>0.862</gom:speed></extensions></trkpt>
   <trkpt lat="59.0672889931" lon="30.0297284522"><ele>49.711</ele><time>2026-04-20T18:57:32.581Z</time><hdop>4.625</hdop><vdop>3.75</vdop><extensions><gom:speed>0.859</gom:speed></extensions></trkpt>
   <trkpt lat="59.0672925973" lon="30.0297254347"><ele>49.425</ele><time>2026-04-20T18:57:33.075Z</time><hdop>4.625</hdop><vdop>3.937</vdop><extensions><gom:speed>0.847</gom:speed></extensions></trkpt>
   <trkpt lat="59.0672976684" lon="30.0297201541"><ele>49.255</ele><time>2026-04-20T18:57:33.756Z</time><hdop>4.625</hdop><vdop>3.937</vdop><extensions><gom:speed>0.838</gom:speed></extensions></trkpt>
   <trkpt lat="59.0673019851" lon="30.0297148735"><ele>49.379</ele><time>2026-04-20T18:57:34.515Z</time><hdop>4.625</hdop><vdop>4.0</vdop><extensions><gom:speed>0.794</gom:speed></extensions></trkpt>
   <trkpt lat="59.0673051702" lon="30.0297099282"><ele>49.373</ele><time>2026-04-20T18:57:35.075Z</time><hdop>4.625</hdop><vdop>4.0</vdop><extensions><gom:speed>0.836</gom:speed></extensions></trkpt>
   <trkpt lat="59.0673111633" lon="30.0296991993"><ele>49.37</ele><time>2026-04-20T18:57:36.075Z</time><hdop>4.75</hdop><vdop>4.0</vdop><extensions><gom:speed>0.812</gom:speed></extensions></trkpt>
   <trkpt lat="59.0673166953" lon="30.0296920747"><ele>49.284</ele><time>2026-04-20T18:57:36.836Z</time><hdop>4.75</hdop><vdop>4.25</vdop><extensions><gom:speed>0.789</gom:speed></extensions></trkpt>
   <trkpt lat="59.0673228979" lon="30.0296869617"><ele>49.262</ele><time>2026-04-20T18:57:37.714Z</time><hdop>4.812</hdop><vdop>4.375</vdop><extensions><gom:speed>0.767</gom:speed></extensions></trkpt>
   <trkpt lat="59.0673284719" lon="30.029682687"><ele>49.139</ele><time>2026-04-20T18:57:38.376Z</time><hdop>4.812</hdop><vdop>4.187</vdop><extensions><gom:speed>0.765</gom:speed></extensions></trkpt>
   <trkpt lat="59.0673331658" lon="30.0296806753"><ele>49.412</ele><time>2026-04-20T18:57:39.075Z</time><hdop>4.812</hdop><vdop>4.187</vdop><extensions><gom:speed>0.756</gom:speed></extensions></trkpt>
   <trkpt lat="59.0673393684" lon="30.02968034"><ele>49.753</ele><time>2026-04-20T18:57:40.075Z</time><hdop>4.812</hdop><vdop>4.125</vdop><extensions><gom:speed>0.647</gom:speed></extensions></trkpt>
   <trkpt lat="59.0673442718" lon="30.0296781607"><ele>49.957</ele><time>2026-04-20T18:57:40.893Z</time><hdop>4.812</hdop><vdop>4.125</vdop><extensions><gom:speed>0.634</gom:speed></extensions></trkpt>
   <trkpt lat="59.0673499715" lon="30.0296771549"><ele>50.1</ele><time>2026-04-20T18:57:41.635Z</time><hdop>4.75</hdop><vdop>4.25</vdop><extensions><gom:speed>0.675</gom:speed></extensions></trkpt>
   <trkpt lat="59.0673565932" lon="30.0296774902"><ele>50.031</ele><time>2026-04-20T18:57:42.452Z</time><hdop>4.75</hdop><vdop>4.75</vdop><extensions><gom:speed>0.66</gom:speed></extensions></trkpt>
   <trkpt lat="59.0673608679" lon="30.029677574"><ele>50.294</ele><time>2026-04-20T18:57:43.075Z</time><hdop>4.687</hdop><vdop>8.375</vdop><extensions><gom:speed>0.634</gom:speed></extensions></trkpt>
   <trkpt lat="59.0673660647" lon="30.029672042"><ele>50.451</ele><time>2026-04-20T18:57:43.972Z</time><hdop>4.687</hdop><vdop>8.375</vdop><extensions><gom:speed>0.678</gom:speed></extensions></trkpt>
   <trkpt lat="59.0673714711" lon="30.0296671805"><ele>50.558</ele><time>2026-04-20T18:57:44.694Z</time><hdop>4.687</hdop><vdop>7.812</vdop><extensions><gom:speed>0.781</gom:speed></extensions></trkpt>
   <trkpt lat="59.0673775898" lon="30.0296649173"><ele>50.179</ele><time>2026-04-20T18:57:45.355Z</time><hdop>4.687</hdop><vdop>7.375</vdop><extensions><gom:speed>0.789</gom:speed></extensions></trkpt>
   <trkpt lat="59.0673832895" lon="30.0296579604"><ele>49.952</ele><time>2026-04-20T18:57:46.036Z</time><hdop>4.75</hdop><vdop>7.375</vdop><extensions><gom:speed>0.905</gom:speed></extensions></trkpt>
   <trkpt lat="59.0673903722" lon="30.0296552782"><ele>49.246</ele><time>2026-04-20T18:57:46.738Z</time><hdop>4.75</hdop><vdop>7.25</vdop><extensions><gom:speed>0.939</gom:speed></extensions></trkpt>
   <trkpt lat="59.0673971616" lon="30.0296532665"><ele>48.192</ele><time>2026-04-20T18:57:47.536Z</time><hdop>4.812</hdop><vdop>7.062</vdop><extensions><gom:speed>0.944</gom:speed></extensions></trkpt>
   <trkpt lat="59.0674018974" lon="30.0296523445"><ele>47.093</ele><time>2026-04-20T18:57:48.076Z</time><hdop>4.812</hdop><vdop>6.75</vdop><extensions><gom:speed>0.955</gom:speed></extensions></trkpt>
   <trkpt lat="59.0674107822" lon="30.0296468962"><ele>46.436</ele><time>2026-04-20T18:57:48.980Z</time><hdop>4.875</hdop><vdop>6.75</vdop><extensions><gom:speed>1.017</gom:speed></extensions></trkpt>
   <trkpt lat="59.0674189964" lon="30.0296464772"><ele>46.12</ele><time>2026-04-20T18:57:49.778Z</time><hdop>4.937</hdop><vdop>6.5</vdop><extensions><gom:speed>0.978</gom:speed></extensions></trkpt>
   <trkpt lat="59.0674227683" lon="30.0296472315"><ele>45.622</ele><time>2026-04-20T18:57:50.347Z</time><hdop>5.0</hdop><vdop>6.375</vdop><extensions><gom:speed>0.948</gom:speed></extensions></trkpt>
   <trkpt lat="59.0674294738" lon="30.0296390173"><ele>44.98</ele><time>2026-04-20T18:57:50.939Z</time><hdop>5.187</hdop><vdop>6.125</vdop><extensions><gom:speed>0.906</gom:speed></extensions></trkpt>
   <trkpt lat="59.0674327847" lon="30.0296352454"><ele>44.596</ele><time>2026-04-20T18:57:51.636Z</time><hdop>5.25</hdop><vdop>6.125</vdop><extensions><gom:speed>0.81</gom:speed></extensions></trkpt>
   <trkpt lat="59.0674374785" lon="30.029638682"><ele>44.535</ele><time>2026-04-20T18:57:52.405Z</time><hdop>5.375</hdop><vdop>5.937</vdop><extensions><gom:speed>0.753</gom:speed></extensions></trkpt>
   <trkpt lat="59.0674416695" lon="30.0296403584"><ele>44.475</ele><time>2026-04-20T18:57:52.953Z</time><hdop>5.437</hdop><vdop>6.0</vdop><extensions><gom:speed>0.758</gom:speed></extensions></trkpt>
   <trkpt lat="59.0674478721" lon="30.0296448846"><ele>44.44</ele><time>2026-04-20T18:57:53.874Z</time><hdop>5.625</hdop><vdop>6.0</vdop><extensions><gom:speed>0.802</gom:speed></extensions></trkpt>
   <trkpt lat="59.0674527755" lon="30.0296513387"><ele>44.114</ele><time>2026-04-20T18:57:54.596Z</time><hdop>5.812</hdop><vdop>6.0</vdop><extensions><gom:speed>0.842</gom:speed></extensions></trkpt>
   <trkpt lat="59.0674596906" lon="30.0296552782"><ele>43.454</ele><time>2026-04-20T18:57:55.416Z</time><hdop>6.0</hdop><vdop>5.875</vdop><extensions><gom:speed>0.886</gom:speed></extensions></trkpt>
   <trkpt lat="59.0674654741" lon="30.0296584633"><ele>43.059</ele><time>2026-04-20T18:57:56.056Z</time><hdop>6.062</hdop><vdop>5.875</vdop><extensions><gom:speed>0.878</gom:speed></extensions></trkpt>
   <trkpt lat="59.0674656836" lon="30.0296617322"><ele>43.059</ele><time>2026-04-20T18:57:56.507Z</time><hdop>6.062</hdop><vdop>5.5</vdop><extensions><gom:speed>0.912</gom:speed></extensions></trkpt>
   <trkpt lat="59.0674730597" lon="30.029670617"><ele>43.256</ele><time>2026-04-20T18:57:57.075Z</time><hdop>6.125</hdop><vdop>5.312</vdop><extensions><gom:speed>0.967</gom:speed></extensions></trkpt>
   <trkpt lat="59.0674760772" lon="30.0296728801"><ele>43.373</ele><time>2026-04-20T18:57:57.556Z</time><hdop>6.125</hdop><vdop>5.312</vdop><extensions><gom:speed>0.967</gom:speed></extensions></trkpt>
   <trkpt lat="59.0674780889" lon="30.0296763167"><ele>43.865</ele><time>2026-04-20T18:57:58.075Z</time><hdop>6.125</hdop><vdop>5.0</vdop><extensions><gom:speed>0.949</gom:speed></extensions></trkpt>
   <trkpt lat="59.0674837886" lon="30.0296791666"><ele>44.509</ele><time>2026-04-20T18:57:58.995Z</time><hdop>6.062</hdop><vdop>4.875</vdop><extensions><gom:speed>0.871</gom:speed></extensions></trkpt>
   <trkpt lat="59.0674891949" lon="30.0296769873"><ele>44.894</ele><time>2026-04-20T18:57:59.895Z</time><hdop>6.0</hdop><vdop>4.875</vdop><extensions><gom:speed>0.772</gom:speed></extensions></trkpt>
   <trkpt lat="59.0674922962" lon="30.0296681863"><ele>45.107</ele><time>2026-04-20T18:58:00.616Z</time><hdop>6.0</hdop><vdop>4.937</vdop><extensions><gom:speed>0.751</gom:speed></extensions></trkpt>
   <trkpt lat="59.0674914999" lon="30.0296616484"><ele>45.259</ele><time>2026-04-20T18:58:01.075Z</time><hdop>5.875</hdop><vdop>4.875</vdop><extensions><gom:speed>0.762</gom:speed></extensions></trkpt>
   <trkpt lat="59.0674927991" lon="30.0296497461"><ele>44.844</ele><time>2026-04-20T18:58:02.075Z</time><hdop>5.812</hdop><vdop>4.75</vdop><extensions><gom:speed>0.799</gom:speed></extensions></trkpt>
   <trkpt lat="59.0674938887" lon="30.0296478183"><ele>44.597</ele><time>2026-04-20T18:58:02.667Z</time><hdop>5.75</hdop><vdop>4.75</vdop><extensions><gom:speed>0.756</gom:speed></extensions></trkpt>
   <trkpt lat="59.0675027736" lon="30.0296380953"><ele>44.049</ele><time>2026-04-20T18:58:03.796Z</time><hdop>5.75</hdop><vdop>4.75</vdop><extensions><gom:speed>0.779</gom:speed></extensions></trkpt>
   <trkpt lat="59.0675066712" lon="30.0296319765"><ele>43.568</ele><time>2026-04-20T18:58:04.594Z</time><hdop>5.625</hdop><vdop>4.875</vdop><extensions><gom:speed>0.818</gom:speed></extensions></trkpt>
   <trkpt lat="59.0675140891" lon="30.0296258577"><ele>42.867</ele><time>2026-04-20T18:58:05.533Z</time><hdop>5.437</hdop><vdop>5.062</vdop><extensions><gom:speed>0.832</gom:speed></extensions></trkpt>
   <trkpt lat="59.0675165618" lon="30.0296237622"><ele>42.364</ele><time>2026-04-20T18:58:06.075Z</time><hdop>5.375</hdop><vdop>5.187</vdop><extensions><gom:speed>0.82</gom:speed></extensions></trkpt>
   <trkpt lat="59.0675200822" lon="30.0296197389"><ele>41.89</ele><time>2026-04-20T18:58:07.076Z</time><hdop>5.25</hdop><vdop>5.312</vdop><extensions><gom:speed>0.784</gom:speed></extensions></trkpt>
   <trkpt lat="59.067523896" lon="30.0296184816"><ele>41.607</ele><time>2026-04-20T18:58:07.715Z</time><hdop>5.125</hdop><vdop>5.312</vdop><extensions><gom:speed>0.827</gom:speed></extensions></trkpt>
   <trkpt lat="59.0675260753" lon="30.0296169729"><ele>41.881</ele><time>2026-04-20T18:58:08.317Z</time><hdop>5.062</hdop><vdop>5.187</vdop><extensions><gom:speed>0.803</gom:speed></extensions></trkpt>
   <trkpt lat="59.0675274583" lon="30.0296166376"><ele>42.045</ele><time>2026-04-20T18:58:08.827Z</time><hdop>5.062</hdop><vdop>5.187</vdop><extensions><gom:speed>0.824</gom:speed></extensions></trkpt>
   <trkpt lat="59.0675329903" lon="30.0296153803"><ele>42.456</ele><time>2026-04-20T18:58:09.403Z</time><hdop>5.0</hdop><vdop>5.437</vdop><extensions><gom:speed>0.838</gom:speed></extensions></trkpt>
   <trkpt lat="59.0675362593" lon="30.0296173919"><ele>42.701</ele><time>2026-04-20T18:58:09.916Z</time><hdop>5.0</hdop><vdop>5.437</vdop><extensions><gom:speed>0.841</gom:speed></extensions></trkpt>
   <trkpt lat="59.0675387738" lon="30.0296177272"><ele>43.512</ele><time>2026-04-20T18:58:10.579Z</time><hdop>4.937</hdop><vdop>5.437</vdop><extensions><gom:speed>0.855</gom:speed></extensions></trkpt>
   <trkpt lat="59.0675439706" lon="30.0296194874"><ele>43.937</ele><time>2026-04-20T18:58:11.279Z</time><hdop>5.0</hdop><vdop>5.5</vdop><extensions><gom:speed>0.857</gom:speed></extensions></trkpt>
   <trkpt lat="59.0675490836" lon="30.0296167214"><ele>44.843</ele><time>2026-04-20T18:58:12.075Z</time><hdop>5.0</hdop><vdop>5.562</vdop><extensions><gom:speed>0.873</gom:speed></extensions></trkpt>
   <trkpt lat="59.0675558729" lon="30.0296138715"><ele>45.384</ele><time>2026-04-20T18:58:12.897Z</time><hdop>5.062</hdop><vdop>5.562</vdop><extensions><gom:speed>0.914</gom:speed></extensions></trkpt>
   <trkpt lat="59.0675619917" lon="30.0296106864"><ele>45.387</ele><time>2026-04-20T18:58:13.561Z</time><hdop>5.187</hdop><vdop>5.562</vdop><extensions><gom:speed>0.968</gom:speed></extensions></trkpt>
   <trkpt lat="59.067564171" lon="30.0296045676"><ele>45.6</ele><time>2026-04-20T18:58:14.075Z</time><hdop>5.25</hdop><vdop>5.687</vdop><extensions><gom:speed>0.951</gom:speed></extensions></trkpt>
   <trkpt lat="59.0675682781" lon="30.0296005443"><ele>45.727</ele><time>2026-04-20T18:58:14.987Z</time><hdop>5.375</hdop><vdop>5.687</vdop><extensions><gom:speed>0.907</gom:speed></extensions></trkpt>
   <trkpt lat="59.0675759895" lon="30.0295925815"><ele>45.778</ele><time>2026-04-20T18:58:16.057Z</time><hdop>5.5</hdop><vdop>5.812</vdop><extensions><gom:speed>0.877</gom:speed></extensions></trkpt>
   <trkpt lat="59.0675821921" lon="30.0295884744"><ele>46.5</ele><time>2026-04-20T18:58:17.034Z</time><hdop>5.562</hdop><vdop>5.875</vdop><extensions><gom:speed>0.908</gom:speed></extensions></trkpt>
   <trkpt lat="59.0675870955" lon="30.0295856245"><ele>46.632</ele><time>2026-04-20T18:58:17.853Z</time><hdop>5.562</hdop><vdop>5.375</vdop><extensions><gom:speed>0.813</gom:speed></extensions></trkpt>
   <trkpt lat="59.0675925857" lon="30.0295805954"><ele>46.898</ele><time>2026-04-20T18:58:18.919Z</time><hdop>5.437</hdop><vdop>5.125</vdop><extensions><gom:speed>0.771</gom:speed></extensions></trkpt>
   <trkpt lat="59.0675973633" lon="30.0295757339"><ele>46.61</ele><time>2026-04-20T18:58:19.660Z</time><hdop>5.375</hdop><vdop>5.062</vdop><extensions><gom:speed>0.755</gom:speed></extensions></trkpt>
   <trkpt lat="59.0676007999" lon="30.0295724649"><ele>46.368</ele><time>2026-04-20T18:58:21.029Z</time><hdop>5.312</hdop><vdop>4.812</vdop><extensions><gom:speed>0.58</gom:speed></extensions></trkpt>
   <trkpt lat="59.067603063" lon="30.0295746442"><ele>46.691</ele><time>2026-04-20T18:58:21.978Z</time><hdop>5.25</hdop><vdop>7.562</vdop><extensions><gom:speed>0.409</gom:speed></extensions></trkpt>
   <trkpt lat="59.0676031888" lon="30.0295746442"><ele>46.884</ele><time>2026-04-20T18:58:22.956Z</time><hdop>5.312</hdop><vdop>7.562</vdop><extensions><gom:speed>0.328</gom:speed></extensions></trkpt>
   <trkpt lat="59.0676037755" lon="30.0295722973"><ele>47.228</ele><time>2026-04-20T18:58:23.836Z</time><hdop>5.375</hdop><vdop>7.625</vdop><extensions><gom:speed>0.3</gom:speed></extensions></trkpt>
   <trkpt lat="59.0676008837" lon="30.0295686931"><ele>47.475</ele><time>2026-04-20T18:58:24.438Z</time><hdop>5.375</hdop><vdop>7.937</vdop><extensions><gom:speed>0.244</gom:speed></extensions></trkpt>
   <trkpt lat="59.0676011771" lon="30.02956643"><ele>47.643</ele><time>2026-04-20T18:58:24.938Z</time><hdop>5.375</hdop><vdop>7.687</vdop><extensions><gom:speed>0.259</gom:speed></extensions></trkpt>
   <trkpt lat="59.0676043622" lon="30.0295626581"><ele>47.743</ele><time>2026-04-20T18:58:25.760Z</time><hdop>5.437</hdop><vdop>7.687</vdop><extensions><gom:speed>0.369</gom:speed></extensions></trkpt>
   <trkpt lat="59.0676074635" lon="30.0295571261"><ele>47.74</ele><time>2026-04-20T18:58:26.540Z</time><hdop>5.5</hdop><vdop>7.5</vdop><extensions><gom:speed>0.502</gom:speed></extensions></trkpt>
   <trkpt lat="59.0676130794" lon="30.0295533542"><ele>47.723</ele><time>2026-04-20T18:58:27.300Z</time><hdop>5.625</hdop><vdop>7.25</vdop><extensions><gom:speed>0.567</gom:speed></extensions></trkpt>
   <trkpt lat="59.0676223833" lon="30.0295475707"><ele>47.715</ele><time>2026-04-20T18:58:28.018Z</time><hdop>5.75</hdop><vdop>7.25</vdop><extensions><gom:speed>0.679</gom:speed></extensions></trkpt>
   <trkpt lat="59.0676292984" lon="30.0295394402"><ele>47.709</ele><time>2026-04-20T18:58:28.781Z</time><hdop>5.875</hdop><vdop>7.25</vdop><extensions><gom:speed>0.798</gom:speed></extensions></trkpt>
   <trkpt lat="59.0676380994" lon="30.0295288791"><ele>47.645</ele><time>2026-04-20T18:58:29.680Z</time><hdop>6.062</hdop><vdop>7.187</vdop><extensions><gom:speed>0.857</gom:speed></extensions></trkpt>
   <trkpt lat="59.0676459784" lon="30.0295245205"><ele>47.848</ele><time>2026-04-20T18:58:30.480Z</time><hdop>6.312</hdop><vdop>6.375</vdop><extensions><gom:speed>0.87</gom:speed></extensions></trkpt>
   <trkpt lat="59.0676443858" lon="30.0295290467"><ele>48.397</ele><time>2026-04-20T18:58:31.075Z</time><hdop>6.312</hdop><vdop>5.625</vdop><extensions><gom:speed>0.845</gom:speed></extensions></trkpt>
   <trkpt lat="59.0676431704" lon="30.0295384344"><ele>49.405</ele><time>2026-04-20T18:58:32.075Z</time><hdop>6.312</hdop><vdop>5.562</vdop><extensions><gom:speed>0.815</gom:speed></extensions></trkpt>
   <trkpt lat="59.0676463975" lon="30.0295410328"><ele>50.007</ele><time>2026-04-20T18:58:32.898Z</time><hdop>6.25</hdop><vdop>5.562</vdop><extensions><gom:speed>0.787</gom:speed></extensions></trkpt>
   <trkpt lat="59.0676481996" lon="30.0295434636"><ele>51.025</ele><time>2026-04-20T18:58:33.643Z</time><hdop>6.062</hdop><vdop>5.562</vdop><extensions><gom:speed>0.816</gom:speed></extensions></trkpt>
   <trkpt lat="59.0676523905" lon="30.0295436312"><ele>52.031</ele><time>2026-04-20T18:58:34.438Z</time><hdop>5.812</hdop><vdop>5.812</vdop><extensions><gom:speed>0.827</gom:speed></extensions></trkpt>
   <trkpt lat="59.0676559948" lon="30.0295433797"><ele>52.315</ele><time>2026-04-20T18:58:35.075Z</time><hdop>5.687</hdop><vdop>5.937</vdop><extensions><gom:speed>0.824</gom:speed></extensions></trkpt>
   <trkpt lat="59.0676626584" lon="30.0295437988"><ele>52.484</ele><time>2026-04-20T18:58:36.037Z</time><hdop>5.375</hdop><vdop>5.937</vdop><extensions><gom:speed>0.805</gom:speed></extensions></trkpt>
   <trkpt lat="59.0676678971" lon="30.0295466487"><ele>52.74</ele><time>2026-04-20T18:58:36.877Z</time><hdop>5.187</hdop><vdop>5.75</vdop><extensions><gom:speed>0.78</gom:speed></extensions></trkpt>
   <trkpt lat="59.0676716689" lon="30.0295486603"><ele>53.054</ele><time>2026-04-20T18:58:37.517Z</time><hdop>5.062</hdop><vdop>5.687</vdop><extensions><gom:speed>0.76</gom:speed></extensions></trkpt>
   <trkpt lat="59.0676753989" lon="30.0295462296"><ele>53.218</ele><time>2026-04-20T18:58:38.075Z</time><hdop>4.937</hdop><vdop>5.562</vdop><extensions><gom:speed>0.751</gom:speed></extensions></trkpt>
   <trkpt lat="59.0676756922" lon="30.0295365904"><ele>53.745</ele><time>2026-04-20T18:58:39.076Z</time><hdop>4.875</hdop><vdop>8.375</vdop><extensions><gom:speed>0.612</gom:speed></extensions></trkpt>
   <trkpt lat="59.0676744769" lon="30.0295361713"><ele>54.059</ele><time>2026-04-20T18:58:39.746Z</time><hdop>4.812</hdop><vdop>8.375</vdop><extensions><gom:speed>0.486</gom:speed></extensions></trkpt>
   <trkpt lat="59.0676763628" lon="30.0295319804"><ele>53.911</ele><time>2026-04-20T18:58:41.049Z</time><hdop>4.625</hdop><vdop>8.5</vdop><extensions><gom:speed>0.281</gom:speed></extensions></trkpt>
   <trkpt lat="59.0676789612" lon="30.0295331538"><ele>53.708</ele><time>2026-04-20T18:58:42.075Z</time><hdop>4.562</hdop><vdop>8.562</vdop><extensions><gom:speed>0.158</gom:speed></extensions></trkpt>
   <trkpt lat="59.0676789612" lon="30.0295343273"><ele>53.586</ele><time>2026-04-20T18:58:42.592Z</time><hdop>4.437</hdop><vdop>8.562</vdop><extensions><gom:speed>0.068</gom:speed></extensions></trkpt>
   <trkpt lat="59.0676789612" lon="30.0295349978"><ele>53.24</ele><time>2026-04-20T18:58:43.293Z</time><hdop>4.375</hdop><vdop>8.5</vdop><extensions><gom:speed>0.101</gom:speed></extensions></trkpt>
   <trkpt lat="59.0676791707" lon="30.0295347464"><ele>53.034</ele><time>2026-04-20T18:58:44.072Z</time><hdop>4.437</hdop><vdop>8.5</vdop><extensions><gom:speed>0.108</gom:speed></extensions></trkpt>
   <trkpt lat="59.0676791707" lon="30.0295347464"><ele>52.946</ele><time>2026-04-20T18:58:45.001Z</time><hdop>4.437</hdop><vdop>8.5</vdop><extensions><gom:speed>0.125</gom:speed></extensions></trkpt>
   <trkpt lat="59.0676792964" lon="30.0295350817"><ele>52.764</ele><time>2026-04-20T18:58:45.593Z</time><hdop>4.437</hdop><vdop>8.562</vdop><extensions><gom:speed>0.087</gom:speed></extensions></trkpt>
   <trkpt lat="59.0676795898" lon="30.0295351655"><ele>52.666</ele><time>2026-04-20T18:58:46.295Z</time><hdop>4.5</hdop><vdop>8.625</vdop><extensions><gom:speed>0.129</gom:speed></extensions></trkpt>
   <trkpt lat="59.0676791707" lon="30.0295354169"><ele>52.607</ele><time>2026-04-20T18:58:46.996Z</time><hdop>4.5</hdop><vdop>8.625</vdop><extensions><gom:speed>0.128</gom:speed></extensions></trkpt>
   <trkpt lat="59.0676829845" lon="30.0295340758"><ele>52.446</ele><time>2026-04-20T18:58:47.677Z</time><hdop>4.625</hdop><vdop>8.312</vdop><extensions><gom:speed>0.229</gom:speed></extensions></trkpt>
   <trkpt lat="59.0676859601" lon="30.0295327347"><ele>52.453</ele><time>2026-04-20T18:58:48.357Z</time><hdop>4.875</hdop><vdop>8.0</vdop><extensions><gom:speed>0.278</gom:speed></extensions></trkpt>
   <trkpt lat="59.0676948868" lon="30.0295272865"><ele>52.457</ele><time>2026-04-20T18:58:49.059Z</time><hdop>5.0</hdop><vdop>8.0</vdop><extensions><gom:speed>0.546</gom:speed></extensions></trkpt>
   <trkpt lat="59.0677136622" lon="30.0295143784"><ele>52.548</ele><time>2026-04-20T18:58:49.642Z</time><hdop>5.125</hdop><vdop>7.812</vdop><extensions><gom:speed>0.93</gom:speed></extensions></trkpt>
   <trkpt lat="59.0677288754" lon="30.0295050744"><ele>52.761</ele><time>2026-04-20T18:58:50.361Z</time><hdop>5.437</hdop><vdop>7.625</vdop><extensions><gom:speed>0.956</gom:speed></extensions></trkpt>
   <trkpt lat="59.0677420769" lon="30.0294958544"><ele>52.889</ele><time>2026-04-20T18:58:51.073Z</time><hdop>5.5</hdop><vdop>7.625</vdop><extensions><gom:speed>1.068</gom:speed></extensions></trkpt>
   <trkpt lat="59.0677528896" lon="30.0294893165"><ele>53.164</ele><time>2026-04-20T18:58:51.793Z</time><hdop>5.562</hdop><vdop>7.562</vdop><extensions><gom:speed>1.07</gom:speed></extensions></trkpt>
   <trkpt lat="59.0677579606" lon="30.0294867181"><ele>53.705</ele><time>2026-04-20T18:58:52.399Z</time><hdop>5.5</hdop><vdop>7.625</vdop><extensions><gom:speed>1.064</gom:speed></extensions></trkpt>
   <trkpt lat="59.067762864" lon="30.0294838682"><ele>54.296</ele><time>2026-04-20T18:58:53.075Z</time><hdop>5.5</hdop><vdop>7.75</vdop><extensions><gom:speed>1.081</gom:speed></extensions></trkpt>
   <trkpt lat="59.067770282" lon="30.0294798449"><ele>54.65</ele><time>2026-04-20T18:58:53.837Z</time><hdop>5.375</hdop><vdop>7.75</vdop><extensions><gom:speed>1.107</gom:speed></extensions></trkpt>
   <trkpt lat="59.067778161" lon="30.0294757378"><ele>54.99</ele><time>2026-04-20T18:58:54.577Z</time><hdop>5.25</hdop><vdop>7.687</vdop><extensions><gom:speed>1.091</gom:speed></extensions></trkpt>
   <trkpt lat="59.0677805917" lon="30.0294757378"><ele>55.328</ele><time>2026-04-20T18:58:55.075Z</time><hdop>5.25</hdop><vdop>7.625</vdop><extensions><gom:speed>1.042</gom:speed></extensions></trkpt>
   <trkpt lat="59.0677880935" lon="30.029471463"><ele>55.537</ele><time>2026-04-20T18:58:55.977Z</time><hdop>5.187</hdop><vdop>7.625</vdop><extensions><gom:speed>1.031</gom:speed></extensions></trkpt>
   <trkpt lat="59.0677956792" lon="30.0294663501"><ele>55.662</ele><time>2026-04-20T18:58:56.838Z</time><hdop>5.312</hdop><vdop>7.625</vdop><extensions><gom:speed>1.007</gom:speed></extensions></trkpt>
   <trkpt lat="59.067802259" lon="30.0294611533"><ele>55.882</ele><time>2026-04-20T18:58:57.579Z</time><hdop>5.562</hdop><vdop>7.5</vdop><extensions><gom:speed>0.989</gom:speed></extensions></trkpt>
   <trkpt lat="59.0678019656" lon="30.0294625782"><ele>56.157</ele><time>2026-04-20T18:58:58.075Z</time><hdop>5.562</hdop><vdop>7.625</vdop><extensions><gom:speed>0.945</gom:speed></extensions></trkpt>
   <trkpt lat="59.0678071624" lon="30.0294590578"><ele>56.523</ele><time>2026-04-20T18:58:59.056Z</time><hdop>5.875</hdop><vdop>7.312</vdop><extensions><gom:speed>0.905</gom:speed></extensions></trkpt>
   <trkpt lat="59.0678143708" lon="30.0294558727"><ele>56.742</ele><time>2026-04-20T18:58:59.977Z</time><hdop>6.062</hdop><vdop>7.312</vdop><extensions><gom:speed>0.953</gom:speed></extensions></trkpt>
   <trkpt lat="59.0678144965" lon="30.0294622429"><ele>57.093</ele><time>2026-04-20T18:59:00.736Z</time><hdop>6.125</hdop><vdop>7.187</vdop><extensions><gom:speed>0.938</gom:speed></extensions></trkpt>
   <trkpt lat="59.0678205734" lon="30.02946174"><ele>57.33</ele><time>2026-04-20T18:59:01.557Z</time><hdop>6.25</hdop><vdop>7.187</vdop><extensions><gom:speed>0.924</gom:speed></extensions></trkpt>
   <trkpt lat="59.0678204896" lon="30.029465428"><ele>56.39</ele><time>2026-04-20T18:59:02.076Z</time><hdop>6.25</hdop><vdop>6.25</vdop><extensions><gom:speed>0.911</gom:speed></extensions></trkpt>
   <trkpt lat="59.0678243872" lon="30.0294666853"><ele>56.125</ele><time>2026-04-20T18:59:03.075Z</time><hdop>6.187</hdop><vdop>6.0</vdop><extensions><gom:speed>0.943</gom:speed></extensions></trkpt>
   <trkpt lat="59.0678306736" lon="30.0294634164"><ele>55.967</ele><time>2026-04-20T18:59:04.014Z</time><hdop>6.125</hdop><vdop>6.0</vdop><extensions><gom:speed>0.904</gom:speed></extensions></trkpt>
   <trkpt lat="59.0678409834" lon="30.0294537772"><ele>56.173</ele><time>2026-04-20T18:59:05.075Z</time><hdop>5.875</hdop><vdop>5.687</vdop><extensions><gom:speed>0.839</gom:speed></extensions></trkpt>
   <trkpt lat="59.0678448809" lon="30.0294496701"><ele>56.295</ele><time>2026-04-20T18:59:05.762Z</time><hdop>5.812</hdop><vdop>5.687</vdop><extensions><gom:speed>0.771</gom:speed></extensions></trkpt>
   <trkpt lat="59.0678535981" lon="30.0294464849"><ele>56.354</ele><time>2026-04-20T18:59:06.681Z</time><hdop>5.625</hdop><vdop>5.625</vdop><extensions><gom:speed>0.738</gom:speed></extensions></trkpt>
   <trkpt lat="59.0678625668" lon="30.0294476584"><ele>55.904</ele><time>2026-04-20T18:59:07.460Z</time><hdop>5.5</hdop><vdop>5.437</vdop><extensions><gom:speed>0.748</gom:speed></extensions></trkpt>
   <trkpt lat="59.0678699847" lon="30.0294505921"><ele>55.654</ele><time>2026-04-20T18:59:08.075Z</time><hdop>5.5</hdop><vdop>5.25</vdop><extensions><gom:speed>0.743</gom:speed></extensions></trkpt>
   <trkpt lat="59.0678803783" lon="30.0294572976"><ele>56.292</ele><time>2026-04-20T18:59:09.076Z</time><hdop>5.375</hdop><vdop>5.25</vdop><extensions><gom:speed>0.653</gom:speed></extensions></trkpt>
   <trkpt lat="59.0678864971" lon="30.0294604827"><ele>56.673</ele><time>2026-04-20T18:59:10.016Z</time><hdop>5.312</hdop><vdop>5.25</vdop><extensions><gom:speed>0.594</gom:speed></extensions></trkpt>
   <trkpt lat="59.0678913586" lon="30.0294642546"><ele>56.627</ele><time>2026-04-20T18:59:10.666Z</time><hdop>5.312</hdop><vdop>5.125</vdop><extensions><gom:speed>0.62</gom:speed></extensions></trkpt>
   <trkpt lat="59.067913864" lon="30.0294730556"><ele>56.388</ele><time>2026-04-20T18:59:12.075Z</time><hdop>5.187</hdop><vdop>4.937</vdop><extensions><gom:speed>0.557</gom:speed></extensions></trkpt>
   <trkpt lat="59.0679210724" lon="30.0294718821"><ele>56.245</ele><time>2026-04-20T18:59:12.997Z</time><hdop>5.062</hdop><vdop>4.937</vdop><extensions><gom:speed>0.509</gom:speed></extensions></trkpt>
   <trkpt lat="59.0679295801" lon="30.0294664339"><ele>56.026</ele><time>2026-04-20T18:59:14.034Z</time><hdop>4.937</hdop><vdop>4.687</vdop><extensions><gom:speed>0.521</gom:speed></extensions></trkpt>
   <trkpt lat="59.0679374591" lon="30.029462662"><ele>55.667</ele><time>2026-04-20T18:59:14.914Z</time><hdop>4.812</hdop><vdop>4.625</vdop><extensions><gom:speed>0.499</gom:speed></extensions></trkpt>
   <trkpt lat="59.0679459667" lon="30.0294616562"><ele>55.289</ele><time>2026-04-20T18:59:15.633Z</time><hdop>4.625</hdop><vdop>5.0</vdop><extensions><gom:speed>0.483</gom:speed></extensions></trkpt>
   <trkpt lat="59.067955564" lon="30.0294602313"><ele>54.809</ele><time>2026-04-20T18:59:16.434Z</time><hdop>4.5</hdop><vdop>5.062</vdop><extensions><gom:speed>0.489</gom:speed></extensions></trkpt>
   <trkpt lat="59.0679647841" lon="30.0294594769"><ele>54.243</ele><time>2026-04-20T18:59:17.075Z</time><hdop>4.5</hdop><vdop>5.125</vdop><extensions><gom:speed>0.477</gom:speed></extensions></trkpt>
   <trkpt lat="59.0679676758" lon="30.0294615724"><ele>53.777</ele><time>2026-04-20T18:59:18.010Z</time><hdop>4.437</hdop><vdop>5.125</vdop><extensions><gom:speed>0.357</gom:speed></extensions></trkpt>
   <trkpt lat="59.0679729983" lon="30.029467775"><ele>53.402</ele><time>2026-04-20T18:59:19.075Z</time><hdop>4.375</hdop><vdop>5.312</vdop><extensions><gom:speed>0.288</gom:speed></extensions></trkpt>
   <trkpt lat="59.0679736689" lon="30.0294711277"><ele>53.168</ele><time>2026-04-20T18:59:20.024Z</time><hdop>4.437</hdop><vdop>5.5</vdop><extensions><gom:speed>0.18</gom:speed></extensions></trkpt>
   <trkpt lat="59.0679767702" lon="30.0294737261"><ele>52.79</ele><time>2026-04-20T18:59:21.075Z</time><hdop>4.437</hdop><vdop>5.5</vdop><extensions><gom:speed>0.097</gom:speed></extensions></trkpt>
   <trkpt lat="59.0679808773" lon="30.0294780847"><ele>52.401</ele><time>2026-04-20T18:59:22.075Z</time><hdop>4.5</hdop><vdop>5.312</vdop><extensions><gom:speed>0.113</gom:speed></extensions></trkpt>
   <trkpt lat="59.0679811707" lon="30.0294792582"><ele>52.168</ele><time>2026-04-20T18:59:22.986Z</time><hdop>4.5</hdop><vdop>5.312</vdop><extensions><gom:speed>0.09</gom:speed></extensions></trkpt>
   <trkpt lat="59.0679846911" lon="30.0294845388"><ele>51.464</ele><time>2026-04-20T18:59:24.075Z</time><hdop>4.5</hdop><vdop>5.062</vdop><extensions><gom:speed>0.07</gom:speed></extensions></trkpt>
   <trkpt lat="59.0679854874" lon="30.0294849579"><ele>50.571</ele><time>2026-04-20T18:59:24.999Z</time><hdop>4.5</hdop><vdop>5.187</vdop><extensions><gom:speed>0.071</gom:speed></extensions></trkpt>
   <trkpt lat="59.0679883791" lon="30.0294878915"><ele>49.902</ele><time>2026-04-20T18:59:26.076Z</time><hdop>4.437</hdop><vdop>5.187</vdop><extensions><gom:speed>0.098</gom:speed></extensions></trkpt>
   <trkpt lat="59.0679889659" lon="30.0294893165"><ele>49.29</ele><time>2026-04-20T18:59:27.013Z</time><hdop>4.375</hdop><vdop>5.0</vdop><extensions><gom:speed>0.069</gom:speed></extensions></trkpt>
   <trkpt lat="59.0679920672" lon="30.0294935912"><ele>49.074</ele><time>2026-04-20T18:59:28.075Z</time><hdop>4.312</hdop><vdop>4.687</vdop><extensions><gom:speed>0.061</gom:speed></extensions></trkpt>
   <trkpt lat="59.0679928634" lon="30.029496944"><ele>49.144</ele><time>2026-04-20T18:59:29.027Z</time><hdop>4.375</hdop><vdop>4.437</vdop><extensions><gom:speed>0.066</gom:speed></extensions></trkpt>
   <trkpt lat="59.0679974735" lon="30.0295034819"><ele>49.288</ele><time>2026-04-20T18:59:30.075Z</time><hdop>4.437</hdop><vdop>4.375</vdop><extensions><gom:speed>0.101</gom:speed></extensions></trkpt>
   <trkpt lat="59.0679978926" lon="30.0295036495"><ele>49.42</ele><time>2026-04-20T18:59:31.041Z</time><hdop>4.5</hdop><vdop>4.187</vdop><extensions><gom:speed>0.072</gom:speed></extensions></trkpt>
   <trkpt lat="59.0680020835" lon="30.0295081758"><ele>49.515</ele><time>2026-04-20T18:59:32.075Z</time><hdop>4.562</hdop><vdop>4.0</vdop><extensions><gom:speed>0.072</gom:speed></extensions></trkpt>
   <trkpt lat="59.0680065679" lon="30.0295146298"><ele>49.645</ele><time>2026-04-20T18:59:33.076Z</time><hdop>4.687</hdop><vdop>3.812</vdop><extensions><gom:speed>0.097</gom:speed></extensions></trkpt>
   <trkpt lat="59.06800837" lon="30.0295187369"><ele>49.656</ele><time>2026-04-20T18:59:34.002Z</time><hdop>4.75</hdop><vdop>3.687</vdop><extensions><gom:speed>0.067</gom:speed></extensions></trkpt>
   <trkpt lat="59.0680104654" lon="30.029523347"><ele>49.685</ele><time>2026-04-20T18:59:35.075Z</time><hdop>4.875</hdop><vdop>3.562</vdop><extensions><gom:speed>0.195</gom:speed></extensions></trkpt>
   <trkpt lat="59.0680153689" lon="30.0295294658"><ele>49.547</ele><time>2026-04-20T18:59:36.075Z</time><hdop>4.937</hdop><vdop>3.5</vdop><extensions><gom:speed>0.396</gom:speed></extensions></trkpt>
   <trkpt lat="59.0680176739" lon="30.0295311422"><ele>49.464</ele><time>2026-04-20T18:59:36.661Z</time><hdop>4.937</hdop><vdop>3.5</vdop><extensions><gom:speed>0.401</gom:speed></extensions></trkpt>
   <trkpt lat="59.0680213619" lon="30.0295346626"><ele>48.977</ele><time>2026-04-20T18:59:37.275Z</time><hdop>5.0</hdop><vdop>3.625</vdop><extensions><gom:speed>0.413</gom:speed></extensions></trkpt>
   <trkpt lat="59.0680255948" lon="30.0295373448"><ele>48.756</ele><time>2026-04-20T18:59:38.075Z</time><hdop>5.0</hdop><vdop>8.937</vdop><extensions><gom:speed>0.363</gom:speed></extensions></trkpt>
   <trkpt lat="59.0680288637" lon="30.0295383506"><ele>48.624</ele><time>2026-04-20T18:59:38.980Z</time><hdop>5.062</hdop><vdop>8.937</vdop><extensions><gom:speed>0.351</gom:speed></extensions></trkpt>
   <trkpt lat="59.0680327613" lon="30.029540949"><ele>48.482</ele><time>2026-04-20T18:59:39.742Z</time><hdop>5.187</hdop><vdop>9.0</vdop><extensions><gom:speed>0.422</gom:speed></extensions></trkpt>
   <trkpt lat="59.0680341862" lon="30.0295423739"><ele>48.389</ele><time>2026-04-20T18:59:40.718Z</time><hdop>5.312</hdop><vdop>8.625</vdop><extensions><gom:speed>0.348</gom:speed></extensions></trkpt>
   <trkpt lat="59.0680366589" lon="30.0295421225"><ele>48.283</ele><time>2026-04-20T18:59:41.617Z</time><hdop>5.437</hdop><vdop>8.125</vdop><extensions><gom:speed>0.435</gom:speed></extensions></trkpt>
   <trkpt lat="59.0680410594" lon="30.0295412843"><ele>48.17</ele><time>2026-04-20T18:59:42.455Z</time><hdop>5.75</hdop><vdop>7.875</vdop><extensions><gom:speed>0.51</gom:speed></extensions></trkpt>
   <trkpt lat="59.0680442864" lon="30.0295401946"><ele>48.148</ele><time>2026-04-20T18:59:43.007Z</time><hdop>5.812</hdop><vdop>7.562</vdop><extensions><gom:speed>0.526</gom:speed></extensions></trkpt>
   <trkpt lat="59.0680508662" lon="30.029536758"><ele>48.135</ele><time>2026-04-20T18:59:44.035Z</time><hdop>6.187</hdop><vdop>7.562</vdop><extensions><gom:speed>0.605</gom:speed></extensions></trkpt>
   <trkpt lat="59.068058368" lon="30.0295319804"><ele>48.09</ele><time>2026-04-20T18:59:44.972Z</time><hdop>6.562</hdop><vdop>7.125</vdop><extensions><gom:speed>0.642</gom:speed></extensions></trkpt>
   <trkpt lat="59.0680655765" lon="30.0295261968"><ele>48.05</ele><time>2026-04-20T18:59:45.921Z</time><hdop>7.0</hdop><vdop>7.0</vdop><extensions><gom:speed>0.677</gom:speed></extensions></trkpt>
   <trkpt lat="59.0680715695" lon="30.029519659"><ele>47.97</ele><time>2026-04-20T18:59:46.701Z</time><hdop>7.437</hdop><vdop>6.875</vdop><extensions><gom:speed>0.75</gom:speed></extensions></trkpt>
   <trkpt lat="59.0680786941" lon="30.0295123667"><ele>47.861</ele><time>2026-04-20T18:59:47.519Z</time><hdop>7.937</hdop><vdop>7.0</vdop><extensions><gom:speed>0.823</gom:speed></extensions></trkpt>
   <trkpt lat="59.0680869922" lon="30.0295049906"><ele>47.914</ele><time>2026-04-20T18:59:47.981Z</time><hdop>8.125</hdop><vdop>7.25</vdop><extensions><gom:speed>0.839</gom:speed></extensions></trkpt>
   <trkpt lat="59.0680929853" lon="30.0294971955"><ele>47.946</ele><time>2026-04-20T18:59:49.084Z</time><hdop>8.812</hdop><vdop>7.25</vdop><extensions><gom:speed>0.874</gom:speed></extensions></trkpt>
   <trkpt lat="59.0680978887" lon="30.0295044877"><ele>48.059</ele><time>2026-04-20T18:59:49.820Z</time><hdop>8.812</hdop><vdop>7.312</vdop><extensions><gom:speed>0.874</gom:speed></extensions></trkpt>
   <trkpt lat="59.0681049714" lon="30.0295083434"><ele>48.255</ele><time>2026-04-20T18:59:50.856Z</time><hdop>9.0</hdop><vdop>7.25</vdop><extensions><gom:speed>0.825</gom:speed></extensions></trkpt>
   <trkpt lat="59.0681107968" lon="30.0295060803"><ele>48.462</ele><time>2026-04-20T18:59:51.735Z</time><hdop>9.25</hdop><vdop>7.312</vdop><extensions><gom:speed>0.808</gom:speed></extensions></trkpt>
   <trkpt lat="59.0681128923" lon="30.0295159709"><ele>48.697</ele><time>2026-04-20T18:59:52.515Z</time><hdop>9.125</hdop><vdop>7.437</vdop><extensions><gom:speed>0.774</gom:speed></extensions></trkpt>
   <trkpt lat="59.0681171671" lon="30.0295157195"><ele>48.971</ele><time>2026-04-20T18:59:53.314Z</time><hdop>9.062</hdop><vdop>7.25</vdop><extensions><gom:speed>0.775</gom:speed></extensions></trkpt>
   <trkpt lat="59.0681186758" lon="30.0295146298"><ele>49.135</ele><time>2026-04-20T18:59:53.905Z</time><hdop>9.062</hdop><vdop>7.25</vdop><extensions><gom:speed>0.792</gom:speed></extensions></trkpt>
   <trkpt lat="59.0681265967" lon="30.0295055774"><ele>51.248</ele><time>2026-04-20T18:59:54.835Z</time><hdop>8.875</hdop><vdop>6.062</vdop><extensions><gom:speed>0.84</gom:speed></extensions></trkpt>
   <trkpt lat="59.0681298657" lon="30.0294961896"><ele>52.117</ele><time>2026-04-20T18:59:55.637Z</time><hdop>8.687</hdop><vdop>5.312</vdop><extensions><gom:speed>0.84</gom:speed></extensions></trkpt>
   <trkpt lat="59.0681355653" lon="30.0294837844"><ele>52.395</ele><time>2026-04-20T18:59:56.532Z</time><hdop>8.312</hdop><vdop>5.062</vdop><extensions><gom:speed>0.802</gom:speed></extensions></trkpt>
   <trkpt lat="59.0681401754" lon="30.0294766598"><ele>52.579</ele><time>2026-04-20T18:59:57.076Z</time><hdop>8.062</hdop><vdop>5.375</vdop><extensions><gom:speed>0.78</gom:speed></extensions></trkpt>
   <trkpt lat="59.0681496889" lon="30.0294661824"><ele>53.128</ele><time>2026-04-20T18:59:58.075Z</time><hdop>7.562</hdop><vdop>5.437</vdop><extensions><gom:speed>0.826</gom:speed></extensions></trkpt>
   <trkpt lat="59.0681583641" lon="30.0294582196"><ele>53.455</ele><time>2026-04-20T18:59:59.001Z</time><hdop>7.062</hdop><vdop>5.437</vdop><extensions><gom:speed>0.821</gom:speed></extensions></trkpt>
   <trkpt lat="59.0681681709" lon="30.0294506759"><ele>53.909</ele><time>2026-04-20T19:00:00.018Z</time><hdop>6.375</hdop><vdop>8.937</vdop><extensions><gom:speed>0.773</gom:speed></extensions></trkpt>
   <trkpt lat="59.0681756728" lon="30.0294451438"><ele>54.652</ele><time>2026-04-20T19:00:01.012Z</time><hdop>6.0</hdop><vdop>8.375</vdop><extensions><gom:speed>0.662</gom:speed></extensions></trkpt>
   <trkpt lat="59.0681807857" lon="30.0294427969"><ele>55.096</ele><time>2026-04-20T19:00:01.954Z</time><hdop>5.812</hdop><vdop>8.375</vdop><extensions><gom:speed>0.629</gom:speed></extensions></trkpt>
   <trkpt lat="59.068186192" lon="30.0294377678"><ele>55.756</ele><time>2026-04-20T19:00:02.732Z</time><hdop>5.75</hdop><vdop>8.187</vdop><extensions><gom:speed>0.673</gom:speed></extensions></trkpt>
   <trkpt lat="59.0681910955" lon="30.0294323195"><ele>56.369</ele><time>2026-04-20T19:00:03.454Z</time><hdop>5.75</hdop><vdop>8.312</vdop><extensions><gom:speed>0.671</gom:speed></extensions></trkpt>
   <trkpt lat="59.068194993" lon="30.0294267875"><ele>56.948</ele><time>2026-04-20T19:00:04.075Z</time><hdop>5.687</hdop><vdop>8.062</vdop><extensions><gom:speed>0.692</gom:speed></extensions></trkpt>
   <trkpt lat="59.0682017824" lon="30.0294171483"><ele>57.294</ele><time>2026-04-20T19:00:05.033Z</time><hdop>5.75</hdop><vdop>8.062</vdop><extensions><gom:speed>0.748</gom:speed></extensions></trkpt>
   <trkpt lat="59.0682087813" lon="30.0294069224"><ele>56.552</ele><time>2026-04-20T19:00:05.792Z</time><hdop>5.812</hdop><vdop>7.75</vdop><extensions><gom:speed>0.86</gom:speed></extensions></trkpt>
   <trkpt lat="59.0682199711" lon="30.029395523"><ele>55.981</ele><time>2026-04-20T19:00:06.514Z</time><hdop>5.75</hdop><vdop>6.75</vdop><extensions><gom:speed>0.904</gom:speed></extensions></trkpt>
   <trkpt lat="59.0682242878" lon="30.0293920864"><ele>55.782</ele><time>2026-04-20T19:00:07.075Z</time><hdop>5.75</hdop><vdop>6.437</vdop><extensions><gom:speed>0.91</gom:speed></extensions></trkpt>
   <trkpt lat="59.0682313705" lon="30.0293844589"><ele>55.662</ele><time>2026-04-20T19:00:07.936Z</time><hdop>5.687</hdop><vdop>6.437</vdop><extensions><gom:speed>0.959</gom:speed></extensions></trkpt>
   <trkpt lat="59.0682390818" lon="30.0293766637"><ele>57.482</ele><time>2026-04-20T19:00:08.695Z</time><hdop>5.687</hdop><vdop>6.312</vdop><extensions><gom:speed>1.012</gom:speed></extensions></trkpt>
   <trkpt lat="59.0682470866" lon="30.0293710478"><ele>58.576</ele><time>2026-04-20T19:00:09.396Z</time><hdop>5.687</hdop><vdop>6.062</vdop><extensions><gom:speed>1.005</gom:speed></extensions></trkpt>
   <trkpt lat="59.0682545884" lon="30.0293680303"><ele>59.276</ele><time>2026-04-20T19:00:10.075Z</time><hdop>5.625</hdop><vdop>5.937</vdop><extensions><gom:speed>0.977</gom:speed></extensions></trkpt>
   <trkpt lat="59.0682628865" lon="30.0293626659"><ele>59.694</ele><time>2026-04-20T19:00:10.976Z</time><hdop>5.625</hdop><vdop>5.937</vdop><extensions><gom:speed>0.927</gom:speed></extensions></trkpt>
   <trkpt lat="59.0682706816" lon="30.0293595646"><ele>61.066</ele><time>2026-04-20T19:00:11.795Z</time><hdop>5.562</hdop><vdop>5.625</vdop><extensions><gom:speed>0.841</gom:speed></extensions></trkpt>
   <trkpt lat="59.068275585" lon="30.0293590617"><ele>62.48</ele><time>2026-04-20T19:00:12.503Z</time><hdop>5.562</hdop><vdop>5.5</vdop><extensions><gom:speed>0.805</gom:speed></extensions></trkpt>
   <trkpt lat="59.0682854757" lon="30.0293552898"><ele>63.921</ele><time>2026-04-20T19:00:13.075Z</time><hdop>5.5</hdop><vdop>5.187</vdop><extensions><gom:speed>0.793</gom:speed></extensions></trkpt>
   <trkpt lat="59.0682960788" lon="30.0293531944"><ele>66.192</ele><time>2026-04-20T19:00:14.076Z</time><hdop>5.437</hdop><vdop>4.812</vdop><extensions><gom:speed>0.798</gom:speed></extensions></trkpt>
   <trkpt lat="59.0683068914" lon="30.0293489196"><ele>68.008</ele><time>2026-04-20T19:00:15.075Z</time><hdop>5.375</hdop><vdop>4.687</vdop><extensions><gom:speed>0.733</gom:speed></extensions></trkpt>
   <trkpt lat="59.0683164887" lon="30.0293440581"><ele>69.729</ele><time>2026-04-20T19:00:16.075Z</time><hdop>5.187</hdop><vdop>4.562</vdop><extensions><gom:speed>0.653</gom:speed></extensions></trkpt>
   <trkpt lat="59.0683247868" lon="30.0293380231"><ele>70.854</ele><time>2026-04-20T19:00:17.075Z</time><hdop>5.062</hdop><vdop>4.187</vdop><extensions><gom:speed>0.621</gom:speed></extensions></trkpt>
   <trkpt lat="59.0683299836" lon="30.0293314852"><ele>71.527</ele><time>2026-04-20T19:00:17.896Z</time><hdop>4.937</hdop><vdop>4.187</vdop><extensions><gom:speed>0.632</gom:speed></extensions></trkpt>
   <trkpt lat="59.0683392875" lon="30.0293271266"><ele>72.198</ele><time>2026-04-20T19:00:18.715Z</time><hdop>4.812</hdop><vdop>3.937</vdop><extensions><gom:speed>0.711</gom:speed></extensions></trkpt>
   <trkpt lat="59.0683511898" lon="30.0293221813"><ele>72.472</ele><time>2026-04-20T19:00:19.692Z</time><hdop>4.75</hdop><vdop>3.75</vdop><extensions><gom:speed>0.731</gom:speed></extensions></trkpt>
   <trkpt lat="59.0683622958" lon="30.0293150567"><ele>72.649</ele><time>2026-04-20T19:00:20.581Z</time><hdop>4.687</hdop><vdop>3.625</vdop><extensions><gom:speed>0.784</gom:speed></extensions></trkpt>
   <trkpt lat="59.0683689594" lon="30.0293111172"><ele>72.41</ele><time>2026-04-20T19:00:21.076Z</time><hdop>4.687</hdop><vdop>3.562</vdop><extensions><gom:speed>0.781</gom:speed></extensions></trkpt>
   <trkpt lat="59.0683807779" lon="30.0293057528"><ele>72.3</ele><time>2026-04-20T19:00:22.075Z</time><hdop>4.625</hdop><vdop>3.375</vdop><extensions><gom:speed>0.806</gom:speed></extensions></trkpt>
   <trkpt lat="59.0683917582" lon="30.029300556"><ele>72.272</ele><time>2026-04-20T19:00:23.075Z</time><hdop>4.687</hdop><vdop>3.375</vdop><extensions><gom:speed>0.76</gom:speed></extensions></trkpt>
   <trkpt lat="59.068402068" lon="30.0292983767"><ele>72.652</ele><time>2026-04-20T19:00:24.075Z</time><hdop>4.687</hdop><vdop>3.187</vdop><extensions><gom:speed>0.735</gom:speed></extensions></trkpt>
   <trkpt lat="59.0684087735" lon="30.0292965327"><ele>72.879</ele><time>2026-04-20T19:00:24.879Z</time><hdop>4.687</hdop><vdop>3.187</vdop><extensions><gom:speed>0.741</gom:speed></extensions></trkpt>
   <trkpt lat="59.0684189994" lon="30.0292927608"><ele>72.961</ele><time>2026-04-20T19:00:25.675Z</time><hdop>4.75</hdop><vdop>3.062</vdop><extensions><gom:speed>0.814</gom:speed></extensions></trkpt>
   <trkpt lat="59.0684304826" lon="30.029288989"><ele>73.057</ele><time>2026-04-20T19:00:26.555Z</time><hdop>4.812</hdop><vdop>3.062</vdop><extensions><gom:speed>0.807</gom:speed></extensions></trkpt>
   <trkpt lat="59.0684375653" lon="30.0292870611"><ele>73.15</ele><time>2026-04-20T19:00:27.075Z</time><hdop>4.75</hdop><vdop>2.937</vdop><extensions><gom:speed>0.797</gom:speed></extensions></trkpt>
   <trkpt lat="59.0684490904" lon="30.0292830378"><ele>73.335</ele><time>2026-04-20T19:00:28.075Z</time><hdop>4.812</hdop><vdop>3.0</vdop><extensions><gom:speed>0.803</gom:speed></extensions></trkpt>
   <trkpt lat="59.0684573885" lon="30.0292795174"><ele>73.445</ele><time>2026-04-20T19:00:28.913Z</time><hdop>4.812</hdop><vdop>3.0</vdop><extensions><gom:speed>0.827</gom:speed></extensions></trkpt>
   <trkpt lat="59.0684658961" lon="30.029278344"><ele>73.604</ele><time>2026-04-20T19:00:29.653Z</time><hdop>4.875</hdop><vdop>8.75</vdop><extensions><gom:speed>0.853</gom:speed></extensions></trkpt>
   <trkpt lat="59.0684734818" lon="30.0292747397"><ele>73.856</ele><time>2026-04-20T19:00:30.512Z</time><hdop>4.875</hdop><vdop>9.0</vdop><extensions><gom:speed>0.856</gom:speed></extensions></trkpt>
   <trkpt lat="59.0684749905" lon="30.0292738177"><ele>74.007</ele><time>2026-04-20T19:00:30.983Z</time><hdop>4.937</hdop><vdop>9.0</vdop><extensions><gom:speed>0.855</gom:speed></extensions></trkpt>
   <trkpt lat="59.06848727" lon="30.0292699621"><ele>74.315</ele><time>2026-04-20T19:00:31.973Z</time><hdop>5.062</hdop><vdop>9.25</vdop><extensions><gom:speed>0.882</gom:speed></extensions></trkpt>
   <trkpt lat="59.0684930954" lon="30.0292676989"><ele>74.471</ele><time>2026-04-20T19:00:32.694Z</time><hdop>5.187</hdop><vdop>9.562</vdop><extensions><gom:speed>0.879</gom:speed></extensions></trkpt>
   <trkpt lat="59.0685000943" lon="30.0292668608"><ele>74.573</ele><time>2026-04-20T19:00:33.553Z</time><hdop>5.375</hdop><vdop>9.687</vdop><extensions><gom:speed>0.86</gom:speed></extensions></trkpt>
   <trkpt lat="59.0685041595" lon="30.0292674475"><ele>74.614</ele><time>2026-04-20T19:00:34.075Z</time><hdop>5.5</hdop><vdop>10.0</vdop><extensions><gom:speed>0.86</gom:speed></extensions></trkpt>
   <trkpt lat="59.068508099" lon="30.0292677828"><ele>74.639</ele><time>2026-04-20T19:00:34.642Z</time><hdop>5.562</hdop><vdop>10.0</vdop><extensions><gom:speed>0.812</gom:speed></extensions></trkpt>
   <trkpt lat="59.0685151817" lon="30.0292659387"><ele>74.767</ele><time>2026-04-20T19:00:35.655Z</time><hdop>5.875</hdop><vdop>10.312</vdop><extensions><gom:speed>0.77</gom:speed></extensions></trkpt>
   <trkpt lat="59.0685206719" lon="30.0292626698"><ele>74.79</ele><time>2026-04-20T19:00:36.514Z</time><hdop>6.187</hdop><vdop>10.375</vdop><extensions><gom:speed>0.741</gom:speed></extensions></trkpt>
   <trkpt lat="59.0685241923" lon="30.02925982"><ele>74.85</ele><time>2026-04-20T19:00:37.025Z</time><hdop>6.312</hdop><vdop>10.875</vdop><extensions><gom:speed>0.74</gom:speed></extensions></trkpt>
   <trkpt lat="59.0685311912" lon="30.0292514381"><ele>74.975</ele><time>2026-04-20T19:00:37.973Z</time><hdop>6.562</hdop><vdop>10.687</vdop><extensions><gom:speed>0.625</gom:speed></extensions></trkpt>
   <trkpt lat="59.068532197" lon="30.0292488397"><ele>75.076</ele><time>2026-04-20T19:00:39.075Z</time><hdop>6.812</hdop><vdop>10.125</vdop><extensions><gom:speed>0.528</gom:speed></extensions></trkpt>
   <trkpt lat="59.068534963" lon="30.0292469956"><ele>75.137</ele><time>2026-04-20T19:00:40.021Z</time><hdop>7.0</hdop><vdop>10.125</vdop><extensions><gom:speed>0.583</gom:speed></extensions></trkpt>
   <trkpt lat="59.0685404951" lon="30.0292442296"><ele>75.201</ele><time>2026-04-20T19:00:40.779Z</time><hdop>7.187</hdop><vdop>9.875</vdop><extensions><gom:speed>0.689</gom:speed></extensions></trkpt>
   <trkpt lat="59.0685453985" lon="30.0292456545"><ele>75.3</ele><time>2026-04-20T19:00:41.561Z</time><hdop>7.437</hdop><vdop>9.375</vdop><extensions><gom:speed>0.726</gom:speed></extensions></trkpt>
   <trkpt lat="59.0685505953" lon="30.0292451516"><ele>75.327</ele><time>2026-04-20T19:00:42.299Z</time><hdop>7.625</hdop><vdop>8.687</vdop><extensions><gom:speed>0.729</gom:speed></extensions></trkpt>
   <trkpt lat="59.0685569655" lon="30.0292421341"><ele>75.413</ele><time>2026-04-20T19:00:43.067Z</time><hdop>7.687</hdop><vdop>8.125</vdop><extensions><gom:speed>0.794</gom:speed></extensions></trkpt>
   <trkpt lat="59.0685700832" lon="30.0292346743"><ele>75.464</ele><time>2026-04-20T19:00:43.860Z</time><hdop>7.937</hdop><vdop>8.125</vdop><extensions><gom:speed>0.881</gom:speed></extensions></trkpt>
   <trkpt lat="59.0685707957" lon="30.0292356801"><ele>75.576</ele><time>2026-04-20T19:00:44.619Z</time><hdop>8.062</hdop><vdop>7.625</vdop><extensions><gom:speed>0.927</gom:speed></extensions></trkpt>
   <trkpt lat="59.0685762858" lon="30.0292307348"><ele>75.772</ele><time>2026-04-20T19:00:45.419Z</time><hdop>8.187</hdop><vdop>7.312</vdop><extensions><gom:speed>0.964</gom:speed></extensions></trkpt>
   <trkpt lat="59.068581776" lon="30.0292261247"><ele>75.889</ele><time>2026-04-20T19:00:46.082Z</time><hdop>8.312</hdop><vdop>7.312</vdop><extensions><gom:speed>0.963</gom:speed></extensions></trkpt>
   <trkpt lat="59.0685830752" lon="30.0292253703"><ele>76.074</ele><time>2026-04-20T19:00:46.781Z</time><hdop>8.312</hdop><vdop>7.187</vdop><extensions><gom:speed>0.949</gom:speed></extensions></trkpt>
   <trkpt lat="59.068586386" lon="30.0292218499"><ele>76.316</ele><time>2026-04-20T19:00:47.581Z</time><hdop>8.312</hdop><vdop>7.0</vdop><extensions><gom:speed>0.952</gom:speed></extensions></trkpt>
   <trkpt lat="59.0685856735" lon="30.0292234425"><ele>76.531</ele><time>2026-04-20T19:00:48.075Z</time><hdop>8.25</hdop><vdop>7.125</vdop><extensions><gom:speed>0.936</gom:speed></extensions></trkpt>
   <trkpt lat="59.068590577" lon="30.0292203412"><ele>76.66</ele><time>2026-04-20T19:00:49.084Z</time><hdop>8.062</hdop><vdop>7.125</vdop><extensions><gom:speed>0.965</gom:speed></extensions></trkpt>
   <trkpt lat="59.068597492" lon="30.0292135519"><ele>80.016</ele><time>2026-04-20T19:00:49.582Z</time><hdop>7.937</hdop><vdop>5.687</vdop><extensions><gom:speed>0.983</gom:speed></extensions></trkpt>
   <trkpt lat="59.0686214643" lon="30.0291986321"><ele>83.717</ele><time>2026-04-20T19:00:50.075Z</time><hdop>7.687</hdop><vdop>4.75</vdop><extensions><gom:speed>0.987</gom:speed></extensions></trkpt>
   <trkpt lat="59.0686443888" lon="30.0292006437"><ele>87.485</ele><time>2026-04-20T19:00:51.075Z</time><hdop>7.312</hdop><vdop>3.562</vdop><extensions><gom:speed>0.97</gom:speed></extensions></trkpt>
   <trkpt lat="59.0686583866" lon="30.0292154797"><ele>90.89</ele><time>2026-04-20T19:00:52.075Z</time><hdop>6.812</hdop><vdop>3.125</vdop><extensions><gom:speed>0.927</gom:speed></extensions></trkpt>
   <trkpt lat="59.0686663913" lon="30.0292253703"><ele>93.038</ele><time>2026-04-20T19:00:53.075Z</time><hdop>6.25</hdop><vdop>2.937</vdop><extensions><gom:speed>0.81</gom:speed></extensions></trkpt>
   <trkpt lat="59.068673474" lon="30.0292275496"><ele>94.522</ele><time>2026-04-20T19:00:54.076Z</time><hdop>5.625</hdop><vdop>2.875</vdop><extensions><gom:speed>0.604</gom:speed></extensions></trkpt>
   <trkpt lat="59.0686765753" lon="30.0292193354"><ele>96.096</ele><time>2026-04-20T19:00:55.075Z</time><hdop>4.937</hdop><vdop>2.812</vdop><extensions><gom:speed>0.21</gom:speed></extensions></trkpt>
   <trkpt lat="59.0686762819" lon="30.0292151444"><ele>97.037</ele><time>2026-04-20T19:00:55.742Z</time><hdop>4.812</hdop><vdop>2.812</vdop><extensions><gom:speed>0.046</gom:speed></extensions></trkpt>
   <trkpt lat="59.0686809758" lon="30.0292107858"><ele>98.724</ele><time>2026-04-20T19:00:57.076Z</time><hdop>4.437</hdop><vdop>2.75</vdop><extensions><gom:speed>0.097</gom:speed></extensions></trkpt>
   <trkpt lat="59.0686829874" lon="30.0292147253"><ele>99.99</ele><time>2026-04-20T19:00:58.075Z</time><hdop>4.375</hdop><vdop>2.625</vdop><extensions><gom:speed>0.065</gom:speed></extensions></trkpt>
   <trkpt lat="59.0686849991" lon="30.0292186648"><ele>100.903</ele><time>2026-04-20T19:00:59.075Z</time><hdop>4.312</hdop><vdop>2.562</vdop><extensions><gom:speed>0.067</gom:speed></extensions></trkpt>
   <trkpt lat="59.0686876813" lon="30.0292250351"><ele>101.648</ele><time>2026-04-20T19:01:00.076Z</time><hdop>4.25</hdop><vdop>2.5</vdop><extensions><gom:speed>0.066</gom:speed></extensions></trkpt>
   <trkpt lat="59.0686897768" lon="30.0292327464"><ele>102.348</ele><time>2026-04-20T19:01:01.075Z</time><hdop>4.125</hdop><vdop>2.5</vdop><extensions><gom:speed>0.081</gom:speed></extensions></trkpt>
   <trkpt lat="59.0686900701" lon="30.0292337522"><ele>102.766</ele><time>2026-04-20T19:01:01.902Z</time><hdop>4.125</hdop><vdop>2.5</vdop><extensions><gom:speed>0.072</gom:speed></extensions></trkpt>
   <trkpt lat="59.068693381" lon="30.0292459898"><ele>103.143</ele><time>2026-04-20T19:01:03.075Z</time><hdop>3.937</hdop><vdop>2.5</vdop><extensions><gom:speed>0.071</gom:speed></extensions></trkpt>
   <trkpt lat="59.0686958956" lon="30.0292532821"><ele>103.77</ele><time>2026-04-20T19:01:04.075Z</time><hdop>3.875</hdop><vdop>2.5</vdop><extensions><gom:speed>0.061</gom:speed></extensions></trkpt>
   <trkpt lat="59.0686978653" lon="30.0292596523"><ele>104.383</ele><time>2026-04-20T19:01:05.075Z</time><hdop>3.75</hdop><vdop>2.5</vdop><extensions><gom:speed>0.095</gom:speed></extensions></trkpt>
   <trkpt lat="59.0686996674" lon="30.0292645976"><ele>104.951</ele><time>2026-04-20T19:01:06.075Z</time><hdop>3.562</hdop><vdop>2.5</vdop><extensions><gom:speed>0.068</gom:speed></extensions></trkpt>
   <trkpt lat="59.0687001703" lon="30.0292664417"><ele>105.578</ele><time>2026-04-20T19:01:06.996Z</time><hdop>3.5</hdop><vdop>2.875</vdop><extensions><gom:speed>0.066</gom:speed></extensions></trkpt>
   <trkpt lat="59.0687018886" lon="30.0292718899"><ele>105.821</ele><time>2026-04-20T19:01:08.075Z</time><hdop>3.437</hdop><vdop>3.125</vdop><extensions><gom:speed>0.102</gom:speed></extensions></trkpt>
   <trkpt lat="59.0687028945" lon="30.0292754941"><ele>105.634</ele><time>2026-04-20T19:01:09.075Z</time><hdop>3.437</hdop><vdop>3.062</vdop><extensions><gom:speed>0.289</gom:speed></extensions></trkpt>
   <trkpt lat="59.0687039841" lon="30.0292833731"><ele>105.396</ele><time>2026-04-20T19:01:10.075Z</time><hdop>3.437</hdop><vdop>3.062</vdop><extensions><gom:speed>0.39</gom:speed></extensions></trkpt>
   <trkpt lat="59.0687047804" lon="30.0292921741"><ele>105.393</ele><time>2026-04-20T19:01:11.075Z</time><hdop>3.5</hdop><vdop>3.125</vdop><extensions><gom:speed>0.418</gom:speed></extensions></trkpt>
   <trkpt lat="59.0687048642" lon="30.0293002207"><ele>105.508</ele><time>2026-04-20T19:01:12.075Z</time><hdop>3.562</hdop><vdop>2.812</vdop><extensions><gom:speed>0.318</gom:speed></extensions></trkpt>
   <trkpt lat="59.0687052833" lon="30.0293053337"><ele>105.8</ele><time>2026-04-20T19:01:13.075Z</time><hdop>3.625</hdop><vdop>3.0</vdop><extensions><gom:speed>0.353</gom:speed></extensions></trkpt>
   <trkpt lat="59.0687059958" lon="30.0293105305"><ele>106.056</ele><time>2026-04-20T19:01:14.075Z</time><hdop>3.687</hdop><vdop>2.812</vdop><extensions><gom:speed>0.354</gom:speed></extensions></trkpt>
   <trkpt lat="59.0687073788" lon="30.0293164816"><ele>106.35</ele><time>2026-04-20T19:01:15.075Z</time><hdop>3.75</hdop><vdop>2.875</vdop><extensions><gom:speed>0.374</gom:speed></extensions></trkpt>
   <trkpt lat="59.0687080912" lon="30.0293208402"><ele>106.653</ele><time>2026-04-20T19:01:16.075Z</time><hdop>3.875</hdop><vdop>2.875</vdop><extensions><gom:speed>0.492</gom:speed></extensions></trkpt>
   <trkpt lat="59.068708678" lon="30.0293271266"><ele>106.816</ele><time>2026-04-20T19:01:17.075Z</time><hdop>3.937</hdop><vdop>2.687</vdop><extensions><gom:speed>0.366</gom:speed></extensions></trkpt>
   <trkpt lat="59.0687094743" lon="30.0293324911"><ele>106.946</ele><time>2026-04-20T19:01:18.075Z</time><hdop>4.062</hdop><vdop>8.5</vdop><extensions><gom:speed>0.385</gom:speed></extensions></trkpt>
   <trkpt lat="59.0687106896" lon="30.0293379393"><ele>106.969</ele><time>2026-04-20T19:01:19.075Z</time><hdop>4.25</hdop><vdop>8.125</vdop><extensions><gom:speed>0.408</gom:speed></extensions></trkpt>
   <trkpt lat="59.0687118631" lon="30.0293433875"><ele>106.905</ele><time>2026-04-20T19:01:20.076Z</time><hdop>4.5</hdop><vdop>7.937</vdop><extensions><gom:speed>0.404</gom:speed></extensions></trkpt>
   <trkpt lat="59.0687136652" lon="30.0293492549"><ele>106.875</ele><time>2026-04-20T19:01:21.076Z</time><hdop>4.875</hdop><vdop>7.562</vdop><extensions><gom:speed>0.396</gom:speed></extensions></trkpt>
   <trkpt lat="59.0687151739" lon="30.0293523562"><ele>106.919</ele><time>2026-04-20T19:01:22.076Z</time><hdop>5.125</hdop><vdop>7.437</vdop><extensions><gom:speed>0.386</gom:speed></extensions></trkpt>
   <trkpt lat="59.0687168922" lon="30.0293551222"><ele>106.89</ele><time>2026-04-20T19:01:23.075Z</time><hdop>5.375</hdop><vdop>7.25</vdop><extensions><gom:speed>0.382</gom:speed></extensions></trkpt>
   <trkpt lat="59.0687184848" lon="30.0293578882"><ele>106.722</ele><time>2026-04-20T19:01:24.075Z</time><hdop>5.562</hdop><vdop>7.187</vdop><extensions><gom:speed>0.38</gom:speed></extensions></trkpt>
   <trkpt lat="59.068719784" lon="30.0293601513"><ele>106.613</ele><time>2026-04-20T19:01:25.076Z</time><hdop>5.812</hdop><vdop>7.125</vdop><extensions><gom:speed>0.38</gom:speed></extensions></trkpt>
   <trkpt lat="59.0687210832" lon="30.0293622468"><ele>106.512</ele><time>2026-04-20T19:01:26.075Z</time><hdop>5.937</hdop><vdop>7.125</vdop><extensions><gom:speed>0.377</gom:speed></extensions></trkpt>
   <trkpt lat="59.0687214604" lon="30.0293622468"><ele>106.452</ele><time>2026-04-20T19:01:26.661Z</time><hdop>6.062</hdop><vdop>7.125</vdop><extensions><gom:speed>0.372</gom:speed></extensions></trkpt>
   <trkpt lat="59.0687256932" lon="30.0293610734"><ele>106.342</ele><time>2026-04-20T19:01:28.075Z</time><hdop>6.25</hdop><vdop>7.062</vdop><extensions><gom:speed>0.399</gom:speed></extensions></trkpt>
   <trkpt lat="59.0687284593" lon="30.029358475"><ele>106.204</ele><time>2026-04-20T19:01:29.075Z</time><hdop>6.312</hdop><vdop>6.812</vdop><extensions><gom:speed>0.444</gom:speed></extensions></trkpt>
   <trkpt lat="59.0687312672" lon="30.0293548707"><ele>106.01</ele><time>2026-04-20T19:01:30.075Z</time><hdop>6.375</hdop><vdop>6.562</vdop><extensions><gom:speed>0.463</gom:speed></extensions></trkpt>
   <trkpt lat="59.0687333627" lon="30.029349171"><ele>105.828</ele><time>2026-04-20T19:01:31.076Z</time><hdop>6.375</hdop><vdop>6.5</vdop><extensions><gom:speed>0.474</gom:speed></extensions></trkpt>
   <trkpt lat="59.0687344942" lon="30.0293422979"><ele>105.694</ele><time>2026-04-20T19:01:32.075Z</time><hdop>6.375</hdop><vdop>6.437</vdop><extensions><gom:speed>0.513</gom:speed></extensions></trkpt>
   <trkpt lat="59.0687351648" lon="30.0293372687"><ele>105.613</ele><time>2026-04-20T19:01:32.816Z</time><hdop>6.437</hdop><vdop>6.437</vdop><extensions><gom:speed>0.525</gom:speed></extensions></trkpt>
   <trkpt lat="59.0687358773" lon="30.0293303956"><ele>105.537</ele><time>2026-04-20T19:01:33.613Z</time><hdop>6.5</hdop><vdop>6.125</vdop><extensions><gom:speed>0.557</gom:speed></extensions></trkpt>
   <trkpt lat="59.0687362963" lon="30.0293283839"><ele>105.44</ele><time>2026-04-20T19:01:34.075Z</time><hdop>6.5</hdop><vdop>6.625</vdop><extensions><gom:speed>0.563</gom:speed></extensions></trkpt>
   <trkpt lat="59.068737386" lon="30.029323271"><ele>105.354</ele><time>2026-04-20T19:01:35.075Z</time><hdop>6.562</hdop><vdop>6.812</vdop><extensions><gom:speed>0.556</gom:speed></extensions></trkpt>
   <trkpt lat="59.0687386852" lon="30.0293188286"><ele>105.278</ele><time>2026-04-20T19:01:36.076Z</time><hdop>6.687</hdop><vdop>6.937</vdop><extensions><gom:speed>0.561</gom:speed></extensions></trkpt>
   <trkpt lat="59.0687385595" lon="30.0293202535"><ele>105.22</ele><time>2026-04-20T19:01:36.968Z</time><hdop>6.812</hdop><vdop>7.0</vdop><extensions><gom:speed>0.424</gom:speed></extensions></trkpt>
   <trkpt lat="59.0687394815" lon="30.0293200858"><ele>105.186</ele><time>2026-04-20T19:01:37.904Z</time><hdop>6.937</hdop><vdop>7.0</vdop><extensions><gom:speed>0.477</gom:speed></extensions></trkpt>
   <trkpt lat="59.0687427923" lon="30.0293168169"><ele>105.163</ele><time>2026-04-20T19:01:38.698Z</time><hdop>7.187</hdop><vdop>7.25</vdop><extensions><gom:speed>0.56</gom:speed></extensions></trkpt>
   <trkpt lat="59.0687487854" lon="30.0293155596"><ele>105.16</ele><time>2026-04-20T19:01:39.656Z</time><hdop>7.312</hdop><vdop>7.125</vdop><extensions><gom:speed>0.495</gom:speed></extensions></trkpt>
   <trkpt lat="59.0687519705" lon="30.0293158949"><ele>105.187</ele><time>2026-04-20T19:01:40.634Z</time><hdop>7.375</hdop><vdop>6.937</vdop><extensions><gom:speed>0.48</gom:speed></extensions></trkpt>
   <trkpt lat="59.0687557843" lon="30.0293137994"><ele>105.199</ele><time>2026-04-20T19:01:41.452Z</time><hdop>7.5</hdop><vdop>6.75</vdop><extensions><gom:speed>0.536</gom:speed></extensions></trkpt>
   <trkpt lat="59.0687588856" lon="30.0293114525"><ele>105.201</ele><time>2026-04-20T19:01:42.063Z</time><hdop>7.5</hdop><vdop>6.562</vdop><extensions><gom:speed>0.561</gom:speed></extensions></trkpt>
   <trkpt lat="59.0687653815" lon="30.0293069263"><ele>103.454</ele><time>2026-04-20T19:01:43.075Z</time><hdop>7.625</hdop><vdop>5.562</vdop><extensions><gom:speed>0.529</gom:speed></extensions></trkpt>
   <trkpt lat="59.0687705783" lon="30.0293011427"><ele>102.411</ele><time>2026-04-20T19:01:44.079Z</time><hdop>7.562</hdop><vdop>5.562</vdop><extensions><gom:speed>0.504</gom:speed></extensions></trkpt>
   <trkpt lat="59.0687788764" lon="30.0292881508"><ele>101.984</ele><time>2026-04-20T19:01:44.838Z</time><hdop>7.5</hdop><vdop>4.875</vdop><extensions><gom:speed>0.584</gom:speed></extensions></trkpt>
   <trkpt lat="59.0687914912" lon="30.0292640947"><ele>101.076</ele><time>2026-04-20T19:01:45.539Z</time><hdop>7.0</hdop><vdop>4.625</vdop><extensions><gom:speed>0.677</gom:speed></extensions></trkpt>
   <trkpt lat="59.0687962689" lon="30.0292535335"><ele>99.636</ele><time>2026-04-20T19:01:46.075Z</time><hdop>6.812</hdop><vdop>4.5</vdop><extensions><gom:speed>0.689</gom:speed></extensions></trkpt>
   <trkpt lat="59.0688007951" lon="30.0292396196"><ele>98.776</ele><time>2026-04-20T19:01:47.081Z</time><hdop>6.187</hdop><vdop>4.5</vdop><extensions><gom:speed>0.73</gom:speed></extensions></trkpt>
   <trkpt lat="59.0688097637" lon="30.0292227719"><ele>98.375</ele><time>2026-04-20T19:01:47.859Z</time><hdop>5.937</hdop><vdop>4.437</vdop><extensions><gom:speed>0.821</gom:speed></extensions></trkpt>
   <trkpt lat="59.0688226719" lon="30.0292031583"><ele>97.463</ele><time>2026-04-20T19:01:48.542Z</time><hdop>5.687</hdop><vdop>4.375</vdop><extensions><gom:speed>0.897</gom:speed></extensions></trkpt>
   <trkpt lat="59.0688333588" lon="30.0291872327"><ele>96.513</ele><time>2026-04-20T19:01:49.075Z</time><hdop>5.75</hdop><vdop>4.125</vdop><extensions><gom:speed>0.912</gom:speed></extensions></trkpt>
   <trkpt lat="59.0688524695" lon="30.0291612488"><ele>95.66</ele><time>2026-04-20T19:01:50.076Z</time><hdop>5.562</hdop><vdop>4.062</vdop><extensions><gom:speed>0.867</gom:speed></extensions></trkpt>
   <trkpt lat="59.0688632822" lon="30.0291482568"><ele>95.151</ele><time>2026-04-20T19:01:50.941Z</time><hdop>5.75</hdop><vdop>4.062</vdop><extensions><gom:speed>0.88</gom:speed></extensions></trkpt>
   <trkpt lat="59.0688836921" lon="30.0291233626"><ele>94.768</ele><time>2026-04-20T19:01:51.778Z</time><hdop>5.875</hdop><vdop>4.187</vdop><extensions><gom:speed>0.907</gom:speed></extensions></trkpt>
   <trkpt lat="59.0688979833" lon="30.029107437"><ele>94.518</ele><time>2026-04-20T19:01:52.579Z</time><hdop>5.812</hdop><vdop>3.75</vdop><extensions><gom:speed>0.875</gom:speed></extensions></trkpt>
   <trkpt lat="59.0689067843" lon="30.0290973787"><ele>94.021</ele><time>2026-04-20T19:01:53.075Z</time><hdop>5.75</hdop><vdop>3.375</vdop><extensions><gom:speed>0.847</gom:speed></extensions></trkpt>
   <trkpt lat="59.0689194828" lon="30.029082878"><ele>93.551</ele><time>2026-04-20T19:01:54.075Z</time><hdop>5.562</hdop><vdop>3.375</vdop><extensions><gom:speed>0.868</gom:speed></extensions></trkpt>
   <trkpt lat="59.0689275714" lon="30.0290732388"><ele>93.271</ele><time>2026-04-20T19:01:54.858Z</time><hdop>5.312</hdop><vdop>3.375</vdop><extensions><gom:speed>0.918</gom:speed></extensions></trkpt>
   <trkpt lat="59.0689352827" lon="30.0290649407"><ele>93.018</ele><time>2026-04-20T19:01:55.579Z</time><hdop>4.875</hdop><vdop>3.437</vdop><extensions><gom:speed>0.919</gom:speed></extensions></trkpt>
   <trkpt lat="59.0689399766" lon="30.0290593248"><ele>92.899</ele><time>2026-04-20T19:01:56.075Z</time><hdop>4.687</hdop><vdop>9.75</vdop><extensions><gom:speed>0.921</gom:speed></extensions></trkpt>
   <trkpt lat="59.0689472688" lon="30.0290486798"><ele>92.867</ele><time>2026-04-20T19:01:56.989Z</time><hdop>4.437</hdop><vdop>9.812</vdop><extensions><gom:speed>0.926</gom:speed></extensions></trkpt>
   <trkpt lat="59.0689489871" lon="30.0290462491"><ele>92.847</ele><time>2026-04-20T19:01:57.462Z</time><hdop>4.375</hdop><vdop>9.812</vdop><extensions><gom:speed>0.919</gom:speed></extensions></trkpt>
   <trkpt lat="59.0689553993" lon="30.0290366937"><ele>92.835</ele><time>2026-04-20T19:01:57.919Z</time><hdop>4.312</hdop><vdop>9.812</vdop><extensions><gom:speed>0.91</gom:speed></extensions></trkpt>
   <trkpt lat="59.0689605961" lon="30.0290295691"><ele>92.808</ele><time>2026-04-20T19:01:58.759Z</time><hdop>4.312</hdop><vdop>9.187</vdop><extensions><gom:speed>0.893</gom:speed></extensions></trkpt>
   <trkpt lat="59.0689660862" lon="30.0290210195"><ele>92.764</ele><time>2026-04-20T19:01:59.577Z</time><hdop>4.375</hdop><vdop>8.375</vdop><extensions><gom:speed>0.852</gom:speed></extensions></trkpt>
   <trkpt lat="59.0689718697" lon="30.0290119671"><ele>92.685</ele><time>2026-04-20T19:02:00.421Z</time><hdop>4.562</hdop><vdop>8.062</vdop><extensions><gom:speed>0.827</gom:speed></extensions></trkpt>
   <trkpt lat="59.0689750968" lon="30.0290083629"><ele>92.601</ele><time>2026-04-20T19:02:01.075Z</time><hdop>4.625</hdop><vdop>8.0</vdop><extensions><gom:speed>0.804</gom:speed></extensions></trkpt>
   <trkpt lat="59.0689802935" lon="30.028999981"><ele>92.551</ele><time>2026-04-20T19:02:01.976Z</time><hdop>4.812</hdop><vdop>8.0</vdop><extensions><gom:speed>0.816</gom:speed></extensions></trkpt>
   <trkpt lat="59.068985197" lon="30.0289910961"><ele>92.499</ele><time>2026-04-20T19:02:02.736Z</time><hdop>4.937</hdop><vdop>8.0</vdop><extensions><gom:speed>0.809</gom:speed></extensions></trkpt>
   <trkpt lat="59.0689916929" lon="30.0289833848"><ele>92.496</ele><time>2026-04-20T19:02:03.595Z</time><hdop>5.125</hdop><vdop>8.0</vdop><extensions><gom:speed>0.827</gom:speed></extensions></trkpt>
   <trkpt lat="59.0689957582" lon="30.0289835524"><ele>92.423</ele><time>2026-04-20T19:02:04.076Z</time><hdop>5.25</hdop><vdop>8.062</vdop><extensions><gom:speed>0.818</gom:speed></extensions></trkpt>
   <trkpt lat="59.0690004939" lon="30.0289818761"><ele>92.241</ele><time>2026-04-20T19:02:05.044Z</time><hdop>5.375</hdop><vdop>8.312</vdop><extensions><gom:speed>0.812</gom:speed></extensions></trkpt>
   <trkpt lat="59.0690076605" lon="30.0289756734"><ele>92.132</ele><time>2026-04-20T19:02:06.053Z</time><hdop>5.5</hdop><vdop>8.312</vdop><extensions><gom:speed>0.831</gom:speed></extensions></trkpt>
   <trkpt lat="59.0690133602" lon="30.0289689679"><ele>91.987</ele><time>2026-04-20T19:02:06.794Z</time><hdop>5.687</hdop><vdop>8.5</vdop><extensions><gom:speed>0.857</gom:speed></extensions></trkpt>
   <trkpt lat="59.0690170901" lon="30.0289698899"><ele>91.99</ele><time>2026-04-20T19:02:07.593Z</time><hdop>5.812</hdop><vdop>8.375</vdop><extensions><gom:speed>0.841</gom:speed></extensions></trkpt>
   <trkpt lat="59.0690233765" lon="30.0289677945"><ele>92.096</ele><time>2026-04-20T19:02:08.410Z</time><hdop>6.0</hdop><vdop>8.187</vdop><extensions><gom:speed>0.806</gom:speed></extensions></trkpt>
   <trkpt lat="59.0690280704" lon="30.0289654475"><ele>92.219</ele><time>2026-04-20T19:02:08.953Z</time><hdop>6.125</hdop><vdop>7.812</vdop><extensions><gom:speed>0.801</gom:speed></extensions></trkpt>
   <trkpt lat="59.069030585" lon="30.0289644417"><ele>92.292</ele><time>2026-04-20T19:02:09.782Z</time><hdop>6.375</hdop><vdop>7.812</vdop><extensions><gom:speed>0.813</gom:speed></extensions></trkpt>
   <trkpt lat="59.0690359913" lon="30.0289649446"><ele>92.382</ele><time>2026-04-20T19:02:10.772Z</time><hdop>6.75</hdop><vdop>7.5</vdop><extensions><gom:speed>0.843</gom:speed></extensions></trkpt>
   <trkpt lat="59.0690394698" lon="30.0289649446"><ele>92.451</ele><time>2026-04-20T19:02:11.581Z</time><hdop>6.937</hdop><vdop>7.125</vdop><extensions><gom:speed>0.856</gom:speed></extensions></trkpt>
   <trkpt lat="59.0690426968" lon="30.0289631844"><ele>92.542</ele><time>2026-04-20T19:02:12.033Z</time><hdop>7.0</hdop><vdop>6.875</vdop><extensions><gom:speed>0.854</gom:speed></extensions></trkpt>
   <trkpt lat="59.069050492" lon="30.028958742"><ele>92.596</ele><time>2026-04-20T19:02:13.093Z</time><hdop>7.375</hdop><vdop>6.875</vdop><extensions><gom:speed>0.861</gom:speed></extensions></trkpt>
   <trkpt lat="59.069056988" lon="30.0289540481"><ele>92.671</ele><time>2026-04-20T19:02:13.852Z</time><hdop>7.5</hdop><vdop>6.75</vdop><extensions><gom:speed>0.886</gom:speed></extensions></trkpt>
   <trkpt lat="59.0690638611" lon="30.0289478455"><ele>92.757</ele><time>2026-04-20T19:02:14.661Z</time><hdop>7.687</hdop><vdop>6.75</vdop><extensions><gom:speed>0.849</gom:speed></extensions></trkpt>
   <trkpt lat="59.0690705666" lon="30.028942984"><ele>92.842</ele><time>2026-04-20T19:02:15.441Z</time><hdop>7.937</hdop><vdop>6.625</vdop><extensions><gom:speed>0.847</gom:speed></extensions></trkpt>
   <trkpt lat="59.0690720754" lon="30.0289421458"><ele>92.892</ele><time>2026-04-20T19:02:15.942Z</time><hdop>8.0</hdop><vdop>6.625</vdop><extensions><gom:speed>0.849</gom:speed></extensions></trkpt>
   <trkpt lat="59.0690674653" lon="30.0289501925"><ele>92.918</ele><time>2026-04-20T19:02:17.009Z</time><hdop>8.125</hdop><vdop>6.5</vdop><extensions><gom:speed>0.819</gom:speed></extensions></trkpt>
   <trkpt lat="59.0690718658" lon="30.0289473426"><ele>92.933</ele><time>2026-04-20T19:02:17.939Z</time><hdop>8.187</hdop><vdop>6.5</vdop><extensions><gom:speed>0.843</gom:speed></extensions></trkpt>
   <trkpt lat="59.0690774817" lon="30.0289437384"><ele>92.946</ele><time>2026-04-20T19:02:18.780Z</time><hdop>8.25</hdop><vdop>6.625</vdop><extensions><gom:speed>0.839</gom:speed></extensions></trkpt>
   <trkpt lat="59.0690843968" lon="30.0289393798"><ele>92.953</ele><time>2026-04-20T19:02:19.679Z</time><hdop>8.375</hdop><vdop>6.562</vdop><extensions><gom:speed>0.843</gom:speed></extensions></trkpt>
   <trkpt lat="59.0690911861" lon="30.0289354403"><ele>92.954</ele><time>2026-04-20T19:02:20.576Z</time><hdop>8.437</hdop><vdop>6.562</vdop><extensions><gom:speed>0.791</gom:speed></extensions></trkpt>
   <trkpt lat="59.0690947903" lon="30.0289339316"><ele>92.958</ele><time>2026-04-20T19:02:21.036Z</time><hdop>8.5</hdop><vdop>6.187</vdop><extensions><gom:speed>0.79</gom:speed></extensions></trkpt>
   <trkpt lat="59.0691018731" lon="30.0289318361"><ele>92.955</ele><time>2026-04-20T19:02:21.984Z</time><hdop>8.812</hdop><vdop>6.312</vdop><extensions><gom:speed>0.773</gom:speed></extensions></trkpt>
   <trkpt lat="59.0691128953" lon="30.0289279804"><ele>92.954</ele><time>2026-04-20T19:02:22.974Z</time><hdop>9.187</hdop><vdop>6.312</vdop><extensions><gom:speed>0.77</gom:speed></extensions></trkpt>
   <trkpt lat="59.0691160804" lon="30.028923538"><ele>92.95</ele><time>2026-04-20T19:02:23.736Z</time><hdop>9.437</hdop><vdop>6.812</vdop><extensions><gom:speed>0.793</gom:speed></extensions></trkpt>
   <trkpt lat="59.0691211933" lon="30.0289172516"><ele>92.947</ele><time>2026-04-20T19:02:24.514Z</time><hdop>9.687</hdop><vdop>6.875</vdop><extensions><gom:speed>0.83</gom:speed></extensions></trkpt>
   <trkpt lat="59.0691142783" lon="30.0289226998"><ele>91.536</ele><time>2026-04-20T19:02:25.075Z</time><hdop>9.687</hdop><vdop>5.625</vdop><extensions><gom:speed>0.801</gom:speed></extensions></trkpt>
   <trkpt lat="59.0691073632" lon="30.0289351888"><ele>91.027</ele><time>2026-04-20T19:02:26.075Z</time><hdop>9.75</hdop><vdop>4.812</vdop><extensions><gom:speed>0.798</gom:speed></extensions></trkpt>
   <trkpt lat="59.0691070698" lon="30.0289407209"><ele>90.722</ele><time>2026-04-20T19:02:26.953Z</time><hdop>9.687</hdop><vdop>4.812</vdop><extensions><gom:speed>0.832</gom:speed></extensions></trkpt>
   <trkpt lat="59.0691098778" lon="30.0289535452"><ele>90.756</ele><time>2026-04-20T19:02:27.783Z</time><hdop>9.625</hdop><vdop>4.25</vdop><extensions><gom:speed>0.838</gom:speed></extensions></trkpt>
   <trkpt lat="59.0691141945" lon="30.0289733265"><ele>90.756</ele><time>2026-04-20T19:02:28.382Z</time><hdop>9.437</hdop><vdop>3.875</vdop><extensions><gom:speed>0.836</gom:speed></extensions></trkpt>
   <trkpt lat="59.0691270607" lon="30.0289955386"><ele>91.173</ele><time>2026-04-20T19:02:29.076Z</time><hdop>9.062</hdop><vdop>3.812</vdop><extensions><gom:speed>0.85</gom:speed></extensions></trkpt>
   <trkpt lat="59.0691405974" lon="30.0290148169"><ele>92.122</ele><time>2026-04-20T19:02:30.075Z</time><hdop>8.375</hdop><vdop>3.437</vdop><extensions><gom:speed>0.947</gom:speed></extensions></trkpt>
   <trkpt lat="59.0691505719" lon="30.0290187564"><ele>92.689</ele><time>2026-04-20T19:02:31.022Z</time><hdop>7.875</hdop><vdop>3.437</vdop><extensions><gom:speed>0.878</gom:speed></extensions></trkpt>
   <trkpt lat="59.0691691797" lon="30.029022193"><ele>93.78</ele><time>2026-04-20T19:02:32.075Z</time><hdop>7.062</hdop><vdop>3.25</vdop><extensions><gom:speed>0.858</gom:speed></extensions></trkpt>
   <trkpt lat="59.0691837642" lon="30.0290289823"><ele>94.679</ele><time>2026-04-20T19:02:33.075Z</time><hdop>6.25</hdop><vdop>3.375</vdop><extensions><gom:speed>0.936</gom:speed></extensions></trkpt>
   <trkpt lat="59.0691983907" lon="30.0290352688"><ele>94.763</ele><time>2026-04-20T19:02:34.075Z</time><hdop>5.687</hdop><vdop>3.687</vdop><extensions><gom:speed>0.972</gom:speed></extensions></trkpt>
   <trkpt lat="59.0692106702" lon="30.0290353526"><ele>94.814</ele><time>2026-04-20T19:02:35.079Z</time><hdop>5.25</hdop><vdop>3.687</vdop><extensions><gom:speed>0.989</gom:speed></extensions></trkpt>
   <trkpt lat="59.0692247937" lon="30.0290327542"><ele>94.66</ele><time>2026-04-20T19:02:35.901Z</time><hdop>5.187</hdop><vdop>3.937</vdop><extensions><gom:speed>0.963</gom:speed></extensions></trkpt>
   <trkpt lat="59.0692333851" lon="30.0290304911"><ele>94.452</ele><time>2026-04-20T19:02:36.696Z</time><hdop>5.062</hdop><vdop>4.187</vdop><extensions><gom:speed>0.928</gom:speed></extensions></trkpt>
   <trkpt lat="59.069242689" lon="30.0290264678"><ele>93.981</ele><time>2026-04-20T19:02:37.516Z</time><hdop>5.125</hdop><vdop>4.187</vdop><extensions><gom:speed>0.878</gom:speed></extensions></trkpt>
   <trkpt lat="59.0692487659" lon="30.0290231988"><ele>93.084</ele><time>2026-04-20T19:02:38.076Z</time><hdop>5.125</hdop><vdop>4.25</vdop><extensions><gom:speed>0.885</gom:speed></extensions></trkpt>
   <trkpt lat="59.0692586985" lon="30.02901708"><ele>92.555</ele><time>2026-04-20T19:02:39.075Z</time><hdop>5.125</hdop><vdop>4.25</vdop><extensions><gom:speed>0.856</gom:speed></extensions></trkpt>
   <trkpt lat="59.0692664936" lon="30.0290122185"><ele>92.239</ele><time>2026-04-20T19:02:39.973Z</time><hdop>5.187</hdop><vdop>4.25</vdop><extensions><gom:speed>0.857</gom:speed></extensions></trkpt>
   <trkpt lat="59.0692742888" lon="30.0290065188"><ele>92.419</ele><time>2026-04-20T19:02:40.793Z</time><hdop>5.187</hdop><vdop>4.187</vdop><extensions><gom:speed>0.844</gom:speed></extensions></trkpt>
   <trkpt lat="59.0692783959" lon="30.0290040881"><ele>92.391</ele><time>2026-04-20T19:02:41.412Z</time><hdop>5.187</hdop><vdop>4.062</vdop><extensions><gom:speed>0.779</gom:speed></extensions></trkpt>
   <trkpt lat="59.0692873646" lon="30.028999478"><ele>92.605</ele><time>2026-04-20T19:02:42.075Z</time><hdop>5.187</hdop><vdop>3.937</vdop><extensions><gom:speed>0.72</gom:speed></extensions></trkpt>
   <trkpt lat="59.0692936929" lon="30.0289987237"><ele>92.712</ele><time>2026-04-20T19:02:43.075Z</time><hdop>5.187</hdop><vdop>3.687</vdop><extensions><gom:speed>0.676</gom:speed></extensions></trkpt>
   <trkpt lat="59.0692963751" lon="30.028998556"><ele>92.777</ele><time>2026-04-20T19:02:43.581Z</time><hdop>5.25</hdop><vdop>3.687</vdop><extensions><gom:speed>0.606</gom:speed></extensions></trkpt>
   <trkpt lat="59.0693000632" lon="30.028997634"><ele>92.385</ele><time>2026-04-20T19:02:44.076Z</time><hdop>5.187</hdop><vdop>3.562</vdop><extensions><gom:speed>0.613</gom:speed></extensions></trkpt>
   <trkpt lat="59.0693060981" lon="30.0289936945"><ele>91.763</ele><time>2026-04-20T19:02:45.075Z</time><hdop>5.187</hdop><vdop>3.75</vdop><extensions><gom:speed>0.549</gom:speed></extensions></trkpt>
   <trkpt lat="59.069312175" lon="30.028990258"><ele>91.135</ele><time>2026-04-20T19:02:46.075Z</time><hdop>5.125</hdop><vdop>3.812</vdop><extensions><gom:speed>0.505</gom:speed></extensions></trkpt>
   <trkpt lat="59.0693181681" lon="30.0289884978"><ele>90.759</ele><time>2026-04-20T19:02:46.973Z</time><hdop>5.125</hdop><vdop>3.812</vdop><extensions><gom:speed>0.596</gom:speed></extensions></trkpt>
   <trkpt lat="59.0693219818" lon="30.0289872405"><ele>90.538</ele><time>2026-04-20T19:02:47.573Z</time><hdop>5.062</hdop><vdop>3.875</vdop><extensions><gom:speed>0.663</gom:speed></extensions></trkpt>
   <trkpt lat="59.0693308666" lon="30.0289836363"><ele>90.393</ele><time>2026-04-20T19:02:48.076Z</time><hdop>5.062</hdop><vdop>3.812</vdop><extensions><gom:speed>0.72</gom:speed></extensions></trkpt>
   <trkpt lat="59.0693349738" lon="30.0289827981"><ele>90.307</ele><time>2026-04-20T19:02:48.622Z</time><hdop>5.0</hdop><vdop>3.812</vdop><extensions><gom:speed>0.746</gom:speed></extensions></trkpt>
   <trkpt lat="59.069339961" lon="30.0289825466"><ele>89.99</ele><time>2026-04-20T19:02:49.075Z</time><hdop>5.0</hdop><vdop>3.937</vdop><extensions><gom:speed>0.791</gom:speed></extensions></trkpt>
   <trkpt lat="59.0693499774" lon="30.0289821275"><ele>90.069</ele><time>2026-04-20T19:02:50.075Z</time><hdop>4.937</hdop><vdop>4.062</vdop><extensions><gom:speed>0.779</gom:speed></extensions></trkpt>
   <trkpt lat="59.0693588622" lon="30.0289807864"><ele>90.117</ele><time>2026-04-20T19:02:51.040Z</time><hdop>4.937</hdop><vdop>4.062</vdop><extensions><gom:speed>0.811</gom:speed></extensions></trkpt>
   <trkpt lat="59.0693691719" lon="30.0289792777"><ele>90.216</ele><time>2026-04-20T19:02:51.919Z</time><hdop>4.875</hdop><vdop>4.125</vdop><extensions><gom:speed>0.855</gom:speed></extensions></trkpt>
   <trkpt lat="59.0693797751" lon="30.0289778527"><ele>90.104</ele><time>2026-04-20T19:02:52.661Z</time><hdop>4.875</hdop><vdop>4.0</vdop><extensions><gom:speed>0.89</gom:speed></extensions></trkpt>
   <trkpt lat="59.0693901686" lon="30.0289748353"><ele>89.836</ele><time>2026-04-20T19:02:53.419Z</time><hdop>4.812</hdop><vdop>3.937</vdop><extensions><gom:speed>0.865</gom:speed></extensions></trkpt>
   <trkpt lat="59.0694003945" lon="30.0289702252"><ele>89.655</ele><time>2026-04-20T19:02:54.075Z</time><hdop>4.812</hdop><vdop>3.937</vdop><extensions><gom:speed>0.867</gom:speed></extensions></trkpt>
   <trkpt lat="59.0694090698" lon="30.0289665372"><ele>89.579</ele><time>2026-04-20T19:02:55.075Z</time><hdop>4.75</hdop><vdop>4.187</vdop><extensions><gom:speed>0.857</gom:speed></extensions></trkpt>
   <trkpt lat="59.069416865" lon="30.0289648608"><ele>89.534</ele><time>2026-04-20T19:02:55.917Z</time><hdop>4.75</hdop><vdop>4.187</vdop><extensions><gom:speed>0.86</gom:speed></extensions></trkpt>
   <trkpt lat="59.0694255822" lon="30.0289646931"><ele>89.407</ele><time>2026-04-20T19:02:56.796Z</time><hdop>4.625</hdop><vdop>4.125</vdop><extensions><gom:speed>0.81</gom:speed></extensions></trkpt>
   <trkpt lat="59.0694341736" lon="30.0289636873"><ele>89.255</ele><time>2026-04-20T19:02:57.694Z</time><hdop>4.5</hdop><vdop>3.937</vdop><extensions><gom:speed>0.766</gom:speed></extensions></trkpt>
   <trkpt lat="59.069441382" lon="30.028960586"><ele>89.054</ele><time>2026-04-20T19:02:58.494Z</time><hdop>4.5</hdop><vdop>3.875</vdop><extensions><gom:speed>0.755</gom:speed></extensions></trkpt>
   <trkpt lat="59.0694466626" lon="30.0289588258"><ele>88.859</ele><time>2026-04-20T19:02:59.075Z</time><hdop>4.437</hdop><vdop>3.812</vdop><extensions><gom:speed>0.764</gom:speed></extensions></trkpt>
   <trkpt lat="59.0694508955" lon="30.0289567303"><ele>88.743</ele><time>2026-04-20T19:03:00.011Z</time><hdop>4.437</hdop><vdop>3.812</vdop><extensions><gom:speed>0.727</gom:speed></extensions></trkpt>
   <trkpt lat="59.069463175" lon="30.0289563951"><ele>89.188</ele><time>2026-04-20T19:03:01.077Z</time><hdop>4.5</hdop><vdop>3.25</vdop><extensions><gom:speed>0.713</gom:speed></extensions></trkpt>
   <trkpt lat="59.0694710959" lon="30.0289551378"><ele>89.454</ele><time>2026-04-20T19:03:01.880Z</time><hdop>4.5</hdop><vdop>3.25</vdop><extensions><gom:speed>0.792</gom:speed></extensions></trkpt>
   <trkpt lat="59.0694799807" lon="30.0289543834"><ele>89.884</ele><time>2026-04-20T19:03:02.740Z</time><hdop>4.562</hdop><vdop>3.375</vdop><extensions><gom:speed>0.796</gom:speed></extensions></trkpt>
   <trkpt lat="59.0694888655" lon="30.0289519527"><ele>90.182</ele><time>2026-04-20T19:03:03.578Z</time><hdop>4.625</hdop><vdop>3.375</vdop><extensions><gom:speed>0.83</gom:speed></extensions></trkpt>
   <trkpt lat="59.0694938947" lon="30.0289509468"><ele>90.571</ele><time>2026-04-20T19:03:04.075Z</time><hdop>4.562</hdop><vdop>3.25</vdop><extensions><gom:speed>0.831</gom:speed></extensions></trkpt>
   <trkpt lat="59.0695038691" lon="30.0289492704"><ele>90.908</ele><time>2026-04-20T19:03:05.076Z</time><hdop>4.625</hdop><vdop>3.375</vdop><extensions><gom:speed>0.829</gom:speed></extensions></trkpt>
   <trkpt lat="59.0695122929" lon="30.0289467559"><ele>90.863</ele><time>2026-04-20T19:03:06.075Z</time><hdop>4.625</hdop><vdop>3.5</vdop><extensions><gom:speed>0.793</gom:speed></extensions></trkpt>
   <trkpt lat="59.0695209682" lon="30.0289403856"><ele>90.836</ele><time>2026-04-20T19:03:07.073Z</time><hdop>4.687</hdop><vdop>3.5</vdop><extensions><gom:speed>0.802</gom:speed></extensions></trkpt>
   <trkpt lat="59.0695285957" lon="30.0289372843"><ele>90.956</ele><time>2026-04-20T19:03:07.922Z</time><hdop>4.75</hdop><vdop>3.75</vdop><extensions><gom:speed>0.819</gom:speed></extensions></trkpt>
   <trkpt lat="59.0695373967" lon="30.0289337639"><ele>91.242</ele><time>2026-04-20T19:03:08.820Z</time><hdop>4.75</hdop><vdop>4.125</vdop><extensions><gom:speed>0.799</gom:speed></extensions></trkpt>
   <trkpt lat="59.0695459882" lon="30.0289299921"><ele>91.077</ele><time>2026-04-20T19:03:09.620Z</time><hdop>4.75</hdop><vdop>4.187</vdop><extensions><gom:speed>0.797</gom:speed></extensions></trkpt>
   <trkpt lat="59.0695499696" lon="30.0289269746"><ele>90.811</ele><time>2026-04-20T19:03:10.081Z</time><hdop>4.812</hdop><vdop>4.187</vdop><extensions><gom:speed>0.796</gom:speed></extensions></trkpt>
   <trkpt lat="59.0695598602" lon="30.02892446"><ele>90.955</ele><time>2026-04-20T19:03:11.075Z</time><hdop>4.812</hdop><vdop>3.937</vdop><extensions><gom:speed>0.801</gom:speed></extensions></trkpt>
   <trkpt lat="59.0695677811" lon="30.0289224484"><ele>91.041</ele><time>2026-04-20T19:03:12.078Z</time><hdop>4.812</hdop><vdop>3.937</vdop><extensions><gom:speed>0.754</gom:speed></extensions></trkpt>
   <trkpt lat="59.0695754925" lon="30.0289246277"><ele>91.1</ele><time>2026-04-20T19:03:13.042Z</time><hdop>4.812</hdop><vdop>3.875</vdop><extensions><gom:speed>0.658</gom:speed></extensions></trkpt>
   <trkpt lat="59.0695783842" lon="30.0289266393"><ele>90.797</ele><time>2026-04-20T19:03:13.990Z</time><hdop>4.812</hdop><vdop>4.0</vdop><extensions><gom:speed>0.52</gom:speed></extensions></trkpt>
   <trkpt lat="59.0695788872" lon="30.028927226"><ele>90.647</ele><time>2026-04-20T19:03:15.056Z</time><hdop>4.875</hdop><vdop>3.937</vdop><extensions><gom:speed>0.378</gom:speed></extensions></trkpt>
   <trkpt lat="59.0695743609" lon="30.0289264717"><ele>90.237</ele><time>2026-04-20T19:03:16.005Z</time><hdop>5.0</hdop><vdop>3.875</vdop><extensions><gom:speed>0.126</gom:speed></extensions></trkpt>
   <trkpt lat="59.0695719721" lon="30.0289275613"><ele>89.822</ele><time>2026-04-20T19:03:17.075Z</time><hdop>5.125</hdop><vdop>3.812</vdop><extensions><gom:speed>0.074</gom:speed></extensions></trkpt>
   <trkpt lat="59.069571092" lon="30.0289268908"><ele>89.432</ele><time>2026-04-20T19:03:18.019Z</time><hdop>5.187</hdop><vdop>3.812</vdop><extensions><gom:speed>0.079</gom:speed></extensions></trkpt>
   <trkpt lat="59.0695707986" lon="30.0289257173"><ele>89.199</ele><time>2026-04-20T19:03:18.493Z</time><hdop>5.187</hdop><vdop>3.812</vdop><extensions><gom:speed>0.074</gom:speed></extensions></trkpt>
   <trkpt lat="59.0695716787" lon="30.0289239571"><ele>89.014</ele><time>2026-04-20T19:03:19.075Z</time><hdop>5.125</hdop><vdop>3.625</vdop><extensions><gom:speed>0.104</gom:speed></extensions></trkpt>
   <trkpt lat="59.0695721816" lon="30.0289223645"><ele>88.848</ele><time>2026-04-20T19:03:20.033Z</time><hdop>5.062</hdop><vdop>12.125</vdop><extensions><gom:speed>0.069</gom:speed></extensions></trkpt>
   <trkpt lat="59.0695716787" lon="30.0289211911"><ele>88.748</ele><time>2026-04-20T19:03:21.022Z</time><hdop>5.0</hdop><vdop>12.125</vdop><extensions><gom:speed>0.076</gom:speed></extensions></trkpt>
   <trkpt lat="59.069572475" lon="30.0289209396"><ele>88.544</ele><time>2026-04-20T19:03:22.046Z</time><hdop>4.937</hdop><vdop>10.937</vdop><extensions><gom:speed>0.114</gom:speed></extensions></trkpt>
   <trkpt lat="59.0695727684" lon="30.0289210234"><ele>88.367</ele><time>2026-04-20T19:03:23.075Z</time><hdop>4.875</hdop><vdop>10.625</vdop><extensions><gom:speed>0.079</gom:speed></extensions></trkpt>
   <trkpt lat="59.069573397" lon="30.0289203529"><ele>88.261</ele><time>2026-04-20T19:03:23.895Z</time><hdop>4.812</hdop><vdop>10.625</vdop><extensions><gom:speed>0.084</gom:speed></extensions></trkpt>
   <trkpt lat="59.0695742771" lon="30.0289197661"><ele>88.213</ele><time>2026-04-20T19:03:24.654Z</time><hdop>4.812</hdop><vdop>10.125</vdop><extensions><gom:speed>0.088</gom:speed></extensions></trkpt>
   <trkpt lat="59.0695748638" lon="30.0289181736"><ele>88.339</ele><time>2026-04-20T19:03:25.535Z</time><hdop>4.812</hdop><vdop>9.625</vdop><extensions><gom:speed>0.131</gom:speed></extensions></trkpt>
   <trkpt lat="59.0695753668" lon="30.0289172516"><ele>88.492</ele><time>2026-04-20T19:03:26.074Z</time><hdop>4.875</hdop><vdop>9.437</vdop><extensions><gom:speed>0.158</gom:speed></extensions></trkpt>
   <trkpt lat="59.0695773784" lon="30.028916581"><ele>88.722</ele><time>2026-04-20T19:03:27.021Z</time><hdop>4.937</hdop><vdop>8.937</vdop><extensions><gom:speed>0.198</gom:speed></extensions></trkpt>
   <trkpt lat="59.0695822818" lon="30.0289177545"><ele>88.859</ele><time>2026-04-20T19:03:27.793Z</time><hdop>5.062</hdop><vdop>8.937</vdop><extensions><gom:speed>0.461</gom:speed></extensions></trkpt>
   <trkpt lat="59.069590077" lon="30.0289201852"><ele>89.035</ele><time>2026-04-20T19:03:28.515Z</time><hdop>5.25</hdop><vdop>8.75</vdop><extensions><gom:speed>0.685</gom:speed></extensions></trkpt>
   <trkpt lat="59.0695956929" lon="30.0289221969"><ele>89.068</ele><time>2026-04-20T19:03:29.035Z</time><hdop>5.375</hdop><vdop>8.937</vdop><extensions><gom:speed>0.69</gom:speed></extensions></trkpt>
   <trkpt lat="59.0696044939" lon="30.0289273937"><ele>89.088</ele><time>2026-04-20T19:03:29.995Z</time><hdop>5.687</hdop><vdop>8.937</vdop><extensions><gom:speed>0.771</gom:speed></extensions></trkpt>
   <trkpt lat="59.0696125824" lon="30.0289307464"><ele>89.144</ele><time>2026-04-20T19:03:30.875Z</time><hdop>5.937</hdop><vdop>9.187</vdop><extensions><gom:speed>0.786</gom:speed></extensions></trkpt>
   <trkpt lat="59.0696146779" lon="30.0289284833"><ele>89.255</ele><time>2026-04-20T19:03:31.753Z</time><hdop>6.25</hdop><vdop>8.75</vdop><extensions><gom:speed>0.748</gom:speed></extensions></trkpt>
   <trkpt lat="59.0696194975" lon="30.0289243762"><ele>89.341</ele><time>2026-04-20T19:03:32.512Z</time><hdop>6.5</hdop><vdop>8.562</vdop><extensions><gom:speed>0.777</gom:speed></extensions></trkpt>
   <trkpt lat="59.069623898" lon="30.0289208558"><ele>89.39</ele><time>2026-04-20T19:03:33.116Z</time><hdop>6.75</hdop><vdop>8.437</vdop><extensions><gom:speed>0.776</gom:speed></extensions></trkpt>
   <trkpt lat="59.0696295977" lon="30.0289181736"><ele>89.419</ele><time>2026-04-20T19:03:33.776Z</time><hdop>6.812</hdop><vdop>8.437</vdop><extensions><gom:speed>0.843</gom:speed></extensions></trkpt>
   <trkpt lat="59.0696358841" lon="30.0289154914"><ele>89.437</ele><time>2026-04-20T19:03:34.499Z</time><hdop>7.0</hdop><vdop>8.5</vdop><extensions><gom:speed>0.866</gom:speed></extensions></trkpt>
   <trkpt lat="59.0696403684" lon="30.028912893"><ele>89.457</ele><time>2026-04-20T19:03:34.959Z</time><hdop>7.125</hdop><vdop>8.25</vdop><extensions><gom:speed>0.872</gom:speed></extensions></trkpt>
   <trkpt lat="59.0696480798" lon="30.0289081991"><ele>89.469</ele><time>2026-04-20T19:03:35.940Z</time><hdop>7.25</hdop><vdop>8.25</vdop><extensions><gom:speed>0.939</gom:speed></extensions></trkpt>
   <trkpt lat="59.0696545757" lon="30.0289034214"><ele>89.472</ele><time>2026-04-20T19:03:36.639Z</time><hdop>7.437</hdop><vdop>8.062</vdop><extensions><gom:speed>0.949</gom:speed></extensions></trkpt>
   <trkpt lat="59.0696586829" lon="30.0288992305"><ele>89.507</ele><time>2026-04-20T19:03:37.091Z</time><hdop>7.687</hdop><vdop>8.062</vdop><extensions><gom:speed>0.951</gom:speed></extensions></trkpt>
   <trkpt lat="59.0696666876" lon="30.0288898428"><ele>89.528</ele><time>2026-04-20T19:03:37.559Z</time><hdop>7.875</hdop><vdop>8.062</vdop><extensions><gom:speed>0.865</gom:speed></extensions></trkpt>
   <trkpt lat="59.0696681963" lon="30.0288865738"><ele>89.598</ele><time>2026-04-20T19:03:38.038Z</time><hdop>7.937</hdop><vdop>8.25</vdop><extensions><gom:speed>0.862</gom:speed></extensions></trkpt>
   <trkpt lat="59.0696609879" lon="30.0288778566"><ele>89.658</ele><time>2026-04-20T19:03:39.075Z</time><hdop>8.25</hdop><vdop>8.5</vdop><extensions><gom:speed>0.72</gom:speed></extensions></trkpt>
   <trkpt lat="59.0696563779" lon="30.0288730789"><ele>89.7</ele><time>2026-04-20T19:03:40.052Z</time><hdop>8.375</hdop><vdop>8.75</vdop><extensions><gom:speed>0.67</gom:speed></extensions></trkpt>
   <trkpt lat="59.06965818" lon="30.0288712349"><ele>89.725</ele><time>2026-04-20T19:03:40.894Z</time><hdop>8.437</hdop><vdop>8.75</vdop><extensions><gom:speed>0.72</gom:speed></extensions></trkpt>
   <trkpt lat="59.0696634606" lon="30.0288684689"><ele>89.732</ele><time>2026-04-20T19:03:41.713Z</time><hdop>8.625</hdop><vdop>9.062</vdop><extensions><gom:speed>0.757</gom:speed></extensions></trkpt>
   <trkpt lat="59.0696696632" lon="30.0288633559"><ele>89.735</ele><time>2026-04-20T19:03:42.477Z</time><hdop>8.75</hdop><vdop>9.125</vdop><extensions><gom:speed>0.771</gom:speed></extensions></trkpt>
   <trkpt lat="59.0696741894" lon="30.0288597517"><ele>89.743</ele><time>2026-04-20T19:03:43.014Z</time><hdop>8.75</hdop><vdop>8.875</vdop><extensions><gom:speed>0.769</gom:speed></extensions></trkpt>
   <trkpt lat="59.0696842896" lon="30.0288516213"><ele>89.749</ele><time>2026-04-20T19:03:43.963Z</time><hdop>8.937</hdop><vdop>8.75</vdop><extensions><gom:speed>0.788</gom:speed></extensions></trkpt>
   <trkpt lat="59.0696906598" lon="30.0288482685"><ele>89.757</ele><time>2026-04-20T19:03:45.028Z</time><hdop>9.187</hdop><vdop>8.625</vdop><extensions><gom:speed>0.757</gom:speed></extensions></trkpt>
   <trkpt lat="59.069697072" lon="30.0288438261"><ele>89.764</ele><time>2026-04-20T19:03:45.976Z</time><hdop>9.5</hdop><vdop>8.687</vdop><extensions><gom:speed>0.748</gom:speed></extensions></trkpt>
   <trkpt lat="59.0697033584" lon="30.0288393837"><ele>89.771</ele><time>2026-04-20T19:03:47.043Z</time><hdop>9.812</hdop><vdop>9.0</vdop><extensions><gom:speed>0.669</gom:speed></extensions></trkpt>
   <trkpt lat="59.0697085971" lon="30.0288339355"><ele>89.766</ele><time>2026-04-20T19:03:47.989Z</time><hdop>10.062</hdop><vdop>9.0</vdop><extensions><gom:speed>0.629</gom:speed></extensions></trkpt>
   <trkpt lat="59.0697138777" lon="30.0288266432"><ele>89.763</ele><time>2026-04-20T19:03:49.097Z</time><hdop>10.375</hdop><vdop>9.0</vdop><extensions><gom:speed>0.636</gom:speed></extensions></trkpt>
   <trkpt lat="59.0697214633" lon="30.0288163335"><ele>89.761</ele><time>2026-04-20T19:03:49.957Z</time><hdop>10.437</hdop><vdop>8.625</vdop><extensions><gom:speed>0.645</gom:speed></extensions></trkpt>
   <trkpt lat="59.0697256962" lon="30.0288145733"><ele>89.797</ele><time>2026-04-20T19:03:50.796Z</time><hdop>10.625</hdop><vdop>8.312</vdop><extensions><gom:speed>0.702</gom:speed></extensions></trkpt>
   <trkpt lat="59.0697313959" lon="30.0288126454"><ele>89.817</ele><time>2026-04-20T19:03:51.655Z</time><hdop>10.75</hdop><vdop>8.5</vdop><extensions><gom:speed>0.752</gom:speed></extensions></trkpt>
   <trkpt lat="59.0697376823" lon="30.0288107176"><ele>89.831</ele><time>2026-04-20T19:03:52.474Z</time><hdop>10.875</hdop><vdop>8.812</vdop><extensions><gom:speed>0.774</gom:speed></extensions></trkpt>
   <trkpt lat="59.0697420828" lon="30.0288089574"><ele>89.832</ele><time>2026-04-20T19:03:52.965Z</time><hdop>10.937</hdop><vdop>8.375</vdop><extensions><gom:speed>0.767</gom:speed></extensions></trkpt>
   <trkpt lat="59.0697497942" lon="30.0288043473"><ele>89.851</ele><time>2026-04-20T19:03:54.031Z</time><hdop>11.062</hdop><vdop>8.125</vdop><extensions><gom:speed>0.741</gom:speed></extensions></trkpt>
   <trkpt lat="59.069757296" lon="30.0288001564"><ele>89.882</ele><time>2026-04-20T19:03:54.979Z</time><hdop>11.25</hdop><vdop>8.187</vdop><extensions><gom:speed>0.704</gom:speed></extensions></trkpt>
   <trkpt lat="59.0697592657" lon="30.0287991506"><ele>89.9</ele><time>2026-04-20T19:03:55.571Z</time><hdop>11.312</hdop><vdop>8.187</vdop><extensions><gom:speed>0.704</gom:speed></extensions></trkpt>
   <trkpt lat="59.0697677734" lon="30.0287941214"><ele>89.911</ele><time>2026-04-20T19:03:56.038Z</time><hdop>11.312</hdop><vdop>8.187</vdop><extensions><gom:speed>0.711</gom:speed></extensions></trkpt>
   <trkpt lat="59.0697725929" lon="30.028789679"><ele>89.919</ele><time>2026-04-20T19:03:56.896Z</time><hdop>11.375</hdop><vdop>8.375</vdop><extensions><gom:speed>0.702</gom:speed></extensions></trkpt>
   <trkpt lat="59.0697778735" lon="30.0287826382"><ele>89.929</ele><time>2026-04-20T19:03:57.795Z</time><hdop>11.375</hdop><vdop>8.375</vdop><extensions><gom:speed>0.728</gom:speed></extensions></trkpt>
   <trkpt lat="59.0697813939" lon="30.0287758489"><ele>89.936</ele><time>2026-04-20T19:03:58.437Z</time><hdop>11.375</hdop><vdop>8.062</vdop><extensions><gom:speed>0.736</gom:speed></extensions></trkpt>
   <trkpt lat="59.0697619898" lon="30.0287751783"><ele>89.902</ele><time>2026-04-20T19:03:59.075Z</time><hdop>11.312</hdop><vdop>7.687</vdop><extensions><gom:speed>0.678</gom:speed></extensions></trkpt>
   <trkpt lat="59.0697510934" lon="30.0287714903"><ele>89.882</ele><time>2026-04-20T19:03:59.937Z</time><hdop>11.187</hdop><vdop>7.687</vdop><extensions><gom:speed>0.661</gom:speed></extensions></trkpt>
   <trkpt lat="59.0697304739" lon="30.028791523"><ele>89.846</ele><time>2026-04-20T19:04:00.818Z</time><hdop>10.75</hdop><vdop>5.687</vdop><extensions><gom:speed>0.619</gom:speed></extensions></trkpt>
   <trkpt lat="59.069719787" lon="30.0288102985"><ele>88.738</ele><time>2026-04-20T19:04:01.497Z</time><hdop>10.187</hdop><vdop>5.562</vdop><extensions><gom:speed>0.52</gom:speed></extensions></trkpt>
   <trkpt lat="59.0697139615" lon="30.0288228713"><ele>87.99</ele><time>2026-04-20T19:04:02.076Z</time><hdop>9.687</hdop><vdop>5.062</vdop><extensions><gom:speed>0.494</gom:speed></extensions></trkpt>
   <trkpt lat="59.0697102735" lon="30.028832762"><ele>87.176</ele><time>2026-04-20T19:04:03.075Z</time><hdop>8.875</hdop><vdop>5.0</vdop><extensions><gom:speed>0.455</gom:speed></extensions></trkpt>
   <trkpt lat="59.0697089743" lon="30.0288298283"><ele>86.69</ele><time>2026-04-20T19:04:04.014Z</time><hdop>7.937</hdop><vdop>5.0</vdop><extensions><gom:speed>0.526</gom:speed></extensions></trkpt>
   <trkpt lat="59.0697102735" lon="30.0288236257"><ele>86.805</ele><time>2026-04-20T19:04:04.795Z</time><hdop>7.312</hdop><vdop>9.25</vdop><extensions><gom:speed>0.595</gom:speed></extensions></trkpt>
   <trkpt lat="59.0697179848" lon="30.0288116396"><ele>87.296</ele><time>2026-04-20T19:04:06.075Z</time><hdop>6.187</hdop><vdop>9.187</vdop><extensions><gom:speed>0.542</gom:speed></extensions></trkpt>
   <trkpt lat="59.0697223853" lon="30.0288124778"><ele>87.589</ele><time>2026-04-20T19:04:06.958Z</time><hdop>5.625</hdop><vdop>9.187</vdop><extensions><gom:speed>0.451</gom:speed></extensions></trkpt>
   <trkpt lat="59.0697288813" lon="30.0288077839"><ele>88.15</ele><time>2026-04-20T19:04:07.716Z</time><hdop>5.125</hdop><vdop>8.812</vdop><extensions><gom:speed>0.589</gom:speed></extensions></trkpt>
   <trkpt lat="59.0697369699" lon="30.0288007431"><ele>88.481</ele><time>2026-04-20T19:04:08.359Z</time><hdop>4.875</hdop><vdop>8.625</vdop><extensions><gom:speed>0.601</gom:speed></extensions></trkpt>
   <trkpt lat="59.0697440945" lon="30.0287950434"><ele>88.869</ele><time>2026-04-20T19:04:09.075Z</time><hdop>4.812</hdop><vdop>8.312</vdop><extensions><gom:speed>0.703</gom:speed></extensions></trkpt>
   <trkpt lat="59.0697519735" lon="30.0287923612"><ele>89.101</ele><time>2026-04-20T19:04:09.879Z</time><hdop>4.75</hdop><vdop>8.312</vdop><extensions><gom:speed>0.754</gom:speed></extensions></trkpt>
   <trkpt lat="59.0697593914" lon="30.0287956302"><ele>89.1</ele><time>2026-04-20T19:04:10.579Z</time><hdop>4.812</hdop><vdop>7.75</vdop><extensions><gom:speed>0.849</gom:speed></extensions></trkpt>
   <trkpt lat="59.0697652588" lon="30.0287965522"><ele>89.425</ele><time>2026-04-20T19:04:11.075Z</time><hdop>4.875</hdop><vdop>7.687</vdop><extensions><gom:speed>0.83</gom:speed></extensions></trkpt>
   <trkpt lat="59.0697742693" lon="30.0288011622"><ele>89.613</ele><time>2026-04-20T19:04:12.039Z</time><hdop>4.937</hdop><vdop>7.375</vdop><extensions><gom:speed>0.847</gom:speed></extensions></trkpt>
   <trkpt lat="59.0697823998" lon="30.0288038444"><ele>89.725</ele><time>2026-04-20T19:04:12.921Z</time><hdop>5.125</hdop><vdop>7.375</vdop><extensions><gom:speed>0.891</gom:speed></extensions></trkpt>
   <trkpt lat="59.0697900692" lon="30.0287995697"><ele>89.973</ele><time>2026-04-20T19:04:13.541Z</time><hdop>5.312</hdop><vdop>7.187</vdop><extensions><gom:speed>0.921</gom:speed></extensions></trkpt>
   <trkpt lat="59.069795266" lon="30.0288008269"><ele>90.226</ele><time>2026-04-20T19:04:14.052Z</time><hdop>5.375</hdop><vdop>6.75</vdop><extensions><gom:speed>0.922</gom:speed></extensions></trkpt>
   <trkpt lat="59.0698044861" lon="30.0287991506"><ele>90.521</ele><time>2026-04-20T19:04:15.076Z</time><hdop>5.562</hdop><vdop>6.375</vdop><extensions><gom:speed>0.859</gom:speed></extensions></trkpt>
   <trkpt lat="59.0698120717" lon="30.0288016651"><ele>90.698</ele><time>2026-04-20T19:04:16.040Z</time><hdop>5.687</hdop><vdop>6.375</vdop><extensions><gom:speed>0.869</gom:speed></extensions></trkpt>
   <trkpt lat="59.0698184839" lon="30.0288092927"><ele>90.879</ele><time>2026-04-20T19:04:16.857Z</time><hdop>5.812</hdop><vdop>6.187</vdop><extensions><gom:speed>0.962</gom:speed></extensions></trkpt>
   <trkpt lat="59.069823974" lon="30.0288110529"><ele>91.084</ele><time>2026-04-20T19:04:17.658Z</time><hdop>5.812</hdop><vdop>6.25</vdop><extensions><gom:speed>1.013</gom:speed></extensions></trkpt>
   <trkpt lat="59.0698298833" lon="30.0288178422"><ele>91.284</ele><time>2026-04-20T19:04:18.476Z</time><hdop>5.875</hdop><vdop>6.437</vdop><extensions><gom:speed>1.02</gom:speed></extensions></trkpt>
   <trkpt lat="59.0698347867" lon="30.0288227875"><ele>91.399</ele><time>2026-04-20T19:04:19.027Z</time><hdop>5.937</hdop><vdop>6.437</vdop><extensions><gom:speed>1.007</gom:speed></extensions></trkpt>
   <trkpt lat="59.0698427914" lon="30.0288245477"><ele>91.468</ele><time>2026-04-20T19:04:19.899Z</time><hdop>6.0</hdop><vdop>6.437</vdop><extensions><gom:speed>0.972</gom:speed></extensions></trkpt>
   <trkpt lat="59.0698510895" lon="30.0288065266"><ele>91.571</ele><time>2026-04-20T19:04:20.699Z</time><hdop>6.062</hdop><vdop>6.375</vdop><extensions><gom:speed>0.871</gom:speed></extensions></trkpt>
   <trkpt lat="59.0698573759" lon="30.0287993182"><ele>91.643</ele><time>2026-04-20T19:04:21.853Z</time><hdop>6.062</hdop><vdop>6.25</vdop><extensions><gom:speed>0.805</gom:speed></extensions></trkpt>
   <trkpt lat="59.0698625727" lon="30.028794792"><ele>91.697</ele><time>2026-04-20T19:04:22.673Z</time><hdop>6.187</hdop><vdop>6.375</vdop><extensions><gom:speed>0.742</gom:speed></extensions></trkpt>
   <trkpt lat="59.0698695716" lon="30.0287867453"><ele>91.766</ele><time>2026-04-20T19:04:24.003Z</time><hdop>6.312</hdop><vdop>6.5</vdop><extensions><gom:speed>0.658</gom:speed></extensions></trkpt>
   <trkpt lat="59.0698688591" lon="30.0287828897"><ele>91.847</ele><time>2026-04-20T19:04:24.950Z</time><hdop>6.437</hdop><vdop>6.687</vdop><extensions><gom:speed>0.389</gom:speed></extensions></trkpt>
   <trkpt lat="59.0698588846" lon="30.0287786987"><ele>91.897</ele><time>2026-04-20T19:04:26.075Z</time><hdop>6.437</hdop><vdop>6.687</vdop><extensions><gom:speed>0.153</gom:speed></extensions></trkpt>
   <trkpt lat="59.0698515924" lon="30.0287763518"><ele>91.927</ele><time>2026-04-20T19:04:26.937Z</time><hdop>6.375</hdop><vdop>6.687</vdop><extensions><gom:speed>0.118</gom:speed></extensions></trkpt>
   <trkpt lat="59.0698506704" lon="30.0287754298"><ele>91.969</ele><time>2026-04-20T19:04:27.776Z</time><hdop>6.25</hdop><vdop>6.687</vdop><extensions><gom:speed>0.167</gom:speed></extensions></trkpt>
   <trkpt lat="59.06985176" lon="30.0287736696"><ele>91.994</ele><time>2026-04-20T19:04:28.675Z</time><hdop>6.25</hdop><vdop>6.5</vdop><extensions><gom:speed>0.227</gom:speed></extensions></trkpt>
   <trkpt lat="59.0698564958" lon="30.0287705683"><ele>92.007</ele><time>2026-04-20T19:04:29.553Z</time><hdop>6.312</hdop><vdop>6.437</vdop><extensions><gom:speed>0.428</gom:speed></extensions></trkpt>
   <trkpt lat="59.0698598905" lon="30.0287679699"><ele>92.01</ele><time>2026-04-20T19:04:30.045Z</time><hdop>6.375</hdop><vdop>6.437</vdop><extensions><gom:speed>0.441</gom:speed></extensions></trkpt>
   <trkpt lat="59.0698690687" lon="30.0287599233"><ele>92.01</ele><time>2026-04-20T19:04:30.992Z</time><hdop>6.5</hdop><vdop>6.437</vdop><extensions><gom:speed>0.625</gom:speed></extensions></trkpt>
   <trkpt lat="59.0698757742" lon="30.0287531339"><ele>92.009</ele><time>2026-04-20T19:04:31.940Z</time><hdop>6.812</hdop><vdop>6.437</vdop><extensions><gom:speed>0.635</gom:speed></extensions></trkpt>
   <trkpt lat="59.0698777858" lon="30.0287502841"><ele>92.009</ele><time>2026-04-20T19:04:32.651Z</time><hdop>7.062</hdop><vdop>6.437</vdop><extensions><gom:speed>0.649</gom:speed></extensions></trkpt>
   <trkpt lat="59.0698867964" lon="30.0287328497"><ele>92.008</ele><time>2026-04-20T19:04:33.838Z</time><hdop>7.437</hdop><vdop>6.375</vdop><extensions><gom:speed>0.694</gom:speed></extensions></trkpt>
   <trkpt lat="59.0698917836" lon="30.0287251384"><ele>92.024</ele><time>2026-04-20T19:04:34.737Z</time><hdop>7.75</hdop><vdop>6.375</vdop><extensions><gom:speed>0.736</gom:speed></extensions></trkpt>
   <trkpt lat="59.0698983634" lon="30.028728994"><ele>91.201</ele><time>2026-04-20T19:04:35.496Z</time><hdop>7.812</hdop><vdop>4.875</vdop><extensions><gom:speed>0.844</gom:speed></extensions></trkpt>
   <trkpt lat="59.0699060748" lon="30.0287356996"><ele>92.547</ele><time>2026-04-20T19:04:36.076Z</time><hdop>7.75</hdop><vdop>3.875</vdop><extensions><gom:speed>0.845</gom:speed></extensions></trkpt>
   <trkpt lat="59.0699157978" lon="30.0287430756"><ele>93.352</ele><time>2026-04-20T19:04:37.038Z</time><hdop>7.625</hdop><vdop>3.875</vdop><extensions><gom:speed>0.852</gom:speed></extensions></trkpt>
   <trkpt lat="59.0699287897" lon="30.0287518766"><ele>93.183</ele><time>2026-04-20T19:04:37.876Z</time><hdop>7.375</hdop><vdop>3.5</vdop><extensions><gom:speed>0.877</gom:speed></extensions></trkpt>
   <trkpt lat="59.0699431647" lon="30.0287573249"><ele>93.152</ele><time>2026-04-20T19:04:38.715Z</time><hdop>7.125</hdop><vdop>3.562</vdop><extensions><gom:speed>0.862</gom:speed></extensions></trkpt>
   <trkpt lat="59.0699607667" lon="30.0287607614"><ele>92.662</ele><time>2026-04-20T19:04:39.534Z</time><hdop>6.625</hdop><vdop>3.687</vdop><extensions><gom:speed>0.872</gom:speed></extensions></trkpt>
   <trkpt lat="59.0699688971" lon="30.028762354"><ele>92.095</ele><time>2026-04-20T19:04:40.076Z</time><hdop>6.375</hdop><vdop>3.5</vdop><extensions><gom:speed>0.857</gom:speed></extensions></trkpt>
   <trkpt lat="59.0699784944" lon="30.028757744"><ele>91.756</ele><time>2026-04-20T19:04:41.035Z</time><hdop>6.062</hdop><vdop>3.5</vdop><extensions><gom:speed>0.841</gom:speed></extensions></trkpt>
   <trkpt lat="59.0699890975" lon="30.0287555647"><ele>91.049</ele><time>2026-04-20T19:04:41.854Z</time><hdop>5.812</hdop><vdop>3.437</vdop><extensions><gom:speed>0.843</gom:speed></extensions></trkpt>
   <trkpt lat="59.0699997844" lon="30.0287542236"><ele>89.937</ele><time>2026-04-20T19:04:42.637Z</time><hdop>5.5</hdop><vdop>3.312</vdop><extensions><gom:speed>0.866</gom:speed></extensions></trkpt>
   <trkpt lat="59.0700082921" lon="30.0287542236"><ele>89.318</ele><time>2026-04-20T19:04:43.275Z</time><hdop>5.25</hdop><vdop>3.187</vdop><extensions><gom:speed>0.879</gom:speed></extensions></trkpt>
   <trkpt lat="59.0700167997" lon="30.028752631"><ele>88.949</ele><time>2026-04-20T19:04:44.017Z</time><hdop>5.187</hdop><vdop>3.187</vdop><extensions><gom:speed>0.923</gom:speed></extensions></trkpt>
   <trkpt lat="59.0700274866" lon="30.028752631"><ele>88.43</ele><time>2026-04-20T19:04:44.718Z</time><hdop>5.0</hdop><vdop>3.125</vdop><extensions><gom:speed>0.944</gom:speed></extensions></trkpt>
   <trkpt lat="59.0700380897" lon="30.0287508708"><ele>87.076</ele><time>2026-04-20T19:04:45.418Z</time><hdop>4.812</hdop><vdop>3.125</vdop><extensions><gom:speed>0.995</gom:speed></extensions></trkpt>
   <trkpt lat="59.0700463878" lon="30.0287482724"><ele>85.617</ele><time>2026-04-20T19:04:46.075Z</time><hdop>4.625</hdop><vdop>3.125</vdop><extensions><gom:speed>0.989</gom:speed></extensions></trkpt>
   <trkpt lat="59.0700552726" lon="30.0287440815"><ele>84.746</ele><time>2026-04-20T19:04:46.901Z</time><hdop>4.5</hdop><vdop>3.125</vdop><extensions><gom:speed>0.992</gom:speed></extensions></trkpt>
   <trkpt lat="59.0700642832" lon="30.0287437462"><ele>84.069</ele><time>2026-04-20T19:04:47.698Z</time><hdop>4.375</hdop><vdop>3.062</vdop><extensions><gom:speed>0.976</gom:speed></extensions></trkpt>
   <trkpt lat="59.0700726651" lon="30.0287440815"><ele>83.486</ele><time>2026-04-20T19:04:48.479Z</time><hdop>4.25</hdop><vdop>3.062</vdop><extensions><gom:speed>0.945</gom:speed></extensions></trkpt>
   <trkpt lat="59.0700787839" lon="30.0287439976"><ele>83.003</ele><time>2026-04-20T19:04:49.075Z</time><hdop>4.187</hdop><vdop>3.125</vdop><extensions><gom:speed>0.945</gom:speed></extensions></trkpt>
   <trkpt lat="59.070088465" lon="30.028741064"><ele>82.715</ele><time>2026-04-20T19:04:49.999Z</time><hdop>4.187</hdop><vdop>3.125</vdop><extensions><gom:speed>0.969</gom:speed></extensions></trkpt>
   <trkpt lat="59.0700970983" lon="30.0287400581"><ele>82.208</ele><time>2026-04-20T19:04:50.681Z</time><hdop>4.187</hdop><vdop>3.187</vdop><extensions><gom:speed>1.016</gom:speed></extensions></trkpt>
   <trkpt lat="59.0701036781" lon="30.0287400581"><ele>81.789</ele><time>2026-04-20T19:04:51.250Z</time><hdop>4.125</hdop><vdop>3.5</vdop><extensions><gom:speed>1.024</gom:speed></extensions></trkpt>
   <trkpt lat="59.0701153709" lon="30.0287367892"><ele>81.815</ele><time>2026-04-20T19:04:52.075Z</time><hdop>4.125</hdop><vdop>3.437</vdop><extensions><gom:speed>0.999</gom:speed></extensions></trkpt>
   <trkpt lat="59.0701228727" lon="30.0287340232"><ele>81.831</ele><time>2026-04-20T19:04:52.901Z</time><hdop>4.187</hdop><vdop>3.437</vdop><extensions><gom:speed>0.994</gom:speed></extensions></trkpt>
   <trkpt lat="59.0701312965" lon="30.028735029"><ele>82.049</ele><time>2026-04-20T19:04:53.662Z</time><hdop>4.187</hdop><vdop>3.625</vdop><extensions><gom:speed>0.968</gom:speed></extensions></trkpt>
   <trkpt lat="59.0701402651" lon="30.0287340232"><ele>82.168</ele><time>2026-04-20T19:04:54.460Z</time><hdop>4.187</hdop><vdop>3.687</vdop><extensions><gom:speed>0.912</gom:speed></extensions></trkpt>
   <trkpt lat="59.070147264" lon="30.0287321792"><ele>82.287</ele><time>2026-04-20T19:04:55.075Z</time><hdop>4.125</hdop><vdop>3.625</vdop><extensions><gom:speed>0.92</gom:speed></extensions></trkpt>
   <trkpt lat="59.0701554783" lon="30.0287277367"><ele>82.358</ele><time>2026-04-20T19:04:55.893Z</time><hdop>4.187</hdop><vdop>3.625</vdop><extensions><gom:speed>0.943</gom:speed></extensions></trkpt>
   <trkpt lat="59.0701649917" lon="30.0287266471"><ele>82.153</ele><time>2026-04-20T19:04:56.703Z</time><hdop>4.187</hdop><vdop>3.625</vdop><extensions><gom:speed>0.928</gom:speed></extensions></trkpt>
   <trkpt lat="59.0701743795" lon="30.0287249707"><ele>81.936</ele><time>2026-04-20T19:04:57.483Z</time><hdop>4.187</hdop><vdop>3.75</vdop><extensions><gom:speed>0.914</gom:speed></extensions></trkpt>
   <trkpt lat="59.0701812945" lon="30.028724384"><ele>81.566</ele><time>2026-04-20T19:04:58.076Z</time><hdop>4.187</hdop><vdop>3.75</vdop><extensions><gom:speed>0.913</gom:speed></extensions></trkpt>
   <trkpt lat="59.0701933645" lon="30.0287270662"><ele>81.402</ele><time>2026-04-20T19:04:59.075Z</time><hdop>4.187</hdop><vdop>3.875</vdop><extensions><gom:speed>0.909</gom:speed></extensions></trkpt>
   <trkpt lat="59.0702019978" lon="30.0287309219"><ele>81.304</ele><time>2026-04-20T19:04:59.939Z</time><hdop>4.25</hdop><vdop>3.875</vdop><extensions><gom:speed>0.883</gom:speed></extensions></trkpt>
   <trkpt lat="59.070211176" lon="30.0287344423"><ele>81.019</ele><time>2026-04-20T19:05:00.739Z</time><hdop>4.25</hdop><vdop>3.875</vdop><extensions><gom:speed>0.865</gom:speed></extensions></trkpt>
   <trkpt lat="59.0702206895" lon="30.0287375436"><ele>80.865</ele><time>2026-04-20T19:05:01.519Z</time><hdop>4.25</hdop><vdop>3.875</vdop><extensions><gom:speed>0.838</gom:speed></extensions></trkpt>
   <trkpt lat="59.0702276884" lon="30.0287400581"><ele>80.5</ele><time>2026-04-20T19:05:02.076Z</time><hdop>4.25</hdop><vdop>3.812</vdop><extensions><gom:speed>0.867</gom:speed></extensions></trkpt>
   <trkpt lat="59.0702388782" lon="30.0287417345"><ele>79.987</ele><time>2026-04-20T19:05:03.075Z</time><hdop>4.187</hdop><vdop>3.875</vdop><extensions><gom:speed>0.8</gom:speed></extensions></trkpt>
   <trkpt lat="59.0702421891" lon="30.0287414831"><ele>79.681</ele><time>2026-04-20T19:05:03.570Z</time><hdop>4.187</hdop><vdop>3.875</vdop><extensions><gom:speed>0.81</gom:speed></extensions></trkpt>
   <trkpt lat="59.0702511996" lon="30.0287415669"><ele>79.208</ele><time>2026-04-20T19:05:04.075Z</time><hdop>4.187</hdop><vdop>3.812</vdop><extensions><gom:speed>0.858</gom:speed></extensions></trkpt>
   <trkpt lat="59.070257486" lon="30.0287414831"><ele>78.926</ele><time>2026-04-20T19:05:04.816Z</time><hdop>4.187</hdop><vdop>3.812</vdop><extensions><gom:speed>0.851</gom:speed></extensions></trkpt>
   <trkpt lat="59.0702669995" lon="30.0287424889"><ele>78.729</ele><time>2026-04-20T19:05:05.636Z</time><hdop>4.187</hdop><vdop>3.75</vdop><extensions><gom:speed>0.836</gom:speed></extensions></trkpt>
   <trkpt lat="59.0702764711" lon="30.0287437462"><ele>78.756</ele><time>2026-04-20T19:05:06.417Z</time><hdop>4.187</hdop><vdop>3.625</vdop><extensions><gom:speed>0.859</gom:speed></extensions></trkpt>
   <trkpt lat="59.0702840986" lon="30.0287454226"><ele>78.765</ele><time>2026-04-20T19:05:07.075Z</time><hdop>4.25</hdop><vdop>3.687</vdop><extensions><gom:speed>0.868</gom:speed></extensions></trkpt>
   <trkpt lat="59.0702925643" lon="30.0287466798"><ele>78.77</ele><time>2026-04-20T19:05:07.897Z</time><hdop>4.312</hdop><vdop>3.687</vdop><extensions><gom:speed>0.89</gom:speed></extensions></trkpt>
   <trkpt lat="59.0703016587" lon="30.0287471828"><ele>78.868</ele><time>2026-04-20T19:05:08.676Z</time><hdop>4.375</hdop><vdop>3.5</vdop><extensions><gom:speed>0.902</gom:speed></extensions></trkpt>
   <trkpt lat="59.0703109626" lon="30.0287477695"><ele>78.542</ele><time>2026-04-20T19:05:09.417Z</time><hdop>4.437</hdop><vdop>3.375</vdop><extensions><gom:speed>0.924</gom:speed></extensions></trkpt>
   <trkpt lat="59.0703210628" lon="30.0287487753"><ele>78.146</ele><time>2026-04-20T19:05:10.075Z</time><hdop>4.5</hdop><vdop>3.25</vdop><extensions><gom:speed>0.923</gom:speed></extensions></trkpt>
   <trkpt lat="59.070327894" lon="30.028748943"><ele>77.909</ele><time>2026-04-20T19:05:10.898Z</time><hdop>4.562</hdop><vdop>3.25</vdop><extensions><gom:speed>0.94</gom:speed></extensions></trkpt>
   <trkpt lat="59.0703348929" lon="30.0287492782"><ele>77.595</ele><time>2026-04-20T19:05:11.623Z</time><hdop>4.625</hdop><vdop>3.187</vdop><extensions><gom:speed>0.949</gom:speed></extensions></trkpt>
   <trkpt lat="59.0703391677" lon="30.0287495297"><ele>77.412</ele><time>2026-04-20T19:05:12.075Z</time><hdop>4.625</hdop><vdop>3.125</vdop><extensions><gom:speed>0.949</gom:speed></extensions></trkpt>
   <trkpt lat="59.0703488907" lon="30.0287487753"><ele>77.059</ele><time>2026-04-20T19:05:13.075Z</time><hdop>4.687</hdop><vdop>3.0</vdop><extensions><gom:speed>0.979</gom:speed></extensions></trkpt>
   <trkpt lat="59.0703570631" lon="30.0287453387"><ele>76.848</ele><time>2026-04-20T19:05:13.958Z</time><hdop>4.75</hdop><vdop>3.0</vdop><extensions><gom:speed>0.974</gom:speed></extensions></trkpt>
   <trkpt lat="59.0703631818" lon="30.028741986"><ele>76.643</ele><time>2026-04-20T19:05:14.659Z</time><hdop>4.75</hdop><vdop>3.0</vdop><extensions><gom:speed>0.965</gom:speed></extensions></trkpt>
   <trkpt lat="59.0703701807" lon="30.0287400581"><ele>76.417</ele><time>2026-04-20T19:05:15.420Z</time><hdop>4.75</hdop><vdop>3.0</vdop><extensions><gom:speed>0.958</gom:speed></extensions></trkpt>
   <trkpt lat="59.0703722762" lon="30.0287394714"><ele>76.282</ele><time>2026-04-20T19:05:16.009Z</time><hdop>4.75</hdop><vdop>3.0</vdop><extensions><gom:speed>0.957</gom:speed></extensions></trkpt>
   <trkpt lat="59.070383969" lon="30.0287376274"><ele>76.041</ele><time>2026-04-20T19:05:16.940Z</time><hdop>4.687</hdop><vdop>3.0</vdop><extensions><gom:speed>0.97</gom:speed></extensions></trkpt>
   <trkpt lat="59.0703898782" lon="30.0287370407"><ele>75.947</ele><time>2026-04-20T19:05:17.740Z</time><hdop>4.75</hdop><vdop>3.0</vdop><extensions><gom:speed>0.949</gom:speed></extensions></trkpt>
   <trkpt lat="59.070395075" lon="30.0287342746"><ele>75.335</ele><time>2026-04-20T19:05:18.499Z</time><hdop>4.75</hdop><vdop>3.062</vdop><extensions><gom:speed>0.921</gom:speed></extensions></trkpt>
   <trkpt lat="59.0703990983" lon="30.0287315924"><ele>74.793</ele><time>2026-04-20T19:05:19.075Z</time><hdop>4.75</hdop><vdop>2.875</vdop><extensions><gom:speed>0.925</gom:speed></extensions></trkpt>
   <trkpt lat="59.0704068935" lon="30.0287278206"><ele>74.47</ele><time>2026-04-20T19:05:20.000Z</time><hdop>4.812</hdop><vdop>2.875</vdop><extensions><gom:speed>0.924</gom:speed></extensions></trkpt>
   <trkpt lat="59.0704119645" lon="30.0287244678"><ele>74.121</ele><time>2026-04-20T19:05:20.820Z</time><hdop>4.875</hdop><vdop>3.0</vdop><extensions><gom:speed>0.894</gom:speed></extensions></trkpt>
   <trkpt lat="59.0704162812" lon="30.0287217856"><ele>73.993</ele><time>2026-04-20T19:05:21.678Z</time><hdop>4.937</hdop><vdop>3.0</vdop><extensions><gom:speed>0.874</gom:speed></extensions></trkpt>
   <trkpt lat="59.0704178738" lon="30.0287211989"><ele>73.918</ele><time>2026-04-20T19:05:22.169Z</time><hdop>4.937</hdop><vdop>3.125</vdop><extensions><gom:speed>0.893</gom:speed></extensions></trkpt>
   <trkpt lat="59.0704244955" lon="30.0287203607"><ele>74.059</ele><time>2026-04-20T19:05:23.075Z</time><hdop>5.0</hdop><vdop>3.125</vdop><extensions><gom:speed>0.863</gom:speed></extensions></trkpt>
   <trkpt lat="59.0704309914" lon="30.0287165888"><ele>74.143</ele><time>2026-04-20T19:05:23.982Z</time><hdop>5.062</hdop><vdop>3.125</vdop><extensions><gom:speed>0.908</gom:speed></extensions></trkpt>
   <trkpt lat="59.0704360625" lon="30.0287164212"><ele>74.257</ele><time>2026-04-20T19:05:24.758Z</time><hdop>5.125</hdop><vdop>3.0</vdop><extensions><gom:speed>0.913</gom:speed></extensions></trkpt>
   <trkpt lat="59.070441385" lon="30.0287188519"><ele>73.969</ele><time>2026-04-20T19:05:25.598Z</time><hdop>5.125</hdop><vdop>3.0</vdop><extensions><gom:speed>0.911</gom:speed></extensions></trkpt>
   <trkpt lat="59.0704437738" lon="30.0287219532"><ele>73.793</ele><time>2026-04-20T19:05:26.075Z</time><hdop>5.125</hdop><vdop>2.937</vdop><extensions><gom:speed>0.902</gom:speed></extensions></trkpt>
   <trkpt lat="59.0704498926" lon="30.0287246354"><ele>73.427</ele><time>2026-04-20T19:05:27.075Z</time><hdop>5.125</hdop><vdop>2.937</vdop><extensions><gom:speed>0.882</gom:speed></extensions></trkpt>
   <trkpt lat="59.070456682" lon="30.0287252222"><ele>73.208</ele><time>2026-04-20T19:05:27.877Z</time><hdop>5.187</hdop><vdop>2.937</vdop><extensions><gom:speed>0.925</gom:speed></extensions></trkpt>
   <trkpt lat="59.0704579812" lon="30.0287288264"><ele>73.282</ele><time>2026-04-20T19:05:28.351Z</time><hdop>5.187</hdop><vdop>3.062</vdop><extensions><gom:speed>0.925</gom:speed></extensions></trkpt>
   <trkpt lat="59.0704652734" lon="30.0287315924"><ele>73.194</ele><time>2026-04-20T19:05:29.075Z</time><hdop>5.187</hdop><vdop>3.062</vdop><extensions><gom:speed>0.91</gom:speed></extensions></trkpt>
   <trkpt lat="59.070471476" lon="30.0287351966"><ele>73.095</ele><time>2026-04-20T19:05:30.076Z</time><hdop>5.187</hdop><vdop>3.125</vdop><extensions><gom:speed>0.899</gom:speed></extensions></trkpt>
   <trkpt lat="59.070478894" lon="30.0287364539"><ele>73.035</ele><time>2026-04-20T19:05:30.957Z</time><hdop>5.187</hdop><vdop>3.125</vdop><extensions><gom:speed>0.92</gom:speed></extensions></trkpt>
   <trkpt lat="59.0704848871" lon="30.0287405611"><ele>72.587</ele><time>2026-04-20T19:05:31.700Z</time><hdop>5.187</hdop><vdop>3.312</vdop><extensions><gom:speed>0.92</gom:speed></extensions></trkpt>
   <trkpt lat="59.0704905868" lon="30.0287436624"><ele>72.458</ele><time>2026-04-20T19:05:32.438Z</time><hdop>5.187</hdop><vdop>3.312</vdop><extensions><gom:speed>0.924</gom:speed></extensions></trkpt>
   <trkpt lat="59.070495574" lon="30.0287453387"><ele>72.256</ele><time>2026-04-20T19:05:33.076Z</time><hdop>5.125</hdop><vdop>3.312</vdop><extensions><gom:speed>0.928</gom:speed></extensions></trkpt>
   <trkpt lat="59.0705027824" lon="30.0287476857"><ele>72.136</ele><time>2026-04-20T19:05:33.899Z</time><hdop>5.062</hdop><vdop>3.312</vdop><extensions><gom:speed>0.913</gom:speed></extensions></trkpt>
   <trkpt lat="59.0705045845" lon="30.0287492782"><ele>71.427</ele><time>2026-04-20T19:05:34.490Z</time><hdop>5.062</hdop><vdop>3.312</vdop><extensions><gom:speed>0.912</gom:speed></extensions></trkpt>
   <trkpt lat="59.0705120864" lon="30.0287521281"><ele>70.806</ele><time>2026-04-20T19:05:35.075Z</time><hdop>5.0</hdop><vdop>3.312</vdop><extensions><gom:speed>0.898</gom:speed></extensions></trkpt>
   <trkpt lat="59.0705185823" lon="30.0287514575"><ele>69.685</ele><time>2026-04-20T19:05:36.076Z</time><hdop>5.0</hdop><vdop>3.312</vdop><extensions><gom:speed>0.855</gom:speed></extensions></trkpt>
   <trkpt lat="59.0705245754" lon="30.0287515414"><ele>68.59</ele><time>2026-04-20T19:05:37.076Z</time><hdop>4.937</hdop><vdop>3.25</vdop><extensions><gom:speed>0.838</gom:speed></extensions></trkpt>
   <trkpt lat="59.0705309875" lon="30.0287515414"><ele>67.936</ele><time>2026-04-20T19:05:37.897Z</time><hdop>4.875</hdop><vdop>3.25</vdop><extensions><gom:speed>0.852</gom:speed></extensions></trkpt>
   <trkpt lat="59.0705368968" lon="30.0287519604"><ele>66.909</ele><time>2026-04-20T19:05:38.658Z</time><hdop>4.812</hdop><vdop>3.312</vdop><extensions><gom:speed>0.915</gom:speed></extensions></trkpt>
   <trkpt lat="59.0705427641" lon="30.0287511223"><ele>65.873</ele><time>2026-04-20T19:05:39.419Z</time><hdop>4.75</hdop><vdop>3.125</vdop><extensions><gom:speed>0.902</gom:speed></extensions></trkpt>
   <trkpt lat="59.0705474999" lon="30.0287509546"><ele>65.09</ele><time>2026-04-20T19:05:40.075Z</time><hdop>4.687</hdop><vdop>3.0</vdop><extensions><gom:speed>0.898</gom:speed></extensions></trkpt>
   <trkpt lat="59.0705493858" lon="30.0287506193"><ele>64.622</ele><time>2026-04-20T19:05:40.649Z</time><hdop>4.687</hdop><vdop>3.0</vdop><extensions><gom:speed>0.89</gom:speed></extensions></trkpt>
   <trkpt lat="59.0705609948" lon="30.0287464284"><ele>63.818</ele><time>2026-04-20T19:05:41.836Z</time><hdop>4.687</hdop><vdop>2.875</vdop><extensions><gom:speed>0.868</gom:speed></extensions></trkpt>
   <trkpt lat="59.07056506" lon="30.0287421536"><ele>63.156</ele><time>2026-04-20T19:05:42.676Z</time><hdop>4.687</hdop><vdop>2.875</vdop><extensions><gom:speed>0.834</gom:speed></extensions></trkpt>
   <trkpt lat="59.0705679936" lon="30.0287385494"><ele>62.43</ele><time>2026-04-20T19:05:43.515Z</time><hdop>4.687</hdop><vdop>2.812</vdop><extensions><gom:speed>0.784</gom:speed></extensions></trkpt>
   <trkpt lat="59.0705694605" lon="30.0287352805"><ele>61.907</ele><time>2026-04-20T19:05:44.075Z</time><hdop>4.687</hdop><vdop>3.062</vdop><extensions><gom:speed>0.766</gom:speed></extensions></trkpt>
   <trkpt lat="59.0705722684" lon="30.0287285749"><ele>61.437</ele><time>2026-04-20T19:05:45.075Z</time><hdop>4.687</hdop><vdop>3.125</vdop><extensions><gom:speed>0.7</gom:speed></extensions></trkpt>
   <trkpt lat="59.0705776747" lon="30.028724384"><ele>61.156</ele><time>2026-04-20T19:05:46.083Z</time><hdop>4.75</hdop><vdop>3.125</vdop><extensions><gom:speed>0.684</gom:speed></extensions></trkpt>
   <trkpt lat="59.0705810694" lon="30.0287245516"><ele>61.305</ele><time>2026-04-20T19:05:46.902Z</time><hdop>4.812</hdop><vdop>3.437</vdop><extensions><gom:speed>0.693</gom:speed></extensions></trkpt>
   <trkpt lat="59.0705842964" lon="30.0287282397"><ele>61.66</ele><time>2026-04-20T19:05:47.780Z</time><hdop>4.875</hdop><vdop>3.687</vdop><extensions><gom:speed>0.721</gom:speed></extensions></trkpt>
   <trkpt lat="59.0705868948" lon="30.0287295808"><ele>61.634</ele><time>2026-04-20T19:05:48.521Z</time><hdop>4.937</hdop><vdop>3.875</vdop><extensions><gom:speed>0.771</gom:speed></extensions></trkpt>
   <trkpt lat="59.0705915887" lon="30.0287275691"><ele>61.516</ele><time>2026-04-20T19:05:49.201Z</time><hdop>5.0</hdop><vdop>3.937</vdop><extensions><gom:speed>0.773</gom:speed></extensions></trkpt>
   <trkpt lat="59.0705982942" lon="30.0287244678"><ele>61.09</ele><time>2026-04-20T19:05:50.008Z</time><hdop>5.062</hdop><vdop>3.937</vdop><extensions><gom:speed>0.796</gom:speed></extensions></trkpt>
   <trkpt lat="59.0706064666" lon="30.0287209474"><ele>60.836</ele><time>2026-04-20T19:05:51.058Z</time><hdop>5.312</hdop><vdop>3.937</vdop><extensions><gom:speed>0.778</gom:speed></extensions></trkpt>
   <trkpt lat="59.0706084782" lon="30.0287195225"><ele>60.984</ele><time>2026-04-20T19:05:51.939Z</time><hdop>5.437</hdop><vdop>4.125</vdop><extensions><gom:speed>0.773</gom:speed></extensions></trkpt>
   <trkpt lat="59.0706085621" lon="30.0287180976"><ele>61.152</ele><time>2026-04-20T19:05:52.656Z</time><hdop>5.5</hdop><vdop>4.0</vdop><extensions><gom:speed>0.792</gom:speed></extensions></trkpt>
   <trkpt lat="59.0706106994" lon="30.0287135713"><ele>60.912</ele><time>2026-04-20T19:05:53.575Z</time><hdop>5.687</hdop><vdop>4.0</vdop><extensions><gom:speed>0.765</gom:speed></extensions></trkpt>
   <trkpt lat="59.070609987" lon="30.0287121464"><ele>60.837</ele><time>2026-04-20T19:05:54.075Z</time><hdop>5.687</hdop><vdop>9.437</vdop><extensions><gom:speed>0.759</gom:speed></extensions></trkpt>
   <trkpt lat="59.0706110766" lon="30.0287092966"><ele>60.553</ele><time>2026-04-20T19:05:55.075Z</time><hdop>5.812</hdop><vdop>9.062</vdop><extensions><gom:speed>0.758</gom:speed></extensions></trkpt>
   <trkpt lat="59.0706153933" lon="30.0287050218"><ele>60.383</ele><time>2026-04-20T19:05:55.973Z</time><hdop>5.875</hdop><vdop>9.062</vdop><extensions><gom:speed>0.765</gom:speed></extensions></trkpt>
   <trkpt lat="59.0706205901" lon="30.0286989868"><ele>60.265</ele><time>2026-04-20T19:05:56.773Z</time><hdop>6.0</hdop><vdop>8.687</vdop><extensions><gom:speed>0.769</gom:speed></extensions></trkpt>
   <trkpt lat="59.0706256611" lon="30.0286931195"><ele>60.105</ele><time>2026-04-20T19:05:57.474Z</time><hdop>6.187</hdop><vdop>8.375</vdop><extensions><gom:speed>0.817</gom:speed></extensions></trkpt>
   <trkpt lat="59.0706257869" lon="30.0286858272"><ele>60.361</ele><time>2026-04-20T19:05:58.075Z</time><hdop>6.187</hdop><vdop>7.312</vdop><extensions><gom:speed>0.801</gom:speed></extensions></trkpt>
   <trkpt lat="59.0706288882" lon="30.0286771939"><ele>60.515</ele><time>2026-04-20T19:05:58.915Z</time><hdop>6.375</hdop><vdop>7.312</vdop><extensions><gom:speed>0.856</gom:speed></extensions></trkpt>
   <trkpt lat="59.0706299778" lon="30.0286606815"><ele>60.776</ele><time>2026-04-20T19:05:59.597Z</time><hdop>6.5</hdop><vdop>8.625</vdop><extensions><gom:speed>0.891</gom:speed></extensions></trkpt>
   <trkpt lat="59.0706285948" lon="30.0286545627"><ele>61.444</ele><time>2026-04-20T19:06:00.075Z</time><hdop>6.437</hdop><vdop>8.562</vdop><extensions><gom:speed>0.884</gom:speed></extensions></trkpt>
   <trkpt lat="59.0706336659" lon="30.0286432472"><ele>61.843</ele><time>2026-04-20T19:06:01.059Z</time><hdop>6.5</hdop><vdop>8.562</vdop><extensions><gom:speed>0.945</gom:speed></extensions></trkpt>
   <trkpt lat="59.0706372701" lon="30.0286332727"><ele>61.816</ele><time>2026-04-20T19:06:01.838Z</time><hdop>6.437</hdop><vdop>7.375</vdop><extensions><gom:speed>0.955</gom:speed></extensions></trkpt>
   <trkpt lat="59.0706407905" lon="30.0286259804"><ele>62.347</ele><time>2026-04-20T19:06:02.519Z</time><hdop>6.25</hdop><vdop>6.562</vdop><extensions><gom:speed>0.874</gom:speed></extensions></trkpt>
   <trkpt lat="59.0706439756" lon="30.0286218733"><ele>62.967</ele><time>2026-04-20T19:06:03.076Z</time><hdop>6.25</hdop><vdop>5.875</vdop><extensions><gom:speed>0.864</gom:speed></extensions></trkpt>
   <trkpt lat="59.0706513936" lon="30.0286189396"><ele>63.338</ele><time>2026-04-20T19:06:04.098Z</time><hdop>6.0</hdop><vdop>5.875</vdop><extensions><gom:speed>0.834</gom:speed></extensions></trkpt>
   <trkpt lat="59.0706571771" lon="30.0286146649"><ele>64.511</ele><time>2026-04-20T19:06:04.819Z</time><hdop>5.875</hdop><vdop>5.187</vdop><extensions><gom:speed>0.837</gom:speed></extensions></trkpt>
   <trkpt lat="59.0706606975" lon="30.0286097195"><ele>65.87</ele><time>2026-04-20T19:06:05.408Z</time><hdop>5.812</hdop><vdop>5.125</vdop><extensions><gom:speed>0.825</gom:speed></extensions></trkpt>
   <trkpt lat="59.0706694985" lon="30.0286028464"><ele>65.77</ele><time>2026-04-20T19:06:06.076Z</time><hdop>5.562</hdop><vdop>5.0</vdop><extensions><gom:speed>0.811</gom:speed></extensions></trkpt>
   <trkpt lat="59.0706779642" lon="30.0285976496"><ele>65.471</ele><time>2026-04-20T19:06:07.075Z</time><hdop>5.437</hdop><vdop>4.812</vdop><extensions><gom:speed>0.813</gom:speed></extensions></trkpt>
   <trkpt lat="59.070685466" lon="30.0285924528"><ele>65.292</ele><time>2026-04-20T19:06:07.899Z</time><hdop>5.312</hdop><vdop>4.812</vdop><extensions><gom:speed>0.825</gom:speed></extensions></trkpt>
   <trkpt lat="59.0706920877" lon="30.0285884295"><ele>65.295</ele><time>2026-04-20T19:06:08.698Z</time><hdop>5.25</hdop><vdop>8.125</vdop><extensions><gom:speed>0.817</gom:speed></extensions></trkpt>
   <trkpt lat="59.0706976617" lon="30.0285840709"><ele>65.192</ele><time>2026-04-20T19:06:09.478Z</time><hdop>5.25</hdop><vdop>8.062</vdop><extensions><gom:speed>0.828</gom:speed></extensions></trkpt>
   <trkpt lat="59.0707012659" lon="30.0285814725"><ele>64.813</ele><time>2026-04-20T19:06:10.076Z</time><hdop>5.25</hdop><vdop>7.812</vdop><extensions><gom:speed>0.818</gom:speed></extensions></trkpt>
   <trkpt lat="59.0707071751" lon="30.0285753537"><ele>64.587</ele><time>2026-04-20T19:06:10.959Z</time><hdop>5.25</hdop><vdop>7.812</vdop><extensions><gom:speed>0.849</gom:speed></extensions></trkpt>
   <trkpt lat="59.0707092706" lon="30.0285737612"><ele>64.45</ele><time>2026-04-20T19:06:11.570Z</time><hdop>5.312</hdop><vdop>7.687</vdop><extensions><gom:speed>0.842</gom:speed></extensions></trkpt>
   <trkpt lat="59.0707171915" lon="30.0285661337"><ele>64.343</ele><time>2026-04-20T19:06:12.042Z</time><hdop>5.375</hdop><vdop>7.562</vdop><extensions><gom:speed>0.837</gom:speed></extensions></trkpt>
   <trkpt lat="59.0707218854" lon="30.0285610207"><ele>64.278</ele><time>2026-04-20T19:06:12.716Z</time><hdop>5.5</hdop><vdop>7.562</vdop><extensions><gom:speed>0.838</gom:speed></extensions></trkpt>
   <trkpt lat="59.0707245676" lon="30.0285588414"><ele>62.847</ele><time>2026-04-20T19:06:13.438Z</time><hdop>5.562</hdop><vdop>6.5</vdop><extensions><gom:speed>0.877</gom:speed></extensions></trkpt>
   <trkpt lat="59.0707278784" lon="30.0285549857"><ele>62.927</ele><time>2026-04-20T19:06:14.075Z</time><hdop>5.562</hdop><vdop>5.562</vdop><extensions><gom:speed>0.902</gom:speed></extensions></trkpt>
   <trkpt lat="59.070733662" lon="30.0285479449"><ele>62.975</ele><time>2026-04-20T19:06:14.921Z</time><hdop>5.625</hdop><vdop>5.562</vdop><extensions><gom:speed>0.92</gom:speed></extensions></trkpt>
   <trkpt lat="59.0707380625" lon="30.0285401498"><ele>63.441</ele><time>2026-04-20T19:06:15.758Z</time><hdop>5.687</hdop><vdop>4.937</vdop><extensions><gom:speed>0.889</gom:speed></extensions></trkpt>
   <trkpt lat="59.070743385" lon="30.0285331928"><ele>64.838</ele><time>2026-04-20T19:06:16.537Z</time><hdop>5.75</hdop><vdop>4.75</vdop><extensions><gom:speed>0.908</gom:speed></extensions></trkpt>
   <trkpt lat="59.0707480788" lon="30.0285287504"><ele>66.429</ele><time>2026-04-20T19:06:17.075Z</time><hdop>5.687</hdop><vdop>4.25</vdop><extensions><gom:speed>0.919</gom:speed></extensions></trkpt>
   <trkpt lat="59.0707564607" lon="30.0285225478"><ele>67.379</ele><time>2026-04-20T19:06:17.979Z</time><hdop>5.687</hdop><vdop>4.25</vdop><extensions><gom:speed>0.948</gom:speed></extensions></trkpt>
   <trkpt lat="59.070768866" lon="30.0285174348"><ele>68.935</ele><time>2026-04-20T19:06:18.738Z</time><hdop>5.687</hdop><vdop>3.75</vdop><extensions><gom:speed>0.932</gom:speed></extensions></trkpt>
   <trkpt lat="59.0707767869" lon="30.0285134953"><ele>70.766</ele><time>2026-04-20T19:06:19.558Z</time><hdop>5.625</hdop><vdop>3.625</vdop><extensions><gom:speed>0.918</gom:speed></extensions></trkpt>
   <trkpt lat="59.0707834924" lon="30.0285097234"><ele>72.65</ele><time>2026-04-20T19:06:20.075Z</time><hdop>5.562</hdop><vdop>3.625</vdop><extensions><gom:speed>0.931</gom:speed></extensions></trkpt>
   <trkpt lat="59.0707931735" lon="30.028503437"><ele>73.776</ele><time>2026-04-20T19:06:21.001Z</time><hdop>5.5</hdop><vdop>3.625</vdop><extensions><gom:speed>0.937</gom:speed></extensions></trkpt>
   <trkpt lat="59.0708027708" lon="30.0284979888"><ele>74.762</ele><time>2026-04-20T19:06:21.681Z</time><hdop>5.437</hdop><vdop>3.625</vdop><extensions><gom:speed>0.962</gom:speed></extensions></trkpt>
   <trkpt lat="59.0708153855" lon="30.028490948"><ele>74.98</ele><time>2026-04-20T19:06:22.540Z</time><hdop>5.375</hdop><vdop>3.812</vdop><extensions><gom:speed>0.945</gom:speed></extensions></trkpt>
   <trkpt lat="59.0708234741" lon="30.0284853321"><ele>75.694</ele><time>2026-04-20T19:06:23.075Z</time><hdop>5.25</hdop><vdop>3.812</vdop><extensions><gom:speed>0.951</gom:speed></extensions></trkpt>
   <trkpt lat="59.0708363822" lon="30.0284768664"><ele>75.937</ele><time>2026-04-20T19:06:24.075Z</time><hdop>5.125</hdop><vdop>3.875</vdop><extensions><gom:speed>0.878</gom:speed></extensions></trkpt>
   <trkpt lat="59.0708470691" lon="30.0284676463"><ele>76.083</ele><time>2026-04-20T19:06:24.919Z</time><hdop>4.937</hdop><vdop>3.875</vdop><extensions><gom:speed>0.907</gom:speed></extensions></trkpt>
   <trkpt lat="59.0708557863" lon="30.0284616951"><ele>76.216</ele><time>2026-04-20T19:06:25.679Z</time><hdop>4.875</hdop><vdop>4.0</vdop><extensions><gom:speed>0.915</gom:speed></extensions></trkpt>
   <trkpt lat="59.0708659703" lon="30.0284547382"><ele>76.053</ele><time>2026-04-20T19:06:26.478Z</time><hdop>4.812</hdop><vdop>4.187</vdop><extensions><gom:speed>0.89</gom:speed></extensions></trkpt>
   <trkpt lat="59.0708709994" lon="30.0284512178"><ele>75.342</ele><time>2026-04-20T19:06:26.970Z</time><hdop>4.812</hdop><vdop>4.125</vdop><extensions><gom:speed>0.89</gom:speed></extensions></trkpt>
   <trkpt lat="59.0708795909" lon="30.0284467754"><ele>74.917</ele><time>2026-04-20T19:06:27.978Z</time><hdop>4.875</hdop><vdop>4.125</vdop><extensions><gom:speed>0.88</gom:speed></extensions></trkpt>
   <trkpt lat="59.0708876794" lon="30.0284411595"><ele>74.733</ele><time>2026-04-20T19:06:28.956Z</time><hdop>5.062</hdop><vdop>4.0</vdop><extensions><gom:speed>0.876</gom:speed></extensions></trkpt>
   <trkpt lat="59.0708937982" lon="30.0284373876"><ele>74.333</ele><time>2026-04-20T19:06:29.617Z</time><hdop>5.187</hdop><vdop>3.812</vdop><extensions><gom:speed>0.88</gom:speed></extensions></trkpt>
   <trkpt lat="59.0708969833" lon="30.0284357951"><ele>74.203</ele><time>2026-04-20T19:06:30.075Z</time><hdop>5.25</hdop><vdop>8.25</vdop><extensions><gom:speed>0.879</gom:speed></extensions></trkpt>
   <trkpt lat="59.0709072931" lon="30.0284257368"><ele>74.125</ele><time>2026-04-20T19:06:31.079Z</time><hdop>5.5</hdop><vdop>8.25</vdop><extensions><gom:speed>0.899</gom:speed></extensions></trkpt>
   <trkpt lat="59.0709123641" lon="30.0284213782"><ele>74.137</ele><time>2026-04-20T19:06:31.802Z</time><hdop>5.562</hdop><vdop>7.875</vdop><extensions><gom:speed>0.925</gom:speed></extensions></trkpt>
   <trkpt lat="59.07091798" lon="30.0284152594"><ele>74.07</ele><time>2026-04-20T19:06:32.599Z</time><hdop>5.687</hdop><vdop>7.562</vdop><extensions><gom:speed>0.932</gom:speed></extensions></trkpt>
   <trkpt lat="59.0709243922" lon="30.0284087215"><ele>74.137</ele><time>2026-04-20T19:06:33.359Z</time><hdop>5.812</hdop><vdop>7.187</vdop><extensions><gom:speed>0.92</gom:speed></extensions></trkpt>
   <trkpt lat="59.0709280802" lon="30.0284093921"><ele>74.241</ele><time>2026-04-20T19:06:34.075Z</time><hdop>5.812</hdop><vdop>7.062</vdop><extensions><gom:speed>0.908</gom:speed></extensions></trkpt>
   <trkpt lat="59.0709336961" lon="30.0284086377"><ele>74.303</ele><time>2026-04-20T19:06:34.840Z</time><hdop>5.937</hdop><vdop>7.062</vdop><extensions><gom:speed>0.903</gom:speed></extensions></trkpt>
   <trkpt lat="59.0709393958" lon="30.0284055364"><ele>74.307</ele><time>2026-04-20T19:06:35.540Z</time><hdop>6.062</hdop><vdop>7.125</vdop><extensions><gom:speed>0.906</gom:speed></extensions></trkpt>
   <trkpt lat="59.0709410722" lon="30.0284082186"><ele>74.293</ele><time>2026-04-20T19:06:36.075Z</time><hdop>6.062</hdop><vdop>7.125</vdop><extensions><gom:speed>0.895</gom:speed></extensions></trkpt>
   <trkpt lat="59.0709415751" lon="30.0284094759"><ele>74.285</ele><time>2026-04-20T19:06:36.683Z</time><hdop>6.062</hdop><vdop>7.125</vdop><extensions><gom:speed>0.906</gom:speed></extensions></trkpt>
   <trkpt lat="59.0709493702" lon="30.0284072966"><ele>73.568</ele><time>2026-04-20T19:06:37.673Z</time><hdop>6.0</hdop><vdop>6.25</vdop><extensions><gom:speed>0.934</gom:speed></extensions></trkpt>
   <trkpt lat="59.0709538965" lon="30.0284065422"><ele>74.901</ele><time>2026-04-20T19:06:38.433Z</time><hdop>5.812</hdop><vdop>5.25</vdop><extensions><gom:speed>0.94</gom:speed></extensions></trkpt>
   <trkpt lat="59.0709594704" lon="30.0284048658"><ele>78.887</ele><time>2026-04-20T19:06:39.075Z</time><hdop>5.75</hdop><vdop>4.437</vdop><extensions><gom:speed>0.926</gom:speed></extensions></trkpt>
   <trkpt lat="59.0709663855" lon="30.0284017645"><ele>81.269</ele><time>2026-04-20T19:06:39.835Z</time><hdop>5.687</hdop><vdop>4.437</vdop><extensions><gom:speed>0.932</gom:speed></extensions></trkpt>
   <trkpt lat="59.070974474" lon="30.0284035247"><ele>82.899</ele><time>2026-04-20T19:06:40.516Z</time><hdop>5.5</hdop><vdop>3.812</vdop><extensions><gom:speed>0.935</gom:speed></extensions></trkpt>
   <trkpt lat="59.0709822692" lon="30.0284026865"><ele>84.616</ele><time>2026-04-20T19:06:41.075Z</time><hdop>5.375</hdop><vdop>7.875</vdop><extensions><gom:speed>0.941</gom:speed></extensions></trkpt>
   <trkpt lat="59.070992076" lon="30.0283965678"><ele>85.643</ele><time>2026-04-20T19:06:42.016Z</time><hdop>5.187</hdop><vdop>7.875</vdop><extensions><gom:speed>0.927</gom:speed></extensions></trkpt>
   <trkpt lat="59.0710030982" lon="30.0283912872"><ele>86.975</ele><time>2026-04-20T19:06:42.837Z</time><hdop>5.125</hdop><vdop>8.187</vdop><extensions><gom:speed>0.905</gom:speed></extensions></trkpt>
   <trkpt lat="59.0710177666" lon="30.0283889402"><ele>88.323</ele><time>2026-04-20T19:06:43.735Z</time><hdop>5.125</hdop><vdop>8.312</vdop><extensions><gom:speed>0.858</gom:speed></extensions></trkpt>
   <trkpt lat="59.0710282859" lon="30.0283906166"><ele>89.368</ele><time>2026-04-20T19:06:44.435Z</time><hdop>5.125</hdop><vdop>8.437</vdop><extensions><gom:speed>0.844</gom:speed></extensions></trkpt>
   <trkpt lat="59.0710382603" lon="30.0283917901"><ele>89.984</ele><time>2026-04-20T19:06:45.075Z</time><hdop>5.125</hdop><vdop>8.0</vdop><extensions><gom:speed>0.855</gom:speed></extensions></trkpt>
   <trkpt lat="59.0710483605" lon="30.0283905328"><ele>90.353</ele><time>2026-04-20T19:06:46.035Z</time><hdop>5.062</hdop><vdop>8.0</vdop><extensions><gom:speed>0.863</gom:speed></extensions></trkpt>
   <trkpt lat="59.071058796" lon="30.0283872638"><ele>91.041</ele><time>2026-04-20T19:06:46.874Z</time><hdop>5.062</hdop><vdop>8.375</vdop><extensions><gom:speed>0.847</gom:speed></extensions></trkpt>
   <trkpt lat="59.0710686866" lon="30.0283831567"><ele>91.408</ele><time>2026-04-20T19:06:47.654Z</time><hdop>5.0</hdop><vdop>8.812</vdop><extensions><gom:speed>0.864</gom:speed></extensions></trkpt>
   <trkpt lat="59.0710783677" lon="30.0283804745"><ele>91.691</ele><time>2026-04-20T19:06:48.374Z</time><hdop>5.0</hdop><vdop>8.875</vdop><extensions><gom:speed>0.871</gom:speed></extensions></trkpt>
   <trkpt lat="59.0710875878" lon="30.0283788819"><ele>91.918</ele><time>2026-04-20T19:06:49.076Z</time><hdop>5.0</hdop><vdop>8.937</vdop><extensions><gom:speed>0.913</gom:speed></extensions></trkpt>
   <trkpt lat="59.0711001607" lon="30.0283761997"><ele>92.053</ele><time>2026-04-20T19:06:49.894Z</time><hdop>5.0</hdop><vdop>8.937</vdop><extensions><gom:speed>0.94</gom:speed></extensions></trkpt>
   <trkpt lat="59.0711069919" lon="30.0283740204"><ele>92.011</ele><time>2026-04-20T19:06:50.616Z</time><hdop>5.0</hdop><vdop>8.75</vdop><extensions><gom:speed>0.925</gom:speed></extensions></trkpt>
   <trkpt lat="59.0711122725" lon="30.0283724279"><ele>91.977</ele><time>2026-04-20T19:06:51.075Z</time><hdop>5.0</hdop><vdop>8.5</vdop><extensions><gom:speed>0.931</gom:speed></extensions></trkpt>
   <trkpt lat="59.0711209897" lon="30.0283674825"><ele>92.032</ele><time>2026-04-20T19:06:51.966Z</time><hdop>5.062</hdop><vdop>8.25</vdop><extensions><gom:speed>0.922</gom:speed></extensions></trkpt>
   <trkpt lat="59.071128282" lon="30.0283618667"><ele>92.065</ele><time>2026-04-20T19:06:52.856Z</time><hdop>5.187</hdop><vdop>8.25</vdop><extensions><gom:speed>0.912</gom:speed></extensions></trkpt>
   <trkpt lat="59.0711356999" lon="30.0283563346"><ele>92.087</ele><time>2026-04-20T19:06:53.597Z</time><hdop>5.375</hdop><vdop>7.875</vdop><extensions><gom:speed>0.919</gom:speed></extensions></trkpt>
   <trkpt lat="59.0711421959" lon="30.0283529819"><ele>92.16</ele><time>2026-04-20T19:06:54.317Z</time><hdop>5.562</hdop><vdop>7.562</vdop><extensions><gom:speed>0.935</gom:speed></extensions></trkpt>
   <trkpt lat="59.0711482728" lon="30.0283531495"><ele>92.199</ele><time>2026-04-20T19:06:55.045Z</time><hdop>5.625</hdop><vdop>7.5</vdop><extensions><gom:speed>0.94</gom:speed></extensions></trkpt>
   <trkpt lat="59.0711558584" lon="30.0283718411"><ele>92.227</ele><time>2026-04-20T19:06:55.993Z</time><hdop>5.875</hdop><vdop>7.5</vdop><extensions><gom:speed>0.982</gom:speed></extensions></trkpt>
   <trkpt lat="59.0711616838" lon="30.0283718411"><ele>92.244</ele><time>2026-04-20T19:06:56.836Z</time><hdop>6.062</hdop><vdop>7.5</vdop><extensions><gom:speed>0.959</gom:speed></extensions></trkpt>
   <trkpt lat="59.071168096" lon="30.0283644651"><ele>92.215</ele><time>2026-04-20T19:06:57.614Z</time><hdop>6.25</hdop><vdop>7.125</vdop><extensions><gom:speed>0.952</gom:speed></extensions></trkpt>
   <trkpt lat="59.0711726641" lon="30.0283574243"><ele>92.054</ele><time>2026-04-20T19:06:58.075Z</time><hdop>6.312</hdop><vdop>4.875</vdop><extensions><gom:speed>0.974</gom:speed></extensions></trkpt>
   <trkpt lat="59.0711830996" lon="30.0283417501"><ele>92.161</ele><time>2026-04-20T19:06:59.075Z</time><hdop>6.375</hdop><vdop>3.687</vdop><extensions><gom:speed>0.945</gom:speed></extensions></trkpt>
   <trkpt lat="59.0711906852" lon="30.0283280876"><ele>92.226</ele><time>2026-04-20T19:06:59.935Z</time><hdop>6.375</hdop><vdop>3.687</vdop><extensions><gom:speed>0.954</gom:speed></extensions></trkpt>
   <trkpt lat="59.0712013722" lon="30.0283159338"><ele>92.506</ele><time>2026-04-20T19:07:00.773Z</time><hdop>6.312</hdop><vdop>3.0</vdop><extensions><gom:speed>0.9</gom:speed></extensions></trkpt>
   <trkpt lat="59.0712094607" lon="30.0283115753"><ele>92.198</ele><time>2026-04-20T19:07:01.442Z</time><hdop>6.187</hdop><vdop>2.812</vdop><extensions><gom:speed>0.87</gom:speed></extensions></trkpt>
   <trkpt lat="59.0712228717" lon="30.0283074681"><ele>91.789</ele><time>2026-04-20T19:07:02.075Z</time><hdop>6.0</hdop><vdop>2.75</vdop><extensions><gom:speed>0.856</gom:speed></extensions></trkpt>
   <trkpt lat="59.0712357799" lon="30.0283050374"><ele>91.806</ele><time>2026-04-20T19:07:03.075Z</time><hdop>5.812</hdop><vdop>2.812</vdop><extensions><gom:speed>0.887</gom:speed></extensions></trkpt>
   <trkpt lat="59.0712451676" lon="30.028303361"><ele>91.816</ele><time>2026-04-20T19:07:03.913Z</time><hdop>5.625</hdop><vdop>2.812</vdop><extensions><gom:speed>0.886</gom:speed></extensions></trkpt>
   <trkpt lat="59.0712578662" lon="30.0282976613"><ele>91.705</ele><time>2026-04-20T19:07:04.693Z</time><hdop>5.562</hdop><vdop>2.937</vdop><extensions><gom:speed>0.915</gom:speed></extensions></trkpt>
   <trkpt lat="59.0712695589" lon="30.0282904529"><ele>91.506</ele><time>2026-04-20T19:07:05.413Z</time><hdop>5.375</hdop><vdop>2.875</vdop><extensions><gom:speed>0.91</gom:speed></extensions></trkpt>
   <trkpt lat="59.0712795753" lon="30.0282840826"><ele>91.386</ele><time>2026-04-20T19:07:06.075Z</time><hdop>5.25</hdop><vdop>3.0</vdop><extensions><gom:speed>0.91</gom:speed></extensions></trkpt>
   <trkpt lat="59.0712902622" lon="30.0282782991"><ele>91.315</ele><time>2026-04-20T19:07:07.032Z</time><hdop>5.187</hdop><vdop>3.0</vdop><extensions><gom:speed>0.932</gom:speed></extensions></trkpt>
   <trkpt lat="59.0712956686" lon="30.0282749463"><ele>91.295</ele><time>2026-04-20T19:07:07.603Z</time><hdop>5.187</hdop><vdop>3.062</vdop><extensions><gom:speed>0.935</gom:speed></extensions></trkpt>
   <trkpt lat="59.0713088701" lon="30.0282678217"><ele>91.795</ele><time>2026-04-20T19:07:08.075Z</time><hdop>5.125</hdop><vdop>3.187</vdop><extensions><gom:speed>0.955</gom:speed></extensions></trkpt>
   <trkpt lat="59.0713142764" lon="30.0282647204"><ele>92.094</ele><time>2026-04-20T19:07:08.593Z</time><hdop>5.062</hdop><vdop>3.187</vdop><extensions><gom:speed>0.934</gom:speed></extensions></trkpt>
   <trkpt lat="59.0713213591" lon="30.0282618706"><ele>91.853</ele><time>2026-04-20T19:07:09.075Z</time><hdop>5.062</hdop><vdop>2.875</vdop><extensions><gom:speed>0.944</gom:speed></extensions></trkpt>
   <trkpt lat="59.0713346863" lon="30.0282557518"><ele>91.64</ele><time>2026-04-20T19:07:10.075Z</time><hdop>5.0</hdop><vdop>2.687</vdop><extensions><gom:speed>0.905</gom:speed></extensions></trkpt>
   <trkpt lat="59.0713477621" lon="30.0282540754"><ele>91.345</ele><time>2026-04-20T19:07:11.076Z</time><hdop>5.0</hdop><vdop>2.625</vdop><extensions><gom:speed>0.904</gom:speed></extensions></trkpt>
   <trkpt lat="59.0713572756" lon="30.0282553327"><ele>91.168</ele><time>2026-04-20T19:07:11.940Z</time><hdop>5.0</hdop><vdop>2.625</vdop><extensions><gom:speed>0.903</gom:speed></extensions></trkpt>
   <trkpt lat="59.0713682978" lon="30.0282591884"><ele>91.128</ele><time>2026-04-20T19:07:12.640Z</time><hdop>4.937</hdop><vdop>2.562</vdop><extensions><gom:speed>0.929</gom:speed></extensions></trkpt>
   <trkpt lat="59.0713794876" lon="30.0282635469"><ele>91.23</ele><time>2026-04-20T19:07:13.321Z</time><hdop>4.937</hdop><vdop>2.5</vdop><extensions><gom:speed>0.942</gom:speed></extensions></trkpt>
   <trkpt lat="59.0713937787" lon="30.0282677379"><ele>91.321</ele><time>2026-04-20T19:07:14.075Z</time><hdop>4.937</hdop><vdop>2.5</vdop><extensions><gom:speed>0.971</gom:speed></extensions></trkpt>
   <trkpt lat="59.0714021607" lon="30.0282684923"><ele>91.375</ele><time>2026-04-20T19:07:14.901Z</time><hdop>5.0</hdop><vdop>2.5</vdop><extensions><gom:speed>0.954</gom:speed></extensions></trkpt>
   <trkpt lat="59.0714123866" lon="30.0282687437"><ele>91.49</ele><time>2026-04-20T19:07:15.641Z</time><hdop>4.937</hdop><vdop>2.5</vdop><extensions><gom:speed>0.956</gom:speed></extensions></trkpt>
   <trkpt lat="59.071423283" lon="30.028268157"><ele>91.272</ele><time>2026-04-20T19:07:16.481Z</time><hdop>4.937</hdop><vdop>2.5</vdop><extensions><gom:speed>0.936</gom:speed></extensions></trkpt>
   <trkpt lat="59.0714312878" lon="30.0282668997"><ele>91.084</ele><time>2026-04-20T19:07:17.075Z</time><hdop>4.875</hdop><vdop>2.5</vdop><extensions><gom:speed>0.956</gom:speed></extensions></trkpt>
   <trkpt lat="59.0714429805" lon="30.0282627926"><ele>90.929</ele><time>2026-04-20T19:07:18.076Z</time><hdop>4.75</hdop><vdop>2.5</vdop><extensions><gom:speed>0.894</gom:speed></extensions></trkpt>
   <trkpt lat="59.0714492669" lon="30.0282592722"><ele>90.837</ele><time>2026-04-20T19:07:18.760Z</time><hdop>4.687</hdop><vdop>2.5</vdop><extensions><gom:speed>0.894</gom:speed></extensions></trkpt>
   <trkpt lat="59.0714577746" lon="30.0282583502"><ele>90.784</ele><time>2026-04-20T19:07:19.523Z</time><hdop>4.562</hdop><vdop>2.687</vdop><extensions><gom:speed>0.938</gom:speed></extensions></trkpt>
   <trkpt lat="59.071467288" lon="30.0282571767"><ele>90.947</ele><time>2026-04-20T19:07:20.075Z</time><hdop>4.5</hdop><vdop>2.5</vdop><extensions><gom:speed>0.943</gom:speed></extensions></trkpt>
   <trkpt lat="59.0714750832" lon="30.0282543269"><ele>91.044</ele><time>2026-04-20T19:07:21.081Z</time><hdop>4.437</hdop><vdop>2.5</vdop><extensions><gom:speed>0.888</gom:speed></extensions></trkpt>
   <trkpt lat="59.0714829622" lon="30.0282481242"><ele>91.335</ele><time>2026-04-20T19:07:21.940Z</time><hdop>4.375</hdop><vdop>2.5</vdop><extensions><gom:speed>0.903</gom:speed></extensions></trkpt>
   <trkpt lat="59.0714906735" lon="30.0282402453"><ele>91.367</ele><time>2026-04-20T19:07:22.740Z</time><hdop>4.375</hdop><vdop>2.5</vdop><extensions><gom:speed>0.885</gom:speed></extensions></trkpt>
   <trkpt lat="59.0714971695" lon="30.0282342941"><ele>91.265</ele><time>2026-04-20T19:07:23.520Z</time><hdop>4.312</hdop><vdop>2.5</vdop><extensions><gom:speed>0.85</gom:speed></extensions></trkpt>
   <trkpt lat="59.0715019891" lon="30.028232031"><ele>91.424</ele><time>2026-04-20T19:07:24.075Z</time><hdop>4.25</hdop><vdop>2.5</vdop><extensions><gom:speed>0.84</gom:speed></extensions></trkpt>
   <trkpt lat="59.0715104967" lon="30.0282330368"><ele>91.795</ele><time>2026-04-20T19:07:25.075Z</time><hdop>4.25</hdop><vdop>2.5</vdop><extensions><gom:speed>0.828</gom:speed></extensions></trkpt>
   <trkpt lat="59.0715175795" lon="30.0282364734"><ele>92.016</ele><time>2026-04-20T19:07:25.918Z</time><hdop>4.25</hdop><vdop>2.5</vdop><extensions><gom:speed>0.85</gom:speed></extensions></trkpt>
   <trkpt lat="59.0715272606" lon="30.0282396585"><ele>92.208</ele><time>2026-04-20T19:07:26.618Z</time><hdop>4.187</hdop><vdop>2.5</vdop><extensions><gom:speed>0.882</gom:speed></extensions></trkpt>
   <trkpt lat="59.0715300685" lon="30.0282396585"><ele>92.458</ele><time>2026-04-20T19:07:27.075Z</time><hdop>4.187</hdop><vdop>2.5</vdop><extensions><gom:speed>0.872</gom:speed></extensions></trkpt>
   <trkpt lat="59.0715379894" lon="30.0282384851"><ele>92.6</ele><time>2026-04-20T19:07:28.075Z</time><hdop>4.187</hdop><vdop>2.5</vdop><extensions><gom:speed>0.845</gom:speed></extensions></trkpt>
   <trkpt lat="59.0715449883" lon="30.028237563"><ele>92.684</ele><time>2026-04-20T19:07:28.940Z</time><hdop>4.187</hdop><vdop>2.5</vdop><extensions><gom:speed>0.82</gom:speed></extensions></trkpt>
   <trkpt lat="59.0715507718" lon="30.0282353838"><ele>92.712</ele><time>2026-04-20T19:07:29.758Z</time><hdop>4.187</hdop><vdop>2.5</vdop><extensions><gom:speed>0.776</gom:speed></extensions></trkpt>
   <trkpt lat="59.0715559686" lon="30.0282321986"><ele>92.664</ele><time>2026-04-20T19:07:30.597Z</time><hdop>4.25</hdop><vdop>2.5</vdop><extensions><gom:speed>0.754</gom:speed></extensions></trkpt>
   <trkpt lat="59.0715586927" lon="30.0282307737"><ele>92.467</ele><time>2026-04-20T19:07:31.075Z</time><hdop>4.25</hdop><vdop>2.5</vdop><extensions><gom:speed>0.752</gom:speed></extensions></trkpt>
   <trkpt lat="59.0715636799" lon="30.0282295164"><ele>92.351</ele><time>2026-04-20T19:07:32.075Z</time><hdop>4.25</hdop><vdop>2.5</vdop><extensions><gom:speed>0.667</gom:speed></extensions></trkpt>
   <trkpt lat="59.0715681642" lon="30.0282318634"><ele>92.593</ele><time>2026-04-20T19:07:33.075Z</time><hdop>4.312</hdop><vdop>2.5</vdop><extensions><gom:speed>0.642</gom:speed></extensions></trkpt>
   <trkpt lat="59.0715727743" lon="30.0282379821"><ele>92.786</ele><time>2026-04-20T19:07:34.075Z</time><hdop>4.312</hdop><vdop>2.5</vdop><extensions><gom:speed>0.649</gom:speed></extensions></trkpt>
   <trkpt lat="59.071575666" lon="30.0282406644"><ele>92.902</ele><time>2026-04-20T19:07:34.536Z</time><hdop>4.375</hdop><vdop>2.5</vdop><extensions><gom:speed>0.709</gom:speed></extensions></trkpt>
   <trkpt lat="59.071579396" lon="30.0282461964"><ele>93.256</ele><time>2026-04-20T19:07:35.076Z</time><hdop>4.375</hdop><vdop>2.625</vdop><extensions><gom:speed>0.768</gom:speed></extensions></trkpt>
   <trkpt lat="59.0715835869" lon="30.0282498844"><ele>93.468</ele><time>2026-04-20T19:07:35.558Z</time><hdop>4.375</hdop><vdop>2.625</vdop><extensions><gom:speed>0.826</gom:speed></extensions></trkpt>
   <trkpt lat="59.071588197" lon="30.0282511417"><ele>93.595</ele><time>2026-04-20T19:07:36.058Z</time><hdop>4.437</hdop><vdop>2.625</vdop><extensions><gom:speed>0.831</gom:speed></extensions></trkpt>
   <trkpt lat="59.0715923879" lon="30.0282510579"><ele>93.474</ele><time>2026-04-20T19:07:36.758Z</time><hdop>4.5</hdop><vdop>2.812</vdop><extensions><gom:speed>0.759</gom:speed></extensions></trkpt>
   <trkpt lat="59.0715934776" lon="30.0282427598"><ele>93.507</ele><time>2026-04-20T19:07:37.913Z</time><hdop>4.562</hdop><vdop>2.937</vdop><extensions><gom:speed>0.628</gom:speed></extensions></trkpt>
   <trkpt lat="59.0715935614" lon="30.0282444362"><ele>93.348</ele><time>2026-04-20T19:07:38.522Z</time><hdop>4.562</hdop><vdop>3.062</vdop><extensions><gom:speed>0.637</gom:speed></extensions></trkpt>
   <trkpt lat="59.0715972914" lon="30.0282419216"><ele>92.947</ele><time>2026-04-20T19:07:39.075Z</time><hdop>4.625</hdop><vdop>3.375</vdop><extensions><gom:speed>0.652</gom:speed></extensions></trkpt>
   <trkpt lat="59.0716035778" lon="30.0282414187"><ele>92.251</ele><time>2026-04-20T19:07:40.075Z</time><hdop>4.687</hdop><vdop>3.375</vdop><extensions><gom:speed>0.763</gom:speed></extensions></trkpt>
   <trkpt lat="59.0716102833" lon="30.0282362219"><ele>91.836</ele><time>2026-04-20T19:07:40.854Z</time><hdop>4.687</hdop><vdop>3.375</vdop><extensions><gom:speed>0.887</gom:speed></extensions></trkpt>
   <trkpt lat="59.0716161925" lon="30.0282330368"><ele>91.422</ele><time>2026-04-20T19:07:41.535Z</time><hdop>4.687</hdop><vdop>3.375</vdop><extensions><gom:speed>0.924</gom:speed></extensions></trkpt>
   <trkpt lat="59.071620174" lon="30.0282314443"><ele>91.041</ele><time>2026-04-20T19:07:42.075Z</time><hdop>4.687</hdop><vdop>3.312</vdop><extensions><gom:speed>0.909</gom:speed></extensions></trkpt>
   <trkpt lat="59.0716277596" lon="30.0282284268"><ele>90.813</ele><time>2026-04-20T19:07:42.958Z</time><hdop>4.687</hdop><vdop>3.312</vdop><extensions><gom:speed>0.949</gom:speed></extensions></trkpt>
   <trkpt lat="59.0716343813" lon="30.0282306899"><ele>90.772</ele><time>2026-04-20T19:07:43.678Z</time><hdop>4.687</hdop><vdop>3.312</vdop><extensions><gom:speed>0.996</gom:speed></extensions></trkpt>
   <trkpt lat="59.0716420926" lon="30.0282313604"><ele>91.784</ele><time>2026-04-20T19:07:44.419Z</time><hdop>4.687</hdop><vdop>3.0</vdop><extensions><gom:speed>1.006</gom:speed></extensions></trkpt>
   <trkpt lat="59.0716509774" lon="30.0282297679"><ele>92.389</ele><time>2026-04-20T19:07:45.060Z</time><hdop>4.75</hdop><vdop>3.0</vdop><extensions><gom:speed>1.007</gom:speed></extensions></trkpt>
   <trkpt lat="59.0716579763" lon="30.0282280915"><ele>92.745</ele><time>2026-04-20T19:07:45.939Z</time><hdop>4.75</hdop><vdop>2.937</vdop><extensions><gom:speed>0.996</gom:speed></extensions></trkpt>
   <trkpt lat="59.0716649752" lon="30.0282265828"><ele>92.92</ele><time>2026-04-20T19:07:46.659Z</time><hdop>4.812</hdop><vdop>2.75</vdop><extensions><gom:speed>0.988</gom:speed></extensions></trkpt>
   <trkpt lat="59.071672477" lon="30.0282286782"><ele>93.117</ele><time>2026-04-20T19:07:47.380Z</time><hdop>4.937</hdop><vdop>2.625</vdop><extensions><gom:speed>0.968</gom:speed></extensions></trkpt>
   <trkpt lat="59.0716793921" lon="30.028232031"><ele>93.205</ele><time>2026-04-20T19:07:48.075Z</time><hdop>4.937</hdop><vdop>2.687</vdop><extensions><gom:speed>0.964</gom:speed></extensions></trkpt>
   <trkpt lat="59.0716864748" lon="30.0282368925"><ele>93.258</ele><time>2026-04-20T19:07:49.019Z</time><hdop>5.062</hdop><vdop>2.687</vdop><extensions><gom:speed>0.891</gom:speed></extensions></trkpt>
   <trkpt lat="59.0716934737" lon="30.0282429275"><ele>93.279</ele><time>2026-04-20T19:07:49.858Z</time><hdop>5.187</hdop><vdop>2.812</vdop><extensions><gom:speed>0.836</gom:speed></extensions></trkpt>
   <trkpt lat="59.0717005983" lon="30.0282482919"><ele>93.486</ele><time>2026-04-20T19:07:50.816Z</time><hdop>5.25</hdop><vdop>8.875</vdop><extensions><gom:speed>0.795</gom:speed></extensions></trkpt>
   <trkpt lat="59.0717075972" lon="30.0282488786"><ele>93.711</ele><time>2026-04-20T19:07:51.537Z</time><hdop>5.375</hdop><vdop>8.687</vdop><extensions><gom:speed>0.768</gom:speed></extensions></trkpt>
   <trkpt lat="59.0717105728" lon="30.0282483757"><ele>93.939</ele><time>2026-04-20T19:07:52.075Z</time><hdop>5.375</hdop><vdop>8.562</vdop><extensions><gom:speed>0.731</gom:speed></extensions></trkpt>
   <trkpt lat="59.071717865" lon="30.0282464479"><ele>94.075</ele><time>2026-04-20T19:07:52.998Z</time><hdop>5.5</hdop><vdop>8.562</vdop><extensions><gom:speed>0.834</gom:speed></extensions></trkpt>
   <trkpt lat="59.071725283" lon="30.0282436818"><ele>94.097</ele><time>2026-04-20T19:07:53.777Z</time><hdop>5.625</hdop><vdop>8.187</vdop><extensions><gom:speed>0.882</gom:speed></extensions></trkpt>
   <trkpt lat="59.0717326591" lon="30.0282404967"><ele>94.016</ele><time>2026-04-20T19:07:54.458Z</time><hdop>5.812</hdop><vdop>8.187</vdop><extensions><gom:speed>0.935</gom:speed></extensions></trkpt>
   <trkpt lat="59.0717369758" lon="30.0282393232"><ele>93.919</ele><time>2026-04-20T19:07:55.075Z</time><hdop>5.937</hdop><vdop>8.0</vdop><extensions><gom:speed>0.894</gom:speed></extensions></trkpt>
   <trkpt lat="59.071745693" lon="30.0282368925"><ele>93.862</ele><time>2026-04-20T19:07:56.057Z</time><hdop>6.125</hdop><vdop>8.0</vdop><extensions><gom:speed>0.951</gom:speed></extensions></trkpt>
   <trkpt lat="59.0717537815" lon="30.0282326177"><ele>93.709</ele><time>2026-04-20T19:07:56.857Z</time><hdop>6.312</hdop><vdop>7.875</vdop><extensions><gom:speed>0.978</gom:speed></extensions></trkpt>
   <trkpt lat="59.0717602775" lon="30.028225996"><ele>93.639</ele><time>2026-04-20T19:07:57.578Z</time><hdop>6.5</hdop><vdop>7.562</vdop><extensions><gom:speed>0.964</gom:speed></extensions></trkpt>
   <trkpt lat="59.071764175" lon="30.02822323"><ele>93.568</ele><time>2026-04-20T19:07:58.342Z</time><hdop>6.625</hdop><vdop>7.25</vdop><extensions><gom:speed>0.972</gom:speed></extensions></trkpt>
   <trkpt lat="59.0717702938" lon="30.0282207992"><ele>93.424</ele><time>2026-04-20T19:07:59.016Z</time><hdop>6.75</hdop><vdop>6.937</vdop><extensions><gom:speed>0.992</gom:speed></extensions></trkpt>
   <trkpt lat="59.0717776699" lon="30.0282168597"><ele>93.338</ele><time>2026-04-20T19:07:59.858Z</time><hdop>6.875</hdop><vdop>6.937</vdop><extensions><gom:speed>0.992</gom:speed></extensions></trkpt>
   <trkpt lat="59.0717786757" lon="30.0282143452"><ele>93.283</ele><time>2026-04-20T19:08:00.638Z</time><hdop>7.0</hdop><vdop>6.75</vdop><extensions><gom:speed>0.93</gom:speed></extensions></trkpt>
   <trkpt lat="59.0717837887" lon="30.0282091484"><ele>93.313</ele><time>2026-04-20T19:08:01.459Z</time><hdop>7.062</hdop><vdop>6.75</vdop><extensions><gom:speed>0.89</gom:speed></extensions></trkpt>
   <trkpt lat="59.0717881892" lon="30.0282060471"><ele>93.431</ele><time>2026-04-20T19:08:01.978Z</time><hdop>7.125</hdop><vdop>6.687</vdop><extensions><gom:speed>0.887</gom:speed></extensions></trkpt>
   <trkpt lat="59.0717963616" lon="30.0282029458"><ele>93.593</ele><time>2026-04-20T19:08:03.044Z</time><hdop>7.312</hdop><vdop>6.812</vdop><extensions><gom:speed>0.856</gom:speed></extensions></trkpt>
   <trkpt lat="59.0718063779" lon="30.0282009341"><ele>93.69</ele><time>2026-04-20T19:08:03.856Z</time><hdop>7.5</hdop><vdop>6.812</vdop><extensions><gom:speed>0.843</gom:speed></extensions></trkpt>
   <trkpt lat="59.0718016841" lon="30.0282044545"><ele>93.753</ele><time>2026-04-20T19:08:04.675Z</time><hdop>7.562</hdop><vdop>7.062</vdop><extensions><gom:speed>0.793</gom:speed></extensions></trkpt>
   <trkpt lat="59.0718054978" lon="30.0282062986"><ele>93.829</ele><time>2026-04-20T19:08:05.633Z</time><hdop>7.687</hdop><vdop>7.312</vdop><extensions><gom:speed>0.798</gom:speed></extensions></trkpt>
   <trkpt lat="59.0718111975" lon="30.0282075558"><ele>93.894</ele><time>2026-04-20T19:08:06.473Z</time><hdop>7.937</hdop><vdop>7.25</vdop><extensions><gom:speed>0.808</gom:speed></extensions></trkpt>
   <trkpt lat="59.0718154723" lon="30.0282087293"><ele>93.965</ele><time>2026-04-20T19:08:06.953Z</time><hdop>8.0</hdop><vdop>7.187</vdop><extensions><gom:speed>0.807</gom:speed></extensions></trkpt>
   <trkpt lat="59.0718229741" lon="30.0282115791"><ele>94.007</ele><time>2026-04-20T19:08:08.032Z</time><hdop>8.187</hdop><vdop>7.187</vdop><extensions><gom:speed>0.809</gom:speed></extensions></trkpt>
   <trkpt lat="59.0718295958" lon="30.0282119982"><ele>94.053</ele><time>2026-04-20T19:08:08.792Z</time><hdop>8.312</hdop><vdop>7.125</vdop><extensions><gom:speed>0.837</gom:speed></extensions></trkpt>
   <trkpt lat="59.0718331581" lon="30.0282110762"><ele>94.127</ele><time>2026-04-20T19:08:09.441Z</time><hdop>8.5</hdop><vdop>7.0</vdop><extensions><gom:speed>0.841</gom:speed></extensions></trkpt>
   <trkpt lat="59.071843384" lon="30.0282112439"><ele>94.206</ele><time>2026-04-20T19:08:10.034Z</time><hdop>8.812</hdop><vdop>6.937</vdop><extensions><gom:speed>0.848</gom:speed></extensions></trkpt>
   <trkpt lat="59.0718471978" lon="30.028212585"><ele>94.253</ele><time>2026-04-20T19:08:10.599Z</time><hdop>8.937</hdop><vdop>6.937</vdop><extensions><gom:speed>0.821</gom:speed></extensions></trkpt>
   <trkpt lat="59.0718403665" lon="30.0282121659"><ele>94.313</ele><time>2026-04-20T19:08:11.075Z</time><hdop>8.937</hdop><vdop>6.625</vdop><extensions><gom:speed>0.764</gom:speed></extensions></trkpt>
   <trkpt lat="59.0718384806" lon="30.0282134232"><ele>94.349</ele><time>2026-04-20T19:08:11.922Z</time><hdop>9.0</hdop><vdop>6.625</vdop><extensions><gom:speed>0.845</gom:speed></extensions></trkpt>
   <trkpt lat="59.071842462" lon="30.0282149319"><ele>94.384</ele><time>2026-04-20T19:08:12.741Z</time><hdop>9.062</hdop><vdop>6.875</vdop><extensions><gom:speed>0.855</gom:speed></extensions></trkpt>
   <trkpt lat="59.0718479941" lon="30.0282148481"><ele>94.412</ele><time>2026-04-20T19:08:13.503Z</time><hdop>9.062</hdop><vdop>7.062</vdop><extensions><gom:speed>0.826</gom:speed></extensions></trkpt>
   <trkpt lat="59.0718546996" lon="30.0282132555"><ele>94.459</ele><time>2026-04-20T19:08:14.381Z</time><hdop>9.062</hdop><vdop>6.687</vdop><extensions><gom:speed>0.818</gom:speed></extensions></trkpt>
   <trkpt lat="59.0718493771" lon="30.0282088969"><ele>93.178</ele><time>2026-04-20T19:08:15.076Z</time><hdop>9.0</hdop><vdop>5.25</vdop><extensions><gom:speed>0.768</gom:speed></extensions></trkpt>
   <trkpt lat="59.0718445994" lon="30.0282070529"><ele>92.412</ele><time>2026-04-20T19:08:15.601Z</time><hdop>8.812</hdop><vdop>5.25</vdop><extensions><gom:speed>0.772</gom:speed></extensions></trkpt>
   <trkpt lat="59.0718425878" lon="30.0282031972"><ele>90.994</ele><time>2026-04-20T19:08:16.075Z</time><hdop>8.625</hdop><vdop>4.812</vdop><extensions><gom:speed>0.778</gom:speed></extensions></trkpt>
   <trkpt lat="59.0718425878" lon="30.0282007665"><ele>90.146</ele><time>2026-04-20T19:08:16.740Z</time><hdop>8.562</hdop><vdop>4.812</vdop><extensions><gom:speed>0.824</gom:speed></extensions></trkpt>
   <trkpt lat="59.0718417915" lon="30.0282030296"><ele>89.37</ele><time>2026-04-20T19:08:17.598Z</time><hdop>8.312</hdop><vdop>4.187</vdop><extensions><gom:speed>0.83</gom:speed></extensions></trkpt>
   <trkpt lat="59.0718430907" lon="30.0282059633"><ele>90.434</ele><time>2026-04-20T19:08:18.075Z</time><hdop>8.062</hdop><vdop>3.812</vdop><extensions><gom:speed>0.842</gom:speed></extensions></trkpt>
   <trkpt lat="59.0718491675" lon="30.0282063824"><ele>90.852</ele><time>2026-04-20T19:08:19.076Z</time><hdop>7.625</hdop><vdop>3.75</vdop><extensions><gom:speed>0.821</gom:speed></extensions></trkpt>
   <trkpt lat="59.0718558731" lon="30.0282029458"><ele>90.99</ele><time>2026-04-20T19:08:20.076Z</time><hdop>7.0</hdop><vdop>3.687</vdop><extensions><gom:speed>0.811</gom:speed></extensions></trkpt>
   <trkpt lat="59.0718619919" lon="30.0281976652"><ele>91.072</ele><time>2026-04-20T19:08:20.955Z</time><hdop>6.625</hdop><vdop>3.687</vdop><extensions><gom:speed>0.809</gom:speed></extensions></trkpt>
   <trkpt lat="59.0718670629" lon="30.028192217"><ele>90.905</ele><time>2026-04-20T19:08:21.657Z</time><hdop>6.312</hdop><vdop>3.687</vdop><extensions><gom:speed>0.774</gom:speed></extensions></trkpt>
   <trkpt lat="59.0718749838" lon="30.0281858467"><ele>90.945</ele><time>2026-04-20T19:08:22.593Z</time><hdop>6.0</hdop><vdop>3.5</vdop><extensions><gom:speed>0.726</gom:speed></extensions></trkpt>
   <trkpt lat="59.0718786718" lon="30.02818526"><ele>91.041</ele><time>2026-04-20T19:08:23.075Z</time><hdop>5.875</hdop><vdop>3.375</vdop><extensions><gom:speed>0.727</gom:speed></extensions></trkpt>
   <trkpt lat="59.0718874728" lon="30.0281825778"><ele>91.437</ele><time>2026-04-20T19:08:24.075Z</time><hdop>5.75</hdop><vdop>3.187</vdop><extensions><gom:speed>0.701</gom:speed></extensions></trkpt>
   <trkpt lat="59.0718948908" lon="30.0281797279"><ele>91.674</ele><time>2026-04-20T19:08:24.914Z</time><hdop>5.625</hdop><vdop>3.187</vdop><extensions><gom:speed>0.735</gom:speed></extensions></trkpt>
   <trkpt lat="59.0719055778" lon="30.0281771295"><ele>92.043</ele><time>2026-04-20T19:08:26.075Z</time><hdop>5.375</hdop><vdop>2.875</vdop><extensions><gom:speed>0.599</gom:speed></extensions></trkpt>
   <trkpt lat="59.0719116965" lon="30.0281747826"><ele>92.661</ele><time>2026-04-20T19:08:27.075Z</time><hdop>5.25</hdop><vdop>2.5</vdop><extensions><gom:speed>0.461</gom:speed></extensions></trkpt>
   <trkpt lat="59.0719109841" lon="30.0281752855"><ele>93.031</ele><time>2026-04-20T19:08:27.922Z</time><hdop>5.187</hdop><vdop>2.5</vdop><extensions><gom:speed>0.324</gom:speed></extensions></trkpt>
   <trkpt lat="59.0719169771" lon="30.028170424"><ele>93.262</ele><time>2026-04-20T19:08:29.075Z</time><hdop>4.937</hdop><vdop>2.5</vdop><extensions><gom:speed>0.155</gom:speed></extensions></trkpt>
   <trkpt lat="59.0719201623" lon="30.028167658"><ele>93.216</ele><time>2026-04-20T19:08:30.075Z</time><hdop>4.75</hdop><vdop>2.5</vdop><extensions><gom:speed>0.088</gom:speed></extensions></trkpt>
   <trkpt lat="59.0719211681" lon="30.0281669874"><ele>93.188</ele><time>2026-04-20T19:08:30.700Z</time><hdop>4.687</hdop><vdop>2.5</vdop><extensions><gom:speed>0.046</gom:speed></extensions></trkpt>
   <trkpt lat="59.071925359" lon="30.0281621259"><ele>92.928</ele><time>2026-04-20T19:08:31.577Z</time><hdop>4.625</hdop><vdop>2.5</vdop><extensions><gom:speed>0.084</gom:speed></extensions></trkpt>
   <trkpt lat="59.0719286699" lon="30.0281581864"><ele>92.969</ele><time>2026-04-20T19:08:32.075Z</time><hdop>4.5</hdop><vdop>2.5</vdop><extensions><gom:speed>0.13</gom:speed></extensions></trkpt>
   <trkpt lat="59.0719297595" lon="30.0281566777"><ele>92.994</ele><time>2026-04-20T19:08:32.536Z</time><hdop>4.437</hdop><vdop>2.5</vdop><extensions><gom:speed>0.072</gom:speed></extensions></trkpt>
   <trkpt lat="59.0719332799" lon="30.028152822"><ele>93.191</ele><time>2026-04-20T19:08:33.075Z</time><hdop>4.375</hdop><vdop>2.5</vdop><extensions><gom:speed>0.151</gom:speed></extensions></trkpt>
   <trkpt lat="59.071939273" lon="30.0281460327"><ele>93.123</ele><time>2026-04-20T19:08:34.076Z</time><hdop>4.25</hdop><vdop>2.5</vdop><extensions><gom:speed>0.202</gom:speed></extensions></trkpt>
   <trkpt lat="59.071948074" lon="30.0281375669"><ele>92.715</ele><time>2026-04-20T19:08:35.076Z</time><hdop>4.25</hdop><vdop>2.562</vdop><extensions><gom:speed>0.363</gom:speed></extensions></trkpt>
   <trkpt lat="59.0719555758" lon="30.0281295203"><ele>92.471</ele><time>2026-04-20T19:08:36.019Z</time><hdop>4.25</hdop><vdop>2.562</vdop><extensions><gom:speed>0.476</gom:speed></extensions></trkpt>
   <trkpt lat="59.0719659694" lon="30.0281219766"><ele>92.408</ele><time>2026-04-20T19:08:37.018Z</time><hdop>4.25</hdop><vdop>2.562</vdop><extensions><gom:speed>0.535</gom:speed></extensions></trkpt>
   <trkpt lat="59.071975399" lon="30.0281192944"><ele>92.184</ele><time>2026-04-20T19:08:37.737Z</time><hdop>4.312</hdop><vdop>2.562</vdop><extensions><gom:speed>0.621</gom:speed></extensions></trkpt>
   <trkpt lat="59.0719851639" lon="30.0281197973"><ele>92.324</ele><time>2026-04-20T19:08:38.596Z</time><hdop>4.375</hdop><vdop>2.75</vdop><extensions><gom:speed>0.623</gom:speed></extensions></trkpt>
   <trkpt lat="59.0719901931" lon="30.0281210546"><ele>92.657</ele><time>2026-04-20T19:08:39.075Z</time><hdop>4.375</hdop><vdop>8.312</vdop><extensions><gom:speed>0.623</gom:speed></extensions></trkpt>
   <trkpt lat="59.0719990779" lon="30.0281270896"><ele>92.855</ele><time>2026-04-20T19:08:39.961Z</time><hdop>4.437</hdop><vdop>8.312</vdop><extensions><gom:speed>0.817</gom:speed></extensions></trkpt>
   <trkpt lat="59.0720097648" lon="30.0281429314"><ele>92.971</ele><time>2026-04-20T19:08:40.935Z</time><hdop>4.5</hdop><vdop>8.375</vdop><extensions><gom:speed>0.839</gom:speed></extensions></trkpt>
   <trkpt lat="59.0720154645" lon="30.0281493854"><ele>93.092</ele><time>2026-04-20T19:08:41.776Z</time><hdop>4.625</hdop><vdop>8.187</vdop><extensions><gom:speed>0.919</gom:speed></extensions></trkpt>
   <trkpt lat="59.0720240979" lon="30.0281473738"><ele>93.403</ele><time>2026-04-20T19:08:42.515Z</time><hdop>4.687</hdop><vdop>7.937</vdop><extensions><gom:speed>0.924</gom:speed></extensions></trkpt>
   <trkpt lat="59.0720285822" lon="30.0281431828"><ele>93.657</ele><time>2026-04-20T19:08:42.968Z</time><hdop>4.75</hdop><vdop>7.562</vdop><extensions><gom:speed>0.93</gom:speed></extensions></trkpt>
   <trkpt lat="59.0720361678" lon="30.0281341304"><ele>93.904</ele><time>2026-04-20T19:08:44.075Z</time><hdop>4.875</hdop><vdop>7.375</vdop><extensions><gom:speed>0.832</gom:speed></extensions></trkpt>
   <trkpt lat="59.0720417837" lon="30.028129185"><ele>93.939</ele><time>2026-04-20T19:08:44.982Z</time><hdop>5.0</hdop><vdop>7.0</vdop><extensions><gom:speed>0.76</gom:speed></extensions></trkpt>
   <trkpt lat="59.0720458908" lon="30.0281265867"><ele>93.96</ele><time>2026-04-20T19:08:45.713Z</time><hdop>5.062</hdop><vdop>7.0</vdop><extensions><gom:speed>0.682</gom:speed></extensions></trkpt>
   <trkpt lat="59.0720486988" lon="30.0281235692"><ele>93.928</ele><time>2026-04-20T19:08:46.522Z</time><hdop>5.187</hdop><vdop>7.0</vdop><extensions><gom:speed>0.661</gom:speed></extensions></trkpt>
   <trkpt lat="59.0720538955" lon="30.0281163607"><ele>93.845</ele><time>2026-04-20T19:08:46.995Z</time><hdop>5.312</hdop><vdop>6.687</vdop><extensions><gom:speed>0.662</gom:speed></extensions></trkpt>
   <trkpt lat="59.0720564939" lon="30.028110661"><ele>93.796</ele><time>2026-04-20T19:08:47.916Z</time><hdop>5.437</hdop><vdop>6.687</vdop><extensions><gom:speed>0.583</gom:speed></extensions></trkpt>
   <trkpt lat="59.0720587989" lon="30.0281036202"><ele>93.74</ele><time>2026-04-20T19:08:48.775Z</time><hdop>5.562</hdop><vdop>6.437</vdop><extensions><gom:speed>0.613</gom:speed></extensions></trkpt>
   <trkpt lat="59.0720618583" lon="30.028096328"><ele>93.685</ele><time>2026-04-20T19:08:49.557Z</time><hdop>5.812</hdop><vdop>6.5</vdop><extensions><gom:speed>0.623</gom:speed></extensions></trkpt>
   <trkpt lat="59.0720627803" lon="30.0281007704"><ele>93.704</ele><time>2026-04-20T19:08:50.076Z</time><hdop>5.812</hdop><vdop>6.5</vdop><extensions><gom:speed>0.594</gom:speed></extensions></trkpt>
   <trkpt lat="59.0720666779" lon="30.0280964956"><ele>93.713</ele><time>2026-04-20T19:08:51.023Z</time><hdop>6.0</hdop><vdop>6.25</vdop><extensions><gom:speed>0.674</gom:speed></extensions></trkpt>
   <trkpt lat="59.072071288" lon="30.0280888681"><ele>93.781</ele><time>2026-04-20T19:08:51.970Z</time><hdop>6.187</hdop><vdop>6.187</vdop><extensions><gom:speed>0.698</gom:speed></extensions></trkpt>
   <trkpt lat="59.0720729644" lon="30.0280868564"><ele>93.822</ele><time>2026-04-20T19:08:52.681Z</time><hdop>6.312</hdop><vdop>6.187</vdop><extensions><gom:speed>0.75</gom:speed></extensions></trkpt>
   <trkpt lat="59.0720852858" lon="30.0280738645"><ele>93.891</ele><time>2026-04-20T19:08:53.840Z</time><hdop>6.562</hdop><vdop>6.062</vdop><extensions><gom:speed>0.798</gom:speed></extensions></trkpt>
   <trkpt lat="59.0720908597" lon="30.0280696735"><ele>93.987</ele><time>2026-04-20T19:08:54.658Z</time><hdop>6.75</hdop><vdop>5.937</vdop><extensions><gom:speed>0.774</gom:speed></extensions></trkpt>
   <trkpt lat="59.0720995769" lon="30.0280615431"><ele>94.052</ele><time>2026-04-20T19:08:55.998Z</time><hdop>7.0</hdop><vdop>5.625</vdop><extensions><gom:speed>0.72</gom:speed></extensions></trkpt>
   <trkpt lat="59.0721056957" lon="30.028057855"><ele>94.091</ele><time>2026-04-20T19:08:57.058Z</time><hdop>7.125</hdop><vdop>5.625</vdop><extensions><gom:speed>0.669</gom:speed></extensions></trkpt>
   <trkpt lat="59.0721048994" lon="30.0280742836"><ele>94.177</ele><time>2026-04-20T19:08:58.075Z</time><hdop>7.25</hdop><vdop>5.812</vdop><extensions><gom:speed>0.455</gom:speed></extensions></trkpt>
   <trkpt lat="59.0721030973" lon="30.0280802347"><ele>94.228</ele><time>2026-04-20T19:08:58.841Z</time><hdop>7.125</hdop><vdop>5.812</vdop><extensions><gom:speed>0.42</gom:speed></extensions></trkpt>
   <trkpt lat="59.0721053604" lon="30.0280818273"><ele>94.324</ele><time>2026-04-20T19:08:59.475Z</time><hdop>7.062</hdop><vdop>5.625</vdop><extensions><gom:speed>0.357</gom:speed></extensions></trkpt>
   <trkpt lat="59.0721066596" lon="30.0280811567"><ele>94.391</ele><time>2026-04-20T19:09:00.026Z</time><hdop>7.0</hdop><vdop>5.5</vdop><extensions><gom:speed>0.363</gom:speed></extensions></trkpt>
   <trkpt lat="59.0721089646" lon="30.0280781393"><ele>94.474</ele><time>2026-04-20T19:09:00.974Z</time><hdop>7.0</hdop><vdop>5.375</vdop><extensions><gom:speed>0.361</gom:speed></extensions></trkpt>
   <trkpt lat="59.072108797" lon="30.0280846771"><ele>93.418</ele><time>2026-04-20T19:09:02.075Z</time><hdop>6.812</hdop><vdop>4.625</vdop><extensions><gom:speed>0.457</gom:speed></extensions></trkpt>
   <trkpt lat="59.0721116888" lon="30.0280849286"><ele>92.786</ele><time>2026-04-20T19:09:03.041Z</time><hdop>6.812</hdop><vdop>4.625</vdop><extensions><gom:speed>0.538</gom:speed></extensions></trkpt>
   <trkpt lat="59.0721123593" lon="30.0280855991"><ele>92.906</ele><time>2026-04-20T19:09:03.977Z</time><hdop>6.75</hdop><vdop>3.812</vdop><extensions><gom:speed>0.64</gom:speed></extensions></trkpt>
   <trkpt lat="59.0721110601" lon="30.0280825817"><ele>93.868</ele><time>2026-04-20T19:09:04.876Z</time><hdop>6.562</hdop><vdop>3.687</vdop><extensions><gom:speed>0.694</gom:speed></extensions></trkpt>
   <trkpt lat="59.0721093837" lon="30.0280769658"><ele>94.756</ele><time>2026-04-20T19:09:05.892Z</time><hdop>6.25</hdop><vdop>3.125</vdop><extensions><gom:speed>0.658</gom:speed></extensions></trkpt>
   <trkpt lat="59.0721096771" lon="30.0280733616"><ele>95.629</ele><time>2026-04-20T19:09:06.673Z</time><hdop>5.937</hdop><vdop>3.125</vdop><extensions><gom:speed>0.545</gom:speed></extensions></trkpt>
   <trkpt lat="59.0721134909" lon="30.0280667399"><ele>96.481</ele><time>2026-04-20T19:09:07.522Z</time><hdop>5.687</hdop><vdop>3.062</vdop><extensions><gom:speed>0.535</gom:speed></extensions></trkpt>
   <trkpt lat="59.0721178914" lon="30.0280598667"><ele>96.889</ele><time>2026-04-20T19:09:08.075Z</time><hdop>5.5</hdop><vdop>2.937</vdop><extensions><gom:speed>0.586</gom:speed></extensions></trkpt>
   <trkpt lat="59.072125477" lon="30.0280502275"><ele>97.203</ele><time>2026-04-20T19:09:09.075Z</time><hdop>5.25</hdop><vdop>3.062</vdop><extensions><gom:speed>0.556</gom:speed></extensions></trkpt>
   <trkpt lat="59.0721349904" lon="30.0280485511"><ele>97.627</ele><time>2026-04-20T19:09:10.076Z</time><hdop>5.125</hdop><vdop>5.812</vdop><extensions><gom:speed>0.642</gom:speed></extensions></trkpt>
   <trkpt lat="59.0721414864" lon="30.0280566816"><ele>97.762</ele><time>2026-04-20T19:09:11.044Z</time><hdop>5.0</hdop><vdop>5.812</vdop><extensions><gom:speed>0.804</gom:speed></extensions></trkpt>
   <trkpt lat="59.0721464737" lon="30.0280652311"><ele>97.732</ele><time>2026-04-20T19:09:11.991Z</time><hdop>5.0</hdop><vdop>5.812</vdop><extensions><gom:speed>0.628</gom:speed></extensions></trkpt>
   <trkpt lat="59.0721456774" lon="30.0280593638"><ele>97.763</ele><time>2026-04-20T19:09:13.075Z</time><hdop>5.0</hdop><vdop>5.937</vdop><extensions><gom:speed>0.341</gom:speed></extensions></trkpt>
   <trkpt lat="59.0721445877" lon="30.0280545861"><ele>97.782</ele><time>2026-04-20T19:09:13.820Z</time><hdop>5.062</hdop><vdop>5.937</vdop><extensions><gom:speed>0.292</gom:speed></extensions></trkpt>
   <trkpt lat="59.0721452583" lon="30.0280487188"><ele>97.619</ele><time>2026-04-20T19:09:14.818Z</time><hdop>5.187</hdop><vdop>6.062</vdop><extensions><gom:speed>0.332</gom:speed></extensions></trkpt>
   <trkpt lat="59.0721494911" lon="30.0280422647"><ele>97.329</ele><time>2026-04-20T19:09:15.716Z</time><hdop>5.5</hdop><vdop>5.937</vdop><extensions><gom:speed>0.442</gom:speed></extensions></trkpt>
   <trkpt lat="59.0721579988" lon="30.028033799"><ele>97.107</ele><time>2026-04-20T19:09:16.574Z</time><hdop>5.812</hdop><vdop>6.0</vdop><extensions><gom:speed>0.606</gom:speed></extensions></trkpt>
   <trkpt lat="59.0721631955" lon="30.0280278478"><ele>96.987</ele><time>2026-04-20T19:09:17.075Z</time><hdop>5.812</hdop><vdop>5.937</vdop><extensions><gom:speed>0.605</gom:speed></extensions></trkpt>
   <trkpt lat="59.0721723737" lon="30.0280176219"><ele>96.904</ele><time>2026-04-20T19:09:18.033Z</time><hdop>5.875</hdop><vdop>6.062</vdop><extensions><gom:speed>0.691</gom:speed></extensions></trkpt>
   <trkpt lat="59.0721789954" lon="30.028014353"><ele>96.982</ele><time>2026-04-20T19:09:18.981Z</time><hdop>6.125</hdop><vdop>6.125</vdop><extensions><gom:speed>0.656</gom:speed></extensions></trkpt>
   <trkpt lat="59.0721874612" lon="30.0280109164"><ele>97.029</ele><time>2026-04-20T19:09:19.962Z</time><hdop>6.312</hdop><vdop>6.125</vdop><extensions><gom:speed>0.783</gom:speed></extensions></trkpt>
   <trkpt lat="59.072193999" lon="30.0280072283"><ele>97.029</ele><time>2026-04-20T19:09:20.839Z</time><hdop>6.312</hdop><vdop>5.937</vdop><extensions><gom:speed>0.832</gom:speed></extensions></trkpt>
   <trkpt lat="59.0722007884" lon="30.0280057196"><ele>97.169</ele><time>2026-04-20T19:09:21.579Z</time><hdop>6.25</hdop><vdop>6.0</vdop><extensions><gom:speed>0.855</gom:speed></extensions></trkpt>
   <trkpt lat="59.0722035963" lon="30.0280054681"><ele>97.6</ele><time>2026-04-20T19:09:22.075Z</time><hdop>6.25</hdop><vdop>4.75</vdop><extensions><gom:speed>0.858</gom:speed></extensions></trkpt>
   <trkpt lat="59.0722112658" lon="30.0280098267"><ele>98.354</ele><time>2026-04-20T19:09:23.075Z</time><hdop>6.187</hdop><vdop>4.062</vdop><extensions><gom:speed>0.858</gom:speed></extensions></trkpt>
   <trkpt lat="59.0722141994" lon="30.0280123413"><ele>98.804</ele><time>2026-04-20T19:09:23.601Z</time><hdop>6.125</hdop><vdop>4.062</vdop><extensions><gom:speed>0.868</gom:speed></extensions></trkpt>
   <trkpt lat="59.0722219946" lon="30.0280188792"><ele>99.073</ele><time>2026-04-20T19:09:24.078Z</time><hdop>6.062</hdop><vdop>4.062</vdop><extensions><gom:speed>0.885</gom:speed></extensions></trkpt>
   <trkpt lat="59.0722280715" lon="30.0280265905"><ele>99.625</ele><time>2026-04-20T19:09:24.938Z</time><hdop>6.0</hdop><vdop>3.875</vdop><extensions><gom:speed>0.882</gom:speed></extensions></trkpt>
   <trkpt lat="59.0722341903" lon="30.0280354754"><ele>99.908</ele><time>2026-04-20T19:09:25.562Z</time><hdop>5.812</hdop><vdop>3.687</vdop><extensions><gom:speed>0.893</gom:speed></extensions></trkpt>
   <trkpt lat="59.0722402671" lon="30.0280433544"><ele>100.513</ele><time>2026-04-20T19:09:26.075Z</time><hdop>5.75</hdop><vdop>3.312</vdop><extensions><gom:speed>0.918</gom:speed></extensions></trkpt>
   <trkpt lat="59.0722521695" lon="30.0280529935"><ele>99.933</ele><time>2026-04-20T19:09:27.076Z</time><hdop>5.625</hdop><vdop>3.125</vdop><extensions><gom:speed>0.893</gom:speed></extensions></trkpt>
   <trkpt lat="59.0722633593" lon="30.0280565978"><ele>99.414</ele><time>2026-04-20T19:09:28.076Z</time><hdop>5.5</hdop><vdop>2.875</vdop><extensions><gom:speed>0.872</gom:speed></extensions></trkpt>
   <trkpt lat="59.0722712802" lon="30.0280600343"><ele>99.103</ele><time>2026-04-20T19:09:28.954Z</time><hdop>5.437</hdop><vdop>2.875</vdop><extensions><gom:speed>0.855</gom:speed></extensions></trkpt>
   <trkpt lat="59.0722804584" lon="30.0280649797"><ele>99.578</ele><time>2026-04-20T19:09:29.796Z</time><hdop>5.375</hdop><vdop>2.875</vdop><extensions><gom:speed>0.816</gom:speed></extensions></trkpt>
   <trkpt lat="59.0722896785" lon="30.0280695897"><ele>100.028</ele><time>2026-04-20T19:09:30.682Z</time><hdop>5.25</hdop><vdop>2.75</vdop><extensions><gom:speed>0.76</gom:speed></extensions></trkpt>
   <trkpt lat="59.0722994853" lon="30.0280766305"><ele>100.383</ele><time>2026-04-20T19:09:32.056Z</time><hdop>5.125</hdop><vdop>2.875</vdop><extensions><gom:speed>0.621</gom:speed></extensions></trkpt>
   <trkpt lat="59.0723083701" lon="30.0280800671"><ele>100.787</ele><time>2026-04-20T19:09:33.075Z</time><hdop>5.062</hdop><vdop>2.75</vdop><extensions><gom:speed>0.545</gom:speed></extensions></trkpt>
   <trkpt lat="59.0723133993" lon="30.028081492"><ele>101.029</ele><time>2026-04-20T19:09:33.802Z</time><hdop>5.0</hdop><vdop>2.75</vdop><extensions><gom:speed>0.536</gom:speed></extensions></trkpt>
   <trkpt lat="59.0723196857" lon="30.0280824978"><ele>101.109</ele><time>2026-04-20T19:09:34.474Z</time><hdop>4.937</hdop><vdop>2.687</vdop><extensions><gom:speed>0.516</gom:speed></extensions></trkpt>
   <trkpt lat="59.07232417" lon="30.02808057"><ele>100.759</ele><time>2026-04-20T19:09:35.075Z</time><hdop>4.875</hdop><vdop>5.25</vdop><extensions><gom:speed>0.512</gom:speed></extensions></trkpt>
   <trkpt lat="59.072325092" lon="30.0280775525"><ele>100.55</ele><time>2026-04-20T19:09:35.921Z</time><hdop>4.812</hdop><vdop>5.25</vdop><extensions><gom:speed>0.415</gom:speed></extensions></trkpt>
   <trkpt lat="59.0723252596" lon="30.028069925"><ele>99.787</ele><time>2026-04-20T19:09:36.987Z</time><hdop>4.687</hdop><vdop>4.625</vdop><extensions><gom:speed>0.363</gom:speed></extensions></trkpt>
   <trkpt lat="59.0723239605" lon="30.0280662369"><ele>99.227</ele><time>2026-04-20T19:09:38.054Z</time><hdop>4.687</hdop><vdop>4.5</vdop><extensions><gom:speed>0.318</gom:speed></extensions></trkpt>
   <trkpt lat="59.0723276904" lon="30.0280643929"><ele>98.891</ele><time>2026-04-20T19:09:39.076Z</time><hdop>4.625</hdop><vdop>4.5</vdop><extensions><gom:speed>0.293</gom:speed></extensions></trkpt>
   <trkpt lat="59.0723300792" lon="30.0280649797"><ele>98.575</ele><time>2026-04-20T19:09:39.950Z</time><hdop>4.562</hdop><vdop>4.562</vdop><extensions><gom:speed>0.21</gom:speed></extensions></trkpt>
   <trkpt lat="59.072330666" lon="30.0280658179"><ele>98.386</ele><time>2026-04-20T19:09:40.576Z</time><hdop>4.562</hdop><vdop>4.562</vdop><extensions><gom:speed>0.169</gom:speed></extensions></trkpt>
   <trkpt lat="59.0723318814" lon="30.0280658179"><ele>98.23</ele><time>2026-04-20T19:09:41.452Z</time><hdop>4.687</hdop><vdop>4.5</vdop><extensions><gom:speed>0.196</gom:speed></extensions></trkpt>
   <trkpt lat="59.0723328872" lon="30.0280659855"><ele>98.133</ele><time>2026-04-20T19:09:41.964Z</time><hdop>4.687</hdop><vdop>4.625</vdop><extensions><gom:speed>0.219</gom:speed></extensions></trkpt>
   <trkpt lat="59.0723344797" lon="30.0280664884"><ele>98.076</ele><time>2026-04-20T19:09:42.519Z</time><hdop>4.812</hdop><vdop>4.625</vdop><extensions><gom:speed>0.211</gom:speed></extensions></trkpt>
   <trkpt lat="59.0723372877" lon="30.0280675781"><ele>98.048</ele><time>2026-04-20T19:09:43.075Z</time><hdop>4.75</hdop><vdop>4.812</vdop><extensions><gom:speed>0.22</gom:speed></extensions></trkpt>
   <trkpt lat="59.072339467" lon="30.0280678295"><ele>98.032</ele><time>2026-04-20T19:09:43.657Z</time><hdop>4.812</hdop><vdop>4.812</vdop><extensions><gom:speed>0.254</gom:speed></extensions></trkpt>
   <trkpt lat="59.0723419815" lon="30.0280674942"><ele>98.04</ele><time>2026-04-20T19:09:44.532Z</time><hdop>4.812</hdop><vdop>5.0</vdop><extensions><gom:speed>0.25</gom:speed></extensions></trkpt>
   <trkpt lat="59.0723433646" lon="30.0280669913"><ele>98.1</ele><time>2026-04-20T19:09:45.043Z</time><hdop>4.875</hdop><vdop>5.062</vdop><extensions><gom:speed>0.274</gom:speed></extensions></trkpt>
   <trkpt lat="59.072346382" lon="30.0280659855"><ele>98.09</ele><time>2026-04-20T19:09:45.991Z</time><hdop>4.937</hdop><vdop>5.187</vdop><extensions><gom:speed>0.314</gom:speed></extensions></trkpt>
   <trkpt lat="59.0723476812" lon="30.0280656502"><ele>98.084</ele><time>2026-04-20T19:09:46.458Z</time><hdop>5.0</hdop><vdop>5.187</vdop><extensions><gom:speed>0.32</gom:speed></extensions></trkpt>
   <trkpt lat="59.0723507825" lon="30.0280660693"><ele>98.13</ele><time>2026-04-20T19:09:47.076Z</time><hdop>5.0</hdop><vdop>5.375</vdop><extensions><gom:speed>0.313</gom:speed></extensions></trkpt>
   <trkpt lat="59.0723567756" lon="30.0280645606"><ele>98.157</ele><time>2026-04-20T19:09:48.041Z</time><hdop>5.062</hdop><vdop>5.375</vdop><extensions><gom:speed>0.461</gom:speed></extensions></trkpt>
   <trkpt lat="59.0723677978" lon="30.0280587771"><ele>98.227</ele><time>2026-04-20T19:09:48.837Z</time><hdop>5.25</hdop><vdop>5.437</vdop><extensions><gom:speed>0.711</gom:speed></extensions></trkpt>
   <trkpt lat="59.072375593" lon="30.0280536641"><ele>98.288</ele><time>2026-04-20T19:09:49.735Z</time><hdop>5.5</hdop><vdop>5.312</vdop><extensions><gom:speed>0.818</gom:speed></extensions></trkpt>
   <trkpt lat="59.0723822985" lon="30.0280483835"><ele>98.31</ele><time>2026-04-20T19:09:50.496Z</time><hdop>5.812</hdop><vdop>5.25</vdop><extensions><gom:speed>0.792</gom:speed></extensions></trkpt>
   <trkpt lat="59.0723853998" lon="30.0280423485"><ele>98.345</ele><time>2026-04-20T19:09:50.967Z</time><hdop>5.875</hdop><vdop>5.0</vdop><extensions><gom:speed>0.77</gom:speed></extensions></trkpt>
   <trkpt lat="59.0723845616" lon="30.0280306977"><ele>98.369</ele><time>2026-04-20T19:09:52.033Z</time><hdop>6.062</hdop><vdop>4.812</vdop><extensions><gom:speed>0.666</gom:speed></extensions></trkpt>
   <trkpt lat="59.0723828852" lon="30.0280236569"><ele>98.384</ele><time>2026-04-20T19:09:53.052Z</time><hdop>6.562</hdop><vdop>4.812</vdop><extensions><gom:speed>0.568</gom:speed></extensions></trkpt>
   <trkpt lat="59.0723853998" lon="30.0280145206"><ele>98.395</ele><time>2026-04-20T19:09:53.902Z</time><hdop>6.75</hdop><vdop>4.812</vdop><extensions><gom:speed>0.593</gom:speed></extensions></trkpt>
   <trkpt lat="59.0723861961" lon="30.0280105811"><ele>98.397</ele><time>2026-04-20T19:09:54.403Z</time><hdop>6.812</hdop><vdop>4.875</vdop><extensions><gom:speed>0.616</gom:speed></extensions></trkpt>
   <trkpt lat="59.0723892974" lon="30.0279988464"><ele>98.393</ele><time>2026-04-20T19:09:54.994Z</time><hdop>7.062</hdop><vdop>5.062</vdop><extensions><gom:speed>0.639</gom:speed></extensions></trkpt>
   <trkpt lat="59.0723947875" lon="30.0279887882"><ele>98.396</ele><time>2026-04-20T19:09:55.943Z</time><hdop>7.312</hdop><vdop>5.187</vdop><extensions><gom:speed>0.758</gom:speed></extensions></trkpt>
   <trkpt lat="59.0724011997" lon="30.0279795681"><ele>98.398</ele><time>2026-04-20T19:09:56.852Z</time><hdop>7.5</hdop><vdop>5.187</vdop><extensions><gom:speed>0.865</gom:speed></extensions></trkpt>
   <trkpt lat="59.0724083662" lon="30.0279716891"><ele>98.397</ele><time>2026-04-20T19:09:57.556Z</time><hdop>7.687</hdop><vdop>5.187</vdop><extensions><gom:speed>0.929</gom:speed></extensions></trkpt>
   <trkpt lat="59.0724166643" lon="30.0279654865"><ele>98.409</ele><time>2026-04-20T19:09:58.393Z</time><hdop>7.875</hdop><vdop>5.312</vdop><extensions><gom:speed>0.942</gom:speed></extensions></trkpt>
   <trkpt lat="59.0724231603" lon="30.0279627204"><ele>98.417</ele><time>2026-04-20T19:09:59.022Z</time><hdop>8.0</hdop><vdop>5.375</vdop><extensions><gom:speed>0.928</gom:speed></extensions></trkpt>
   <trkpt lat="59.0724317936" lon="30.0279581942"><ele>98.426</ele><time>2026-04-20T19:09:59.970Z</time><hdop>8.25</hdop><vdop>5.562</vdop><extensions><gom:speed>0.888</gom:speed></extensions></trkpt>
   <trkpt lat="59.0724327995" lon="30.0279571884"><ele>98.432</ele><time>2026-04-20T19:10:00.562Z</time><hdop>8.437</hdop><vdop>5.562</vdop><extensions><gom:speed>0.838</gom:speed></extensions></trkpt>
   <trkpt lat="59.0724411814" lon="30.0279533327"><ele>98.436</ele><time>2026-04-20T19:10:01.036Z</time><hdop>8.562</hdop><vdop>5.687</vdop><extensions><gom:speed>0.769</gom:speed></extensions></trkpt>
   <trkpt lat="59.072432087" lon="30.0279644806"><ele>98.445</ele><time>2026-04-20T19:10:02.075Z</time><hdop>8.687</hdop><vdop>5.75</vdop><extensions><gom:speed>0.606</gom:speed></extensions></trkpt>
   <trkpt lat="59.0724272674" lon="30.0279704318"><ele>98.468</ele><time>2026-04-20T19:10:03.051Z</time><hdop>8.687</hdop><vdop>5.687</vdop><extensions><gom:speed>0.57</gom:speed></extensions></trkpt>
   <trkpt lat="59.0724285666" lon="30.0279722758"><ele>98.481</ele><time>2026-04-20T19:10:03.998Z</time><hdop>8.687</hdop><vdop>5.625</vdop><extensions><gom:speed>0.542</gom:speed></extensions></trkpt>
   <trkpt lat="59.0724293629" lon="30.0279724435"><ele>98.488</ele><time>2026-04-20T19:10:04.454Z</time><hdop>8.687</hdop><vdop>5.625</vdop><extensions><gom:speed>0.534</gom:speed></extensions></trkpt>
   <trkpt lat="59.0724310812" lon="30.02797127"><ele>98.493</ele><time>2026-04-20T19:10:04.939Z</time><hdop>8.625</hdop><vdop>5.625</vdop><extensions><gom:speed>0.54</gom:speed></extensions></trkpt>
   <trkpt lat="59.0724342663" lon="30.0279664923"><ele>98.511</ele><time>2026-04-20T19:10:05.719Z</time><hdop>8.562</hdop><vdop>5.5</vdop><extensions><gom:speed>0.605</gom:speed></extensions></trkpt>
   <trkpt lat="59.0724391697" lon="30.0279586971"><ele>98.531</ele><time>2026-04-20T19:10:06.637Z</time><hdop>8.5</hdop><vdop>5.437</vdop><extensions><gom:speed>0.627</gom:speed></extensions></trkpt>
   <trkpt lat="59.0724470906" lon="30.0279534165"><ele>98.552</ele><time>2026-04-20T19:10:07.673Z</time><hdop>8.75</hdop><vdop>5.062</vdop><extensions><gom:speed>0.612</gom:speed></extensions></trkpt>
   <trkpt lat="59.0724516587" lon="30.027953668"><ele>98.568</ele><time>2026-04-20T19:10:08.600Z</time><hdop>8.937</hdop><vdop>5.125</vdop><extensions><gom:speed>0.631</gom:speed></extensions></trkpt>
   <trkpt lat="59.0724420615" lon="30.0279706833"><ele>97.528</ele><time>2026-04-20T19:10:09.076Z</time><hdop>8.875</hdop><vdop>4.437</vdop><extensions><gom:speed>0.585</gom:speed></extensions></trkpt>
   <trkpt lat="59.0724324642" lon="30.0279914704"><ele>96.792</ele><time>2026-04-20T19:10:10.075Z</time><hdop>8.687</hdop><vdop>4.25</vdop><extensions><gom:speed>0.487</gom:speed></extensions></trkpt>
   <trkpt lat="59.0724291952" lon="30.0279990979"><ele>95.669</ele><time>2026-04-20T19:10:11.075Z</time><hdop>8.187</hdop><vdop>4.437</vdop><extensions><gom:speed>0.402</gom:speed></extensions></trkpt>
   <trkpt lat="59.0724310812" lon="30.0279983435"><ele>94.997</ele><time>2026-04-20T19:10:11.937Z</time><hdop>7.687</hdop><vdop>4.437</vdop><extensions><gom:speed>0.472</gom:speed></extensions></trkpt>
   <trkpt lat="59.072435775" lon="30.0279957451"><ele>94.232</ele><time>2026-04-20T19:10:12.697Z</time><hdop>7.0</hdop><vdop>4.437</vdop><extensions><gom:speed>0.544</gom:speed></extensions></trkpt>
   <trkpt lat="59.0724433607" lon="30.0279930629"><ele>93.807</ele><time>2026-04-20T19:10:13.360Z</time><hdop>6.5</hdop><vdop>4.437</vdop><extensions><gom:speed>0.589</gom:speed></extensions></trkpt>
   <trkpt lat="59.072451072" lon="30.0279898778"><ele>93.76</ele><time>2026-04-20T19:10:14.075Z</time><hdop>6.187</hdop><vdop>4.312</vdop><extensions><gom:speed>0.673</gom:speed></extensions></trkpt>
   <trkpt lat="59.0724564783" lon="30.0279843458"><ele>93.732</ele><time>2026-04-20T19:10:14.978Z</time><hdop>5.875</hdop><vdop>4.312</vdop><extensions><gom:speed>0.59</gom:speed></extensions></trkpt>
   <trkpt lat="59.072463561" lon="30.0279777241"><ele>94.392</ele><time>2026-04-20T19:10:15.648Z</time><hdop>5.687</hdop><vdop>4.187</vdop><extensions><gom:speed>0.576</gom:speed></extensions></trkpt>
   <trkpt lat="59.0724729907" lon="30.0279733655"><ele>95.04</ele><time>2026-04-20T19:10:16.281Z</time><hdop>5.687</hdop><vdop>4.312</vdop><extensions><gom:speed>0.586</gom:speed></extensions></trkpt>
   <trkpt lat="59.0724795705" lon="30.0279693421"><ele>95.428</ele><time>2026-04-20T19:10:17.023Z</time><hdop>5.625</hdop><vdop>4.312</vdop><extensions><gom:speed>0.677</gom:speed></extensions></trkpt>
   <trkpt lat="59.0724924786" lon="30.0279627204"><ele>95.581</ele><time>2026-04-20T19:10:17.773Z</time><hdop>5.625</hdop><vdop>4.25</vdop><extensions><gom:speed>0.771</gom:speed></extensions></trkpt>
   <trkpt lat="59.0725067698" lon="30.0279525783"><ele>95.904</ele><time>2026-04-20T19:10:18.582Z</time><hdop>5.562</hdop><vdop>3.937</vdop><extensions><gom:speed>0.806</gom:speed></extensions></trkpt>
   <trkpt lat="59.0725158641" lon="30.0279445317"><ele>96.001</ele><time>2026-04-20T19:10:19.075Z</time><hdop>5.5</hdop><vdop>3.687</vdop><extensions><gom:speed>0.814</gom:speed></extensions></trkpt>
   <trkpt lat="59.0725298619" lon="30.0279280194"><ele>95.981</ele><time>2026-04-20T19:10:20.076Z</time><hdop>5.312</hdop><vdop>3.5</vdop><extensions><gom:speed>0.84</gom:speed></extensions></trkpt>
   <trkpt lat="59.0725362741" lon="30.0279194698"><ele>95.969</ele><time>2026-04-20T19:10:20.793Z</time><hdop>5.187</hdop><vdop>3.5</vdop><extensions><gom:speed>0.914</gom:speed></extensions></trkpt>
   <trkpt lat="59.0725470867" lon="30.0279098306"><ele>96.139</ele><time>2026-04-20T19:10:21.533Z</time><hdop>5.0</hdop><vdop>3.562</vdop><extensions><gom:speed>0.96</gom:speed></extensions></trkpt>
   <trkpt lat="59.0725555943" lon="30.0279033766"><ele>96.334</ele><time>2026-04-20T19:10:22.075Z</time><hdop>4.875</hdop><vdop>3.625</vdop><extensions><gom:speed>1.007</gom:speed></extensions></trkpt>
   <trkpt lat="59.0725667842" lon="30.0278954976"><ele>96.451</ele><time>2026-04-20T19:10:22.975Z</time><hdop>4.687</hdop><vdop>3.625</vdop><extensions><gom:speed>1.028</gom:speed></extensions></trkpt>
   <trkpt lat="59.0725774711" lon="30.0278906361"><ele>96.518</ele><time>2026-04-20T19:10:23.656Z</time><hdop>4.562</hdop><vdop>3.687</vdop><extensions><gom:speed>1.04</gom:speed></extensions></trkpt>
   <trkpt lat="59.0725892896" lon="30.0278870319"><ele>96.156</ele><time>2026-04-20T19:10:24.401Z</time><hdop>4.437</hdop><vdop>3.437</vdop><extensions><gom:speed>0.981</gom:speed></extensions></trkpt>
   <trkpt lat="59.0725989707" lon="30.0278847687"><ele>95.932</ele><time>2026-04-20T19:10:25.075Z</time><hdop>4.5</hdop><vdop>3.25</vdop><extensions><gom:speed>0.979</gom:speed></extensions></trkpt>
   <trkpt lat="59.0726110825" lon="30.0278808292"><ele>95.798</ele><time>2026-04-20T19:10:25.936Z</time><hdop>4.5</hdop><vdop>3.25</vdop><extensions><gom:speed>0.99</gom:speed></extensions></trkpt>
   <trkpt lat="59.0726206798" lon="30.0278773927"><ele>96.18</ele><time>2026-04-20T19:10:26.677Z</time><hdop>4.562</hdop><vdop>3.062</vdop><extensions><gom:speed>1.026</gom:speed></extensions></trkpt>
   <trkpt lat="59.0726319954" lon="30.0278751296"><ele>96.888</ele><time>2026-04-20T19:10:27.377Z</time><hdop>4.562</hdop><vdop>3.0</vdop><extensions><gom:speed>1.038</gom:speed></extensions></trkpt>
   <trkpt lat="59.0726424728" lon="30.0278754648"><ele>97.428</ele><time>2026-04-20T19:10:28.075Z</time><hdop>4.625</hdop><vdop>2.812</vdop><extensions><gom:speed>1.013</gom:speed></extensions></trkpt>
   <trkpt lat="59.0726524891" lon="30.0278788176"><ele>97.751</ele><time>2026-04-20T19:10:29.017Z</time><hdop>4.687</hdop><vdop>2.812</vdop><extensions><gom:speed>0.973</gom:speed></extensions></trkpt>
   <trkpt lat="59.0726646848" lon="30.0278824218"><ele>97.968</ele><time>2026-04-20T19:10:29.837Z</time><hdop>4.687</hdop><vdop>2.875</vdop><extensions><gom:speed>0.95</gom:speed></extensions></trkpt>
   <trkpt lat="59.0726777606" lon="30.0278842658"><ele>98.312</ele><time>2026-04-20T19:10:30.755Z</time><hdop>4.75</hdop><vdop>2.75</vdop><extensions><gom:speed>0.89</gom:speed></extensions></trkpt>
   <trkpt lat="59.0726853881" lon="30.0278847687"><ele>98.707</ele><time>2026-04-20T19:10:31.601Z</time><hdop>4.687</hdop><vdop>2.625</vdop><extensions><gom:speed>0.835</gom:speed></extensions></trkpt>
   <trkpt lat="59.0726952788" lon="30.0278879539"><ele>99.133</ele><time>2026-04-20T19:10:32.076Z</time><hdop>4.687</hdop><vdop>2.625</vdop><extensions><gom:speed>0.816</gom:speed></extensions></trkpt>
   <trkpt lat="59.0727017747" lon="30.0278944918"><ele>99.387</ele><time>2026-04-20T19:10:32.820Z</time><hdop>4.75</hdop><vdop>2.625</vdop><extensions><gom:speed>0.899</gom:speed></extensions></trkpt>
   <trkpt lat="59.0727097795" lon="30.0279066455"><ele>99.394</ele><time>2026-04-20T19:10:33.696Z</time><hdop>4.75</hdop><vdop>2.5</vdop><extensions><gom:speed>0.9</gom:speed></extensions></trkpt>
   <trkpt lat="59.0727160659" lon="30.0279199727"><ele>99.312</ele><time>2026-04-20T19:10:34.654Z</time><hdop>4.687</hdop><vdop>2.75</vdop><extensions><gom:speed>0.838</gom:speed></extensions></trkpt>
   <trkpt lat="59.0727199635" lon="30.0279334676"><ele>99.376</ele><time>2026-04-20T19:10:35.681Z</time><hdop>4.687</hdop><vdop>2.625</vdop><extensions><gom:speed>0.76</gom:speed></extensions></trkpt>
   <trkpt lat="59.072717868" lon="30.0279365689"><ele>99.026</ele><time>2026-04-20T19:10:37.076Z</time><hdop>4.562</hdop><vdop>2.562</vdop><extensions><gom:speed>0.597</gom:speed></extensions></trkpt>
   <trkpt lat="59.0727185805" lon="30.0279345572"><ele>98.817</ele><time>2026-04-20T19:10:37.761Z</time><hdop>4.5</hdop><vdop>2.562</vdop><extensions><gom:speed>0.552</gom:speed></extensions></trkpt>
   <trkpt lat="59.072717868" lon="30.0279359822"><ele>98.165</ele><time>2026-04-20T19:10:38.945Z</time><hdop>4.437</hdop><vdop>4.875</vdop><extensions><gom:speed>0.317</gom:speed></extensions></trkpt>
   <trkpt lat="59.0727179937" lon="30.0279375747"><ele>97.604</ele><time>2026-04-20T19:10:40.012Z</time><hdop>4.5</hdop><vdop>4.625</vdop><extensions><gom:speed>0.243</gom:speed></extensions></trkpt>
   <trkpt lat="59.0727179937" lon="30.027938832"><ele>97.445</ele><time>2026-04-20T19:10:40.960Z</time><hdop>4.562</hdop><vdop>4.5</vdop><extensions><gom:speed>0.167</gom:speed></extensions></trkpt>
   <trkpt lat="59.0727186643" lon="30.0279404246"><ele>97.513</ele><time>2026-04-20T19:10:42.025Z</time><hdop>4.625</hdop><vdop>4.437</vdop><extensions><gom:speed>0.115</gom:speed></extensions></trkpt>
   <trkpt lat="59.0727193767" lon="30.0279413466"><ele>97.644</ele><time>2026-04-20T19:10:42.973Z</time><hdop>4.812</hdop><vdop>4.375</vdop><extensions><gom:speed>0.096</gom:speed></extensions></trkpt>
   <trkpt lat="59.0727197958" lon="30.0279418495"><ele>97.722</ele><time>2026-04-20T19:10:43.921Z</time><hdop>4.875</hdop><vdop>4.375</vdop><extensions><gom:speed>0.095</gom:speed></extensions></trkpt>
   <trkpt lat="59.0727195863" lon="30.0279429392"><ele>97.722</ele><time>2026-04-20T19:10:44.987Z</time><hdop>5.062</hdop><vdop>4.437</vdop><extensions><gom:speed>0.079</gom:speed></extensions></trkpt>
   <trkpt lat="59.0727214722" lon="30.0279434421"><ele>97.734</ele><time>2026-04-20T19:10:46.075Z</time><hdop>5.0</hdop><vdop>4.25</vdop><extensions><gom:speed>0.101</gom:speed></extensions></trkpt>
   <trkpt lat="59.0727217656" lon="30.0279438612"><ele>97.725</ele><time>2026-04-20T19:10:47.001Z</time><hdop>5.0</hdop><vdop>4.125</vdop><extensions><gom:speed>0.071</gom:speed></extensions></trkpt>
   <trkpt lat="59.072724364" lon="30.0279440288"><ele>97.71</ele><time>2026-04-20T19:10:48.075Z</time><hdop>4.937</hdop><vdop>3.812</vdop><extensions><gom:speed>0.067</gom:speed></extensions></trkpt>
   <trkpt lat="59.0727270881" lon="30.0279445317"><ele>97.707</ele><time>2026-04-20T19:10:49.075Z</time><hdop>4.812</hdop><vdop>3.687</vdop><extensions><gom:speed>0.07</gom:speed></extensions></trkpt>
   <trkpt lat="59.0727284711" lon="30.0279412628"><ele>97.712</ele><time>2026-04-20T19:10:50.075Z</time><hdop>4.75</hdop><vdop>3.5</vdop><extensions><gom:speed>0.096</gom:speed></extensions></trkpt>
   <trkpt lat="59.0727306923" lon="30.0279396702"><ele>97.712</ele><time>2026-04-20T19:10:51.075Z</time><hdop>4.625</hdop><vdop>3.312</vdop><extensions><gom:speed>0.065</gom:speed></extensions></trkpt>
   <trkpt lat="59.0727324944" lon="30.0279367365"><ele>97.728</ele><time>2026-04-20T19:10:52.075Z</time><hdop>4.562</hdop><vdop>3.187</vdop><extensions><gom:speed>0.066</gom:speed></extensions></trkpt>
   <trkpt lat="59.0727339612" lon="30.0279339705"><ele>97.733</ele><time>2026-04-20T19:10:53.075Z</time><hdop>4.437</hdop><vdop>3.062</vdop><extensions><gom:speed>0.101</gom:speed></extensions></trkpt>
   <trkpt lat="59.07273547" lon="30.027931875"><ele>97.746</ele><time>2026-04-20T19:10:54.075Z</time><hdop>4.375</hdop><vdop>3.187</vdop><extensions><gom:speed>0.067</gom:speed></extensions></trkpt>
   <trkpt lat="59.0727359729" lon="30.0279312883"><ele>97.754</ele><time>2026-04-20T19:10:55.075Z</time><hdop>4.25</hdop><vdop>3.187</vdop><extensions><gom:speed>0.065</gom:speed></extensions></trkpt>
   <trkpt lat="59.0727371883" lon="30.0279306178"><ele>97.774</ele><time>2026-04-20T19:10:56.075Z</time><hdop>4.187</hdop><vdop>3.187</vdop><extensions><gom:speed>0.067</gom:speed></extensions></trkpt>
   <trkpt lat="59.0727379846" lon="30.0279299472"><ele>97.797</ele><time>2026-04-20T19:10:57.075Z</time><hdop>4.062</hdop><vdop>3.125</vdop><extensions><gom:speed>0.068</gom:speed></extensions></trkpt>
   <trkpt lat="59.0727383617" lon="30.0279301987"><ele>97.807</ele><time>2026-04-20T19:10:58.076Z</time><hdop>3.937</hdop><vdop>2.937</vdop><extensions><gom:speed>0.075</gom:speed></extensions></trkpt>
   <trkpt lat="59.072738697" lon="30.0279295281"><ele>97.82</ele><time>2026-04-20T19:10:59.075Z</time><hdop>3.875</hdop><vdop>2.812</vdop><extensions><gom:speed>0.08</gom:speed></extensions></trkpt>
   <trkpt lat="59.0727388647" lon="30.0279285223"><ele>97.826</ele><time>2026-04-20T19:11:00.075Z</time><hdop>3.812</hdop><vdop>2.812</vdop><extensions><gom:speed>0.082</gom:speed></extensions></trkpt>
   <trkpt lat="59.0727390742" lon="30.0279283546"><ele>97.831</ele><time>2026-04-20T19:11:01.075Z</time><hdop>3.75</hdop><vdop>2.687</vdop><extensions><gom:speed>0.088</gom:speed></extensions></trkpt>
   <trkpt lat="59.0727391999" lon="30.0279274326"><ele>97.827</ele><time>2026-04-20T19:11:02.075Z</time><hdop>3.687</hdop><vdop>2.562</vdop><extensions><gom:speed>0.092</gom:speed></extensions></trkpt>
   <trkpt lat="59.0727391999" lon="30.0279268459"><ele>97.827</ele><time>2026-04-20T19:11:03.076Z</time><hdop>3.625</hdop><vdop>2.5</vdop><extensions><gom:speed>0.092</gom:speed></extensions></trkpt>
   <trkpt lat="59.0727393676" lon="30.027926343"><ele>97.826</ele><time>2026-04-20T19:11:04.076Z</time><hdop>3.625</hdop><vdop>2.5</vdop><extensions><gom:speed>0.095</gom:speed></extensions></trkpt>
   <trkpt lat="59.0727395771" lon="30.0279258401"><ele>97.82</ele><time>2026-04-20T19:11:05.076Z</time><hdop>3.625</hdop><vdop>2.5</vdop><extensions><gom:speed>0.098</gom:speed></extensions></trkpt>
   <trkpt lat="59.0727396609" lon="30.0279252533"><ele>97.81</ele><time>2026-04-20T19:11:06.076Z</time><hdop>3.625</hdop><vdop>2.5</vdop><extensions><gom:speed>0.098</gom:speed></extensions></trkpt>
   <trkpt lat="59.0727396609" lon="30.0279246666"><ele>97.806</ele><time>2026-04-20T19:11:07.075Z</time><hdop>3.687</hdop><vdop>2.5</vdop><extensions><gom:speed>0.104</gom:speed></extensions></trkpt>
   <trkpt lat="59.0727397867" lon="30.0279241637"><ele>97.805</ele><time>2026-04-20T19:11:08.075Z</time><hdop>3.687</hdop><vdop>2.5</vdop><extensions><gom:speed>0.157</gom:speed></extensions></trkpt>
   <trkpt lat="59.0727397867" lon="30.0279241637"><ele>97.805</ele><time>2026-04-20T19:11:08.680Z</time><hdop>3.687</hdop><vdop>2.5</vdop><extensions><gom:speed>0.157</gom:speed></extensions></trkpt>
   <trkpt lat="59.07274008" lon="30.0279227388"><ele>97.809</ele><time>2026-04-20T19:11:10.075Z</time><hdop>3.812</hdop><vdop>2.5</vdop><extensions><gom:speed>0.211</gom:speed></extensions></trkpt>
   <trkpt lat="59.0727401639" lon="30.0279218168"><ele>97.814</ele><time>2026-04-20T19:11:11.075Z</time><hdop>3.875</hdop><vdop>2.5</vdop><extensions><gom:speed>0.228</gom:speed></extensions></trkpt>
   <trkpt lat="59.0727401639" lon="30.0279209786"><ele>97.818</ele><time>2026-04-20T19:11:12.076Z</time><hdop>3.937</hdop><vdop>2.5</vdop><extensions><gom:speed>0.24</gom:speed></extensions></trkpt>
   <trkpt lat="59.0727403734" lon="30.0279197213"><ele>97.824</ele><time>2026-04-20T19:11:13.076Z</time><hdop>4.0</hdop><vdop>2.5</vdop><extensions><gom:speed>0.22</gom:speed></extensions></trkpt>
   <trkpt lat="59.0727406668" lon="30.0279187993"><ele>97.831</ele><time>2026-04-20T19:11:14.075Z</time><hdop>4.125</hdop><vdop>2.562</vdop><extensions><gom:speed>0.205</gom:speed></extensions></trkpt>
   <trkpt lat="59.0727407925" lon="30.0279187993"><ele>97.835</ele><time>2026-04-20T19:11:14.841Z</time><hdop>4.187</hdop><vdop>2.562</vdop><extensions><gom:speed>0.205</gom:speed></extensions></trkpt>
   <trkpt lat="59.0727412954" lon="30.0279163685"><ele>97.843</ele><time>2026-04-20T19:11:16.075Z</time><hdop>4.5</hdop><vdop>2.625</vdop><extensions><gom:speed>0.171</gom:speed></extensions></trkpt>
   <trkpt lat="59.072741463" lon="30.0279154465"><ele>97.849</ele><time>2026-04-20T19:11:17.075Z</time><hdop>4.625</hdop><vdop>2.75</vdop><extensions><gom:speed>0.159</gom:speed></extensions></trkpt>
   <trkpt lat="59.0727418821" lon="30.0279146921"><ele>97.854</ele><time>2026-04-20T19:11:18.075Z</time><hdop>4.687</hdop><vdop>2.687</vdop><extensions><gom:speed>0.148</gom:speed></extensions></trkpt>
   <trkpt lat="59.0727421755" lon="30.0279139378"><ele>97.858</ele><time>2026-04-20T19:11:19.075Z</time><hdop>4.75</hdop><vdop>2.625</vdop><extensions><gom:speed>0.142</gom:speed></extensions></trkpt>
   <trkpt lat="59.0727424689" lon="30.0279132672"><ele>97.861</ele><time>2026-04-20T19:11:20.075Z</time><hdop>4.75</hdop><vdop>2.687</vdop><extensions><gom:speed>0.139</gom:speed></extensions></trkpt>
   <trkpt lat="59.0727424689" lon="30.0279130996"><ele>97.863</ele><time>2026-04-20T19:11:21.001Z</time><hdop>4.812</hdop><vdop>2.687</vdop><extensions><gom:speed>0.139</gom:speed></extensions></trkpt>
   <trkpt lat="59.0727431813" lon="30.0279123452"><ele>97.866</ele><time>2026-04-20T19:11:22.075Z</time><hdop>4.812</hdop><vdop>2.812</vdop><extensions><gom:speed>0.128</gom:speed></extensions></trkpt>
   <trkpt lat="59.0727433909" lon="30.0279119261"><ele>97.868</ele><time>2026-04-20T19:11:23.075Z</time><hdop>4.812</hdop><vdop>2.875</vdop><extensions><gom:speed>0.123</gom:speed></extensions></trkpt>
   <trkpt lat="59.0727434747" lon="30.0279113394"><ele>97.869</ele><time>2026-04-20T19:11:24.075Z</time><hdop>4.812</hdop><vdop>2.937</vdop><extensions><gom:speed>0.121</gom:speed></extensions></trkpt>
   <trkpt lat="59.0727435585" lon="30.0279108365"><ele>97.871</ele><time>2026-04-20T19:11:25.075Z</time><hdop>4.812</hdop><vdop>2.937</vdop><extensions><gom:speed>0.115</gom:speed></extensions></trkpt>
   <trkpt lat="59.0727436843" lon="30.0279104174"><ele>97.872</ele><time>2026-04-20T19:11:26.075Z</time><hdop>4.75</hdop><vdop>2.937</vdop><extensions><gom:speed>0.113</gom:speed></extensions></trkpt>
   <trkpt lat="59.0727438938" lon="30.0279100821"><ele>97.873</ele><time>2026-04-20T19:11:27.075Z</time><hdop>4.75</hdop><vdop>2.875</vdop><extensions><gom:speed>0.113</gom:speed></extensions></trkpt>
   <trkpt lat="59.0727441872" lon="30.027909663"><ele>97.872</ele><time>2026-04-20T19:11:28.075Z</time><hdop>4.75</hdop><vdop>2.875</vdop><extensions><gom:speed>0.115</gom:speed></extensions></trkpt>
   <trkpt lat="59.0727443967" lon="30.0279093277"><ele>97.872</ele><time>2026-04-20T19:11:29.075Z</time><hdop>4.687</hdop><vdop>2.812</vdop><extensions><gom:speed>0.115</gom:speed></extensions></trkpt>
   <trkpt lat="59.0727446901" lon="30.0279091601"><ele>97.872</ele><time>2026-04-20T19:11:30.075Z</time><hdop>4.687</hdop><vdop>2.812</vdop><extensions><gom:speed>0.146</gom:speed></extensions></trkpt>
   <trkpt lat="59.0727450673" lon="30.0279079866"><ele>97.874</ele><time>2026-04-20T19:11:31.076Z</time><hdop>4.687</hdop><vdop>2.937</vdop><extensions><gom:speed>0.186</gom:speed></extensions></trkpt>
   <trkpt lat="59.072745193" lon="30.0279072322"><ele>97.875</ele><time>2026-04-20T19:11:31.735Z</time><hdop>4.687</hdop><vdop>2.937</vdop><extensions><gom:speed>0.187</gom:speed></extensions></trkpt>
   <trkpt lat="59.0727455702" lon="30.0279065617"><ele>97.876</ele><time>2026-04-20T19:11:32.534Z</time><hdop>4.687</hdop><vdop>3.187</vdop><extensions><gom:speed>0.252</gom:speed></extensions></trkpt>
   <trkpt lat="59.0727457797" lon="30.0279061426"><ele>97.876</ele><time>2026-04-20T19:11:33.075Z</time><hdop>4.687</hdop><vdop>3.375</vdop><extensions><gom:speed>0.242</gom:speed></extensions></trkpt>
   <trkpt lat="59.0727463665" lon="30.0279052206"><ele>97.878</ele><time>2026-04-20T19:11:34.075Z</time><hdop>4.75</hdop><vdop>3.187</vdop><extensions><gom:speed>0.224</gom:speed></extensions></trkpt>
   <trkpt lat="59.0727467856" lon="30.0279044662"><ele>97.88</ele><time>2026-04-20T19:11:35.075Z</time><hdop>4.812</hdop><vdop>3.125</vdop><extensions><gom:speed>0.206</gom:speed></extensions></trkpt>
   <trkpt lat="59.0727472885" lon="30.0279032928"><ele>97.881</ele><time>2026-04-20T19:11:36.075Z</time><hdop>4.875</hdop><vdop>3.125</vdop><extensions><gom:speed>0.206</gom:speed></extensions></trkpt>
   <trkpt lat="59.0727478752" lon="30.0279031251"><ele>97.885</ele><time>2026-04-20T19:11:37.075Z</time><hdop>4.937</hdop><vdop>3.187</vdop><extensions><gom:speed>0.231</gom:speed></extensions></trkpt>
   <trkpt lat="59.0727484619" lon="30.0279025384"><ele>97.89</ele><time>2026-04-20T19:11:38.075Z</time><hdop>5.125</hdop><vdop>3.25</vdop><extensions><gom:speed>0.228</gom:speed></extensions></trkpt>
   <trkpt lat="59.0727489649" lon="30.0279016164"><ele>97.895</ele><time>2026-04-20T19:11:39.076Z</time><hdop>5.187</hdop><vdop>3.187</vdop><extensions><gom:speed>0.218</gom:speed></extensions></trkpt>
   <trkpt lat="59.0727493839" lon="30.0279005267"><ele>97.897</ele><time>2026-04-20T19:11:40.076Z</time><hdop>5.312</hdop><vdop>3.062</vdop><extensions><gom:speed>0.205</gom:speed></extensions></trkpt>
   <trkpt lat="59.0727494678" lon="30.0278998562"><ele>97.899</ele><time>2026-04-20T19:11:41.075Z</time><hdop>5.375</hdop><vdop>3.0</vdop><extensions><gom:speed>0.192</gom:speed></extensions></trkpt>
   <trkpt lat="59.0727497611" lon="30.027899018"><ele>97.899</ele><time>2026-04-20T19:11:42.076Z</time><hdop>5.375</hdop><vdop>2.937</vdop><extensions><gom:speed>0.179</gom:speed></extensions></trkpt>
   <trkpt lat="59.0727504736" lon="30.0278983474"><ele>97.9</ele><time>2026-04-20T19:11:43.075Z</time><hdop>5.437</hdop><vdop>2.937</vdop><extensions><gom:speed>0.175</gom:speed></extensions></trkpt>
   <trkpt lat="59.0727509765" lon="30.027898096"><ele>97.9</ele><time>2026-04-20T19:11:44.075Z</time><hdop>5.437</hdop><vdop>3.0</vdop><extensions><gom:speed>0.168</gom:speed></extensions></trkpt>
   <trkpt lat="59.0727513956" lon="30.0278979283"><ele>97.9</ele><time>2026-04-20T19:11:45.075Z</time><hdop>5.437</hdop><vdop>3.0</vdop><extensions><gom:speed>0.158</gom:speed></extensions></trkpt>
   <trkpt lat="59.0727513956" lon="30.027898096"><ele>97.9</ele><time>2026-04-20T19:11:45.643Z</time><hdop>5.437</hdop><vdop>3.0</vdop><extensions><gom:speed>0.158</gom:speed></extensions></trkpt>
   <trkpt lat="59.0727519823" lon="30.0278979283"><ele>97.902</ele><time>2026-04-20T19:11:47.075Z</time><hdop>5.375</hdop><vdop>3.062</vdop><extensions><gom:speed>0.144</gom:speed></extensions></trkpt>
   <trkpt lat="59.0727520662" lon="30.027898096"><ele>97.904</ele><time>2026-04-20T19:11:48.075Z</time><hdop>5.375</hdop><vdop>3.125</vdop><extensions><gom:speed>0.139</gom:speed></extensions></trkpt>
   <trkpt lat="59.0727521919" lon="30.0278981798"><ele>97.905</ele><time>2026-04-20T19:11:49.075Z</time><hdop>5.312</hdop><vdop>3.062</vdop><extensions><gom:speed>0.131</gom:speed></extensions></trkpt>
   <trkpt lat="59.0727522757" lon="30.027898096"><ele>97.908</ele><time>2026-04-20T19:11:50.076Z</time><hdop>5.25</hdop><vdop>3.0</vdop><extensions><gom:speed>0.128</gom:speed></extensions></trkpt>
   <trkpt lat="59.0727523595" lon="30.027898096"><ele>97.909</ele><time>2026-04-20T19:11:51.075Z</time><hdop>5.187</hdop><vdop>2.937</vdop><extensions><gom:speed>0.125</gom:speed></extensions></trkpt>
   <trkpt lat="59.0727522757" lon="30.0278981798"><ele>97.91</ele><time>2026-04-20T19:11:51.921Z</time><hdop>5.187</hdop><vdop>2.937</vdop><extensions><gom:speed>0.125</gom:speed></extensions></trkpt>
   <trkpt lat="59.0727524853" lon="30.0278982636"><ele>97.912</ele><time>2026-04-20T19:11:53.075Z</time><hdop>5.125</hdop><vdop>2.812</vdop><extensions><gom:speed>0.119</gom:speed></extensions></trkpt>
   <trkpt lat="59.0727524853" lon="30.0278984312"><ele>97.914</ele><time>2026-04-20T19:11:54.075Z</time><hdop>5.125</hdop><vdop>2.875</vdop><extensions><gom:speed>0.118</gom:speed></extensions></trkpt>
   <trkpt lat="59.0727524853" lon="30.0278987665"><ele>97.916</ele><time>2026-04-20T19:11:55.075Z</time><hdop>5.062</hdop><vdop>2.75</vdop><extensions><gom:speed>0.118</gom:speed></extensions></trkpt>
   <trkpt lat="59.0727524853" lon="30.0278989342"><ele>97.918</ele><time>2026-04-20T19:11:56.075Z</time><hdop>5.0</hdop><vdop>2.687</vdop><extensions><gom:speed>0.119</gom:speed></extensions></trkpt>
   <trkpt lat="59.0727523595" lon="30.0278993533"><ele>97.921</ele><time>2026-04-20T19:11:57.075Z</time><hdop>4.937</hdop><vdop>2.562</vdop><extensions><gom:speed>0.119</gom:speed></extensions></trkpt>
   <trkpt lat="59.0727524853" lon="30.0279003591"><ele>97.923</ele><time>2026-04-20T19:11:58.075Z</time><hdop>4.937</hdop><vdop>2.5</vdop><extensions><gom:speed>0.123</gom:speed></extensions></trkpt>
   <trkpt lat="59.0727526948" lon="30.0279007782"><ele>97.925</ele><time>2026-04-20T19:11:59.075Z</time><hdop>4.875</hdop><vdop>2.5</vdop><extensions><gom:speed>0.12</gom:speed></extensions></trkpt>
   <trkpt lat="59.0727525691" lon="30.0279009458"><ele>97.928</ele><time>2026-04-20T19:12:00.076Z</time><hdop>4.875</hdop><vdop>2.5</vdop><extensions><gom:speed>0.117</gom:speed></extensions></trkpt>
   <trkpt lat="59.0727525691" lon="30.0279010296"><ele>97.93</ele><time>2026-04-20T19:12:01.076Z</time><hdop>4.812</hdop><vdop>2.5</vdop><extensions><gom:speed>0.115</gom:speed></extensions></trkpt>
   <trkpt lat="59.0727525691" lon="30.0279010296"><ele>97.933</ele><time>2026-04-20T19:12:02.075Z</time><hdop>4.812</hdop><vdop>2.562</vdop><extensions><gom:speed>0.14</gom:speed></extensions></trkpt>
   <trkpt lat="59.0727526948" lon="30.0279010296"><ele>97.936</ele><time>2026-04-20T19:12:03.075Z</time><hdop>4.812</hdop><vdop>2.625</vdop><extensions><gom:speed>0.141</gom:speed></extensions></trkpt>
   <trkpt lat="59.0727527786" lon="30.0279009458"><ele>97.94</ele><time>2026-04-20T19:12:04.076Z</time><hdop>4.812</hdop><vdop>2.625</vdop><extensions><gom:speed>0.139</gom:speed></extensions></trkpt>
   <trkpt lat="59.0727529882" lon="30.0279009458"><ele>97.943</ele><time>2026-04-20T19:12:05.075Z</time><hdop>4.812</hdop><vdop>2.562</vdop><extensions><gom:speed>0.137</gom:speed></extensions></trkpt>
   <trkpt lat="59.072753072" lon="30.027900862"><ele>97.947</ele><time>2026-04-20T19:12:06.075Z</time><hdop>4.812</hdop><vdop>2.625</vdop><extensions><gom:speed>0.137</gom:speed></extensions></trkpt>
   <trkpt lat="59.0727525691" lon="30.0279012811"><ele>97.951</ele><time>2026-04-20T19:12:07.076Z</time><hdop>4.812</hdop><vdop>2.562</vdop><extensions><gom:speed>0.14</gom:speed></extensions></trkpt>
   <trkpt lat="59.0727527786" lon="30.0279010296"><ele>97.956</ele><time>2026-04-20T19:12:08.075Z</time><hdop>4.875</hdop><vdop>2.5</vdop><extensions><gom:speed>0.137</gom:speed></extensions></trkpt>
   <trkpt lat="59.072753072" lon="30.0279007782"><ele>97.958</ele><time>2026-04-20T19:12:09.075Z</time><hdop>4.875</hdop><vdop>2.5</vdop><extensions><gom:speed>0.134</gom:speed></extensions></trkpt>
   <trkpt lat="59.0727533654" lon="30.0279002753"><ele>97.959</ele><time>2026-04-20T19:12:10.075Z</time><hdop>4.875</hdop><vdop>2.5</vdop><extensions><gom:speed>0.134</gom:speed></extensions></trkpt>
   <trkpt lat="59.0727535749" lon="30.0278998562"><ele>97.96</ele><time>2026-04-20T19:12:11.075Z</time><hdop>4.937</hdop><vdop>2.562</vdop><extensions><gom:speed>0.131</gom:speed></extensions></trkpt>
   <trkpt lat="59.0727537844" lon="30.0278995209"><ele>97.963</ele><time>2026-04-20T19:12:12.075Z</time><hdop>4.937</hdop><vdop>2.562</vdop><extensions><gom:speed>0.131</gom:speed></extensions></trkpt>
   <trkpt lat="59.072753994" lon="30.0278992694"><ele>97.964</ele><time>2026-04-20T19:12:13.075Z</time><hdop>4.875</hdop><vdop>2.687</vdop><extensions><gom:speed>0.127</gom:speed></extensions></trkpt>
   <trkpt lat="59.0727540778" lon="30.027899018"><ele>97.964</ele><time>2026-04-20T19:12:14.075Z</time><hdop>4.875</hdop><vdop>2.75</vdop><extensions><gom:speed>0.125</gom:speed></extensions></trkpt>
   <trkpt lat="59.0727537844" lon="30.027898096"><ele>97.966</ele><time>2026-04-20T19:12:15.075Z</time><hdop>4.875</hdop><vdop>2.812</vdop><extensions><gom:speed>0.122</gom:speed></extensions></trkpt>
   <trkpt lat="59.0727537844" lon="30.0278979283"><ele>97.965</ele><time>2026-04-20T19:12:16.075Z</time><hdop>4.875</hdop><vdop>2.937</vdop><extensions><gom:speed>0.118</gom:speed></extensions></trkpt>
   <trkpt lat="59.0727536587" lon="30.0278979283"><ele>97.964</ele><time>2026-04-20T19:12:16.562Z</time><hdop>4.875</hdop><vdop>2.937</vdop><extensions><gom:speed>0.118</gom:speed></extensions></trkpt>
   <trkpt lat="59.0727535749" lon="30.0278985989"><ele>97.963</ele><time>2026-04-20T19:12:17.075Z</time><hdop>4.875</hdop><vdop>2.937</vdop><extensions><gom:speed>0.114</gom:speed></extensions></trkpt>
   <trkpt lat="59.0727535749" lon="30.0278986827"><ele>97.964</ele><time>2026-04-20T19:12:18.075Z</time><hdop>4.875</hdop><vdop>2.937</vdop><extensions><gom:speed>0.114</gom:speed></extensions></trkpt>
   <trkpt lat="59.0727535749" lon="30.0278987665"><ele>97.964</ele><time>2026-04-20T19:12:19.075Z</time><hdop>4.875</hdop><vdop>2.875</vdop><extensions><gom:speed>0.111</gom:speed></extensions></trkpt>
   <trkpt lat="59.0727535749" lon="30.0278988503"><ele>97.963</ele><time>2026-04-20T19:12:20.075Z</time><hdop>4.875</hdop><vdop>2.937</vdop><extensions><gom:speed>0.112</gom:speed></extensions></trkpt>
   <trkpt lat="59.0727534911" lon="30.027899018"><ele>97.961</ele><time>2026-04-20T19:12:21.075Z</time><hdop>4.812</hdop><vdop>3.0</vdop><extensions><gom:speed>0.111</gom:speed></extensions></trkpt>
   <trkpt lat="59.0727534911" lon="30.0278993533"><ele>97.959</ele><time>2026-04-20T19:12:22.076Z</time><hdop>4.75</hdop><vdop>3.062</vdop><extensions><gom:speed>0.113</gom:speed></extensions></trkpt>
   <trkpt lat="59.0727534911" lon="30.0278992694"><ele>97.958</ele><time>2026-04-20T19:12:22.722Z</time><hdop>4.812</hdop><vdop>3.062</vdop><extensions><gom:speed>0.113</gom:speed></extensions></trkpt>
   <trkpt lat="59.0727533654" lon="30.0279003591"><ele>97.953</ele><time>2026-04-20T19:12:24.075Z</time><hdop>4.75</hdop><vdop>3.062</vdop><extensions><gom:speed>0.111</gom:speed></extensions></trkpt>
   <trkpt lat="59.0727532815" lon="30.0279005267"><ele>97.951</ele><time>2026-04-20T19:12:25.075Z</time><hdop>4.75</hdop><vdop>3.0</vdop><extensions><gom:speed>0.116</gom:speed></extensions></trkpt>
   <trkpt lat="59.0727531977" lon="30.0279007782"><ele>97.95</ele><time>2026-04-20T19:12:26.075Z</time><hdop>4.75</hdop><vdop>2.937</vdop><extensions><gom:speed>0.117</gom:speed></extensions></trkpt>
   <trkpt lat="59.072753072" lon="30.0279010296"><ele>97.948</ele><time>2026-04-20T19:12:27.075Z</time><hdop>4.75</hdop><vdop>2.875</vdop><extensions><gom:speed>0.115</gom:speed></extensions></trkpt>
   <trkpt lat="59.0727529882" lon="30.0279013649"><ele>97.948</ele><time>2026-04-20T19:12:28.075Z</time><hdop>4.75</hdop><vdop>2.937</vdop><extensions><gom:speed>0.114</gom:speed></extensions></trkpt>
   <trkpt lat="59.0727529882" lon="30.0279012811"><ele>97.948</ele><time>2026-04-20T19:12:28.882Z</time><hdop>4.75</hdop><vdop>2.937</vdop><extensions><gom:speed>0.114</gom:speed></extensions></trkpt>
   <trkpt lat="59.0727526948" lon="30.0279018678"><ele>97.946</ele><time>2026-04-20T19:12:30.075Z</time><hdop>4.75</hdop><vdop>2.875</vdop><extensions><gom:speed>0.116</gom:speed></extensions></trkpt>
   <trkpt lat="59.0727524853" lon="30.0279021193"><ele>97.945</ele><time>2026-04-20T19:12:31.076Z</time><hdop>4.75</hdop><vdop>2.812</vdop><extensions><gom:speed>0.118</gom:speed></extensions></trkpt>
   <trkpt lat="59.0727523595" lon="30.0279022869"><ele>97.944</ele><time>2026-04-20T19:12:32.076Z</time><hdop>4.75</hdop><vdop>2.812</vdop><extensions><gom:speed>0.12</gom:speed></extensions></trkpt>
   <trkpt lat="59.0727521919" lon="30.0279021193"><ele>97.943</ele><time>2026-04-20T19:12:33.076Z</time><hdop>4.75</hdop><vdop>2.812</vdop><extensions><gom:speed>0.121</gom:speed></extensions></trkpt>
   <trkpt lat="59.0727518985" lon="30.0279021193"><ele>97.94</ele><time>2026-04-20T19:12:34.075Z</time><hdop>4.75</hdop><vdop>2.75</vdop><extensions><gom:speed>0.12</gom:speed></extensions></trkpt>
   <trkpt lat="59.0727517728" lon="30.0279020355"><ele>97.939</ele><time>2026-04-20T19:12:35.075Z</time><hdop>4.75</hdop><vdop>2.625</vdop><extensions><gom:speed>0.123</gom:speed></extensions></trkpt>
   <trkpt lat="59.072751689" lon="30.0279019516"><ele>97.94</ele><time>2026-04-20T19:12:36.075Z</time><hdop>4.812</hdop><vdop>2.562</vdop><extensions><gom:speed>0.119</gom:speed></extensions></trkpt>
   <trkpt lat="59.0727515632" lon="30.027901784"><ele>97.943</ele><time>2026-04-20T19:12:37.075Z</time><hdop>4.812</hdop><vdop>2.562</vdop><extensions><gom:speed>0.116</gom:speed></extensions></trkpt>
   <trkpt lat="59.0727489649" lon="30.0278977607"><ele>97.945</ele><time>2026-04-20T19:12:38.075Z</time><hdop>5.562</hdop><vdop>2.5</vdop><extensions><gom:speed>0.0</gom:speed></extensions></trkpt>
   <trkpt lat="59.0727489649" lon="30.0278976769"><ele>97.948</ele><time>2026-04-20T19:12:39.075Z</time><hdop>6.5</hdop><vdop>2.5</vdop><extensions><gom:speed>0.0</gom:speed></extensions></trkpt>
   <trkpt lat="59.0727489649" lon="30.0278975931"><ele>97.951</ele><time>2026-04-20T19:12:40.075Z</time><hdop>7.375</hdop><vdop>2.5</vdop><extensions><gom:speed>0.0</gom:speed></extensions></trkpt>
   <trkpt lat="59.0727489649" lon="30.0278973416"><ele>97.956</ele><time>2026-04-20T19:12:41.075Z</time><hdop>8.187</hdop><vdop>2.5</vdop><extensions><gom:speed>0.0</gom:speed></extensions></trkpt>
   <trkpt lat="59.0727489649" lon="30.0278972578"><ele>97.958</ele><time>2026-04-20T19:12:42.075Z</time><hdop>9.062</hdop><vdop>2.5</vdop><extensions><gom:speed>0.0</gom:speed></extensions></trkpt>
   <trkpt lat="59.0727489649" lon="30.027897174"><ele>97.962</ele><time>2026-04-20T19:12:43.075Z</time><hdop>9.875</hdop><vdop>2.562</vdop><extensions><gom:speed>0.0</gom:speed></extensions></trkpt>
   <trkpt lat="59.0727489649" lon="30.0278970901"><ele>97.964</ele><time>2026-04-20T19:12:44.076Z</time><hdop>9.875</hdop><vdop>2.562</vdop><extensions><gom:speed>0.0</gom:speed></extensions></trkpt>
   <trkpt lat="59.0727489649" lon="30.0278969225"><ele>97.965</ele><time>2026-04-20T19:12:45.075Z</time><hdop>9.875</hdop><vdop>2.562</vdop><extensions><gom:speed>0.0</gom:speed></extensions></trkpt>
   <trkpt lat="59.0727489649" lon="30.0278968387"><ele>97.966</ele><time>2026-04-20T19:12:46.075Z</time><hdop>9.875</hdop><vdop>2.562</vdop><extensions><gom:speed>0.0</gom:speed></extensions></trkpt>
   <trkpt lat="59.0727489649" lon="30.0278967549"><ele>97.968</ele><time>2026-04-20T19:12:47.076Z</time><hdop>9.875</hdop><vdop>2.5</vdop><extensions><gom:speed>0.0</gom:speed></extensions></trkpt>
   <trkpt lat="59.0727489649" lon="30.027896671"><ele>97.969</ele><time>2026-04-20T19:12:48.075Z</time><hdop>9.875</hdop><vdop>2.5</vdop><extensions><gom:speed>0.0</gom:speed></extensions></trkpt>
   <trkpt lat="59.0727490906" lon="30.0278965872"><ele>97.97</ele><time>2026-04-20T19:12:49.075Z</time><hdop>9.875</hdop><vdop>2.562</vdop><extensions><gom:speed>0.0</gom:speed></extensions></trkpt>
   <trkpt lat="59.0727490906" lon="30.0278964196"><ele>97.971</ele><time>2026-04-20T19:12:50.075Z</time><hdop>9.875</hdop><vdop>2.625</vdop><extensions><gom:speed>0.0</gom:speed></extensions></trkpt>
   <trkpt lat="59.0727490906" lon="30.0278963358"><ele>97.972</ele><time>2026-04-20T19:12:51.076Z</time><hdop>9.875</hdop><vdop>2.687</vdop><extensions><gom:speed>0.0</gom:speed></extensions></trkpt>
   <trkpt lat="59.0727490906" lon="30.027896252"><ele>97.972</ele><time>2026-04-20T19:12:52.076Z</time><hdop>9.875</hdop><vdop>2.812</vdop><extensions><gom:speed>0.0</gom:speed></extensions></trkpt>
   <trkpt lat="59.0727490906" lon="30.0278961681"><ele>97.971</ele><time>2026-04-20T19:12:53.075Z</time><hdop>9.875</hdop><vdop>2.875</vdop><extensions><gom:speed>0.0</gom:speed></extensions></trkpt>
   <trkpt lat="59.0727490906" lon="30.0278960843"><ele>97.972</ele><time>2026-04-20T19:12:54.075Z</time><hdop>9.875</hdop><vdop>2.812</vdop><extensions><gom:speed>0.0</gom:speed></extensions></trkpt>
   <trkpt lat="59.0727490906" lon="30.0278959167"><ele>97.972</ele><time>2026-04-20T19:12:55.075Z</time><hdop>9.875</hdop><vdop>2.75</vdop><extensions><gom:speed>0.0</gom:speed></extensions></trkpt>
   <trkpt lat="59.0727490906" lon="30.0278958329"><ele>97.973</ele><time>2026-04-20T19:12:56.075Z</time><hdop>9.875</hdop><vdop>2.812</vdop><extensions><gom:speed>0.0</gom:speed></extensions></trkpt>
   <trkpt lat="59.0727490906" lon="30.027895749"><ele>97.973</ele><time>2026-04-20T19:12:57.075Z</time><hdop>9.937</hdop><vdop>2.937</vdop><extensions><gom:speed>0.0</gom:speed></extensions></trkpt>
   <trkpt lat="59.0727491744" lon="30.0278956652"><ele>97.973</ele><time>2026-04-20T19:12:58.075Z</time><hdop>9.937</hdop><vdop>3.0</vdop><extensions><gom:speed>0.0</gom:speed></extensions></trkpt>
   <trkpt lat="59.0727490906" lon="30.0278955814"><ele>97.977</ele><time>2026-04-20T19:12:59.076Z</time><hdop>10.0</hdop><vdop>3.312</vdop><extensions><gom:speed>0.0</gom:speed></extensions></trkpt>
   <trkpt lat="59.0727490906" lon="30.0278953299"><ele>97.984</ele><time>2026-04-20T19:13:00.075Z</time><hdop>10.0</hdop><vdop>3.562</vdop><extensions><gom:speed>0.0</gom:speed></extensions></trkpt>
   <trkpt lat="59.0727490906" lon="30.0278951623"><ele>97.99</ele><time>2026-04-20T19:13:01.075Z</time><hdop>10.062</hdop><vdop>3.687</vdop><extensions><gom:speed>0.0</gom:speed></extensions></trkpt>
   <trkpt lat="59.0727490906" lon="30.0278949947"><ele>97.996</ele><time>2026-04-20T19:13:02.076Z</time><hdop>10.187</hdop><vdop>3.812</vdop><extensions><gom:speed>0.0</gom:speed></extensions></trkpt>
   <trkpt lat="59.0727489649" lon="30.027894827"><ele>98.001</ele><time>2026-04-20T19:13:03.075Z</time><hdop>10.25</hdop><vdop>3.875</vdop><extensions><gom:speed>0.0</gom:speed></extensions></trkpt>
   <trkpt lat="59.0727489649" lon="30.0278947432"><ele>98.006</ele><time>2026-04-20T19:13:04.075Z</time><hdop>10.25</hdop><vdop>3.937</vdop><extensions><gom:speed>0.0</gom:speed></extensions></trkpt>
   <trkpt lat="59.0727489649" lon="30.0278946594"><ele>98.011</ele><time>2026-04-20T19:13:05.075Z</time><hdop>10.312</hdop><vdop>3.937</vdop><extensions><gom:speed>0.0</gom:speed></extensions></trkpt>
   <trkpt lat="59.0727489649" lon="30.0278944918"><ele>98.015</ele><time>2026-04-20T19:13:06.076Z</time><hdop>10.312</hdop><vdop>3.812</vdop><extensions><gom:speed>0.0</gom:speed></extensions></trkpt>
   <trkpt lat="59.0727489649" lon="30.0278943241"><ele>98.017</ele><time>2026-04-20T19:13:07.075Z</time><hdop>10.312</hdop><vdop>3.625</vdop><extensions><gom:speed>0.0</gom:speed></extensions></trkpt>
   <trkpt lat="59.072748881" lon="30.0278941565"><ele>98.021</ele><time>2026-04-20T19:13:08.075Z</time><hdop>10.312</hdop><vdop>3.562</vdop><extensions><gom:speed>0.0</gom:speed></extensions></trkpt>
   <trkpt lat="59.072748881" lon="30.0278940727"><ele>98.024</ele><time>2026-04-20T19:13:09.075Z</time><hdop>10.25</hdop><vdop>3.437</vdop><extensions><gom:speed>0.0</gom:speed></extensions></trkpt>
   <trkpt lat="59.072748881" lon="30.0278939888"><ele>98.027</ele><time>2026-04-20T19:13:10.075Z</time><hdop>10.25</hdop><vdop>3.375</vdop><extensions><gom:speed>0.0</gom:speed></extensions></trkpt>
   <trkpt lat="59.072748881" lon="30.0278938212"><ele>98.031</ele><time>2026-04-20T19:13:11.075Z</time><hdop>10.187</hdop><vdop>3.25</vdop><extensions><gom:speed>0.0</gom:speed></extensions></trkpt>
   <trkpt lat="59.072748881" lon="30.0278937374"><ele>98.032</ele><time>2026-04-20T19:13:12.075Z</time><hdop>10.125</hdop><vdop>3.25</vdop><extensions><gom:speed>0.0</gom:speed></extensions></trkpt>
   <trkpt lat="59.072748881" lon="30.0278936536"><ele>98.033</ele><time>2026-04-20T19:13:13.075Z</time><hdop>10.062</hdop><vdop>3.187</vdop><extensions><gom:speed>0.0</gom:speed></extensions></trkpt>
   <trkpt lat="59.072748881" lon="30.0278936536"><ele>98.035</ele><time>2026-04-20T19:13:14.075Z</time><hdop>10.062</hdop><vdop>3.187</vdop><extensions><gom:speed>0.0</gom:speed></extensions></trkpt>
   <trkpt lat="59.072748881" lon="30.0278935697"><ele>98.037</ele><time>2026-04-20T19:13:15.075Z</time><hdop>10.0</hdop><vdop>3.125</vdop><extensions><gom:speed>0.0</gom:speed></extensions></trkpt>
   <trkpt lat="59.072748881" lon="30.0278933183"><ele>98.041</ele><time>2026-04-20T19:13:16.076Z</time><hdop>10.0</hdop><vdop>3.25</vdop><extensions><gom:speed>0.0</gom:speed></extensions></trkpt>
   <trkpt lat="59.072748881" lon="30.0278932345"><ele>98.046</ele><time>2026-04-20T19:13:17.075Z</time><hdop>9.937</hdop><vdop>3.187</vdop><extensions><gom:speed>0.0</gom:speed></extensions></trkpt>
   <trkpt lat="59.072748881" lon="30.0278930668"><ele>98.052</ele><time>2026-04-20T19:13:18.075Z</time><hdop>9.937</hdop><vdop>3.187</vdop><extensions><gom:speed>0.0</gom:speed></extensions></trkpt>
   <trkpt lat="59.0727487972" lon="30.0278928992"><ele>98.058</ele><time>2026-04-20T19:13:19.075Z</time><hdop>9.937</hdop><vdop>3.25</vdop><extensions><gom:speed>0.0</gom:speed></extensions></trkpt>
   <trkpt lat="59.0727487972" lon="30.0278926477"><ele>98.064</ele><time>2026-04-20T19:13:20.075Z</time><hdop>9.937</hdop><vdop>3.062</vdop><extensions><gom:speed>0.0</gom:speed></extensions></trkpt>
   <trkpt lat="59.0727487972" lon="30.0278925639"><ele>98.068</ele><time>2026-04-20T19:13:21.075Z</time><hdop>9.937</hdop><vdop>3.062</vdop><extensions><gom:speed>0.0</gom:speed></extensions></trkpt>
   <trkpt lat="59.0727487972" lon="30.0278923963"><ele>98.072</ele><time>2026-04-20T19:13:22.075Z</time><hdop>9.937</hdop><vdop>3.062</vdop><extensions><gom:speed>0.0</gom:speed></extensions></trkpt>
   <trkpt lat="59.0727487972" lon="30.0278921448"><ele>98.076</ele><time>2026-04-20T19:13:23.076Z</time><hdop>9.937</hdop><vdop>3.062</vdop><extensions><gom:speed>0.0</gom:speed></extensions></trkpt>
   <trkpt lat="59.0727486715" lon="30.0278919772"><ele>98.077</ele><time>2026-04-20T19:13:24.075Z</time><hdop>9.937</hdop><vdop>3.0</vdop><extensions><gom:speed>0.0</gom:speed></extensions></trkpt>
   <trkpt lat="59.0727486715" lon="30.0278918934"><ele>98.08</ele><time>2026-04-20T19:13:25.075Z</time><hdop>9.875</hdop><vdop>3.0</vdop><extensions><gom:speed>0.0</gom:speed></extensions></trkpt>
   <trkpt lat="59.0727486715" lon="30.0278916419"><ele>98.082</ele><time>2026-04-20T19:13:26.075Z</time><hdop>9.875</hdop><vdop>2.937</vdop><extensions><gom:speed>0.0</gom:speed></extensions></trkpt>
   <trkpt lat="59.0727486715" lon="30.0278915581"><ele>98.082</ele><time>2026-04-20T19:13:27.075Z</time><hdop>9.875</hdop><vdop>2.937</vdop><extensions><gom:speed>0.0</gom:speed></extensions></trkpt>
   <trkpt lat="59.0727485877" lon="30.0278913904"><ele>98.085</ele><time>2026-04-20T19:13:28.075Z</time><hdop>9.875</hdop><vdop>2.937</vdop><extensions><gom:speed>0.0</gom:speed></extensions></trkpt>
   <trkpt lat="59.0727485877" lon="30.027891139"><ele>98.086</ele><time>2026-04-20T19:13:29.075Z</time><hdop>9.875</hdop><vdop>2.875</vdop><extensions><gom:speed>0.0</gom:speed></extensions></trkpt>
   <trkpt lat="59.0727485877" lon="30.0278910552"><ele>98.085</ele><time>2026-04-20T19:13:30.075Z</time><hdop>9.875</hdop><vdop>2.812</vdop><extensions><gom:speed>0.0</gom:speed></extensions></trkpt>
   <trkpt lat="59.0727485877" lon="30.0278909714"><ele>98.083</ele><time>2026-04-20T19:13:31.075Z</time><hdop>9.875</hdop><vdop>2.687</vdop><extensions><gom:speed>0.0</gom:speed></extensions></trkpt>
   <trkpt lat="59.0727485877" lon="30.0278907199"><ele>98.083</ele><time>2026-04-20T19:13:32.075Z</time><hdop>9.875</hdop><vdop>2.562</vdop><extensions><gom:speed>0.0</gom:speed></extensions></trkpt>
   <trkpt lat="59.0727485877" lon="30.0278906361"><ele>98.083</ele><time>2026-04-20T19:13:33.075Z</time><hdop>9.875</hdop><vdop>2.562</vdop><extensions><gom:speed>0.0</gom:speed></extensions></trkpt>
   <trkpt lat="59.0727484619" lon="30.0278905523"><ele>98.083</ele><time>2026-04-20T19:13:34.075Z</time><hdop>9.875</hdop><vdop>2.5</vdop><extensions><gom:speed>0.0</gom:speed></extensions></trkpt>
   <trkpt lat="59.0727484619" lon="30.0278903846"><ele>98.083</ele><time>2026-04-20T19:13:35.075Z</time><hdop>9.875</hdop><vdop>2.5</vdop><extensions><gom:speed>0.0</gom:speed></extensions></trkpt>
   <trkpt lat="59.0727484619" lon="30.027890217"><ele>98.083</ele><time>2026-04-20T19:13:36.075Z</time><hdop>9.875</hdop><vdop>2.5</vdop><extensions><gom:speed>0.0</gom:speed></extensions></trkpt>
   <trkpt lat="59.0727484619" lon="30.0278901332"><ele>98.083</ele><time>2026-04-20T19:13:37.075Z</time><hdop>9.875</hdop><vdop>2.5</vdop><extensions><gom:speed>0.0</gom:speed></extensions></trkpt>
   <trkpt lat="59.0727484619" lon="30.0278900493"><ele>98.081</ele><time>2026-04-20T19:13:38.075Z</time><hdop>9.875</hdop><vdop>2.5</vdop><extensions><gom:speed>0.0</gom:speed></extensions></trkpt>
   <trkpt lat="59.0727484619" lon="30.0278899655"><ele>98.08</ele><time>2026-04-20T19:13:39.075Z</time><hdop>9.875</hdop><vdop>2.5</vdop><extensions><gom:speed>0.0</gom:speed></extensions></trkpt>
   <trkpt lat="59.0727484619" lon="30.0278897979"><ele>98.078</ele><time>2026-04-20T19:13:40.076Z</time><hdop>9.875</hdop><vdop>2.5</vdop><extensions><gom:speed>0.0</gom:speed></extensions></trkpt>
   <trkpt lat="59.0727483781" lon="30.0278895464"><ele>98.077</ele><time>2026-04-20T19:13:41.075Z</time><hdop>9.875</hdop><vdop>2.5</vdop><extensions><gom:speed>0.0</gom:speed></extensions></trkpt>
   <trkpt lat="59.0727483781" lon="30.0278894626"><ele>98.076</ele><time>2026-04-20T19:13:42.075Z</time><hdop>9.875</hdop><vdop>2.5</vdop><extensions><gom:speed>0.0</gom:speed></extensions></trkpt>
   <trkpt lat="59.0727483781" lon="30.0278893788"><ele>98.075</ele><time>2026-04-20T19:13:43.076Z</time><hdop>9.875</hdop><vdop>2.5</vdop><extensions><gom:speed>0.0</gom:speed></extensions></trkpt>
   <trkpt lat="59.0727483781" lon="30.0278893788"><ele>98.072</ele><time>2026-04-20T19:13:44.075Z</time><hdop>9.875</hdop><vdop>2.5</vdop><extensions><gom:speed>0.0</gom:speed></extensions></trkpt>
   <trkpt lat="59.0727483781" lon="30.027889295"><ele>98.07</ele><time>2026-04-20T19:13:45.075Z</time><hdop>9.875</hdop><vdop>2.5</vdop><extensions><gom:speed>0.0</gom:speed></extensions></trkpt>
   <trkpt lat="59.0727483781" lon="30.0278891273"><ele>98.066</ele><time>2026-04-20T19:13:46.075Z</time><hdop>9.875</hdop><vdop>2.5</vdop><extensions><gom:speed>0.0</gom:speed></extensions></trkpt>
   <trkpt lat="59.0727483781" lon="30.0278891273"><ele>98.062</ele><time>2026-04-20T19:13:47.075Z</time><hdop>9.875</hdop><vdop>2.5</vdop><extensions><gom:speed>0.0</gom:speed></extensions></trkpt>
   <trkpt lat="59.0727482943" lon="30.0278890435"><ele>98.062</ele><time>2026-04-20T19:13:48.075Z</time><hdop>9.875</hdop><vdop>2.5</vdop><extensions><gom:speed>0.0</gom:speed></extensions></trkpt>
   <trkpt lat="59.0727482943" lon="30.0278888759"><ele>98.061</ele><time>2026-04-20T19:13:49.075Z</time><hdop>9.875</hdop><vdop>2.5</vdop><extensions><gom:speed>0.0</gom:speed></extensions></trkpt>
   <trkpt lat="59.0727482943" lon="30.0278886244"><ele>98.061</ele><time>2026-04-20T19:13:50.075Z</time><hdop>9.875</hdop><vdop>2.5</vdop><extensions><gom:speed>0.0</gom:speed></extensions></trkpt>
   <trkpt lat="59.0727482943" lon="30.0278884568"><ele>98.061</ele><time>2026-04-20T19:13:51.075Z</time><hdop>9.875</hdop><vdop>2.5</vdop><extensions><gom:speed>0.0</gom:speed></extensions></trkpt>
   <trkpt lat="59.0727481686" lon="30.027888373"><ele>98.061</ele><time>2026-04-20T19:13:52.075Z</time><hdop>9.875</hdop><vdop>2.5</vdop><extensions><gom:speed>0.0</gom:speed></extensions></trkpt>
   <trkpt lat="59.0727481686" lon="30.0278881215"><ele>98.061</ele><time>2026-04-20T19:13:53.075Z</time><hdop>9.875</hdop><vdop>2.5</vdop><extensions><gom:speed>0.0</gom:speed></extensions></trkpt>
   <trkpt lat="59.0727481686" lon="30.0278880377"><ele>98.061</ele><time>2026-04-20T19:13:54.075Z</time><hdop>9.875</hdop><vdop>2.5</vdop><extensions><gom:speed>0.0</gom:speed></extensions></trkpt>
   <trkpt lat="59.0727481686" lon="30.02788787"><ele>98.062</ele><time>2026-04-20T19:13:55.076Z</time><hdop>9.875</hdop><vdop>2.5</vdop><extensions><gom:speed>0.0</gom:speed></extensions></trkpt>
   <trkpt lat="59.0727480848" lon="30.0278877862"><ele>98.063</ele><time>2026-04-20T19:13:56.076Z</time><hdop>9.875</hdop><vdop>2.5</vdop><extensions><gom:speed>0.0</gom:speed></extensions></trkpt>
   <trkpt lat="59.0727480848" lon="30.0278875348"><ele>98.064</ele><time>2026-04-20T19:13:57.075Z</time><hdop>9.875</hdop><vdop>2.5</vdop><extensions><gom:speed>0.0</gom:speed></extensions></trkpt>
   <trkpt lat="59.0727480848" lon="30.0278873671"><ele>98.065</ele><time>2026-04-20T19:13:58.075Z</time><hdop>9.875</hdop><vdop>2.5</vdop><extensions><gom:speed>0.0</gom:speed></extensions></trkpt>
   <trkpt lat="59.072747959" lon="30.0278871995"><ele>98.066</ele><time>2026-04-20T19:13:59.075Z</time><hdop>9.875</hdop><vdop>2.5</vdop><extensions><gom:speed>0.0</gom:speed></extensions></trkpt>
   <trkpt lat="59.072747959" lon="30.0278870319"><ele>98.067</ele><time>2026-04-20T19:14:00.075Z</time><hdop>9.875</hdop><vdop>2.5</vdop><extensions><gom:speed>0.0</gom:speed></extensions></trkpt>
   <trkpt lat="59.072747959" lon="30.0278868642"><ele>98.067</ele><time>2026-04-20T19:14:01.075Z</time><hdop>9.875</hdop><vdop>2.5</vdop><extensions><gom:speed>0.0</gom:speed></extensions></trkpt>
   <trkpt lat="59.072747959" lon="30.0278867804"><ele>98.068</ele><time>2026-04-20T19:14:02.075Z</time><hdop>9.875</hdop><vdop>2.5</vdop><extensions><gom:speed>0.0</gom:speed></extensions></trkpt>
   <trkpt lat="59.0727478752" lon="30.0278866966"><ele>98.07</ele><time>2026-04-20T19:14:03.075Z</time><hdop>9.875</hdop><vdop>2.5</vdop><extensions><gom:speed>0.0</gom:speed></extensions></trkpt>
   <trkpt lat="59.0727478752" lon="30.0278864451"><ele>98.072</ele><time>2026-04-20T19:14:04.076Z</time><hdop>9.875</hdop><vdop>2.5</vdop><extensions><gom:speed>0.0</gom:speed></extensions></trkpt>
   <trkpt lat="59.0727478752" lon="30.0278863613"><ele>98.074</ele><time>2026-04-20T19:14:05.075Z</time><hdop>9.875</hdop><vdop>2.5</vdop><extensions><gom:speed>0.0</gom:speed></extensions></trkpt>
   <trkpt lat="59.0727477914" lon="30.0278861937"><ele>98.076</ele><time>2026-04-20T19:14:06.076Z</time><hdop>9.875</hdop><vdop>2.5</vdop><extensions><gom:speed>0.0</gom:speed></extensions></trkpt>
   <trkpt lat="59.0727477914" lon="30.027886026"><ele>98.077</ele><time>2026-04-20T19:14:07.075Z</time><hdop>9.875</hdop><vdop>2.5</vdop><extensions><gom:speed>0.0</gom:speed></extensions></trkpt>
   <trkpt lat="59.0727477914" lon="30.0278859422"><ele>98.077</ele><time>2026-04-20T19:14:08.075Z</time><hdop>9.875</hdop><vdop>2.5</vdop><extensions><gom:speed>0.0</gom:speed></extensions></trkpt>
   <trkpt lat="59.0727477914" lon="30.0278857746"><ele>98.077</ele><time>2026-04-20T19:14:09.075Z</time><hdop>9.875</hdop><vdop>2.5</vdop><extensions><gom:speed>0.0</gom:speed></extensions></trkpt>
   <trkpt lat="59.0727477914" lon="30.0278855231"><ele>98.079</ele><time>2026-04-20T19:14:10.075Z</time><hdop>9.875</hdop><vdop>2.5</vdop><extensions><gom:speed>0.0</gom:speed></extensions></trkpt>
   <trkpt lat="59.0727476657" lon="30.0278854393"><ele>98.08</ele><time>2026-04-20T19:14:11.075Z</time><hdop>9.875</hdop><vdop>2.5</vdop><extensions><gom:speed>0.0</gom:speed></extensions></trkpt>
   <trkpt lat="59.0727476657" lon="30.0278852717"><ele>98.081</ele><time>2026-04-20T19:14:12.075Z</time><hdop>9.875</hdop><vdop>2.5</vdop><extensions><gom:speed>0.0</gom:speed></extensions></trkpt>
   <trkpt lat="59.0727477914" lon="30.0278851878"><ele>98.08</ele><time>2026-04-20T19:14:13.076Z</time><hdop>9.875</hdop><vdop>2.5</vdop><extensions><gom:speed>0.0</gom:speed></extensions></trkpt>
   <trkpt lat="59.0727477914" lon="30.0278850202"><ele>98.079</ele><time>2026-04-20T19:14:14.075Z</time><hdop>9.875</hdop><vdop>2.5</vdop><extensions><gom:speed>0.0</gom:speed></extensions></trkpt>
   <trkpt lat="59.0727477914" lon="30.0278848526"><ele>98.077</ele><time>2026-04-20T19:14:15.075Z</time><hdop>9.875</hdop><vdop>2.5</vdop><extensions><gom:speed>0.0</gom:speed></extensions></trkpt>
   <trkpt lat="59.0727476657" lon="30.0278848526"><ele>98.077</ele><time>2026-04-20T19:14:16.075Z</time><hdop>9.875</hdop><vdop>2.562</vdop><extensions><gom:speed>0.0</gom:speed></extensions></trkpt>
   <trkpt lat="59.0727476657" lon="30.0278847687"><ele>98.076</ele><time>2026-04-20T19:14:17.076Z</time><hdop>9.875</hdop><vdop>2.75</vdop><extensions><gom:speed>0.0</gom:speed></extensions></trkpt>
   <trkpt lat="59.0727476657" lon="30.0278846849"><ele>98.074</ele><time>2026-04-20T19:14:18.075Z</time><hdop>9.875</hdop><vdop>2.625</vdop><extensions><gom:speed>0.0</gom:speed></extensions></trkpt>
   <trkpt lat="59.0727476657" lon="30.0278845173"><ele>98.074</ele><time>2026-04-20T19:14:19.075Z</time><hdop>9.875</hdop><vdop>2.687</vdop><extensions><gom:speed>0.0</gom:speed></extensions></trkpt>
   <trkpt lat="59.0727476657" lon="30.0278844335"><ele>98.074</ele><time>2026-04-20T19:14:20.075Z</time><hdop>9.875</hdop><vdop>2.562</vdop><extensions><gom:speed>0.0</gom:speed></extensions></trkpt>
   <trkpt lat="59.0727476657" lon="30.0278843496"><ele>98.073</ele><time>2026-04-20T19:14:21.076Z</time><hdop>9.875</hdop><vdop>2.5</vdop><extensions><gom:speed>0.0</gom:speed></extensions></trkpt>
   <trkpt lat="59.0727476657" lon="30.0278842658"><ele>98.071</ele><time>2026-04-20T19:14:22.075Z</time><hdop>9.875</hdop><vdop>2.5</vdop><extensions><gom:speed>0.0</gom:speed></extensions></trkpt>
   <trkpt lat="59.0727476657" lon="30.027884182"><ele>98.07</ele><time>2026-04-20T19:14:23.075Z</time><hdop>9.875</hdop><vdop>2.5</vdop><extensions><gom:speed>0.0</gom:speed></extensions></trkpt>
   <trkpt lat="59.0727476657" lon="30.0278840982"><ele>98.068</ele><time>2026-04-20T19:14:24.076Z</time><hdop>9.875</hdop><vdop>2.5</vdop><extensions><gom:speed>0.0</gom:speed></extensions></trkpt>
   <trkpt lat="59.0727475818" lon="30.0278839306"><ele>98.069</ele><time>2026-04-20T19:14:25.075Z</time><hdop>9.875</hdop><vdop>2.5</vdop><extensions><gom:speed>0.0</gom:speed></extensions></trkpt>
   <trkpt lat="59.0727475818" lon="30.0278838467"><ele>98.069</ele><time>2026-04-20T19:14:26.075Z</time><hdop>9.875</hdop><vdop>2.5</vdop><extensions><gom:speed>0.0</gom:speed></extensions></trkpt>
   <trkpt lat="59.0727475818" lon="30.0278837629"><ele>98.07</ele><time>2026-04-20T19:14:27.076Z</time><hdop>9.875</hdop><vdop>2.5</vdop><extensions><gom:speed>0.0</gom:speed></extensions></trkpt>
   <trkpt lat="59.0727475818" lon="30.0278836791"><ele>98.073</ele><time>2026-04-20T19:14:28.075Z</time><hdop>9.875</hdop><vdop>2.562</vdop><extensions><gom:speed>0.0</gom:speed></extensions></trkpt>
   <trkpt lat="59.0727475818" lon="30.0278834276"><ele>98.077</ele><time>2026-04-20T19:14:29.075Z</time><hdop>9.875</hdop><vdop>2.562</vdop><extensions><gom:speed>0.0</gom:speed></extensions></trkpt>
   <trkpt lat="59.072747498" lon="30.02788326"><ele>98.081</ele><time>2026-04-20T19:14:30.076Z</time><hdop>9.875</hdop><vdop>2.562</vdop><extensions><gom:speed>0.0</gom:speed></extensions></trkpt>
   <trkpt lat="59.072747498" lon="30.0278831762"><ele>98.087</ele><time>2026-04-20T19:14:31.075Z</time><hdop>9.875</hdop><vdop>2.562</vdop><extensions><gom:speed>0.0</gom:speed></extensions></trkpt>
   <trkpt lat="59.072747498" lon="30.0278829247"><ele>98.094</ele><time>2026-04-20T19:14:32.075Z</time><hdop>9.875</hdop><vdop>2.75</vdop><extensions><gom:speed>0.0</gom:speed></extensions></trkpt>
   <trkpt lat="59.0727473723" lon="30.0278826733"><ele>98.101</ele><time>2026-04-20T19:14:33.075Z</time><hdop>9.875</hdop><vdop>2.75</vdop><extensions><gom:speed>0.0</gom:speed></extensions></trkpt>
   <trkpt lat="59.0727473723" lon="30.0278825894"><ele>98.105</ele><time>2026-04-20T19:14:34.076Z</time><hdop>9.875</hdop><vdop>2.687</vdop><extensions><gom:speed>0.0</gom:speed></extensions></trkpt>
   <trkpt lat="59.0727472885" lon="30.027882338"><ele>98.108</ele><time>2026-04-20T19:14:35.076Z</time><hdop>9.875</hdop><vdop>2.687</vdop><extensions><gom:speed>0.0</gom:speed></extensions></trkpt>
   <trkpt lat="59.0727472885" lon="30.0278821704"><ele>98.109</ele><time>2026-04-20T19:14:36.075Z</time><hdop>9.875</hdop><vdop>2.5</vdop><extensions><gom:speed>0.0</gom:speed></extensions></trkpt>
   <trkpt lat="59.0727472885" lon="30.0278819189"><ele>98.11</ele><time>2026-04-20T19:14:37.075Z</time><hdop>9.875</hdop><vdop>2.5</vdop><extensions><gom:speed>0.0</gom:speed></extensions></trkpt>
   <trkpt lat="59.0727472885" lon="30.0278818351"><ele>98.109</ele><time>2026-04-20T19:14:38.075Z</time><hdop>9.875</hdop><vdop>2.5</vdop><extensions><gom:speed>0.0</gom:speed></extensions></trkpt>
   <trkpt lat="59.0727472885" lon="30.0278817513"><ele>98.108</ele><time>2026-04-20T19:14:39.075Z</time><hdop>9.875</hdop><vdop>2.5</vdop><extensions><gom:speed>0.0</gom:speed></extensions></trkpt>
   <trkpt lat="59.0727472885" lon="30.0278816674"><ele>98.108</ele><time>2026-04-20T19:14:40.075Z</time><hdop>9.875</hdop><vdop>2.5</vdop><extensions><gom:speed>0.0</gom:speed></extensions></trkpt>
   <trkpt lat="59.0727472885" lon="30.0278815836"><ele>98.109</ele><time>2026-04-20T19:14:41.075Z</time><hdop>9.875</hdop><vdop>2.5</vdop><extensions><gom:speed>0.0</gom:speed></extensions></trkpt>
   <trkpt lat="59.0727472885" lon="30.0278814998"><ele>98.109</ele><time>2026-04-20T19:14:42.075Z</time><hdop>9.875</hdop><vdop>2.5</vdop><extensions><gom:speed>0.0</gom:speed></extensions></trkpt>
   <trkpt lat="59.0727472885" lon="30.0278813322"><ele>98.109</ele><time>2026-04-20T19:14:43.075Z</time><hdop>9.875</hdop><vdop>2.5</vdop><extensions><gom:speed>0.0</gom:speed></extensions></trkpt>
   <trkpt lat="59.0727471627" lon="30.0278812483"><ele>98.109</ele><time>2026-04-20T19:14:44.076Z</time><hdop>9.875</hdop><vdop>2.5</vdop><extensions><gom:speed>0.0</gom:speed></extensions></trkpt>
   <trkpt lat="59.0727471627" lon="30.0278811645"><ele>98.108</ele><time>2026-04-20T19:14:45.075Z</time><hdop>9.875</hdop><vdop>2.5</vdop><extensions><gom:speed>0.0</gom:speed></extensions></trkpt>
   <trkpt lat="59.0727471627" lon="30.0278809969"><ele>98.107</ele><time>2026-04-20T19:14:46.075Z</time><hdop>9.875</hdop><vdop>2.5</vdop><extensions><gom:speed>0.0</gom:speed></extensions></trkpt>
   <trkpt lat="59.0727471627" lon="30.0278808292"><ele>98.106</ele><time>2026-04-20T19:14:47.076Z</time><hdop>9.875</hdop><vdop>2.5</vdop><extensions><gom:speed>0.0</gom:speed></extensions></trkpt>
   <trkpt lat="59.0727471627" lon="30.0278807454"><ele>98.105</ele><time>2026-04-20T19:14:48.075Z</time><hdop>9.875</hdop><vdop>2.5</vdop><extensions><gom:speed>0.0</gom:speed></extensions></trkpt>
   <trkpt lat="59.0727471627" lon="30.0278806616"><ele>98.104</ele><time>2026-04-20T19:14:49.076Z</time><hdop>9.875</hdop><vdop>2.5</vdop><extensions><gom:speed>0.0</gom:speed></extensions></trkpt>
   <trkpt lat="59.0727471627" lon="30.0278805778"><ele>98.103</ele><time>2026-04-20T19:14:50.075Z</time><hdop>9.875</hdop><vdop>2.5</vdop><extensions><gom:speed>0.0</gom:speed></extensions></trkpt>
   <trkpt lat="59.0727471627" lon="30.0278805778"><ele>98.102</ele><time>2026-04-20T19:14:51.075Z</time><hdop>9.875</hdop><vdop>2.5</vdop><extensions><gom:speed>0.0</gom:speed></extensions></trkpt>
   <trkpt lat="59.0727471627" lon="30.027880494"><ele>98.101</ele><time>2026-04-20T19:14:52.075Z</time><hdop>9.875</hdop><vdop>2.5</vdop><extensions><gom:speed>0.0</gom:speed></extensions></trkpt>
   <trkpt lat="59.0727471627" lon="30.0278802425"><ele>98.1</ele><time>2026-04-20T19:14:53.075Z</time><hdop>9.875</hdop><vdop>2.5</vdop><extensions><gom:speed>0.0</gom:speed></extensions></trkpt>
   <trkpt lat="59.0727470789" lon="30.0278802425"><ele>98.099</ele><time>2026-04-20T19:14:54.075Z</time><hdop>9.875</hdop><vdop>2.5</vdop><extensions><gom:speed>0.0</gom:speed></extensions></trkpt>
   <trkpt lat="59.0727470789" lon="30.0278800749"><ele>98.099</ele><time>2026-04-20T19:14:55.076Z</time><hdop>9.875</hdop><vdop>2.5</vdop><extensions><gom:speed>0.0</gom:speed></extensions></trkpt>
   <trkpt lat="59.0727470789" lon="30.0278799911"><ele>98.1</ele><time>2026-04-20T19:14:56.075Z</time><hdop>9.875</hdop><vdop>2.5</vdop><extensions><gom:speed>0.0</gom:speed></extensions></trkpt>
   <trkpt lat="59.0727470789" lon="30.0278798234"><ele>98.101</ele><time>2026-04-20T19:14:57.075Z</time><hdop>9.875</hdop><vdop>2.5</vdop><extensions><gom:speed>0.0</gom:speed></extensions></trkpt>
   <trkpt lat="59.0727470789" lon="30.0278797396"><ele>98.103</ele><time>2026-04-20T19:14:58.075Z</time><hdop>9.875</hdop><vdop>2.5</vdop><extensions><gom:speed>0.0</gom:speed></extensions></trkpt>
   <trkpt lat="59.0727470789" lon="30.027879572"><ele>98.106</ele><time>2026-04-20T19:14:59.075Z</time><hdop>9.875</hdop><vdop>2.5</vdop><extensions><gom:speed>0.0</gom:speed></extensions></trkpt>
   <trkpt lat="59.0727469951" lon="30.0278794881"><ele>98.109</ele><time>2026-04-20T19:15:00.076Z</time><hdop>9.875</hdop><vdop>2.5</vdop><extensions><gom:speed>0.0</gom:speed></extensions></trkpt>
   <trkpt lat="59.0727469951" lon="30.0278792367"><ele>98.112</ele><time>2026-04-20T19:15:01.075Z</time><hdop>9.875</hdop><vdop>2.5</vdop><extensions><gom:speed>0.0</gom:speed></extensions></trkpt>
   <trkpt lat="59.0727469951" lon="30.0278791529"><ele>98.114</ele><time>2026-04-20T19:15:02.076Z</time><hdop>9.875</hdop><vdop>2.5</vdop><extensions><gom:speed>0.0</gom:speed></extensions></trkpt>
   <trkpt lat="59.0727469951" lon="30.0278789852"><ele>98.119</ele><time>2026-04-20T19:15:03.076Z</time><hdop>9.875</hdop><vdop>2.5</vdop><extensions><gom:speed>0.0</gom:speed></extensions></trkpt>
   <trkpt lat="59.0727468694" lon="30.0278787338"><ele>98.123</ele><time>2026-04-20T19:15:04.075Z</time><hdop>9.875</hdop><vdop>2.5</vdop><extensions><gom:speed>0.0</gom:speed></extensions></trkpt>
   <trkpt lat="59.0727468694" lon="30.0278785661"><ele>98.128</ele><time>2026-04-20T19:15:05.075Z</time><hdop>9.875</hdop><vdop>2.5</vdop><extensions><gom:speed>0.0</gom:speed></extensions></trkpt>
   <trkpt lat="59.0727468694" lon="30.0278783985"><ele>98.131</ele><time>2026-04-20T19:15:06.075Z</time><hdop>9.875</hdop><vdop>2.5</vdop><extensions><gom:speed>0.0</gom:speed></extensions></trkpt>
   <trkpt lat="59.0727468694" lon="30.0278782309"><ele>98.134</ele><time>2026-04-20T19:15:07.075Z</time><hdop>9.875</hdop><vdop>2.5</vdop><extensions><gom:speed>0.0</gom:speed></extensions></trkpt>
   <trkpt lat="59.0727468694" lon="30.0278780632"><ele>98.138</ele><time>2026-04-20T19:15:08.075Z</time><hdop>9.875</hdop><vdop>2.5</vdop><extensions><gom:speed>0.0</gom:speed></extensions></trkpt>
   <trkpt lat="59.0727467856" lon="30.0278779794"><ele>98.142</ele><time>2026-04-20T19:15:09.075Z</time><hdop>9.875</hdop><vdop>2.5</vdop><extensions><gom:speed>0.0</gom:speed></extensions></trkpt>
   <trkpt lat="59.0727467856" lon="30.0278777279"><ele>98.146</ele><time>2026-04-20T19:15:10.075Z</time><hdop>9.875</hdop><vdop>2.5</vdop><extensions><gom:speed>0.0</gom:speed></extensions></trkpt>
   <trkpt lat="59.0727467856" lon="30.0278775603"><ele>98.151</ele><time>2026-04-20T19:15:11.075Z</time><hdop>9.875</hdop><vdop>2.5</vdop><extensions><gom:speed>0.0</gom:speed></extensions></trkpt>
   <trkpt lat="59.0727467856" lon="30.0278773927"><ele>98.154</ele><time>2026-04-20T19:15:12.075Z</time><hdop>9.875</hdop><vdop>2.5</vdop><extensions><gom:speed>0.0</gom:speed></extensions></trkpt>
   <trkpt lat="59.0727466598" lon="30.0278771412"><ele>98.155</ele><time>2026-04-20T19:15:13.075Z</time><hdop>9.875</hdop><vdop>2.5</vdop><extensions><gom:speed>0.0</gom:speed></extensions></trkpt>
   <trkpt lat="59.0727466598" lon="30.0278769736"><ele>98.157</ele><time>2026-04-20T19:15:14.075Z</time><hdop>9.875</hdop><vdop>2.5</vdop><extensions><gom:speed>0.0</gom:speed></extensions></trkpt>
   <trkpt lat="59.0727466598" lon="30.0278767221"><ele>98.159</ele><time>2026-04-20T19:15:15.075Z</time><hdop>9.875</hdop><vdop>2.5</vdop><extensions><gom:speed>0.0</gom:speed></extensions></trkpt>
   <trkpt lat="59.0727466598" lon="30.0278765545"><ele>98.162</ele><time>2026-04-20T19:15:16.076Z</time><hdop>9.875</hdop><vdop>2.5</vdop><extensions><gom:speed>0.0</gom:speed></extensions></trkpt>
   <trkpt lat="59.0727466598" lon="30.0278763868"><ele>98.163</ele><time>2026-04-20T19:15:17.075Z</time><hdop>9.875</hdop><vdop>2.5</vdop><extensions><gom:speed>0.0</gom:speed></extensions></trkpt>
   <trkpt lat="59.0727466598" lon="30.0278761354"><ele>98.164</ele><time>2026-04-20T19:15:18.075Z</time><hdop>9.875</hdop><vdop>2.5</vdop><extensions><gom:speed>0.0</gom:speed></extensions></trkpt>
   <trkpt lat="59.0727466598" lon="30.0278760516"><ele>98.165</ele><time>2026-04-20T19:15:19.075Z</time><hdop>9.875</hdop><vdop>2.5</vdop><extensions><gom:speed>0.0</gom:speed></extensions></trkpt>
   <trkpt lat="59.0727466598" lon="30.0278758839"><ele>98.164</ele><time>2026-04-20T19:15:20.075Z</time><hdop>9.875</hdop><vdop>2.5</vdop><extensions><gom:speed>0.0</gom:speed></extensions></trkpt>
   <trkpt lat="59.0727466598" lon="30.0278757163"><ele>98.164</ele><time>2026-04-20T19:15:21.075Z</time><hdop>9.875</hdop><vdop>2.5</vdop><extensions><gom:speed>0.0</gom:speed></extensions></trkpt>
   <trkpt lat="59.0727466598" lon="30.0278756325"><ele>98.166</ele><time>2026-04-20T19:15:22.075Z</time><hdop>9.875</hdop><vdop>2.5</vdop><extensions><gom:speed>0.0</gom:speed></extensions></trkpt>
   <trkpt lat="59.0727466598" lon="30.0278755487"><ele>98.17</ele><time>2026-04-20T19:15:23.075Z</time><hdop>9.875</hdop><vdop>2.5</vdop><extensions><gom:speed>0.0</gom:speed></extensions></trkpt>
   <trkpt lat="59.0727466598" lon="30.027875381"><ele>98.176</ele><time>2026-04-20T19:15:24.075Z</time><hdop>9.875</hdop><vdop>2.5</vdop><extensions><gom:speed>0.0</gom:speed></extensions></trkpt>
   <trkpt lat="59.0727466598" lon="30.0278752972"><ele>98.18</ele><time>2026-04-20T19:15:25.075Z</time><hdop>9.875</hdop><vdop>2.5</vdop><extensions><gom:speed>0.0</gom:speed></extensions></trkpt>
   <trkpt lat="59.0727466598" lon="30.0278751296"><ele>98.185</ele><time>2026-04-20T19:15:26.075Z</time><hdop>9.875</hdop><vdop>2.5</vdop><extensions><gom:speed>0.0</gom:speed></extensions></trkpt>
   <trkpt lat="59.0727466598" lon="30.0278749619"><ele>98.189</ele><time>2026-04-20T19:15:27.075Z</time><hdop>9.875</hdop><vdop>2.5</vdop><extensions><gom:speed>0.0</gom:speed></extensions></trkpt>
   <trkpt lat="59.0727466598" lon="30.0278748781"><ele>98.192</ele><time>2026-04-20T19:15:28.075Z</time><hdop>9.875</hdop><vdop>2.5</vdop><extensions><gom:speed>0.0</gom:speed></extensions></trkpt>
   <trkpt lat="59.0727466598" lon="30.0278748781"><ele>98.195</ele><time>2026-04-20T19:15:29.075Z</time><hdop>9.875</hdop><vdop>2.5</vdop><extensions><gom:speed>0.0</gom:speed></extensions></trkpt>
   <trkpt lat="59.0727466598" lon="30.0278747943"><ele>98.197</ele><time>2026-04-20T19:15:30.075Z</time><hdop>9.875</hdop><vdop>2.5</vdop><extensions><gom:speed>0.0</gom:speed></extensions></trkpt>
   <trkpt lat="59.0727466598" lon="30.0278746266"><ele>98.199</ele><time>2026-04-20T19:15:31.075Z</time><hdop>9.875</hdop><vdop>2.5</vdop><extensions><gom:speed>0.0</gom:speed></extensions></trkpt>
   <trkpt lat="59.0727466598" lon="30.0278745428"><ele>98.2</ele><time>2026-04-20T19:15:32.075Z</time><hdop>9.875</hdop><vdop>2.5</vdop><extensions><gom:speed>0.0</gom:speed></extensions></trkpt>
   <trkpt lat="59.0727466598" lon="30.027874459"><ele>98.201</ele><time>2026-04-20T19:15:33.075Z</time><hdop>9.875</hdop><vdop>2.5</vdop><extensions><gom:speed>0.0</gom:speed></extensions></trkpt>
   <trkpt lat="59.0727466598" lon="30.0278743752"><ele>98.203</ele><time>2026-04-20T19:15:34.075Z</time><hdop>9.875</hdop><vdop>2.5</vdop><extensions><gom:speed>0.0</gom:speed></extensions></trkpt>
   <trkpt lat="59.072746576" lon="30.0278742914"><ele>98.204</ele><time>2026-04-20T19:15:35.075Z</time><hdop>9.875</hdop><vdop>2.5</vdop><extensions><gom:speed>0.0</gom:speed></extensions></trkpt>
   <trkpt lat="59.072746576" lon="30.0278740399"><ele>98.207</ele><time>2026-04-20T19:15:36.075Z</time><hdop>9.875</hdop><vdop>2.5</vdop><extensions><gom:speed>0.0</gom:speed></extensions></trkpt>
   <trkpt lat="59.072746576" lon="30.0278739561"><ele>98.209</ele><time>2026-04-20T19:15:37.075Z</time><hdop>9.875</hdop><vdop>2.5</vdop><extensions><gom:speed>0.0</gom:speed></extensions></trkpt>
   <trkpt lat="59.072746576" lon="30.0278737885"><ele>98.212</ele><time>2026-04-20T19:15:38.075Z</time><hdop>9.875</hdop><vdop>2.5</vdop><extensions><gom:speed>0.0</gom:speed></extensions></trkpt>
   <trkpt lat="59.072746576" lon="30.0278736208"><ele>98.214</ele><time>2026-04-20T19:15:39.075Z</time><hdop>9.875</hdop><vdop>2.5</vdop><extensions><gom:speed>0.0</gom:speed></extensions></trkpt>
   <trkpt lat="59.072746576" lon="30.0278734532"><ele>98.213</ele><time>2026-04-20T19:15:40.076Z</time><hdop>9.875</hdop><vdop>2.5</vdop><extensions><gom:speed>0.0</gom:speed></extensions></trkpt>
   <trkpt lat="59.072746576" lon="30.0278734532"><ele>98.213</ele><time>2026-04-20T19:15:41.075Z</time><hdop>9.875</hdop><vdop>2.5</vdop><extensions><gom:speed>0.0</gom:speed></extensions></trkpt>
   <trkpt lat="59.072746576" lon="30.0278733694"><ele>98.213</ele><time>2026-04-20T19:15:42.076Z</time><hdop>9.875</hdop><vdop>2.5</vdop><extensions><gom:speed>0.0</gom:speed></extensions></trkpt>
   <trkpt lat="59.072746576" lon="30.0278732855"><ele>98.216</ele><time>2026-04-20T19:15:43.075Z</time><hdop>9.875</hdop><vdop>2.5</vdop><extensions><gom:speed>0.0</gom:speed></extensions></trkpt>
   <trkpt lat="59.072746576" lon="30.0278731179"><ele>98.218</ele><time>2026-04-20T19:15:44.075Z</time><hdop>9.875</hdop><vdop>2.5</vdop><extensions><gom:speed>0.0</gom:speed></extensions></trkpt>
   <trkpt lat="59.072746576" lon="30.0278729503"><ele>98.221</ele><time>2026-04-20T19:15:45.075Z</time><hdop>9.875</hdop><vdop>2.5</vdop><extensions><gom:speed>0.0</gom:speed></extensions></trkpt>
   <trkpt lat="59.0727464922" lon="30.0278728664"><ele>98.224</ele><time>2026-04-20T19:15:46.075Z</time><hdop>9.875</hdop><vdop>2.5</vdop><extensions><gom:speed>0.0</gom:speed></extensions></trkpt>
   <trkpt lat="59.0727464922" lon="30.0278727826"><ele>98.229</ele><time>2026-04-20T19:15:47.075Z</time><hdop>9.875</hdop><vdop>2.5</vdop><extensions><gom:speed>0.0</gom:speed></extensions></trkpt>
   <trkpt lat="59.0727464922" lon="30.0278725312"><ele>98.233</ele><time>2026-04-20T19:15:48.076Z</time><hdop>9.875</hdop><vdop>2.5</vdop><extensions><gom:speed>0.0</gom:speed></extensions></trkpt>
   <trkpt lat="59.0727464922" lon="30.0278724473"><ele>98.238</ele><time>2026-04-20T19:15:49.076Z</time><hdop>9.875</hdop><vdop>2.5</vdop><extensions><gom:speed>0.0</gom:speed></extensions></trkpt>
   <trkpt lat="59.0727464922" lon="30.0278722797"><ele>98.243</ele><time>2026-04-20T19:15:50.075Z</time><hdop>9.875</hdop><vdop>2.5</vdop><extensions><gom:speed>0.0</gom:speed></extensions></trkpt>
   <trkpt lat="59.0727464922" lon="30.0278720283"><ele>98.249</ele><time>2026-04-20T19:15:51.075Z</time><hdop>9.875</hdop><vdop>2.5</vdop><extensions><gom:speed>0.0</gom:speed></extensions></trkpt>
   <trkpt lat="59.0727464922" lon="30.0278718606"><ele>98.254</ele><time>2026-04-20T19:15:52.075Z</time><hdop>9.875</hdop><vdop>2.5</vdop><extensions><gom:speed>0.0</gom:speed></extensions></trkpt>
   <trkpt lat="59.0727464922" lon="30.0278717768"><ele>98.259</ele><time>2026-04-20T19:15:53.075Z</time><hdop>9.875</hdop><vdop>2.5</vdop><extensions><gom:speed>0.0</gom:speed></extensions></trkpt>
   <trkpt lat="59.0727463665" lon="30.0278715253"><ele>98.262</ele><time>2026-04-20T19:15:54.075Z</time><hdop>9.875</hdop><vdop>2.5</vdop><extensions><gom:speed>0.0</gom:speed></extensions></trkpt>
   <trkpt lat="59.0727464922" lon="30.0278714415"><ele>98.267</ele><time>2026-04-20T19:15:55.075Z</time><hdop>9.875</hdop><vdop>2.5</vdop><extensions><gom:speed>0.0</gom:speed></extensions></trkpt>
   <trkpt lat="59.0727464922" lon="30.0278713577"><ele>98.27</ele><time>2026-04-20T19:15:56.075Z</time><hdop>9.875</hdop><vdop>2.5</vdop><extensions><gom:speed>0.0</gom:speed></extensions></trkpt>
   <trkpt lat="59.0727463665" lon="30.0278712739"><ele>98.273</ele><time>2026-04-20T19:15:57.075Z</time><hdop>9.875</hdop><vdop>2.875</vdop><extensions><gom:speed>0.0</gom:speed></extensions></trkpt>
   <trkpt lat="59.0727464922" lon="30.0278711901"><ele>98.275</ele><time>2026-04-20T19:15:58.075Z</time><hdop>9.937</hdop><vdop>3.312</vdop><extensions><gom:speed>0.0</gom:speed></extensions></trkpt>
   <trkpt lat="59.0727464922" lon="30.0278711901"><ele>98.276</ele><time>2026-04-20T19:15:59.075Z</time><hdop>9.937</hdop><vdop>3.75</vdop><extensions><gom:speed>0.0</gom:speed></extensions></trkpt>
   <trkpt lat="59.0727464922" lon="30.0278710224"><ele>98.277</ele><time>2026-04-20T19:16:00.075Z</time><hdop>10.0</hdop><vdop>4.062</vdop><extensions><gom:speed>0.0</gom:speed></extensions></trkpt>
   <trkpt lat="59.0727464922" lon="30.0278709386"><ele>98.277</ele><time>2026-04-20T19:16:01.075Z</time><hdop>10.062</hdop><vdop>3.812</vdop><extensions><gom:speed>0.0</gom:speed></extensions></trkpt>
   <trkpt lat="59.0727464922" lon="30.0278708548"><ele>98.279</ele><time>2026-04-20T19:16:02.076Z</time><hdop>10.062</hdop><vdop>3.812</vdop><extensions><gom:speed>0.0</gom:speed></extensions></trkpt>
   <trkpt lat="59.0727464922" lon="30.0278706871"><ele>98.284</ele><time>2026-04-20T19:16:03.075Z</time><hdop>10.062</hdop><vdop>3.687</vdop><extensions><gom:speed>0.0</gom:speed></extensions></trkpt>
   <trkpt lat="59.0727463665" lon="30.0278704357"><ele>98.289</ele><time>2026-04-20T19:16:04.075Z</time><hdop>10.062</hdop><vdop>3.562</vdop><extensions><gom:speed>0.0</gom:speed></extensions></trkpt>
   <trkpt lat="59.0727463665" lon="30.0278702681"><ele>98.292</ele><time>2026-04-20T19:16:05.076Z</time><hdop>10.062</hdop><vdop>3.437</vdop><extensions><gom:speed>0.0</gom:speed></extensions></trkpt>
   <trkpt lat="59.0727463665" lon="30.0278699328"><ele>98.297</ele><time>2026-04-20T19:16:06.075Z</time><hdop>10.062</hdop><vdop>3.437</vdop><extensions><gom:speed>0.0</gom:speed></extensions></trkpt>
   <trkpt lat="59.0727462826" lon="30.0278697651"><ele>98.302</ele><time>2026-04-20T19:16:07.075Z</time><hdop>10.0</hdop><vdop>3.562</vdop><extensions><gom:speed>0.0</gom:speed></extensions></trkpt>
   <trkpt lat="59.0727462826" lon="30.0278695975"><ele>98.307</ele><time>2026-04-20T19:16:08.075Z</time><hdop>10.0</hdop><vdop>3.437</vdop><extensions><gom:speed>0.0</gom:speed></extensions></trkpt>
   <trkpt lat="59.0727461988" lon="30.0278692622"><ele>98.31</ele><time>2026-04-20T19:16:09.075Z</time><hdop>10.0</hdop><vdop>3.375</vdop><extensions><gom:speed>0.0</gom:speed></extensions></trkpt>
   <trkpt lat="59.0727461988" lon="30.0278690946"><ele>98.311</ele><time>2026-04-20T19:16:10.075Z</time><hdop>9.937</hdop><vdop>3.312</vdop><extensions><gom:speed>0.0</gom:speed></extensions></trkpt>
   <trkpt lat="59.0727461988" lon="30.0278689269"><ele>98.312</ele><time>2026-04-20T19:16:11.075Z</time><hdop>9.937</hdop><vdop>3.187</vdop><extensions><gom:speed>0.0</gom:speed></extensions></trkpt>
   <trkpt lat="59.0727461988" lon="30.0278688431"><ele>98.312</ele><time>2026-04-20T19:16:12.075Z</time><hdop>9.937</hdop><vdop>3.125</vdop><extensions><gom:speed>0.0</gom:speed></extensions></trkpt>
   <trkpt lat="59.0727461988" lon="30.0278686755"><ele>98.312</ele><time>2026-04-20T19:16:13.075Z</time><hdop>9.937</hdop><vdop>3.125</vdop><extensions><gom:speed>0.0</gom:speed></extensions></trkpt>
   <trkpt lat="59.0727461988" lon="30.0278685917"><ele>98.311</ele><time>2026-04-20T19:16:14.076Z</time><hdop>9.937</hdop><vdop>3.125</vdop><extensions><gom:speed>0.0</gom:speed></extensions></trkpt>
   <trkpt lat="59.0727461988" lon="30.027868424"><ele>98.31</ele><time>2026-04-20T19:16:15.075Z</time><hdop>9.875</hdop><vdop>3.187</vdop><extensions><gom:speed>0.0</gom:speed></extensions></trkpt>
   <trkpt lat="59.0727461988" lon="30.027868424"><ele>98.308</ele><time>2026-04-20T19:16:16.075Z</time><hdop>9.875</hdop><vdop>3.0</vdop><extensions><gom:speed>0.0</gom:speed></extensions></trkpt>
   <trkpt lat="59.0727461988" lon="30.027868424"><ele>98.306</ele><time>2026-04-20T19:16:17.076Z</time><hdop>9.875</hdop><vdop>2.937</vdop><extensions><gom:speed>0.0</gom:speed></extensions></trkpt>
   <trkpt lat="59.0727461988" lon="30.0278683402"><ele>98.304</ele><time>2026-04-20T19:16:18.075Z</time><hdop>9.875</hdop><vdop>2.937</vdop><extensions><gom:speed>0.0</gom:speed></extensions></trkpt>
   <trkpt lat="59.0727461988" lon="30.0278683402"><ele>98.301</ele><time>2026-04-20T19:16:19.075Z</time><hdop>9.875</hdop><vdop>2.937</vdop><extensions><gom:speed>0.0</gom:speed></extensions></trkpt>
   <trkpt lat="59.0727461988" lon="30.0278683402"><ele>98.298</ele><time>2026-04-20T19:16:20.075Z</time><hdop>9.875</hdop><vdop>3.062</vdop><extensions><gom:speed>0.0</gom:speed></extensions></trkpt>
   <trkpt lat="59.0727461988" lon="30.0278682564"><ele>98.296</ele><time>2026-04-20T19:16:21.075Z</time><hdop>9.875</hdop><vdop>3.187</vdop><extensions><gom:speed>0.0</gom:speed></extensions></trkpt>
   <trkpt lat="59.0727461988" lon="30.0278682564"><ele>98.294</ele><time>2026-04-20T19:16:22.075Z</time><hdop>9.875</hdop><vdop>3.312</vdop><extensions><gom:speed>0.0</gom:speed></extensions></trkpt>
   <trkpt lat="59.0727461988" lon="30.0278682564"><ele>98.292</ele><time>2026-04-20T19:16:23.075Z</time><hdop>9.937</hdop><vdop>3.5</vdop><extensions><gom:speed>0.0</gom:speed></extensions></trkpt>
   <trkpt lat="59.0727461988" lon="30.0278682564"><ele>98.291</ele><time>2026-04-20T19:16:24.075Z</time><hdop>10.0</hdop><vdop>3.562</vdop><extensions><gom:speed>0.0</gom:speed></extensions></trkpt>
   <trkpt lat="59.0727461988" lon="30.0278681726"><ele>98.291</ele><time>2026-04-20T19:16:25.075Z</time><hdop>10.125</hdop><vdop>3.75</vdop><extensions><gom:speed>0.0</gom:speed></extensions></trkpt>
   <trkpt lat="59.0727461988" lon="30.0278681726"><ele>98.291</ele><time>2026-04-20T19:16:26.075Z</time><hdop>10.25</hdop><vdop>3.875</vdop><extensions><gom:speed>0.0</gom:speed></extensions></trkpt>
   <trkpt lat="59.0727461988" lon="30.0278680888"><ele>98.29</ele><time>2026-04-20T19:16:27.075Z</time><hdop>10.437</hdop><vdop>4.0</vdop><extensions><gom:speed>0.0</gom:speed></extensions></trkpt>
   <trkpt lat="59.0727461988" lon="30.0278680888"><ele>98.29</ele><time>2026-04-20T19:16:28.075Z</time><hdop>10.625</hdop><vdop>4.312</vdop><extensions><gom:speed>0.0</gom:speed></extensions></trkpt>
   <trkpt lat="59.0727461988" lon="30.0278679211"><ele>98.288</ele><time>2026-04-20T19:16:29.075Z</time><hdop>10.812</hdop><vdop>4.437</vdop><extensions><gom:speed>0.0</gom:speed></extensions></trkpt>
   <trkpt lat="59.0727461988" lon="30.0278679211"><ele>98.286</ele><time>2026-04-20T19:16:30.075Z</time><hdop>10.937</hdop><vdop>4.562</vdop><extensions><gom:speed>0.0</gom:speed></extensions></trkpt>
   <trkpt lat="59.0727461988" lon="30.0278678373"><ele>98.286</ele><time>2026-04-20T19:16:31.075Z</time><hdop>10.937</hdop><vdop>4.062</vdop><extensions><gom:speed>0.0</gom:speed></extensions></trkpt>
   <trkpt lat="59.0727461988" lon="30.0278676697"><ele>98.288</ele><time>2026-04-20T19:16:32.075Z</time><hdop>10.875</hdop><vdop>3.875</vdop><extensions><gom:speed>0.0</gom:speed></extensions></trkpt>
   <trkpt lat="59.0727460731" lon="30.0278674182"><ele>98.292</ele><time>2026-04-20T19:16:33.075Z</time><hdop>10.75</hdop><vdop>3.625</vdop><extensions><gom:speed>0.0</gom:speed></extensions></trkpt>
   <trkpt lat="59.0727460731" lon="30.0278673344"><ele>98.295</ele><time>2026-04-20T19:16:34.075Z</time><hdop>10.562</hdop><vdop>3.437</vdop><extensions><gom:speed>0.0</gom:speed></extensions></trkpt>
   <trkpt lat="59.0727459893" lon="30.0278671667"><ele>98.3</ele><time>2026-04-20T19:16:35.075Z</time><hdop>10.312</hdop><vdop>3.312</vdop><extensions><gom:speed>0.0</gom:speed></extensions></trkpt>
   <trkpt lat="59.0727459893" lon="30.0278669991"><ele>98.307</ele><time>2026-04-20T19:16:36.075Z</time><hdop>10.125</hdop><vdop>3.187</vdop><extensions><gom:speed>0.0</gom:speed></extensions></trkpt>
   <trkpt lat="59.0727458635" lon="30.0278667477"><ele>98.311</ele><time>2026-04-20T19:16:37.075Z</time><hdop>10.0</hdop><vdop>3.125</vdop><extensions><gom:speed>0.0</gom:speed></extensions></trkpt>
   <trkpt lat="59.0727458635" lon="30.0278666638"><ele>98.315</ele><time>2026-04-20T19:16:38.076Z</time><hdop>9.937</hdop><vdop>3.062</vdop><extensions><gom:speed>0.0</gom:speed></extensions></trkpt>
   <trkpt lat="59.0727458635" lon="30.02786658"><ele>98.313</ele><time>2026-04-20T19:16:39.075Z</time><hdop>9.937</hdop><vdop>3.0</vdop><extensions><gom:speed>0.0</gom:speed></extensions></trkpt>
   <trkpt lat="59.0727458635" lon="30.0278663286"><ele>98.312</ele><time>2026-04-20T19:16:40.075Z</time><hdop>9.875</hdop><vdop>3.062</vdop><extensions><gom:speed>0.0</gom:speed></extensions></trkpt>
   <trkpt lat="59.0727457797" lon="30.0278661609"><ele>98.312</ele><time>2026-04-20T19:16:41.075Z</time><hdop>9.875</hdop><vdop>3.125</vdop><extensions><gom:speed>0.0</gom:speed></extensions></trkpt>
   <trkpt lat="59.0727457797" lon="30.0278660771"><ele>98.314</ele><time>2026-04-20T19:16:42.075Z</time><hdop>9.875</hdop><vdop>3.062</vdop><extensions><gom:speed>0.0</gom:speed></extensions></trkpt>
   <trkpt lat="59.0727456959" lon="30.0278658256"><ele>98.317</ele><time>2026-04-20T19:16:43.075Z</time><hdop>9.875</hdop><vdop>3.125</vdop><extensions><gom:speed>0.0</gom:speed></extensions></trkpt>
   <trkpt lat="59.0727456959" lon="30.027865658"><ele>98.32</ele><time>2026-04-20T19:16:44.076Z</time><hdop>9.875</hdop><vdop>3.062</vdop><extensions><gom:speed>0.0</gom:speed></extensions></trkpt>
   <trkpt lat="59.0727455702" lon="30.0278654904"><ele>98.321</ele><time>2026-04-20T19:16:45.076Z</time><hdop>9.875</hdop><vdop>3.0</vdop><extensions><gom:speed>0.0</gom:speed></extensions></trkpt>
   <trkpt lat="59.0727455702" lon="30.0278652389"><ele>98.324</ele><time>2026-04-20T19:16:46.075Z</time><hdop>9.875</hdop><vdop>2.937</vdop><extensions><gom:speed>0.0</gom:speed></extensions></trkpt>
   <trkpt lat="59.0727454864" lon="30.0278650713"><ele>98.326</ele><time>2026-04-20T19:16:47.075Z</time><hdop>9.875</hdop><vdop>3.0</vdop><extensions><gom:speed>0.0</gom:speed></extensions></trkpt>
   <trkpt lat="59.0727453606" lon="30.0278648198"><ele>98.326</ele><time>2026-04-20T19:16:48.076Z</time><hdop>9.875</hdop><vdop>3.0</vdop><extensions><gom:speed>0.0</gom:speed></extensions></trkpt>
   <trkpt lat="59.0727453606" lon="30.0278645684"><ele>98.327</ele><time>2026-04-20T19:16:49.076Z</time><hdop>9.875</hdop><vdop>3.25</vdop><extensions><gom:speed>0.0</gom:speed></extensions></trkpt>
   <trkpt lat="59.0727452768" lon="30.0278643169"><ele>98.327</ele><time>2026-04-20T19:16:50.075Z</time><hdop>9.875</hdop><vdop>3.312</vdop><extensions><gom:speed>0.0</gom:speed></extensions></trkpt>
   <trkpt lat="59.0727452768" lon="30.0278641493"><ele>98.325</ele><time>2026-04-20T19:16:51.076Z</time><hdop>9.875</hdop><vdop>3.375</vdop><extensions><gom:speed>0.0</gom:speed></extensions></trkpt>
   <trkpt lat="59.072745193" lon="30.0278639816"><ele>98.323</ele><time>2026-04-20T19:16:52.075Z</time><hdop>9.875</hdop><vdop>3.437</vdop><extensions><gom:speed>0.0</gom:speed></extensions></trkpt>
   <trkpt lat="59.072745193" lon="30.0278637302"><ele>98.322</ele><time>2026-04-20T19:16:53.075Z</time><hdop>9.875</hdop><vdop>3.562</vdop><extensions><gom:speed>0.0</gom:speed></extensions></trkpt>
   <trkpt lat="59.0727450673" lon="30.0278635625"><ele>98.32</ele><time>2026-04-20T19:16:54.075Z</time><hdop>9.875</hdop><vdop>3.75</vdop><extensions><gom:speed>0.0</gom:speed></extensions></trkpt>
   <trkpt lat="59.0727450673" lon="30.0278633949"><ele>98.318</ele><time>2026-04-20T19:16:55.075Z</time><hdop>9.875</hdop><vdop>3.812</vdop><extensions><gom:speed>0.0</gom:speed></extensions></trkpt>
   <trkpt lat="59.0727450673" lon="30.0278631434"><ele>98.317</ele><time>2026-04-20T19:16:56.075Z</time><hdop>9.937</hdop><vdop>3.875</vdop><extensions><gom:speed>0.0</gom:speed></extensions></trkpt>
   <trkpt lat="59.0727449834" lon="30.0278629758"><ele>98.315</ele><time>2026-04-20T19:16:57.076Z</time><hdop>9.937</hdop><vdop>3.875</vdop><extensions><gom:speed>0.0</gom:speed></extensions></trkpt>
   <trkpt lat="59.0727449834" lon="30.027862892"><ele>98.312</ele><time>2026-04-20T19:16:58.075Z</time><hdop>9.937</hdop><vdop>3.875</vdop><extensions><gom:speed>0.0</gom:speed></extensions></trkpt>
   <trkpt lat="59.0727449834" lon="30.027862892"><ele>98.309</ele><time>2026-04-20T19:16:59.075Z</time><hdop>10.0</hdop><vdop>4.0</vdop><extensions><gom:speed>0.0</gom:speed></extensions></trkpt>
   <trkpt lat="59.0727449834" lon="30.0278627243"><ele>98.307</ele><time>2026-04-20T19:17:00.075Z</time><hdop>10.062</hdop><vdop>4.125</vdop><extensions><gom:speed>0.0</gom:speed></extensions></trkpt>
   <trkpt lat="59.0727449834" lon="30.0278627243"><ele>98.304</ele><time>2026-04-20T19:17:01.075Z</time><hdop>10.125</hdop><vdop>4.187</vdop><extensions><gom:speed>0.0</gom:speed></extensions></trkpt>
   <trkpt lat="59.0727449834" lon="30.0278627243"><ele>98.301</ele><time>2026-04-20T19:17:02.076Z</time><hdop>10.187</hdop><vdop>4.312</vdop><extensions><gom:speed>0.0</gom:speed></extensions></trkpt>
   <trkpt lat="59.0727449834" lon="30.0278627243"><ele>98.299</ele><time>2026-04-20T19:17:03.075Z</time><hdop>10.25</hdop><vdop>4.187</vdop><extensions><gom:speed>0.0</gom:speed></extensions></trkpt>
   <trkpt lat="59.0727449834" lon="30.0278626405"><ele>98.297</ele><time>2026-04-20T19:17:04.075Z</time><hdop>10.312</hdop><vdop>4.125</vdop><extensions><gom:speed>0.0</gom:speed></extensions></trkpt>
   <trkpt lat="59.0727448996" lon="30.0278626405"><ele>98.295</ele><time>2026-04-20T19:17:05.076Z</time><hdop>10.375</hdop><vdop>4.187</vdop><extensions><gom:speed>0.0</gom:speed></extensions></trkpt>
   <trkpt lat="59.0727448996" lon="30.0278625567"><ele>98.291</ele><time>2026-04-20T19:17:06.075Z</time><hdop>10.375</hdop><vdop>4.25</vdop><extensions><gom:speed>0.0</gom:speed></extensions></trkpt>
   <trkpt lat="59.0727448996" lon="30.0278624729"><ele>98.287</ele><time>2026-04-20T19:17:07.075Z</time><hdop>10.375</hdop><vdop>4.437</vdop><extensions><gom:speed>0.0</gom:speed></extensions></trkpt>
   <trkpt lat="59.0727448996" lon="30.0278623891"><ele>98.284</ele><time>2026-04-20T19:17:08.075Z</time><hdop>10.437</hdop><vdop>4.625</vdop><extensions><gom:speed>0.0</gom:speed></extensions></trkpt>
   <trkpt lat="59.0727448996" lon="30.0278622214"><ele>98.282</ele><time>2026-04-20T19:17:09.075Z</time><hdop>10.437</hdop><vdop>4.75</vdop><extensions><gom:speed>0.0</gom:speed></extensions></trkpt>
   <trkpt lat="59.0727447739" lon="30.0278622214"><ele>98.28</ele><time>2026-04-20T19:17:10.076Z</time><hdop>10.437</hdop><vdop>4.75</vdop><extensions><gom:speed>0.0</gom:speed></extensions></trkpt>
   <trkpt lat="59.0727447739" lon="30.0278621376"><ele>98.278</ele><time>2026-04-20T19:17:11.076Z</time><hdop>10.437</hdop><vdop>4.875</vdop><extensions><gom:speed>0.0</gom:speed></extensions></trkpt>
   <trkpt lat="59.0727447739" lon="30.0278620538"><ele>98.276</ele><time>2026-04-20T19:17:12.076Z</time><hdop>10.5</hdop><vdop>4.812</vdop><extensions><gom:speed>0.0</gom:speed></extensions></trkpt>
   <trkpt lat="59.0727447739" lon="30.02786197"><ele>98.274</ele><time>2026-04-20T19:17:13.075Z</time><hdop>10.5</hdop><vdop>4.75</vdop><extensions><gom:speed>0.0</gom:speed></extensions></trkpt>
   <trkpt lat="59.0727447739" lon="30.0278618861"><ele>98.271</ele><time>2026-04-20T19:17:14.076Z</time><hdop>10.437</hdop><vdop>4.75</vdop><extensions><gom:speed>0.0</gom:speed></extensions></trkpt>
   <trkpt lat="59.0727447739" lon="30.0278618861"><ele>98.269</ele><time>2026-04-20T19:17:15.075Z</time><hdop>10.437</hdop><vdop>4.75</vdop><extensions><gom:speed>0.0</gom:speed></extensions></trkpt>
   <trkpt lat="59.0727447739" lon="30.0278617185"><ele>98.267</ele><time>2026-04-20T19:17:16.075Z</time><hdop>10.375</hdop><vdop>4.562</vdop><extensions><gom:speed>0.0</gom:speed></extensions></trkpt>
   <trkpt lat="59.0727446901" lon="30.0278617185"><ele>98.265</ele><time>2026-04-20T19:17:17.075Z</time><hdop>10.375</hdop><vdop>4.437</vdop><extensions><gom:speed>0.0</gom:speed></extensions></trkpt>
   <trkpt lat="59.0727446901" lon="30.0278616347"><ele>98.262</ele><time>2026-04-20T19:17:18.076Z</time><hdop>10.375</hdop><vdop>4.437</vdop><extensions><gom:speed>0.0</gom:speed></extensions></trkpt>
   <trkpt lat="59.0727446901" lon="30.0278615509"><ele>98.26</ele><time>2026-04-20T19:17:19.075Z</time><hdop>10.312</hdop><vdop>4.187</vdop><extensions><gom:speed>0.0</gom:speed></extensions></trkpt>
   <trkpt lat="59.0727446901" lon="30.0278615509"><ele>98.261</ele><time>2026-04-20T19:17:20.075Z</time><hdop>10.312</hdop><vdop>4.0</vdop><extensions><gom:speed>0.0</gom:speed></extensions></trkpt>
   <trkpt lat="59.0727446901" lon="30.0278614671"><ele>98.261</ele><time>2026-04-20T19:17:21.075Z</time><hdop>10.25</hdop><vdop>3.875</vdop><extensions><gom:speed>0.0</gom:speed></extensions></trkpt>
   <trkpt lat="59.0727446901" lon="30.0278614671"><ele>98.261</ele><time>2026-04-20T19:17:22.075Z</time><hdop>10.25</hdop><vdop>3.812</vdop><extensions><gom:speed>0.0</gom:speed></extensions></trkpt>
   <trkpt lat="59.0727446901" lon="30.0278613832"><ele>98.263</ele><time>2026-04-20T19:17:23.075Z</time><hdop>10.187</hdop><vdop>3.937</vdop><extensions><gom:speed>0.0</gom:speed></extensions></trkpt>
   <trkpt lat="59.0727446901" lon="30.0278614671"><ele>98.265</ele><time>2026-04-20T19:17:24.075Z</time><hdop>10.187</hdop><vdop>3.875</vdop><extensions><gom:speed>0.0</gom:speed></extensions></trkpt>
   <trkpt lat="59.0727447739" lon="30.0278614671"><ele>98.266</ele><time>2026-04-20T19:17:25.075Z</time><hdop>10.187</hdop><vdop>3.937</vdop><extensions><gom:speed>0.0</gom:speed></extensions></trkpt>
   <trkpt lat="59.0727447739" lon="30.0278614671"><ele>98.267</ele><time>2026-04-20T19:17:26.075Z</time><hdop>10.187</hdop><vdop>4.125</vdop><extensions><gom:speed>0.0</gom:speed></extensions></trkpt>
   <trkpt lat="59.0727447739" lon="30.0278615509"><ele>98.267</ele><time>2026-04-20T19:17:27.075Z</time><hdop>10.187</hdop><vdop>4.187</vdop><extensions><gom:speed>0.0</gom:speed></extensions></trkpt>
   <trkpt lat="59.0727447739" lon="30.0278615509"><ele>98.268</ele><time>2026-04-20T19:17:28.076Z</time><hdop>10.187</hdop><vdop>4.125</vdop><extensions><gom:speed>0.0</gom:speed></extensions></trkpt>
   <trkpt lat="59.0727447739" lon="30.0278615509"><ele>98.269</ele><time>2026-04-20T19:17:29.075Z</time><hdop>10.125</hdop><vdop>4.25</vdop><extensions><gom:speed>0.0</gom:speed></extensions></trkpt>
   <trkpt lat="59.0727447739" lon="30.0278616347"><ele>98.271</ele><time>2026-04-20T19:17:30.075Z</time><hdop>10.125</hdop><vdop>4.25</vdop><extensions><gom:speed>0.0</gom:speed></extensions></trkpt>
   <trkpt lat="59.0727447739" lon="30.0278616347"><ele>98.275</ele><time>2026-04-20T19:17:31.075Z</time><hdop>10.125</hdop><vdop>4.375</vdop><extensions><gom:speed>0.0</gom:speed></extensions></trkpt>
   <trkpt lat="59.0727447739" lon="30.0278616347"><ele>98.278</ele><time>2026-04-20T19:17:32.075Z</time><hdop>10.125</hdop><vdop>4.625</vdop><extensions><gom:speed>0.0</gom:speed></extensions></trkpt>
   <trkpt lat="59.0727447739" lon="30.0278616347"><ele>98.28</ele><time>2026-04-20T19:17:33.075Z</time><hdop>10.125</hdop><vdop>4.687</vdop><extensions><gom:speed>0.0</gom:speed></extensions></trkpt>
   <trkpt lat="59.0727448996" lon="30.0278617185"><ele>98.282</ele><time>2026-04-20T19:17:34.075Z</time><hdop>10.187</hdop><vdop>4.875</vdop><extensions><gom:speed>0.0</gom:speed></extensions></trkpt>
   <trkpt lat="59.0727448996" lon="30.0278617185"><ele>98.284</ele><time>2026-04-20T19:17:35.075Z</time><hdop>10.187</hdop><vdop>5.0</vdop><extensions><gom:speed>0.0</gom:speed></extensions></trkpt>
   <trkpt lat="59.0727448996" lon="30.0278617185"><ele>98.286</ele><time>2026-04-20T19:17:36.076Z</time><hdop>10.25</hdop><vdop>5.125</vdop><extensions><gom:speed>0.0</gom:speed></extensions></trkpt>
   <trkpt lat="59.0727448996" lon="30.0278618861"><ele>98.288</ele><time>2026-04-20T19:17:37.075Z</time><hdop>10.25</hdop><vdop>5.187</vdop><extensions><gom:speed>0.0</gom:speed></extensions></trkpt>
   <trkpt lat="59.0727448996" lon="30.0278618861"><ele>98.289</ele><time>2026-04-20T19:17:38.075Z</time><hdop>10.25</hdop><vdop>5.375</vdop><extensions><gom:speed>0.0</gom:speed></extensions></trkpt>
   <trkpt lat="59.0727448996" lon="30.02786197"><ele>98.29</ele><time>2026-04-20T19:17:39.075Z</time><hdop>10.312</hdop><vdop>5.562</vdop><extensions><gom:speed>0.0</gom:speed></extensions></trkpt>
   <trkpt lat="59.0727448996" lon="30.02786197"><ele>98.291</ele><time>2026-04-20T19:17:40.076Z</time><hdop>10.312</hdop><vdop>5.625</vdop><extensions><gom:speed>0.0</gom:speed></extensions></trkpt>
   <trkpt lat="59.0727448996" lon="30.0278620538"><ele>98.291</ele><time>2026-04-20T19:17:41.075Z</time><hdop>10.375</hdop><vdop>5.687</vdop><extensions><gom:speed>0.0</gom:speed></extensions></trkpt>
   <trkpt lat="59.0727448996" lon="30.0278620538"><ele>98.292</ele><time>2026-04-20T19:17:42.076Z</time><hdop>10.437</hdop><vdop>5.75</vdop><extensions><gom:speed>0.0</gom:speed></extensions></trkpt>
   <trkpt lat="59.0727448996" lon="30.0278621376"><ele>98.292</ele><time>2026-04-20T19:17:43.075Z</time><hdop>10.5</hdop><vdop>6.062</vdop><extensions><gom:speed>0.0</gom:speed></extensions></trkpt>
   <trkpt lat="59.0727448996" lon="30.0278621376"><ele>98.291</ele><time>2026-04-20T19:17:44.076Z</time><hdop>10.562</hdop><vdop>6.125</vdop><extensions><gom:speed>0.0</gom:speed></extensions></trkpt>
   <trkpt lat="59.0727448996" lon="30.0278622214"><ele>98.29</ele><time>2026-04-20T19:17:45.076Z</time><hdop>10.625</hdop><vdop>6.25</vdop><extensions><gom:speed>0.0</gom:speed></extensions></trkpt>
   <trkpt lat="59.0727449834" lon="30.0278623891"><ele>98.29</ele><time>2026-04-20T19:17:46.075Z</time><hdop>10.625</hdop><vdop>6.062</vdop><extensions><gom:speed>0.0</gom:speed></extensions></trkpt>
   <trkpt lat="59.0727449834" lon="30.0278623891"><ele>98.29</ele><time>2026-04-20T19:17:47.075Z</time><hdop>10.687</hdop><vdop>6.25</vdop><extensions><gom:speed>0.0</gom:speed></extensions></trkpt>
   <trkpt lat="59.0727449834" lon="30.0278624729"><ele>98.289</ele><time>2026-04-20T19:17:48.075Z</time><hdop>10.687</hdop><vdop>6.125</vdop><extensions><gom:speed>0.0</gom:speed></extensions></trkpt>
   <trkpt lat="59.0727449834" lon="30.0278625567"><ele>98.288</ele><time>2026-04-20T19:17:49.075Z</time><hdop>10.625</hdop><vdop>5.625</vdop><extensions><gom:speed>0.0</gom:speed></extensions></trkpt>
   <trkpt lat="59.0727449834" lon="30.0278626405"><ele>98.288</ele><time>2026-04-20T19:17:50.075Z</time><hdop>10.562</hdop><vdop>5.5</vdop><extensions><gom:speed>0.0</gom:speed></extensions></trkpt>
   <trkpt lat="59.0727449834" lon="30.0278627243"><ele>98.287</ele><time>2026-04-20T19:17:51.075Z</time><hdop>10.562</hdop><vdop>5.5</vdop><extensions><gom:speed>0.0</gom:speed></extensions></trkpt>
   <trkpt lat="59.0727449834" lon="30.027862892"><ele>98.287</ele><time>2026-04-20T19:17:52.075Z</time><hdop>10.562</hdop><vdop>5.5</vdop><extensions><gom:speed>0.0</gom:speed></extensions></trkpt>
   <trkpt lat="59.0727602804" lon="30.0279640615"><ele>98.285</ele><time>2026-04-20T19:17:53.006Z</time><hdop>10.437</hdop><vdop>5.562</vdop><extensions><gom:speed>0.711</gom:speed></extensions></trkpt>
   <trkpt lat="59.0727609929" lon="30.0279774726"><ele>98.288</ele><time>2026-04-20T19:17:53.955Z</time><hdop>10.375</hdop><vdop>5.625</vdop><extensions><gom:speed>0.696</gom:speed></extensions></trkpt>
   <trkpt lat="59.0727628788" lon="30.0279902969"><ele>98.29</ele><time>2026-04-20T19:17:54.935Z</time><hdop>10.437</hdop><vdop>5.625</vdop><extensions><gom:speed>0.703</gom:speed></extensions></trkpt>
   <trkpt lat="59.0727666926" lon="30.0280023668"><ele>98.292</ele><time>2026-04-20T19:17:55.832Z</time><hdop>10.562</hdop><vdop>5.812</vdop><extensions><gom:speed>0.831</gom:speed></extensions></trkpt>
   <trkpt lat="59.0727723923" lon="30.028012928"><ele>98.292</ele><time>2026-04-20T19:17:56.661Z</time><hdop>10.812</hdop><vdop>5.75</vdop><extensions><gom:speed>0.886</gom:speed></extensions></trkpt>
   <trkpt lat="59.0727811933" lon="30.0280298595"><ele>98.293</ele><time>2026-04-20T19:17:57.540Z</time><hdop>11.25</hdop><vdop>5.75</vdop><extensions><gom:speed>0.945</gom:speed></extensions></trkpt>
   <trkpt lat="59.0727855938" lon="30.0280377385"><ele>98.292</ele><time>2026-04-20T19:17:58.418Z</time><hdop>11.875</hdop><vdop>5.687</vdop><extensions><gom:speed>0.914</gom:speed></extensions></trkpt>
   <trkpt lat="59.0727886951" lon="30.028044444"><ele>98.292</ele><time>2026-04-20T19:17:59.049Z</time><hdop>12.125</hdop><vdop>5.625</vdop><extensions><gom:speed>0.912</gom:speed></extensions></trkpt>
   <trkpt lat="59.0727938919" lon="30.0280544185"><ele>98.291</ele><time>2026-04-20T19:17:59.996Z</time><hdop>13.125</hdop><vdop>5.625</vdop><extensions><gom:speed>0.876</gom:speed></extensions></trkpt>
   <trkpt lat="59.0727981666" lon="30.0280648958"><ele>98.29</ele><time>2026-04-20T19:18:00.996Z</time><hdop>14.125</hdop><vdop>5.625</vdop><extensions><gom:speed>0.869</gom:speed></extensions></trkpt>
   <trkpt lat="59.072801687" lon="30.0280767981"><ele>98.289</ele><time>2026-04-20T19:18:01.835Z</time><hdop>14.75</hdop><vdop>5.687</vdop><extensions><gom:speed>0.824</gom:speed></extensions></trkpt>
   <trkpt lat="59.072804495" lon="30.0280895386"><ele>98.288</ele><time>2026-04-20T19:18:02.694Z</time><hdop>15.437</hdop><vdop>5.812</vdop><extensions><gom:speed>0.787</gom:speed></extensions></trkpt>
   <trkpt lat="59.0727967836" lon="30.0280887843"><ele>98.617</ele><time>2026-04-20T19:18:03.194Z</time><hdop>14.75</hdop><vdop>4.812</vdop><extensions><gom:speed>0.737</gom:speed></extensions></trkpt>
   <trkpt lat="59.0727899943" lon="30.0281025306"><ele>99.47</ele><time>2026-04-20T19:18:04.075Z</time><hdop>14.062</hdop><vdop>4.25</vdop><extensions><gom:speed>0.785</gom:speed></extensions></trkpt>
   <trkpt lat="59.0727835821" lon="30.0281114992"><ele>101.133</ele><time>2026-04-20T19:18:05.075Z</time><hdop>13.0</hdop><vdop>3.812</vdop><extensions><gom:speed>0.727</gom:speed></extensions></trkpt>
   <trkpt lat="59.0727778824" lon="30.0281224795"><ele>101.848</ele><time>2026-04-20T19:18:06.075Z</time><hdop>11.187</hdop><vdop>3.625</vdop><extensions><gom:speed>0.66</gom:speed></extensions></trkpt>
   <trkpt lat="59.0727760803" lon="30.0281270896"><ele>102.275</ele><time>2026-04-20T19:18:06.533Z</time><hdop>10.875</hdop><vdop>3.625</vdop><extensions><gom:speed>0.607</gom:speed></extensions></trkpt>
   <trkpt lat="59.0727735657" lon="30.0281336274"><ele>102.298</ele><time>2026-04-20T19:18:07.075Z</time><hdop>9.937</hdop><vdop>3.5</vdop><extensions><gom:speed>0.592</gom:speed></extensions></trkpt>
   <trkpt lat="59.0727717636" lon="30.0281411712"><ele>102.312</ele><time>2026-04-20T19:18:07.798Z</time><hdop>8.437</hdop><vdop>3.5</vdop><extensions><gom:speed>0.574</gom:speed></extensions></trkpt>
   <trkpt lat="59.0727680756" lon="30.0281566777"><ele>102.298</ele><time>2026-04-20T19:18:09.061Z</time><hdop>7.5</hdop><vdop>3.5</vdop><extensions><gom:speed>0.504</gom:speed></extensions></trkpt>
   <trkpt lat="59.0727632979" lon="30.0281705916"><ele>101.865</ele><time>2026-04-20T19:18:09.673Z</time><hdop>6.75</hdop><vdop>3.375</vdop><extensions><gom:speed>0.555</gom:speed></extensions></trkpt>
   <trkpt lat="59.0727608672" lon="30.0281839189"><ele>101.214</ele><time>2026-04-20T19:18:10.493Z</time><hdop>6.312</hdop><vdop>3.187</vdop><extensions><gom:speed>0.621</gom:speed></extensions></trkpt>
   <trkpt lat="59.0727597775" lon="30.028196827"><ele>100.87</ele><time>2026-04-20T19:18:11.075Z</time><hdop>6.25</hdop><vdop>3.312</vdop><extensions><gom:speed>0.65</gom:speed></extensions></trkpt>
   <trkpt lat="59.072759568" lon="30.0282185361"><ele>100.782</ele><time>2026-04-20T19:18:12.076Z</time><hdop>5.875</hdop><vdop>3.0</vdop><extensions><gom:speed>0.631</gom:speed></extensions></trkpt>
   <trkpt lat="59.0727589812" lon="30.0282351323"><ele>100.73</ele><time>2026-04-20T19:18:13.062Z</time><hdop>5.562</hdop><vdop>3.0</vdop><extensions><gom:speed>0.685</gom:speed></extensions></trkpt>
   <trkpt lat="59.0727596937" lon="30.028254746"><ele>100.776</ele><time>2026-04-20T19:18:13.977Z</time><hdop>5.375</hdop><vdop>3.0</vdop><extensions><gom:speed>0.704</gom:speed></extensions></trkpt>
   <trkpt lat="59.0727620825" lon="30.0282749463"><ele>100.816</ele><time>2026-04-20T19:18:14.896Z</time><hdop>5.0</hdop><vdop>2.937</vdop><extensions><gom:speed>0.705</gom:speed></extensions></trkpt>
   <trkpt lat="59.0727637589" lon="30.0282846693"><ele>101.16</ele><time>2026-04-20T19:18:15.515Z</time><hdop>5.0</hdop><vdop>7.75</vdop><extensions><gom:speed>0.715</gom:speed></extensions></trkpt>
   <trkpt lat="59.0727666926" lon="30.0283026904"><ele>101.375</ele><time>2026-04-20T19:18:16.075Z</time><hdop>4.875</hdop><vdop>7.687</vdop><extensions><gom:speed>0.727</gom:speed></extensions></trkpt>
   <trkpt lat="59.0727681594" lon="30.0283133355"><ele>101.503</ele><time>2026-04-20T19:18:16.761Z</time><hdop>4.812</hdop><vdop>7.687</vdop><extensions><gom:speed>0.741</gom:speed></extensions></trkpt>
   <trkpt lat="59.0727697939" lon="30.0283232261"><ele>101.621</ele><time>2026-04-20T19:18:17.501Z</time><hdop>4.875</hdop><vdop>7.5</vdop><extensions><gom:speed>0.702</gom:speed></extensions></trkpt>
   <trkpt lat="59.0727709673" lon="30.0283329491"><ele>101.794</ele><time>2026-04-20T19:18:18.075Z</time><hdop>4.875</hdop><vdop>7.5</vdop><extensions><gom:speed>0.709</gom:speed></extensions></trkpt>
   <trkpt lat="59.0727700872" lon="30.0283469469"><ele>101.969</ele><time>2026-04-20T19:18:18.951Z</time><hdop>4.937</hdop><vdop>7.375</vdop><extensions><gom:speed>0.69</gom:speed></extensions></trkpt>
   <trkpt lat="59.072767866" lon="30.0283608608"><ele>102.11</ele><time>2026-04-20T19:18:20.075Z</time><hdop>5.062</hdop><vdop>7.25</vdop><extensions><gom:speed>0.658</gom:speed></extensions></trkpt>
   <trkpt lat="59.0727654772" lon="30.0283717573"><ele>102.241</ele><time>2026-04-20T19:18:20.964Z</time><hdop>5.187</hdop><vdop>7.375</vdop><extensions><gom:speed>0.64</gom:speed></extensions></trkpt>
   <trkpt lat="59.0727646809" lon="30.0283743557"><ele>102.32</ele><time>2026-04-20T19:18:21.675Z</time><hdop>5.312</hdop><vdop>7.375</vdop><extensions><gom:speed>0.622</gom:speed></extensions></trkpt>
   <trkpt lat="59.0727626693" lon="30.028395059"><ele>102.306</ele><time>2026-04-20T19:18:23.061Z</time><hdop>5.5</hdop><vdop>7.312</vdop><extensions><gom:speed>0.627</gom:speed></extensions></trkpt>
   <trkpt lat="59.0727636751" lon="30.0284050335"><ele>102.288</ele><time>2026-04-20T19:18:23.781Z</time><hdop>5.625</hdop><vdop>7.187</vdop><extensions><gom:speed>0.674</gom:speed></extensions></trkpt>
   <trkpt lat="59.0727668602" lon="30.0284161814"><ele>102.249</ele><time>2026-04-20T19:18:24.659Z</time><hdop>5.75</hdop><vdop>6.875</vdop><extensions><gom:speed>0.633</gom:speed></extensions></trkpt>
   <trkpt lat="59.0727640942" lon="30.0284259882"><ele>102.204</ele><time>2026-04-20T19:18:25.774Z</time><hdop>5.937</hdop><vdop>6.75</vdop><extensions><gom:speed>0.562</gom:speed></extensions></trkpt>
   <trkpt lat="59.07276049" lon="30.0284291734"><ele>102.131</ele><time>2026-04-20T19:18:26.515Z</time><hdop>6.125</hdop><vdop>6.562</vdop><extensions><gom:speed>0.592</gom:speed></extensions></trkpt>
   <trkpt lat="59.0727573887" lon="30.0284298439"><ele>102.11</ele><time>2026-04-20T19:18:27.007Z</time><hdop>6.187</hdop><vdop>6.437</vdop><extensions><gom:speed>0.592</gom:speed></extensions></trkpt>
   <trkpt lat="59.0727544969" lon="30.0284289219"><ele>102.098</ele><time>2026-04-20T19:18:27.836Z</time><hdop>6.25</hdop><vdop>6.437</vdop><extensions><gom:speed>0.615</gom:speed></extensions></trkpt>
   <trkpt lat="59.0727430975" lon="30.0284264911"><ele>102.044</ele><time>2026-04-20T19:18:28.916Z</time><hdop>6.375</hdop><vdop>6.25</vdop><extensions><gom:speed>0.704</gom:speed></extensions></trkpt>
   <trkpt lat="59.0727421755" lon="30.0284281675"><ele>101.986</ele><time>2026-04-20T19:18:29.792Z</time><hdop>6.437</hdop><vdop>6.25</vdop><extensions><gom:speed>0.691</gom:speed></extensions></trkpt>
   <trkpt lat="59.0727373978" lon="30.0284321908"><ele>101.94</ele><time>2026-04-20T19:18:30.621Z</time><hdop>6.437</hdop><vdop>6.312</vdop><extensions><gom:speed>0.705</gom:speed></extensions></trkpt>
   <trkpt lat="59.0727304828" lon="30.028438142"><ele>101.906</ele><time>2026-04-20T19:18:31.422Z</time><hdop>6.437</hdop><vdop>6.187</vdop><extensions><gom:speed>0.804</gom:speed></extensions></trkpt>
   <trkpt lat="59.072725286" lon="30.0284440931"><ele>101.886</ele><time>2026-04-20T19:18:32.053Z</time><hdop>6.5</hdop><vdop>6.187</vdop><extensions><gom:speed>0.802</gom:speed></extensions></trkpt>
   <trkpt lat="59.0727189995" lon="30.0284549896"><ele>101.865</ele><time>2026-04-20T19:18:33.043Z</time><hdop>6.562</hdop><vdop>6.312</vdop><extensions><gom:speed>0.788</gom:speed></extensions></trkpt>
   <trkpt lat="59.0727160659" lon="30.0284659699"><ele>101.849</ele><time>2026-04-20T19:18:33.919Z</time><hdop>6.687</hdop><vdop>6.312</vdop><extensions><gom:speed>0.756</gom:speed></extensions></trkpt>
   <trkpt lat="59.0727144733" lon="30.0284749385"><ele>101.836</ele><time>2026-04-20T19:18:34.798Z</time><hdop>6.937</hdop><vdop>6.562</vdop><extensions><gom:speed>0.69</gom:speed></extensions></trkpt>
   <trkpt lat="59.0727238611" lon="30.0284823984"><ele>101.227</ele><time>2026-04-20T19:18:35.637Z</time><hdop>7.062</hdop><vdop>5.75</vdop><extensions><gom:speed>0.621</gom:speed></extensions></trkpt>
   <trkpt lat="59.0727346737" lon="30.0284935464"><ele>101.163</ele><time>2026-04-20T19:18:36.517Z</time><hdop>6.937</hdop><vdop>5.062</vdop><extensions><gom:speed>0.53</gom:speed></extensions></trkpt>
   <trkpt lat="59.0727402896" lon="30.0285023474"><ele>100.53</ele><time>2026-04-20T19:18:37.076Z</time><hdop>6.812</hdop><vdop>4.812</vdop><extensions><gom:speed>0.515</gom:speed></extensions></trkpt>
   <trkpt lat="59.0727454864" lon="30.028517351"><ele>100.211</ele><time>2026-04-20T19:18:38.076Z</time><hdop>6.5</hdop><vdop>6.125</vdop><extensions><gom:speed>0.518</gom:speed></extensions></trkpt>
   <trkpt lat="59.0727463665" lon="30.0285223801"><ele>100.02</ele><time>2026-04-20T19:18:38.776Z</time><hdop>6.375</hdop><vdop>6.125</vdop><extensions><gom:speed>0.477</gom:speed></extensions></trkpt>
   <trkpt lat="59.0727505993" lon="30.0285339471"><ele>99.977</ele><time>2026-04-20T19:18:39.562Z</time><hdop>6.0</hdop><vdop>6.187</vdop><extensions><gom:speed>0.495</gom:speed></extensions></trkpt>
   <trkpt lat="59.072753072" lon="30.0285445922"><ele>99.715</ele><time>2026-04-20T19:18:40.075Z</time><hdop>5.812</hdop><vdop>6.25</vdop><extensions><gom:speed>0.464</gom:speed></extensions></trkpt>
   <trkpt lat="59.07275676" lon="30.0285608531"><ele>99.476</ele><time>2026-04-20T19:18:41.075Z</time><hdop>5.562</hdop><vdop>6.312</vdop><extensions><gom:speed>0.559</gom:speed></extensions></trkpt>
   <trkpt lat="59.072759568" lon="30.0285634514"><ele>99.334</ele><time>2026-04-20T19:18:41.975Z</time><hdop>5.625</hdop><vdop>6.312</vdop><extensions><gom:speed>0.785</gom:speed></extensions></trkpt>
   <trkpt lat="59.0727626693" lon="30.0285578356"><ele>99.557</ele><time>2026-04-20T19:18:42.835Z</time><hdop>5.937</hdop><vdop>6.437</vdop><extensions><gom:speed>0.783</gom:speed></extensions></trkpt>
   <trkpt lat="59.0727626693" lon="30.0285745994"><ele>99.413</ele><time>2026-04-20T19:18:43.496Z</time><hdop>6.312</hdop><vdop>6.5</vdop><extensions><gom:speed>0.928</gom:speed></extensions></trkpt>
   <trkpt lat="59.0727622921" lon="30.0285831489"><ele>99.417</ele><time>2026-04-20T19:18:44.065Z</time><hdop>6.562</hdop><vdop>6.75</vdop><extensions><gom:speed>0.91</gom:speed></extensions></trkpt>
   <trkpt lat="59.0727594841" lon="30.0285952189"><ele>98.888</ele><time>2026-04-20T19:18:45.013Z</time><hdop>7.5</hdop><vdop>6.875</vdop><extensions><gom:speed>0.82</gom:speed></extensions></trkpt>
   <trkpt lat="59.072755377" lon="30.028604858"><ele>98.573</ele><time>2026-04-20T19:18:45.973Z</time><hdop>8.5</hdop><vdop>6.875</vdop><extensions><gom:speed>0.85</gom:speed></extensions></trkpt>
   <trkpt lat="59.0727546645" lon="30.0286216219"><ele>98.185</ele><time>2026-04-20T19:18:46.434Z</time><hdop>8.687</hdop><vdop>6.75</vdop><extensions><gom:speed>0.853</gom:speed></extensions></trkpt>
   <trkpt lat="59.072750767" lon="30.028649366"><ele>97.699</ele><time>2026-04-20T19:18:47.027Z</time><hdop>9.625</hdop><vdop>6.812</vdop><extensions><gom:speed>0.834</gom:speed></extensions></trkpt>
   <trkpt lat="59.0727489649" lon="30.0286586699"><ele>97.409</ele><time>2026-04-20T19:18:47.641Z</time><hdop>9.937</hdop><vdop>6.812</vdop><extensions><gom:speed>0.813</gom:speed></extensions></trkpt>
   <trkpt lat="59.0727446901" lon="30.0286695663"><ele>97.158</ele><time>2026-04-20T19:18:48.658Z</time><hdop>10.562</hdop><vdop>6.75</vdop><extensions><gom:speed>0.761</gom:speed></extensions></trkpt>
   <trkpt lat="59.0727421755" lon="30.0286818877"><ele>97.048</ele><time>2026-04-20T19:18:49.477Z</time><hdop>10.562</hdop><vdop>6.625</vdop><extensions><gom:speed>0.715</gom:speed></extensions></trkpt>
   <trkpt lat="59.0727404991" lon="30.0286893476"><ele>97.023</ele><time>2026-04-20T19:18:49.989Z</time><hdop>10.562</hdop><vdop>6.5</vdop><extensions><gom:speed>0.719</gom:speed></extensions></trkpt>
   <trkpt lat="59.0727378588" lon="30.0287054409"><ele>96.933</ele><time>2026-04-20T19:18:51.055Z</time><hdop>10.375</hdop><vdop>6.375</vdop><extensions><gom:speed>0.761</gom:speed></extensions></trkpt>
   <trkpt lat="59.0727344642" lon="30.0287199416"><ele>96.879</ele><time>2026-04-20T19:18:51.857Z</time><hdop>10.5</hdop><vdop>6.375</vdop><extensions><gom:speed>0.74</gom:speed></extensions></trkpt>
   <trkpt lat="59.0727344642" lon="30.0287224561"><ele>96.822</ele><time>2026-04-20T19:18:52.595Z</time><hdop>10.312</hdop><vdop>6.0</vdop><extensions><gom:speed>0.646</gom:speed></extensions></trkpt>
   <trkpt lat="59.0727305666" lon="30.0287334364"><ele>96.809</ele><time>2026-04-20T19:18:54.016Z</time><hdop>9.875</hdop><vdop>5.437</vdop><extensions><gom:speed>0.392</gom:speed></extensions></trkpt>
   <trkpt lat="59.072729896" lon="30.028728994"><ele>96.793</ele><time>2026-04-20T19:18:54.964Z</time><hdop>9.875</hdop><vdop>5.375</vdop><extensions><gom:speed>0.253</gom:speed></extensions></trkpt>
   <trkpt lat="59.0727321591" lon="30.0287254736"><ele>96.847</ele><time>2026-04-20T19:18:56.030Z</time><hdop>9.812</hdop><vdop>5.687</vdop><extensions><gom:speed>0.15</gom:speed></extensions></trkpt>
   <trkpt lat="59.0727353862" lon="30.0287229591"><ele>96.913</ele><time>2026-04-20T19:18:56.979Z</time><hdop>9.562</hdop><vdop>6.312</vdop><extensions><gom:speed>0.095</gom:speed></extensions></trkpt>
   <trkpt lat="59.0727383617" lon="30.0287217856"><ele>97.037</ele><time>2026-04-20T19:18:58.044Z</time><hdop>9.625</hdop><vdop>6.687</vdop><extensions><gom:speed>0.087</gom:speed></extensions></trkpt>
   <trkpt lat="59.0727399962" lon="30.0287207798"><ele>97.111</ele><time>2026-04-20T19:18:58.755Z</time><hdop>9.625</hdop><vdop>6.687</vdop><extensions><gom:speed>0.079</gom:speed></extensions></trkpt>
   <trkpt lat="59.072742888" lon="30.0287196901"><ele>97.205</ele><time>2026-04-20T19:18:59.941Z</time><hdop>9.687</hdop><vdop>7.187</vdop><extensions><gom:speed>0.102</gom:speed></extensions></trkpt>
   <trkpt lat="59.072744271" lon="30.0287191872"><ele>97.262</ele><time>2026-04-20T19:19:01.001Z</time><hdop>9.687</hdop><vdop>7.187</vdop><extensions><gom:speed>0.117</gom:speed></extensions></trkpt>
   <trkpt lat="59.0727459893" lon="30.0287180976"><ele>97.307</ele><time>2026-04-20T19:19:01.838Z</time><hdop>9.75</hdop><vdop>7.375</vdop><extensions><gom:speed>0.095</gom:speed></extensions></trkpt>
   <trkpt lat="59.0727477914" lon="30.028708626"><ele>97.436</ele><time>2026-04-20T19:19:03.076Z</time><hdop>9.75</hdop><vdop>6.875</vdop><extensions><gom:speed>0.095</gom:speed></extensions></trkpt>
   <trkpt lat="59.0727486715" lon="30.0287017528"><ele>97.561</ele><time>2026-04-20T19:19:03.969Z</time><hdop>9.75</hdop><vdop>6.75</vdop><extensions><gom:speed>0.14</gom:speed></extensions></trkpt>
   <trkpt lat="59.0727492582" lon="30.0286951311"><ele>97.637</ele><time>2026-04-20T19:19:04.858Z</time><hdop>9.875</hdop><vdop>6.75</vdop><extensions><gom:speed>0.194</gom:speed></extensions></trkpt>
   <trkpt lat="59.0727499707" lon="30.0286855758"><ele>97.724</ele><time>2026-04-20T19:19:05.916Z</time><hdop>10.187</hdop><vdop>6.625</vdop><extensions><gom:speed>0.239</gom:speed></extensions></trkpt>
   <trkpt lat="59.0727481686" lon="30.0286789541"><ele>97.796</ele><time>2026-04-20T19:19:06.943Z</time><hdop>10.687</hdop><vdop>6.75</vdop><extensions><gom:speed>0.26</gom:speed></extensions></trkpt>
   <trkpt lat="59.072742888" lon="30.0286724162"><ele>97.869</ele><time>2026-04-20T19:19:07.995Z</time><hdop>11.312</hdop><vdop>6.75</vdop><extensions><gom:speed>0.296</gom:speed></extensions></trkpt>
   <trkpt lat="59.0727403734" lon="30.0286702369"><ele>97.931</ele><time>2026-04-20T19:19:09.075Z</time><hdop>11.75</hdop><vdop>6.812</vdop><extensions><gom:speed>0.295</gom:speed></extensions></trkpt>
   <trkpt lat="59.0727404991" lon="30.0286695663"><ele>97.968</ele><time>2026-04-20T19:19:09.795Z</time><hdop>11.812</hdop><vdop>6.812</vdop><extensions><gom:speed>0.183</gom:speed></extensions></trkpt>
   <trkpt lat="59.0727420917" lon="30.028669734"><ele>98.03</ele><time>2026-04-20T19:19:10.920Z</time><hdop>12.0</hdop><vdop>6.687</vdop><extensions><gom:speed>0.185</gom:speed></extensions></trkpt>
   <trkpt lat="59.072744271" lon="30.0286723324"><ele>98.094</ele><time>2026-04-20T19:19:11.820Z</time><hdop>11.875</hdop><vdop>6.875</vdop><extensions><gom:speed>0.214</gom:speed></extensions></trkpt>
   <trkpt lat="59.0727473723" lon="30.0286744278"><ele>98.146</ele><time>2026-04-20T19:19:12.717Z</time><hdop>11.5</hdop><vdop>7.0</vdop><extensions><gom:speed>0.186</gom:speed></extensions></trkpt>
   <trkpt lat="59.0727521919" lon="30.0286753499"><ele>98.209</ele><time>2026-04-20T19:19:13.635Z</time><hdop>11.0</hdop><vdop>7.0</vdop><extensions><gom:speed>0.228</gom:speed></extensions></trkpt>
   <trkpt lat="59.0727571791" lon="30.0286751822"><ele>98.314</ele><time>2026-04-20T19:19:14.455Z</time><hdop>10.875</hdop><vdop>6.937</vdop><extensions><gom:speed>0.246</gom:speed></extensions></trkpt>
   <trkpt lat="59.0727596937" lon="30.028675266"><ele>98.388</ele><time>2026-04-20T19:19:14.985Z</time><hdop>10.812</hdop><vdop>6.812</vdop><extensions><gom:speed>0.263</gom:speed></extensions></trkpt>
   <trkpt lat="59.0727653934" lon="30.0286768586"><ele>98.443</ele><time>2026-04-20T19:19:16.051Z</time><hdop>10.687</hdop><vdop>6.687</vdop><extensions><gom:speed>0.291</gom:speed></extensions></trkpt>
   <trkpt lat="59.0727682851" lon="30.0286790379"><ele>98.491</ele><time>2026-04-20T19:19:16.999Z</time><hdop>10.562</hdop><vdop>6.625</vdop><extensions><gom:speed>0.274</gom:speed></extensions></trkpt>
   <trkpt lat="59.072768369" lon="30.0286845699"><ele>98.527</ele><time>2026-04-20T19:19:18.065Z</time><hdop>10.562</hdop><vdop>6.687</vdop><extensions><gom:speed>0.219</gom:speed></extensions></trkpt>
   <trkpt lat="59.0727668602" lon="30.0286843185"><ele>98.548</ele><time>2026-04-20T19:19:18.661Z</time><hdop>10.5</hdop><vdop>6.687</vdop><extensions><gom:speed>0.18</gom:speed></extensions></trkpt>
   <trkpt lat="59.0727617892" lon="30.0286865816"><ele>98.595</ele><time>2026-04-20T19:19:20.033Z</time><hdop>10.312</hdop><vdop>6.75</vdop><extensions><gom:speed>0.174</gom:speed></extensions></trkpt>
   <trkpt lat="59.0727593584" lon="30.0286884256"><ele>98.63</ele><time>2026-04-20T19:19:20.862Z</time><hdop>10.25</hdop><vdop>6.875</vdop><extensions><gom:speed>0.18</gom:speed></extensions></trkpt>
   <trkpt lat="59.0727564667" lon="30.0286906887"><ele>98.715</ele><time>2026-04-20T19:19:21.975Z</time><hdop>9.937</hdop><vdop>6.5</vdop><extensions><gom:speed>0.176</gom:speed></extensions></trkpt>
   <trkpt lat="59.072753994" lon="30.0286923651"><ele>98.782</ele><time>2026-04-20T19:19:23.042Z</time><hdop>9.687</hdop><vdop>6.312</vdop><extensions><gom:speed>0.184</gom:speed></extensions></trkpt>
   <trkpt lat="59.0727532815" lon="30.0286932871"><ele>98.822</ele><time>2026-04-20T19:19:23.515Z</time><hdop>9.5</hdop><vdop>6.312</vdop><extensions><gom:speed>0.212</gom:speed></extensions></trkpt>
   <trkpt lat="59.0727508927" lon="30.0286960532"><ele>98.868</ele><time>2026-04-20T19:19:23.989Z</time><hdop>9.187</hdop><vdop>6.187</vdop><extensions><gom:speed>0.261</gom:speed></extensions></trkpt>
   <trkpt lat="59.0727489649" lon="30.0286986515"><ele>98.909</ele><time>2026-04-20T19:19:25.055Z</time><hdop>9.187</hdop><vdop>6.0</vdop><extensions><gom:speed>0.287</gom:speed></extensions></trkpt>
   <trkpt lat="59.072747959" lon="30.0287009985"><ele>98.933</ele><time>2026-04-20T19:19:25.680Z</time><hdop>9.25</hdop><vdop>6.0</vdop><extensions><gom:speed>0.272</gom:speed></extensions></trkpt>
   <trkpt lat="59.0727458635" lon="30.0287073687"><ele>98.968</ele><time>2026-04-20T19:19:26.951Z</time><hdop>9.312</hdop><vdop>6.0</vdop><extensions><gom:speed>0.305</gom:speed></extensions></trkpt>
   <trkpt lat="59.0727450673" lon="30.0287106377"><ele>98.989</ele><time>2026-04-20T19:19:27.940Z</time><hdop>9.437</hdop><vdop>6.0</vdop><extensions><gom:speed>0.248</gom:speed></extensions></trkpt>
   <trkpt lat="59.0727450673" lon="30.0287131522"><ele>99.011</ele><time>2026-04-20T19:19:28.965Z</time><hdop>9.625</hdop><vdop>5.875</vdop><extensions><gom:speed>0.19</gom:speed></extensions></trkpt>
   <trkpt lat="59.0727450673" lon="30.0287124817"><ele>99.024</ele><time>2026-04-20T19:19:29.675Z</time><hdop>9.687</hdop><vdop>5.875</vdop><extensions><gom:speed>0.177</gom:speed></extensions></trkpt>
   <trkpt lat="59.0727447739" lon="30.0287144933"><ele>99.038</ele><time>2026-04-20T19:19:30.978Z</time><hdop>10.187</hdop><vdop>5.687</vdop><extensions><gom:speed>0.243</gom:speed></extensions></trkpt>
   <trkpt lat="59.0727427622" lon="30.0287123979"><ele>99.066</ele><time>2026-04-20T19:19:32.044Z</time><hdop>10.625</hdop><vdop>5.875</vdop><extensions><gom:speed>0.282</gom:speed></extensions></trkpt>
   <trkpt lat="59.0727366854" lon="30.0286967237"><ele>99.093</ele><time>2026-04-20T19:19:32.992Z</time><hdop>11.125</hdop><vdop>5.875</vdop><extensions><gom:speed>0.142</gom:speed></extensions></trkpt>
   <trkpt lat="59.072728974" lon="30.028676188"><ele>99.115</ele><time>2026-04-20T19:19:33.941Z</time><hdop>11.687</hdop><vdop>5.875</vdop><extensions><gom:speed>0.084</gom:speed></extensions></trkpt>
   <trkpt lat="59.0727245735" lon="30.0286626932"><ele>99.132</ele><time>2026-04-20T19:19:35.006Z</time><hdop>12.125</hdop><vdop>5.937</vdop><extensions><gom:speed>0.078</gom:speed></extensions></trkpt>
   <trkpt lat="59.0727227714" lon="30.0286561553"><ele>99.142</ele><time>2026-04-20T19:19:35.836Z</time><hdop>12.25</hdop><vdop>5.937</vdop><extensions><gom:speed>0.07</gom:speed></extensions></trkpt>
   <trkpt lat="59.0727194606" lon="30.0286472705"><ele>99.17</ele><time>2026-04-20T19:19:37.020Z</time><hdop>12.812</hdop><vdop>6.062</vdop><extensions><gom:speed>0.067</gom:speed></extensions></trkpt>
   <trkpt lat="59.0727239868" lon="30.0286572449"><ele>99.193</ele><time>2026-04-20T19:19:38.075Z</time><hdop>12.625</hdop><vdop>5.937</vdop><extensions><gom:speed>0.097</gom:speed></extensions></trkpt>
   <trkpt lat="59.0727277586" lon="30.0286640343"><ele>99.214</ele><time>2026-04-20T19:19:39.035Z</time><hdop>12.375</hdop><vdop>6.0</vdop><extensions><gom:speed>0.072</gom:speed></extensions></trkpt>
   <trkpt lat="59.0727300637" lon="30.0286665489"><ele>99.231</ele><time>2026-04-20T19:19:39.983Z</time><hdop>12.062</hdop><vdop>6.375</vdop><extensions><gom:speed>0.067</gom:speed></extensions></trkpt>
   <trkpt lat="59.072731279" lon="30.028667387"><ele>99.248</ele><time>2026-04-20T19:19:41.048Z</time><hdop>11.812</hdop><vdop>6.625</vdop><extensions><gom:speed>0.106</gom:speed></extensions></trkpt>
   <trkpt lat="59.0727318658" lon="30.0286670518"><ele>99.259</ele><time>2026-04-20T19:19:41.996Z</time><hdop>11.75</hdop><vdop>6.625</vdop><extensions><gom:speed>0.09</gom:speed></extensions></trkpt>
   <trkpt lat="59.0727314886" lon="30.0286680576"><ele>99.269</ele><time>2026-04-20T19:19:43.063Z</time><hdop>11.25</hdop><vdop>6.0</vdop><extensions><gom:speed>0.078</gom:speed></extensions></trkpt>
   <trkpt lat="59.0727314886" lon="30.0286671356"><ele>99.275</ele><time>2026-04-20T19:19:43.775Z</time><hdop>11.312</hdop><vdop>6.0</vdop><extensions><gom:speed>0.044</gom:speed></extensions></trkpt>
   <trkpt lat="59.0727310695" lon="30.0286661298"><ele>99.284</ele><time>2026-04-20T19:19:45.076Z</time><hdop>11.5</hdop><vdop>6.062</vdop><extensions><gom:speed>0.106</gom:speed></extensions></trkpt>
   <trkpt lat="59.0727299798" lon="30.0286657945"><ele>99.29</ele><time>2026-04-20T19:19:46.023Z</time><hdop>11.625</hdop><vdop>6.437</vdop><extensions><gom:speed>0.088</gom:speed></extensions></trkpt>
   <trkpt lat="59.0727290997" lon="30.0286647887"><ele>99.294</ele><time>2026-04-20T19:19:46.598Z</time><hdop>11.75</hdop><vdop>6.437</vdop><extensions><gom:speed>0.083</gom:speed></extensions></trkpt>
   <trkpt lat="59.0727287645" lon="30.0286645372"><ele>99.297</ele><time>2026-04-20T19:19:47.537Z</time><hdop>11.812</hdop><vdop>6.625</vdop><extensions><gom:speed>0.122</gom:speed></extensions></trkpt>
   <trkpt lat="59.0727291836" lon="30.0286649563"><ele>99.3</ele><time>2026-04-20T19:19:48.037Z</time><hdop>11.875</hdop><vdop>6.312</vdop><extensions><gom:speed>0.145</gom:speed></extensions></trkpt>
   <trkpt lat="59.0727283873" lon="30.0286638666"><ele>99.306</ele><time>2026-04-20T19:19:48.985Z</time><hdop>12.062</hdop><vdop>6.125</vdop><extensions><gom:speed>0.134</gom:speed></extensions></trkpt>
   <trkpt lat="59.0727284711" lon="30.0286637828"><ele>99.304</ele><time>2026-04-20T19:19:50.051Z</time><hdop>12.187</hdop><vdop>6.437</vdop><extensions><gom:speed>0.128</gom:speed></extensions></trkpt>
   <trkpt lat="59.0727299798" lon="30.0286772777"><ele>97.214</ele><time>2026-04-20T19:19:51.075Z</time><hdop>12.0</hdop><vdop>5.375</vdop><extensions><gom:speed>0.154</gom:speed></extensions></trkpt>
   <trkpt lat="59.0727304828" lon="30.0286842347"><ele>95.965</ele><time>2026-04-20T19:19:51.595Z</time><hdop>11.812</hdop><vdop>5.375</vdop><extensions><gom:speed>0.177</gom:speed></extensions></trkpt>
   <trkpt lat="59.0727274653" lon="30.028699825"><ele>95.763</ele><time>2026-04-20T19:19:52.075Z</time><hdop>11.375</hdop><vdop>4.5</vdop><extensions><gom:speed>0.197</gom:speed></extensions></trkpt>
   <trkpt lat="59.0727198796" lon="30.0287189357"><ele>95.976</ele><time>2026-04-20T19:19:53.075Z</time><hdop>10.5</hdop><vdop>4.062</vdop><extensions><gom:speed>0.209</gom:speed></extensions></trkpt>
   <trkpt lat="59.072711372" lon="30.0287364539"><ele>96.762</ele><time>2026-04-20T19:19:54.076Z</time><hdop>9.0</hdop><vdop>3.75</vdop><extensions><gom:speed>0.233</gom:speed></extensions></trkpt>
   <trkpt lat="59.0727019843" lon="30.0287552294"><ele>97.102</ele><time>2026-04-20T19:19:55.076Z</time><hdop>7.625</hdop><vdop>3.625</vdop><extensions><gom:speed>0.276</gom:speed></extensions></trkpt>
   <trkpt lat="59.0726998888" lon="30.0287575763"><ele>97.305</ele><time>2026-04-20T19:19:55.661Z</time><hdop>6.312</hdop><vdop>3.625</vdop><extensions><gom:speed>0.269</gom:speed></extensions></trkpt>
   <trkpt lat="59.0726928899" lon="30.0287696463"><ele>96.983</ele><time>2026-04-20T19:19:56.540Z</time><hdop>5.687</hdop><vdop>3.687</vdop><extensions><gom:speed>0.306</gom:speed></extensions></trkpt>
   <trkpt lat="59.072688699" lon="30.0287804589"><ele>97.18</ele><time>2026-04-20T19:19:57.075Z</time><hdop>5.25</hdop><vdop>3.75</vdop><extensions><gom:speed>0.341</gom:speed></extensions></trkpt>
   <trkpt lat="59.0726857653" lon="30.0287874997"><ele>97.297</ele><time>2026-04-20T19:19:57.715Z</time><hdop>5.0</hdop><vdop>3.75</vdop><extensions><gom:speed>0.376</gom:speed></extensions></trkpt>
   <trkpt lat="59.072679898" lon="30.0288040959"><ele>97.254</ele><time>2026-04-20T19:19:58.861Z</time><hdop>4.625</hdop><vdop>4.0</vdop><extensions><gom:speed>0.342</gom:speed></extensions></trkpt>
   <trkpt lat="59.0726758747" lon="30.0288201891"><ele>97.929</ele><time>2026-04-20T19:19:59.838Z</time><hdop>4.5</hdop><vdop>4.062</vdop><extensions><gom:speed>0.361</gom:speed></extensions></trkpt>
   <trkpt lat="59.0726735696" lon="30.0288326782"><ele>98.421</ele><time>2026-04-20T19:20:00.477Z</time><hdop>4.437</hdop><vdop>4.25</vdop><extensions><gom:speed>0.402</gom:speed></extensions></trkpt>
   <trkpt lat="59.0726705941" lon="30.0288528786"><ele>98.381</ele><time>2026-04-20T19:20:01.076Z</time><hdop>4.375</hdop><vdop>3.937</vdop><extensions><gom:speed>0.435</gom:speed></extensions></trkpt>
   <trkpt lat="59.072670175" lon="30.0288560637"><ele>98.357</ele><time>2026-04-20T19:20:01.734Z</time><hdop>4.375</hdop><vdop>3.937</vdop><extensions><gom:speed>0.318</gom:speed></extensions></trkpt>
   <trkpt lat="59.0726697978" lon="30.0288705644"><ele>98.295</ele><time>2026-04-20T19:20:02.977Z</time><hdop>4.375</hdop><vdop>3.937</vdop><extensions><gom:speed>0.245</gom:speed></extensions></trkpt>
   <trkpt lat="59.0726692949" lon="30.0288964645"><ele>98.825</ele><time>2026-04-20T19:20:04.076Z</time><hdop>4.437</hdop><vdop>3.937</vdop><extensions><gom:speed>0.243</gom:speed></extensions></trkpt>
   <trkpt lat="59.0726669898" lon="30.0289123901"><ele>98.986</ele><time>2026-04-20T19:20:05.075Z</time><hdop>4.562</hdop><vdop>3.875</vdop><extensions><gom:speed>0.25</gom:speed></extensions></trkpt>
   <trkpt lat="59.0726647686" lon="30.0289264717"><ele>99.19</ele><time>2026-04-20T19:20:06.075Z</time><hdop>4.625</hdop><vdop>3.437</vdop><extensions><gom:speed>0.226</gom:speed></extensions></trkpt>
   <trkpt lat="59.0726646848" lon="30.0289283995"><ele>99.312</ele><time>2026-04-20T19:20:06.637Z</time><hdop>4.625</hdop><vdop>3.437</vdop><extensions><gom:speed>0.202</gom:speed></extensions></trkpt>
   <trkpt lat="59.0726610806" lon="30.0289436546"><ele>99.212</ele><time>2026-04-20T19:20:07.320Z</time><hdop>4.75</hdop><vdop>3.187</vdop><extensions><gom:speed>0.207</gom:speed></extensions></trkpt>
   <trkpt lat="59.0726584822" lon="30.0289504439"><ele>99.142</ele><time>2026-04-20T19:20:08.075Z</time><hdop>4.75</hdop><vdop>9.375</vdop><extensions><gom:speed>0.223</gom:speed></extensions></trkpt>
   <trkpt lat="59.0726537883" lon="30.0289600831"><ele>99.162</ele><time>2026-04-20T19:20:09.075Z</time><hdop>4.75</hdop><vdop>9.375</vdop><extensions><gom:speed>0.299</gom:speed></extensions></trkpt>
   <trkpt lat="59.0726500584" lon="30.0289680459"><ele>98.95</ele><time>2026-04-20T19:20:10.075Z</time><hdop>4.687</hdop><vdop>8.75</vdop><extensions><gom:speed>0.276</gom:speed></extensions></trkpt>
   <trkpt lat="59.0726467895" lon="30.0289723207"><ele>98.745</ele><time>2026-04-20T19:20:11.020Z</time><hdop>4.75</hdop><vdop>8.312</vdop><extensions><gom:speed>0.297</gom:speed></extensions></trkpt>
   <trkpt lat="59.0726452807" lon="30.0289728236"><ele>98.623</ele><time>2026-04-20T19:20:11.595Z</time><hdop>4.75</hdop><vdop>8.312</vdop><extensions><gom:speed>0.313</gom:speed></extensions></trkpt>
   <trkpt lat="59.0726413831" lon="30.0289773498"><ele>98.245</ele><time>2026-04-20T19:20:12.076Z</time><hdop>4.812</hdop><vdop>7.75</vdop><extensions><gom:speed>0.348</gom:speed></extensions></trkpt>
   <trkpt lat="59.0726392876" lon="30.0289786909"><ele>98.02</ele><time>2026-04-20T19:20:12.917Z</time><hdop>4.875</hdop><vdop>7.75</vdop><extensions><gom:speed>0.337</gom:speed></extensions></trkpt>
   <trkpt lat="59.0726353901" lon="30.0289782718"><ele>97.817</ele><time>2026-04-20T19:20:14.073Z</time><hdop>5.0</hdop><vdop>7.187</vdop><extensions><gom:speed>0.317</gom:speed></extensions></trkpt>
   <trkpt lat="59.0726310734" lon="30.0289812893"><ele>97.56</ele><time>2026-04-20T19:20:14.963Z</time><hdop>5.125</hdop><vdop>6.937</vdop><extensions><gom:speed>0.399</gom:speed></extensions></trkpt>
   <trkpt lat="59.0726216857" lon="30.0289937784"><ele>97.414</ele><time>2026-04-20T19:20:15.712Z</time><hdop>5.25</hdop><vdop>6.687</vdop><extensions><gom:speed>0.526</gom:speed></extensions></trkpt>
   <trkpt lat="59.072615483" lon="30.0290010706"><ele>97.212</ele><time>2026-04-20T19:20:16.493Z</time><hdop>5.375</hdop><vdop>6.562</vdop><extensions><gom:speed>0.581</gom:speed></extensions></trkpt>
   <trkpt lat="59.0726092804" lon="30.0290102907"><ele>97.131</ele><time>2026-04-20T19:20:17.075Z</time><hdop>5.437</hdop><vdop>6.437</vdop><extensions><gom:speed>0.618</gom:speed></extensions></trkpt>
   <trkpt lat="59.0726047961" lon="30.0290163257"><ele>97.083</ele><time>2026-04-20T19:20:17.617Z</time><hdop>5.5</hdop><vdop>6.437</vdop><extensions><gom:speed>0.603</gom:speed></extensions></trkpt>
   <trkpt lat="59.0725995993" lon="30.0290246238"><ele>97.101</ele><time>2026-04-20T19:20:18.418Z</time><hdop>5.687</hdop><vdop>6.437</vdop><extensions><gom:speed>0.661</gom:speed></extensions></trkpt>
   <trkpt lat="59.0725940673" lon="30.0290349335"><ele>97.092</ele><time>2026-04-20T19:20:19.075Z</time><hdop>5.75</hdop><vdop>6.5</vdop><extensions><gom:speed>0.679</gom:speed></extensions></trkpt>
   <trkpt lat="59.0725880742" lon="30.0290460814"><ele>97.087</ele><time>2026-04-20T19:20:19.532Z</time><hdop>5.812</hdop><vdop>6.5</vdop><extensions><gom:speed>0.754</gom:speed></extensions></trkpt>
   <trkpt lat="59.0725857692" lon="30.0290500209"><ele>97.097</ele><time>2026-04-20T19:20:20.024Z</time><hdop>5.875</hdop><vdop>6.625</vdop><extensions><gom:speed>0.757</gom:speed></extensions></trkpt>
   <trkpt lat="59.0725824583" lon="30.029060163"><ele>97.119</ele><time>2026-04-20T19:20:21.075Z</time><hdop>6.0</hdop><vdop>6.375</vdop><extensions><gom:speed>0.63</gom:speed></extensions></trkpt>
   <trkpt lat="59.0725805724" lon="30.0290702213"><ele>97.139</ele><time>2026-04-20T19:20:22.038Z</time><hdop>6.062</hdop><vdop>6.25</vdop><extensions><gom:speed>0.604</gom:speed></extensions></trkpt>
   <trkpt lat="59.0725789799" lon="30.0290790223"><ele>97.172</ele><time>2026-04-20T19:20:22.985Z</time><hdop>6.187</hdop><vdop>6.25</vdop><extensions><gom:speed>0.58</gom:speed></extensions></trkpt>
   <trkpt lat="59.0725786865" lon="30.029082878"><ele>97.192</ele><time>2026-04-20T19:20:23.501Z</time><hdop>6.25</hdop><vdop>6.25</vdop><extensions><gom:speed>0.542</gom:speed></extensions></trkpt>
   <trkpt lat="59.0725776807" lon="30.0290875718"><ele>97.202</ele><time>2026-04-20T19:20:24.053Z</time><hdop>6.25</hdop><vdop>6.437</vdop><extensions><gom:speed>0.539</gom:speed></extensions></trkpt>
   <trkpt lat="59.0725758786" lon="30.0290950317"><ele>97.205</ele><time>2026-04-20T19:20:24.999Z</time><hdop>6.375</hdop><vdop>6.687</vdop><extensions><gom:speed>0.533</gom:speed></extensions></trkpt>
   <trkpt lat="59.0725716876" lon="30.0291005638"><ele>97.207</ele><time>2026-04-20T19:20:25.920Z</time><hdop>6.5</hdop><vdop>6.687</vdop><extensions><gom:speed>0.526</gom:speed></extensions></trkpt>
   <trkpt lat="59.0725666585" lon="30.0291043357"><ele>97.202</ele><time>2026-04-20T19:20:26.917Z</time><hdop>6.687</hdop><vdop>6.562</vdop><extensions><gom:speed>0.594</gom:speed></extensions></trkpt>
   <trkpt lat="59.0725609588" lon="30.029109281"><ele>97.198</ele><time>2026-04-20T19:20:27.737Z</time><hdop>6.937</hdop><vdop>6.562</vdop><extensions><gom:speed>0.682</gom:speed></extensions></trkpt>
   <trkpt lat="59.0725536665" lon="30.0291133881"><ele>97.195</ele><time>2026-04-20T19:20:28.615Z</time><hdop>7.187</hdop><vdop>6.625</vdop><extensions><gom:speed>0.739</gom:speed></extensions></trkpt>
   <trkpt lat="59.0725510681" lon="30.029111125"><ele>97.194</ele><time>2026-04-20T19:20:29.075Z</time><hdop>7.187</hdop><vdop>6.187</vdop><extensions><gom:speed>0.728</gom:speed></extensions></trkpt>
   <trkpt lat="59.0725442788" lon="30.029111125"><ele>97.18</ele><time>2026-04-20T19:20:29.975Z</time><hdop>7.312</hdop><vdop>6.062</vdop><extensions><gom:speed>0.751</gom:speed></extensions></trkpt>
   <trkpt lat="59.0725362741" lon="30.0291131367"><ele>97.176</ele><time>2026-04-20T19:20:31.041Z</time><hdop>7.5</hdop><vdop>6.062</vdop><extensions><gom:speed>0.765</gom:speed></extensions></trkpt>
   <trkpt lat="59.0725259643" lon="30.0291141425"><ele>97.175</ele><time>2026-04-20T19:20:31.989Z</time><hdop>7.562</hdop><vdop>6.187</vdop><extensions><gom:speed>0.743</gom:speed></extensions></trkpt>
   <trkpt lat="59.0725229887" lon="30.029116238"><ele>97.174</ele><time>2026-04-20T19:20:32.692Z</time><hdop>7.625</hdop><vdop>6.187</vdop><extensions><gom:speed>0.702</gom:speed></extensions></trkpt>
   <trkpt lat="59.0725184625" lon="30.0291210995"><ele>97.172</ele><time>2026-04-20T19:20:33.582Z</time><hdop>7.687</hdop><vdop>6.5</vdop><extensions><gom:speed>0.73</gom:speed></extensions></trkpt>
   <trkpt lat="59.0725125952" lon="30.0291278888"><ele>97.175</ele><time>2026-04-20T19:20:34.558Z</time><hdop>7.937</hdop><vdop>6.75</vdop><extensions><gom:speed>0.717</gom:speed></extensions></trkpt>
   <trkpt lat="59.0725065602" lon="30.029133337"><ele>97.176</ele><time>2026-04-20T19:20:35.437Z</time><hdop>8.25</hdop><vdop>7.062</vdop><extensions><gom:speed>0.704</gom:speed></extensions></trkpt>
   <trkpt lat="59.0725022854" lon="30.0291365222"><ele>97.176</ele><time>2026-04-20T19:20:36.017Z</time><hdop>8.312</hdop><vdop>7.125</vdop><extensions><gom:speed>0.697</gom:speed></extensions></trkpt>
   <trkpt lat="59.0724955799" lon="30.0291386176"><ele>97.176</ele><time>2026-04-20T19:20:36.938Z</time><hdop>8.625</hdop><vdop>7.125</vdop><extensions><gom:speed>0.748</gom:speed></extensions></trkpt>
   <trkpt lat="59.0724931911" lon="30.0291385338"><ele>97.174</ele><time>2026-04-20T19:20:37.557Z</time><hdop>8.75</hdop><vdop>7.187</vdop><extensions><gom:speed>0.757</gom:speed></extensions></trkpt>
   <trkpt lat="59.0724840967" lon="30.0291370251"><ele>97.174</ele><time>2026-04-20T19:20:38.031Z</time><hdop>9.0</hdop><vdop>7.187</vdop><extensions><gom:speed>0.774</gom:speed></extensions></trkpt>
   <trkpt lat="59.0724814983" lon="30.0291362707"><ele>97.173</ele><time>2026-04-20T19:20:38.794Z</time><hdop>9.125</hdop><vdop>7.187</vdop><extensions><gom:speed>0.675</gom:speed></extensions></trkpt>
   <trkpt lat="59.0724801991" lon="30.0291395396"><ele>97.172</ele><time>2026-04-20T19:20:39.761Z</time><hdop>9.312</hdop><vdop>7.437</vdop><extensions><gom:speed>0.698</gom:speed></extensions></trkpt>
   <trkpt lat="59.0724782713" lon="30.0291410484"><ele>97.171</ele><time>2026-04-20T19:20:40.718Z</time><hdop>9.562</hdop><vdop>7.437</vdop><extensions><gom:speed>0.71</gom:speed></extensions></trkpt>
   <trkpt lat="59.0724752957" lon="30.029142138"><ele>97.168</ele><time>2026-04-20T19:20:41.795Z</time><hdop>9.812</hdop><vdop>7.125</vdop><extensions><gom:speed>0.657</gom:speed></extensions></trkpt>
   <trkpt lat="59.0724719849" lon="30.0291428924"><ele>97.165</ele><time>2026-04-20T19:20:42.980Z</time><hdop>10.187</hdop><vdop>7.187</vdop><extensions><gom:speed>0.541</gom:speed></extensions></trkpt>
   <trkpt lat="59.0724727811" lon="30.0291417189"><ele>97.152</ele><time>2026-04-20T19:20:43.717Z</time><hdop>10.375</hdop><vdop>6.937</vdop><extensions><gom:speed>0.492</gom:speed></extensions></trkpt>
   <trkpt lat="59.0724684645" lon="30.0291450717"><ele>97.142</ele><time>2026-04-20T19:20:44.836Z</time><hdop>10.937</hdop><vdop>6.75</vdop><extensions><gom:speed>0.389</gom:speed></extensions></trkpt>
   <trkpt lat="59.0724677939" lon="30.0291467481"><ele>97.131</ele><time>2026-04-20T19:20:45.892Z</time><hdop>11.375</hdop><vdop>6.875</vdop><extensions><gom:speed>0.362</gom:speed></extensions></trkpt>
   <trkpt lat="59.0724662852" lon="30.0291496818"><ele>97.123</ele><time>2026-04-20T19:20:46.702Z</time><hdop>11.625</hdop><vdop>6.75</vdop><extensions><gom:speed>0.444</gom:speed></extensions></trkpt>
   <trkpt lat="59.0724617589" lon="30.0291540403"><ele>97.116</ele><time>2026-04-20T19:20:47.759Z</time><hdop>12.062</hdop><vdop>6.625</vdop><extensions><gom:speed>0.472</gom:speed></extensions></trkpt>
   <trkpt lat="59.0724810792" lon="30.029150939"><ele>95.078</ele><time>2026-04-20T19:20:48.972Z</time><hdop>11.875</hdop><vdop>6.0</vdop><extensions><gom:speed>0.499</gom:speed></extensions></trkpt>
   <trkpt lat="59.0725008605" lon="30.0291552976"><ele>90.858</ele><time>2026-04-20T19:20:49.879Z</time><hdop>11.437</hdop><vdop>6.062</vdop><extensions><gom:speed>0.548</gom:speed></extensions></trkpt>
   <trkpt lat="59.0725227792" lon="30.0291810301"><ele>87.079</ele><time>2026-04-20T19:20:50.917Z</time><hdop>10.437</hdop><vdop>6.125</vdop><extensions><gom:speed>0.554</gom:speed></extensions></trkpt>
   <trkpt lat="59.0725320831" lon="30.0292002246"><ele>84.403</ele><time>2026-04-20T19:20:51.816Z</time><hdop>9.437</hdop><vdop>6.25</vdop><extensions><gom:speed>0.582</gom:speed></extensions></trkpt>
   <trkpt lat="59.0725352682" lon="30.0292267953"><ele>84.385</ele><time>2026-04-20T19:20:52.921Z</time><hdop>8.375</hdop><vdop>7.125</vdop><extensions><gom:speed>0.563</gom:speed></extensions></trkpt>
   <trkpt lat="59.0725332985" lon="30.0292530306"><ele>85.243</ele><time>2026-04-20T19:20:53.781Z</time><hdop>7.937</hdop><vdop>5.875</vdop><extensions><gom:speed>0.624</gom:speed></extensions></trkpt>
   <trkpt lat="59.072527976" lon="30.0292831217"><ele>85.388</ele><time>2026-04-20T19:20:54.619Z</time><hdop>7.25</hdop><vdop>5.125</vdop><extensions><gom:speed>0.697</gom:speed></extensions></trkpt>
   <trkpt lat="59.0725243718" lon="30.0293009751"><ele>85.655</ele><time>2026-04-20T19:20:55.075Z</time><hdop>6.937</hdop><vdop>5.0</vdop><extensions><gom:speed>0.696</gom:speed></extensions></trkpt>
   <trkpt lat="59.0725175824" lon="30.0293270428"><ele>85.213</ele><time>2026-04-20T19:20:56.075Z</time><hdop>6.562</hdop><vdop>4.625</vdop><extensions><gom:speed>0.721</gom:speed></extensions></trkpt>
   <trkpt lat="59.0725117989" lon="30.0293472432"><ele>85.083</ele><time>2026-04-20T19:20:57.075Z</time><hdop>6.25</hdop><vdop>4.625</vdop><extensions><gom:speed>0.698</gom:speed></extensions></trkpt>
   <trkpt lat="59.0725043809" lon="30.0293615763"><ele>85.067</ele><time>2026-04-20T19:20:58.075Z</time><hdop>6.062</hdop><vdop>4.562</vdop><extensions><gom:speed>0.679</gom:speed></extensions></trkpt>
   <trkpt lat="59.0724996871" lon="30.02937373"><ele>85.057</ele><time>2026-04-20T19:20:59.053Z</time><hdop>5.875</hdop><vdop>4.562</vdop><extensions><gom:speed>0.701</gom:speed></extensions></trkpt>
   <trkpt lat="59.0724920595" lon="30.0293847941"><ele>84.819</ele><time>2026-04-20T19:20:59.942Z</time><hdop>5.75</hdop><vdop>4.625</vdop><extensions><gom:speed>0.747</gom:speed></extensions></trkpt>
   <trkpt lat="59.0724835938" lon="30.029397367"><ele>84.17</ele><time>2026-04-20T19:21:00.879Z</time><hdop>5.625</hdop><vdop>4.687</vdop><extensions><gom:speed>0.764</gom:speed></extensions></trkpt>
   <trkpt lat="59.0724739965" lon="30.0294099398"><ele>84.01</ele><time>2026-04-20T19:21:01.896Z</time><hdop>5.5</hdop><vdop>4.937</vdop><extensions><gom:speed>0.711</gom:speed></extensions></trkpt>
   <trkpt lat="59.0724618847" lon="30.0294242729"><ele>84.73</ele><time>2026-04-20T19:21:02.813Z</time><hdop>5.312</hdop><vdop>4.875</vdop><extensions><gom:speed>0.755</gom:speed></extensions></trkpt>
   <trkpt lat="59.0724544667" lon="30.0294360914"><ele>85.548</ele><time>2026-04-20T19:21:03.673Z</time><hdop>5.125</hdop><vdop>4.687</vdop><extensions><gom:speed>0.779</gom:speed></extensions></trkpt>
   <trkpt lat="59.0724467972" lon="30.0294507597"><ele>86.48</ele><time>2026-04-20T19:21:04.492Z</time><hdop>5.0</hdop><vdop>4.625</vdop><extensions><gom:speed>0.75</gom:speed></extensions></trkpt>
   <trkpt lat="59.0724414747" lon="30.0294613209"><ele>86.873</ele><time>2026-04-20T19:21:05.075Z</time><hdop>4.875</hdop><vdop>4.875</vdop><extensions><gom:speed>0.723</gom:speed></extensions></trkpt>
   <trkpt lat="59.0724375771" lon="30.0294722174"><ele>87.108</ele><time>2026-04-20T19:21:05.992Z</time><hdop>4.75</hdop><vdop>4.875</vdop><extensions><gom:speed>0.592</gom:speed></extensions></trkpt>
   <trkpt lat="59.0724316679" lon="30.0294833653"><ele>87.23</ele><time>2026-04-20T19:21:06.793Z</time><hdop>4.687</hdop><vdop>5.187</vdop><extensions><gom:speed>0.506</gom:speed></extensions></trkpt>
   <trkpt lat="59.0724254653" lon="30.0294951838"><ele>87.04</ele><time>2026-04-20T19:21:07.662Z</time><hdop>4.625</hdop><vdop>5.312</vdop><extensions><gom:speed>0.56</gom:speed></extensions></trkpt>
   <trkpt lat="59.072418676" lon="30.0295061641"><ele>86.73</ele><time>2026-04-20T19:21:08.480Z</time><hdop>4.5</hdop><vdop>5.375</vdop><extensions><gom:speed>0.647</gom:speed></extensions></trkpt>
   <trkpt lat="59.0724126829" lon="30.029514546"><ele>85.986</ele><time>2026-04-20T19:21:09.075Z</time><hdop>4.437</hdop><vdop>5.312</vdop><extensions><gom:speed>0.693</gom:speed></extensions></trkpt>
   <trkpt lat="59.0724030856" lon="30.0295278732"><ele>85.686</ele><time>2026-04-20T19:21:10.075Z</time><hdop>4.375</hdop><vdop>5.0</vdop><extensions><gom:speed>0.676</gom:speed></extensions></trkpt>
   <trkpt lat="59.0723972602" lon="30.0295404461"><ele>85.507</ele><time>2026-04-20T19:21:11.001Z</time><hdop>4.312</hdop><vdop>5.0</vdop><extensions><gom:speed>0.726</gom:speed></extensions></trkpt>
   <trkpt lat="59.0723907642" lon="30.0295568746"><ele>85.203</ele><time>2026-04-20T19:21:11.977Z</time><hdop>4.312</hdop><vdop>4.937</vdop><extensions><gom:speed>0.753</gom:speed></extensions></trkpt>
   <trkpt lat="59.0723855674" lon="30.0295723811"><ele>84.805</ele><time>2026-04-20T19:21:12.874Z</time><hdop>4.25</hdop><vdop>5.0</vdop><extensions><gom:speed>0.756</gom:speed></extensions></trkpt>
   <trkpt lat="59.0723805802" lon="30.0295879715"><ele>85.036</ele><time>2026-04-20T19:21:13.773Z</time><hdop>4.25</hdop><vdop>4.875</vdop><extensions><gom:speed>0.752</gom:speed></extensions></trkpt>
   <trkpt lat="59.0723749643" lon="30.0296032265"><ele>85.086</ele><time>2026-04-20T19:21:14.601Z</time><hdop>4.25</hdop><vdop>4.75</vdop><extensions><gom:speed>0.759</gom:speed></extensions></trkpt>
   <trkpt lat="59.0723695999" lon="30.0296167214"><ele>85.333</ele><time>2026-04-20T19:21:15.076Z</time><hdop>4.187</hdop><vdop>4.875</vdop><extensions><gom:speed>0.753</gom:speed></extensions></trkpt>
   <trkpt lat="59.0723622657" lon="30.0296267797"><ele>85.19</ele><time>2026-04-20T19:21:16.075Z</time><hdop>4.187</hdop><vdop>5.062</vdop><extensions><gom:speed>0.724</gom:speed></extensions></trkpt>
   <trkpt lat="59.0723526685" lon="30.0296367541"><ele>85.042</ele><time>2026-04-20T19:21:17.075Z</time><hdop>4.125</hdop><vdop>5.312</vdop><extensions><gom:speed>0.766</gom:speed></extensions></trkpt>
   <trkpt lat="59.0723444961" lon="30.0296431244"><ele>84.953</ele><time>2026-04-20T19:21:18.017Z</time><hdop>4.125</hdop><vdop>5.312</vdop><extensions><gom:speed>0.792</gom:speed></extensions></trkpt>
   <trkpt lat="59.0723358628" lon="30.0296480697"><ele>84.836</ele><time>2026-04-20T19:21:18.877Z</time><hdop>4.125</hdop><vdop>5.437</vdop><extensions><gom:speed>0.763</gom:speed></extensions></trkpt>
   <trkpt lat="59.0723278999" lon="30.0296551943"><ele>84.716</ele><time>2026-04-20T19:21:19.636Z</time><hdop>4.125</hdop><vdop>5.187</vdop><extensions><gom:speed>0.785</gom:speed></extensions></trkpt>
   <trkpt lat="59.0723191828" lon="30.0296683539"><ele>84.643</ele><time>2026-04-20T19:21:20.615Z</time><hdop>4.125</hdop><vdop>5.0</vdop><extensions><gom:speed>0.781</gom:speed></extensions></trkpt>
   <trkpt lat="59.072313064" lon="30.0296787475"><ele>85.096</ele><time>2026-04-20T19:21:21.075Z</time><hdop>4.125</hdop><vdop>5.0</vdop><extensions><gom:speed>0.767</gom:speed></extensions></trkpt>
   <trkpt lat="59.0723101722" lon="30.0296828546"><ele>85.367</ele><time>2026-04-20T19:21:21.701Z</time><hdop>4.187</hdop><vdop>5.0</vdop><extensions><gom:speed>0.734</gom:speed></extensions></trkpt>
   <trkpt lat="59.0723049754" lon="30.0296871294"><ele>85.148</ele><time>2026-04-20T19:21:22.501Z</time><hdop>4.25</hdop><vdop>5.0</vdop><extensions><gom:speed>0.628</gom:speed></extensions></trkpt>
   <trkpt lat="59.0723010779" lon="30.0296898954"><ele>84.962</ele><time>2026-04-20T19:21:23.075Z</time><hdop>4.25</hdop><vdop>4.875</vdop><extensions><gom:speed>0.621</gom:speed></extensions></trkpt>
   <trkpt lat="59.0722975994" lon="30.0296936673"><ele>84.85</ele><time>2026-04-20T19:21:23.773Z</time><hdop>4.312</hdop><vdop>4.875</vdop><extensions><gom:speed>0.556</gom:speed></extensions></trkpt>
   <trkpt lat="59.0722931989" lon="30.0296997861"><ele>84.297</ele><time>2026-04-20T19:21:24.841Z</time><hdop>4.375</hdop><vdop>4.812</vdop><extensions><gom:speed>0.543</gom:speed></extensions></trkpt>
   <trkpt lat="59.0722884631" lon="30.0297084194"><ele>83.795</ele><time>2026-04-20T19:21:25.777Z</time><hdop>4.5</hdop><vdop>4.625</vdop><extensions><gom:speed>0.594</gom:speed></extensions></trkpt>
   <trkpt lat="59.0722844817" lon="30.0297177233"><ele>83.527</ele><time>2026-04-20T19:21:26.499Z</time><hdop>4.562</hdop><vdop>4.437</vdop><extensions><gom:speed>0.595</gom:speed></extensions></trkpt>
   <trkpt lat="59.0722834759" lon="30.0297194835"><ele>83.367</ele><time>2026-04-20T19:21:26.959Z</time><hdop>4.562</hdop><vdop>4.437</vdop><extensions><gom:speed>0.582</gom:speed></extensions></trkpt>
   <trkpt lat="59.072277399" lon="30.0297288713"><ele>82.998</ele><time>2026-04-20T19:21:27.495Z</time><hdop>4.625</hdop><vdop>4.437</vdop><extensions><gom:speed>0.62</gom:speed></extensions></trkpt>
   <trkpt lat="59.0722732918" lon="30.0297339842"><ele>82.502</ele><time>2026-04-20T19:21:28.075Z</time><hdop>4.687</hdop><vdop>4.562</vdop><extensions><gom:speed>0.635</gom:speed></extensions></trkpt>
   <trkpt lat="59.0722700648" lon="30.0297387619"><ele>82.206</ele><time>2026-04-20T19:21:28.541Z</time><hdop>4.687</hdop><vdop>4.562</vdop><extensions><gom:speed>0.664</gom:speed></extensions></trkpt>
   <trkpt lat="59.0722661672" lon="30.0297464733"><ele>81.755</ele><time>2026-04-20T19:21:29.075Z</time><hdop>4.75</hdop><vdop>4.75</vdop><extensions><gom:speed>0.705</gom:speed></extensions></trkpt>
   <trkpt lat="59.0722594617" lon="30.0297615607"><ele>81.666</ele><time>2026-04-20T19:21:30.076Z</time><hdop>4.75</hdop><vdop>4.937</vdop><extensions><gom:speed>0.715</gom:speed></extensions></trkpt>
   <trkpt lat="59.0722543907" lon="30.0297755585"><ele>82.003</ele><time>2026-04-20T19:21:31.075Z</time><hdop>4.687</hdop><vdop>4.687</vdop><extensions><gom:speed>0.684</gom:speed></extensions></trkpt>
   <trkpt lat="59.0722479785" lon="30.0297909812"><ele>81.935</ele><time>2026-04-20T19:21:32.076Z</time><hdop>4.75</hdop><vdop>4.625</vdop><extensions><gom:speed>0.751</gom:speed></extensions></trkpt>
   <trkpt lat="59.0722413987" lon="30.029804476"><ele>81.959</ele><time>2026-04-20T19:21:33.076Z</time><hdop>4.75</hdop><vdop>4.687</vdop><extensions><gom:speed>0.74</gom:speed></extensions></trkpt>
   <trkpt lat="59.072233394" lon="30.0298150372"><ele>81.853</ele><time>2026-04-20T19:21:34.075Z</time><hdop>4.75</hdop><vdop>4.312</vdop><extensions><gom:speed>0.688</gom:speed></extensions></trkpt>
   <trkpt lat="59.072228281" lon="30.0298210722"><ele>81.789</ele><time>2026-04-20T19:21:35.019Z</time><hdop>4.812</hdop><vdop>4.312</vdop><extensions><gom:speed>0.692</gom:speed></extensions></trkpt>
   <trkpt lat="59.0722223718" lon="30.0298329745"><ele>82.057</ele><time>2026-04-20T19:21:36.076Z</time><hdop>4.812</hdop><vdop>4.187</vdop><extensions><gom:speed>0.683</gom:speed></extensions></trkpt>
   <trkpt lat="59.0722174684" lon="30.0298406858"><ele>82.074</ele><time>2026-04-20T19:21:37.076Z</time><hdop>4.875</hdop><vdop>4.125</vdop><extensions><gom:speed>0.603</gom:speed></extensions></trkpt>
   <trkpt lat="59.0722118944" lon="30.0298444577"><ele>82.084</ele><time>2026-04-20T19:21:38.039Z</time><hdop>4.875</hdop><vdop>4.125</vdop><extensions><gom:speed>0.657</gom:speed></extensions></trkpt>
   <trkpt lat="59.0722056918" lon="30.0298501574"><ele>81.796</ele><time>2026-04-20T19:21:38.960Z</time><hdop>4.937</hdop><vdop>4.062</vdop><extensions><gom:speed>0.694</gom:speed></extensions></trkpt>
   <trkpt lat="59.0721988605" lon="30.0298616406"><ele>81.333</ele><time>2026-04-20T19:21:39.876Z</time><hdop>5.0</hdop><vdop>4.312</vdop><extensions><gom:speed>0.693</gom:speed></extensions></trkpt>
   <trkpt lat="59.0721946696" lon="30.0298644905"><ele>80.96</ele><time>2026-04-20T19:21:40.814Z</time><hdop>5.062</hdop><vdop>4.5</vdop><extensions><gom:speed>0.659</gom:speed></extensions></trkpt>
   <trkpt lat="59.0721915683" lon="30.0298754707"><ele>80.586</ele><time>2026-04-20T19:21:42.075Z</time><hdop>5.062</hdop><vdop>4.312</vdop><extensions><gom:speed>0.619</gom:speed></extensions></trkpt>
   <trkpt lat="59.0721874612" lon="30.0298839365"><ele>80.175</ele><time>2026-04-20T19:21:43.075Z</time><hdop>5.062</hdop><vdop>4.437</vdop><extensions><gom:speed>0.593</gom:speed></extensions></trkpt>
   <trkpt lat="59.0721830607" lon="30.0298944977"><ele>79.794</ele><time>2026-04-20T19:21:44.075Z</time><hdop>5.062</hdop><vdop>4.437</vdop><extensions><gom:speed>0.614</gom:speed></extensions></trkpt>
   <trkpt lat="59.0721802946" lon="30.0299070705"><ele>79.458</ele><time>2026-04-20T19:21:45.076Z</time><hdop>5.0</hdop><vdop>8.437</vdop><extensions><gom:speed>0.575</gom:speed></extensions></trkpt>
   <trkpt lat="59.0721802946" lon="30.0299114291"><ele>79.257</ele><time>2026-04-20T19:21:45.559Z</time><hdop>4.937</hdop><vdop>8.437</vdop><extensions><gom:speed>0.531</gom:speed></extensions></trkpt>
   <trkpt lat="59.0721809652" lon="30.0299237505"><ele>78.974</ele><time>2026-04-20T19:21:46.075Z</time><hdop>4.875</hdop><vdop>8.375</vdop><extensions><gom:speed>0.507</gom:speed></extensions></trkpt>
   <trkpt lat="59.0721818872" lon="30.0299354852"><ele>78.674</ele><time>2026-04-20T19:21:47.075Z</time><hdop>4.875</hdop><vdop>8.312</vdop><extensions><gom:speed>0.546</gom:speed></extensions></trkpt>
   <trkpt lat="59.0721824739" lon="30.0299488962"><ele>78.496</ele><time>2026-04-20T19:21:47.981Z</time><hdop>4.875</hdop><vdop>8.312</vdop><extensions><gom:speed>0.633</gom:speed></extensions></trkpt>
   <trkpt lat="59.0721831864" lon="30.029962894"><ele>78.233</ele><time>2026-04-20T19:21:48.840Z</time><hdop>4.812</hdop><vdop>8.0</vdop><extensions><gom:speed>0.654</gom:speed></extensions></trkpt>
   <trkpt lat="59.0721793726" lon="30.0299721979"><ele>78.29</ele><time>2026-04-20T19:21:49.742Z</time><hdop>4.875</hdop><vdop>7.75</vdop><extensions><gom:speed>0.677</gom:speed></extensions></trkpt>
   <trkpt lat="59.0721734634" lon="30.0299772271"><ele>78.291</ele><time>2026-04-20T19:21:50.577Z</time><hdop>4.937</hdop><vdop>7.437</vdop><extensions><gom:speed>0.72</gom:speed></extensions></trkpt>
   <trkpt lat="59.072171787" lon="30.0299818371"><ele>78.227</ele><time>2026-04-20T19:21:51.075Z</time><hdop>4.937</hdop><vdop>7.125</vdop><extensions><gom:speed>0.692</gom:speed></extensions></trkpt>
   <trkpt lat="59.0721700687" lon="30.0299867824"><ele>78.189</ele><time>2026-04-20T19:21:51.555Z</time><hdop>5.0</hdop><vdop>7.125</vdop><extensions><gom:speed>0.69</gom:speed></extensions></trkpt>
   <trkpt lat="59.0721665902" lon="30.0299964216"><ele>78.082</ele><time>2026-04-20T19:21:52.453Z</time><hdop>5.125</hdop><vdop>6.812</vdop><extensions><gom:speed>0.632</gom:speed></extensions></trkpt>
   <trkpt lat="59.0721669674" lon="30.0300025404"><ele>77.691</ele><time>2026-04-20T19:21:53.075Z</time><hdop>5.187</hdop><vdop>6.5</vdop><extensions><gom:speed>0.61</gom:speed></extensions></trkpt>
   <trkpt lat="59.0721689791" lon="30.0300158676"><ele>77.358</ele><time>2026-04-20T19:21:54.075Z</time><hdop>5.187</hdop><vdop>6.312</vdop><extensions><gom:speed>0.639</gom:speed></extensions></trkpt>
   <trkpt lat="59.072171787" lon="30.0300274347"><ele>77.16</ele><time>2026-04-20T19:21:54.961Z</time><hdop>5.187</hdop><vdop>6.312</vdop><extensions><gom:speed>0.694</gom:speed></extensions></trkpt>
   <trkpt lat="59.0721775705" lon="30.030038834"><ele>77.037</ele><time>2026-04-20T19:21:55.824Z</time><hdop>5.125</hdop><vdop>6.375</vdop><extensions><gom:speed>0.718</gom:speed></extensions></trkpt>
   <trkpt lat="59.0721810909" lon="30.0300540891"><ele>76.883</ele><time>2026-04-20T19:21:56.718Z</time><hdop>5.062</hdop><vdop>6.375</vdop><extensions><gom:speed>0.713</gom:speed></extensions></trkpt>
   <trkpt lat="59.0721800851" lon="30.0300688413"><ele>76.582</ele><time>2026-04-20T19:21:57.678Z</time><hdop>5.0</hdop><vdop>6.437</vdop><extensions><gom:speed>0.691</gom:speed></extensions></trkpt>
   <trkpt lat="59.0721772771" lon="30.030080995"><ele>75.622</ele><time>2026-04-20T19:21:58.593Z</time><hdop>4.937</hdop><vdop>6.062</vdop><extensions><gom:speed>0.672</gom:speed></extensions></trkpt>
   <trkpt lat="59.0721771933" lon="30.0300876167"><ele>74.864</ele><time>2026-04-20T19:21:59.075Z</time><hdop>4.875</hdop><vdop>5.875</vdop><extensions><gom:speed>0.676</gom:speed></extensions></trkpt>
   <trkpt lat="59.0721762713" lon="30.0300944899"><ele>74.411</ele><time>2026-04-20T19:21:59.620Z</time><hdop>4.875</hdop><vdop>5.875</vdop><extensions><gom:speed>0.64</gom:speed></extensions></trkpt>
   <trkpt lat="59.072177361" lon="30.030101866"><ele>74.337</ele><time>2026-04-20T19:22:00.076Z</time><hdop>4.875</hdop><vdop>5.625</vdop><extensions><gom:speed>0.643</gom:speed></extensions></trkpt>
   <trkpt lat="59.0721769838" lon="30.0301178754"><ele>74.5</ele><time>2026-04-20T19:22:01.076Z</time><hdop>4.875</hdop><vdop>5.312</vdop><extensions><gom:speed>0.689</gom:speed></extensions></trkpt>
   <trkpt lat="59.0721756846" lon="30.0301306997"><ele>74.332</ele><time>2026-04-20T19:22:02.076Z</time><hdop>4.875</hdop><vdop>5.0</vdop><extensions><gom:speed>0.664</gom:speed></extensions></trkpt>
   <trkpt lat="59.0721728766" lon="30.0301434402"><ele>74.231</ele><time>2026-04-20T19:22:02.957Z</time><hdop>4.875</hdop><vdop>5.0</vdop><extensions><gom:speed>0.725</gom:speed></extensions></trkpt>
   <trkpt lat="59.0721711584" lon="30.0301579409"><ele>74.156</ele><time>2026-04-20T19:22:03.935Z</time><hdop>4.937</hdop><vdop>4.687</vdop><extensions><gom:speed>0.75</gom:speed></extensions></trkpt>
   <trkpt lat="59.0721686857" lon="30.0301689212"><ele>74.419</ele><time>2026-04-20T19:22:04.734Z</time><hdop>5.0</hdop><vdop>4.562</vdop><extensions><gom:speed>0.77</gom:speed></extensions></trkpt>
   <trkpt lat="59.0721659616" lon="30.0301774707"><ele>74.487</ele><time>2026-04-20T19:22:05.554Z</time><hdop>5.062</hdop><vdop>4.625</vdop><extensions><gom:speed>0.724</gom:speed></extensions></trkpt>
   <trkpt lat="59.0721641595" lon="30.0301827513"><ele>74.557</ele><time>2026-04-20T19:22:06.055Z</time><hdop>5.062</hdop><vdop>4.75</vdop><extensions><gom:speed>0.718</gom:speed></extensions></trkpt>
   <trkpt lat="59.0721602619" lon="30.0301923905"><ele>74.527</ele><time>2026-04-20T19:22:07.076Z</time><hdop>5.125</hdop><vdop>4.812</vdop><extensions><gom:speed>0.739</gom:speed></extensions></trkpt>
   <trkpt lat="59.0721569929" lon="30.0302016944"><ele>74.604</ele><time>2026-04-20T19:22:08.075Z</time><hdop>5.125</hdop><vdop>4.812</vdop><extensions><gom:speed>0.713</gom:speed></extensions></trkpt>
   <trkpt lat="59.0721544784" lon="30.0302118365"><ele>73.838</ele><time>2026-04-20T19:22:09.075Z</time><hdop>5.125</hdop><vdop>4.5</vdop><extensions><gom:speed>0.692</gom:speed></extensions></trkpt>
   <trkpt lat="59.0721524667" lon="30.0302193802"><ele>73.323</ele><time>2026-04-20T19:22:10.075Z</time><hdop>5.125</hdop><vdop>4.312</vdop><extensions><gom:speed>0.597</gom:speed></extensions></trkpt>
   <trkpt lat="59.072149575" lon="30.0302247447"><ele>73.252</ele><time>2026-04-20T19:22:11.076Z</time><hdop>5.125</hdop><vdop>4.0</vdop><extensions><gom:speed>0.53</gom:speed></extensions></trkpt>
   <trkpt lat="59.0721463898" lon="30.0302255828"><ele>73.131</ele><time>2026-04-20T19:22:12.075Z</time><hdop>5.062</hdop><vdop>4.0</vdop><extensions><gom:speed>0.416</gom:speed></extensions></trkpt>
   <trkpt lat="59.0721445877" lon="30.030225499"><ele>73.003</ele><time>2026-04-20T19:22:13.045Z</time><hdop>5.0</hdop><vdop>3.812</vdop><extensions><gom:speed>0.319</gom:speed></extensions></trkpt>
   <trkpt lat="59.0721450906" lon="30.0302261696"><ele>72.72</ele><time>2026-04-20T19:22:13.992Z</time><hdop>5.0</hdop><vdop>3.687</vdop><extensions><gom:speed>0.163</gom:speed></extensions></trkpt>
   <trkpt lat="59.0721451745" lon="30.0302256667"><ele>72.694</ele><time>2026-04-20T19:22:15.075Z</time><hdop>4.937</hdop><vdop>3.812</vdop><extensions><gom:speed>0.116</gom:speed></extensions></trkpt>
   <trkpt lat="59.0721452583" lon="30.0302257505"><ele>72.38</ele><time>2026-04-20T19:22:16.007Z</time><hdop>4.937</hdop><vdop>3.937</vdop><extensions><gom:speed>0.108</gom:speed></extensions></trkpt>
   <trkpt lat="59.0721445877" lon="30.0302270916"><ele>71.841</ele><time>2026-04-20T19:22:17.076Z</time><hdop>5.0</hdop><vdop>9.0</vdop><extensions><gom:speed>0.128</gom:speed></extensions></trkpt>
   <trkpt lat="59.0721451745" lon="30.0302276783"><ele>71.518</ele><time>2026-04-20T19:22:18.012Z</time><hdop>5.0</hdop><vdop>9.0</vdop><extensions><gom:speed>0.105</gom:speed></extensions></trkpt>
   <trkpt lat="59.0721451745" lon="30.0302299414"><ele>71.137</ele><time>2026-04-20T19:22:19.075Z</time><hdop>5.062</hdop><vdop>8.312</vdop><extensions><gom:speed>0.127</gom:speed></extensions></trkpt>
   <trkpt lat="59.0721455936" lon="30.0302322884"><ele>70.812</ele><time>2026-04-20T19:22:20.034Z</time><hdop>5.062</hdop><vdop>8.062</vdop><extensions><gom:speed>0.119</gom:speed></extensions></trkpt>
   <trkpt lat="59.0721446715" lon="30.0302349706"><ele>70.76</ele><time>2026-04-20T19:22:21.075Z</time><hdop>5.125</hdop><vdop>7.812</vdop><extensions><gom:speed>0.142</gom:speed></extensions></trkpt>
   <trkpt lat="59.0721451745" lon="30.0302356411"><ele>70.616</ele><time>2026-04-20T19:22:22.048Z</time><hdop>5.125</hdop><vdop>7.625</vdop><extensions><gom:speed>0.091</gom:speed></extensions></trkpt>
   <trkpt lat="59.0721452583" lon="30.0302338809"><ele>70.53</ele><time>2026-04-20T19:22:22.522Z</time><hdop>5.062</hdop><vdop>7.625</vdop><extensions><gom:speed>0.04</gom:speed></extensions></trkpt>
   <trkpt lat="59.0721454678" lon="30.0302326236"><ele>70.57</ele><time>2026-04-20T19:22:22.995Z</time><hdop>5.125</hdop><vdop>7.437</vdop><extensions><gom:speed>0.069</gom:speed></extensions></trkpt>
   <trkpt lat="59.0721449649" lon="30.0302340486"><ele>70.379</ele><time>2026-04-20T19:22:23.943Z</time><hdop>5.062</hdop><vdop>7.375</vdop><extensions><gom:speed>0.071</gom:speed></extensions></trkpt>
   <trkpt lat="59.0721445877" lon="30.0302369822"><ele>70.058</ele><time>2026-04-20T19:22:25.075Z</time><hdop>5.062</hdop><vdop>7.562</vdop><extensions><gom:speed>0.074</gom:speed></extensions></trkpt>
   <trkpt lat="59.0721438753" lon="30.0302379881"><ele>70.038</ele><time>2026-04-20T19:22:25.957Z</time><hdop>5.062</hdop><vdop>7.375</vdop><extensions><gom:speed>0.076</gom:speed></extensions></trkpt>
   <trkpt lat="59.0721435819" lon="30.0302389939"><ele>70.073</ele><time>2026-04-20T19:22:27.023Z</time><hdop>5.125</hdop><vdop>7.125</vdop><extensions><gom:speed>0.082</gom:speed></extensions></trkpt>
   <trkpt lat="59.0721422827" lon="30.0302416761"><ele>70.236</ele><time>2026-04-20T19:22:28.075Z</time><hdop>5.125</hdop><vdop>7.0</vdop><extensions><gom:speed>0.109</gom:speed></extensions></trkpt>
   <trkpt lat="59.0721418636" lon="30.0302419276"><ele>70.333</ele><time>2026-04-20T19:22:28.682Z</time><hdop>5.125</hdop><vdop>7.0</vdop><extensions><gom:speed>0.069</gom:speed></extensions></trkpt>
   <trkpt lat="59.0721414864" lon="30.0302438554"><ele>70.449</ele><time>2026-04-20T19:22:29.861Z</time><hdop>5.125</hdop><vdop>7.062</vdop><extensions><gom:speed>0.11</gom:speed></extensions></trkpt>
   <trkpt lat="59.0721415702" lon="30.0302446936"><ele>70.592</ele><time>2026-04-20T19:22:30.679Z</time><hdop>5.187</hdop><vdop>7.25</vdop><extensions><gom:speed>0.11</gom:speed></extensions></trkpt>
   <trkpt lat="59.0721397681" lon="30.0302479625"><ele>70.771</ele><time>2026-04-20T19:22:31.617Z</time><hdop>5.187</hdop><vdop>7.125</vdop><extensions><gom:speed>0.17</gom:speed></extensions></trkpt>
   <trkpt lat="59.0721383851" lon="30.0302525726"><ele>71.007</ele><time>2026-04-20T19:22:32.495Z</time><hdop>5.187</hdop><vdop>7.062</vdop><extensions><gom:speed>0.289</gom:speed></extensions></trkpt>
   <trkpt lat="59.072137966" lon="30.030256093"><ele>71.226</ele><time>2026-04-20T19:22:32.947Z</time><hdop>5.25</hdop><vdop>6.687</vdop><extensions><gom:speed>0.327</gom:speed></extensions></trkpt>
   <trkpt lat="59.0721367926" lon="30.030261625"><ele>71.356</ele><time>2026-04-20T19:22:33.493Z</time><hdop>5.312</hdop><vdop>6.687</vdop><extensions><gom:speed>0.443</gom:speed></extensions></trkpt>
   <trkpt lat="59.0721357867" lon="30.0302677438"><ele>71.432</ele><time>2026-04-20T19:22:34.075Z</time><hdop>5.312</hdop><vdop>6.437</vdop><extensions><gom:speed>0.457</gom:speed></extensions></trkpt>
   <trkpt lat="59.0721350743" lon="30.030270426"><ele>71.478</ele><time>2026-04-20T19:22:34.961Z</time><hdop>5.375</hdop><vdop>6.437</vdop><extensions><gom:speed>0.427</gom:speed></extensions></trkpt>
   <trkpt lat="59.0721352838" lon="30.03027227"><ele>72.93</ele><time>2026-04-20T19:22:36.075Z</time><hdop>5.375</hdop><vdop>5.562</vdop><extensions><gom:speed>0.292</gom:speed></extensions></trkpt>
   <trkpt lat="59.0721362896" lon="30.0302707613"><ele>74.793</ele><time>2026-04-20T19:22:36.975Z</time><hdop>5.437</hdop><vdop>5.75</vdop><extensions><gom:speed>0.237</gom:speed></extensions></trkpt>
   <trkpt lat="59.0721366668" lon="30.0302678276"><ele>75.354</ele><time>2026-04-20T19:22:38.041Z</time><hdop>5.5</hdop><vdop>5.687</vdop><extensions><gom:speed>0.171</gom:speed></extensions></trkpt>
   <trkpt lat="59.0721373793" lon="30.0302653969"><ele>76.164</ele><time>2026-04-20T19:22:39.075Z</time><hdop>5.5</hdop><vdop>5.437</vdop><extensions><gom:speed>0.118</gom:speed></extensions></trkpt>
   <trkpt lat="59.0721375888" lon="30.0302633852"><ele>76.427</ele><time>2026-04-20T19:22:40.075Z</time><hdop>5.5</hdop><vdop>5.312</vdop><extensions><gom:speed>0.109</gom:speed></extensions></trkpt>
   <trkpt lat="59.0721389718" lon="30.0302653969"><ele>75.799</ele><time>2026-04-20T19:22:41.076Z</time><hdop>5.437</hdop><vdop>5.375</vdop><extensions><gom:speed>0.144</gom:speed></extensions></trkpt>
   <trkpt lat="59.0721405644" lon="30.0302714319"><ele>75.401</ele><time>2026-04-20T19:22:42.075Z</time><hdop>5.375</hdop><vdop>5.437</vdop><extensions><gom:speed>0.199</gom:speed></extensions></trkpt>
   <trkpt lat="59.0721431628" lon="30.0302811549"><ele>75.163</ele><time>2026-04-20T19:22:42.980Z</time><hdop>5.312</hdop><vdop>5.437</vdop><extensions><gom:speed>0.38</gom:speed></extensions></trkpt>
   <trkpt lat="59.0721491978" lon="30.0302987569"><ele>74.622</ele><time>2026-04-20T19:22:44.056Z</time><hdop>5.312</hdop><vdop>7.812</vdop><extensions><gom:speed>0.545</gom:speed></extensions></trkpt>
   <trkpt lat="59.0721542688" lon="30.0303152692"><ele>73.855</ele><time>2026-04-20T19:22:44.995Z</time><hdop>5.437</hdop><vdop>7.937</vdop><extensions><gom:speed>0.651</gom:speed></extensions></trkpt>
   <trkpt lat="59.0721590884" lon="30.0303318654"><ele>73.32</ele><time>2026-04-20T19:22:46.060Z</time><hdop>5.562</hdop><vdop>7.687</vdop><extensions><gom:speed>0.682</gom:speed></extensions></trkpt>
   <trkpt lat="59.0721635727" lon="30.0303423428"><ele>72.772</ele><time>2026-04-20T19:22:47.076Z</time><hdop>5.625</hdop><vdop>7.375</vdop><extensions><gom:speed>0.641</gom:speed></extensions></trkpt>
   <trkpt lat="59.0721672608" lon="30.0303517305"><ele>72.276</ele><time>2026-04-20T19:22:48.075Z</time><hdop>5.687</hdop><vdop>7.25</vdop><extensions><gom:speed>0.547</gom:speed></extensions></trkpt>
   <trkpt lat="59.0721688952" lon="30.0303594418"><ele>71.979</ele><time>2026-04-20T19:22:48.913Z</time><hdop>5.687</hdop><vdop>7.25</vdop><extensions><gom:speed>0.643</gom:speed></extensions></trkpt>
   <trkpt lat="59.0721729605" lon="30.0303734396"><ele>71.818</ele><time>2026-04-20T19:22:49.980Z</time><hdop>5.625</hdop><vdop>6.812</vdop><extensions><gom:speed>0.694</gom:speed></extensions></trkpt>
   <trkpt lat="59.0721762713" lon="30.0303880241"><ele>71.147</ele><time>2026-04-20T19:22:50.859Z</time><hdop>5.625</hdop><vdop>6.437</vdop><extensions><gom:speed>0.686</gom:speed></extensions></trkpt>
   <trkpt lat="59.0721785763" lon="30.030404285"><ele>70.642</ele><time>2026-04-20T19:22:51.737Z</time><hdop>5.562</hdop><vdop>6.0</vdop><extensions><gom:speed>0.672</gom:speed></extensions></trkpt>
   <trkpt lat="59.0721791631" lon="30.0304143433"><ele>69.761</ele><time>2026-04-20T19:22:52.457Z</time><hdop>5.625</hdop><vdop>5.375</vdop><extensions><gom:speed>0.573</gom:speed></extensions></trkpt>
   <trkpt lat="59.0721790793" lon="30.0304201268"><ele>69.302</ele><time>2026-04-20T19:22:53.075Z</time><hdop>5.625</hdop><vdop>6.562</vdop><extensions><gom:speed>0.554</gom:speed></extensions></trkpt>
   <trkpt lat="59.072177361" lon="30.0304230605"><ele>69.027</ele><time>2026-04-20T19:22:54.034Z</time><hdop>5.687</hdop><vdop>6.625</vdop><extensions><gom:speed>0.397</gom:speed></extensions></trkpt>
   <trkpt lat="59.0721797917" lon="30.0304276705"><ele>68.807</ele><time>2026-04-20T19:22:55.075Z</time><hdop>5.687</hdop><vdop>6.812</vdop><extensions><gom:speed>0.243</gom:speed></extensions></trkpt>
   <trkpt lat="59.0721803785" lon="30.0304278382"><ele>68.419</ele><time>2026-04-20T19:22:56.048Z</time><hdop>5.687</hdop><vdop>7.0</vdop><extensions><gom:speed>0.117</gom:speed></extensions></trkpt>
   <trkpt lat="59.072182893" lon="30.0304353819"><ele>67.905</ele><time>2026-04-20T19:22:57.075Z</time><hdop>5.687</hdop><vdop>7.062</vdop><extensions><gom:speed>0.086</gom:speed></extensions></trkpt>
   <trkpt lat="59.0721844856" lon="30.0304383994"><ele>67.289</ele><time>2026-04-20T19:22:57.944Z</time><hdop>5.75</hdop><vdop>7.125</vdop><extensions><gom:speed>0.078</gom:speed></extensions></trkpt>
   <trkpt lat="59.0721873773" lon="30.0304459431"><ele>66.723</ele><time>2026-04-20T19:22:59.076Z</time><hdop>5.75</hdop><vdop>6.812</vdop><extensions><gom:speed>0.078</gom:speed></extensions></trkpt>
   <trkpt lat="59.0721883832" lon="30.03044829"><ele>66.384</ele><time>2026-04-20T19:22:59.602Z</time><hdop>5.75</hdop><vdop>6.812</vdop><extensions><gom:speed>0.049</gom:speed></extensions></trkpt>
   <trkpt lat="59.0721886765" lon="30.0304508884"><ele>66.059</ele><time>2026-04-20T19:23:00.643Z</time><hdop>5.812</hdop><vdop>6.687</vdop><extensions><gom:speed>0.071</gom:speed></extensions></trkpt>
   <trkpt lat="59.0721935799" lon="30.0304644671"><ele>65.671</ele><time>2026-04-20T19:23:01.994Z</time><hdop>5.875</hdop><vdop>6.562</vdop><extensions><gom:speed>0.115</gom:speed></extensions></trkpt>
   <trkpt lat="59.07219819" lon="30.0304792192"><ele>65.226</ele><time>2026-04-20T19:23:03.001Z</time><hdop>5.875</hdop><vdop>6.375</vdop><extensions><gom:speed>0.154</gom:speed></extensions></trkpt>
   <trkpt lat="59.0721990701" lon="30.0304828235"><ele>65.072</ele><time>2026-04-20T19:23:03.514Z</time><hdop>5.937</hdop><vdop>6.437</vdop><extensions><gom:speed>0.143</gom:speed></extensions></trkpt>
   <trkpt lat="59.0721992796" lon="30.0304847513"><ele>65.118</ele><time>2026-04-20T19:23:03.986Z</time><hdop>5.937</hdop><vdop>6.5</vdop><extensions><gom:speed>0.172</gom:speed></extensions></trkpt>
   <trkpt lat="59.0721994892" lon="30.0304867629"><ele>65.146</ele><time>2026-04-20T19:23:04.778Z</time><hdop>6.0</hdop><vdop>6.5</vdop><extensions><gom:speed>0.19</gom:speed></extensions></trkpt>
   <trkpt lat="59.0721991958" lon="30.0304901995"><ele>65.363</ele><time>2026-04-20T19:23:05.697Z</time><hdop>6.125</hdop><vdop>6.5</vdop><extensions><gom:speed>0.234</gom:speed></extensions></trkpt>
   <trkpt lat="59.0722005788" lon="30.030503862"><ele>65.572</ele><time>2026-04-20T19:23:06.829Z</time><hdop>6.187</hdop><vdop>6.312</vdop><extensions><gom:speed>0.336</gom:speed></extensions></trkpt>
   <trkpt lat="59.0722023809" lon="30.0305169378"><ele>65.972</ele><time>2026-04-20T19:23:07.838Z</time><hdop>6.187</hdop><vdop>6.125</vdop><extensions><gom:speed>0.432</gom:speed></extensions></trkpt>
   <trkpt lat="59.0722040992" lon="30.0305261579"><ele>66.376</ele><time>2026-04-20T19:23:08.639Z</time><hdop>6.187</hdop><vdop>6.0</vdop><extensions><gom:speed>0.507</gom:speed></extensions></trkpt>
   <trkpt lat="59.0722059852" lon="30.0305324443"><ele>66.834</ele><time>2026-04-20T19:23:09.557Z</time><hdop>6.062</hdop><vdop>6.25</vdop><extensions><gom:speed>0.485</gom:speed></extensions></trkpt>
   <trkpt lat="59.072206069" lon="30.0305373896"><ele>67.157</ele><time>2026-04-20T19:23:10.027Z</time><hdop>6.0</hdop><vdop>6.25</vdop><extensions><gom:speed>0.485</gom:speed></extensions></trkpt>
   <trkpt lat="59.0722047698" lon="30.0305430893"><ele>67.35</ele><time>2026-04-20T19:23:10.554Z</time><hdop>5.937</hdop><vdop>6.25</vdop><extensions><gom:speed>0.524</gom:speed></extensions></trkpt>
   <trkpt lat="59.0722026743" lon="30.0305445981"><ele>67.614</ele><time>2026-04-20T19:23:11.076Z</time><hdop>5.875</hdop><vdop>6.312</vdop><extensions><gom:speed>0.509</gom:speed></extensions></trkpt>
   <trkpt lat="59.0722000759" lon="30.0305498787"><ele>67.772</ele><time>2026-04-20T19:23:11.923Z</time><hdop>5.812</hdop><vdop>6.312</vdop><extensions><gom:speed>0.589</gom:speed></extensions></trkpt>
   <trkpt lat="59.0721936638" lon="30.0305532314"><ele>68.721</ele><time>2026-04-20T19:23:12.557Z</time><hdop>5.75</hdop><vdop>5.562</vdop><extensions><gom:speed>0.616</gom:speed></extensions></trkpt>
   <trkpt lat="59.0721886765" lon="30.0305504654"><ele>70.924</ele><time>2026-04-20T19:23:13.076Z</time><hdop>5.687</hdop><vdop>4.75</vdop><extensions><gom:speed>0.625</gom:speed></extensions></trkpt>
   <trkpt lat="59.0721779896" lon="30.0305479508"><ele>72.297</ele><time>2026-04-20T19:23:14.075Z</time><hdop>5.562</hdop><vdop>4.687</vdop><extensions><gom:speed>0.623</gom:speed></extensions></trkpt>
   <trkpt lat="59.0721744692" lon="30.0305500463"><ele>73.117</ele><time>2026-04-20T19:23:14.542Z</time><hdop>5.5</hdop><vdop>4.687</vdop><extensions><gom:speed>0.62</gom:speed></extensions></trkpt>
   <trkpt lat="59.072167596" lon="30.0305483699"><ele>73.222</ele><time>2026-04-20T19:23:15.075Z</time><hdop>5.5</hdop><vdop>4.875</vdop><extensions><gom:speed>0.602</gom:speed></extensions></trkpt>
   <trkpt lat="59.0721644947" lon="30.030551136"><ele>73.285</ele><time>2026-04-20T19:23:15.599Z</time><hdop>5.375</hdop><vdop>4.875</vdop><extensions><gom:speed>0.609</gom:speed></extensions></trkpt>
   <trkpt lat="59.0721582921" lon="30.0305497949"><ele>73.097</ele><time>2026-04-20T19:23:16.075Z</time><hdop>5.375</hdop><vdop>5.0</vdop><extensions><gom:speed>0.604</gom:speed></extensions></trkpt>
   <trkpt lat="59.0721482758" lon="30.0305523932"><ele>72.654</ele><time>2026-04-20T19:23:17.075Z</time><hdop>5.312</hdop><vdop>5.0</vdop><extensions><gom:speed>0.654</gom:speed></extensions></trkpt>
   <trkpt lat="59.0721338589" lon="30.0305573386"><ele>72.729</ele><time>2026-04-20T19:23:18.075Z</time><hdop>5.25</hdop><vdop>4.937</vdop><extensions><gom:speed>0.732</gom:speed></extensions></trkpt>
   <trkpt lat="59.0721187715" lon="30.0305653852"><ele>73.142</ele><time>2026-04-20T19:23:19.075Z</time><hdop>5.125</hdop><vdop>4.687</vdop><extensions><gom:speed>0.756</gom:speed></extensions></trkpt>
   <trkpt lat="59.0721109763" lon="30.0305747729"><ele>73.389</ele><time>2026-04-20T19:23:19.981Z</time><hdop>5.0</hdop><vdop>4.687</vdop><extensions><gom:speed>0.8</gom:speed></extensions></trkpt>
   <trkpt lat="59.0720996607" lon="30.0305845798"><ele>73.787</ele><time>2026-04-20T19:23:20.958Z</time><hdop>4.75</hdop><vdop>4.437</vdop><extensions><gom:speed>0.841</gom:speed></extensions></trkpt>
   <trkpt lat="59.0720897701" lon="30.0305915367"><ele>73.146</ele><time>2026-04-20T19:23:21.876Z</time><hdop>4.437</hdop><vdop>4.375</vdop><extensions><gom:speed>0.853</gom:speed></extensions></trkpt>
   <trkpt lat="59.0720801728" lon="30.0305958953"><ele>72.386</ele><time>2026-04-20T19:23:22.776Z</time><hdop>4.062</hdop><vdop>4.375</vdop><extensions><gom:speed>0.834</gom:speed></extensions></trkpt>
   <trkpt lat="59.0720707851" lon="30.0306004216"><ele>71.601</ele><time>2026-04-20T19:23:23.674Z</time><hdop>3.875</hdop><vdop>4.437</vdop><extensions><gom:speed>0.868</gom:speed></extensions></trkpt>
   <trkpt lat="59.0720644986" lon="30.030602517"><ele>71.085</ele><time>2026-04-20T19:23:24.362Z</time><hdop>3.875</hdop><vdop>4.312</vdop><extensions><gom:speed>0.861</gom:speed></extensions></trkpt>
   <trkpt lat="59.0720544823" lon="30.0306055345"><ele>71.033</ele><time>2026-04-20T19:23:25.075Z</time><hdop>3.812</hdop><vdop>4.312</vdop><extensions><gom:speed>0.845</gom:speed></extensions></trkpt>
   <trkpt lat="59.0720484892" lon="30.030604361"><ele>71.001</ele><time>2026-04-20T19:23:25.820Z</time><hdop>3.875</hdop><vdop>4.312</vdop><extensions><gom:speed>0.811</gom:speed></extensions></trkpt>
   <trkpt lat="59.0720402749" lon="30.0306029361"><ele>70.868</ele><time>2026-04-20T19:23:26.872Z</time><hdop>4.0</hdop><vdop>4.187</vdop><extensions><gom:speed>0.716</gom:speed></extensions></trkpt>
   <trkpt lat="59.0720321864" lon="30.0306031876"><ele>70.756</ele><time>2026-04-20T19:23:28.076Z</time><hdop>4.125</hdop><vdop>4.0</vdop><extensions><gom:speed>0.627</gom:speed></extensions></trkpt>
   <trkpt lat="59.0720266963" lon="30.0306030199"><ele>70.688</ele><time>2026-04-20T19:23:28.976Z</time><hdop>4.25</hdop><vdop>4.0</vdop><extensions><gom:speed>0.591</gom:speed></extensions></trkpt>
   <trkpt lat="59.0720202841" lon="30.0306018465"><ele>70.733</ele><time>2026-04-20T19:23:29.874Z</time><hdop>4.375</hdop><vdop>4.125</vdop><extensions><gom:speed>0.605</gom:speed></extensions></trkpt>
   <trkpt lat="59.0720174762" lon="30.0306031876"><ele>70.78</ele><time>2026-04-20T19:23:30.522Z</time><hdop>4.375</hdop><vdop>4.062</vdop><extensions><gom:speed>0.578</gom:speed></extensions></trkpt>
   <trkpt lat="59.0720108964" lon="30.0306049478"><ele>71.304</ele><time>2026-04-20T19:23:31.075Z</time><hdop>4.437</hdop><vdop>4.125</vdop><extensions><gom:speed>0.568</gom:speed></extensions></trkpt>
   <trkpt lat="59.0720072921" lon="30.0306047801"><ele>71.616</ele><time>2026-04-20T19:23:31.822Z</time><hdop>4.5</hdop><vdop>4.125</vdop><extensions><gom:speed>0.574</gom:speed></extensions></trkpt>
   <trkpt lat="59.0720011734" lon="30.0306035229"><ele>72.001</ele><time>2026-04-20T19:23:32.736Z</time><hdop>4.562</hdop><vdop>3.875</vdop><extensions><gom:speed>0.629</gom:speed></extensions></trkpt>
   <trkpt lat="59.0719962699" lon="30.0306026847"><ele>72.695</ele><time>2026-04-20T19:23:33.556Z</time><hdop>4.562</hdop><vdop>3.625</vdop><extensions><gom:speed>0.534</gom:speed></extensions></trkpt>
   <trkpt lat="59.0719936716" lon="30.0306023494"><ele>73.726</ele><time>2026-04-20T19:23:34.075Z</time><hdop>4.562</hdop><vdop>3.562</vdop><extensions><gom:speed>0.526</gom:speed></extensions></trkpt>
   <trkpt lat="59.0719902769" lon="30.030602517"><ele>74.629</ele><time>2026-04-20T19:23:35.075Z</time><hdop>4.562</hdop><vdop>3.437</vdop><extensions><gom:speed>0.348</gom:speed></extensions></trkpt>
   <trkpt lat="59.0719887681" lon="30.0306038581"><ele>75.168</ele><time>2026-04-20T19:23:35.856Z</time><hdop>4.625</hdop><vdop>3.437</vdop><extensions><gom:speed>0.285</gom:speed></extensions></trkpt>
   <trkpt lat="59.0719871756" lon="30.0306050316"><ele>75.069</ele><time>2026-04-20T19:23:36.684Z</time><hdop>4.562</hdop><vdop>3.5</vdop><extensions><gom:speed>0.261</gom:speed></extensions></trkpt>
   <trkpt lat="59.0719831942" lon="30.0306045287"><ele>75.051</ele><time>2026-04-20T19:23:37.743Z</time><hdop>4.562</hdop><vdop>3.687</vdop><extensions><gom:speed>0.201</gom:speed></extensions></trkpt>
   <trkpt lat="59.0719801767" lon="30.0306021818"><ele>75.271</ele><time>2026-04-20T19:23:39.076Z</time><hdop>4.5</hdop><vdop>7.187</vdop><extensions><gom:speed>0.177</gom:speed></extensions></trkpt>
   <trkpt lat="59.0719777879" lon="30.0306002539"><ele>75.807</ele><time>2026-04-20T19:23:40.075Z</time><hdop>4.5</hdop><vdop>7.125</vdop><extensions><gom:speed>0.216</gom:speed></extensions></trkpt>
   <trkpt lat="59.0719770754" lon="30.0305965659"><ele>76.267</ele><time>2026-04-20T19:23:41.066Z</time><hdop>4.437</hdop><vdop>7.062</vdop><extensions><gom:speed>0.234</gom:speed></extensions></trkpt>
   <trkpt lat="59.0719749799" lon="30.0305947219"><ele>76.652</ele><time>2026-04-20T19:23:42.075Z</time><hdop>4.375</hdop><vdop>7.125</vdop><extensions><gom:speed>0.189</gom:speed></extensions></trkpt>
   <trkpt lat="59.071974477" lon="30.03059556"><ele>76.883</ele><time>2026-04-20T19:23:42.843Z</time><hdop>4.375</hdop><vdop>7.125</vdop><extensions><gom:speed>0.171</gom:speed></extensions></trkpt>
   <trkpt lat="59.0719731778" lon="30.0305952248"><ele>77.096</ele><time>2026-04-20T19:23:44.029Z</time><hdop>4.375</hdop><vdop>7.312</vdop><extensions><gom:speed>0.1</gom:speed></extensions></trkpt>
   <trkpt lat="59.0719711661" lon="30.03059556"><ele>77.278</ele><time>2026-04-20T19:23:45.075Z</time><hdop>4.375</hdop><vdop>7.5</vdop><extensions><gom:speed>0.116</gom:speed></extensions></trkpt>
   <trkpt lat="59.0719700765" lon="30.0305963982"><ele>77.593</ele><time>2026-04-20T19:23:46.042Z</time><hdop>4.375</hdop><vdop>7.125</vdop><extensions><gom:speed>0.078</gom:speed></extensions></trkpt>
   <trkpt lat="59.0719676877" lon="30.0305975717"><ele>77.957</ele><time>2026-04-20T19:23:47.075Z</time><hdop>4.375</hdop><vdop>6.687</vdop><extensions><gom:speed>0.084</gom:speed></extensions></trkpt>
   <trkpt lat="59.0719666818" lon="30.0305986614"><ele>78.134</ele><time>2026-04-20T19:23:47.937Z</time><hdop>4.375</hdop><vdop>6.375</vdop><extensions><gom:speed>0.081</gom:speed></extensions></trkpt>
   <trkpt lat="59.071967059" lon="30.0305994995"><ele>78.252</ele><time>2026-04-20T19:23:49.004Z</time><hdop>4.375</hdop><vdop>6.0</vdop><extensions><gom:speed>0.065</gom:speed></extensions></trkpt>
   <trkpt lat="59.0719646702" lon="30.0306008406"><ele>78.39</ele><time>2026-04-20T19:23:50.075Z</time><hdop>4.375</hdop><vdop>5.625</vdop><extensions><gom:speed>0.083</gom:speed></extensions></trkpt>
   <trkpt lat="59.0719647959" lon="30.0305983261"><ele>78.531</ele><time>2026-04-20T19:23:51.018Z</time><hdop>4.375</hdop><vdop>5.375</vdop><extensions><gom:speed>0.066</gom:speed></extensions></trkpt>
   <trkpt lat="59.0719648797" lon="30.0305959791"><ele>78.64</ele><time>2026-04-20T19:23:51.965Z</time><hdop>4.375</hdop><vdop>5.25</vdop><extensions><gom:speed>0.067</gom:speed></extensions></trkpt>
   <trkpt lat="59.0719639996" lon="30.0305944704"><ele>78.753</ele><time>2026-04-20T19:23:53.031Z</time><hdop>4.437</hdop><vdop>5.0</vdop><extensions><gom:speed>0.072</gom:speed></extensions></trkpt>
   <trkpt lat="59.0719612755" lon="30.0305950571"><ele>78.894</ele><time>2026-04-20T19:23:54.075Z</time><hdop>4.5</hdop><vdop>5.062</vdop><extensions><gom:speed>0.071</gom:speed></extensions></trkpt>
   <trkpt lat="59.07195918" lon="30.0305949733"><ele>79.014</ele><time>2026-04-20T19:23:55.075Z</time><hdop>4.5</hdop><vdop>4.937</vdop><extensions><gom:speed>0.067</gom:speed></extensions></trkpt>
   <trkpt lat="59.0719570845" lon="30.0305942189"><ele>79.089</ele><time>2026-04-20T19:23:56.075Z</time><hdop>4.5</hdop><vdop>4.687</vdop><extensions><gom:speed>0.128</gom:speed></extensions></trkpt>
   <trkpt lat="59.0719555758" lon="30.0305926264"><ele>79.132</ele><time>2026-04-20T19:23:57.076Z</time><hdop>4.437</hdop><vdop>4.625</vdop><extensions><gom:speed>0.189</gom:speed></extensions></trkpt>
   <trkpt lat="59.0719538994" lon="30.0305905309"><ele>79.166</ele><time>2026-04-20T19:23:58.075Z</time><hdop>4.375</hdop><vdop>4.625</vdop><extensions><gom:speed>0.262</gom:speed></extensions></trkpt>
   <trkpt lat="59.0719524745" lon="30.0305873458"><ele>79.186</ele><time>2026-04-20T19:23:59.075Z</time><hdop>4.312</hdop><vdop>4.625</vdop><extensions><gom:speed>0.3</gom:speed></extensions></trkpt>
   <trkpt lat="59.0719513849" lon="30.0305844959"><ele>79.199</ele><time>2026-04-20T19:24:00.075Z</time><hdop>4.25</hdop><vdop>4.875</vdop><extensions><gom:speed>0.344</gom:speed></extensions></trkpt>
   <trkpt lat="59.0719502952" lon="30.0305813946"><ele>79.206</ele><time>2026-04-20T19:24:01.076Z</time><hdop>4.25</hdop><vdop>4.937</vdop><extensions><gom:speed>0.34</gom:speed></extensions></trkpt>
   <trkpt lat="59.0719490798" lon="30.0305785448"><ele>79.212</ele><time>2026-04-20T19:24:02.075Z</time><hdop>4.25</hdop><vdop>4.937</vdop><extensions><gom:speed>0.309</gom:speed></extensions></trkpt>
   <trkpt lat="59.0719481997" lon="30.0305766169"><ele>79.23</ele><time>2026-04-20T19:24:03.076Z</time><hdop>4.312</hdop><vdop>5.0</vdop><extensions><gom:speed>0.307</gom:speed></extensions></trkpt>
   <trkpt lat="59.0719472777" lon="30.030575192"><ele>79.247</ele><time>2026-04-20T19:24:04.075Z</time><hdop>4.375</hdop><vdop>5.0</vdop><extensions><gom:speed>0.301</gom:speed></extensions></trkpt>
   <trkpt lat="59.0719464814" lon="30.0305740186"><ele>79.259</ele><time>2026-04-20T19:24:05.075Z</time><hdop>4.437</hdop><vdop>5.0</vdop><extensions><gom:speed>0.295</gom:speed></extensions></trkpt>
   <trkpt lat="59.0719461881" lon="30.0305710849"><ele>79.266</ele><time>2026-04-20T19:24:05.958Z</time><hdop>4.625</hdop><vdop>5.0</vdop><extensions><gom:speed>0.296</gom:speed></extensions></trkpt>
   <trkpt lat="59.0719439669" lon="30.0305719231"><ele>79.276</ele><time>2026-04-20T19:24:07.075Z</time><hdop>4.75</hdop><vdop>5.125</vdop><extensions><gom:speed>0.286</gom:speed></extensions></trkpt>
   <trkpt lat="59.0719436735" lon="30.0305715878"><ele>79.281</ele><time>2026-04-20T19:24:07.603Z</time><hdop>4.812</hdop><vdop>5.125</vdop><extensions><gom:speed>0.286</gom:speed></extensions></trkpt>
   <trkpt lat="59.0719421648" lon="30.0305717554"><ele>79.291</ele><time>2026-04-20T19:24:08.076Z</time><hdop>4.875</hdop><vdop>5.437</vdop><extensions><gom:speed>0.265</gom:speed></extensions></trkpt>
   <trkpt lat="59.0719402788" lon="30.0305725936"><ele>79.319</ele><time>2026-04-20T19:24:09.075Z</time><hdop>4.937</hdop><vdop>5.437</vdop><extensions><gom:speed>0.245</gom:speed></extensions></trkpt>
   <trkpt lat="59.0719382672" lon="30.0305737671"><ele>79.384</ele><time>2026-04-20T19:24:10.075Z</time><hdop>5.0</hdop><vdop>5.437</vdop><extensions><gom:speed>0.227</gom:speed></extensions></trkpt>
   <trkpt lat="59.0719366746" lon="30.0305743538"><ele>79.481</ele><time>2026-04-20T19:24:11.075Z</time><hdop>5.062</hdop><vdop>5.437</vdop><extensions><gom:speed>0.216</gom:speed></extensions></trkpt>
   <trkpt lat="59.0719353754" lon="30.030575192"><ele>79.589</ele><time>2026-04-20T19:24:12.075Z</time><hdop>5.125</hdop><vdop>5.437</vdop><extensions><gom:speed>0.206</gom:speed></extensions></trkpt>
   <trkpt lat="59.0719334895" lon="30.0305757788"><ele>79.689</ele><time>2026-04-20T19:24:13.075Z</time><hdop>5.187</hdop><vdop>5.312</vdop><extensions><gom:speed>0.207</gom:speed></extensions></trkpt>
   <trkpt lat="59.0719331961" lon="30.0305757788"><ele>79.748</ele><time>2026-04-20T19:24:13.763Z</time><hdop>5.187</hdop><vdop>5.312</vdop><extensions><gom:speed>0.207</gom:speed></extensions></trkpt>
   <trkpt lat="59.0719292985" lon="30.0305774551"><ele>79.812</ele><time>2026-04-20T19:24:15.076Z</time><hdop>5.25</hdop><vdop>5.0</vdop><extensions><gom:speed>0.219</gom:speed></extensions></trkpt>
   <trkpt lat="59.0719271612" lon="30.0305786286"><ele>79.864</ele><time>2026-04-20T19:24:16.075Z</time><hdop>5.25</hdop><vdop>4.937</vdop><extensions><gom:speed>0.216</gom:speed></extensions></trkpt>
   <trkpt lat="59.0719263649" lon="30.0305791315"><ele>79.895</ele><time>2026-04-20T19:24:16.659Z</time><hdop>5.312</hdop><vdop>4.937</vdop><extensions><gom:speed>0.216</gom:speed></extensions></trkpt>
   <trkpt lat="59.071923976" lon="30.0305827357"><ele>79.941</ele><time>2026-04-20T19:24:17.813Z</time><hdop>5.312</hdop><vdop>4.687</vdop><extensions><gom:speed>0.252</gom:speed></extensions></trkpt>
   <trkpt lat="59.0719235988" lon="30.0305842445"><ele>79.98</ele><time>2026-04-20T19:24:18.515Z</time><hdop>5.375</hdop><vdop>4.687</vdop><extensions><gom:speed>0.284</gom:speed></extensions></trkpt>
   <trkpt lat="59.0719231798" lon="30.0305852503"><ele>80.009</ele><time>2026-04-20T19:24:18.976Z</time><hdop>5.375</hdop><vdop>4.625</vdop><extensions><gom:speed>0.285</gom:speed></extensions></trkpt>
   <trkpt lat="59.071922593" lon="30.030585837"><ele>80.026</ele><time>2026-04-20T19:24:19.453Z</time><hdop>5.437</hdop><vdop>4.625</vdop><extensions><gom:speed>0.305</gom:speed></extensions></trkpt>
   <trkpt lat="59.0719223835" lon="30.0305860885"><ele>80.036</ele><time>2026-04-20T19:24:19.924Z</time><hdop>5.5</hdop><vdop>4.625</vdop><extensions><gom:speed>0.31</gom:speed></extensions></trkpt>
   <trkpt lat="59.071920288" lon="30.0305871781"><ele>80.057</ele><time>2026-04-20T19:24:20.401Z</time><hdop>5.625</hdop><vdop>4.625</vdop><extensions><gom:speed>0.346</gom:speed></extensions></trkpt>
   <trkpt lat="59.0719148817" lon="30.0305923749"><ele>80.261</ele><time>2026-04-20T19:24:21.075Z</time><hdop>5.625</hdop><vdop>3.875</vdop><extensions><gom:speed>0.419</gom:speed></extensions></trkpt>
   <trkpt lat="59.0719104812" lon="30.0305972364"><ele>80.383</ele><time>2026-04-20T19:24:22.000Z</time><hdop>5.75</hdop><vdop>3.875</vdop><extensions><gom:speed>0.479</gom:speed></extensions></trkpt>
   <trkpt lat="59.0719045719" lon="30.0306051992"><ele>80.707</ele><time>2026-04-20T19:24:23.077Z</time><hdop>5.875</hdop><vdop>3.875</vdop><extensions><gom:speed>0.421</gom:speed></extensions></trkpt>
   <trkpt lat="59.0718990818" lon="30.0306120724"><ele>80.559</ele><time>2026-04-20T19:24:23.954Z</time><hdop>5.812</hdop><vdop>3.812</vdop><extensions><gom:speed>0.469</gom:speed></extensions></trkpt>
   <trkpt lat="59.0718926696" lon="30.0306212925"><ele>80.5</ele><time>2026-04-20T19:24:24.697Z</time><hdop>5.75</hdop><vdop>3.875</vdop><extensions><gom:speed>0.535</gom:speed></extensions></trkpt>
   <trkpt lat="59.071888772" lon="30.0306318537"><ele>80.153</ele><time>2026-04-20T19:24:25.672Z</time><hdop>5.5</hdop><vdop>5.812</vdop><extensions><gom:speed>0.536</gom:speed></extensions></trkpt>
   <trkpt lat="59.0718886882" lon="30.0306421634"><ele>79.791</ele><time>2026-04-20T19:24:26.581Z</time><hdop>5.25</hdop><vdop>6.25</vdop><extensions><gom:speed>0.547</gom:speed></extensions></trkpt>
   <trkpt lat="59.0718890654" lon="30.0306467735"><ele>79.198</ele><time>2026-04-20T19:24:27.075Z</time><hdop>5.125</hdop><vdop>6.875</vdop><extensions><gom:speed>0.529</gom:speed></extensions></trkpt>
   <trkpt lat="59.0718889816" lon="30.0306546525"><ele>78.597</ele><time>2026-04-20T19:24:28.076Z</time><hdop>5.0</hdop><vdop>6.812</vdop><extensions><gom:speed>0.484</gom:speed></extensions></trkpt>
   <trkpt lat="59.0718883949" lon="30.0306624476"><ele>78.328</ele><time>2026-04-20T19:24:29.075Z</time><hdop>4.812</hdop><vdop>6.687</vdop><extensions><gom:speed>0.432</gom:speed></extensions></trkpt>
   <trkpt lat="59.071887389" lon="30.0306671415"><ele>78.168</ele><time>2026-04-20T19:24:29.700Z</time><hdop>4.75</hdop><vdop>6.687</vdop><extensions><gom:speed>0.418</gom:speed></extensions></trkpt>
   <trkpt lat="59.0718866766" lon="30.0306777865"><ele>77.942</ele><time>2026-04-20T19:24:30.797Z</time><hdop>4.75</hdop><vdop>6.437</vdop><extensions><gom:speed>0.41</gom:speed></extensions></trkpt>
   <trkpt lat="59.0718855869" lon="30.0306816422"><ele>77.915</ele><time>2026-04-20T19:24:32.008Z</time><hdop>4.812</hdop><vdop>6.312</vdop><extensions><gom:speed>0.288</gom:speed></extensions></trkpt>
   <trkpt lat="59.0718856707" lon="30.0306801335"><ele>77.838</ele><time>2026-04-20T19:24:33.075Z</time><hdop>4.875</hdop><vdop>6.375</vdop><extensions><gom:speed>0.187</gom:speed></extensions></trkpt>
   <trkpt lat="59.0718855869" lon="30.0306795467"><ele>77.825</ele><time>2026-04-20T19:24:34.021Z</time><hdop>4.937</hdop><vdop>6.187</vdop><extensions><gom:speed>0.172</gom:speed></extensions></trkpt>
   <trkpt lat="59.0718859641" lon="30.0306781218"><ele>77.676</ele><time>2026-04-20T19:24:34.969Z</time><hdop>5.0</hdop><vdop>6.125</vdop><extensions><gom:speed>0.142</gom:speed></extensions></trkpt>
   <trkpt lat="59.0718862994" lon="30.0306795467"><ele>77.55</ele><time>2026-04-20T19:24:36.075Z</time><hdop>5.062</hdop><vdop>6.125</vdop><extensions><gom:speed>0.116</gom:speed></extensions></trkpt>
   <trkpt lat="59.0718865927" lon="30.0306790438"><ele>77.475</ele><time>2026-04-20T19:24:36.680Z</time><hdop>4.937</hdop><vdop>6.125</vdop><extensions><gom:speed>0.107</gom:speed></extensions></trkpt>
   <trkpt lat="59.0718866766" lon="30.03067896"><ele>77.56</ele><time>2026-04-20T19:24:37.993Z</time><hdop>4.937</hdop><vdop>6.0</vdop><extensions><gom:speed>0.106</gom:speed></extensions></trkpt>
   <trkpt lat="59.0718867604" lon="30.0306784571"><ele>77.734</ele><time>2026-04-20T19:24:38.524Z</time><hdop>4.937</hdop><vdop>6.062</vdop><extensions><gom:speed>0.084</gom:speed></extensions></trkpt>
   <trkpt lat="59.071886467" lon="30.0306790438"><ele>77.855</ele><time>2026-04-20T19:24:38.998Z</time><hdop>5.0</hdop><vdop>6.125</vdop><extensions><gom:speed>0.107</gom:speed></extensions></trkpt>
   <trkpt lat="59.0718861736" lon="30.0306792953"><ele>77.928</ele><time>2026-04-20T19:24:40.037Z</time><hdop>5.062</hdop><vdop>6.125</vdop><extensions><gom:speed>0.138</gom:speed></extensions></trkpt>
   <trkpt lat="59.0718857965" lon="30.0306831509"><ele>78.052</ele><time>2026-04-20T19:24:41.011Z</time><hdop>5.062</hdop><vdop>5.937</vdop><extensions><gom:speed>0.112</gom:speed></extensions></trkpt>
   <trkpt lat="59.0718854612" lon="30.0306832348"><ele>78.192</ele><time>2026-04-20T19:24:41.959Z</time><hdop>5.062</hdop><vdop>5.687</vdop><extensions><gom:speed>0.083</gom:speed></extensions></trkpt>
   <trkpt lat="59.0718858803" lon="30.0306820613"><ele>78.308</ele><time>2026-04-20T19:24:43.025Z</time><hdop>5.062</hdop><vdop>5.312</vdop><extensions><gom:speed>0.076</gom:speed></extensions></trkpt>
   <trkpt lat="59.0718860898" lon="30.0306846597"><ele>78.389</ele><time>2026-04-20T19:24:44.075Z</time><hdop>5.062</hdop><vdop>5.062</vdop><extensions><gom:speed>0.114</gom:speed></extensions></trkpt>
   <trkpt lat="59.0718858803" lon="30.0306848273"><ele>78.438</ele><time>2026-04-20T19:24:44.684Z</time><hdop>5.062</hdop><vdop>5.062</vdop><extensions><gom:speed>0.096</gom:speed></extensions></trkpt>
   <trkpt lat="59.0718846649" lon="30.0306865875"><ele>78.486</ele><time>2026-04-20T19:24:45.988Z</time><hdop>4.875</hdop><vdop>5.312</vdop><extensions><gom:speed>0.073</gom:speed></extensions></trkpt>
   <trkpt lat="59.0718834914" lon="30.030687761"><ele>78.53</ele><time>2026-04-20T19:24:46.935Z</time><hdop>4.937</hdop><vdop>5.312</vdop><extensions><gom:speed>0.063</gom:speed></extensions></trkpt>
   <trkpt lat="59.0718820665" lon="30.0306894374"><ele>78.565</ele><time>2026-04-20T19:24:48.001Z</time><hdop>5.0</hdop><vdop>5.187</vdop><extensions><gom:speed>0.073</gom:speed></extensions></trkpt>
   <trkpt lat="59.0718811864" lon="30.0306884315"><ele>78.587</ele><time>2026-04-20T19:24:49.068Z</time><hdop>5.0</hdop><vdop>5.187</vdop><extensions><gom:speed>0.079</gom:speed></extensions></trkpt>
   <trkpt lat="59.0718806835" lon="30.0306897726"><ele>78.614</ele><time>2026-04-20T19:24:50.016Z</time><hdop>5.125</hdop><vdop>5.25</vdop><extensions><gom:speed>0.082</gom:speed></extensions></trkpt>
   <trkpt lat="59.0718808931" lon="30.0306902756"><ele>78.629</ele><time>2026-04-20T19:24:50.845Z</time><hdop>5.125</hdop><vdop>5.25</vdop><extensions><gom:speed>0.073</gom:speed></extensions></trkpt>
   <trkpt lat="59.0718824856" lon="30.0306928739"><ele>78.679</ele><time>2026-04-20T19:24:52.075Z</time><hdop>5.25</hdop><vdop>5.562</vdop><extensions><gom:speed>0.098</gom:speed></extensions></trkpt>
   <trkpt lat="59.0718837848" lon="30.0306930416"><ele>78.711</ele><time>2026-04-20T19:24:52.976Z</time><hdop>5.25</hdop><vdop>6.0</vdop><extensions><gom:speed>0.105</gom:speed></extensions></trkpt>
   <trkpt lat="59.0718844973" lon="30.0306934607"><ele>78.73</ele><time>2026-04-20T19:24:53.840Z</time><hdop>5.25</hdop><vdop>6.0</vdop><extensions><gom:speed>0.1</gom:speed></extensions></trkpt>
   <trkpt lat="59.0718851678" lon="30.0306944665"><ele>78.797</ele><time>2026-04-20T19:24:54.677Z</time><hdop>5.25</hdop><vdop>6.375</vdop><extensions><gom:speed>0.114</gom:speed></extensions></trkpt>
   <trkpt lat="59.0718851678" lon="30.0306952209"><ele>78.999</ele><time>2026-04-20T19:24:56.076Z</time><hdop>5.25</hdop><vdop>6.687</vdop><extensions><gom:speed>0.122</gom:speed></extensions></trkpt>
   <trkpt lat="59.0718854612" lon="30.0306954723"><ele>79.202</ele><time>2026-04-20T19:24:57.004Z</time><hdop>5.25</hdop><vdop>7.0</vdop><extensions><gom:speed>0.125</gom:speed></extensions></trkpt>
   <trkpt lat="59.0718854612" lon="30.0306967296"><ele>79.448</ele><time>2026-04-20T19:24:58.075Z</time><hdop>5.25</hdop><vdop>6.5</vdop><extensions><gom:speed>0.147</gom:speed></extensions></trkpt>
   <trkpt lat="59.0718855869" lon="30.0306973164"><ele>79.658</ele><time>2026-04-20T19:24:59.018Z</time><hdop>5.25</hdop><vdop>6.062</vdop><extensions><gom:speed>0.121</gom:speed></extensions></trkpt>
   <trkpt lat="59.0718851678" lon="30.0306979869"><ele>79.876</ele><time>2026-04-20T19:25:00.075Z</time><hdop>5.187</hdop><vdop>5.75</vdop><extensions><gom:speed>0.143</gom:speed></extensions></trkpt>
   <trkpt lat="59.0718851678" lon="30.0306982384"><ele>80.054</ele><time>2026-04-20T19:25:01.075Z</time><hdop>5.187</hdop><vdop>6.062</vdop><extensions><gom:speed>0.165</gom:speed></extensions></trkpt>
   <trkpt lat="59.0718851678" lon="30.0307000824"><ele>80.22</ele><time>2026-04-20T19:25:02.075Z</time><hdop>5.125</hdop><vdop>6.0</vdop><extensions><gom:speed>0.182</gom:speed></extensions></trkpt>
   <trkpt lat="59.0718847906" lon="30.0307030999"><ele>80.399</ele><time>2026-04-20T19:25:03.076Z</time><hdop>5.0</hdop><vdop>5.875</vdop><extensions><gom:speed>0.184</gom:speed></extensions></trkpt>
   <trkpt lat="59.0718851678" lon="30.0307057821"><ele>80.506</ele><time>2026-04-20T19:25:03.878Z</time><hdop>4.937</hdop><vdop>5.875</vdop><extensions><gom:speed>0.185</gom:speed></extensions></trkpt>
   <trkpt lat="59.0718852935" lon="30.0307056983"><ele>80.733</ele><time>2026-04-20T19:25:04.817Z</time><hdop>4.937</hdop><vdop>5.937</vdop><extensions><gom:speed>0.192</gom:speed></extensions></trkpt>
   <trkpt lat="59.0718824856" lon="30.0307080452"><ele>80.061</ele><time>2026-04-20T19:25:05.439Z</time><hdop>4.875</hdop><vdop>5.75</vdop><extensions><gom:speed>0.121</gom:speed></extensions></trkpt>
   <trkpt lat="59.0718806835" lon="30.0307121523"><ele>79.274</ele><time>2026-04-20T19:25:06.075Z</time><hdop>4.875</hdop><vdop>6.0</vdop><extensions><gom:speed>0.146</gom:speed></extensions></trkpt>
   <trkpt lat="59.0718800968" lon="30.0307130743"><ele>78.804</ele><time>2026-04-20T19:25:06.979Z</time><hdop>4.812</hdop><vdop>6.0</vdop><extensions><gom:speed>0.121</gom:speed></extensions></trkpt>
   <trkpt lat="59.0718796777" lon="30.0307186902"><ele>78.239</ele><time>2026-04-20T19:25:08.015Z</time><hdop>4.75</hdop><vdop>6.0</vdop><extensions><gom:speed>0.168</gom:speed></extensions></trkpt>
   <trkpt lat="59.0718797615" lon="30.030722965"><ele>77.747</ele><time>2026-04-20T19:25:09.081Z</time><hdop>4.687</hdop><vdop>6.0</vdop><extensions><gom:speed>0.192</gom:speed></extensions></trkpt>
   <trkpt lat="59.0718819827" lon="30.0307281618"><ele>77.528</ele><time>2026-04-20T19:25:09.821Z</time><hdop>4.625</hdop><vdop>6.062</vdop><extensions><gom:speed>0.27</gom:speed></extensions></trkpt>
   <trkpt lat="59.0718853774" lon="30.0307250605"><ele>77.856</ele><time>2026-04-20T19:25:10.937Z</time><hdop>4.687</hdop><vdop>6.125</vdop><extensions><gom:speed>0.363</gom:speed></extensions></trkpt>
   <trkpt lat="59.0718852935" lon="30.0307430815"><ele>78.696</ele><time>2026-04-20T19:25:12.075Z</time><hdop>4.75</hdop><vdop>6.0</vdop><extensions><gom:speed>0.306</gom:speed></extensions></trkpt>
   <trkpt lat="59.071887389" lon="30.030747524"><ele>79.198</ele><time>2026-04-20T19:25:13.039Z</time><hdop>4.812</hdop><vdop>6.0</vdop><extensions><gom:speed>0.351</gom:speed></extensions></trkpt>
   <trkpt lat="59.0718889816" lon="30.0307617732"><ele>79.686</ele><time>2026-04-20T19:25:13.860Z</time><hdop>5.0</hdop><vdop>5.75</vdop><extensions><gom:speed>0.444</gom:speed></extensions></trkpt>
   <trkpt lat="59.0718891911" lon="30.0307805487"><ele>80.247</ele><time>2026-04-20T19:25:15.011Z</time><hdop>5.25</hdop><vdop>5.687</vdop><extensions><gom:speed>0.43</gom:speed></extensions></trkpt>
   <trkpt lat="59.0718885625" lon="30.0307825603"><ele>80.582</ele><time>2026-04-20T19:25:15.604Z</time><hdop>5.437</hdop><vdop>5.687</vdop><extensions><gom:speed>0.399</gom:speed></extensions></trkpt>
   <trkpt lat="59.0718876824" lon="30.0307943788"><ele>81.073</ele><time>2026-04-20T19:25:16.075Z</time><hdop>5.5</hdop><vdop>5.687</vdop><extensions><gom:speed>0.358</gom:speed></extensions></trkpt>
   <trkpt lat="59.0718899874" lon="30.0308028445"><ele>81.612</ele><time>2026-04-20T19:25:17.025Z</time><hdop>5.687</hdop><vdop>5.812</vdop><extensions><gom:speed>0.475</gom:speed></extensions></trkpt>
   <trkpt lat="59.0718972797" lon="30.0308147468"><ele>81.934</ele><time>2026-04-20T19:25:17.996Z</time><hdop>6.062</hdop><vdop>5.812</vdop><extensions><gom:speed>0.669</gom:speed></extensions></trkpt>
   <trkpt lat="59.0719024765" lon="30.0308390543"><ele>82.252</ele><time>2026-04-20T19:25:18.935Z</time><hdop>6.5</hdop><vdop>5.75</vdop><extensions><gom:speed>0.825</gom:speed></extensions></trkpt>
   <trkpt lat="59.0719124928" lon="30.0308628589"><ele>82.626</ele><time>2026-04-20T19:25:19.988Z</time><hdop>6.937</hdop><vdop>5.875</vdop><extensions><gom:speed>0.991</gom:speed></extensions></trkpt>
   <trkpt lat="59.0719209585" lon="30.0308760185"><ele>82.872</ele><time>2026-04-20T19:25:20.935Z</time><hdop>7.437</hdop><vdop>5.875</vdop><extensions><gom:speed>0.969</gom:speed></extensions></trkpt>
   <trkpt lat="59.0719231798" lon="30.0308760185"><ele>83.019</ele><time>2026-04-20T19:25:21.764Z</time><hdop>7.687</hdop><vdop>5.875</vdop><extensions><gom:speed>0.907</gom:speed></extensions></trkpt>
   <trkpt lat="59.0719188631" lon="30.030905439"><ele>83.295</ele><time>2026-04-20T19:25:22.950Z</time><hdop>8.875</hdop><vdop>5.875</vdop><extensions><gom:speed>0.705</gom:speed></extensions></trkpt>
   <trkpt lat="59.0719196594" lon="30.0309042655"><ele>83.46</ele><time>2026-04-20T19:25:23.474Z</time><hdop>9.25</hdop><vdop>5.875</vdop><extensions><gom:speed>0.602</gom:speed></extensions></trkpt>
   <trkpt lat="59.071921671" lon="30.0309036788"><ele>83.571</ele><time>2026-04-20T19:25:24.015Z</time><hdop>9.562</hdop><vdop>5.812</vdop><extensions><gom:speed>0.583</gom:speed></extensions></trkpt>
   <trkpt lat="59.0719230959" lon="30.0309041817"><ele>83.638</ele><time>2026-04-20T19:25:24.524Z</time><hdop>9.812</hdop><vdop>5.812</vdop><extensions><gom:speed>0.597</gom:speed></extensions></trkpt>
   <trkpt lat="59.0719261972" lon="30.0309048523"><ele>83.759</ele><time>2026-04-20T19:25:25.972Z</time><hdop>10.187</hdop><vdop>5.937</vdop><extensions><gom:speed>0.447</gom:speed></extensions></trkpt>
   <trkpt lat="59.0719080923" lon="30.0309051876"><ele>83.941</ele><time>2026-04-20T19:25:27.075Z</time><hdop>10.125</hdop><vdop>6.312</vdop><extensions><gom:speed>0.18</gom:speed></extensions></trkpt>
   <trkpt lat="59.0718996685" lon="30.0309018348"><ele>84.049</ele><time>2026-04-20T19:25:27.924Z</time><hdop>10.0</hdop><vdop>6.312</vdop><extensions><gom:speed>0.199</gom:speed></extensions></trkpt>
   <trkpt lat="59.0718979921" lon="30.0309064448"><ele>84.208</ele><time>2026-04-20T19:25:28.992Z</time><hdop>9.75</hdop><vdop>6.937</vdop><extensions><gom:speed>0.283</gom:speed></extensions></trkpt>
   <trkpt lat="59.0719002972" lon="30.0309141562"><ele>84.373</ele><time>2026-04-20T19:25:29.938Z</time><hdop>9.75</hdop><vdop>7.312</vdop><extensions><gom:speed>0.331</gom:speed></extensions></trkpt>
   <trkpt lat="59.0718916638" lon="30.0309183471"><ele>84.535</ele><time>2026-04-20T19:25:31.075Z</time><hdop>9.562</hdop><vdop>7.562</vdop><extensions><gom:speed>0.248</gom:speed></extensions></trkpt>
   <trkpt lat="59.0718856707" lon="30.0309284892"><ele>84.631</ele><time>2026-04-20T19:25:32.054Z</time><hdop>9.5</hdop><vdop>7.562</vdop><extensions><gom:speed>0.38</gom:speed></extensions></trkpt>
   <trkpt lat="59.0718846649" lon="30.0309474323"><ele>84.728</ele><time>2026-04-20T19:25:32.913Z</time><hdop>9.937</hdop><vdop>7.625</vdop><extensions><gom:speed>0.551</gom:speed></extensions></trkpt>
   <trkpt lat="59.0718843715" lon="30.0309727457"><ele>84.847</ele><time>2026-04-20T19:25:33.712Z</time><hdop>10.562</hdop><vdop>7.625</vdop><extensions><gom:speed>0.681</gom:speed></extensions></trkpt>
   <trkpt lat="59.0718728883" lon="30.0309914373"><ele>84.971</ele><time>2026-04-20T19:25:34.582Z</time><hdop>10.625</hdop><vdop>7.562</vdop><extensions><gom:speed>0.679</gom:speed></extensions></trkpt>
   <trkpt lat="59.0718712958" lon="30.0309963827"><ele>85.065</ele><time>2026-04-20T19:25:35.033Z</time><hdop>10.625</hdop><vdop>7.312</vdop><extensions><gom:speed>0.681</gom:speed></extensions></trkpt>
   <trkpt lat="59.0718701642" lon="30.0310044293"><ele>85.122</ele><time>2026-04-20T19:25:35.756Z</time><hdop>10.562</hdop><vdop>7.312</vdop><extensions><gom:speed>0.683</gom:speed></extensions></trkpt>
   <trkpt lat="59.0718702899" lon="30.0310168345"><ele>85.175</ele><time>2026-04-20T19:25:36.793Z</time><hdop>11.0</hdop><vdop>7.187</vdop><extensions><gom:speed>0.666</gom:speed></extensions></trkpt>
   <trkpt lat="59.0718705833" lon="30.0310279824"><ele>85.227</ele><time>2026-04-20T19:25:37.760Z</time><hdop>11.062</hdop><vdop>7.375</vdop><extensions><gom:speed>0.621</gom:speed></extensions></trkpt>
   <trkpt lat="59.0718696613" lon="30.0310356938"><ele>85.272</ele><time>2026-04-20T19:25:38.738Z</time><hdop>11.0</hdop><vdop>7.375</vdop><extensions><gom:speed>0.536</gom:speed></extensions></trkpt>
   <trkpt lat="59.0718671886" lon="30.0310390465"><ele>85.321</ele><time>2026-04-20T19:25:40.002Z</time><hdop>11.187</hdop><vdop>7.5</vdop><extensions><gom:speed>0.462</gom:speed></extensions></trkpt>
   <trkpt lat="59.0718667695" lon="30.031042064"><ele>85.366</ele><time>2026-04-20T19:25:40.672Z</time><hdop>11.25</hdop><vdop>7.562</vdop><extensions><gom:speed>0.385</gom:speed></extensions></trkpt>
   <trkpt lat="59.0718685717" lon="30.0310448301"><ele>85.402</ele><time>2026-04-20T19:25:41.620Z</time><hdop>11.375</hdop><vdop>7.562</vdop><extensions><gom:speed>0.417</gom:speed></extensions></trkpt>
   <trkpt lat="59.0718715891" lon="30.0310485181"><ele>85.446</ele><time>2026-04-20T19:25:42.597Z</time><hdop>11.437</hdop><vdop>7.625</vdop><extensions><gom:speed>0.433</gom:speed></extensions></trkpt>
   <trkpt lat="59.0718735589" lon="30.0310546369"><ele>85.48</ele><time>2026-04-20T19:25:43.456Z</time><hdop>11.625</hdop><vdop>7.687</vdop><extensions><gom:speed>0.535</gom:speed></extensions></trkpt>
   <trkpt lat="59.0718750676" lon="30.0310609233"><ele>85.507</ele><time>2026-04-20T19:25:44.036Z</time><hdop>11.75</hdop><vdop>7.875</vdop><extensions><gom:speed>0.551</gom:speed></extensions></trkpt>
   <trkpt lat="59.0718682783" lon="30.0310636893"><ele>87.333</ele><time>2026-04-20T19:25:45.076Z</time><hdop>11.875</hdop><vdop>5.5</vdop><extensions><gom:speed>0.712</gom:speed></extensions></trkpt>
   <trkpt lat="59.0718481617" lon="30.0310654495"><ele>88.71</ele><time>2026-04-20T19:25:46.075Z</time><hdop>11.687</hdop><vdop>4.25</vdop><extensions><gom:speed>0.722</gom:speed></extensions></trkpt>
   <trkpt lat="59.0718277937" lon="30.0310792797"><ele>89.532</ele><time>2026-04-20T19:25:47.040Z</time><hdop>11.312</hdop><vdop>4.25</vdop><extensions><gom:speed>0.779</gom:speed></extensions></trkpt>
   <trkpt lat="59.0718079705" lon="30.0310839735"><ele>91.049</ele><time>2026-04-20T19:25:47.801Z</time><hdop>10.75</hdop><vdop>3.562</vdop><extensions><gom:speed>0.766</gom:speed></extensions></trkpt>
   <trkpt lat="59.0717903685" lon="30.0310936966"><ele>92.671</ele><time>2026-04-20T19:25:48.718Z</time><hdop>9.75</hdop><vdop>3.187</vdop><extensions><gom:speed>0.733</gom:speed></extensions></trkpt>
   <trkpt lat="59.0717783824" lon="30.0311009888"><ele>93.652</ele><time>2026-04-20T19:25:49.617Z</time><hdop>8.5</hdop><vdop>2.75</vdop><extensions><gom:speed>0.719</gom:speed></extensions></trkpt>
   <trkpt lat="59.0717737723" lon="30.0311043416"><ele>93.604</ele><time>2026-04-20T19:25:50.076Z</time><hdop>8.25</hdop><vdop>2.5</vdop><extensions><gom:speed>0.707</gom:speed></extensions></trkpt>
   <trkpt lat="59.0717658933" lon="30.0311062694"><ele>93.334</ele><time>2026-04-20T19:25:51.075Z</time><hdop>7.062</hdop><vdop>2.5</vdop><extensions><gom:speed>0.675</gom:speed></extensions></trkpt>
   <trkpt lat="59.07176187" lon="30.0311031681"><ele>93.172</ele><time>2026-04-20T19:25:51.897Z</time><hdop>6.375</hdop><vdop>2.5</vdop><extensions><gom:speed>0.578</gom:speed></extensions></trkpt>
   <trkpt lat="59.0717603613" lon="30.0311047607"><ele>93.044</ele><time>2026-04-20T19:25:52.684Z</time><hdop>5.812</hdop><vdop>7.812</vdop><extensions><gom:speed>0.521</gom:speed></extensions></trkpt>
   <trkpt lat="59.0717524823" lon="30.0311113824"><ele>92.848</ele><time>2026-04-20T19:25:53.962Z</time><hdop>5.0</hdop><vdop>7.562</vdop><extensions><gom:speed>0.49</gom:speed></extensions></trkpt>
   <trkpt lat="59.0717480818" lon="30.0311208539"><ele>92.681</ele><time>2026-04-20T19:25:54.939Z</time><hdop>4.875</hdop><vdop>7.5</vdop><extensions><gom:speed>0.503</gom:speed></extensions></trkpt>
   <trkpt lat="59.0717439747" lon="30.0311253801"><ele>92.511</ele><time>2026-04-20T19:25:55.758Z</time><hdop>4.875</hdop><vdop>7.5</vdop><extensions><gom:speed>0.542</gom:speed></extensions></trkpt>
   <trkpt lat="59.0717386941" lon="30.0311341811"><ele>92.489</ele><time>2026-04-20T19:25:56.577Z</time><hdop>4.937</hdop><vdop>7.687</vdop><extensions><gom:speed>0.661</gom:speed></extensions></trkpt>
   <trkpt lat="59.0717324915" lon="30.0311373663"><ele>92.42</ele><time>2026-04-20T19:25:57.411Z</time><hdop>5.062</hdop><vdop>7.375</vdop><extensions><gom:speed>0.742</gom:speed></extensions></trkpt>
   <trkpt lat="59.0717283843" lon="30.0311437365"><ele>92.358</ele><time>2026-04-20T19:25:58.075Z</time><hdop>5.125</hdop><vdop>7.312</vdop><extensions><gom:speed>0.707</gom:speed></extensions></trkpt>
   <trkpt lat="59.0717244867" lon="30.0311490171"><ele>92.32</ele><time>2026-04-20T19:25:58.845Z</time><hdop>5.25</hdop><vdop>7.312</vdop><extensions><gom:speed>0.794</gom:speed></extensions></trkpt>
   <trkpt lat="59.0717143865" lon="30.0311608356"><ele>92.37</ele><time>2026-04-20T19:26:00.076Z</time><hdop>5.437</hdop><vdop>6.812</vdop><extensions><gom:speed>0.718</gom:speed></extensions></trkpt>
   <trkpt lat="59.0717097765" lon="30.0311691337"><ele>92.399</ele><time>2026-04-20T19:26:00.861Z</time><hdop>5.562</hdop><vdop>6.812</vdop><extensions><gom:speed>0.774</gom:speed></extensions></trkpt>
   <trkpt lat="59.0717037834" lon="30.0311805331"><ele>92.515</ele><time>2026-04-20T19:26:01.721Z</time><hdop>5.687</hdop><vdop>6.937</vdop><extensions><gom:speed>0.859</gom:speed></extensions></trkpt>
   <trkpt lat="59.0716985867" lon="30.0311929383"><ele>92.542</ele><time>2026-04-20T19:26:02.520Z</time><hdop>5.875</hdop><vdop>7.125</vdop><extensions><gom:speed>0.879</gom:speed></extensions></trkpt>
   <trkpt lat="59.0716971617" lon="30.0312028289"><ele>92.552</ele><time>2026-04-20T19:26:03.075Z</time><hdop>5.937</hdop><vdop>7.25</vdop><extensions><gom:speed>0.851</gom:speed></extensions></trkpt>
   <trkpt lat="59.071692384" lon="30.031215318"><ele>92.58</ele><time>2026-04-20T19:26:04.057Z</time><hdop>6.125</hdop><vdop>7.375</vdop><extensions><gom:speed>0.854</gom:speed></extensions></trkpt>
   <trkpt lat="59.0716874806" lon="30.0312251248"><ele>92.597</ele><time>2026-04-20T19:26:04.860Z</time><hdop>6.312</hdop><vdop>7.375</vdop><extensions><gom:speed>0.887</gom:speed></extensions></trkpt>
   <trkpt lat="59.0716805656" lon="30.0312360213"><ele>92.607</ele><time>2026-04-20T19:26:05.896Z</time><hdop>6.562</hdop><vdop>7.125</vdop><extensions><gom:speed>0.87</gom:speed></extensions></trkpt>
   <trkpt lat="59.071674363" lon="30.0312440679"><ele>92.608</ele><time>2026-04-20T19:26:06.775Z</time><hdop>6.812</hdop><vdop>7.187</vdop><extensions><gom:speed>0.837</gom:speed></extensions></trkpt>
   <trkpt lat="59.0716674898" lon="30.0312516954"><ele>92.619</ele><time>2026-04-20T19:26:07.782Z</time><hdop>7.062</hdop><vdop>7.25</vdop><extensions><gom:speed>0.82</gom:speed></extensions></trkpt>
   <trkpt lat="59.0716680765" lon="30.0312527851"><ele>92.623</ele><time>2026-04-20T19:26:08.581Z</time><hdop>7.25</hdop><vdop>7.375</vdop><extensions><gom:speed>0.825</gom:speed></extensions></trkpt>
   <trkpt lat="59.0716656877" lon="30.0312526174"><ele>92.619</ele><time>2026-04-20T19:26:09.033Z</time><hdop>7.312</hdop><vdop>6.625</vdop><extensions><gom:speed>0.826</gom:speed></extensions></trkpt>
   <trkpt lat="59.0716635922" lon="30.0312515278"><ele>92.617</ele><time>2026-04-20T19:26:09.500Z</time><hdop>7.437</hdop><vdop>6.625</vdop><extensions><gom:speed>0.782</gom:speed></extensions></trkpt>
   <trkpt lat="59.0716601975" lon="30.0312512763"><ele>92.615</ele><time>2026-04-20T19:26:09.981Z</time><hdop>7.562</hdop><vdop>6.25</vdop><extensions><gom:speed>0.788</gom:speed></extensions></trkpt>
   <trkpt lat="59.0716561742" lon="30.0312521983"><ele>92.613</ele><time>2026-04-20T19:26:10.674Z</time><hdop>7.687</hdop><vdop>6.25</vdop><extensions><gom:speed>0.72</gom:speed></extensions></trkpt>
   <trkpt lat="59.0716527796" lon="30.0312541262"><ele>92.617</ele><time>2026-04-20T19:26:11.239Z</time><hdop>7.812</hdop><vdop>5.937</vdop><extensions><gom:speed>0.711</gom:speed></extensions></trkpt>
   <trkpt lat="59.0716494687" lon="30.031255132"><ele>92.62</ele><time>2026-04-20T19:26:11.760Z</time><hdop>7.875</hdop><vdop>5.937</vdop><extensions><gom:speed>0.703</gom:speed></extensions></trkpt>
   <trkpt lat="59.0716420926" lon="30.0312556349"><ele>92.617</ele><time>2026-04-20T19:26:12.942Z</time><hdop>8.062</hdop><vdop>5.687</vdop><extensions><gom:speed>0.576</gom:speed></extensions></trkpt>
   <trkpt lat="59.0716397876" lon="30.0312605802"><ele>92.616</ele><time>2026-04-20T19:26:14.008Z</time><hdop>8.25</hdop><vdop>5.687</vdop><extensions><gom:speed>0.302</gom:speed></extensions></trkpt>
   <trkpt lat="59.0716399972" lon="30.0312622566"><ele>92.614</ele><time>2026-04-20T19:26:14.957Z</time><hdop>8.437</hdop><vdop>5.75</vdop><extensions><gom:speed>0.212</gom:speed></extensions></trkpt>
   <trkpt lat="59.071641464" lon="30.031260245"><ele>92.619</ele><time>2026-04-20T19:26:16.022Z</time><hdop>8.562</hdop><vdop>5.75</vdop><extensions><gom:speed>0.173</gom:speed></extensions></trkpt>
   <trkpt lat="59.0716436852" lon="30.0312579819"><ele>92.622</ele><time>2026-04-20T19:26:17.032Z</time><hdop>8.812</hdop><vdop>5.75</vdop><extensions><gom:speed>0.167</gom:speed></extensions></trkpt>
   <trkpt lat="59.0716436852" lon="30.0312568922"><ele>92.629</ele><time>2026-04-20T19:26:18.036Z</time><hdop>8.875</hdop><vdop>5.562</vdop><extensions><gom:speed>0.186</gom:speed></extensions></trkpt>
   <trkpt lat="59.0716425955" lon="30.031257898"><ele>92.633</ele><time>2026-04-20T19:26:18.919Z</time><hdop>8.937</hdop><vdop>5.562</vdop><extensions><gom:speed>0.232</gom:speed></extensions></trkpt>
   <trkpt lat="59.0716394942" lon="30.0312591553"><ele>92.614</ele><time>2026-04-20T19:26:19.855Z</time><hdop>9.062</hdop><vdop>5.312</vdop><extensions><gom:speed>0.296</gom:speed></extensions></trkpt>
   <trkpt lat="59.0716354709" lon="30.0312597421"><ele>92.589</ele><time>2026-04-20T19:26:20.596Z</time><hdop>9.125</hdop><vdop>5.25</vdop><extensions><gom:speed>0.398</gom:speed></extensions></trkpt>
   <trkpt lat="59.0716294779" lon="30.0312590715"><ele>92.571</ele><time>2026-04-20T19:26:21.613Z</time><hdop>9.375</hdop><vdop>5.187</vdop><extensions><gom:speed>0.474</gom:speed></extensions></trkpt>
   <trkpt lat="59.0716266699" lon="30.0312584848"><ele>92.559</ele><time>2026-04-20T19:26:22.064Z</time><hdop>9.5</hdop><vdop>5.25</vdop><extensions><gom:speed>0.481</gom:speed></extensions></trkpt>
   <trkpt lat="59.0716229819" lon="30.0312589877"><ele>92.551</ele><time>2026-04-20T19:26:22.640Z</time><hdop>9.625</hdop><vdop>5.25</vdop><extensions><gom:speed>0.551</gom:speed></extensions></trkpt>
   <trkpt lat="59.0716310704" lon="30.0312725664"><ele>92.111</ele><time>2026-04-20T19:26:23.604Z</time><hdop>9.5</hdop><vdop>4.062</vdop><extensions><gom:speed>0.571</gom:speed></extensions></trkpt>
   <trkpt lat="59.0716364768" lon="30.0312902522"><ele>92.535</ele><time>2026-04-20T19:26:24.076Z</time><hdop>9.312</hdop><vdop>3.125</vdop><extensions><gom:speed>0.639</gom:speed></extensions></trkpt>
   <trkpt lat="59.0716353871" lon="30.031303328"><ele>92.788</ele><time>2026-04-20T19:26:25.039Z</time><hdop>9.125</hdop><vdop>3.125</vdop><extensions><gom:speed>0.705</gom:speed></extensions></trkpt>
   <trkpt lat="59.0716339622" lon="30.0313240313"><ele>93.643</ele><time>2026-04-20T19:26:25.898Z</time><hdop>8.687</hdop><vdop>2.75</vdop><extensions><gom:speed>0.787</gom:speed></extensions></trkpt>
   <trkpt lat="59.0716288911" lon="30.0313401245"><ele>94.058</ele><time>2026-04-20T19:26:26.721Z</time><hdop>8.125</hdop><vdop>2.5</vdop><extensions><gom:speed>0.806</gom:speed></extensions></trkpt>
   <trkpt lat="59.0716209702" lon="30.0313502666"><ele>94.848</ele><time>2026-04-20T19:26:27.536Z</time><hdop>7.562</hdop><vdop>2.5</vdop><extensions><gom:speed>0.844</gom:speed></extensions></trkpt>
   <trkpt lat="59.0716143904" lon="30.0313573912"><ele>95.246</ele><time>2026-04-20T19:26:28.075Z</time><hdop>6.875</hdop><vdop>6.5</vdop><extensions><gom:speed>0.825</gom:speed></extensions></trkpt>
   <trkpt lat="59.0716024881" lon="30.0313699641"><ele>95.33</ele><time>2026-04-20T19:26:29.075Z</time><hdop>6.437</hdop><vdop>6.812</vdop><extensions><gom:speed>0.841</gom:speed></extensions></trkpt>
   <trkpt lat="59.0715981715" lon="30.0313767534"><ele>95.381</ele><time>2026-04-20T19:26:29.766Z</time><hdop>6.25</hdop><vdop>6.812</vdop><extensions><gom:speed>0.837</gom:speed></extensions></trkpt>
   <trkpt lat="59.071590963" lon="30.0313910865"><ele>95.424</ele><time>2026-04-20T19:26:30.241Z</time><hdop>5.937</hdop><vdop>6.937</vdop><extensions><gom:speed>0.82</gom:speed></extensions></trkpt>
   <trkpt lat="59.0715868978" lon="30.0314012286"><ele>95.45</ele><time>2026-04-20T19:26:31.081Z</time><hdop>5.75</hdop><vdop>6.937</vdop><extensions><gom:speed>0.851</gom:speed></extensions></trkpt>
   <trkpt lat="59.0715827907" lon="30.0314079341"><ele>95.186</ele><time>2026-04-20T19:26:31.694Z</time><hdop>5.75</hdop><vdop>7.062</vdop><extensions><gom:speed>0.893</gom:speed></extensions></trkpt>
   <trkpt lat="59.0715751631" lon="30.0314165675"><ele>95.172</ele><time>2026-04-20T19:26:32.525Z</time><hdop>5.625</hdop><vdop>7.0</vdop><extensions><gom:speed>0.891</gom:speed></extensions></trkpt>
   <trkpt lat="59.0715684995" lon="30.0314228539"><ele>95.053</ele><time>2026-04-20T19:26:33.341Z</time><hdop>5.562</hdop><vdop>6.875</vdop><extensions><gom:speed>0.895</gom:speed></extensions></trkpt>
   <trkpt lat="59.071561794" lon="30.0314273801"><ele>94.982</ele><time>2026-04-20T19:26:34.032Z</time><hdop>5.625</hdop><vdop>6.875</vdop><extensions><gom:speed>0.972</gom:speed></extensions></trkpt>
   <trkpt lat="59.0715536636" lon="30.0314310682"><ele>94.86</ele><time>2026-04-20T19:26:34.901Z</time><hdop>5.625</hdop><vdop>7.0</vdop><extensions><gom:speed>0.943</gom:speed></extensions></trkpt>
   <trkpt lat="59.0715504784" lon="30.031432074"><ele>94.646</ele><time>2026-04-20T19:26:35.925Z</time><hdop>5.687</hdop><vdop>6.687</vdop><extensions><gom:speed>0.91</gom:speed></extensions></trkpt>
   <trkpt lat="59.0715396658" lon="30.0314361811"><ele>94.461</ele><time>2026-04-20T19:26:36.935Z</time><hdop>5.812</hdop><vdop>6.687</vdop><extensions><gom:speed>0.792</gom:speed></extensions></trkpt>
   <trkpt lat="59.0715350976" lon="30.0314418808"><ele>94.244</ele><time>2026-04-20T19:26:37.813Z</time><hdop>5.875</hdop><vdop>6.5</vdop><extensions><gom:speed>0.765</gom:speed></extensions></trkpt>
   <trkpt lat="59.0715324992" lon="30.0314494245"><ele>94.105</ele><time>2026-04-20T19:26:38.652Z</time><hdop>5.875</hdop><vdop>6.437</vdop><extensions><gom:speed>0.768</gom:speed></extensions></trkpt>
   <trkpt lat="59.0715291884" lon="30.0314586446"><ele>94.014</ele><time>2026-04-20T19:26:39.414Z</time><hdop>5.875</hdop><vdop>6.187</vdop><extensions><gom:speed>0.771</gom:speed></extensions></trkpt>
   <trkpt lat="59.071527973" lon="30.0314639252"><ele>93.96</ele><time>2026-04-20T19:26:40.075Z</time><hdop>5.875</hdop><vdop>6.062</vdop><extensions><gom:speed>0.727</gom:speed></extensions></trkpt>
   <trkpt lat="59.071525668" lon="30.0314735644"><ele>93.927</ele><time>2026-04-20T19:26:40.953Z</time><hdop>5.875</hdop><vdop>6.062</vdop><extensions><gom:speed>0.794</gom:speed></extensions></trkpt>
   <trkpt lat="59.0715210999" lon="30.0314828683"><ele>93.907</ele><time>2026-04-20T19:26:41.753Z</time><hdop>5.937</hdop><vdop>6.125</vdop><extensions><gom:speed>0.841</gom:speed></extensions></trkpt>
   <trkpt lat="59.0715107901" lon="30.0314931781"><ele>93.904</ele><time>2026-04-20T19:26:42.720Z</time><hdop>6.125</hdop><vdop>6.0</vdop><extensions><gom:speed>0.821</gom:speed></extensions></trkpt>
   <trkpt lat="59.0715074793" lon="30.0314970337"><ele>93.904</ele><time>2026-04-20T19:26:43.482Z</time><hdop>6.25</hdop><vdop>6.0</vdop><extensions><gom:speed>0.797</gom:speed></extensions></trkpt>
   <trkpt lat="59.0715047971" lon="30.0315025658"><ele>93.919</ele><time>2026-04-20T19:26:43.981Z</time><hdop>6.375</hdop><vdop>6.062</vdop><extensions><gom:speed>0.795</gom:speed></extensions></trkpt>
   <trkpt lat="59.0715006899" lon="30.0315137975"><ele>93.928</ele><time>2026-04-20T19:26:44.941Z</time><hdop>6.562</hdop><vdop>6.062</vdop><extensions><gom:speed>0.847</gom:speed></extensions></trkpt>
   <trkpt lat="59.0714963732" lon="30.0315254484"><ele>93.95</ele><time>2026-04-20T19:26:45.824Z</time><hdop>6.812</hdop><vdop>6.125</vdop><extensions><gom:speed>0.836</gom:speed></extensions></trkpt>
   <trkpt lat="59.0714990974" lon="30.0315238558"><ele>93.966</ele><time>2026-04-20T19:26:46.561Z</time><hdop>6.875</hdop><vdop>6.25</vdop><extensions><gom:speed>0.79</gom:speed></extensions></trkpt>
   <trkpt lat="59.0714988878" lon="30.0315306452"><ele>93.961</ele><time>2026-04-20T19:26:47.321Z</time><hdop>6.937</hdop><vdop>6.375</vdop><extensions><gom:speed>0.782</gom:speed></extensions></trkpt>
   <trkpt lat="59.071497882" lon="30.0315416255"><ele>93.958</ele><time>2026-04-20T19:26:48.044Z</time><hdop>6.937</hdop><vdop>6.375</vdop><extensions><gom:speed>0.819</gom:speed></extensions></trkpt>
   <trkpt lat="59.0714958703" lon="30.0315627479"><ele>93.951</ele><time>2026-04-20T19:26:49.018Z</time><hdop>6.937</hdop><vdop>6.375</vdop><extensions><gom:speed>0.838</gom:speed></extensions></trkpt>
   <trkpt lat="59.071495074" lon="30.0315727223"><ele>93.946</ele><time>2026-04-20T19:26:49.799Z</time><hdop>6.937</hdop><vdop>6.5</vdop><extensions><gom:speed>0.833</gom:speed></extensions></trkpt>
   <trkpt lat="59.0714933977" lon="30.0315796793"><ele>93.936</ele><time>2026-04-20T19:26:50.420Z</time><hdop>6.937</hdop><vdop>6.687</vdop><extensions><gom:speed>0.774</gom:speed></extensions></trkpt>
   <trkpt lat="59.0714961637" lon="30.0315771647"><ele>92.833</ele><time>2026-04-20T19:26:51.075Z</time><hdop>6.875</hdop><vdop>5.687</vdop><extensions><gom:speed>0.75</gom:speed></extensions></trkpt>
   <trkpt lat="59.0714984687" lon="30.0315737281"><ele>92.906</ele><time>2026-04-20T19:26:52.076Z</time><hdop>6.812</hdop><vdop>4.812</vdop><extensions><gom:speed>0.71</gom:speed></extensions></trkpt>
   <trkpt lat="59.0714961637" lon="30.0315762427"><ele>92.95</ele><time>2026-04-20T19:26:52.801Z</time><hdop>6.687</hdop><vdop>4.812</vdop><extensions><gom:speed>0.813</gom:speed></extensions></trkpt>
   <trkpt lat="59.0714931881" lon="30.031581188"><ele>92.232</ele><time>2026-04-20T19:26:53.619Z</time><hdop>6.437</hdop><vdop>4.375</vdop><extensions><gom:speed>0.864</gom:speed></extensions></trkpt>
   <trkpt lat="59.0714919727" lon="30.0315868877"><ele>91.999</ele><time>2026-04-20T19:26:54.075Z</time><hdop>6.312</hdop><vdop>3.937</vdop><extensions><gom:speed>0.842</gom:speed></extensions></trkpt>
   <trkpt lat="59.0714850996" lon="30.0316051603"><ele>91.771</ele><time>2026-04-20T19:26:55.076Z</time><hdop>6.0</hdop><vdop>3.75</vdop><extensions><gom:speed>0.867</gom:speed></extensions></trkpt>
   <trkpt lat="59.0714792742" lon="30.031614548"><ele>91.635</ele><time>2026-04-20T19:26:56.077Z</time><hdop>5.625</hdop><vdop>3.75</vdop><extensions><gom:speed>0.867</gom:speed></extensions></trkpt>
   <trkpt lat="59.0714724848" lon="30.031626618"><ele>91.821</ele><time>2026-04-20T19:26:56.916Z</time><hdop>5.5</hdop><vdop>3.437</vdop><extensions><gom:speed>0.901</gom:speed></extensions></trkpt>
   <trkpt lat="59.071464983" lon="30.0316453934"><ele>91.735</ele><time>2026-04-20T19:26:57.873Z</time><hdop>5.25</hdop><vdop>3.312</vdop><extensions><gom:speed>0.894</gom:speed></extensions></trkpt>
   <trkpt lat="59.071457565" lon="30.031661822"><ele>91.939</ele><time>2026-04-20T19:26:58.772Z</time><hdop>5.062</hdop><vdop>3.25</vdop><extensions><gom:speed>0.878</gom:speed></extensions></trkpt>
   <trkpt lat="59.0714511948" lon="30.0316783343"><ele>91.983</ele><time>2026-04-20T19:26:59.553Z</time><hdop>4.937</hdop><vdop>3.125</vdop><extensions><gom:speed>0.922</gom:speed></extensions></trkpt>
   <trkpt lat="59.0714468781" lon="30.0316898175"><ele>92.321</ele><time>2026-04-20T19:27:00.075Z</time><hdop>4.875</hdop><vdop>3.125</vdop><extensions><gom:speed>0.93</gom:speed></extensions></trkpt>
   <trkpt lat="59.0714437768" lon="30.0316970259"><ele>92.523</ele><time>2026-04-20T19:27:00.685Z</time><hdop>4.812</hdop><vdop>3.125</vdop><extensions><gom:speed>0.904</gom:speed></extensions></trkpt>
   <trkpt lat="59.0714356883" lon="30.0317140412"><ele>92.433</ele><time>2026-04-20T19:27:01.379Z</time><hdop>4.687</hdop><vdop>3.0</vdop><extensions><gom:speed>0.93</gom:speed></extensions></trkpt>
   <trkpt lat="59.0714300724" lon="30.0317253568"><ele>92.102</ele><time>2026-04-20T19:27:02.076Z</time><hdop>4.625</hdop><vdop>2.875</vdop><extensions><gom:speed>0.901</gom:speed></extensions></trkpt>
   <trkpt lat="59.0714204751" lon="30.0317393546"><ele>91.947</ele><time>2026-04-20T19:27:03.075Z</time><hdop>4.562</hdop><vdop>2.937</vdop><extensions><gom:speed>0.888</gom:speed></extensions></trkpt>
   <trkpt lat="59.0714102911" lon="30.0317504187"><ele>91.755</ele><time>2026-04-20T19:27:04.075Z</time><hdop>4.5</hdop><vdop>3.0</vdop><extensions><gom:speed>0.899</gom:speed></extensions></trkpt>
   <trkpt lat="59.0714007776" lon="30.0317610637"><ele>91.561</ele><time>2026-04-20T19:27:05.075Z</time><hdop>4.5</hdop><vdop>3.062</vdop><extensions><gom:speed>0.8</gom:speed></extensions></trkpt>
   <trkpt lat="59.0713927729" lon="30.0317710382"><ele>91.444</ele><time>2026-04-20T19:27:06.058Z</time><hdop>4.562</hdop><vdop>3.062</vdop><extensions><gom:speed>0.841</gom:speed></extensions></trkpt>
   <trkpt lat="59.0713856902" lon="30.0317807612"><ele>91.406</ele><time>2026-04-20T19:27:06.779Z</time><hdop>4.625</hdop><vdop>8.375</vdop><extensions><gom:speed>0.831</gom:speed></extensions></trkpt>
   <trkpt lat="59.0713768892" lon="30.0317946751"><ele>91.348</ele><time>2026-04-20T19:27:07.775Z</time><hdop>4.75</hdop><vdop>8.0</vdop><extensions><gom:speed>0.757</gom:speed></extensions></trkpt>
   <trkpt lat="59.071374668" lon="30.0318059907"><ele>91.193</ele><time>2026-04-20T19:27:08.675Z</time><hdop>4.875</hdop><vdop>7.875</vdop><extensions><gom:speed>0.738</gom:speed></extensions></trkpt>
   <trkpt lat="59.0713731593" lon="30.0318213296"><ele>91.077</ele><time>2026-04-20T19:27:09.682Z</time><hdop>5.0</hdop><vdop>7.75</vdop><extensions><gom:speed>0.696</gom:speed></extensions></trkpt>
   <trkpt lat="59.0713716924" lon="30.0318335671"><ele>91.015</ele><time>2026-04-20T19:27:10.737Z</time><hdop>5.125</hdop><vdop>7.875</vdop><extensions><gom:speed>0.646</gom:speed></extensions></trkpt>
   <trkpt lat="59.0713686749" lon="30.0318431225"><ele>90.903</ele><time>2026-04-20T19:27:11.598Z</time><hdop>5.25</hdop><vdop>8.125</vdop><extensions><gom:speed>0.641</gom:speed></extensions></trkpt>
   <trkpt lat="59.0713636877" lon="30.0318535999"><ele>90.661</ele><time>2026-04-20T19:27:12.613Z</time><hdop>5.375</hdop><vdop>8.375</vdop><extensions><gom:speed>0.702</gom:speed></extensions></trkpt>
   <trkpt lat="59.071360796" lon="30.031858629"><ele>90.563</ele><time>2026-04-20T19:27:13.075Z</time><hdop>5.437</hdop><vdop>8.25</vdop><extensions><gom:speed>0.712</gom:speed></extensions></trkpt>
   <trkpt lat="59.0713548867" lon="30.0318669271"><ele>90.418</ele><time>2026-04-20T19:27:13.953Z</time><hdop>5.562</hdop><vdop>7.75</vdop><extensions><gom:speed>0.714</gom:speed></extensions></trkpt>
   <trkpt lat="59.0713481812" lon="30.0318742194"><ele>90.332</ele><time>2026-04-20T19:27:15.083Z</time><hdop>5.75</hdop><vdop>7.75</vdop><extensions><gom:speed>0.709</gom:speed></extensions></trkpt>
   <trkpt lat="59.071342272" lon="30.0318812602"><ele>90.2</ele><time>2026-04-20T19:27:16.003Z</time><hdop>5.812</hdop><vdop>8.062</vdop><extensions><gom:speed>0.759</gom:speed></extensions></trkpt>
   <trkpt lat="59.0713370752" lon="30.0318886363"><ele>90.137</ele><time>2026-04-20T19:27:16.798Z</time><hdop>5.937</hdop><vdop>8.25</vdop><extensions><gom:speed>0.806</gom:speed></extensions></trkpt>
   <trkpt lat="59.0713332614" lon="30.0318999518"><ele>90.176</ele><time>2026-04-20T19:27:17.779Z</time><hdop>5.937</hdop><vdop>8.562</vdop><extensions><gom:speed>0.793</gom:speed></extensions></trkpt>
   <trkpt lat="59.0713299925" lon="30.0319112674"><ele>90.243</ele><time>2026-04-20T19:27:18.556Z</time><hdop>6.062</hdop><vdop>8.375</vdop><extensions><gom:speed>0.849</gom:speed></extensions></trkpt>
   <trkpt lat="59.0713276874" lon="30.0319192302"><ele>90.313</ele><time>2026-04-20T19:27:19.047Z</time><hdop>6.125</hdop><vdop>8.062</vdop><extensions><gom:speed>0.855</gom:speed></extensions></trkpt>
   <trkpt lat="59.0713216944" lon="30.0319402688"><ele>90.354</ele><time>2026-04-20T19:27:19.997Z</time><hdop>6.25</hdop><vdop>8.062</vdop><extensions><gom:speed>0.913</gom:speed></extensions></trkpt>
   <trkpt lat="59.071318174" lon="30.0319499918"><ele>90.428</ele><time>2026-04-20T19:27:20.761Z</time><hdop>6.312</hdop><vdop>7.937</vdop><extensions><gom:speed>0.946</gom:speed></extensions></trkpt>
   <trkpt lat="59.0713169586" lon="30.0319511652"><ele>90.496</ele><time>2026-04-20T19:27:21.419Z</time><hdop>6.375</hdop><vdop>7.625</vdop><extensions><gom:speed>0.953</gom:speed></extensions></trkpt>
   <trkpt lat="59.0713131867" lon="30.0319575355"><ele>90.547</ele><time>2026-04-20T19:27:22.010Z</time><hdop>6.437</hdop><vdop>7.875</vdop><extensions><gom:speed>0.953</gom:speed></extensions></trkpt>
   <trkpt lat="59.0713058945" lon="30.0319678452"><ele>90.578</ele><time>2026-04-20T19:27:23.038Z</time><hdop>6.625</hdop><vdop>7.875</vdop><extensions><gom:speed>0.988</gom:speed></extensions></trkpt>
   <trkpt lat="59.0713002786" lon="30.0319763948"><ele>90.595</ele><time>2026-04-20T19:27:23.821Z</time><hdop>6.75</hdop><vdop>7.75</vdop><extensions><gom:speed>0.985</gom:speed></extensions></trkpt>
   <trkpt lat="59.0712935731" lon="30.0319844414"><ele>90.593</ele><time>2026-04-20T19:27:24.657Z</time><hdop>6.937</hdop><vdop>7.562</vdop><extensions><gom:speed>0.993</gom:speed></extensions></trkpt>
   <trkpt lat="59.0712868676" lon="30.0319922366"><ele>90.598</ele><time>2026-04-20T19:27:25.437Z</time><hdop>7.062</hdop><vdop>7.562</vdop><extensions><gom:speed>0.966</gom:speed></extensions></trkpt>
   <trkpt lat="59.0712839758" lon="30.031994835"><ele>90.597</ele><time>2026-04-20T19:27:26.076Z</time><hdop>7.125</hdop><vdop>7.5</vdop><extensions><gom:speed>0.922</gom:speed></extensions></trkpt>
   <trkpt lat="59.0712822994" lon="30.0319976848"><ele>90.597</ele><time>2026-04-20T19:27:26.919Z</time><hdop>7.312</hdop><vdop>7.5</vdop><extensions><gom:speed>0.948</gom:speed></extensions></trkpt>
   <trkpt lat="59.0712771865" lon="30.0320048932"><ele>90.597</ele><time>2026-04-20T19:27:27.778Z</time><hdop>7.437</hdop><vdop>7.312</vdop><extensions><gom:speed>0.944</gom:speed></extensions></trkpt>
   <trkpt lat="59.0712708581" lon="30.0320122693"><ele>90.591</ele><time>2026-04-20T19:27:28.597Z</time><hdop>7.562</hdop><vdop>7.187</vdop><extensions><gom:speed>0.936</gom:speed></extensions></trkpt>
   <trkpt lat="59.0712647813" lon="30.0320198969"><ele>90.591</ele><time>2026-04-20T19:27:29.377Z</time><hdop>7.687</hdop><vdop>6.937</vdop><extensions><gom:speed>0.931</gom:speed></extensions></trkpt>
   <trkpt lat="59.0712594587" lon="30.0320259318"><ele>90.595</ele><time>2026-04-20T19:27:29.947Z</time><hdop>7.75</hdop><vdop>6.875</vdop><extensions><gom:speed>0.919</gom:speed></extensions></trkpt>
   <trkpt lat="59.071250993" lon="30.0320339785"><ele>90.598</ele><time>2026-04-20T19:27:30.975Z</time><hdop>7.937</hdop><vdop>6.875</vdop><extensions><gom:speed>0.939</gom:speed></extensions></trkpt>
   <trkpt lat="59.0712447904" lon="30.0320393429"><ele>90.603</ele><time>2026-04-20T19:27:31.656Z</time><hdop>8.25</hdop><vdop>6.625</vdop><extensions><gom:speed>0.961</gom:speed></extensions></trkpt>
   <trkpt lat="59.0712363666" lon="30.0320447911"><ele>90.615</ele><time>2026-04-20T19:27:32.535Z</time><hdop>8.5</hdop><vdop>6.687</vdop><extensions><gom:speed>0.922</gom:speed></extensions></trkpt>
   <trkpt lat="59.0712423597" lon="30.0320370798"><ele>90.621</ele><time>2026-04-20T19:27:33.076Z</time><hdop>8.5</hdop><vdop>7.0</vdop><extensions><gom:speed>0.87</gom:speed></extensions></trkpt>
   <trkpt lat="59.0712426949" lon="30.0320322183"><ele>90.625</ele><time>2026-04-20T19:27:33.974Z</time><hdop>8.625</hdop><vdop>7.0</vdop><extensions><gom:speed>0.874</gom:speed></extensions></trkpt>
   <trkpt lat="59.0712382944" lon="30.0320245907"><ele>90.629</ele><time>2026-04-20T19:27:35.040Z</time><hdop>8.687</hdop><vdop>6.875</vdop><extensions><gom:speed>0.779</gom:speed></extensions></trkpt>
   <trkpt lat="59.0712408928" lon="30.0320120179"><ele>90.632</ele><time>2026-04-20T19:27:35.988Z</time><hdop>8.687</hdop><vdop>6.75</vdop><extensions><gom:speed>0.62</gom:speed></extensions></trkpt>
   <trkpt lat="59.0712451676" lon="30.0320055638"><ele>90.638</ele><time>2026-04-20T19:27:36.936Z</time><hdop>8.687</hdop><vdop>6.75</vdop><extensions><gom:speed>0.375</gom:speed></extensions></trkpt>
   <trkpt lat="59.0712466763" lon="30.0320058991"><ele>90.641</ele><time>2026-04-20T19:27:37.765Z</time><hdop>8.625</hdop><vdop>6.75</vdop><extensions><gom:speed>0.243</gom:speed></extensions></trkpt>
   <trkpt lat="59.0712482689" lon="30.0320013728"><ele>90.656</ele><time>2026-04-20T19:27:38.950Z</time><hdop>8.625</hdop><vdop>7.062</vdop><extensions><gom:speed>0.145</gom:speed></extensions></trkpt>
   <trkpt lat="59.0712485623" lon="30.032000367"><ele>90.682</ele><time>2026-04-20T19:27:40.016Z</time><hdop>8.625</hdop><vdop>6.812</vdop><extensions><gom:speed>0.129</gom:speed></extensions></trkpt>
   <trkpt lat="59.0712489814" lon="30.0320009538"><ele>90.698</ele><time>2026-04-20T19:27:40.492Z</time><hdop>8.625</hdop><vdop>6.812</vdop><extensions><gom:speed>0.102</gom:speed></extensions></trkpt>
   <trkpt lat="59.0712488976" lon="30.0320010376"><ele>90.708</ele><time>2026-04-20T19:27:41.076Z</time><hdop>8.687</hdop><vdop>6.812</vdop><extensions><gom:speed>0.136</gom:speed></extensions></trkpt>
   <trkpt lat="59.0712476822" lon="30.0320013728"><ele>90.719</ele><time>2026-04-20T19:27:42.031Z</time><hdop>8.75</hdop><vdop>6.937</vdop><extensions><gom:speed>0.168</gom:speed></extensions></trkpt>
   <trkpt lat="59.0712459639" lon="30.032003636"><ele>90.725</ele><time>2026-04-20T19:27:42.921Z</time><hdop>8.875</hdop><vdop>6.937</vdop><extensions><gom:speed>0.223</gom:speed></extensions></trkpt>
   <trkpt lat="59.0712439941" lon="30.0320078269"><ele>90.731</ele><time>2026-04-20T19:27:43.878Z</time><hdop>9.0</hdop><vdop>7.25</vdop><extensions><gom:speed>0.279</gom:speed></extensions></trkpt>
   <trkpt lat="59.0712402642" lon="30.0320149515"><ele>90.737</ele><time>2026-04-20T19:27:44.620Z</time><hdop>9.125</hdop><vdop>7.5</vdop><extensions><gom:speed>0.415</gom:speed></extensions></trkpt>
   <trkpt lat="59.0712360732" lon="30.0320209865"><ele>90.765</ele><time>2026-04-20T19:27:45.416Z</time><hdop>9.25</hdop><vdop>7.312</vdop><extensions><gom:speed>0.54</gom:speed></extensions></trkpt>
   <trkpt lat="59.0712326786" lon="30.032025848"><ele>90.78</ele><time>2026-04-20T19:27:45.939Z</time><hdop>9.375</hdop><vdop>7.375</vdop><extensions><gom:speed>0.571</gom:speed></extensions></trkpt>
   <trkpt lat="59.0712258892" lon="30.0320374989"><ele>90.79</ele><time>2026-04-20T19:27:47.040Z</time><hdop>9.562</hdop><vdop>7.375</vdop><extensions><gom:speed>0.721</gom:speed></extensions></trkpt>
   <trkpt lat="59.071242192" lon="30.0320391752"><ele>89.416</ele><time>2026-04-20T19:27:47.799Z</time><hdop>9.25</hdop><vdop>5.875</vdop><extensions><gom:speed>0.78</gom:speed></extensions></trkpt>
   <trkpt lat="59.071253298" lon="30.0320407678"><ele>87.572</ele><time>2026-04-20T19:27:48.578Z</time><hdop>8.75</hdop><vdop>5.5</vdop><extensions><gom:speed>0.752</gom:speed></extensions></trkpt>
   <trkpt lat="59.0712576985" lon="30.0320407678"><ele>86.243</ele><time>2026-04-20T19:27:49.075Z</time><hdop>8.5</hdop><vdop>5.437</vdop><extensions><gom:speed>0.719</gom:speed></extensions></trkpt>
   <trkpt lat="59.0712582853" lon="30.0320467189"><ele>85.394</ele><time>2026-04-20T19:27:50.075Z</time><hdop>7.812</hdop><vdop>5.187</vdop><extensions><gom:speed>0.685</gom:speed></extensions></trkpt>
   <trkpt lat="59.0712566927" lon="30.0320599624"><ele>84.886</ele><time>2026-04-20T19:27:51.095Z</time><hdop>6.687</hdop><vdop>5.187</vdop><extensions><gom:speed>0.704</gom:speed></extensions></trkpt>
   <trkpt lat="59.0712571956" lon="30.0320718647"><ele>84.632</ele><time>2026-04-20T19:27:51.994Z</time><hdop>6.312</hdop><vdop>5.0</vdop><extensions><gom:speed>0.707</gom:speed></extensions></trkpt>
   <trkpt lat="59.0712560641" lon="30.0320884608"><ele>84.834</ele><time>2026-04-20T19:27:52.892Z</time><hdop>5.5</hdop><vdop>5.125</vdop><extensions><gom:speed>0.745</gom:speed></extensions></trkpt>
   <trkpt lat="59.0712515798" lon="30.0321080745"><ele>84.871</ele><time>2026-04-20T19:27:53.839Z</time><hdop>5.312</hdop><vdop>5.125</vdop><extensions><gom:speed>0.772</gom:speed></extensions></trkpt>
   <trkpt lat="59.0712448742" lon="30.0321248383"><ele>85.489</ele><time>2026-04-20T19:27:54.798Z</time><hdop>5.187</hdop><vdop>5.0</vdop><extensions><gom:speed>0.763</gom:speed></extensions></trkpt>
   <trkpt lat="59.0712380849" lon="30.0321365729"><ele>86.143</ele><time>2026-04-20T19:27:55.558Z</time><hdop>5.062</hdop><vdop>4.687</vdop><extensions><gom:speed>0.791</gom:speed></extensions></trkpt>
   <trkpt lat="59.0712321757" lon="30.0321426917"><ele>86.509</ele><time>2026-04-20T19:27:56.075Z</time><hdop>5.062</hdop><vdop>4.437</vdop><extensions><gom:speed>0.837</gom:speed></extensions></trkpt>
   <trkpt lat="59.0712190999" lon="30.0321526662"><ele>86.709</ele><time>2026-04-20T19:27:57.075Z</time><hdop>4.875</hdop><vdop>4.312</vdop><extensions><gom:speed>0.838</gom:speed></extensions></trkpt>
   <trkpt lat="59.0712107599" lon="30.0321608805"><ele>86.901</ele><time>2026-04-20T19:27:58.075Z</time><hdop>4.812</hdop><vdop>4.437</vdop><extensions><gom:speed>0.788</gom:speed></extensions></trkpt>
   <trkpt lat="59.0712053955" lon="30.032163395"><ele>87.015</ele><time>2026-04-20T19:27:58.677Z</time><hdop>4.812</hdop><vdop>4.437</vdop><extensions><gom:speed>0.823</gom:speed></extensions></trkpt>
   <trkpt lat="59.0711982709" lon="30.0321691786"><ele>87.174</ele><time>2026-04-20T19:27:59.339Z</time><hdop>4.75</hdop><vdop>4.437</vdop><extensions><gom:speed>0.825</gom:speed></extensions></trkpt>
   <trkpt lat="59.0711913977" lon="30.0321766384"><ele>87.331</ele><time>2026-04-20T19:28:00.075Z</time><hdop>4.687</hdop><vdop>4.062</vdop><extensions><gom:speed>0.822</gom:speed></extensions></trkpt>
   <trkpt lat="59.0711832672" lon="30.0321906362"><ele>87.295</ele><time>2026-04-20T19:28:01.075Z</time><hdop>4.687</hdop><vdop>9.062</vdop><extensions><gom:speed>0.779</gom:speed></extensions></trkpt>
   <trkpt lat="59.0711799983" lon="30.0322034605"><ele>87.273</ele><time>2026-04-20T19:28:01.974Z</time><hdop>4.687</hdop><vdop>9.062</vdop><extensions><gom:speed>0.727</gom:speed></extensions></trkpt>
   <trkpt lat="59.0711795792" lon="30.0322117586"><ele>86.986</ele><time>2026-04-20T19:28:02.525Z</time><hdop>4.687</hdop><vdop>8.937</vdop><extensions><gom:speed>0.742</gom:speed></extensions></trkpt>
   <trkpt lat="59.0711807946" lon="30.0322307855"><ele>86.752</ele><time>2026-04-20T19:28:03.075Z</time><hdop>4.687</hdop><vdop>8.75</vdop><extensions><gom:speed>0.784</gom:speed></extensions></trkpt>
   <trkpt lat="59.0711814651" lon="30.0322424364"><ele>86.613</ele><time>2026-04-20T19:28:03.745Z</time><hdop>4.687</hdop><vdop>8.75</vdop><extensions><gom:speed>0.823</gom:speed></extensions></trkpt>
   <trkpt lat="59.0711760588" lon="30.032259284"><ele>86.457</ele><time>2026-04-20T19:28:04.620Z</time><hdop>4.687</hdop><vdop>8.687</vdop><extensions><gom:speed>0.871</gom:speed></extensions></trkpt>
   <trkpt lat="59.0711719936" lon="30.0322670792"><ele>86.28</ele><time>2026-04-20T19:28:05.075Z</time><hdop>4.687</hdop><vdop>8.687</vdop><extensions><gom:speed>0.886</gom:speed></extensions></trkpt>
   <trkpt lat="59.0711645756" lon="30.0322822504"><ele>86.119</ele><time>2026-04-20T19:28:06.079Z</time><hdop>4.75</hdop><vdop>8.687</vdop><extensions><gom:speed>0.893</gom:speed></extensions></trkpt>
   <trkpt lat="59.0711582892" lon="30.0322956615"><ele>85.884</ele><time>2026-04-20T19:28:07.075Z</time><hdop>4.812</hdop><vdop>8.437</vdop><extensions><gom:speed>0.864</gom:speed></extensions></trkpt>
   <trkpt lat="59.0711523799" lon="30.0323065579"><ele>85.666</ele><time>2026-04-20T19:28:07.974Z</time><hdop>4.875</hdop><vdop>8.25</vdop><extensions><gom:speed>0.856</gom:speed></extensions></trkpt>
   <trkpt lat="59.071150494" lon="30.0323090725"><ele>85.537</ele><time>2026-04-20T19:28:08.685Z</time><hdop>5.0</hdop><vdop>8.25</vdop><extensions><gom:speed>0.854</gom:speed></extensions></trkpt>
   <trkpt lat="59.0711401843" lon="30.0323217292"><ele>85.407</ele><time>2026-04-20T19:28:09.694Z</time><hdop>5.187</hdop><vdop>7.75</vdop><extensions><gom:speed>0.8</gom:speed></extensions></trkpt>
   <trkpt lat="59.0711355742" lon="30.0323258363"><ele>85.313</ele><time>2026-04-20T19:28:10.436Z</time><hdop>5.25</hdop><vdop>7.5</vdop><extensions><gom:speed>0.771</gom:speed></extensions></trkpt>
   <trkpt lat="59.0711325986" lon="30.0323295244"><ele>85.325</ele><time>2026-04-20T19:28:11.075Z</time><hdop>5.312</hdop><vdop>7.062</vdop><extensions><gom:speed>0.739</gom:speed></extensions></trkpt>
   <trkpt lat="59.071126396" lon="30.0323313684"><ele>85.364</ele><time>2026-04-20T19:28:12.002Z</time><hdop>5.375</hdop><vdop>7.0</vdop><extensions><gom:speed>0.708</gom:speed></extensions></trkpt>
   <trkpt lat="59.0711193971" lon="30.0323272612"><ele>85.388</ele><time>2026-04-20T19:28:13.061Z</time><hdop>5.437</hdop><vdop>7.0</vdop><extensions><gom:speed>0.76</gom:speed></extensions></trkpt>
   <trkpt lat="59.0711142842" lon="30.0323247467"><ele>85.436</ele><time>2026-04-20T19:28:13.920Z</time><hdop>5.5</hdop><vdop>6.687</vdop><extensions><gom:speed>0.788</gom:speed></extensions></trkpt>
   <trkpt lat="59.0711073691" lon="30.0323228188"><ele>85.524</ele><time>2026-04-20T19:28:14.761Z</time><hdop>5.625</hdop><vdop>6.5</vdop><extensions><gom:speed>0.809</gom:speed></extensions></trkpt>
   <trkpt lat="59.0710982748" lon="30.0323218968"><ele>85.597</ele><time>2026-04-20T19:28:15.539Z</time><hdop>5.75</hdop><vdop>6.437</vdop><extensions><gom:speed>0.841</gom:speed></extensions></trkpt>
   <trkpt lat="59.0710969756" lon="30.0323239923"><ele>85.692</ele><time>2026-04-20T19:28:16.075Z</time><hdop>5.75</hdop><vdop>6.375</vdop><extensions><gom:speed>0.798</gom:speed></extensions></trkpt>
   <trkpt lat="59.071091192" lon="30.0323313684"><ele>85.785</ele><time>2026-04-20T19:28:16.978Z</time><hdop>5.812</hdop><vdop>6.5</vdop><extensions><gom:speed>0.853</gom:speed></extensions></trkpt>
   <trkpt lat="59.07108566" lon="30.0323391635"><ele>85.841</ele><time>2026-04-20T19:28:17.901Z</time><hdop>5.937</hdop><vdop>6.5</vdop><extensions><gom:speed>0.838</gom:speed></extensions></trkpt>
   <trkpt lat="59.071076859" lon="30.0323394988"><ele>85.88</ele><time>2026-04-20T19:28:19.053Z</time><hdop>6.187</hdop><vdop>6.562</vdop><extensions><gom:speed>0.789</gom:speed></extensions></trkpt>
   <trkpt lat="59.0710705726" lon="30.0323349726"><ele>85.892</ele><time>2026-04-20T19:28:20.001Z</time><hdop>6.375</hdop><vdop>6.812</vdop><extensions><gom:speed>0.752</gom:speed></extensions></trkpt>
   <trkpt lat="59.0710714946" lon="30.0323323742"><ele>85.908</ele><time>2026-04-20T19:28:20.861Z</time><hdop>6.437</hdop><vdop>6.75</vdop><extensions><gom:speed>0.708</gom:speed></extensions></trkpt>
   <trkpt lat="59.0710670941" lon="30.0323302787"><ele>85.92</ele><time>2026-04-20T19:28:21.660Z</time><hdop>6.562</hdop><vdop>7.062</vdop><extensions><gom:speed>0.722</gom:speed></extensions></trkpt>
   <trkpt lat="59.0710582931" lon="30.0323301949"><ele>85.961</ele><time>2026-04-20T19:28:23.020Z</time><hdop>6.687</hdop><vdop>7.062</vdop><extensions><gom:speed>0.622</gom:speed></extensions></trkpt>
   <trkpt lat="59.0710551918" lon="30.0323277642"><ele>86.006</ele><time>2026-04-20T19:28:24.086Z</time><hdop>6.75</hdop><vdop>6.875</vdop><extensions><gom:speed>0.438</gom:speed></extensions></trkpt>
   <trkpt lat="59.0710545631" lon="30.0323256687"><ele>86.033</ele><time>2026-04-20T19:28:24.779Z</time><hdop>6.875</hdop><vdop>6.875</vdop><extensions><gom:speed>0.373</gom:speed></extensions></trkpt>
   <trkpt lat="59.0710534735" lon="30.032324579"><ele>86.06</ele><time>2026-04-20T19:28:25.599Z</time><hdop>7.125</hdop><vdop>6.937</vdop><extensions><gom:speed>0.314</gom:speed></extensions></trkpt>
   <trkpt lat="59.0710606819" lon="30.0323244952"><ele>86.077</ele><time>2026-04-20T19:28:27.075Z</time><hdop>7.437</hdop><vdop>6.625</vdop><extensions><gom:speed>0.227</gom:speed></extensions></trkpt>
   <trkpt lat="59.0710665912" lon="30.0323249981"><ele>86.087</ele><time>2026-04-20T19:28:27.633Z</time><hdop>7.5</hdop><vdop>6.625</vdop><extensions><gom:speed>0.194</gom:speed></extensions></trkpt>
   <trkpt lat="59.0710678904" lon="30.0323243276"><ele>86.086</ele><time>2026-04-20T19:28:28.393Z</time><hdop>7.562</hdop><vdop>6.687</vdop><extensions><gom:speed>0.209</gom:speed></extensions></trkpt>
   <trkpt lat="59.0710669683" lon="30.0323249981"><ele>86.096</ele><time>2026-04-20T19:28:29.062Z</time><hdop>7.625</hdop><vdop>6.75</vdop><extensions><gom:speed>0.238</gom:speed></extensions></trkpt>
   <trkpt lat="59.0710661721" lon="30.0323259201"><ele>86.108</ele><time>2026-04-20T19:28:30.009Z</time><hdop>7.687</hdop><vdop>6.75</vdop><extensions><gom:speed>0.245</gom:speed></extensions></trkpt>
   <trkpt lat="59.0710653758" lon="30.0323285185"><ele>86.124</ele><time>2026-04-20T19:28:30.958Z</time><hdop>7.75</hdop><vdop>6.687</vdop><extensions><gom:speed>0.229</gom:speed></extensions></trkpt>
   <trkpt lat="59.0710626936" lon="30.0323317875"><ele>86.134</ele><time>2026-04-20T19:28:31.897Z</time><hdop>7.812</hdop><vdop>6.687</vdop><extensions><gom:speed>0.38</gom:speed></extensions></trkpt>
   <trkpt lat="59.0710600952" lon="30.0323386606"><ele>86.147</ele><time>2026-04-20T19:28:33.032Z</time><hdop>8.0</hdop><vdop>6.75</vdop><extensions><gom:speed>0.39</gom:speed></extensions></trkpt>
   <trkpt lat="59.0710596761" lon="30.0323459529"><ele>86.172</ele><time>2026-04-20T19:28:33.874Z</time><hdop>8.187</hdop><vdop>6.812</vdop><extensions><gom:speed>0.364</gom:speed></extensions></trkpt>
   <trkpt lat="59.0710589636" lon="30.0323494733"><ele>86.206</ele><time>2026-04-20T19:28:34.820Z</time><hdop>8.312</hdop><vdop>6.625</vdop><extensions><gom:speed>0.401</gom:speed></extensions></trkpt>
   <trkpt lat="59.0710584607" lon="30.032352826"><ele>86.273</ele><time>2026-04-20T19:28:35.816Z</time><hdop>8.5</hdop><vdop>6.875</vdop><extensions><gom:speed>0.327</gom:speed></extensions></trkpt>
   <trkpt lat="59.0710707821" lon="30.0323442765"><ele>86.369</ele><time>2026-04-20T19:28:37.000Z</time><hdop>8.5</hdop><vdop>7.125</vdop><extensions><gom:speed>0.197</gom:speed></extensions></trkpt>
   <trkpt lat="59.0710738834" lon="30.0323424325"><ele>86.443</ele><time>2026-04-20T19:28:37.947Z</time><hdop>8.5</hdop><vdop>7.0</vdop><extensions><gom:speed>0.184</gom:speed></extensions></trkpt>
   <trkpt lat="59.0710746797" lon="30.0323429354"><ele>86.488</ele><time>2026-04-20T19:28:38.542Z</time><hdop>8.5</hdop><vdop>7.0</vdop><extensions><gom:speed>0.214</gom:speed></extensions></trkpt>
   <trkpt lat="59.071079164" lon="30.0323437736"><ele>85.232</ele><time>2026-04-20T19:28:39.076Z</time><hdop>8.312</hdop><vdop>6.625</vdop><extensions><gom:speed>0.239</gom:speed></extensions></trkpt>
   <trkpt lat="59.0710818881" lon="30.0323452823"><ele>84.482</ele><time>2026-04-20T19:28:39.606Z</time><hdop>8.125</hdop><vdop>6.625</vdop><extensions><gom:speed>0.269</gom:speed></extensions></trkpt>
   <trkpt lat="59.0710859953" lon="30.0323525746"><ele>84.376</ele><time>2026-04-20T19:28:40.076Z</time><hdop>7.812</hdop><vdop>6.187</vdop><extensions><gom:speed>0.308</gom:speed></extensions></trkpt>
   <trkpt lat="59.0710903958" lon="30.0323663209"><ele>84.702</ele><time>2026-04-20T19:28:41.075Z</time><hdop>7.437</hdop><vdop>7.312</vdop><extensions><gom:speed>0.34</gom:speed></extensions></trkpt>
   <trkpt lat="59.0710932875" lon="30.0323791452"><ele>85.82</ele><time>2026-04-20T19:28:42.075Z</time><hdop>7.187</hdop><vdop>7.25</vdop><extensions><gom:speed>0.268</gom:speed></extensions></trkpt>
   <trkpt lat="59.071095383" lon="30.0323832524"><ele>86.489</ele><time>2026-04-20T19:28:42.738Z</time><hdop>6.75</hdop><vdop>7.25</vdop><extensions><gom:speed>0.266</gom:speed></extensions></trkpt>
   <trkpt lat="59.0710959697" lon="30.0323941488"><ele>86.787</ele><time>2026-04-20T19:28:43.439Z</time><hdop>6.375</hdop><vdop>7.187</vdop><extensions><gom:speed>0.309</gom:speed></extensions></trkpt>
   <trkpt lat="59.0710955925" lon="30.032403788"><ele>87.224</ele><time>2026-04-20T19:28:44.075Z</time><hdop>6.0</hdop><vdop>6.812</vdop><extensions><gom:speed>0.308</gom:speed></extensions></trkpt>
   <trkpt lat="59.0710939581" lon="30.0324160256"><ele>87.105</ele><time>2026-04-20T19:28:45.075Z</time><hdop>5.437</hdop><vdop>6.437</vdop><extensions><gom:speed>0.256</gom:speed></extensions></trkpt>
   <trkpt lat="59.0710937904" lon="30.0324193784"><ele>87.034</ele><time>2026-04-20T19:28:45.765Z</time><hdop>5.25</hdop><vdop>6.437</vdop><extensions><gom:speed>0.263</gom:speed></extensions></trkpt>
   <trkpt lat="59.0710938743" lon="30.0324269221"><ele>87.212</ele><time>2026-04-20T19:28:46.617Z</time><hdop>5.062</hdop><vdop>6.25</vdop><extensions><gom:speed>0.335</gom:speed></extensions></trkpt>
   <trkpt lat="59.0710927846" lon="30.0324333761"><ele>87.301</ele><time>2026-04-20T19:28:47.075Z</time><hdop>5.062</hdop><vdop>6.312</vdop><extensions><gom:speed>0.324</gom:speed></extensions></trkpt>
   <trkpt lat="59.0710947963" lon="30.0324366451"><ele>87.354</ele><time>2026-04-20T19:28:47.920Z</time><hdop>4.937</hdop><vdop>6.312</vdop><extensions><gom:speed>0.4</gom:speed></extensions></trkpt>
   <trkpt lat="59.0710936647" lon="30.0324462843"><ele>87.456</ele><time>2026-04-20T19:28:48.473Z</time><hdop>4.812</hdop><vdop>6.25</vdop><extensions><gom:speed>0.418</gom:speed></extensions></trkpt>
   <trkpt lat="59.0710927846" lon="30.0324555882"><ele>87.446</ele><time>2026-04-20T19:28:49.075Z</time><hdop>4.812</hdop><vdop>6.125</vdop><extensions><gom:speed>0.401</gom:speed></extensions></trkpt>
   <trkpt lat="59.0710927846" lon="30.0324755371"><ele>87.519</ele><time>2026-04-20T19:28:50.075Z</time><hdop>4.75</hdop><vdop>6.0</vdop><extensions><gom:speed>0.522</gom:speed></extensions></trkpt>
   <trkpt lat="59.0710941676" lon="30.0324896187"><ele>87.685</ele><time>2026-04-20T19:28:50.979Z</time><hdop>4.75</hdop><vdop>5.937</vdop><extensions><gom:speed>0.585</gom:speed></extensions></trkpt>
   <trkpt lat="59.0710956764" lon="30.0324964919"><ele>87.785</ele><time>2026-04-20T19:28:51.926Z</time><hdop>4.875</hdop><vdop>5.937</vdop><extensions><gom:speed>0.626</gom:speed></extensions></trkpt>
   <trkpt lat="59.0710979814" lon="30.0325269182"><ele>88.152</ele><time>2026-04-20T19:28:52.993Z</time><hdop>5.187</hdop><vdop>6.0</vdop><extensions><gom:speed>0.74</gom:speed></extensions></trkpt>
   <trkpt lat="59.0711027591" lon="30.0325381499"><ele>88.371</ele><time>2026-04-20T19:28:54.002Z</time><hdop>5.5</hdop><vdop>6.0</vdop><extensions><gom:speed>0.75</gom:speed></extensions></trkpt>
   <trkpt lat="59.0711089617" lon="30.0325483759"><ele>88.543</ele><time>2026-04-20T19:28:54.826Z</time><hdop>5.812</hdop><vdop>6.187</vdop><extensions><gom:speed>0.842</gom:speed></extensions></trkpt>
   <trkpt lat="59.0711053994" lon="30.0325624574"><ele>88.592</ele><time>2026-04-20T19:28:55.759Z</time><hdop>6.187</hdop><vdop>6.187</vdop><extensions><gom:speed>0.859</gom:speed></extensions></trkpt>
   <trkpt lat="59.0711022981" lon="30.0325791374"><ele>88.618</ele><time>2026-04-20T19:28:57.020Z</time><hdop>6.75</hdop><vdop>6.187</vdop><extensions><gom:speed>0.75</gom:speed></extensions></trkpt>
   <trkpt lat="59.0710964726" lon="30.032584418"><ele>88.6</ele><time>2026-04-20T19:28:57.968Z</time><hdop>7.187</hdop><vdop>6.0</vdop><extensions><gom:speed>0.68</gom:speed></extensions></trkpt>
   <trkpt lat="59.07109027" lon="30.0325817358"><ele>88.497</ele><time>2026-04-20T19:28:59.034Z</time><hdop>7.812</hdop><vdop>6.0</vdop><extensions><gom:speed>0.452</gom:speed></extensions></trkpt>
   <trkpt lat="59.0710854923" lon="30.032571929"><ele>88.4</ele><time>2026-04-20T19:29:00.075Z</time><hdop>8.0</hdop><vdop>6.187</vdop><extensions><gom:speed>0.311</gom:speed></extensions></trkpt>
   <trkpt lat="59.0710826844" lon="30.0325656426"><ele>88.324</ele><time>2026-04-20T19:29:01.048Z</time><hdop>8.25</hdop><vdop>5.875</vdop><extensions><gom:speed>0.249</gom:speed></extensions></trkpt>
   <trkpt lat="59.0710822653" lon="30.0325628765"><ele>88.264</ele><time>2026-04-20T19:29:01.995Z</time><hdop>8.375</hdop><vdop>5.437</vdop><extensions><gom:speed>0.211</gom:speed></extensions></trkpt>
   <trkpt lat="59.0710833969" lon="30.032561284"><ele>88.229</ele><time>2026-04-20T19:29:03.097Z</time><hdop>8.437</hdop><vdop>5.437</vdop><extensions><gom:speed>0.178</gom:speed></extensions></trkpt>
   <trkpt lat="59.0710837741" lon="30.0325636309"><ele>88.184</ele><time>2026-04-20T19:29:04.009Z</time><hdop>8.5</hdop><vdop>5.25</vdop><extensions><gom:speed>0.211</gom:speed></extensions></trkpt>
   <trkpt lat="59.0710836902" lon="30.0325699173"><ele>88.157</ele><time>2026-04-20T19:29:04.861Z</time><hdop>8.562</hdop><vdop>5.25</vdop><extensions><gom:speed>0.289</gom:speed></extensions></trkpt>
   <trkpt lat="59.071081469" lon="30.0325769581"><ele>88.13</ele><time>2026-04-20T19:29:05.603Z</time><hdop>8.812</hdop><vdop>5.375</vdop><extensions><gom:speed>0.373</gom:speed></extensions></trkpt>
   <trkpt lat="59.0710749731" lon="30.0325801433"><ele>88.107</ele><time>2026-04-20T19:29:06.075Z</time><hdop>8.75</hdop><vdop>5.5</vdop><extensions><gom:speed>0.373</gom:speed></extensions></trkpt>
   <trkpt lat="59.0710701954" lon="30.0325835798"><ele>88.093</ele><time>2026-04-20T19:29:06.971Z</time><hdop>8.812</hdop><vdop>5.75</vdop><extensions><gom:speed>0.297</gom:speed></extensions></trkpt>
   <trkpt lat="59.0710698601" lon="30.032583496"><ele>88.085</ele><time>2026-04-20T19:29:07.695Z</time><hdop>8.812</hdop><vdop>5.75</vdop><extensions><gom:speed>0.163</gom:speed></extensions></trkpt>
   <trkpt lat="59.0710698601" lon="30.0325828255"><ele>88.075</ele><time>2026-04-20T19:29:08.217Z</time><hdop>8.812</hdop><vdop>5.562</vdop><extensions><gom:speed>0.178</gom:speed></extensions></trkpt>
   <trkpt lat="59.0710692734" lon="30.0325831607"><ele>88.063</ele><time>2026-04-20T19:29:08.985Z</time><hdop>8.75</hdop><vdop>5.5</vdop><extensions><gom:speed>0.192</gom:speed></extensions></trkpt>
   <trkpt lat="59.0710692734" lon="30.032582574"><ele>88.051</ele><time>2026-04-20T19:29:10.051Z</time><hdop>8.75</hdop><vdop>5.5</vdop><extensions><gom:speed>0.16</gom:speed></extensions></trkpt>
   <trkpt lat="59.0710699858" lon="30.032581652"><ele>88.043</ele><time>2026-04-20T19:29:10.526Z</time><hdop>8.687</hdop><vdop>5.5</vdop><extensions><gom:speed>0.114</gom:speed></extensions></trkpt>
   <trkpt lat="59.0710699858" lon="30.0325813167"><ele>88.035</ele><time>2026-04-20T19:29:10.999Z</time><hdop>8.5</hdop><vdop>5.5</vdop><extensions><gom:speed>0.129</gom:speed></extensions></trkpt>
   <trkpt lat="59.0710706983" lon="30.0325796403"><ele>88.026</ele><time>2026-04-20T19:29:11.948Z</time><hdop>8.562</hdop><vdop>5.562</vdop><extensions><gom:speed>0.136</gom:speed></extensions></trkpt>
   <trkpt lat="59.0710708659" lon="30.0325785507"><ele>88.017</ele><time>2026-04-20T19:29:13.013Z</time><hdop>8.562</hdop><vdop>5.687</vdop><extensions><gom:speed>0.117</gom:speed></extensions></trkpt>
   <trkpt lat="59.0710715784" lon="30.0325784669"><ele>88.009</ele><time>2026-04-20T19:29:13.961Z</time><hdop>8.562</hdop><vdop>5.75</vdop><extensions><gom:speed>0.074</gom:speed></extensions></trkpt>
   <trkpt lat="59.0710714946" lon="30.0325794727"><ele>88.025</ele><time>2026-04-20T19:29:15.027Z</time><hdop>8.562</hdop><vdop>5.875</vdop><extensions><gom:speed>0.081</gom:speed></extensions></trkpt>
   <trkpt lat="59.0710710755" lon="30.032577964"><ele>88.034</ele><time>2026-04-20T19:29:15.898Z</time><hdop>8.562</hdop><vdop>5.875</vdop><extensions><gom:speed>0.083</gom:speed></extensions></trkpt>
   <trkpt lat="59.0710711593" lon="30.032576539"><ele>88.015</ele><time>2026-04-20T19:29:16.560Z</time><hdop>8.625</hdop><vdop>6.0</vdop><extensions><gom:speed>0.081</gom:speed></extensions></trkpt>
   <trkpt lat="59.0710710755" lon="30.0325764552"><ele>88.001</ele><time>2026-04-20T19:29:17.042Z</time><hdop>8.687</hdop><vdop>6.062</vdop><extensions><gom:speed>0.111</gom:speed></extensions></trkpt>
   <trkpt lat="59.0710706983" lon="30.032577964"><ele>87.983</ele><time>2026-04-20T19:29:17.990Z</time><hdop>8.687</hdop><vdop>6.062</vdop><extensions><gom:speed>0.104</gom:speed></extensions></trkpt>
   <trkpt lat="59.0710702792" lon="30.0325800594"><ele>87.972</ele><time>2026-04-20T19:29:18.978Z</time><hdop>8.812</hdop><vdop>6.062</vdop><extensions><gom:speed>0.158</gom:speed></extensions></trkpt>
   <trkpt lat="59.0710698601" lon="30.0325838313"><ele>87.956</ele><time>2026-04-20T19:29:20.004Z</time><hdop>8.875</hdop><vdop>6.75</vdop><extensions><gom:speed>0.17</gom:speed></extensions></trkpt>
   <trkpt lat="59.0710694829" lon="30.0325877708"><ele>87.946</ele><time>2026-04-20T19:29:21.061Z</time><hdop>9.062</hdop><vdop>6.75</vdop><extensions><gom:speed>0.174</gom:speed></extensions></trkpt>
   <trkpt lat="59.0710679742" lon="30.0325912912"><ele>87.925</ele><time>2026-04-20T19:29:22.017Z</time><hdop>9.187</hdop><vdop>7.0</vdop><extensions><gom:speed>0.205</gom:speed></extensions></trkpt>
   <trkpt lat="59.0710670941" lon="30.0325916265"><ele>87.913</ele><time>2026-04-20T19:29:22.846Z</time><hdop>9.312</hdop><vdop>7.0</vdop><extensions><gom:speed>0.205</gom:speed></extensions></trkpt>
   <trkpt lat="59.0710640766" lon="30.032595566"><ele>87.901</ele><time>2026-04-20T19:29:23.737Z</time><hdop>9.562</hdop><vdop>6.812</vdop><extensions><gom:speed>0.233</gom:speed></extensions></trkpt>
   <trkpt lat="59.0710576644" lon="30.0325916265"><ele>87.9</ele><time>2026-04-20T19:29:24.378Z</time><hdop>9.375</hdop><vdop>6.5</vdop><extensions><gom:speed>0.25</gom:speed></extensions></trkpt>
   <trkpt lat="59.071055066" lon="30.0325935543"><ele>87.899</ele><time>2026-04-20T19:29:24.978Z</time><hdop>9.375</hdop><vdop>6.5</vdop><extensions><gom:speed>0.286</gom:speed></extensions></trkpt>
   <trkpt lat="59.0710485701" lon="30.0325984996"><ele>86.632</ele><time>2026-04-20T19:29:26.075Z</time><hdop>9.187</hdop><vdop>6.125</vdop><extensions><gom:speed>0.326</gom:speed></extensions></trkpt>
   <trkpt lat="59.0710443791" lon="30.0326031935"><ele>85.875</ele><time>2026-04-20T19:29:27.034Z</time><hdop>8.937</hdop><vdop>6.125</vdop><extensions><gom:speed>0.337</gom:speed></extensions></trkpt>
   <trkpt lat="59.0710362906" lon="30.0326156825"><ele>86.263</ele><time>2026-04-20T19:29:28.075Z</time><hdop>8.312</hdop><vdop>5.75</vdop><extensions><gom:speed>0.304</gom:speed></extensions></trkpt>
   <trkpt lat="59.0710334826" lon="30.0326224719"><ele>86.494</ele><time>2026-04-20T19:29:29.019Z</time><hdop>7.75</hdop><vdop>5.75</vdop><extensions><gom:speed>0.331</gom:speed></extensions></trkpt>
   <trkpt lat="59.0710276991" lon="30.032639068"><ele>86.663</ele><time>2026-04-20T19:29:30.016Z</time><hdop>7.375</hdop><vdop>5.562</vdop><extensions><gom:speed>0.438</gom:speed></extensions></trkpt>
   <trkpt lat="59.071014791" lon="30.0326596875"><ele>86.996</ele><time>2026-04-20T19:29:31.076Z</time><hdop>6.875</hdop><vdop>4.5</vdop><extensions><gom:speed>0.431</gom:speed></extensions></trkpt>
   <trkpt lat="59.0710085884" lon="30.0326679856"><ele>87.194</ele><time>2026-04-20T19:29:31.851Z</time><hdop>6.562</hdop><vdop>4.5</vdop><extensions><gom:speed>0.514</gom:speed></extensions></trkpt>
   <trkpt lat="59.0709966861" lon="30.0326835759"><ele>86.904</ele><time>2026-04-20T19:29:32.682Z</time><hdop>6.312</hdop><vdop>4.312</vdop><extensions><gom:speed>0.67</gom:speed></extensions></trkpt>
   <trkpt lat="59.070983778" lon="30.0326991663"><ele>86.451</ele><time>2026-04-20T19:29:33.501Z</time><hdop>6.187</hdop><vdop>4.0</vdop><extensions><gom:speed>0.713</gom:speed></extensions></trkpt>
   <trkpt lat="59.0709747674" lon="30.0327095598"><ele>86.304</ele><time>2026-04-20T19:29:34.075Z</time><hdop>6.062</hdop><vdop>3.812</vdop><extensions><gom:speed>0.729</gom:speed></extensions></trkpt>
   <trkpt lat="59.0709634937" lon="30.0327276648"><ele>86.119</ele><time>2026-04-20T19:29:35.075Z</time><hdop>5.937</hdop><vdop>3.812</vdop><extensions><gom:speed>0.705</gom:speed></extensions></trkpt>
   <trkpt lat="59.0709552795" lon="30.032748871"><ele>85.693</ele><time>2026-04-20T19:29:36.076Z</time><hdop>5.875</hdop><vdop>3.875</vdop><extensions><gom:speed>0.678</gom:speed></extensions></trkpt>
   <trkpt lat="59.0709497893" lon="30.0327706639"><ele>85.538</ele><time>2026-04-20T19:29:37.076Z</time><hdop>5.75</hdop><vdop>3.875</vdop><extensions><gom:speed>0.777</gom:speed></extensions></trkpt>
   <trkpt lat="59.0709507952" lon="30.0327977375"><ele>85.634</ele><time>2026-04-20T19:29:38.075Z</time><hdop>5.625</hdop><vdop>4.0</vdop><extensions><gom:speed>0.884</gom:speed></extensions></trkpt>
   <trkpt lat="59.0709548604" lon="30.0328159262"><ele>85.691</ele><time>2026-04-20T19:29:39.040Z</time><hdop>5.5</hdop><vdop>4.0</vdop><extensions><gom:speed>0.845</gom:speed></extensions></trkpt>
   <trkpt lat="59.0709575845" lon="30.0328360428"><ele>85.664</ele><time>2026-04-20T19:29:39.741Z</time><hdop>5.375</hdop><vdop>4.125</vdop><extensions><gom:speed>0.912</gom:speed></extensions></trkpt>
   <trkpt lat="59.0709572911" lon="30.0328583386"><ele>85.278</ele><time>2026-04-20T19:29:40.598Z</time><hdop>5.25</hdop><vdop>4.062</vdop><extensions><gom:speed>0.839</gom:speed></extensions></trkpt>
   <trkpt lat="59.070956872" lon="30.0328693189"><ele>85.01</ele><time>2026-04-20T19:29:41.075Z</time><hdop>5.25</hdop><vdop>4.187</vdop><extensions><gom:speed>0.817</gom:speed></extensions></trkpt>
   <trkpt lat="59.0709547766" lon="30.0328881782"><ele>85.231</ele><time>2026-04-20T19:29:42.076Z</time><hdop>5.062</hdop><vdop>4.187</vdop><extensions><gom:speed>0.718</gom:speed></extensions></trkpt>
   <trkpt lat="59.0709546927" lon="30.0329005834"><ele>85.272</ele><time>2026-04-20T19:29:43.075Z</time><hdop>4.937</hdop><vdop>4.312</vdop><extensions><gom:speed>0.64</gom:speed></extensions></trkpt>
   <trkpt lat="59.0709547766" lon="30.0329029304"><ele>85.297</ele><time>2026-04-20T19:29:43.601Z</time><hdop>4.875</hdop><vdop>4.312</vdop><extensions><gom:speed>0.518</gom:speed></extensions></trkpt>
   <trkpt lat="59.0709553633" lon="30.0329112284"><ele>85.074</ele><time>2026-04-20T19:29:44.075Z</time><hdop>4.812</hdop><vdop>4.562</vdop><extensions><gom:speed>0.531</gom:speed></extensions></trkpt>
   <trkpt lat="59.0709572911" lon="30.0329265673"><ele>84.961</ele><time>2026-04-20T19:29:45.075Z</time><hdop>4.75</hdop><vdop>4.625</vdop><extensions><gom:speed>0.474</gom:speed></extensions></trkpt>
   <trkpt lat="59.07095968" lon="30.0329440855"><ele>84.849</ele><time>2026-04-20T19:29:46.076Z</time><hdop>4.625</hdop><vdop>4.687</vdop><extensions><gom:speed>0.508</gom:speed></extensions></trkpt>
   <trkpt lat="59.0709614821" lon="30.0329633639"><ele>84.303</ele><time>2026-04-20T19:29:47.075Z</time><hdop>4.562</hdop><vdop>4.687</vdop><extensions><gom:speed>0.505</gom:speed></extensions></trkpt>
   <trkpt lat="59.0709613983" lon="30.0329691474"><ele>83.976</ele><time>2026-04-20T19:29:47.605Z</time><hdop>4.5</hdop><vdop>4.687</vdop><extensions><gom:speed>0.492</gom:speed></extensions></trkpt>
   <trkpt lat="59.0709621946" lon="30.0329849892"><ele>83.148</ele><time>2026-04-20T19:29:48.075Z</time><hdop>4.5</hdop><vdop>4.562</vdop><extensions><gom:speed>0.491</gom:speed></extensions></trkpt>
   <trkpt lat="59.0709634937" lon="30.0329990708"><ele>81.903</ele><time>2026-04-20T19:29:49.075Z</time><hdop>4.437</hdop><vdop>4.562</vdop><extensions><gom:speed>0.458</gom:speed></extensions></trkpt>
   <trkpt lat="59.0709632842" lon="30.0330041837"><ele>81.16</ele><time>2026-04-20T19:29:49.553Z</time><hdop>4.437</hdop><vdop>4.562</vdop><extensions><gom:speed>0.46</gom:speed></extensions></trkpt>
   <trkpt lat="59.0709599733" lon="30.0330101349"><ele>80.715</ele><time>2026-04-20T19:29:50.521Z</time><hdop>4.437</hdop><vdop>4.562</vdop><extensions><gom:speed>0.491</gom:speed></extensions></trkpt>
   <trkpt lat="59.0709575845" lon="30.0330138229"><ele>80.45</ele><time>2026-04-20T19:29:51.418Z</time><hdop>4.437</hdop><vdop>4.562</vdop><extensions><gom:speed>0.417</gom:speed></extensions></trkpt>
   <trkpt lat="59.0709556986" lon="30.0330186844"><ele>80.291</ele><time>2026-04-20T19:29:52.404Z</time><hdop>4.5</hdop><vdop>4.562</vdop><extensions><gom:speed>0.399</gom:speed></extensions></trkpt>
   <trkpt lat="59.0709552795" lon="30.0330213666"><ele>80.196</ele><time>2026-04-20T19:29:53.766Z</time><hdop>4.625</hdop><vdop>4.562</vdop><extensions><gom:speed>0.288</gom:speed></extensions></trkpt>
   <trkpt lat="59.0709594704" lon="30.0330237974"><ele>79.719</ele><time>2026-04-20T19:29:55.076Z</time><hdop>4.875</hdop><vdop>4.937</vdop><extensions><gom:speed>0.159</gom:speed></extensions></trkpt>
   <trkpt lat="59.0709604763" lon="30.033023043"><ele>79.434</ele><time>2026-04-20T19:29:55.792Z</time><hdop>4.937</hdop><vdop>4.937</vdop><extensions><gom:speed>0.126</gom:speed></extensions></trkpt>
   <trkpt lat="59.070961985" lon="30.0330227916"><ele>79.479</ele><time>2026-04-20T19:29:56.493Z</time><hdop>4.937</hdop><vdop>4.937</vdop><extensions><gom:speed>0.089</gom:speed></extensions></trkpt>
   <trkpt lat="59.070961985" lon="30.0330214505"><ele>79.618</ele><time>2026-04-20T19:29:57.075Z</time><hdop>4.875</hdop><vdop>4.75</vdop><extensions><gom:speed>0.127</gom:speed></extensions></trkpt>
   <trkpt lat="59.0709617755" lon="30.0330227916"><ele>79.701</ele><time>2026-04-20T19:29:57.658Z</time><hdop>4.75</hdop><vdop>4.75</vdop><extensions><gom:speed>0.101</gom:speed></extensions></trkpt>
   <trkpt lat="59.0709601829" lon="30.0330208637"><ele>79.867</ele><time>2026-04-20T19:29:58.815Z</time><hdop>4.687</hdop><vdop>4.25</vdop><extensions><gom:speed>0.117</gom:speed></extensions></trkpt>
   <trkpt lat="59.0709566625" lon="30.0330187683"><ele>80.236</ele><time>2026-04-20T19:29:59.938Z</time><hdop>4.687</hdop><vdop>3.75</vdop><extensions><gom:speed>0.177</gom:speed></extensions></trkpt>
   <trkpt lat="59.0709498732" lon="30.0330175948"><ele>81.286</ele><time>2026-04-20T19:30:00.777Z</time><hdop>4.687</hdop><vdop>3.375</vdop><extensions><gom:speed>0.303</gom:speed></extensions></trkpt>
   <trkpt lat="59.0709381804" lon="30.0330159184"><ele>82.4</ele><time>2026-04-20T19:30:01.814Z</time><hdop>4.687</hdop><vdop>2.937</vdop><extensions><gom:speed>0.424</gom:speed></extensions></trkpt>
   <trkpt lat="59.0709251885" lon="30.0330161699"><ele>82.628</ele><time>2026-04-20T19:30:02.803Z</time><hdop>4.75</hdop><vdop>2.875</vdop><extensions><gom:speed>0.516</gom:speed></extensions></trkpt>
   <trkpt lat="59.0709137891" lon="30.0330195226"><ele>82.287</ele><time>2026-04-20T19:30:03.699Z</time><hdop>4.75</hdop><vdop>2.937</vdop><extensions><gom:speed>0.618</gom:speed></extensions></trkpt>
   <trkpt lat="59.0709027669" lon="30.0330215343"><ele>81.744</ele><time>2026-04-20T19:30:04.638Z</time><hdop>4.687</hdop><vdop>2.937</vdop><extensions><gom:speed>0.628</gom:speed></extensions></trkpt>
   <trkpt lat="59.0708926667" lon="30.0330204446"><ele>81.053</ele><time>2026-04-20T19:30:05.516Z</time><hdop>4.687</hdop><vdop>3.062</vdop><extensions><gom:speed>0.641</gom:speed></extensions></trkpt>
   <trkpt lat="59.0708864641" lon="30.0330172595"><ele>80.734</ele><time>2026-04-20T19:30:06.075Z</time><hdop>4.625</hdop><vdop>2.937</vdop><extensions><gom:speed>0.638</gom:speed></extensions></trkpt>
   <trkpt lat="59.0708757771" lon="30.0330065307"><ele>80.503</ele><time>2026-04-20T19:30:07.076Z</time><hdop>4.437</hdop><vdop>2.875</vdop><extensions><gom:speed>0.646</gom:speed></extensions></trkpt>
   <trkpt lat="59.0708727596" lon="30.0330022559"><ele>80.364</ele><time>2026-04-20T19:30:07.584Z</time><hdop>4.437</hdop><vdop>2.875</vdop><extensions><gom:speed>0.606</gom:speed></extensions></trkpt>
   <trkpt lat="59.0708683591" lon="30.0329973944"><ele>80.601</ele><time>2026-04-20T19:30:08.076Z</time><hdop>4.375</hdop><vdop>3.0</vdop><extensions><gom:speed>0.607</gom:speed></extensions></trkpt>
   <trkpt lat="59.0708656769" lon="30.0329933711"><ele>80.743</ele><time>2026-04-20T19:30:08.581Z</time><hdop>4.312</hdop><vdop>3.0</vdop><extensions><gom:speed>0.549</gom:speed></extensions></trkpt>
   <trkpt lat="59.0708613603" lon="30.0329894316"><ele>81.298</ele><time>2026-04-20T19:30:09.075Z</time><hdop>4.312</hdop><vdop>3.125</vdop><extensions><gom:speed>0.561</gom:speed></extensions></trkpt>
   <trkpt lat="59.0708571693" lon="30.032985073"><ele>81.629</ele><time>2026-04-20T19:30:09.675Z</time><hdop>4.25</hdop><vdop>3.125</vdop><extensions><gom:speed>0.581</gom:speed></extensions></trkpt>
   <trkpt lat="59.0708493741" lon="30.0329765235"><ele>81.677</ele><time>2026-04-20T19:30:10.601Z</time><hdop>4.187</hdop><vdop>3.187</vdop><extensions><gom:speed>0.594</gom:speed></extensions></trkpt>
   <trkpt lat="59.0708441774" lon="30.0329718296"><ele>81.602</ele><time>2026-04-20T19:30:11.075Z</time><hdop>4.187</hdop><vdop>3.0</vdop><extensions><gom:speed>0.615</gom:speed></extensions></trkpt>
   <trkpt lat="59.0708404893" lon="30.0329692312"><ele>81.557</ele><time>2026-04-20T19:30:11.538Z</time><hdop>4.125</hdop><vdop>3.0</vdop><extensions><gom:speed>0.597</gom:speed></extensions></trkpt>
   <trkpt lat="59.0708340772" lon="30.0329667166"><ele>81.302</ele><time>2026-04-20T19:30:12.075Z</time><hdop>4.125</hdop><vdop>3.0</vdop><extensions><gom:speed>0.626</gom:speed></extensions></trkpt>
   <trkpt lat="59.0708255695" lon="30.0329663814"><ele>81.07</ele><time>2026-04-20T19:30:13.076Z</time><hdop>4.125</hdop><vdop>2.937</vdop><extensions><gom:speed>0.558</gom:speed></extensions></trkpt>
   <trkpt lat="59.0708161818" lon="30.0329639506"><ele>81.287</ele><time>2026-04-20T19:30:14.076Z</time><hdop>4.125</hdop><vdop>2.75</vdop><extensions><gom:speed>0.551</gom:speed></extensions></trkpt>
   <trkpt lat="59.0708057882" lon="30.032963783"><ele>81.199</ele><time>2026-04-20T19:30:15.075Z</time><hdop>4.125</hdop><vdop>2.687</vdop><extensions><gom:speed>0.62</gom:speed></extensions></trkpt>
   <trkpt lat="59.0707960652" lon="30.0329664652"><ele>80.9</ele><time>2026-04-20T19:30:16.075Z</time><hdop>4.125</hdop><vdop>9.25</vdop><extensions><gom:speed>0.652</gom:speed></extensions></trkpt>
   <trkpt lat="59.070788773" lon="30.0329695665"><ele>80.814</ele><time>2026-04-20T19:30:16.985Z</time><hdop>4.25</hdop><vdop>9.187</vdop><extensions><gom:speed>0.653</gom:speed></extensions></trkpt>
   <trkpt lat="59.0707813969" lon="30.0329735898"><ele>80.762</ele><time>2026-04-20T19:30:18.055Z</time><hdop>4.375</hdop><vdop>9.187</vdop><extensions><gom:speed>0.666</gom:speed></extensions></trkpt>
   <trkpt lat="59.0707724702" lon="30.0329793733"><ele>80.56</ele><time>2026-04-20T19:30:19.076Z</time><hdop>4.562</hdop><vdop>8.687</vdop><extensions><gom:speed>0.652</gom:speed></extensions></trkpt>
   <trkpt lat="59.0707684888" lon="30.0329819717"><ele>80.399</ele><time>2026-04-20T19:30:19.948Z</time><hdop>4.687</hdop><vdop>8.25</vdop><extensions><gom:speed>0.59</gom:speed></extensions></trkpt>
   <trkpt lat="59.0707640883" lon="30.032985073"><ele>80.368</ele><time>2026-04-20T19:30:21.076Z</time><hdop>4.875</hdop><vdop>7.937</vdop><extensions><gom:speed>0.595</gom:speed></extensions></trkpt>
   <trkpt lat="59.0707587658" lon="30.0329882581"><ele>80.349</ele><time>2026-04-20T19:30:22.033Z</time><hdop>5.0</hdop><vdop>7.937</vdop><extensions><gom:speed>0.624</gom:speed></extensions></trkpt>
   <trkpt lat="59.0707546586" lon="30.032989264"><ele>80.217</ele><time>2026-04-20T19:30:23.075Z</time><hdop>5.062</hdop><vdop>7.5</vdop><extensions><gom:speed>0.59</gom:speed></extensions></trkpt>
   <trkpt lat="59.0707523955" lon="30.032988761"><ele>80.139</ele><time>2026-04-20T19:30:23.800Z</time><hdop>5.125</hdop><vdop>7.5</vdop><extensions><gom:speed>0.513</gom:speed></extensions></trkpt>
   <trkpt lat="59.0707519764" lon="30.0329883419"><ele>80.021</ele><time>2026-04-20T19:30:24.568Z</time><hdop>5.187</hdop><vdop>7.375</vdop><extensions><gom:speed>0.44</gom:speed></extensions></trkpt>
   <trkpt lat="59.0707523955" lon="30.0329885934"><ele>80.012</ele><time>2026-04-20T19:30:25.075Z</time><hdop>5.25</hdop><vdop>7.312</vdop><extensions><gom:speed>0.367</gom:speed></extensions></trkpt>
   <trkpt lat="59.0707545748" lon="30.0329862465"><ele>80.152</ele><time>2026-04-20T19:30:25.990Z</time><hdop>5.375</hdop><vdop>7.25</vdop><extensions><gom:speed>0.204</gom:speed></extensions></trkpt>
   <trkpt lat="59.070756796" lon="30.0329845701"><ele>80.303</ele><time>2026-04-20T19:30:26.937Z</time><hdop>5.5</hdop><vdop>7.187</vdop><extensions><gom:speed>0.086</gom:speed></extensions></trkpt>
   <trkpt lat="59.0707579695" lon="30.032983229"><ele>80.394</ele><time>2026-04-20T19:30:28.003Z</time><hdop>5.562</hdop><vdop>7.062</vdop><extensions><gom:speed>0.086</gom:speed></extensions></trkpt>
   <trkpt lat="59.0707574666" lon="30.0329837319"><ele>80.534</ele><time>2026-04-20T19:30:28.951Z</time><hdop>5.687</hdop><vdop>7.125</vdop><extensions><gom:speed>0.086</gom:speed></extensions></trkpt>
   <trkpt lat="59.070760065" lon="30.0329847377"><ele>80.671</ele><time>2026-04-20T19:30:30.075Z</time><hdop>5.687</hdop><vdop>7.437</vdop><extensions><gom:speed>0.102</gom:speed></extensions></trkpt>
   <trkpt lat="59.0707611965" lon="30.0329851568"><ele>80.753</ele><time>2026-04-20T19:30:30.728Z</time><hdop>5.687</hdop><vdop>7.437</vdop><extensions><gom:speed>0.104</gom:speed></extensions></trkpt>
   <trkpt lat="59.070760065" lon="30.0329860788"><ele>80.855</ele><time>2026-04-20T19:30:32.014Z</time><hdop>5.687</hdop><vdop>7.75</vdop><extensions><gom:speed>0.177</gom:speed></extensions></trkpt>
   <trkpt lat="59.0707587658" lon="30.0329861627"><ele>81.038</ele><time>2026-04-20T19:30:32.834Z</time><hdop>5.75</hdop><vdop>7.625</vdop><extensions><gom:speed>0.242</gom:speed></extensions></trkpt>
   <trkpt lat="59.0707591849" lon="30.0329849892"><ele>81.165</ele><time>2026-04-20T19:30:33.781Z</time><hdop>5.687</hdop><vdop>7.687</vdop><extensions><gom:speed>0.282</gom:speed></extensions></trkpt>
   <trkpt lat="59.0707574666" lon="30.0329808821"><ele>81.314</ele><time>2026-04-20T19:30:34.992Z</time><hdop>5.625</hdop><vdop>7.5</vdop><extensions><gom:speed>0.264</gom:speed></extensions></trkpt>
   <trkpt lat="59.0707585981" lon="30.032980463"><ele>81.441</ele><time>2026-04-20T19:30:36.075Z</time><hdop>5.687</hdop><vdop>7.562</vdop><extensions><gom:speed>0.192</gom:speed></extensions></trkpt>
   <trkpt lat="59.0707587658" lon="30.0329806306"><ele>81.517</ele><time>2026-04-20T19:30:37.007Z</time><hdop>5.687</hdop><vdop>7.562</vdop><extensions><gom:speed>0.212</gom:speed></extensions></trkpt>
   <trkpt lat="59.0707568798" lon="30.0329763558"><ele>81.608</ele><time>2026-04-20T19:30:37.954Z</time><hdop>5.687</hdop><vdop>7.562</vdop><extensions><gom:speed>0.257</gom:speed></extensions></trkpt>
   <trkpt lat="59.070754491" lon="30.0329733383"><ele>81.662</ele><time>2026-04-20T19:30:38.797Z</time><hdop>5.812</hdop><vdop>7.562</vdop><extensions><gom:speed>0.341</gom:speed></extensions></trkpt>
   <trkpt lat="59.0707495876" lon="30.0329703209"><ele>81.726</ele><time>2026-04-20T19:30:39.655Z</time><hdop>5.937</hdop><vdop>7.625</vdop><extensions><gom:speed>0.459</gom:speed></extensions></trkpt>
   <trkpt lat="59.07074569" lon="30.0329694827"><ele>81.792</ele><time>2026-04-20T19:30:40.740Z</time><hdop>6.0</hdop><vdop>7.625</vdop><extensions><gom:speed>0.534</gom:speed></extensions></trkpt>
   <trkpt lat="59.07074196" lon="30.0329646212"><ele>81.858</ele><time>2026-04-20T19:30:41.481Z</time><hdop>6.125</hdop><vdop>7.75</vdop><extensions><gom:speed>0.607</gom:speed></extensions></trkpt>
   <trkpt lat="59.070739194" lon="30.0329601788"><ele>81.929</ele><time>2026-04-20T19:30:41.982Z</time><hdop>6.187</hdop><vdop>8.0</vdop><extensions><gom:speed>0.61</gom:speed></extensions></trkpt>
   <trkpt lat="59.0707367633" lon="30.0329563231"><ele>81.971</ele><time>2026-04-20T19:30:42.499Z</time><hdop>6.25</hdop><vdop>8.0</vdop><extensions><gom:speed>0.6</gom:speed></extensions></trkpt>
   <trkpt lat="59.0707338715" lon="30.0329521321"><ele>82.028</ele><time>2026-04-20T19:30:43.048Z</time><hdop>6.312</hdop><vdop>7.937</vdop><extensions><gom:speed>0.585</gom:speed></extensions></trkpt>
   <trkpt lat="59.0707284652" lon="30.0329459295"><ele>82.062</ele><time>2026-04-20T19:30:43.840Z</time><hdop>6.5</hdop><vdop>7.937</vdop><extensions><gom:speed>0.553</gom:speed></extensions></trkpt>
   <trkpt lat="59.0707249867" lon="30.0329441693"><ele>82.096</ele><time>2026-04-20T19:30:44.945Z</time><hdop>6.75</hdop><vdop>7.625</vdop><extensions><gom:speed>0.5</gom:speed></extensions></trkpt>
   <trkpt lat="59.0707220949" lon="30.032944337"><ele>82.12</ele><time>2026-04-20T19:30:46.011Z</time><hdop>6.937</hdop><vdop>7.437</vdop><extensions><gom:speed>0.427</gom:speed></extensions></trkpt>
   <trkpt lat="59.0707211729" lon="30.0329472706"><ele>82.135</ele><time>2026-04-20T19:30:46.980Z</time><hdop>7.187</hdop><vdop>7.437</vdop><extensions><gom:speed>0.342</gom:speed></extensions></trkpt>
   <trkpt lat="59.0707208796" lon="30.0329503719"><ele>82.172</ele><time>2026-04-20T19:30:48.024Z</time><hdop>7.5</hdop><vdop>7.812</vdop><extensions><gom:speed>0.261</gom:speed></extensions></trkpt>
   <trkpt lat="59.0707209634" lon="30.0329533894"><ele>82.2</ele><time>2026-04-20T19:30:48.972Z</time><hdop>7.687</hdop><vdop>8.375</vdop><extensions><gom:speed>0.246</gom:speed></extensions></trkpt>
   <trkpt lat="59.0707181974" lon="30.0329536409"><ele>82.216</ele><time>2026-04-20T19:30:49.676Z</time><hdop>7.812</hdop><vdop>8.375</vdop><extensions><gom:speed>0.308</gom:speed></extensions></trkpt>
   <trkpt lat="59.0707201671" lon="30.0329538923"><ele>82.244</ele><time>2026-04-20T19:30:51.075Z</time><hdop>7.875</hdop><vdop>8.937</vdop><extensions><gom:speed>0.296</gom:speed></extensions></trkpt>
   <trkpt lat="59.0707208796" lon="30.0329539761"><ele>82.269</ele><time>2026-04-20T19:30:52.052Z</time><hdop>7.875</hdop><vdop>9.125</vdop><extensions><gom:speed>0.255</gom:speed></extensions></trkpt>
   <trkpt lat="59.0707209634" lon="30.0329537247"><ele>82.284</ele><time>2026-04-20T19:30:52.716Z</time><hdop>7.875</hdop><vdop>9.125</vdop><extensions><gom:speed>0.256</gom:speed></extensions></trkpt>
   <trkpt lat="59.0707207957" lon="30.0329532218"><ele>82.297</ele><time>2026-04-20T19:30:53.199Z</time><hdop>7.812</hdop><vdop>9.187</vdop><extensions><gom:speed>0.257</gom:speed></extensions></trkpt>
   <trkpt lat="59.0707196642" lon="30.0329532218"><ele>82.269</ele><time>2026-04-20T19:30:53.948Z</time><hdop>7.812</hdop><vdop>8.937</vdop><extensions><gom:speed>0.256</gom:speed></extensions></trkpt>
   <trkpt lat="59.0707198737" lon="30.0329536409"><ele>82.252</ele><time>2026-04-20T19:30:54.414Z</time><hdop>7.812</hdop><vdop>8.937</vdop><extensions><gom:speed>0.179</gom:speed></extensions></trkpt>
   <trkpt lat="59.0707196642" lon="30.0329532218"><ele>82.246</ele><time>2026-04-20T19:30:55.013Z</time><hdop>7.812</hdop><vdop>8.562</vdop><extensions><gom:speed>0.197</gom:speed></extensions></trkpt>
   <trkpt lat="59.0707201671" lon="30.0329541438"><ele>82.241</ele><time>2026-04-20T19:30:55.487Z</time><hdop>7.812</hdop><vdop>8.562</vdop><extensions><gom:speed>0.169</gom:speed></extensions></trkpt>
   <trkpt lat="59.0707237713" lon="30.0329575804"><ele>82.226</ele><time>2026-04-20T19:30:56.075Z</time><hdop>7.75</hdop><vdop>8.5</vdop><extensions><gom:speed>0.165</gom:speed></extensions></trkpt>
   <trkpt lat="59.0707255734" lon="30.0329593406"><ele>82.229</ele><time>2026-04-20T19:30:57.027Z</time><hdop>7.687</hdop><vdop>7.937</vdop><extensions><gom:speed>0.176</gom:speed></extensions></trkpt>
   <trkpt lat="59.0707249867" lon="30.0329599273"><ele>82.23</ele><time>2026-04-20T19:30:57.820Z</time><hdop>7.687</hdop><vdop>7.937</vdop><extensions><gom:speed>0.193</gom:speed></extensions></trkpt>
   <trkpt lat="59.0707235618" lon="30.0329604302"><ele>82.24</ele><time>2026-04-20T19:30:58.837Z</time><hdop>7.625</hdop><vdop>7.75</vdop><extensions><gom:speed>0.222</gom:speed></extensions></trkpt>
   <trkpt lat="59.0707214663" lon="30.0329610169"><ele>82.261</ele><time>2026-04-20T19:30:59.990Z</time><hdop>7.562</hdop><vdop>7.437</vdop><extensions><gom:speed>0.225</gom:speed></extensions></trkpt>
   <trkpt lat="59.0707198737" lon="30.0329604302"><ele>82.274</ele><time>2026-04-20T19:31:00.781Z</time><hdop>7.562</hdop><vdop>7.437</vdop><extensions><gom:speed>0.271</gom:speed></extensions></trkpt>
   <trkpt lat="59.0707175687" lon="30.0329671357"><ele>81.117</ele><time>2026-04-20T19:31:01.492Z</time><hdop>7.562</hdop><vdop>5.625</vdop><extensions><gom:speed>0.419</gom:speed></extensions></trkpt>
   <trkpt lat="59.0707101926" lon="30.0329728354"><ele>82.004</ele><time>2026-04-20T19:31:02.075Z</time><hdop>7.437</hdop><vdop>4.937</vdop><extensions><gom:speed>0.454</gom:speed></extensions></trkpt>
   <trkpt lat="59.0706980808" lon="30.0329822232"><ele>83.355</ele><time>2026-04-20T19:31:03.075Z</time><hdop>7.375</hdop><vdop>4.687</vdop><extensions><gom:speed>0.405</gom:speed></extensions></trkpt>
   <trkpt lat="59.0706947699" lon="30.0329877552"><ele>84.163</ele><time>2026-04-20T19:31:03.941Z</time><hdop>7.25</hdop><vdop>4.687</vdop><extensions><gom:speed>0.263</gom:speed></extensions></trkpt>
   <trkpt lat="59.0706819875" lon="30.0329926167"><ele>85.075</ele><time>2026-04-20T19:31:04.762Z</time><hdop>7.062</hdop><vdop>4.125</vdop><extensions><gom:speed>0.242</gom:speed></extensions></trkpt>
   <trkpt lat="59.070655375" lon="30.0329933711"><ele>86.127</ele><time>2026-04-20T19:31:06.075Z</time><hdop>6.625</hdop><vdop>3.875</vdop><extensions><gom:speed>0.215</gom:speed></extensions></trkpt>
   <trkpt lat="59.0706420897" lon="30.0329921976"><ele>86.844</ele><time>2026-04-20T19:31:07.075Z</time><hdop>6.187</hdop><vdop>3.562</vdop><extensions><gom:speed>0.128</gom:speed></extensions></trkpt>
   <trkpt lat="59.0706407905" lon="30.0329922814"><ele>87.273</ele><time>2026-04-20T19:31:07.926Z</time><hdop>6.125</hdop><vdop>3.562</vdop><extensions><gom:speed>0.096</gom:speed></extensions></trkpt>
   <trkpt lat="59.0706191652" lon="30.0329921976"><ele>87.822</ele><time>2026-04-20T19:31:09.075Z</time><hdop>5.5</hdop><vdop>3.187</vdop><extensions><gom:speed>0.083</gom:speed></extensions></trkpt>
   <trkpt lat="59.0706116634" lon="30.0329933711"><ele>88.494</ele><time>2026-04-20T19:31:10.075Z</time><hdop>4.937</hdop><vdop>2.875</vdop><extensions><gom:speed>0.073</gom:speed></extensions></trkpt>
   <trkpt lat="59.0706055865" lon="30.0329918623"><ele>89.09</ele><time>2026-04-20T19:31:11.075Z</time><hdop>4.5</hdop><vdop>2.75</vdop><extensions><gom:speed>0.074</gom:speed></extensions></trkpt>
   <trkpt lat="59.0706004735" lon="30.0329894316"><ele>89.377</ele><time>2026-04-20T19:31:12.076Z</time><hdop>3.812</hdop><vdop>2.562</vdop><extensions><gom:speed>0.102</gom:speed></extensions></trkpt>
   <trkpt lat="59.070598881" lon="30.0329886772"><ele>89.773</ele><time>2026-04-20T19:31:13.139Z</time><hdop>3.375</hdop><vdop>6.812</vdop><extensions><gom:speed>0.081</gom:speed></extensions></trkpt>
   <trkpt lat="59.0705932651" lon="30.0329857436"><ele>89.965</ele><time>2026-04-20T19:31:14.076Z</time><hdop>3.125</hdop><vdop>6.812</vdop><extensions><gom:speed>0.068</gom:speed></extensions></trkpt>
   <trkpt lat="59.0705919659" lon="30.0329854921"><ele>90.157</ele><time>2026-04-20T19:31:15.034Z</time><hdop>3.125</hdop><vdop>6.562</vdop><extensions><gom:speed>0.067</gom:speed></extensions></trkpt>
   <trkpt lat="59.0705922593" lon="30.0329854921"><ele>90.271</ele><time>2026-04-20T19:31:15.621Z</time><hdop>3.187</hdop><vdop>6.562</vdop><extensions><gom:speed>0.061</gom:speed></extensions></trkpt>
   <trkpt lat="59.070589577" lon="30.032983229"><ele>90.3</ele><time>2026-04-20T19:31:16.075Z</time><hdop>3.187</hdop><vdop>6.187</vdop><extensions><gom:speed>0.1</gom:speed></extensions></trkpt>
   <trkpt lat="59.0705876911" lon="30.032980463"><ele>90.315</ele><time>2026-04-20T19:31:17.048Z</time><hdop>3.25</hdop><vdop>5.812</vdop><extensions><gom:speed>0.069</gom:speed></extensions></trkpt>
   <trkpt lat="59.0705866853" lon="30.0329791219"><ele>90.304</ele><time>2026-04-20T19:31:17.996Z</time><hdop>3.375</hdop><vdop>5.562</vdop><extensions><gom:speed>0.069</gom:speed></extensions></trkpt>
   <trkpt lat="59.0705860986" lon="30.0329791219"><ele>90.195</ele><time>2026-04-20T19:31:19.062Z</time><hdop>3.437</hdop><vdop>5.437</vdop><extensions><gom:speed>0.103</gom:speed></extensions></trkpt>
   <trkpt lat="59.0705813628" lon="30.0329767749"><ele>90.132</ele><time>2026-04-20T19:31:20.076Z</time><hdop>3.562</hdop><vdop>5.375</vdop><extensions><gom:speed>0.071</gom:speed></extensions></trkpt>
   <trkpt lat="59.0705789739" lon="30.0329735898"><ele>89.979</ele><time>2026-04-20T19:31:20.958Z</time><hdop>3.812</hdop><vdop>5.25</vdop><extensions><gom:speed>0.076</gom:speed></extensions></trkpt>
   <trkpt lat="59.0705749925" lon="30.0329713267"><ele>89.851</ele><time>2026-04-20T19:31:22.075Z</time><hdop>3.875</hdop><vdop>5.312</vdop><extensions><gom:speed>0.072</gom:speed></extensions></trkpt>
   <trkpt lat="59.0705737772" lon="30.032970237"><ele>89.826</ele><time>2026-04-20T19:31:22.972Z</time><hdop>4.0</hdop><vdop>5.25</vdop><extensions><gom:speed>0.066</gom:speed></extensions></trkpt>
   <trkpt lat="59.0705717655" lon="30.0329692312"><ele>89.852</ele><time>2026-04-20T19:31:24.076Z</time><hdop>4.062</hdop><vdop>5.437</vdop><extensions><gom:speed>0.115</gom:speed></extensions></trkpt>
   <trkpt lat="59.0705689995" lon="30.0329676386"><ele>89.884</ele><time>2026-04-20T19:31:25.075Z</time><hdop>4.062</hdop><vdop>5.375</vdop><extensions><gom:speed>0.194</gom:speed></extensions></trkpt>
   <trkpt lat="59.0705657724" lon="30.0329655432"><ele>89.919</ele><time>2026-04-20T19:31:26.076Z</time><hdop>4.125</hdop><vdop>5.25</vdop><extensions><gom:speed>0.294</gom:speed></extensions></trkpt>
   <trkpt lat="59.0705613719" lon="30.0329634477"><ele>89.981</ele><time>2026-04-20T19:31:27.075Z</time><hdop>4.125</hdop><vdop>5.125</vdop><extensions><gom:speed>0.386</gom:speed></extensions></trkpt>
   <trkpt lat="59.0705589831" lon="30.0329626933"><ele>90.019</ele><time>2026-04-20T19:31:27.772Z</time><hdop>4.187</hdop><vdop>5.125</vdop><extensions><gom:speed>0.399</gom:speed></extensions></trkpt>
   <trkpt lat="59.0705535768" lon="30.0329612684"><ele>89.864</ele><time>2026-04-20T19:31:29.075Z</time><hdop>4.312</hdop><vdop>3.437</vdop><extensions><gom:speed>0.38</gom:speed></extensions></trkpt>
   <trkpt lat="59.0705490925" lon="30.0329598435"><ele>89.403</ele><time>2026-04-20T19:31:30.075Z</time><hdop>4.375</hdop><vdop>2.562</vdop><extensions><gom:speed>0.369</gom:speed></extensions></trkpt>
   <trkpt lat="59.0705442729" lon="30.0329578318"><ele>88.994</ele><time>2026-04-20T19:31:31.076Z</time><hdop>4.5</hdop><vdop>2.5</vdop><extensions><gom:speed>0.402</gom:speed></extensions></trkpt>
   <trkpt lat="59.0705390761" lon="30.0329560716"><ele>89.404</ele><time>2026-04-20T19:31:32.075Z</time><hdop>4.687</hdop><vdop>2.5</vdop><extensions><gom:speed>0.404</gom:speed></extensions></trkpt>
   <trkpt lat="59.070538196" lon="30.0329559878"><ele>89.649</ele><time>2026-04-20T19:31:32.568Z</time><hdop>4.75</hdop><vdop>2.5</vdop><extensions><gom:speed>0.404</gom:speed></extensions></trkpt>
   <trkpt lat="59.0705325801" lon="30.0329542276"><ele>90.665</ele><time>2026-04-20T19:31:33.076Z</time><hdop>5.0</hdop><vdop>2.5</vdop><extensions><gom:speed>0.405</gom:speed></extensions></trkpt>
   <trkpt lat="59.0705272995" lon="30.0329529703"><ele>91.776</ele><time>2026-04-20T19:31:34.075Z</time><hdop>5.187</hdop><vdop>2.5</vdop><extensions><gom:speed>0.47</gom:speed></extensions></trkpt>
   <trkpt lat="59.0705207616" lon="30.0329505396"><ele>92.484</ele><time>2026-04-20T19:31:35.075Z</time><hdop>5.375</hdop><vdop>2.5</vdop><extensions><gom:speed>0.499</gom:speed></extensions></trkpt>
   <trkpt lat="59.0705144752" lon="30.0329466839"><ele>93.155</ele><time>2026-04-20T19:31:36.075Z</time><hdop>5.562</hdop><vdop>2.5</vdop><extensions><gom:speed>0.388</gom:speed></extensions></trkpt>
   <trkpt lat="59.0705092784" lon="30.0329413195"><ele>93.723</ele><time>2026-04-20T19:31:37.075Z</time><hdop>5.812</hdop><vdop>5.687</vdop><extensions><gom:speed>0.337</gom:speed></extensions></trkpt>
   <trkpt lat="59.0705041655" lon="30.0329354521"><ele>94.126</ele><time>2026-04-20T19:31:38.075Z</time><hdop>6.0</hdop><vdop>5.75</vdop><extensions><gom:speed>0.332</gom:speed></extensions></trkpt>
   <trkpt lat="59.070502992" lon="30.0329346978"><ele>94.367</ele><time>2026-04-20T19:31:38.847Z</time><hdop>6.125</hdop><vdop>5.75</vdop><extensions><gom:speed>0.332</gom:speed></extensions></trkpt>
   <trkpt lat="59.0704929756" lon="30.0329260644"><ele>94.737</ele><time>2026-04-20T19:31:40.075Z</time><hdop>6.375</hdop><vdop>5.75</vdop><extensions><gom:speed>0.36</gom:speed></extensions></trkpt>
   <trkpt lat="59.0704874855" lon="30.0329207838"><ele>95.033</ele><time>2026-04-20T19:31:41.075Z</time><hdop>6.5</hdop><vdop>5.75</vdop><extensions><gom:speed>0.369</gom:speed></extensions></trkpt>
   <trkpt lat="59.0704817858" lon="30.032914665"><ele>95.243</ele><time>2026-04-20T19:31:42.075Z</time><hdop>6.625</hdop><vdop>5.687</vdop><extensions><gom:speed>0.371</gom:speed></extensions></trkpt>
   <trkpt lat="59.0704766728" lon="30.0329083786"><ele>95.162</ele><time>2026-04-20T19:31:43.075Z</time><hdop>6.687</hdop><vdop>5.687</vdop><extensions><gom:speed>0.364</gom:speed></extensions></trkpt>
   <trkpt lat="59.0704720628" lon="30.0329016731"><ele>95.059</ele><time>2026-04-20T19:31:44.075Z</time><hdop>6.75</hdop><vdop>5.875</vdop><extensions><gom:speed>0.357</gom:speed></extensions></trkpt>
   <trkpt lat="59.0704680814" lon="30.0328955543"><ele>94.877</ele><time>2026-04-20T19:31:45.076Z</time><hdop>6.75</hdop><vdop>6.062</vdop><extensions><gom:speed>0.344</gom:speed></extensions></trkpt>
   <trkpt lat="59.0704633875" lon="30.0328888488"><ele>94.826</ele><time>2026-04-20T19:31:46.075Z</time><hdop>6.75</hdop><vdop>6.062</vdop><extensions><gom:speed>0.36</gom:speed></extensions></trkpt>
   <trkpt lat="59.0704604957" lon="30.0328856636"><ele>94.687</ele><time>2026-04-20T19:31:47.075Z</time><hdop>6.75</hdop><vdop>6.0</vdop><extensions><gom:speed>0.347</gom:speed></extensions></trkpt>
   <trkpt lat="59.0704574783" lon="30.0328868371"><ele>94.55</ele><time>2026-04-20T19:31:48.076Z</time><hdop>6.625</hdop><vdop>6.187</vdop><extensions><gom:speed>0.33</gom:speed></extensions></trkpt>
   <trkpt lat="59.0704560952" lon="30.0328906928"><ele>94.468</ele><time>2026-04-20T19:31:48.939Z</time><hdop>6.562</hdop><vdop>6.187</vdop><extensions><gom:speed>0.34</gom:speed></extensions></trkpt>
   <trkpt lat="59.0704544608" lon="30.0328940455"><ele>94.409</ele><time>2026-04-20T19:31:50.075Z</time><hdop>6.375</hdop><vdop>6.625</vdop><extensions><gom:speed>0.318</gom:speed></extensions></trkpt>
   <trkpt lat="59.0704532873" lon="30.0328963925"><ele>94.403</ele><time>2026-04-20T19:31:51.075Z</time><hdop>6.25</hdop><vdop>6.937</vdop><extensions><gom:speed>0.315</gom:speed></extensions></trkpt>
   <trkpt lat="59.0704518624" lon="30.0328990747"><ele>94.436</ele><time>2026-04-20T19:31:52.075Z</time><hdop>6.125</hdop><vdop>6.812</vdop><extensions><gom:speed>0.303</gom:speed></extensions></trkpt>
   <trkpt lat="59.0704511918" lon="30.0329004996"><ele>94.466</ele><time>2026-04-20T19:31:53.075Z</time><hdop>6.0</hdop><vdop>6.812</vdop><extensions><gom:speed>0.289</gom:speed></extensions></trkpt>
   <trkpt lat="59.0704504794" lon="30.032901254"><ele>94.519</ele><time>2026-04-20T19:31:54.075Z</time><hdop>5.75</hdop><vdop>6.812</vdop><extensions><gom:speed>0.286</gom:speed></extensions></trkpt>
   <trkpt lat="59.0704496831" lon="30.0329026789"><ele>94.55</ele><time>2026-04-20T19:31:54.753Z</time><hdop>5.687</hdop><vdop>6.812</vdop><extensions><gom:speed>0.287</gom:speed></extensions></trkpt>
   <trkpt lat="59.0704494735" lon="30.0329026789"><ele>94.561</ele><time>2026-04-20T19:31:55.355Z</time><hdop>5.562</hdop><vdop>7.062</vdop><extensions><gom:speed>0.29</gom:speed></extensions></trkpt>
   <trkpt lat="59.0704491802" lon="30.0329039362"><ele>94.568</ele><time>2026-04-20T19:31:55.840Z</time><hdop>5.562</hdop><vdop>7.062</vdop><extensions><gom:speed>0.29</gom:speed></extensions></trkpt>
   <trkpt lat="59.0704521977" lon="30.0329028465"><ele>94.572</ele><time>2026-04-20T19:31:56.935Z</time><hdop>5.562</hdop><vdop>6.875</vdop><extensions><gom:speed>0.153</gom:speed></extensions></trkpt>
   <trkpt lat="59.0704535807" lon="30.0329016731"><ele>94.566</ele><time>2026-04-20T19:31:57.533Z</time><hdop>5.5</hdop><vdop>6.75</vdop><extensions><gom:speed>0.119</gom:speed></extensions></trkpt>
   <trkpt lat="59.0704537902" lon="30.0329019245"><ele>94.575</ele><time>2026-04-20T19:31:58.039Z</time><hdop>5.5</hdop><vdop>6.437</vdop><extensions><gom:speed>0.151</gom:speed></extensions></trkpt>
   <trkpt lat="59.0704530778" lon="30.0329020922"><ele>95.029</ele><time>2026-04-20T19:31:59.075Z</time><hdop>5.437</hdop><vdop>4.75</vdop><extensions><gom:speed>0.155</gom:speed></extensions></trkpt>
   <trkpt lat="59.0704523653" lon="30.0329005834"><ele>94.556</ele><time>2026-04-20T19:32:00.075Z</time><hdop>5.375</hdop><vdop>6.25</vdop><extensions><gom:speed>0.119</gom:speed></extensions></trkpt>
   <trkpt lat="59.0704525748" lon="30.0328998291"><ele>94.138</ele><time>2026-04-20T19:32:01.075Z</time><hdop>5.187</hdop><vdop>6.125</vdop><extensions><gom:speed>0.106</gom:speed></extensions></trkpt>
   <trkpt lat="59.0704528682" lon="30.0328987394"><ele>93.888</ele><time>2026-04-20T19:32:01.537Z</time><hdop>5.125</hdop><vdop>6.125</vdop><extensions><gom:speed>0.072</gom:speed></extensions></trkpt>
   <trkpt lat="59.0704541674" lon="30.0329001643"><ele>93.364</ele><time>2026-04-20T19:32:03.075Z</time><hdop>4.937</hdop><vdop>6.062</vdop><extensions><gom:speed>0.127</gom:speed></extensions></trkpt>
   <trkpt lat="59.0704543769" lon="30.0329000805"><ele>93.05</ele><time>2026-04-20T19:32:03.725Z</time><hdop>4.937</hdop><vdop>6.062</vdop><extensions><gom:speed>0.104</gom:speed></extensions></trkpt>
   <trkpt lat="59.0704554666" lon="30.0329054449"><ele>92.161</ele><time>2026-04-20T19:32:05.028Z</time><hdop>4.812</hdop><vdop>6.062</vdop><extensions><gom:speed>0.083</gom:speed></extensions></trkpt>
   <trkpt lat="59.0704574783" lon="30.0329075404"><ele>91.561</ele><time>2026-04-20T19:32:06.075Z</time><hdop>4.75</hdop><vdop>5.812</vdop><extensions><gom:speed>0.087</gom:speed></extensions></trkpt>
   <trkpt lat="59.0704575621" lon="30.0329089653"><ele>91.416</ele><time>2026-04-20T19:32:07.042Z</time><hdop>4.687</hdop><vdop>5.812</vdop><extensions><gom:speed>0.103</gom:speed></extensions></trkpt>
   <trkpt lat="59.0704594899" lon="30.0329120666"><ele>91.241</ele><time>2026-04-20T19:32:08.076Z</time><hdop>4.625</hdop><vdop>5.75</vdop><extensions><gom:speed>0.067</gom:speed></extensions></trkpt>
   <trkpt lat="59.0704594899" lon="30.0329136592"><ele>91.206</ele><time>2026-04-20T19:32:09.056Z</time><hdop>4.625</hdop><vdop>5.687</vdop><extensions><gom:speed>0.071</gom:speed></extensions></trkpt>
   <trkpt lat="59.0704593642" lon="30.0329143297"><ele>91.186</ele><time>2026-04-20T19:32:09.885Z</time><hdop>4.625</hdop><vdop>5.687</vdop><extensions><gom:speed>0.077</gom:speed></extensions></trkpt>
   <trkpt lat="59.0704591965" lon="30.0329154194"><ele>91.299</ele><time>2026-04-20T19:32:10.952Z</time><hdop>4.687</hdop><vdop>5.562</vdop><extensions><gom:speed>0.071</gom:speed></extensions></trkpt>
   <trkpt lat="59.0704598671" lon="30.0329168443"><ele>91.468</ele><time>2026-04-20T19:32:12.018Z</time><hdop>4.75</hdop><vdop>5.5</vdop><extensions><gom:speed>0.068</gom:speed></extensions></trkpt>
   <trkpt lat="59.0704620883" lon="30.0329169281"><ele>91.526</ele><time>2026-04-20T19:32:13.075Z</time><hdop>4.75</hdop><vdop>5.5</vdop><extensions><gom:speed>0.074</gom:speed></extensions></trkpt>
   <trkpt lat="59.0704613758" lon="30.0329196942"><ele>91.579</ele><time>2026-04-20T19:32:14.032Z</time><hdop>4.812</hdop><vdop>5.562</vdop><extensions><gom:speed>0.061</gom:speed></extensions></trkpt>
   <trkpt lat="59.0704615854" lon="30.0329214544"><ele>91.571</ele><time>2026-04-20T19:32:14.980Z</time><hdop>4.75</hdop><vdop>5.562</vdop><extensions><gom:speed>0.067</gom:speed></extensions></trkpt>
   <trkpt lat="59.0704624655" lon="30.0329218735"><ele>91.587</ele><time>2026-04-20T19:32:16.046Z</time><hdop>4.75</hdop><vdop>5.562</vdop><extensions><gom:speed>0.07</gom:speed></extensions></trkpt>
   <trkpt lat="59.070462675" lon="30.0329233822"><ele>91.591</ele><time>2026-04-20T19:32:16.995Z</time><hdop>4.687</hdop><vdop>5.5</vdop><extensions><gom:speed>0.082</gom:speed></extensions></trkpt>
   <trkpt lat="59.0704636809" lon="30.0329247233"><ele>91.597</ele><time>2026-04-20T19:32:17.942Z</time><hdop>4.625</hdop><vdop>5.312</vdop><extensions><gom:speed>0.074</gom:speed></extensions></trkpt>
   <trkpt lat="59.0704633875" lon="30.0329246395"><ele>91.605</ele><time>2026-04-20T19:32:19.008Z</time><hdop>4.625</hdop><vdop>5.25</vdop><extensions><gom:speed>0.087</gom:speed></extensions></trkpt>
   <trkpt lat="59.0704642676" lon="30.0329272379"><ele>91.614</ele><time>2026-04-20T19:32:20.075Z</time><hdop>4.625</hdop><vdop>5.0</vdop><extensions><gom:speed>0.058</gom:speed></extensions></trkpt>
   <trkpt lat="59.0704648962" lon="30.0329281599"><ele>91.624</ele><time>2026-04-20T19:32:21.075Z</time><hdop>4.625</hdop><vdop>4.875</vdop><extensions><gom:speed>0.068</gom:speed></extensions></trkpt>
   <trkpt lat="59.0704652734" lon="30.0329288304"><ele>91.639</ele><time>2026-04-20T19:32:22.075Z</time><hdop>4.625</hdop><vdop>4.75</vdop><extensions><gom:speed>0.073</gom:speed></extensions></trkpt>
   <trkpt lat="59.0704656925" lon="30.0329295848"><ele>91.656</ele><time>2026-04-20T19:32:23.075Z</time><hdop>4.625</hdop><vdop>4.687</vdop><extensions><gom:speed>0.079</gom:speed></extensions></trkpt>
   <trkpt lat="59.0704659859" lon="30.0329300877"><ele>91.672</ele><time>2026-04-20T19:32:24.075Z</time><hdop>4.562</hdop><vdop>4.687</vdop><extensions><gom:speed>0.083</gom:speed></extensions></trkpt>
   <trkpt lat="59.0704658602" lon="30.0329302554"><ele>91.681</ele><time>2026-04-20T19:32:24.876Z</time><hdop>4.5</hdop><vdop>4.687</vdop><extensions><gom:speed>0.083</gom:speed></extensions></trkpt>
   <trkpt lat="59.0704665726" lon="30.0329312612"><ele>91.696</ele><time>2026-04-20T19:32:26.075Z</time><hdop>4.437</hdop><vdop>4.625</vdop><extensions><gom:speed>0.091</gom:speed></extensions></trkpt>
   <trkpt lat="59.0704667822" lon="30.0329318479"><ele>91.706</ele><time>2026-04-20T19:32:27.076Z</time><hdop>4.375</hdop><vdop>4.5</vdop><extensions><gom:speed>0.095</gom:speed></extensions></trkpt>
   <trkpt lat="59.0704669917" lon="30.0329324347"><ele>91.715</ele><time>2026-04-20T19:32:28.076Z</time><hdop>4.312</hdop><vdop>4.5</vdop><extensions><gom:speed>0.095</gom:speed></extensions></trkpt>
   <trkpt lat="59.070466866" lon="30.0329327699"><ele>91.72</ele><time>2026-04-20T19:32:28.778Z</time><hdop>4.312</hdop><vdop>4.5</vdop><extensions><gom:speed>0.096</gom:speed></extensions></trkpt>
   <trkpt lat="59.0704673689" lon="30.0329337758"><ele>91.742</ele><time>2026-04-20T19:32:30.075Z</time><hdop>4.25</hdop><vdop>4.312</vdop><extensions><gom:speed>0.101</gom:speed></extensions></trkpt>
   <trkpt lat="59.0704676623" lon="30.0329343625"><ele>91.765</ele><time>2026-04-20T19:32:31.075Z</time><hdop>4.187</hdop><vdop>4.187</vdop><extensions><gom:speed>0.103</gom:speed></extensions></trkpt>
   <trkpt lat="59.070467788" lon="30.0329346978"><ele>91.785</ele><time>2026-04-20T19:32:32.075Z</time><hdop>4.187</hdop><vdop>4.062</vdop><extensions><gom:speed>0.104</gom:speed></extensions></trkpt>
   <trkpt lat="59.0704679975" lon="30.0329349492"><ele>91.862</ele><time>2026-04-20T19:32:33.076Z</time><hdop>4.125</hdop><vdop>3.937</vdop><extensions><gom:speed>0.105</gom:speed></extensions></trkpt>
   <trkpt lat="59.0704680814" lon="30.0329351169"><ele>91.943</ele><time>2026-04-20T19:32:34.075Z</time><hdop>4.125</hdop><vdop>3.937</vdop><extensions><gom:speed>0.108</gom:speed></extensions></trkpt>
   <trkpt lat="59.0704680814" lon="30.0329351169"><ele>91.991</ele><time>2026-04-20T19:32:34.647Z</time><hdop>4.125</hdop><vdop>3.937</vdop><extensions><gom:speed>0.108</gom:speed></extensions></trkpt>
   <trkpt lat="59.0704683747" lon="30.0329360389"><ele>92.186</ele><time>2026-04-20T19:32:36.075Z</time><hdop>4.062</hdop><vdop>3.75</vdop><extensions><gom:speed>0.111</gom:speed></extensions></trkpt>
   <trkpt lat="59.0704685843" lon="30.0329360389"><ele>92.39</ele><time>2026-04-20T19:32:37.075Z</time><hdop>4.062</hdop><vdop>3.75</vdop><extensions><gom:speed>0.11</gom:speed></extensions></trkpt>
   <trkpt lat="59.0704688776" lon="30.0329356198"><ele>92.599</ele><time>2026-04-20T19:32:38.075Z</time><hdop>4.062</hdop><vdop>3.75</vdop><extensions><gom:speed>0.115</gom:speed></extensions></trkpt>
   <trkpt lat="59.0704693806" lon="30.032935536"><ele>92.785</ele><time>2026-04-20T19:32:39.075Z</time><hdop>4.062</hdop><vdop>3.75</vdop><extensions><gom:speed>0.118</gom:speed></extensions></trkpt>
   <trkpt lat="59.0704696739" lon="30.032935536"><ele>92.946</ele><time>2026-04-20T19:32:40.076Z</time><hdop>4.062</hdop><vdop>3.812</vdop><extensions><gom:speed>0.12</gom:speed></extensions></trkpt>
   <trkpt lat="59.0704697997" lon="30.0329354521"><ele>93.043</ele><time>2026-04-20T19:32:40.926Z</time><hdop>4.062</hdop><vdop>3.812</vdop><extensions><gom:speed>0.12</gom:speed></extensions></trkpt>
   <trkpt lat="59.0704702607" lon="30.0329356198"><ele>93.149</ele><time>2026-04-20T19:32:42.075Z</time><hdop>4.062</hdop><vdop>3.875</vdop><extensions><gom:speed>0.119</gom:speed></extensions></trkpt>
   <trkpt lat="59.0704704702" lon="30.0329357874"><ele>93.23</ele><time>2026-04-20T19:32:43.075Z</time><hdop>4.062</hdop><vdop>3.875</vdop><extensions><gom:speed>0.12</gom:speed></extensions></trkpt>
   <trkpt lat="59.0704707636" lon="30.0329360389"><ele>93.305</ele><time>2026-04-20T19:32:44.075Z</time><hdop>4.062</hdop><vdop>3.937</vdop><extensions><gom:speed>0.12</gom:speed></extensions></trkpt>
   <trkpt lat="59.0704707636" lon="30.0329360389"><ele>93.35</ele><time>2026-04-20T19:32:44.739Z</time><hdop>4.125</hdop><vdop>3.937</vdop><extensions><gom:speed>0.12</gom:speed></extensions></trkpt>
   <trkpt lat="59.0704713922" lon="30.0329363741"><ele>93.401</ele><time>2026-04-20T19:32:46.075Z</time><hdop>4.125</hdop><vdop>4.187</vdop><extensions><gom:speed>0.127</gom:speed></extensions></trkpt>
   <trkpt lat="59.070471476" lon="30.0329363741"><ele>93.431</ele><time>2026-04-20T19:32:46.578Z</time><hdop>4.187</hdop><vdop>4.187</vdop><extensions><gom:speed>0.127</gom:speed></extensions></trkpt>
   <trkpt lat="59.0704717694" lon="30.032936458"><ele>93.497</ele><time>2026-04-20T19:32:47.075Z</time><hdop>4.187</hdop><vdop>4.187</vdop><extensions><gom:speed>0.125</gom:speed></extensions></trkpt>
   <trkpt lat="59.0704724819" lon="30.0329378829"><ele>93.566</ele><time>2026-04-20T19:32:48.075Z</time><hdop>4.187</hdop><vdop>4.062</vdop><extensions><gom:speed>0.122</gom:speed></extensions></trkpt>
   <trkpt lat="59.0704734877" lon="30.0329394755"><ele>93.615</ele><time>2026-04-20T19:32:48.982Z</time><hdop>4.187</hdop><vdop>4.125</vdop><extensions><gom:speed>0.088</gom:speed></extensions></trkpt>
   <trkpt lat="59.0704741582" lon="30.0329395593"><ele>93.652</ele><time>2026-04-20T19:32:50.049Z</time><hdop>4.187</hdop><vdop>4.125</vdop><extensions><gom:speed>0.113</gom:speed></extensions></trkpt>
   <trkpt lat="59.0704750802" lon="30.0329411518"><ele>93.679</ele><time>2026-04-20T19:32:51.075Z</time><hdop>4.25</hdop><vdop>4.125</vdop><extensions><gom:speed>0.09</gom:speed></extensions></trkpt>
   <trkpt lat="59.0704755832" lon="30.0329418224"><ele>93.699</ele><time>2026-04-20T19:32:52.075Z</time><hdop>4.25</hdop><vdop>4.187</vdop><extensions><gom:speed>0.096</gom:speed></extensions></trkpt>
   <trkpt lat="59.0704759603" lon="30.0329425768"><ele>93.714</ele><time>2026-04-20T19:32:53.075Z</time><hdop>4.25</hdop><vdop>4.312</vdop><extensions><gom:speed>0.097</gom:speed></extensions></trkpt>
   <trkpt lat="59.0704763794" lon="30.0329432473"><ele>93.744</ele><time>2026-04-20T19:32:54.076Z</time><hdop>4.25</hdop><vdop>4.25</vdop><extensions><gom:speed>0.098</gom:speed></extensions></trkpt>
   <trkpt lat="59.0704766728" lon="30.0329436664"><ele>93.793</ele><time>2026-04-20T19:32:55.075Z</time><hdop>4.312</hdop><vdop>4.187</vdop><extensions><gom:speed>0.101</gom:speed></extensions></trkpt>
   <trkpt lat="59.0704767985" lon="30.0329439179"><ele>93.83</ele><time>2026-04-20T19:32:56.075Z</time><hdop>4.312</hdop><vdop>4.0</vdop><extensions><gom:speed>0.103</gom:speed></extensions></trkpt>
   <trkpt lat="59.0704769662" lon="30.032944337"><ele>93.866</ele><time>2026-04-20T19:32:57.075Z</time><hdop>4.312</hdop><vdop>3.937</vdop><extensions><gom:speed>0.106</gom:speed></extensions></trkpt>
   <trkpt lat="59.0704770919" lon="30.0329446722"><ele>93.898</ele><time>2026-04-20T19:32:58.075Z</time><hdop>4.312</hdop><vdop>3.812</vdop><extensions><gom:speed>0.11</gom:speed></extensions></trkpt>
   <trkpt lat="59.0704770919" lon="30.0329447561"><ele>93.917</ele><time>2026-04-20T19:32:58.816Z</time><hdop>4.375</hdop><vdop>3.812</vdop><extensions><gom:speed>0.11</gom:speed></extensions></trkpt>
   <trkpt lat="59.0704769662" lon="30.0329449237"><ele>93.946</ele><time>2026-04-20T19:32:59.999Z</time><hdop>4.437</hdop><vdop>3.75</vdop><extensions><gom:speed>0.097</gom:speed></extensions></trkpt>
   <trkpt lat="59.0704774691" lon="30.0329466839"><ele>93.968</ele><time>2026-04-20T19:33:00.947Z</time><hdop>4.437</hdop><vdop>3.812</vdop><extensions><gom:speed>0.108</gom:speed></extensions></trkpt>
   <trkpt lat="59.0704775948" lon="30.0329483603"><ele>93.981</ele><time>2026-04-20T19:33:01.603Z</time><hdop>4.437</hdop><vdop>3.812</vdop><extensions><gom:speed>0.087</gom:speed></extensions></trkpt>
   <trkpt lat="59.0704777625" lon="30.0329491985"><ele>93.989</ele><time>2026-04-20T19:33:02.056Z</time><hdop>4.5</hdop><vdop>3.812</vdop><extensions><gom:speed>0.118</gom:speed></extensions></trkpt>
   <trkpt lat="59.0704775948" lon="30.0329497852"><ele>94.008</ele><time>2026-04-20T19:33:02.961Z</time><hdop>4.562</hdop><vdop>3.687</vdop><extensions><gom:speed>0.097</gom:speed></extensions></trkpt>
   <trkpt lat="59.0704773853" lon="30.0329503719"><ele>94.019</ele><time>2026-04-20T19:33:04.002Z</time><hdop>4.625</hdop><vdop>3.687</vdop><extensions><gom:speed>0.122</gom:speed></extensions></trkpt>
   <trkpt lat="59.0704768824" lon="30.0329492823"><ele>94.036</ele><time>2026-04-20T19:33:04.975Z</time><hdop>4.625</hdop><vdop>3.562</vdop><extensions><gom:speed>0.12</gom:speed></extensions></trkpt>
   <trkpt lat="59.0704761699" lon="30.0329474383"><ele>94.046</ele><time>2026-04-20T19:33:05.581Z</time><hdop>4.75</hdop><vdop>3.562</vdop><extensions><gom:speed>0.1</gom:speed></extensions></trkpt>
   <trkpt lat="59.0704757927" lon="30.0329465163"><ele>94.075</ele><time>2026-04-20T19:33:06.041Z</time><hdop>4.75</hdop><vdop>3.687</vdop><extensions><gom:speed>0.13</gom:speed></extensions></trkpt>
   <trkpt lat="59.0704750802" lon="30.0329462648"><ele>94.091</ele><time>2026-04-20T19:33:06.677Z</time><hdop>4.812</hdop><vdop>3.687</vdop><extensions><gom:speed>0.111</gom:speed></extensions></trkpt>
   <trkpt lat="59.0704835879" lon="30.0329456781"><ele>94.114</ele><time>2026-04-20T19:33:08.075Z</time><hdop>5.812</hdop><vdop>4.25</vdop><extensions><gom:speed>0.0</gom:speed></extensions></trkpt>
   <trkpt lat="59.0704834622" lon="30.0329458457"><ele>94.132</ele><time>2026-04-20T19:33:09.076Z</time><hdop>6.562</hdop><vdop>4.562</vdop><extensions><gom:speed>0.0</gom:speed></extensions></trkpt>
   <trkpt lat="59.0704833783" lon="30.0329459295"><ele>94.145</ele><time>2026-04-20T19:33:10.075Z</time><hdop>7.187</hdop><vdop>4.937</vdop><extensions><gom:speed>0.0</gom:speed></extensions></trkpt>
   <trkpt lat="59.0704833783" lon="30.0329460972"><ele>94.155</ele><time>2026-04-20T19:33:11.076Z</time><hdop>8.937</hdop><vdop>5.25</vdop><extensions><gom:speed>0.0</gom:speed></extensions></trkpt>
   <trkpt lat="59.0704832945" lon="30.0329460972"><ele>94.163</ele><time>2026-04-20T19:33:12.075Z</time><hdop>10.5</hdop><vdop>5.5</vdop><extensions><gom:speed>0.0</gom:speed></extensions></trkpt>
   <trkpt lat="59.0704832945" lon="30.032946181"><ele>94.169</ele><time>2026-04-20T19:33:13.075Z</time><hdop>11.625</hdop><vdop>5.75</vdop><extensions><gom:speed>0.0</gom:speed></extensions></trkpt>
   <trkpt lat="59.0704832945" lon="30.032946181"><ele>94.173</ele><time>2026-04-20T19:33:14.075Z</time><hdop>11.812</hdop><vdop>6.0</vdop><extensions><gom:speed>0.0</gom:speed></extensions></trkpt>
   <trkpt lat="59.0704832945" lon="30.0329463486"><ele>94.18</ele><time>2026-04-20T19:33:15.075Z</time><hdop>11.937</hdop><vdop>6.0</vdop><extensions><gom:speed>0.0</gom:speed></extensions></trkpt>
   <trkpt lat="59.0704832945" lon="30.0329464324"><ele>94.19</ele><time>2026-04-20T19:33:16.075Z</time><hdop>11.937</hdop><vdop>5.75</vdop><extensions><gom:speed>0.0</gom:speed></extensions></trkpt>
   <trkpt lat="59.0704831688" lon="30.0329465163"><ele>94.197</ele><time>2026-04-20T19:33:17.075Z</time><hdop>11.875</hdop><vdop>5.562</vdop><extensions><gom:speed>0.0</gom:speed></extensions></trkpt>
   <trkpt lat="59.0704831688" lon="30.0329466839"><ele>94.204</ele><time>2026-04-20T19:33:18.075Z</time><hdop>11.687</hdop><vdop>5.437</vdop><extensions><gom:speed>0.0</gom:speed></extensions></trkpt>
   <trkpt lat="59.0704831688" lon="30.0329467677"><ele>94.21</ele><time>2026-04-20T19:33:19.075Z</time><hdop>11.437</hdop><vdop>5.312</vdop><extensions><gom:speed>0.0</gom:speed></extensions></trkpt>
   <trkpt lat="59.0704831688" lon="30.0329468515"><ele>94.215</ele><time>2026-04-20T19:33:20.076Z</time><hdop>11.187</hdop><vdop>5.375</vdop><extensions><gom:speed>0.0</gom:speed></extensions></trkpt>
   <trkpt lat="59.0704831688" lon="30.0329469353"><ele>94.221</ele><time>2026-04-20T19:33:21.075Z</time><hdop>10.937</hdop><vdop>5.187</vdop><extensions><gom:speed>0.0</gom:speed></extensions></trkpt>
   <trkpt lat="59.0704831688" lon="30.0329470192"><ele>94.228</ele><time>2026-04-20T19:33:22.076Z</time><hdop>10.812</hdop><vdop>5.125</vdop><extensions><gom:speed>0.0</gom:speed></extensions></trkpt>
   <trkpt lat="59.0704831688" lon="30.0329472706"><ele>94.235</ele><time>2026-04-20T19:33:23.075Z</time><hdop>10.687</hdop><vdop>5.062</vdop><extensions><gom:speed>0.0</gom:speed></extensions></trkpt>
   <trkpt lat="59.0704831688" lon="30.0329473544"><ele>94.243</ele><time>2026-04-20T19:33:24.075Z</time><hdop>10.625</hdop><vdop>5.0</vdop><extensions><gom:speed>0.0</gom:speed></extensions></trkpt>
   <trkpt lat="59.0704831688" lon="30.0329475221"><ele>94.253</ele><time>2026-04-20T19:33:25.076Z</time><hdop>10.5</hdop><vdop>4.687</vdop><extensions><gom:speed>0.0</gom:speed></extensions></trkpt>
   <trkpt lat="59.070483085" lon="30.0329476897"><ele>94.256</ele><time>2026-04-20T19:33:26.075Z</time><hdop>10.437</hdop><vdop>4.625</vdop><extensions><gom:speed>0.0</gom:speed></extensions></trkpt>
   <trkpt lat="59.070483085" lon="30.0329477735"><ele>94.262</ele><time>2026-04-20T19:33:27.075Z</time><hdop>10.312</hdop><vdop>4.75</vdop><extensions><gom:speed>0.0</gom:speed></extensions></trkpt>
   <trkpt lat="59.070483085" lon="30.0329478574"><ele>94.269</ele><time>2026-04-20T19:33:28.075Z</time><hdop>10.25</hdop><vdop>4.812</vdop><extensions><gom:speed>0.0</gom:speed></extensions></trkpt>
   <trkpt lat="59.0704829592" lon="30.0329479412"><ele>94.281</ele><time>2026-04-20T19:33:29.075Z</time><hdop>10.187</hdop><vdop>4.937</vdop><extensions><gom:speed>0.0</gom:speed></extensions></trkpt>
   <trkpt lat="59.0704828754" lon="30.0329481926"><ele>94.294</ele><time>2026-04-20T19:33:30.075Z</time><hdop>10.187</hdop><vdop>4.875</vdop><extensions><gom:speed>0.0</gom:speed></extensions></trkpt>
   <trkpt lat="59.0704828754" lon="30.0329483603"><ele>94.308</ele><time>2026-04-20T19:33:31.075Z</time><hdop>10.125</hdop><vdop>4.937</vdop><extensions><gom:speed>0.0</gom:speed></extensions></trkpt>
   <trkpt lat="59.0704828754" lon="30.0329484441"><ele>94.318</ele><time>2026-04-20T19:33:32.076Z</time><hdop>10.125</hdop><vdop>5.0</vdop><extensions><gom:speed>0.0</gom:speed></extensions></trkpt>
   <trkpt lat="59.0704827916" lon="30.0329486955"><ele>94.329</ele><time>2026-04-20T19:33:33.076Z</time><hdop>10.125</hdop><vdop>4.937</vdop><extensions><gom:speed>0.0</gom:speed></extensions></trkpt>
   <trkpt lat="59.0704827916" lon="30.0329488632"><ele>94.342</ele><time>2026-04-20T19:33:34.075Z</time><hdop>10.125</hdop><vdop>4.937</vdop><extensions><gom:speed>0.0</gom:speed></extensions></trkpt>
   <trkpt lat="59.0704826659" lon="30.0329490308"><ele>94.35</ele><time>2026-04-20T19:33:35.075Z</time><hdop>10.125</hdop><vdop>5.125</vdop><extensions><gom:speed>0.0</gom:speed></extensions></trkpt>
   <trkpt lat="59.0704826659" lon="30.0329491985"><ele>94.358</ele><time>2026-04-20T19:33:36.076Z</time><hdop>10.125</hdop><vdop>5.312</vdop><extensions><gom:speed>0.0</gom:speed></extensions></trkpt>
   <trkpt lat="59.0704826659" lon="30.0329492823"><ele>94.363</ele><time>2026-04-20T19:33:37.076Z</time><hdop>10.187</hdop><vdop>5.437</vdop><extensions><gom:speed>0.0</gom:speed></extensions></trkpt>
   <trkpt lat="59.0704826659" lon="30.0329493661"><ele>94.365</ele><time>2026-04-20T19:33:38.075Z</time><hdop>10.187</hdop><vdop>5.562</vdop><extensions><gom:speed>0.0</gom:speed></extensions></trkpt>
   <trkpt lat="59.0704825821" lon="30.0329493661"><ele>94.363</ele><time>2026-04-20T19:33:39.076Z</time><hdop>10.25</hdop><vdop>5.75</vdop><extensions><gom:speed>0.0</gom:speed></extensions></trkpt>
   <trkpt lat="59.0704825821" lon="30.0329493661"><ele>94.358</ele><time>2026-04-20T19:33:40.075Z</time><hdop>10.312</hdop><vdop>5.937</vdop><extensions><gom:speed>0.0</gom:speed></extensions></trkpt>
   <trkpt lat="59.0704824982" lon="30.0329492823"><ele>94.352</ele><time>2026-04-20T19:33:41.075Z</time><hdop>10.375</hdop><vdop>5.625</vdop><extensions><gom:speed>0.0</gom:speed></extensions></trkpt>
   <trkpt lat="59.0704824982" lon="30.0329492823"><ele>94.346</ele><time>2026-04-20T19:33:42.075Z</time><hdop>10.375</hdop><vdop>5.437</vdop><extensions><gom:speed>0.0</gom:speed></extensions></trkpt>
   <trkpt lat="59.0704823725" lon="30.0329491985"><ele>94.342</ele><time>2026-04-20T19:33:43.075Z</time><hdop>10.375</hdop><vdop>5.25</vdop><extensions><gom:speed>0.0</gom:speed></extensions></trkpt>
   <trkpt lat="59.0704822887" lon="30.0329490308"><ele>94.338</ele><time>2026-04-20T19:33:44.076Z</time><hdop>10.437</hdop><vdop>5.187</vdop><extensions><gom:speed>0.0</gom:speed></extensions></trkpt>
   <trkpt lat="59.0704822887" lon="30.0329490308"><ele>94.338</ele><time>2026-04-20T19:33:45.075Z</time><hdop>10.5</hdop><vdop>5.375</vdop><extensions><gom:speed>0.0</gom:speed></extensions></trkpt>
   <trkpt lat="59.070482163" lon="30.0329490308"><ele>94.34</ele><time>2026-04-20T19:33:46.075Z</time><hdop>10.5</hdop><vdop>5.312</vdop><extensions><gom:speed>0.0</gom:speed></extensions></trkpt>
   <trkpt lat="59.0704820791" lon="30.0329490308"><ele>94.338</ele><time>2026-04-20T19:33:47.076Z</time><hdop>10.5</hdop><vdop>5.437</vdop><extensions><gom:speed>0.0</gom:speed></extensions></trkpt>
   <trkpt lat="59.0704819953" lon="30.0329490308"><ele>94.334</ele><time>2026-04-20T19:33:48.075Z</time><hdop>10.562</hdop><vdop>5.437</vdop><extensions><gom:speed>0.0</gom:speed></extensions></trkpt>
   <trkpt lat="59.0704818696" lon="30.0329490308"><ele>94.329</ele><time>2026-04-20T19:33:49.075Z</time><hdop>10.625</hdop><vdop>5.375</vdop><extensions><gom:speed>0.0</gom:speed></extensions></trkpt>
   <trkpt lat="59.0704817858" lon="30.032948947"><ele>94.324</ele><time>2026-04-20T19:33:50.076Z</time><hdop>10.687</hdop><vdop>5.312</vdop><extensions><gom:speed>0.0</gom:speed></extensions></trkpt>
   <trkpt lat="59.07048166" lon="30.032948947"><ele>94.32</ele><time>2026-04-20T19:33:51.075Z</time><hdop>10.687</hdop><vdop>5.125</vdop><extensions><gom:speed>0.0</gom:speed></extensions></trkpt>
   <trkpt lat="59.0704815762" lon="30.0329488632"><ele>94.316</ele><time>2026-04-20T19:33:52.075Z</time><hdop>10.687</hdop><vdop>5.25</vdop><extensions><gom:speed>0.0</gom:speed></extensions></trkpt>
   <trkpt lat="59.0704815762" lon="30.0329487794"><ele>94.311</ele><time>2026-04-20T19:33:53.075Z</time><hdop>10.625</hdop><vdop>5.25</vdop><extensions><gom:speed>0.0</gom:speed></extensions></trkpt>
   <trkpt lat="59.0704814924" lon="30.0329487794"><ele>94.308</ele><time>2026-04-20T19:33:54.076Z</time><hdop>10.562</hdop><vdop>5.25</vdop><extensions><gom:speed>0.0</gom:speed></extensions></trkpt>
   <trkpt lat="59.0704813667" lon="30.0329486955"><ele>94.304</ele><time>2026-04-20T19:33:55.076Z</time><hdop>10.562</hdop><vdop>5.5</vdop><extensions><gom:speed>0.0</gom:speed></extensions></trkpt>
   <trkpt lat="59.0704812829" lon="30.0329485279"><ele>94.3</ele><time>2026-04-20T19:33:56.075Z</time><hdop>10.562</hdop><vdop>5.375</vdop><extensions><gom:speed>0.0</gom:speed></extensions></trkpt>
   <trkpt lat="59.070481199" lon="30.0329484441"><ele>94.296</ele><time>2026-04-20T19:33:57.075Z</time><hdop>10.5</hdop><vdop>5.312</vdop><extensions><gom:speed>0.0</gom:speed></extensions></trkpt>
   <trkpt lat="59.070481199" lon="30.0329484441"><ele>94.292</ele><time>2026-04-20T19:33:58.075Z</time><hdop>10.5</hdop><vdop>5.375</vdop><extensions><gom:speed>0.0</gom:speed></extensions></trkpt>
   <trkpt lat="59.0704810733" lon="30.0329483603"><ele>94.291</ele><time>2026-04-20T19:33:59.075Z</time><hdop>10.5</hdop><vdop>5.375</vdop><extensions><gom:speed>0.0</gom:speed></extensions></trkpt>
   <trkpt lat="59.0704809895" lon="30.0329483603"><ele>94.292</ele><time>2026-04-20T19:34:00.075Z</time><hdop>10.5</hdop><vdop>5.562</vdop><extensions><gom:speed>0.0</gom:speed></extensions></trkpt>
   <trkpt lat="59.0704809895" lon="30.0329484441"><ele>94.295</ele><time>2026-04-20T19:34:01.075Z</time><hdop>10.562</hdop><vdop>5.687</vdop><extensions><gom:speed>0.0</gom:speed></extensions></trkpt>
   <trkpt lat="59.0704808638" lon="30.0329484441"><ele>94.298</ele><time>2026-04-20T19:34:02.075Z</time><hdop>10.625</hdop><vdop>5.937</vdop><extensions><gom:speed>0.0</gom:speed></extensions></trkpt>
   <trkpt lat="59.0704808638" lon="30.0329485279"><ele>94.302</ele><time>2026-04-20T19:34:03.075Z</time><hdop>10.75</hdop><vdop>6.125</vdop><extensions><gom:speed>0.0</gom:speed></extensions></trkpt>
   <trkpt lat="59.0704807799" lon="30.0329485279"><ele>94.306</ele><time>2026-04-20T19:34:04.076Z</time><hdop>10.937</hdop><vdop>6.312</vdop><extensions><gom:speed>0.0</gom:speed></extensions></trkpt>
   <trkpt lat="59.0704806961" lon="30.0329485279"><ele>94.308</ele><time>2026-04-20T19:34:05.075Z</time><hdop>11.187</hdop><vdop>6.312</vdop><extensions><gom:speed>0.0</gom:speed></extensions></trkpt>
   <trkpt lat="59.0704806961" lon="30.0329485279"><ele>94.311</ele><time>2026-04-20T19:34:06.075Z</time><hdop>11.5</hdop><vdop>6.562</vdop><extensions><gom:speed>0.0</gom:speed></extensions></trkpt>
   <trkpt lat="59.0704805704" lon="30.0329485279"><ele>94.311</ele><time>2026-04-20T19:34:07.076Z</time><hdop>11.75</hdop><vdop>6.437</vdop><extensions><gom:speed>0.0</gom:speed></extensions></trkpt>
   <trkpt lat="59.0704805704" lon="30.0329484441"><ele>94.312</ele><time>2026-04-20T19:34:08.075Z</time><hdop>12.062</hdop><vdop>6.375</vdop><extensions><gom:speed>0.0</gom:speed></extensions></trkpt>
   <trkpt lat="59.0704804866" lon="30.0329484441"><ele>94.311</ele><time>2026-04-20T19:34:09.075Z</time><hdop>12.375</hdop><vdop>6.312</vdop><extensions><gom:speed>0.0</gom:speed></extensions></trkpt>
   <trkpt lat="59.0704803608" lon="30.0329483603"><ele>94.308</ele><time>2026-04-20T19:34:10.075Z</time><hdop>12.562</hdop><vdop>6.312</vdop><extensions><gom:speed>0.0</gom:speed></extensions></trkpt>
   <trkpt lat="59.0704803608" lon="30.0329482765"><ele>94.305</ele><time>2026-04-20T19:34:11.075Z</time><hdop>12.812</hdop><vdop>6.312</vdop><extensions><gom:speed>0.0</gom:speed></extensions></trkpt>
   <trkpt lat="59.070480277" lon="30.0329482765"><ele>94.303</ele><time>2026-04-20T19:34:12.076Z</time><hdop>12.875</hdop><vdop>6.437</vdop><extensions><gom:speed>0.0</gom:speed></extensions></trkpt>
   <trkpt lat="59.070480277" lon="30.0329482765"><ele>94.302</ele><time>2026-04-20T19:34:13.076Z</time><hdop>12.937</hdop><vdop>6.625</vdop><extensions><gom:speed>0.0</gom:speed></extensions></trkpt>
   <trkpt lat="59.0704801932" lon="30.0329482765"><ele>94.301</ele><time>2026-04-20T19:34:14.075Z</time><hdop>12.937</hdop><vdop>6.5</vdop><extensions><gom:speed>0.0</gom:speed></extensions></trkpt>
   <trkpt lat="59.0704801932" lon="30.0329482765"><ele>94.297</ele><time>2026-04-20T19:34:15.075Z</time><hdop>12.937</hdop><vdop>6.25</vdop><extensions><gom:speed>0.0</gom:speed></extensions></trkpt>
   <trkpt lat="59.0704800675" lon="30.0329482765"><ele>94.292</ele><time>2026-04-20T19:34:16.075Z</time><hdop>12.875</hdop><vdop>6.125</vdop><extensions><gom:speed>0.0</gom:speed></extensions></trkpt>
   <trkpt lat="59.0704799837" lon="30.0329481926"><ele>94.289</ele><time>2026-04-20T19:34:17.075Z</time><hdop>12.812</hdop><vdop>5.812</vdop><extensions><gom:speed>0.0</gom:speed></extensions></trkpt>
   <trkpt lat="59.0704799837" lon="30.032948025"><ele>94.285</ele><time>2026-04-20T19:34:18.075Z</time><hdop>12.812</hdop><vdop>5.625</vdop><extensions><gom:speed>0.0</gom:speed></extensions></trkpt>
   <trkpt lat="59.0704798998" lon="30.032948025"><ele>94.283</ele><time>2026-04-20T19:34:19.075Z</time><hdop>12.625</hdop><vdop>5.312</vdop><extensions><gom:speed>0.0</gom:speed></extensions></trkpt>
   <trkpt lat="59.0704798998" lon="30.0329479412"><ele>94.281</ele><time>2026-04-20T19:34:20.076Z</time><hdop>12.437</hdop><vdop>5.25</vdop><extensions><gom:speed>0.0</gom:speed></extensions></trkpt>
   <trkpt lat="59.0704798998" lon="30.0329478574"><ele>94.278</ele><time>2026-04-20T19:34:21.076Z</time><hdop>12.25</hdop><vdop>4.937</vdop><extensions><gom:speed>0.0</gom:speed></extensions></trkpt>
   <trkpt lat="59.0704797741" lon="30.0329478574"><ele>94.271</ele><time>2026-04-20T19:34:22.076Z</time><hdop>12.062</hdop><vdop>4.937</vdop><extensions><gom:speed>0.0</gom:speed></extensions></trkpt>
   <trkpt lat="59.0704796903" lon="30.0329477735"><ele>94.269</ele><time>2026-04-20T19:34:23.076Z</time><hdop>11.875</hdop><vdop>5.187</vdop><extensions><gom:speed>0.0</gom:speed></extensions></trkpt>
   <trkpt lat="59.0704796903" lon="30.0329477735"><ele>94.268</ele><time>2026-04-20T19:34:24.075Z</time><hdop>11.812</hdop><vdop>5.437</vdop><extensions><gom:speed>0.0</gom:speed></extensions></trkpt>
   <trkpt lat="59.0704796903" lon="30.0329477735"><ele>94.267</ele><time>2026-04-20T19:34:25.076Z</time><hdop>11.875</hdop><vdop>5.687</vdop><extensions><gom:speed>0.0</gom:speed></extensions></trkpt>
   <trkpt lat="59.0704796903" lon="30.0329478574"><ele>94.267</ele><time>2026-04-20T19:34:26.076Z</time><hdop>12.062</hdop><vdop>5.937</vdop><extensions><gom:speed>0.0</gom:speed></extensions></trkpt>
   <trkpt lat="59.0704795646" lon="30.0329478574"><ele>94.268</ele><time>2026-04-20T19:34:27.075Z</time><hdop>12.375</hdop><vdop>6.25</vdop><extensions><gom:speed>0.0</gom:speed></extensions></trkpt>
   <trkpt lat="59.0704796903" lon="30.0329479412"><ele>94.27</ele><time>2026-04-20T19:34:28.075Z</time><hdop>12.687</hdop><vdop>6.312</vdop><extensions><gom:speed>0.0</gom:speed></extensions></trkpt>
   <trkpt lat="59.0704796903" lon="30.0329479412"><ele>94.272</ele><time>2026-04-20T19:34:29.075Z</time><hdop>13.125</hdop><vdop>6.312</vdop><extensions><gom:speed>0.0</gom:speed></extensions></trkpt>
   <trkpt lat="59.0704796903" lon="30.032948025"><ele>94.275</ele><time>2026-04-20T19:34:30.075Z</time><hdop>13.625</hdop><vdop>6.375</vdop><extensions><gom:speed>0.0</gom:speed></extensions></trkpt>
   <trkpt lat="59.0704796903" lon="30.0329481926"><ele>94.277</ele><time>2026-04-20T19:34:31.075Z</time><hdop>14.125</hdop><vdop>6.687</vdop><extensions><gom:speed>0.0</gom:speed></extensions></trkpt>
   <trkpt lat="59.0704796903" lon="30.0329481926"><ele>94.28</ele><time>2026-04-20T19:34:32.075Z</time><hdop>14.625</hdop><vdop>6.687</vdop><extensions><gom:speed>0.0</gom:speed></extensions></trkpt>
   <trkpt lat="59.0704796903" lon="30.0329482765"><ele>94.283</ele><time>2026-04-20T19:34:33.076Z</time><hdop>15.062</hdop><vdop>6.5</vdop><extensions><gom:speed>0.0</gom:speed></extensions></trkpt>
   <trkpt lat="59.0704796903" lon="30.0329483603"><ele>94.285</ele><time>2026-04-20T19:34:34.075Z</time><hdop>15.437</hdop><vdop>6.25</vdop><extensions><gom:speed>0.0</gom:speed></extensions></trkpt>
   <trkpt lat="59.0704795646" lon="30.0329483603"><ele>94.287</ele><time>2026-04-20T19:34:35.075Z</time><hdop>15.687</hdop><vdop>5.937</vdop><extensions><gom:speed>0.0</gom:speed></extensions></trkpt>
   <trkpt lat="59.0704795646" lon="30.0329483603"><ele>94.287</ele><time>2026-04-20T19:34:36.075Z</time><hdop>15.875</hdop><vdop>5.687</vdop><extensions><gom:speed>0.0</gom:speed></extensions></trkpt>
   <trkpt lat="59.0704795646" lon="30.0329484441"><ele>94.287</ele><time>2026-04-20T19:34:37.075Z</time><hdop>15.812</hdop><vdop>5.687</vdop><extensions><gom:speed>0.0</gom:speed></extensions></trkpt>
   <trkpt lat="59.0704795646" lon="30.0329484441"><ele>94.287</ele><time>2026-04-20T19:34:38.075Z</time><hdop>15.75</hdop><vdop>5.562</vdop><extensions><gom:speed>0.0</gom:speed></extensions></trkpt>
   <trkpt lat="59.0704795646" lon="30.0329485279"><ele>94.286</ele><time>2026-04-20T19:34:39.075Z</time><hdop>15.75</hdop><vdop>5.687</vdop><extensions><gom:speed>0.0</gom:speed></extensions></trkpt>
   <trkpt lat="59.0704795646" lon="30.0329485279"><ele>94.284</ele><time>2026-04-20T19:34:40.075Z</time><hdop>15.937</hdop><vdop>6.0</vdop><extensions><gom:speed>0.0</gom:speed></extensions></trkpt>
   <trkpt lat="59.0704795646" lon="30.0329485279"><ele>94.282</ele><time>2026-04-20T19:34:41.075Z</time><hdop>16.312</hdop><vdop>6.437</vdop><extensions><gom:speed>0.0</gom:speed></extensions></trkpt>
   <trkpt lat="59.0704795646" lon="30.0329485279"><ele>94.279</ele><time>2026-04-20T19:34:42.075Z</time><hdop>16.312</hdop><vdop>6.625</vdop><extensions><gom:speed>0.0</gom:speed></extensions></trkpt>
   <trkpt lat="59.0704794807" lon="30.0329485279"><ele>94.277</ele><time>2026-04-20T19:34:43.076Z</time><hdop>16.312</hdop><vdop>6.875</vdop><extensions><gom:speed>0.0</gom:speed></extensions></trkpt>
   <trkpt lat="59.0704794807" lon="30.0329485279"><ele>94.276</ele><time>2026-04-20T19:34:44.075Z</time><hdop>16.187</hdop><vdop>7.187</vdop><extensions><gom:speed>0.0</gom:speed></extensions></trkpt>
   <trkpt lat="59.0704793969" lon="30.0329485279"><ele>94.275</ele><time>2026-04-20T19:34:45.075Z</time><hdop>16.062</hdop><vdop>7.5</vdop><extensions><gom:speed>0.0</gom:speed></extensions></trkpt>
   <trkpt lat="59.0704793969" lon="30.0329485279"><ele>94.273</ele><time>2026-04-20T19:34:46.076Z</time><hdop>15.562</hdop><vdop>7.312</vdop><extensions><gom:speed>0.0</gom:speed></extensions></trkpt>
   <trkpt lat="59.0704793969" lon="30.0329484441"><ele>94.269</ele><time>2026-04-20T19:34:47.076Z</time><hdop>14.875</hdop><vdop>7.937</vdop><extensions><gom:speed>0.0</gom:speed></extensions></trkpt>
   <trkpt lat="59.0704792712" lon="30.0329484441"><ele>94.265</ele><time>2026-04-20T19:34:48.075Z</time><hdop>14.5</hdop><vdop>8.125</vdop><extensions><gom:speed>0.0</gom:speed></extensions></trkpt>
   <trkpt lat="59.0704792712" lon="30.0329484441"><ele>94.261</ele><time>2026-04-20T19:34:49.075Z</time><hdop>14.187</hdop><vdop>8.437</vdop><extensions><gom:speed>0.0</gom:speed></extensions></trkpt>
   <trkpt lat="59.0704792712" lon="30.0329484441"><ele>94.26</ele><time>2026-04-20T19:34:50.076Z</time><hdop>14.0</hdop><vdop>8.75</vdop><extensions><gom:speed>0.0</gom:speed></extensions></trkpt>
   <trkpt lat="59.0704791874" lon="30.0329485279"><ele>94.261</ele><time>2026-04-20T19:34:51.075Z</time><hdop>13.687</hdop><vdop>8.937</vdop><extensions><gom:speed>0.0</gom:speed></extensions></trkpt>
   <trkpt lat="59.0704791874" lon="30.0329485279"><ele>94.257</ele><time>2026-04-20T19:34:52.075Z</time><hdop>13.687</hdop><vdop>9.187</vdop><extensions><gom:speed>0.0</gom:speed></extensions></trkpt>
   <trkpt lat="59.0704791874" lon="30.0329484441"><ele>94.252</ele><time>2026-04-20T19:34:53.075Z</time><hdop>13.687</hdop><vdop>9.25</vdop><extensions><gom:speed>0.0</gom:speed></extensions></trkpt>
   <trkpt lat="59.0704790617" lon="30.0329484441"><ele>94.249</ele><time>2026-04-20T19:34:54.075Z</time><hdop>13.75</hdop><vdop>9.25</vdop><extensions><gom:speed>0.0</gom:speed></extensions></trkpt>
   <trkpt lat="59.0704790617" lon="30.0329484441"><ele>94.247</ele><time>2026-04-20T19:34:55.076Z</time><hdop>13.75</hdop><vdop>9.437</vdop><extensions><gom:speed>0.0</gom:speed></extensions></trkpt>
   <trkpt lat="59.0704789778" lon="30.0329483603"><ele>94.246</ele><time>2026-04-20T19:34:56.075Z</time><hdop>13.875</hdop><vdop>9.75</vdop><extensions><gom:speed>0.0</gom:speed></extensions></trkpt>
   <trkpt lat="59.0704789778" lon="30.0329484441"><ele>94.245</ele><time>2026-04-20T19:34:57.075Z</time><hdop>14.0</hdop><vdop>10.0</vdop><extensions><gom:speed>0.0</gom:speed></extensions></trkpt>
   <trkpt lat="59.0704789778" lon="30.0329484441"><ele>94.246</ele><time>2026-04-20T19:34:58.075Z</time><hdop>14.187</hdop><vdop>10.25</vdop><extensions><gom:speed>0.0</gom:speed></extensions></trkpt>
   <trkpt lat="59.0704789778" lon="30.0329484441"><ele>94.246</ele><time>2026-04-20T19:34:59.075Z</time><hdop>14.625</hdop><vdop>10.5</vdop><extensions><gom:speed>0.0</gom:speed></extensions></trkpt>
   <trkpt lat="59.0704789778" lon="30.0329484441"><ele>94.246</ele><time>2026-04-20T19:35:00.075Z</time><hdop>15.25</hdop><vdop>10.312</vdop><extensions><gom:speed>0.0</gom:speed></extensions></trkpt>
   <trkpt lat="59.0704789778" lon="30.0329485279"><ele>94.246</ele><time>2026-04-20T19:35:01.075Z</time><hdop>16.125</hdop><vdop>10.125</vdop><extensions><gom:speed>0.0</gom:speed></extensions></trkpt>
   <trkpt lat="59.0704789778" lon="30.0329485279"><ele>94.247</ele><time>2026-04-20T19:35:02.075Z</time><hdop>17.812</hdop><vdop>9.937</vdop><extensions><gom:speed>0.0</gom:speed></extensions></trkpt>
   <trkpt lat="59.0704789778" lon="30.0329486955"><ele>94.249</ele><time>2026-04-20T19:35:03.075Z</time><hdop>19.0</hdop><vdop>9.812</vdop><extensions><gom:speed>0.0</gom:speed></extensions></trkpt>
   <trkpt lat="59.0704789778" lon="30.0329486955"><ele>94.252</ele><time>2026-04-20T19:35:04.075Z</time><hdop>20.375</hdop><vdop>9.812</vdop><extensions><gom:speed>0.0</gom:speed></extensions></trkpt>
   <trkpt lat="59.0704789778" lon="30.0329487794"><ele>94.253</ele><time>2026-04-20T19:35:05.075Z</time><hdop>21.937</hdop><vdop>9.625</vdop><extensions><gom:speed>0.0</gom:speed></extensions></trkpt>
   <trkpt lat="59.0704789778" lon="30.0329487794"><ele>94.255</ele><time>2026-04-20T19:35:06.076Z</time><hdop>23.5</hdop><vdop>9.312</vdop><extensions><gom:speed>0.0</gom:speed></extensions></trkpt>
   <trkpt lat="59.0704789778" lon="30.0329487794"><ele>94.255</ele><time>2026-04-20T19:35:07.075Z</time><hdop>25.375</hdop><vdop>8.875</vdop><extensions><gom:speed>0.0</gom:speed></extensions></trkpt>
   <trkpt lat="59.0704789778" lon="30.0329488632"><ele>94.256</ele><time>2026-04-20T19:35:08.075Z</time><hdop>26.562</hdop><vdop>8.562</vdop><extensions><gom:speed>0.0</gom:speed></extensions></trkpt>
   <trkpt lat="59.0704789778" lon="30.0329488632"><ele>94.256</ele><time>2026-04-20T19:35:09.075Z</time><hdop>27.75</hdop><vdop>8.25</vdop><extensions><gom:speed>0.0</gom:speed></extensions></trkpt>
   <trkpt lat="59.0704789778" lon="30.0329488632"><ele>94.256</ele><time>2026-04-20T19:35:10.075Z</time><hdop>28.625</hdop><vdop>7.937</vdop><extensions><gom:speed>0.0</gom:speed></extensions></trkpt>
   <trkpt lat="59.0704789778" lon="30.0329488632"><ele>94.255</ele><time>2026-04-20T19:35:11.075Z</time><hdop>29.437</hdop><vdop>7.687</vdop><extensions><gom:speed>0.0</gom:speed></extensions></trkpt>
   <trkpt lat="59.0704789778" lon="30.0329488632"><ele>94.254</ele><time>2026-04-20T19:35:12.075Z</time><hdop>30.375</hdop><vdop>7.562</vdop><extensions><gom:speed>0.0</gom:speed></extensions></trkpt>
   <trkpt lat="59.0704789778" lon="30.0329488632"><ele>94.254</ele><time>2026-04-20T19:35:13.075Z</time><hdop>31.562</hdop><vdop>7.562</vdop><extensions><gom:speed>0.0</gom:speed></extensions></trkpt>
   <trkpt lat="59.0704789778" lon="30.0329488632"><ele>94.254</ele><time>2026-04-20T19:35:14.075Z</time><hdop>33.875</hdop><vdop>8.687</vdop><extensions><gom:speed>0.0</gom:speed></extensions></trkpt>
   <trkpt lat="59.0704789778" lon="30.032948947"><ele>94.255</ele><time>2026-04-20T19:35:15.076Z</time><hdop>37.5</hdop><vdop>9.937</vdop><extensions><gom:speed>0.0</gom:speed></extensions></trkpt>
   <trkpt lat="59.0704790617" lon="30.032948947"><ele>94.256</ele><time>2026-04-20T19:35:16.075Z</time><hdop>42.687</hdop><vdop>11.375</vdop><extensions><gom:speed>0.0</gom:speed></extensions></trkpt>
   <trkpt lat="59.0704790617" lon="30.032948947"><ele>94.257</ele><time>2026-04-20T19:35:17.076Z</time><hdop>49.625</hdop><vdop>12.937</vdop><extensions><gom:speed>0.0</gom:speed></extensions></trkpt>
   <trkpt lat="59.0704790617" lon="30.032948947"><ele>94.258</ele><time>2026-04-20T19:35:18.075Z</time><hdop>57.187</hdop><vdop>13.187</vdop><extensions><gom:speed>0.0</gom:speed></extensions></trkpt>
   <trkpt lat="59.0704790617" lon="30.0329490308"><ele>94.26</ele><time>2026-04-20T19:35:19.075Z</time><hdop>63.0</hdop><vdop>12.125</vdop><extensions><gom:speed>0.0</gom:speed></extensions></trkpt>
   <trkpt lat="59.0704790617" lon="30.0329490308"><ele>94.262</ele><time>2026-04-20T19:35:20.075Z</time><hdop>66.625</hdop><vdop>10.937</vdop><extensions><gom:speed>0.0</gom:speed></extensions></trkpt>
   <trkpt lat="59.0704790617" lon="30.0329490308"><ele>94.263</ele><time>2026-04-20T19:35:21.076Z</time><hdop>68.187</hdop><vdop>9.875</vdop><extensions><gom:speed>0.0</gom:speed></extensions></trkpt>
   <trkpt lat="59.0704790617" lon="30.0329490308"><ele>94.262</ele><time>2026-04-20T19:35:22.075Z</time><hdop>67.25</hdop><vdop>9.0</vdop><extensions><gom:speed>0.0</gom:speed></extensions></trkpt>
   <trkpt lat="59.0704790617" lon="30.032948947"><ele>94.261</ele><time>2026-04-20T19:35:23.075Z</time><hdop>64.0</hdop><vdop>8.312</vdop><extensions><gom:speed>0.0</gom:speed></extensions></trkpt>
   <trkpt lat="59.0704790617" lon="30.032948947"><ele>94.261</ele><time>2026-04-20T19:35:24.075Z</time><hdop>60.312</hdop><vdop>8.312</vdop><extensions><gom:speed>0.0</gom:speed></extensions></trkpt>
   <trkpt lat="59.0704790617" lon="30.032948947"><ele>94.26</ele><time>2026-04-20T19:35:25.075Z</time><hdop>58.312</hdop><vdop>8.812</vdop><extensions><gom:speed>0.0</gom:speed></extensions></trkpt>
   <trkpt lat="59.0704789778" lon="30.032948947"><ele>94.259</ele><time>2026-04-20T19:35:26.075Z</time><hdop>58.937</hdop><vdop>10.062</vdop><extensions><gom:speed>0.0</gom:speed></extensions></trkpt>
   <trkpt lat="59.0704789778" lon="30.032948947"><ele>94.258</ele><time>2026-04-20T19:35:27.075Z</time><hdop>61.5</hdop><vdop>10.812</vdop><extensions><gom:speed>0.0</gom:speed></extensions></trkpt>
   <trkpt lat="59.0704789778" lon="30.0329488632"><ele>94.256</ele><time>2026-04-20T19:35:28.076Z</time><hdop>66.062</hdop><vdop>11.5</vdop><extensions><gom:speed>0.0</gom:speed></extensions></trkpt>
   <trkpt lat="59.0704789778" lon="30.0329488632"><ele>94.255</ele><time>2026-04-20T19:35:29.075Z</time><hdop>72.062</hdop><vdop>12.187</vdop><extensions><gom:speed>0.0</gom:speed></extensions></trkpt>
   <trkpt lat="59.0704789778" lon="30.0329488632"><ele>94.254</ele><time>2026-04-20T19:35:30.076Z</time><hdop>78.187</hdop><vdop>12.75</vdop><extensions><gom:speed>0.0</gom:speed></extensions></trkpt>
   <trkpt lat="59.0704789778" lon="30.0329488632"><ele>94.253</ele><time>2026-04-20T19:35:31.075Z</time><hdop>81.187</hdop><vdop>12.375</vdop><extensions><gom:speed>0.0</gom:speed></extensions></trkpt>
   <trkpt lat="59.0704789778" lon="30.0329488632"><ele>94.252</ele><time>2026-04-20T19:35:32.075Z</time><hdop>81.25</hdop><vdop>11.5</vdop><extensions><gom:speed>0.0</gom:speed></extensions></trkpt>
   <trkpt lat="59.0704789778" lon="30.0329488632"><ele>94.251</ele><time>2026-04-20T19:35:33.075Z</time><hdop>79.312</hdop><vdop>10.875</vdop><extensions><gom:speed>0.0</gom:speed></extensions></trkpt>
   <trkpt lat="59.0704789778" lon="30.0329488632"><ele>94.249</ele><time>2026-04-20T19:35:34.075Z</time><hdop>74.875</hdop><vdop>10.062</vdop><extensions><gom:speed>0.0</gom:speed></extensions></trkpt>
   <trkpt lat="59.0704789778" lon="30.0329488632"><ele>94.246</ele><time>2026-04-20T19:35:35.076Z</time><hdop>68.875</hdop><vdop>9.437</vdop><extensions><gom:speed>0.0</gom:speed></extensions></trkpt>
   <trkpt lat="59.0704789778" lon="30.0329488632"><ele>94.243</ele><time>2026-04-20T19:35:36.075Z</time><hdop>61.687</hdop><vdop>8.875</vdop><extensions><gom:speed>0.0</gom:speed></extensions></trkpt>
   <trkpt lat="59.0704789778" lon="30.0329487794"><ele>94.241</ele><time>2026-04-20T19:35:37.075Z</time><hdop>57.187</hdop><vdop>8.5</vdop><extensions><gom:speed>0.0</gom:speed></extensions></trkpt>
   <trkpt lat="59.070478894" lon="30.0329487794"><ele>94.238</ele><time>2026-04-20T19:35:38.075Z</time><hdop>53.937</hdop><vdop>8.937</vdop><extensions><gom:speed>0.0</gom:speed></extensions></trkpt>
   <trkpt lat="59.070478894" lon="30.0329487794"><ele>94.236</ele><time>2026-04-20T19:35:39.075Z</time><hdop>51.875</hdop><vdop>9.25</vdop><extensions><gom:speed>0.0</gom:speed></extensions></trkpt>
   <trkpt lat="59.070478894" lon="30.0329487794"><ele>94.234</ele><time>2026-04-20T19:35:40.075Z</time><hdop>50.312</hdop><vdop>9.625</vdop><extensions><gom:speed>0.0</gom:speed></extensions></trkpt>
   <trkpt lat="59.070478894" lon="30.0329487794"><ele>94.232</ele><time>2026-04-20T19:35:41.075Z</time><hdop>49.625</hdop><vdop>9.937</vdop><extensions><gom:speed>0.0</gom:speed></extensions></trkpt>
   <trkpt lat="59.070478894" lon="30.0329487794"><ele>94.231</ele><time>2026-04-20T19:35:42.075Z</time><hdop>49.937</hdop><vdop>10.25</vdop><extensions><gom:speed>0.0</gom:speed></extensions></trkpt>
   <trkpt lat="59.070478894" lon="30.0329487794"><ele>94.23</ele><time>2026-04-20T19:35:43.075Z</time><hdop>50.75</hdop><vdop>10.562</vdop><extensions><gom:speed>0.0</gom:speed></extensions></trkpt>
   <trkpt lat="59.0704787683" lon="30.0329486955"><ele>94.228</ele><time>2026-04-20T19:35:44.075Z</time><hdop>51.625</hdop><vdop>10.875</vdop><extensions><gom:speed>0.0</gom:speed></extensions></trkpt>
   <trkpt lat="59.0704787683" lon="30.0329486955"><ele>94.227</ele><time>2026-04-20T19:35:45.075Z</time><hdop>50.312</hdop><vdop>10.312</vdop><extensions><gom:speed>0.0</gom:speed></extensions></trkpt>
   <trkpt lat="59.0704787683" lon="30.0329486955"><ele>94.225</ele><time>2026-04-20T19:35:46.075Z</time><hdop>49.687</hdop><vdop>10.187</vdop><extensions><gom:speed>0.0</gom:speed></extensions></trkpt>
   <trkpt lat="59.0704787683" lon="30.0329486955"><ele>94.222</ele><time>2026-04-20T19:35:47.075Z</time><hdop>48.687</hdop><vdop>10.062</vdop><extensions><gom:speed>0.0</gom:speed></extensions></trkpt>
   <trkpt lat="59.0704786845" lon="30.0329486955"><ele>94.22</ele><time>2026-04-20T19:35:48.075Z</time><hdop>47.375</hdop><vdop>10.0</vdop><extensions><gom:speed>0.0</gom:speed></extensions></trkpt>
   <trkpt lat="59.0704786845" lon="30.0329486955"><ele>94.216</ele><time>2026-04-20T19:35:49.075Z</time><hdop>45.875</hdop><vdop>9.937</vdop><extensions><gom:speed>0.0</gom:speed></extensions></trkpt>
   <trkpt lat="59.0704786845" lon="30.0329485279"><ele>94.212</ele><time>2026-04-20T19:35:50.076Z</time><hdop>44.312</hdop><vdop>9.875</vdop><extensions><gom:speed>0.0</gom:speed></extensions></trkpt>
   <trkpt lat="59.0704786845" lon="30.0329485279"><ele>94.207</ele><time>2026-04-20T19:35:51.075Z</time><hdop>44.437</hdop><vdop>9.375</vdop><extensions><gom:speed>0.0</gom:speed></extensions></trkpt>
   <trkpt lat="59.0704785587" lon="30.0329485279"><ele>94.203</ele><time>2026-04-20T19:35:52.075Z</time><hdop>44.937</hdop><vdop>10.312</vdop><extensions><gom:speed>0.0</gom:speed></extensions></trkpt>
   <trkpt lat="59.0704785587" lon="30.0329485279"><ele>94.199</ele><time>2026-04-20T19:35:53.076Z</time><hdop>46.437</hdop><vdop>11.312</vdop><extensions><gom:speed>0.0</gom:speed></extensions></trkpt>
   <trkpt lat="59.0704785587" lon="30.0329485279"><ele>94.195</ele><time>2026-04-20T19:35:54.076Z</time><hdop>49.062</hdop><vdop>12.25</vdop><extensions><gom:speed>0.0</gom:speed></extensions></trkpt>
   <trkpt lat="59.0704785587" lon="30.0329484441"><ele>94.191</ele><time>2026-04-20T19:35:55.075Z</time><hdop>55.125</hdop><vdop>16.125</vdop><extensions><gom:speed>0.0</gom:speed></extensions></trkpt>
   <trkpt lat="59.0704784749" lon="30.0329484441"><ele>94.187</ele><time>2026-04-20T19:35:56.075Z</time><hdop>65.062</hdop><vdop>20.187</vdop><extensions><gom:speed>0.0</gom:speed></extensions></trkpt>
   <trkpt lat="59.0704784749" lon="30.0329483603"><ele>94.185</ele><time>2026-04-20T19:35:57.076Z</time><hdop>72.687</hdop><vdop>18.687</vdop><extensions><gom:speed>0.0</gom:speed></extensions></trkpt>
   <trkpt lat="59.0704784749" lon="30.0329483603"><ele>94.183</ele><time>2026-04-20T19:35:58.075Z</time><hdop>80.625</hdop><vdop>19.0</vdop><extensions><gom:speed>0.0</gom:speed></extensions></trkpt>
   <trkpt lat="59.0704784749" lon="30.0329483603"><ele>94.183</ele><time>2026-04-20T19:35:59.075Z</time><hdop>88.25</hdop><vdop>19.312</vdop><extensions><gom:speed>0.0</gom:speed></extensions></trkpt>
   <trkpt lat="59.0704784749" lon="30.0329483603"><ele>94.182</ele><time>2026-04-20T19:36:00.075Z</time><hdop>95.625</hdop><vdop>19.625</vdop><extensions><gom:speed>0.0</gom:speed></extensions></trkpt>
   <trkpt lat="59.0704783911" lon="30.0329483603"><ele>94.181</ele><time>2026-04-20T19:36:01.075Z</time><hdop>100.437</hdop><vdop>19.937</vdop><extensions><gom:speed>0.0</gom:speed></extensions></trkpt>
   <trkpt lat="59.0704783911" lon="30.0329483603"><ele>94.18</ele><time>2026-04-20T19:36:02.075Z</time><hdop>106.312</hdop><vdop>24.5</vdop><extensions><gom:speed>0.0</gom:speed></extensions></trkpt>
   <trkpt lat="59.0704783911" lon="30.0329482765"><ele>94.179</ele><time>2026-04-20T19:36:03.076Z</time><hdop>114.625</hdop><vdop>25.062</vdop><extensions><gom:speed>0.0</gom:speed></extensions></trkpt>
   <trkpt lat="59.0704782654" lon="30.0329482765"><ele>94.178</ele><time>2026-04-20T19:36:04.076Z</time><hdop>127.437</hdop><vdop>29.687</vdop><extensions><gom:speed>0.0</gom:speed></extensions></trkpt>
   <trkpt lat="59.0704782654" lon="30.0329482765"><ele>94.176</ele><time>2026-04-20T19:36:05.075Z</time><hdop>144.0</hdop><vdop>34.312</vdop><extensions><gom:speed>0.0</gom:speed></extensions></trkpt>
   <trkpt lat="59.0704782654" lon="30.0329481926"><ele>94.174</ele><time>2026-04-20T19:36:06.076Z</time><hdop>165.562</hdop><vdop>38.937</vdop><extensions><gom:speed>0.0</gom:speed></extensions></trkpt>
   <trkpt lat="59.0704782654" lon="30.0329481926"><ele>94.172</ele><time>2026-04-20T19:36:07.075Z</time><hdop>191.625</hdop><vdop>43.437</vdop><extensions><gom:speed>0.0</gom:speed></extensions></trkpt>
   <trkpt lat="59.0704782654" lon="30.0329481926"><ele>94.172</ele><time>2026-04-20T19:36:08.075Z</time><hdop>163.687</hdop><vdop>31.312</vdop><extensions><gom:speed>0.0</gom:speed></extensions></trkpt>
   <trkpt lat="59.0704782654" lon="30.0329481926"><ele>94.173</ele><time>2026-04-20T19:36:09.075Z</time><hdop>141.062</hdop><vdop>22.937</vdop><extensions><gom:speed>0.0</gom:speed></extensions></trkpt>
   <trkpt lat="59.0704781816" lon="30.0329481926"><ele>94.173</ele><time>2026-04-20T19:36:10.075Z</time><hdop>127.812</hdop><vdop>18.937</vdop><extensions><gom:speed>0.0</gom:speed></extensions></trkpt>
   <trkpt lat="59.0704781816" lon="30.0329481926"><ele>94.173</ele><time>2026-04-20T19:36:11.075Z</time><hdop>117.875</hdop><vdop>16.187</vdop><extensions><gom:speed>0.0</gom:speed></extensions></trkpt>
   <trkpt lat="59.0704781816" lon="30.0329481926"><ele>94.173</ele><time>2026-04-20T19:36:12.075Z</time><hdop>110.312</hdop><vdop>14.187</vdop><extensions><gom:speed>0.0</gom:speed></extensions></trkpt>
   <trkpt lat="59.0704781816" lon="30.0329481926"><ele>94.173</ele><time>2026-04-20T19:36:13.076Z</time><hdop>104.312</hdop><vdop>12.687</vdop><extensions><gom:speed>0.0</gom:speed></extensions></trkpt>
   <trkpt lat="59.0704781816" lon="30.0329481926"><ele>94.172</ele><time>2026-04-20T19:36:14.076Z</time><hdop>89.125</hdop><vdop>12.0</vdop><extensions><gom:speed>0.0</gom:speed></extensions></trkpt>
   <trkpt lat="59.0704781816" lon="30.0329481926"><ele>94.172</ele><time>2026-04-20T19:36:15.075Z</time><hdop>82.062</hdop><vdop>12.937</vdop><extensions><gom:speed>0.0</gom:speed></extensions></trkpt>
   <trkpt lat="59.0704781816" lon="30.0329481926"><ele>94.171</ele><time>2026-04-20T19:36:16.075Z</time><hdop>81.812</hdop><vdop>16.437</vdop><extensions><gom:speed>0.0</gom:speed></extensions></trkpt>
   <trkpt lat="59.0704781816" lon="30.0329481926"><ele>94.172</ele><time>2026-04-20T19:36:17.076Z</time><hdop>88.312</hdop><vdop>20.187</vdop><extensions><gom:speed>0.0</gom:speed></extensions></trkpt>
   <trkpt lat="59.0704781816" lon="30.0329481926"><ele>94.172</ele><time>2026-04-20T19:36:18.075Z</time><hdop>101.187</hdop><vdop>24.125</vdop><extensions><gom:speed>0.0</gom:speed></extensions></trkpt>
   <trkpt lat="59.0704781816" lon="30.0329481926"><ele>94.171</ele><time>2026-04-20T19:36:19.075Z</time><hdop>118.5</hdop><vdop>28.25</vdop><extensions><gom:speed>0.0</gom:speed></extensions></trkpt>
   <trkpt lat="59.0704781816" lon="30.032948025"><ele>94.17</ele><time>2026-04-20T19:36:20.075Z</time><hdop>129.625</hdop><vdop>23.562</vdop><extensions><gom:speed>0.0</gom:speed></extensions></trkpt>
   <trkpt lat="59.0704781816" lon="30.032948025"><ele>94.168</ele><time>2026-04-20T19:36:21.075Z</time><hdop>136.625</hdop><vdop>20.312</vdop><extensions><gom:speed>0.0</gom:speed></extensions></trkpt>
   <trkpt lat="59.0704780977" lon="30.032948025"><ele>94.165</ele><time>2026-04-20T19:36:22.076Z</time><hdop>56.187</hdop><vdop>16.687</vdop><extensions><gom:speed>0.0</gom:speed></extensions></trkpt>
   <trkpt lat="59.0704780977" lon="30.032948025"><ele>94.161</ele><time>2026-04-20T19:36:23.075Z</time><hdop>43.687</hdop><vdop>16.25</vdop><extensions><gom:speed>0.0</gom:speed></extensions></trkpt>
   <trkpt lat="59.0704780977" lon="30.0329479412"><ele>94.159</ele><time>2026-04-20T19:36:24.075Z</time><hdop>39.375</hdop><vdop>16.125</vdop><extensions><gom:speed>0.0</gom:speed></extensions></trkpt>
   <trkpt lat="59.070477972" lon="30.0329479412"><ele>94.155</ele><time>2026-04-20T19:36:25.075Z</time><hdop>36.0</hdop><vdop>16.0</vdop><extensions><gom:speed>0.0</gom:speed></extensions></trkpt>
   <trkpt lat="59.070477972" lon="30.0329478574"><ele>94.151</ele><time>2026-04-20T19:36:26.076Z</time><hdop>33.5</hdop><vdop>14.75</vdop><extensions><gom:speed>0.0</gom:speed></extensions></trkpt>
   <trkpt lat="59.0704778882" lon="30.0329478574"><ele>94.15</ele><time>2026-04-20T19:36:27.075Z</time><hdop>30.937</hdop><vdop>12.687</vdop><extensions><gom:speed>0.0</gom:speed></extensions></trkpt>
   <trkpt lat="59.0704778882" lon="30.0329477735"><ele>94.145</ele><time>2026-04-20T19:36:28.075Z</time><hdop>24.187</hdop><vdop>11.062</vdop><extensions><gom:speed>0.0</gom:speed></extensions></trkpt>
   <trkpt lat="59.0704777625" lon="30.0329477735"><ele>94.143</ele><time>2026-04-20T19:36:29.075Z</time><hdop>21.437</hdop><vdop>9.812</vdop><extensions><gom:speed>0.0</gom:speed></extensions></trkpt>
   <trkpt lat="59.0704777625" lon="30.0329476897"><ele>94.141</ele><time>2026-04-20T19:36:30.075Z</time><hdop>18.687</hdop><vdop>9.187</vdop><extensions><gom:speed>0.0</gom:speed></extensions></trkpt>
   <trkpt lat="59.0704777625" lon="30.0329476897"><ele>94.137</ele><time>2026-04-20T19:36:31.075Z</time><hdop>16.687</hdop><vdop>8.937</vdop><extensions><gom:speed>0.0</gom:speed></extensions></trkpt>
   <trkpt lat="59.0704776786" lon="30.0329475221"><ele>94.135</ele><time>2026-04-20T19:36:32.075Z</time><hdop>15.0</hdop><vdop>8.625</vdop><extensions><gom:speed>0.0</gom:speed></extensions></trkpt>
   <trkpt lat="59.0704776786" lon="30.0329474383"><ele>94.133</ele><time>2026-04-20T19:36:33.075Z</time><hdop>14.187</hdop><vdop>8.437</vdop><extensions><gom:speed>0.0</gom:speed></extensions></trkpt>
   <trkpt lat="59.0704776786" lon="30.0329474383"><ele>94.131</ele><time>2026-04-20T19:36:34.076Z</time><hdop>13.687</hdop><vdop>8.562</vdop><extensions><gom:speed>0.0</gom:speed></extensions></trkpt>
   <trkpt lat="59.0704775948" lon="30.0329474383"><ele>94.13</ele><time>2026-04-20T19:36:35.075Z</time><hdop>13.312</hdop><vdop>8.125</vdop><extensions><gom:speed>0.0</gom:speed></extensions></trkpt>
   <trkpt lat="59.0704775948" lon="30.0329474383"><ele>94.128</ele><time>2026-04-20T19:36:36.075Z</time><hdop>13.0</hdop><vdop>7.75</vdop><extensions><gom:speed>0.0</gom:speed></extensions></trkpt>
   <trkpt lat="59.0704775948" lon="30.0329474383"><ele>94.127</ele><time>2026-04-20T19:36:37.075Z</time><hdop>12.625</hdop><vdop>7.437</vdop><extensions><gom:speed>0.0</gom:speed></extensions></trkpt>
   <trkpt lat="59.0704774691" lon="30.0329474383"><ele>94.124</ele><time>2026-04-20T19:36:38.075Z</time><hdop>12.312</hdop><vdop>7.5</vdop><extensions><gom:speed>0.0</gom:speed></extensions></trkpt>
   <trkpt lat="59.0704774691" lon="30.0329474383"><ele>94.122</ele><time>2026-04-20T19:36:39.076Z</time><hdop>12.062</hdop><vdop>7.562</vdop><extensions><gom:speed>0.0</gom:speed></extensions></trkpt>
   <trkpt lat="59.0704774691" lon="30.0329474383"><ele>94.12</ele><time>2026-04-20T19:36:40.075Z</time><hdop>11.75</hdop><vdop>7.312</vdop><extensions><gom:speed>0.0</gom:speed></extensions></trkpt>
   <trkpt lat="59.0704774691" lon="30.0329474383"><ele>94.118</ele><time>2026-04-20T19:36:41.076Z</time><hdop>11.5</hdop><vdop>7.062</vdop><extensions><gom:speed>0.0</gom:speed></extensions></trkpt>
   <trkpt lat="59.0704773853" lon="30.0329473544"><ele>94.115</ele><time>2026-04-20T19:36:42.075Z</time><hdop>11.312</hdop><vdop>6.75</vdop><extensions><gom:speed>0.0</gom:speed></extensions></trkpt>
   <trkpt lat="59.0704773853" lon="30.0329473544"><ele>94.111</ele><time>2026-04-20T19:36:43.076Z</time><hdop>11.125</hdop><vdop>6.187</vdop><extensions><gom:speed>0.0</gom:speed></extensions></trkpt>
   <trkpt lat="59.0704772595" lon="30.0329472706"><ele>94.107</ele><time>2026-04-20T19:36:44.075Z</time><hdop>10.937</hdop><vdop>6.187</vdop><extensions><gom:speed>0.0</gom:speed></extensions></trkpt>
   <trkpt lat="59.0704772595" lon="30.0329471868"><ele>94.101</ele><time>2026-04-20T19:36:45.076Z</time><hdop>10.75</hdop><vdop>6.437</vdop><extensions><gom:speed>0.0</gom:speed></extensions></trkpt>
   <trkpt lat="59.0704772595" lon="30.0329471868"><ele>94.096</ele><time>2026-04-20T19:36:46.075Z</time><hdop>10.625</hdop><vdop>6.25</vdop><extensions><gom:speed>0.0</gom:speed></extensions></trkpt>
   <trkpt lat="59.0704772595" lon="30.0329470192"><ele>94.093</ele><time>2026-04-20T19:36:47.076Z</time><hdop>10.5</hdop><vdop>6.187</vdop><extensions><gom:speed>0.0</gom:speed></extensions></trkpt>
   <trkpt lat="59.0704772595" lon="30.0329470192"><ele>94.089</ele><time>2026-04-20T19:36:48.075Z</time><hdop>10.375</hdop><vdop>6.062</vdop><extensions><gom:speed>0.0</gom:speed></extensions></trkpt>
   <trkpt lat="59.0704772595" lon="30.0329469353"><ele>94.086</ele><time>2026-04-20T19:36:49.075Z</time><hdop>10.375</hdop><vdop>6.312</vdop><extensions><gom:speed>0.0</gom:speed></extensions></trkpt>
   <trkpt lat="59.0704772595" lon="30.0329468515"><ele>94.084</ele><time>2026-04-20T19:36:50.075Z</time><hdop>10.375</hdop><vdop>6.437</vdop><extensions><gom:speed>0.0</gom:speed></extensions></trkpt>
   <trkpt lat="59.0704772595" lon="30.0329467677"><ele>94.083</ele><time>2026-04-20T19:36:51.075Z</time><hdop>10.375</hdop><vdop>6.687</vdop><extensions><gom:speed>0.0</gom:speed></extensions></trkpt>
   <trkpt lat="59.0704771757" lon="30.0329466839"><ele>94.082</ele><time>2026-04-20T19:36:52.075Z</time><hdop>10.437</hdop><vdop>7.125</vdop><extensions><gom:speed>0.0</gom:speed></extensions></trkpt>
   <trkpt lat="59.0704771757" lon="30.0329466839"><ele>94.08</ele><time>2026-04-20T19:36:53.076Z</time><hdop>10.562</hdop><vdop>7.375</vdop><extensions><gom:speed>0.0</gom:speed></extensions></trkpt>
   <trkpt lat="59.0704771757" lon="30.0329465163"><ele>94.076</ele><time>2026-04-20T19:36:54.075Z</time><hdop>10.625</hdop><vdop>7.25</vdop><extensions><gom:speed>0.0</gom:speed></extensions></trkpt>
   <trkpt lat="59.0704771757" lon="30.0329463486"><ele>94.07</ele><time>2026-04-20T19:36:55.075Z</time><hdop>10.687</hdop><vdop>7.437</vdop><extensions><gom:speed>0.0</gom:speed></extensions></trkpt>
   <trkpt lat="59.0704770919" lon="30.0329462648"><ele>94.064</ele><time>2026-04-20T19:36:56.075Z</time><hdop>10.75</hdop><vdop>7.187</vdop><extensions><gom:speed>0.0</gom:speed></extensions></trkpt>
   <trkpt lat="59.0704770919" lon="30.032946181"><ele>94.057</ele><time>2026-04-20T19:36:57.076Z</time><hdop>10.812</hdop><vdop>6.875</vdop><extensions><gom:speed>0.0</gom:speed></extensions></trkpt>
   <trkpt lat="59.0704769662" lon="30.0329460972"><ele>94.051</ele><time>2026-04-20T19:36:58.075Z</time><hdop>10.75</hdop><vdop>6.437</vdop><extensions><gom:speed>0.0</gom:speed></extensions></trkpt>
   <trkpt lat="59.0704769662" lon="30.0329459295"><ele>94.044</ele><time>2026-04-20T19:36:59.075Z</time><hdop>10.75</hdop><vdop>6.437</vdop><extensions><gom:speed>0.0</gom:speed></extensions></trkpt>
   <trkpt lat="59.0704769662" lon="30.0329458457"><ele>94.037</ele><time>2026-04-20T19:37:00.075Z</time><hdop>10.687</hdop><vdop>6.062</vdop><extensions><gom:speed>0.0</gom:speed></extensions></trkpt>
   <trkpt lat="59.0704768824" lon="30.0329457619"><ele>94.032</ele><time>2026-04-20T19:37:01.075Z</time><hdop>10.562</hdop><vdop>5.812</vdop><extensions><gom:speed>0.0</gom:speed></extensions></trkpt>
   <trkpt lat="59.0704768824" lon="30.0329456781"><ele>94.026</ele><time>2026-04-20T19:37:02.075Z</time><hdop>10.5</hdop><vdop>5.625</vdop><extensions><gom:speed>0.0</gom:speed></extensions></trkpt>
   <trkpt lat="59.0704768824" lon="30.0329455942"><ele>94.023</ele><time>2026-04-20T19:37:03.075Z</time><hdop>10.437</hdop><vdop>5.5</vdop><extensions><gom:speed>0.0</gom:speed></extensions></trkpt>
   <trkpt lat="59.0704767985" lon="30.0329455942"><ele>94.021</ele><time>2026-04-20T19:37:04.075Z</time><hdop>10.375</hdop><vdop>5.562</vdop><extensions><gom:speed>0.0</gom:speed></extensions></trkpt>
   <trkpt lat="59.0704767985" lon="30.0329454266"><ele>94.018</ele><time>2026-04-20T19:37:05.075Z</time><hdop>10.375</hdop><vdop>5.5</vdop><extensions><gom:speed>0.0</gom:speed></extensions></trkpt>
   <trkpt lat="59.0704766728" lon="30.0329454266"><ele>94.018</ele><time>2026-04-20T19:37:06.075Z</time><hdop>10.312</hdop><vdop>5.375</vdop><extensions><gom:speed>0.0</gom:speed></extensions></trkpt>
   <trkpt lat="59.070476589" lon="30.0329454266"><ele>94.017</ele><time>2026-04-20T19:37:07.076Z</time><hdop>10.312</hdop><vdop>5.312</vdop><extensions><gom:speed>0.0</gom:speed></extensions></trkpt>
   <trkpt lat="59.070476589" lon="30.0329454266"><ele>94.017</ele><time>2026-04-20T19:37:08.075Z</time><hdop>10.25</hdop><vdop>5.187</vdop><extensions><gom:speed>0.0</gom:speed></extensions></trkpt>
   <trkpt lat="59.070476589" lon="30.0329454266"><ele>94.017</ele><time>2026-04-20T19:37:09.076Z</time><hdop>10.25</hdop><vdop>5.062</vdop><extensions><gom:speed>0.0</gom:speed></extensions></trkpt>
   <trkpt lat="59.0704764633" lon="30.0329454266"><ele>94.013</ele><time>2026-04-20T19:37:10.075Z</time><hdop>10.187</hdop><vdop>5.062</vdop><extensions><gom:speed>0.0</gom:speed></extensions></trkpt>
   <trkpt lat="59.0704764633" lon="30.0329453428"><ele>94.009</ele><time>2026-04-20T19:37:11.076Z</time><hdop>10.187</hdop><vdop>5.0</vdop><extensions><gom:speed>0.0</gom:speed></extensions></trkpt>
   <trkpt lat="59.0704767985" lon="30.0329450913"><ele>94.065</ele><time>2026-04-20T19:37:12.075Z</time><hdop>10.125</hdop><vdop>4.937</vdop><extensions><gom:speed>0.0</gom:speed></extensions></trkpt>
   <trkpt lat="59.0704769662" lon="30.0329448399"><ele>94.1</ele><time>2026-04-20T19:37:13.075Z</time><hdop>10.062</hdop><vdop>4.875</vdop><extensions><gom:speed>0.0</gom:speed></extensions></trkpt>
   <trkpt lat="59.0704772595" lon="30.0329446722"><ele>94.153</ele><time>2026-04-20T19:37:14.075Z</time><hdop>10.062</hdop><vdop>4.687</vdop><extensions><gom:speed>0.0</gom:speed></extensions></trkpt>
   <trkpt lat="59.0704773853" lon="30.0329444208"><ele>94.185</ele><time>2026-04-20T19:37:15.075Z</time><hdop>10.0</hdop><vdop>4.625</vdop><extensions><gom:speed>0.0</gom:speed></extensions></trkpt>
   <trkpt lat="59.0704775948" lon="30.032944337"><ele>94.229</ele><time>2026-04-20T19:37:16.075Z</time><hdop>10.0</hdop><vdop>5.187</vdop><extensions><gom:speed>0.0</gom:speed></extensions></trkpt>
   <trkpt lat="59.0704776786" lon="30.0329442531"><ele>94.256</ele><time>2026-04-20T19:37:17.075Z</time><hdop>10.0</hdop><vdop>5.5</vdop><extensions><gom:speed>0.0</gom:speed></extensions></trkpt>
   <trkpt lat="59.0704776786" lon="30.0329442531"><ele>94.273</ele><time>2026-04-20T19:37:18.075Z</time><hdop>10.0</hdop><vdop>5.875</vdop><extensions><gom:speed>0.0</gom:speed></extensions></trkpt>
   <trkpt lat="59.0704776786" lon="30.0329442531"><ele>94.284</ele><time>2026-04-20T19:37:19.076Z</time><hdop>10.062</hdop><vdop>6.25</vdop><extensions><gom:speed>0.0</gom:speed></extensions></trkpt>
   <trkpt lat="59.0704776786" lon="30.0329441693"><ele>94.29</ele><time>2026-04-20T19:37:20.075Z</time><hdop>10.125</hdop><vdop>6.5</vdop><extensions><gom:speed>0.0</gom:speed></extensions></trkpt>
   <trkpt lat="59.0704777625" lon="30.0329439179"><ele>94.308</ele><time>2026-04-20T19:37:21.075Z</time><hdop>10.25</hdop><vdop>6.812</vdop><extensions><gom:speed>0.0</gom:speed></extensions></trkpt>
   <trkpt lat="59.0704777625" lon="30.032943834"><ele>94.318</ele><time>2026-04-20T19:37:22.075Z</time><hdop>10.375</hdop><vdop>6.937</vdop><extensions><gom:speed>0.0</gom:speed></extensions></trkpt>
   <trkpt lat="59.070477972" lon="30.0329435826"><ele>94.325</ele><time>2026-04-20T19:37:23.075Z</time><hdop>10.5</hdop><vdop>6.625</vdop><extensions><gom:speed>0.0</gom:speed></extensions></trkpt>
   <trkpt lat="59.0704780977" lon="30.0329433311"><ele>94.334</ele><time>2026-04-20T19:37:24.075Z</time><hdop>10.562</hdop><vdop>6.562</vdop><extensions><gom:speed>0.0</gom:speed></extensions></trkpt>
   <trkpt lat="59.0704780977" lon="30.0329432473"><ele>94.339</ele><time>2026-04-20T19:37:25.075Z</time><hdop>10.625</hdop><vdop>6.625</vdop><extensions><gom:speed>0.0</gom:speed></extensions></trkpt>
   <trkpt lat="59.0704780977" lon="30.0329430797"><ele>94.343</ele><time>2026-04-20T19:37:26.075Z</time><hdop>10.687</hdop><vdop>6.562</vdop><extensions><gom:speed>0.0</gom:speed></extensions></trkpt>
   <trkpt lat="59.070477972" lon="30.0329429959"><ele>94.347</ele><time>2026-04-20T19:37:27.075Z</time><hdop>10.687</hdop><vdop>6.437</vdop><extensions><gom:speed>0.0</gom:speed></extensions></trkpt>
   <trkpt lat="59.070477972" lon="30.0329428282"><ele>94.348</ele><time>2026-04-20T19:37:28.075Z</time><hdop>10.687</hdop><vdop>6.312</vdop><extensions><gom:speed>0.0</gom:speed></extensions></trkpt>
   <trkpt lat="59.070477972" lon="30.0329427444"><ele>94.351</ele><time>2026-04-20T19:37:29.075Z</time><hdop>10.75</hdop><vdop>6.375</vdop><extensions><gom:speed>0.0</gom:speed></extensions></trkpt>
   <trkpt lat="59.0704778882" lon="30.0329426606"><ele>94.35</ele><time>2026-04-20T19:37:30.075Z</time><hdop>10.812</hdop><vdop>6.375</vdop><extensions><gom:speed>0.0</gom:speed></extensions></trkpt>
   <trkpt lat="59.0704778882" lon="30.0329425768"><ele>94.348</ele><time>2026-04-20T19:37:31.075Z</time><hdop>10.875</hdop><vdop>6.25</vdop><extensions><gom:speed>0.0</gom:speed></extensions></trkpt>
   <trkpt lat="59.0704777625" lon="30.0329425768"><ele>94.346</ele><time>2026-04-20T19:37:32.076Z</time><hdop>10.937</hdop><vdop>6.125</vdop><extensions><gom:speed>0.0</gom:speed></extensions></trkpt>
   <trkpt lat="59.0704776786" lon="30.0329424929"><ele>94.347</ele><time>2026-04-20T19:37:33.075Z</time><hdop>11.0</hdop><vdop>6.562</vdop><extensions><gom:speed>0.0</gom:speed></extensions></trkpt>
   <trkpt lat="59.0704775948" lon="30.0329424929"><ele>94.348</ele><time>2026-04-20T19:37:34.076Z</time><hdop>11.062</hdop><vdop>6.5</vdop><extensions><gom:speed>0.0</gom:speed></extensions></trkpt>
   <trkpt lat="59.0704775948" lon="30.0329424929"><ele>94.348</ele><time>2026-04-20T19:37:35.075Z</time><hdop>11.062</hdop><vdop>6.812</vdop><extensions><gom:speed>0.0</gom:speed></extensions></trkpt>
   <trkpt lat="59.0704774691" lon="30.0329424929"><ele>94.349</ele><time>2026-04-20T19:37:36.075Z</time><hdop>11.062</hdop><vdop>7.187</vdop><extensions><gom:speed>0.0</gom:speed></extensions></trkpt>
   <trkpt lat="59.0704774691" lon="30.0329424929"><ele>94.35</ele><time>2026-04-20T19:37:37.076Z</time><hdop>11.0</hdop><vdop>6.937</vdop><extensions><gom:speed>0.0</gom:speed></extensions></trkpt>
   <trkpt lat="59.0704775948" lon="30.0329422415"><ele>94.377</ele><time>2026-04-20T19:37:38.075Z</time><hdop>11.0</hdop><vdop>6.687</vdop><extensions><gom:speed>0.0</gom:speed></extensions></trkpt>
   <trkpt lat="59.0704776786" lon="30.0329421577"><ele>94.412</ele><time>2026-04-20T19:37:39.075Z</time><hdop>10.937</hdop><vdop>6.562</vdop><extensions><gom:speed>0.0</gom:speed></extensions></trkpt>
   <trkpt lat="59.0704777625" lon="30.03294199"><ele>94.434</ele><time>2026-04-20T19:37:40.075Z</time><hdop>10.875</hdop><vdop>6.312</vdop><extensions><gom:speed>0.0</gom:speed></extensions></trkpt>
   <trkpt lat="59.0704776786" lon="30.03294199"><ele>94.449</ele><time>2026-04-20T19:37:41.075Z</time><hdop>10.812</hdop><vdop>6.0</vdop><extensions><gom:speed>0.0</gom:speed></extensions></trkpt>
   <trkpt lat="59.0704776786" lon="30.0329418224"><ele>94.459</ele><time>2026-04-20T19:37:42.075Z</time><hdop>10.687</hdop><vdop>5.75</vdop><extensions><gom:speed>0.0</gom:speed></extensions></trkpt>
   <trkpt lat="59.0704776786" lon="30.0329418224"><ele>94.464</ele><time>2026-04-20T19:37:43.075Z</time><hdop>10.625</hdop><vdop>5.625</vdop><extensions><gom:speed>0.0</gom:speed></extensions></trkpt>
   <trkpt lat="59.0704776786" lon="30.0329417386"><ele>94.468</ele><time>2026-04-20T19:37:44.075Z</time><hdop>10.562</hdop><vdop>5.375</vdop><extensions><gom:speed>0.0</gom:speed></extensions></trkpt>
   <trkpt lat="59.0704775948" lon="30.0329417386"><ele>94.473</ele><time>2026-04-20T19:37:45.076Z</time><hdop>10.562</hdop><vdop>5.437</vdop><extensions><gom:speed>0.0</gom:speed></extensions></trkpt>
   <trkpt lat="59.0704775948" lon="30.0329416547"><ele>94.475</ele><time>2026-04-20T19:37:46.075Z</time><hdop>10.562</hdop><vdop>5.5</vdop><extensions><gom:speed>0.0</gom:speed></extensions></trkpt>
   <trkpt lat="59.0704774691" lon="30.0329415709"><ele>94.476</ele><time>2026-04-20T19:37:47.075Z</time><hdop>10.562</hdop><vdop>5.625</vdop><extensions><gom:speed>0.0</gom:speed></extensions></trkpt>
   <trkpt lat="59.0704774691" lon="30.0329415709"><ele>94.477</ele><time>2026-04-20T19:37:48.076Z</time><hdop>10.687</hdop><vdop>5.75</vdop><extensions><gom:speed>0.0</gom:speed></extensions></trkpt>
   <trkpt lat="59.0704773853" lon="30.0329414871"><ele>94.478</ele><time>2026-04-20T19:37:49.075Z</time><hdop>10.75</hdop><vdop>5.75</vdop><extensions><gom:speed>0.0</gom:speed></extensions></trkpt>
   <trkpt lat="59.0704773853" lon="30.0329414871"><ele>94.479</ele><time>2026-04-20T19:37:50.075Z</time><hdop>10.812</hdop><vdop>5.812</vdop><extensions><gom:speed>0.0</gom:speed></extensions></trkpt>
   <trkpt lat="59.0704772595" lon="30.0329414871"><ele>94.479</ele><time>2026-04-20T19:37:51.075Z</time><hdop>10.875</hdop><vdop>5.937</vdop><extensions><gom:speed>0.0</gom:speed></extensions></trkpt>
   <trkpt lat="59.0704771757" lon="30.0329414871"><ele>94.477</ele><time>2026-04-20T19:37:52.075Z</time><hdop>10.937</hdop><vdop>5.875</vdop><extensions><gom:speed>0.0</gom:speed></extensions></trkpt>
   <trkpt lat="59.0704770919" lon="30.0329414871"><ele>94.476</ele><time>2026-04-20T19:37:53.076Z</time><hdop>10.937</hdop><vdop>5.875</vdop><extensions><gom:speed>0.0</gom:speed></extensions></trkpt>
   <trkpt lat="59.0704770919" lon="30.0329414871"><ele>94.474</ele><time>2026-04-20T19:37:54.075Z</time><hdop>10.875</hdop><vdop>6.187</vdop><extensions><gom:speed>0.0</gom:speed></extensions></trkpt>
   <trkpt lat="59.0704769662" lon="30.0329413195"><ele>94.471</ele><time>2026-04-20T19:37:55.075Z</time><hdop>10.812</hdop><vdop>5.937</vdop><extensions><gom:speed>0.0</gom:speed></extensions></trkpt>
   <trkpt lat="59.0704768824" lon="30.0329413195"><ele>94.468</ele><time>2026-04-20T19:37:56.075Z</time><hdop>10.812</hdop><vdop>5.875</vdop><extensions><gom:speed>0.0</gom:speed></extensions></trkpt>
   <trkpt lat="59.0704767985" lon="30.0329412357"><ele>94.464</ele><time>2026-04-20T19:37:57.076Z</time><hdop>10.75</hdop><vdop>5.687</vdop><extensions><gom:speed>0.0</gom:speed></extensions></trkpt>
   <trkpt lat="59.0704767985" lon="30.0329412357"><ele>94.459</ele><time>2026-04-20T19:37:58.075Z</time><hdop>10.75</hdop><vdop>5.75</vdop><extensions><gom:speed>0.0</gom:speed></extensions></trkpt>
   <trkpt lat="59.0704767985" lon="30.0329411518"><ele>94.457</ele><time>2026-04-20T19:37:59.076Z</time><hdop>10.812</hdop><vdop>5.812</vdop><extensions><gom:speed>0.0</gom:speed></extensions></trkpt>
   <trkpt lat="59.0704767985" lon="30.0329411518"><ele>94.452</ele><time>2026-04-20T19:38:00.075Z</time><hdop>10.812</hdop><vdop>5.812</vdop><extensions><gom:speed>0.0</gom:speed></extensions></trkpt>
   <trkpt lat="59.0704766728" lon="30.0329411518"><ele>94.45</ele><time>2026-04-20T19:38:01.075Z</time><hdop>10.812</hdop><vdop>5.625</vdop><extensions><gom:speed>0.0</gom:speed></extensions></trkpt>
   <trkpt lat="59.0704766728" lon="30.032941068"><ele>94.449</ele><time>2026-04-20T19:38:02.075Z</time><hdop>10.875</hdop><vdop>6.062</vdop><extensions><gom:speed>0.0</gom:speed></extensions></trkpt>
   <trkpt lat="59.070476589" lon="30.032941068"><ele>94.448</ele><time>2026-04-20T19:38:03.075Z</time><hdop>10.937</hdop><vdop>6.312</vdop><extensions><gom:speed>0.0</gom:speed></extensions></trkpt>
   <trkpt lat="59.070476589" lon="30.032941068"><ele>94.445</ele><time>2026-04-20T19:38:04.075Z</time><hdop>11.062</hdop><vdop>6.562</vdop><extensions><gom:speed>0.0</gom:speed></extensions></trkpt>
   <trkpt lat="59.070476589" lon="30.032941068"><ele>94.442</ele><time>2026-04-20T19:38:05.075Z</time><hdop>11.125</hdop><vdop>6.812</vdop><extensions><gom:speed>0.0</gom:speed></extensions></trkpt>
   <trkpt lat="59.0704764633" lon="30.032941068"><ele>94.44</ele><time>2026-04-20T19:38:06.075Z</time><hdop>11.312</hdop><vdop>7.187</vdop><extensions><gom:speed>0.0</gom:speed></extensions></trkpt>
   <trkpt lat="59.0704764633" lon="30.032941068"><ele>94.438</ele><time>2026-04-20T19:38:07.075Z</time><hdop>11.437</hdop><vdop>7.187</vdop><extensions><gom:speed>0.0</gom:speed></extensions></trkpt>
   <trkpt lat="59.0704763794" lon="30.032941068"><ele>94.435</ele><time>2026-04-20T19:38:08.075Z</time><hdop>11.625</hdop><vdop>7.312</vdop><extensions><gom:speed>0.0</gom:speed></extensions></trkpt>
   <trkpt lat="59.0704763794" lon="30.032941068"><ele>94.431</ele><time>2026-04-20T19:38:09.075Z</time><hdop>11.75</hdop><vdop>7.125</vdop><extensions><gom:speed>0.0</gom:speed></extensions></trkpt>
   <trkpt lat="59.0704763794" lon="30.032941068"><ele>94.427</ele><time>2026-04-20T19:38:10.075Z</time><hdop>11.812</hdop><vdop>6.812</vdop><extensions><gom:speed>0.0</gom:speed></extensions></trkpt>
   <trkpt lat="59.0704763794" lon="30.032941068"><ele>94.425</ele><time>2026-04-20T19:38:11.075Z</time><hdop>11.875</hdop><vdop>6.625</vdop><extensions><gom:speed>0.0</gom:speed></extensions></trkpt>
   <trkpt lat="59.0704762956" lon="30.032941068"><ele>94.423</ele><time>2026-04-20T19:38:12.075Z</time><hdop>11.937</hdop><vdop>6.625</vdop><extensions><gom:speed>0.0</gom:speed></extensions></trkpt>
   <trkpt lat="59.0704762956" lon="30.032941068"><ele>94.422</ele><time>2026-04-20T19:38:13.075Z</time><hdop>11.937</hdop><vdop>6.625</vdop><extensions><gom:speed>0.0</gom:speed></extensions></trkpt>
   <trkpt lat="59.0704761699" lon="30.032941068"><ele>94.422</ele><time>2026-04-20T19:38:14.075Z</time><hdop>11.875</hdop><vdop>6.5</vdop><extensions><gom:speed>0.0</gom:speed></extensions></trkpt>
   <trkpt lat="59.0704761699" lon="30.032941068"><ele>94.421</ele><time>2026-04-20T19:38:15.075Z</time><hdop>11.875</hdop><vdop>6.437</vdop><extensions><gom:speed>0.0</gom:speed></extensions></trkpt>
   <trkpt lat="59.0704760861" lon="30.032941068"><ele>94.421</ele><time>2026-04-20T19:38:16.075Z</time><hdop>11.812</hdop><vdop>6.625</vdop><extensions><gom:speed>0.0</gom:speed></extensions></trkpt>
   <trkpt lat="59.0704760861" lon="30.0329409842"><ele>94.419</ele><time>2026-04-20T19:38:17.075Z</time><hdop>11.875</hdop><vdop>6.75</vdop><extensions><gom:speed>0.0</gom:speed></extensions></trkpt>
   <trkpt lat="59.0704759603" lon="30.032941068"><ele>94.419</ele><time>2026-04-20T19:38:18.075Z</time><hdop>11.937</hdop><vdop>6.75</vdop><extensions><gom:speed>0.0</gom:speed></extensions></trkpt>
   <trkpt lat="59.0704758765" lon="30.0329409842"><ele>94.42</ele><time>2026-04-20T19:38:19.075Z</time><hdop>12.0</hdop><vdop>6.812</vdop><extensions><gom:speed>0.0</gom:speed></extensions></trkpt>
   <trkpt lat="59.0704758765" lon="30.0329409842"><ele>94.419</ele><time>2026-04-20T19:38:20.075Z</time><hdop>12.125</hdop><vdop>6.875</vdop><extensions><gom:speed>0.0</gom:speed></extensions></trkpt>
   <trkpt lat="59.0704757927" lon="30.0329409842"><ele>94.418</ele><time>2026-04-20T19:38:21.075Z</time><hdop>12.187</hdop><vdop>6.687</vdop><extensions><gom:speed>0.0</gom:speed></extensions></trkpt>
   <trkpt lat="59.070475667" lon="30.0329408166"><ele>94.418</ele><time>2026-04-20T19:38:22.075Z</time><hdop>12.25</hdop><vdop>6.687</vdop><extensions><gom:speed>0.0</gom:speed></extensions></trkpt>
   <trkpt lat="59.0704755832" lon="30.0329408166"><ele>94.418</ele><time>2026-04-20T19:38:23.075Z</time><hdop>12.25</hdop><vdop>6.75</vdop><extensions><gom:speed>0.0</gom:speed></extensions></trkpt>
   <trkpt lat="59.0704755832" lon="30.0329408166"><ele>94.416</ele><time>2026-04-20T19:38:24.075Z</time><hdop>12.125</hdop><vdop>6.75</vdop><extensions><gom:speed>0.0</gom:speed></extensions></trkpt>
   <trkpt lat="59.0704755832" lon="30.0329408166"><ele>94.413</ele><time>2026-04-20T19:38:25.076Z</time><hdop>12.062</hdop><vdop>6.812</vdop><extensions><gom:speed>0.0</gom:speed></extensions></trkpt>
   <trkpt lat="59.0704755832" lon="30.0329408166"><ele>94.411</ele><time>2026-04-20T19:38:26.075Z</time><hdop>12.0</hdop><vdop>6.937</vdop><extensions><gom:speed>0.0</gom:speed></extensions></trkpt>
   <trkpt lat="59.0704754993" lon="30.0329408166"><ele>94.411</ele><time>2026-04-20T19:38:27.075Z</time><hdop>12.0</hdop><vdop>7.0</vdop><extensions><gom:speed>0.0</gom:speed></extensions></trkpt>
   <trkpt lat="59.0704753736" lon="30.0329408166"><ele>94.41</ele><time>2026-04-20T19:38:28.076Z</time><hdop>12.062</hdop><vdop>7.125</vdop><extensions><gom:speed>0.0</gom:speed></extensions></trkpt>
   <trkpt lat="59.0704753736" lon="30.0329408166"><ele>94.409</ele><time>2026-04-20T19:38:29.075Z</time><hdop>12.062</hdop><vdop>7.062</vdop><extensions><gom:speed>0.0</gom:speed></extensions></trkpt>
   <trkpt lat="59.0704752898" lon="30.0329408166"><ele>94.408</ele><time>2026-04-20T19:38:30.075Z</time><hdop>12.125</hdop><vdop>7.0</vdop><extensions><gom:speed>0.0</gom:speed></extensions></trkpt>
   <trkpt lat="59.0704752898" lon="30.0329408166"><ele>94.408</ele><time>2026-04-20T19:38:31.076Z</time><hdop>12.25</hdop><vdop>6.875</vdop><extensions><gom:speed>0.0</gom:speed></extensions></trkpt>
   <trkpt lat="59.0704751641" lon="30.0329408166"><ele>94.408</ele><time>2026-04-20T19:38:32.075Z</time><hdop>12.187</hdop><vdop>6.562</vdop><extensions><gom:speed>0.0</gom:speed></extensions></trkpt>
   <trkpt lat="59.0704751641" lon="30.0329408166"><ele>94.406</ele><time>2026-04-20T19:38:33.076Z</time><hdop>12.125</hdop><vdop>6.25</vdop><extensions><gom:speed>0.0</gom:speed></extensions></trkpt>
   <trkpt lat="59.0704750802" lon="30.0329408166"><ele>94.407</ele><time>2026-04-20T19:38:34.075Z</time><hdop>12.0</hdop><vdop>6.0</vdop><extensions><gom:speed>0.0</gom:speed></extensions></trkpt>
   <trkpt lat="59.0704750802" lon="30.0329408166"><ele>94.407</ele><time>2026-04-20T19:38:35.076Z</time><hdop>11.812</hdop><vdop>5.812</vdop><extensions><gom:speed>0.0</gom:speed></extensions></trkpt>
   <trkpt lat="59.0704750802" lon="30.0329408166"><ele>94.407</ele><time>2026-04-20T19:38:36.076Z</time><hdop>11.625</hdop><vdop>5.875</vdop><extensions><gom:speed>0.0</gom:speed></extensions></trkpt>
   <trkpt lat="59.0704749964" lon="30.0329408166"><ele>94.406</ele><time>2026-04-20T19:38:37.075Z</time><hdop>11.437</hdop><vdop>6.0</vdop><extensions><gom:speed>0.0</gom:speed></extensions></trkpt>
   <trkpt lat="59.0704749964" lon="30.0329408166"><ele>94.404</ele><time>2026-04-20T19:38:38.075Z</time><hdop>11.375</hdop><vdop>6.187</vdop><extensions><gom:speed>0.0</gom:speed></extensions></trkpt>
   <trkpt lat="59.0704748707" lon="30.0329408166"><ele>94.402</ele><time>2026-04-20T19:38:39.076Z</time><hdop>11.312</hdop><vdop>6.25</vdop><extensions><gom:speed>0.0</gom:speed></extensions></trkpt>
   <trkpt lat="59.0704748707" lon="30.0329408166"><ele>94.4</ele><time>2026-04-20T19:38:40.075Z</time><hdop>11.375</hdop><vdop>6.375</vdop><extensions><gom:speed>0.0</gom:speed></extensions></trkpt>
   <trkpt lat="59.0704747869" lon="30.0329408166"><ele>94.4</ele><time>2026-04-20T19:38:41.075Z</time><hdop>11.437</hdop><vdop>6.562</vdop><extensions><gom:speed>0.0</gom:speed></extensions></trkpt>
   <trkpt lat="59.0704747869" lon="30.0329408166"><ele>94.398</ele><time>2026-04-20T19:38:42.075Z</time><hdop>11.5</hdop><vdop>6.875</vdop><extensions><gom:speed>0.0</gom:speed></extensions></trkpt>
   <trkpt lat="59.0704747869" lon="30.0329409842"><ele>94.397</ele><time>2026-04-20T19:38:43.075Z</time><hdop>11.625</hdop><vdop>7.375</vdop><extensions><gom:speed>0.0</gom:speed></extensions></trkpt>
   <trkpt lat="59.0704746612" lon="30.0329409842"><ele>94.397</ele><time>2026-04-20T19:38:44.075Z</time><hdop>11.75</hdop><vdop>7.75</vdop><extensions><gom:speed>0.0</gom:speed></extensions></trkpt>
   <trkpt lat="59.0704746612" lon="30.0329409842"><ele>94.397</ele><time>2026-04-20T19:38:45.075Z</time><hdop>11.875</hdop><vdop>7.75</vdop><extensions><gom:speed>0.0</gom:speed></extensions></trkpt>
   <trkpt lat="59.0704746612" lon="30.032941068"><ele>94.397</ele><time>2026-04-20T19:38:46.075Z</time><hdop>11.937</hdop><vdop>7.5</vdop><extensions><gom:speed>0.0</gom:speed></extensions></trkpt>
   <trkpt lat="59.0704745773" lon="30.032941068"><ele>94.397</ele><time>2026-04-20T19:38:47.075Z</time><hdop>12.062</hdop><vdop>7.562</vdop><extensions><gom:speed>0.0</gom:speed></extensions></trkpt>
   <trkpt lat="59.0704745773" lon="30.0329411518"><ele>94.398</ele><time>2026-04-20T19:38:48.075Z</time><hdop>12.062</hdop><vdop>7.562</vdop><extensions><gom:speed>0.0</gom:speed></extensions></trkpt>
   <trkpt lat="59.0704745773" lon="30.0329411518"><ele>94.397</ele><time>2026-04-20T19:38:49.075Z</time><hdop>12.062</hdop><vdop>7.437</vdop><extensions><gom:speed>0.0</gom:speed></extensions></trkpt>
   <trkpt lat="59.0704744935" lon="30.0329411518"><ele>94.396</ele><time>2026-04-20T19:38:50.075Z</time><hdop>12.0</hdop><vdop>7.312</vdop><extensions><gom:speed>0.0</gom:speed></extensions></trkpt>
   <trkpt lat="59.0704743678" lon="30.032941068"><ele>94.394</ele><time>2026-04-20T19:38:51.075Z</time><hdop>11.875</hdop><vdop>7.125</vdop><extensions><gom:speed>0.0</gom:speed></extensions></trkpt>
   <trkpt lat="59.0704743678" lon="30.032941068"><ele>94.392</ele><time>2026-04-20T19:38:52.075Z</time><hdop>11.812</hdop><vdop>6.937</vdop><extensions><gom:speed>0.0</gom:speed></extensions></trkpt>
   <trkpt lat="59.070474284" lon="30.032941068"><ele>94.389</ele><time>2026-04-20T19:38:53.076Z</time><hdop>11.75</hdop><vdop>6.812</vdop><extensions><gom:speed>0.0</gom:speed></extensions></trkpt>
   <trkpt lat="59.0704741582" lon="30.0329409842"><ele>94.385</ele><time>2026-04-20T19:38:54.075Z</time><hdop>11.625</hdop><vdop>6.625</vdop><extensions><gom:speed>0.0</gom:speed></extensions></trkpt>
   <trkpt lat="59.0704741582" lon="30.0329409842"><ele>94.382</ele><time>2026-04-20T19:38:55.075Z</time><hdop>11.562</hdop><vdop>6.5</vdop><extensions><gom:speed>0.0</gom:speed></extensions></trkpt>
   <trkpt lat="59.0704740744" lon="30.0329408166"><ele>94.379</ele><time>2026-04-20T19:38:56.075Z</time><hdop>11.437</hdop><vdop>6.312</vdop><extensions><gom:speed>0.0</gom:speed></extensions></trkpt>
   <trkpt lat="59.0704740744" lon="30.0329408166"><ele>94.375</ele><time>2026-04-20T19:38:57.075Z</time><hdop>11.375</hdop><vdop>6.312</vdop><extensions><gom:speed>0.0</gom:speed></extensions></trkpt>
   <trkpt lat="59.0704739906" lon="30.0329408166"><ele>94.37</ele><time>2026-04-20T19:38:58.076Z</time><hdop>11.312</hdop><vdop>6.375</vdop><extensions><gom:speed>0.0</gom:speed></extensions></trkpt>
   <trkpt lat="59.0704739906" lon="30.0329407327"><ele>94.365</ele><time>2026-04-20T19:38:59.075Z</time><hdop>11.25</hdop><vdop>6.625</vdop><extensions><gom:speed>0.0</gom:speed></extensions></trkpt>
   <trkpt lat="59.0704738649" lon="30.0329407327"><ele>94.361</ele><time>2026-04-20T19:39:00.076Z</time><hdop>11.187</hdop><vdop>6.437</vdop><extensions><gom:speed>0.0</gom:speed></extensions></trkpt>
   <trkpt lat="59.0704737811" lon="30.0329406489"><ele>94.356</ele><time>2026-04-20T19:39:01.076Z</time><hdop>11.187</hdop><vdop>6.625</vdop><extensions><gom:speed>0.0</gom:speed></extensions></trkpt>
   <trkpt lat="59.0704736972" lon="30.0329406489"><ele>94.354</ele><time>2026-04-20T19:39:02.076Z</time><hdop>11.25</hdop><vdop>7.062</vdop><extensions><gom:speed>0.0</gom:speed></extensions></trkpt>
   <trkpt lat="59.0704736972" lon="30.0329405651"><ele>94.349</ele><time>2026-04-20T19:39:03.075Z</time><hdop>11.25</hdop><vdop>6.937</vdop><extensions><gom:speed>0.0</gom:speed></extensions></trkpt>
   <trkpt lat="59.0704735715" lon="30.0329405651"><ele>94.344</ele><time>2026-04-20T19:39:04.075Z</time><hdop>11.312</hdop><vdop>7.187</vdop><extensions><gom:speed>0.0</gom:speed></extensions></trkpt>
   <trkpt lat="59.0704735715" lon="30.0329404813"><ele>94.34</ele><time>2026-04-20T19:39:05.075Z</time><hdop>11.312</hdop><vdop>7.5</vdop><extensions><gom:speed>0.0</gom:speed></extensions></trkpt>
   <trkpt lat="59.0704734877" lon="30.0329404813"><ele>94.334</ele><time>2026-04-20T19:39:06.075Z</time><hdop>11.437</hdop><vdop>8.062</vdop><extensions><gom:speed>0.0</gom:speed></extensions></trkpt>
   <trkpt lat="59.0704734877" lon="30.0329404813"><ele>94.333</ele><time>2026-04-20T19:39:07.076Z</time><hdop>11.562</hdop><vdop>8.562</vdop><extensions><gom:speed>0.0</gom:speed></extensions></trkpt>
   <trkpt lat="59.070473362" lon="30.0329405651"><ele>94.332</ele><time>2026-04-20T19:39:08.075Z</time><hdop>11.625</hdop><vdop>8.812</vdop><extensions><gom:speed>0.0</gom:speed></extensions></trkpt>
   <trkpt lat="59.070473362" lon="30.0329405651"><ele>94.332</ele><time>2026-04-20T19:39:09.075Z</time><hdop>11.75</hdop><vdop>9.125</vdop><extensions><gom:speed>0.0</gom:speed></extensions></trkpt>
   <trkpt lat="59.070473362" lon="30.0329405651"><ele>94.331</ele><time>2026-04-20T19:39:10.075Z</time><hdop>11.937</hdop><vdop>9.75</vdop><extensions><gom:speed>0.0</gom:speed></extensions></trkpt>
   <trkpt lat="59.070473362" lon="30.0329405651"><ele>94.331</ele><time>2026-04-20T19:39:11.076Z</time><hdop>12.062</hdop><vdop>10.0</vdop><extensions><gom:speed>0.0</gom:speed></extensions></trkpt>
   <trkpt lat="59.070473362" lon="30.0329405651"><ele>94.33</ele><time>2026-04-20T19:39:12.075Z</time><hdop>12.062</hdop><vdop>9.437</vdop><extensions><gom:speed>0.0</gom:speed></extensions></trkpt>
   <trkpt lat="59.0704732781" lon="30.0329405651"><ele>94.329</ele><time>2026-04-20T19:39:13.075Z</time><hdop>12.0</hdop><vdop>9.0</vdop><extensions><gom:speed>0.0</gom:speed></extensions></trkpt>
   <trkpt lat="59.0704732781" lon="30.0329405651"><ele>94.327</ele><time>2026-04-20T19:39:14.075Z</time><hdop>11.937</hdop><vdop>8.625</vdop><extensions><gom:speed>0.0</gom:speed></extensions></trkpt>
   <trkpt lat="59.0704732781" lon="30.0329405651"><ele>94.328</ele><time>2026-04-20T19:39:15.075Z</time><hdop>11.812</hdop><vdop>8.312</vdop><extensions><gom:speed>0.0</gom:speed></extensions></trkpt>
   <trkpt lat="59.0704732781" lon="30.0329405651"><ele>94.328</ele><time>2026-04-20T19:39:16.075Z</time><hdop>11.625</hdop><vdop>8.312</vdop><extensions><gom:speed>0.0</gom:speed></extensions></trkpt>
   <trkpt lat="59.0704732781" lon="30.0329406489"><ele>94.327</ele><time>2026-04-20T19:39:17.076Z</time><hdop>11.437</hdop><vdop>8.562</vdop><extensions><gom:speed>0.0</gom:speed></extensions></trkpt>
   <trkpt lat="59.0704732781" lon="30.0329406489"><ele>94.326</ele><time>2026-04-20T19:39:18.076Z</time><hdop>11.375</hdop><vdop>8.375</vdop><extensions><gom:speed>0.0</gom:speed></extensions></trkpt>
   <trkpt lat="59.0704732781" lon="30.0329406489"><ele>94.324</ele><time>2026-04-20T19:39:19.075Z</time><hdop>11.25</hdop><vdop>8.125</vdop><extensions><gom:speed>0.0</gom:speed></extensions></trkpt>
   <trkpt lat="59.0704732781" lon="30.0329406489"><ele>94.324</ele><time>2026-04-20T19:39:20.075Z</time><hdop>11.187</hdop><vdop>7.937</vdop><extensions><gom:speed>0.0</gom:speed></extensions></trkpt>
   <trkpt lat="59.0704732781" lon="30.0329406489"><ele>94.324</ele><time>2026-04-20T19:39:21.075Z</time><hdop>11.125</hdop><vdop>7.937</vdop><extensions><gom:speed>0.0</gom:speed></extensions></trkpt>
   <trkpt lat="59.0704731943" lon="30.0329406489"><ele>94.323</ele><time>2026-04-20T19:39:22.075Z</time><hdop>11.125</hdop><vdop>7.812</vdop><extensions><gom:speed>0.0</gom:speed></extensions></trkpt>
   <trkpt lat="59.0704731943" lon="30.0329406489"><ele>94.323</ele><time>2026-04-20T19:39:23.075Z</time><hdop>11.0</hdop><vdop>7.562</vdop><extensions><gom:speed>0.0</gom:speed></extensions></trkpt>
   <trkpt lat="59.0704731943" lon="30.0329405651"><ele>94.322</ele><time>2026-04-20T19:39:24.076Z</time><hdop>10.937</hdop><vdop>7.625</vdop><extensions><gom:speed>0.0</gom:speed></extensions></trkpt>
   <trkpt lat="59.0704730686" lon="30.0329405651"><ele>94.32</ele><time>2026-04-20T19:39:25.075Z</time><hdop>10.937</hdop><vdop>7.5</vdop><extensions><gom:speed>0.0</gom:speed></extensions></trkpt>
   <trkpt lat="59.0704730686" lon="30.0329404813"><ele>94.319</ele><time>2026-04-20T19:39:26.075Z</time><hdop>10.875</hdop><vdop>7.562</vdop><extensions><gom:speed>0.0</gom:speed></extensions></trkpt>
   <trkpt lat="59.0704729848" lon="30.0329404813"><ele>94.32</ele><time>2026-04-20T19:39:27.075Z</time><hdop>10.812</hdop><vdop>7.812</vdop><extensions><gom:speed>0.0</gom:speed></extensions></trkpt>
   <trkpt lat="59.0704729848" lon="30.0329403975"><ele>94.319</ele><time>2026-04-20T19:39:28.076Z</time><hdop>10.812</hdop><vdop>8.062</vdop><extensions><gom:speed>0.0</gom:speed></extensions></trkpt>
   <trkpt lat="59.0704729848" lon="30.0329403975"><ele>94.317</ele><time>2026-04-20T19:39:29.075Z</time><hdop>10.875</hdop><vdop>8.312</vdop><extensions><gom:speed>0.0</gom:speed></extensions></trkpt>
   <trkpt lat="59.0704729848" lon="30.0329403975"><ele>94.315</ele><time>2026-04-20T19:39:30.075Z</time><hdop>10.875</hdop><vdop>8.437</vdop><extensions><gom:speed>0.0</gom:speed></extensions></trkpt>
   <trkpt lat="59.0704729848" lon="30.0329403975"><ele>94.313</ele><time>2026-04-20T19:39:31.075Z</time><hdop>11.0</hdop><vdop>8.687</vdop><extensions><gom:speed>0.0</gom:speed></extensions></trkpt>
   <trkpt lat="59.0704729848" lon="30.0329402298"><ele>94.312</ele><time>2026-04-20T19:39:32.075Z</time><hdop>11.062</hdop><vdop>8.75</vdop><extensions><gom:speed>0.0</gom:speed></extensions></trkpt>
   <trkpt lat="59.070472859" lon="30.0329402298"><ele>94.312</ele><time>2026-04-20T19:39:33.075Z</time><hdop>11.187</hdop><vdop>8.875</vdop><extensions><gom:speed>0.0</gom:speed></extensions></trkpt>
   <trkpt lat="59.070472859" lon="30.0329402298"><ele>94.312</ele><time>2026-04-20T19:39:34.075Z</time><hdop>11.312</hdop><vdop>8.562</vdop><extensions><gom:speed>0.0</gom:speed></extensions></trkpt>
   <trkpt lat="59.070472859" lon="30.032940146"><ele>94.312</ele><time>2026-04-20T19:39:35.076Z</time><hdop>11.375</hdop><vdop>8.437</vdop><extensions><gom:speed>0.0</gom:speed></extensions></trkpt>
   <trkpt lat="59.070472859" lon="30.032940146"><ele>94.313</ele><time>2026-04-20T19:39:36.075Z</time><hdop>11.375</hdop><vdop>8.25</vdop><extensions><gom:speed>0.0</gom:speed></extensions></trkpt>
   <trkpt lat="59.070472859" lon="30.032940146"><ele>94.313</ele><time>2026-04-20T19:39:37.075Z</time><hdop>11.375</hdop><vdop>7.812</vdop><extensions><gom:speed>0.0</gom:speed></extensions></trkpt>
   <trkpt lat="59.070472859" lon="30.0329400622"><ele>94.312</ele><time>2026-04-20T19:39:38.075Z</time><hdop>11.312</hdop><vdop>7.687</vdop><extensions><gom:speed>0.0</gom:speed></extensions></trkpt>
   <trkpt lat="59.070472859" lon="30.0329400622"><ele>94.312</ele><time>2026-04-20T19:39:39.075Z</time><hdop>11.25</hdop><vdop>7.437</vdop><extensions><gom:speed>0.0</gom:speed></extensions></trkpt>
   <trkpt lat="59.070472859" lon="30.0329400622"><ele>94.311</ele><time>2026-04-20T19:39:40.076Z</time><hdop>11.187</hdop><vdop>7.25</vdop><extensions><gom:speed>0.0</gom:speed></extensions></trkpt>
   <trkpt lat="59.070472859" lon="30.0329399784"><ele>94.31</ele><time>2026-04-20T19:39:41.075Z</time><hdop>11.125</hdop><vdop>7.312</vdop><extensions><gom:speed>0.0</gom:speed></extensions></trkpt>
   <trkpt lat="59.0704727752" lon="30.0329399784"><ele>94.309</ele><time>2026-04-20T19:39:42.076Z</time><hdop>11.062</hdop><vdop>7.5</vdop><extensions><gom:speed>0.0</gom:speed></extensions></trkpt>
   <trkpt lat="59.0704727752" lon="30.0329399784"><ele>94.308</ele><time>2026-04-20T19:39:43.075Z</time><hdop>11.0</hdop><vdop>7.687</vdop><extensions><gom:speed>0.0</gom:speed></extensions></trkpt>
   <trkpt lat="59.0704727752" lon="30.0329399784"><ele>94.309</ele><time>2026-04-20T19:39:44.075Z</time><hdop>11.0</hdop><vdop>7.875</vdop><extensions><gom:speed>0.0</gom:speed></extensions></trkpt>
   <trkpt lat="59.0704726914" lon="30.0329399784"><ele>94.308</ele><time>2026-04-20T19:39:45.075Z</time><hdop>11.0</hdop><vdop>8.25</vdop><extensions><gom:speed>0.0</gom:speed></extensions></trkpt>
   <trkpt lat="59.0704726914" lon="30.0329399784"><ele>94.306</ele><time>2026-04-20T19:39:46.076Z</time><hdop>11.062</hdop><vdop>8.375</vdop><extensions><gom:speed>0.0</gom:speed></extensions></trkpt>
   <trkpt lat="59.0704725657" lon="30.0329398945"><ele>94.303</ele><time>2026-04-20T19:39:47.075Z</time><hdop>11.062</hdop><vdop>8.312</vdop><extensions><gom:speed>0.0</gom:speed></extensions></trkpt>
   <trkpt lat="59.0704724819" lon="30.0329398945"><ele>94.299</ele><time>2026-04-20T19:39:48.075Z</time><hdop>11.062</hdop><vdop>7.875</vdop><extensions><gom:speed>0.0</gom:speed></extensions></trkpt>
   <trkpt lat="59.070472398" lon="30.0329398945"><ele>94.295</ele><time>2026-04-20T19:39:49.075Z</time><hdop>11.0</hdop><vdop>8.0</vdop><extensions><gom:speed>0.0</gom:speed></extensions></trkpt>
   <trkpt lat="59.070472398" lon="30.0329397269"><ele>94.288</ele><time>2026-04-20T19:39:50.075Z</time><hdop>11.0</hdop><vdop>8.0</vdop><extensions><gom:speed>0.0</gom:speed></extensions></trkpt>
   <trkpt lat="59.0704722723" lon="30.0329397269"><ele>94.283</ele><time>2026-04-20T19:39:51.075Z</time><hdop>10.937</hdop><vdop>8.0</vdop><extensions><gom:speed>0.0</gom:speed></extensions></trkpt>
   <trkpt lat="59.0704722723" lon="30.0329396431"><ele>94.278</ele><time>2026-04-20T19:39:52.076Z</time><hdop>10.875</hdop><vdop>8.25</vdop><extensions><gom:speed>0.0</gom:speed></extensions></trkpt>
   <trkpt lat="59.0704721885" lon="30.0329396431"><ele>94.271</ele><time>2026-04-20T19:39:53.076Z</time><hdop>10.812</hdop><vdop>7.937</vdop><extensions><gom:speed>0.0</gom:speed></extensions></trkpt>
   <trkpt lat="59.0704720628" lon="30.0329396431"><ele>94.267</ele><time>2026-04-20T19:39:54.076Z</time><hdop>10.812</hdop><vdop>7.875</vdop><extensions><gom:speed>0.0</gom:speed></extensions></trkpt>
   <trkpt lat="59.0704720628" lon="30.0329396431"><ele>94.261</ele><time>2026-04-20T19:39:55.075Z</time><hdop>10.75</hdop><vdop>7.375</vdop><extensions><gom:speed>0.0</gom:speed></extensions></trkpt>
   <trkpt lat="59.0704719789" lon="30.0329396431"><ele>94.259</ele><time>2026-04-20T19:39:56.075Z</time><hdop>10.687</hdop><vdop>6.875</vdop><extensions><gom:speed>0.0</gom:speed></extensions></trkpt>
   <trkpt lat="59.0704719789" lon="30.0329395593"><ele>94.255</ele><time>2026-04-20T19:39:57.076Z</time><hdop>10.687</hdop><vdop>6.75</vdop><extensions><gom:speed>0.0</gom:speed></extensions></trkpt>
   <trkpt lat="59.0704718951" lon="30.0329395593"><ele>94.253</ele><time>2026-04-20T19:39:58.075Z</time><hdop>10.625</hdop><vdop>6.687</vdop><extensions><gom:speed>0.0</gom:speed></extensions></trkpt>
   <trkpt lat="59.0704717694" lon="30.0329395593"><ele>94.249</ele><time>2026-04-20T19:39:59.075Z</time><hdop>10.625</hdop><vdop>6.562</vdop><extensions><gom:speed>0.0</gom:speed></extensions></trkpt>
   <trkpt lat="59.0704717694" lon="30.0329395593"><ele>94.245</ele><time>2026-04-20T19:40:00.075Z</time><hdop>10.562</hdop><vdop>6.312</vdop><extensions><gom:speed>0.0</gom:speed></extensions></trkpt>
   <trkpt lat="59.0704716856" lon="30.0329394755"><ele>94.239</ele><time>2026-04-20T19:40:01.075Z</time><hdop>10.562</hdop><vdop>6.187</vdop><extensions><gom:speed>0.0</gom:speed></extensions></trkpt>
   <trkpt lat="59.0704715599" lon="30.0329394755"><ele>94.236</ele><time>2026-04-20T19:40:02.075Z</time><hdop>10.625</hdop><vdop>6.062</vdop><extensions><gom:speed>0.0</gom:speed></extensions></trkpt>
   <trkpt lat="59.070471476" lon="30.0329393916"><ele>94.233</ele><time>2026-04-20T19:40:03.075Z</time><hdop>10.625</hdop><vdop>6.062</vdop><extensions><gom:speed>0.0</gom:speed></extensions></trkpt>
   <trkpt lat="59.0704713922" lon="30.0329393916"><ele>94.233</ele><time>2026-04-20T19:40:04.076Z</time><hdop>10.625</hdop><vdop>5.875</vdop><extensions><gom:speed>0.0</gom:speed></extensions></trkpt>
   <trkpt lat="59.0704712665" lon="30.0329393916"><ele>94.232</ele><time>2026-04-20T19:40:05.076Z</time><hdop>10.687</hdop><vdop>5.812</vdop><extensions><gom:speed>0.0</gom:speed></extensions></trkpt>
   <trkpt lat="59.0704711827" lon="30.032939224"><ele>94.232</ele><time>2026-04-20T19:40:06.075Z</time><hdop>10.75</hdop><vdop>5.812</vdop><extensions><gom:speed>0.0</gom:speed></extensions></trkpt>
   <trkpt lat="59.0704711827" lon="30.032939224"><ele>94.231</ele><time>2026-04-20T19:40:07.076Z</time><hdop>10.812</hdop><vdop>5.812</vdop><extensions><gom:speed>0.0</gom:speed></extensions></trkpt>
   <trkpt lat="59.0704711827" lon="30.032939224"><ele>94.23</ele><time>2026-04-20T19:40:08.075Z</time><hdop>11.0</hdop><vdop>5.812</vdop><extensions><gom:speed>0.0</gom:speed></extensions></trkpt>
   <trkpt lat="59.0704710988" lon="30.032939224"><ele>94.23</ele><time>2026-04-20T19:40:09.076Z</time><hdop>11.25</hdop><vdop>5.875</vdop><extensions><gom:speed>0.0</gom:speed></extensions></trkpt>
   <trkpt lat="59.0704709731" lon="30.032939224"><ele>94.231</ele><time>2026-04-20T19:40:10.075Z</time><hdop>11.625</hdop><vdop>6.0</vdop><extensions><gom:speed>0.0</gom:speed></extensions></trkpt>
   <trkpt lat="59.0704709731" lon="30.0329391402"><ele>94.233</ele><time>2026-04-20T19:40:11.075Z</time><hdop>12.125</hdop><vdop>6.0</vdop><extensions><gom:speed>0.0</gom:speed></extensions></trkpt>
   <trkpt lat="59.0704708893" lon="30.0329391402"><ele>94.236</ele><time>2026-04-20T19:40:12.076Z</time><hdop>12.625</hdop><vdop>5.937</vdop><extensions><gom:speed>0.0</gom:speed></extensions></trkpt>
   <trkpt lat="59.0704707636" lon="30.0329391402"><ele>94.237</ele><time>2026-04-20T19:40:13.075Z</time><hdop>13.187</hdop><vdop>5.812</vdop><extensions><gom:speed>0.0</gom:speed></extensions></trkpt>
   <trkpt lat="59.0704706798" lon="30.0329390564"><ele>94.237</ele><time>2026-04-20T19:40:14.075Z</time><hdop>13.812</hdop><vdop>5.687</vdop><extensions><gom:speed>0.0</gom:speed></extensions></trkpt>
   <trkpt lat="59.0704706798" lon="30.0329390564"><ele>94.237</ele><time>2026-04-20T19:40:15.075Z</time><hdop>14.375</hdop><vdop>5.625</vdop><extensions><gom:speed>0.0</gom:speed></extensions></trkpt>
   <trkpt lat="59.0704705959" lon="30.0329389725"><ele>94.237</ele><time>2026-04-20T19:40:16.076Z</time><hdop>14.875</hdop><vdop>5.437</vdop><extensions><gom:speed>0.0</gom:speed></extensions></trkpt>
   <trkpt lat="59.0704704702" lon="30.0329389725"><ele>94.236</ele><time>2026-04-20T19:40:17.075Z</time><hdop>15.375</hdop><vdop>5.375</vdop><extensions><gom:speed>0.0</gom:speed></extensions></trkpt>
   <trkpt lat="59.0704704702" lon="30.0329389725"><ele>94.234</ele><time>2026-04-20T19:40:18.075Z</time><hdop>15.937</hdop><vdop>5.312</vdop><extensions><gom:speed>0.0</gom:speed></extensions></trkpt>
   <trkpt lat="59.0704704702" lon="30.0329389725"><ele>94.232</ele><time>2026-04-20T19:40:19.075Z</time><hdop>16.625</hdop><vdop>5.375</vdop><extensions><gom:speed>0.0</gom:speed></extensions></trkpt>
   <trkpt lat="59.0704704702" lon="30.0329389725"><ele>94.229</ele><time>2026-04-20T19:40:20.075Z</time><hdop>17.562</hdop><vdop>5.687</vdop><extensions><gom:speed>0.0</gom:speed></extensions></trkpt>
   <trkpt lat="59.0704703864" lon="30.0329389725"><ele>94.228</ele><time>2026-04-20T19:40:21.075Z</time><hdop>18.937</hdop><vdop>6.062</vdop><extensions><gom:speed>0.0</gom:speed></extensions></trkpt>
   <trkpt lat="59.0704703864" lon="30.0329389725"><ele>94.225</ele><time>2026-04-20T19:40:22.075Z</time><hdop>20.437</hdop><vdop>6.375</vdop><extensions><gom:speed>0.0</gom:speed></extensions></trkpt>
   <trkpt lat="59.0704703864" lon="30.0329389725"><ele>94.222</ele><time>2026-04-20T19:40:23.076Z</time><hdop>22.0</hdop><vdop>6.687</vdop><extensions><gom:speed>0.0</gom:speed></extensions></trkpt>
   <trkpt lat="59.0704703864" lon="30.0329389725"><ele>94.221</ele><time>2026-04-20T19:40:24.075Z</time><hdop>23.625</hdop><vdop>6.625</vdop><extensions><gom:speed>0.0</gom:speed></extensions></trkpt>
   <trkpt lat="59.0704702607" lon="30.0329388887"><ele>94.22</ele><time>2026-04-20T19:40:25.075Z</time><hdop>24.875</hdop><vdop>6.437</vdop><extensions><gom:speed>0.0</gom:speed></extensions></trkpt>
   <trkpt lat="59.0704702607" lon="30.0329388887"><ele>94.218</ele><time>2026-04-20T19:40:26.076Z</time><hdop>25.5</hdop><vdop>6.25</vdop><extensions><gom:speed>0.0</gom:speed></extensions></trkpt>
   <trkpt lat="59.0704702607" lon="30.0329388887"><ele>94.217</ele><time>2026-04-20T19:40:27.075Z</time><hdop>25.312</hdop><vdop>6.125</vdop><extensions><gom:speed>0.0</gom:speed></extensions></trkpt>
   <trkpt lat="59.0704702607" lon="30.0329388887"><ele>94.217</ele><time>2026-04-20T19:40:28.075Z</time><hdop>24.812</hdop><vdop>5.812</vdop><extensions><gom:speed>0.0</gom:speed></extensions></trkpt>
   <trkpt lat="59.0704701768" lon="30.0329388887"><ele>94.218</ele><time>2026-04-20T19:40:29.075Z</time><hdop>23.875</hdop><vdop>5.625</vdop><extensions><gom:speed>0.0</gom:speed></extensions></trkpt>
   <trkpt lat="59.0704701768" lon="30.0329388887"><ele>94.22</ele><time>2026-04-20T19:40:30.075Z</time><hdop>22.312</hdop><vdop>5.375</vdop><extensions><gom:speed>0.0</gom:speed></extensions></trkpt>
   <trkpt lat="59.0704701768" lon="30.0329388887"><ele>94.222</ele><time>2026-04-20T19:40:31.075Z</time><hdop>20.812</hdop><vdop>5.187</vdop><extensions><gom:speed>0.0</gom:speed></extensions></trkpt>
   <trkpt lat="59.070470093" lon="30.0329388887"><ele>94.224</ele><time>2026-04-20T19:40:32.075Z</time><hdop>19.625</hdop><vdop>5.25</vdop><extensions><gom:speed>0.0</gom:speed></extensions></trkpt>
   <trkpt lat="59.070470093" lon="30.0329388887"><ele>94.226</ele><time>2026-04-20T19:40:33.075Z</time><hdop>19.0</hdop><vdop>5.437</vdop><extensions><gom:speed>0.0</gom:speed></extensions></trkpt>
   <trkpt lat="59.070470093" lon="30.0329387211"><ele>94.225</ele><time>2026-04-20T19:40:34.075Z</time><hdop>18.687</hdop><vdop>5.625</vdop><extensions><gom:speed>0.0</gom:speed></extensions></trkpt>
   <trkpt lat="59.0704699673" lon="30.0329387211"><ele>94.224</ele><time>2026-04-20T19:40:35.075Z</time><hdop>18.937</hdop><vdop>5.875</vdop><extensions><gom:speed>0.0</gom:speed></extensions></trkpt>
   <trkpt lat="59.0704699673" lon="30.0329387211"><ele>94.222</ele><time>2026-04-20T19:40:36.075Z</time><hdop>19.875</hdop><vdop>6.25</vdop><extensions><gom:speed>0.0</gom:speed></extensions></trkpt>
   <trkpt lat="59.0704698835" lon="30.0329387211"><ele>94.22</ele><time>2026-04-20T19:40:37.075Z</time><hdop>21.562</hdop><vdop>6.937</vdop><extensions><gom:speed>0.0</gom:speed></extensions></trkpt>
   <trkpt lat="59.0704698835" lon="30.0329387211"><ele>94.22</ele><time>2026-04-20T19:40:38.075Z</time><hdop>23.562</hdop><vdop>7.75</vdop><extensions><gom:speed>0.0</gom:speed></extensions></trkpt>
   <trkpt lat="59.0704697997" lon="30.0329387211"><ele>94.221</ele><time>2026-04-20T19:40:39.075Z</time><hdop>25.687</hdop><vdop>8.0</vdop><extensions><gom:speed>0.0</gom:speed></extensions></trkpt>
   <trkpt lat="59.0704697997" lon="30.0329387211"><ele>94.22</ele><time>2026-04-20T19:40:40.075Z</time><hdop>27.812</hdop><vdop>8.187</vdop><extensions><gom:speed>0.0</gom:speed></extensions></trkpt>
   <trkpt lat="59.0704697997" lon="30.0329387211"><ele>94.219</ele><time>2026-04-20T19:40:41.075Z</time><hdop>29.875</hdop><vdop>8.187</vdop><extensions><gom:speed>0.0</gom:speed></extensions></trkpt>
   <trkpt lat="59.0704696739" lon="30.0329387211"><ele>94.22</ele><time>2026-04-20T19:40:42.075Z</time><hdop>31.187</hdop><vdop>7.812</vdop><extensions><gom:speed>0.0</gom:speed></extensions></trkpt>
   <trkpt lat="59.0704696739" lon="30.0329387211"><ele>94.22</ele><time>2026-04-20T19:40:43.076Z</time><hdop>31.687</hdop><vdop>7.375</vdop><extensions><gom:speed>0.0</gom:speed></extensions></trkpt>
   <trkpt lat="59.0704696739" lon="30.0329387211"><ele>94.221</ele><time>2026-04-20T19:40:44.076Z</time><hdop>31.812</hdop><vdop>7.0</vdop><extensions><gom:speed>0.0</gom:speed></extensions></trkpt>
   <trkpt lat="59.0704695901" lon="30.0329386373"><ele>94.221</ele><time>2026-04-20T19:40:45.075Z</time><hdop>31.625</hdop><vdop>6.812</vdop><extensions><gom:speed>0.0</gom:speed></extensions></trkpt>
   <trkpt lat="59.0704695901" lon="30.0329386373"><ele>94.223</ele><time>2026-04-20T19:40:46.075Z</time><hdop>31.437</hdop><vdop>7.062</vdop><extensions><gom:speed>0.0</gom:speed></extensions></trkpt>
   <trkpt lat="59.0704695901" lon="30.0329386373"><ele>94.225</ele><time>2026-04-20T19:40:47.076Z</time><hdop>31.375</hdop><vdop>7.312</vdop><extensions><gom:speed>0.0</gom:speed></extensions></trkpt>
   <trkpt lat="59.0704695901" lon="30.0329387211"><ele>94.229</ele><time>2026-04-20T19:40:48.075Z</time><hdop>30.437</hdop><vdop>6.937</vdop><extensions><gom:speed>0.0</gom:speed></extensions></trkpt>
   <trkpt lat="59.0704694644" lon="30.0329387211"><ele>94.233</ele><time>2026-04-20T19:40:49.075Z</time><hdop>29.5</hdop><vdop>7.0</vdop><extensions><gom:speed>0.0</gom:speed></extensions></trkpt>
   <trkpt lat="59.0704694644" lon="30.0329387211"><ele>94.237</ele><time>2026-04-20T19:40:50.075Z</time><hdop>28.125</hdop><vdop>7.312</vdop><extensions><gom:speed>0.0</gom:speed></extensions></trkpt>
   <trkpt lat="59.0704693806" lon="30.0329387211"><ele>94.241</ele><time>2026-04-20T19:40:51.075Z</time><hdop>26.687</hdop><vdop>7.75</vdop><extensions><gom:speed>0.0</gom:speed></extensions></trkpt>
   <trkpt lat="59.0704693806" lon="30.0329387211"><ele>94.241</ele><time>2026-04-20T19:40:52.076Z</time><hdop>25.312</hdop><vdop>8.0</vdop><extensions><gom:speed>0.0</gom:speed></extensions></trkpt>
   <trkpt lat="59.0704692967" lon="30.0329387211"><ele>94.242</ele><time>2026-04-20T19:40:53.075Z</time><hdop>23.687</hdop><vdop>8.187</vdop><extensions><gom:speed>0.0</gom:speed></extensions></trkpt>
   <trkpt lat="59.0704692967" lon="30.0329387211"><ele>94.242</ele><time>2026-04-20T19:40:54.076Z</time><hdop>23.5</hdop><vdop>8.25</vdop><extensions><gom:speed>0.0</gom:speed></extensions></trkpt>
   <trkpt lat="59.0704692967" lon="30.0329387211"><ele>94.243</ele><time>2026-04-20T19:40:55.075Z</time><hdop>23.687</hdop><vdop>8.375</vdop><extensions><gom:speed>0.0</gom:speed></extensions></trkpt>
   <trkpt lat="59.0704692967" lon="30.0329387211"><ele>94.245</ele><time>2026-04-20T19:40:56.075Z</time><hdop>24.312</hdop><vdop>8.25</vdop><extensions><gom:speed>0.0</gom:speed></extensions></trkpt>
   <trkpt lat="59.0704692967" lon="30.0329388887"><ele>94.248</ele><time>2026-04-20T19:40:57.075Z</time><hdop>24.625</hdop><vdop>7.875</vdop><extensions><gom:speed>0.0</gom:speed></extensions></trkpt>
   <trkpt lat="59.0704692967" lon="30.0329388887"><ele>94.253</ele><time>2026-04-20T19:40:58.076Z</time><hdop>24.5</hdop><vdop>7.75</vdop><extensions><gom:speed>0.0</gom:speed></extensions></trkpt>
   <trkpt lat="59.0704692967" lon="30.0329388887"><ele>94.256</ele><time>2026-04-20T19:40:59.075Z</time><hdop>24.062</hdop><vdop>7.687</vdop><extensions><gom:speed>0.0</gom:speed></extensions></trkpt>
   <trkpt lat="59.070469171" lon="30.0329389725"><ele>94.261</ele><time>2026-04-20T19:41:00.075Z</time><hdop>23.75</hdop><vdop>7.812</vdop><extensions><gom:speed>0.0</gom:speed></extensions></trkpt>
   <trkpt lat="59.070469171" lon="30.0329389725"><ele>94.265</ele><time>2026-04-20T19:41:01.075Z</time><hdop>23.375</hdop><vdop>7.937</vdop><extensions><gom:speed>0.0</gom:speed></extensions></trkpt>
   <trkpt lat="59.070469171" lon="30.0329389725"><ele>94.271</ele><time>2026-04-20T19:41:02.075Z</time><hdop>22.5</hdop><vdop>8.0</vdop><extensions><gom:speed>0.0</gom:speed></extensions></trkpt>
   <trkpt lat="59.070469171" lon="30.0329390564"><ele>94.276</ele><time>2026-04-20T19:41:03.075Z</time><hdop>21.875</hdop><vdop>8.25</vdop><extensions><gom:speed>0.0</gom:speed></extensions></trkpt>
   <trkpt lat="59.0704690872" lon="30.0329390564"><ele>94.282</ele><time>2026-04-20T19:41:04.075Z</time><hdop>21.25</hdop><vdop>7.875</vdop><extensions><gom:speed>0.0</gom:speed></extensions></trkpt>
   <trkpt lat="59.0704690872" lon="30.0329391402"><ele>94.287</ele><time>2026-04-20T19:41:05.075Z</time><hdop>20.625</hdop><vdop>8.125</vdop><extensions><gom:speed>0.0</gom:speed></extensions></trkpt>
   <trkpt lat="59.0704689615" lon="30.0329391402"><ele>94.292</ele><time>2026-04-20T19:41:06.075Z</time><hdop>19.812</hdop><vdop>8.312</vdop><extensions><gom:speed>0.0</gom:speed></extensions></trkpt>
   <trkpt lat="59.0704689615" lon="30.0329391402"><ele>94.297</ele><time>2026-04-20T19:41:07.075Z</time><hdop>19.062</hdop><vdop>8.5</vdop><extensions><gom:speed>0.0</gom:speed></extensions></trkpt>
   <trkpt lat="59.0704689615" lon="30.032939224"><ele>94.303</ele><time>2026-04-20T19:41:08.075Z</time><hdop>18.812</hdop><vdop>8.687</vdop><extensions><gom:speed>0.0</gom:speed></extensions></trkpt>
   <trkpt lat="59.0704688776" lon="30.032939224"><ele>94.308</ele><time>2026-04-20T19:41:09.076Z</time><hdop>18.687</hdop><vdop>9.062</vdop><extensions><gom:speed>0.0</gom:speed></extensions></trkpt>
   <trkpt lat="59.0704688776" lon="30.032939224"><ele>94.314</ele><time>2026-04-20T19:41:10.076Z</time><hdop>18.625</hdop><vdop>9.125</vdop><extensions><gom:speed>0.0</gom:speed></extensions></trkpt>
   <trkpt lat="59.0704688776" lon="30.0329393916"><ele>94.32</ele><time>2026-04-20T19:41:11.075Z</time><hdop>18.875</hdop><vdop>9.562</vdop><extensions><gom:speed>0.0</gom:speed></extensions></trkpt>
   <trkpt lat="59.0704687938" lon="30.0329393916"><ele>94.327</ele><time>2026-04-20T19:41:12.075Z</time><hdop>19.437</hdop><vdop>10.187</vdop><extensions><gom:speed>0.0</gom:speed></extensions></trkpt>
   <trkpt lat="59.0704687938" lon="30.0329393916"><ele>94.332</ele><time>2026-04-20T19:41:13.075Z</time><hdop>20.187</hdop><vdop>10.812</vdop><extensions><gom:speed>0.0</gom:speed></extensions></trkpt>
   <trkpt lat="59.0704686681" lon="30.0329393916"><ele>94.335</ele><time>2026-04-20T19:41:14.075Z</time><hdop>20.812</hdop><vdop>11.0</vdop><extensions><gom:speed>0.0</gom:speed></extensions></trkpt>
   <trkpt lat="59.0704686681" lon="30.0329394755"><ele>94.339</ele><time>2026-04-20T19:41:15.075Z</time><hdop>21.562</hdop><vdop>11.062</vdop><extensions><gom:speed>0.0</gom:speed></extensions></trkpt>
   <trkpt lat="59.0704686681" lon="30.0329394755"><ele>94.343</ele><time>2026-04-20T19:41:16.075Z</time><hdop>22.5</hdop><vdop>11.0</vdop><extensions><gom:speed>0.0</gom:speed></extensions></trkpt>
   <trkpt lat="59.0704685843" lon="30.0329394755"><ele>94.347</ele><time>2026-04-20T19:41:17.075Z</time><hdop>23.375</hdop><vdop>11.125</vdop><extensions><gom:speed>0.0</gom:speed></extensions></trkpt>
   <trkpt lat="59.0704685843" lon="30.0329394755"><ele>94.352</ele><time>2026-04-20T19:41:18.075Z</time><hdop>24.125</hdop><vdop>11.125</vdop><extensions><gom:speed>0.0</gom:speed></extensions></trkpt>
   <trkpt lat="59.0704685843" lon="30.0329394755"><ele>94.355</ele><time>2026-04-20T19:41:19.075Z</time><hdop>24.75</hdop><vdop>11.062</vdop><extensions><gom:speed>0.0</gom:speed></extensions></trkpt>
   <trkpt lat="59.0704684585" lon="30.0329394755"><ele>94.357</ele><time>2026-04-20T19:41:20.075Z</time><hdop>25.5</hdop><vdop>11.062</vdop><extensions><gom:speed>0.0</gom:speed></extensions></trkpt>
   <trkpt lat="59.0704684585" lon="30.0329393916"><ele>94.358</ele><time>2026-04-20T19:41:21.075Z</time><hdop>26.375</hdop><vdop>11.125</vdop><extensions><gom:speed>0.0</gom:speed></extensions></trkpt>
   <trkpt lat="59.0704683747" lon="30.032939224"><ele>94.357</ele><time>2026-04-20T19:41:22.075Z</time><hdop>27.187</hdop><vdop>11.062</vdop><extensions><gom:speed>0.0</gom:speed></extensions></trkpt>
   <trkpt lat="59.0704682909" lon="30.032939224"><ele>94.356</ele><time>2026-04-20T19:41:23.076Z</time><hdop>27.312</hdop><vdop>10.875</vdop><extensions><gom:speed>0.0</gom:speed></extensions></trkpt>
   <trkpt lat="59.0704682909" lon="30.0329391402"><ele>94.356</ele><time>2026-04-20T19:41:24.076Z</time><hdop>27.687</hdop><vdop>11.125</vdop><extensions><gom:speed>0.0</gom:speed></extensions></trkpt>
   <trkpt lat="59.0704681652" lon="30.0329390564"><ele>94.356</ele><time>2026-04-20T19:41:25.075Z</time><hdop>26.937</hdop><vdop>10.687</vdop><extensions><gom:speed>0.0</gom:speed></extensions></trkpt>
   <trkpt lat="59.0704681652" lon="30.0329389725"><ele>94.356</ele><time>2026-04-20T19:41:26.075Z</time><hdop>25.562</hdop><vdop>10.187</vdop><extensions><gom:speed>0.0</gom:speed></extensions></trkpt>
   <trkpt lat="59.0704681652" lon="30.0329389725"><ele>94.357</ele><time>2026-04-20T19:41:27.076Z</time><hdop>23.625</hdop><vdop>9.687</vdop><extensions><gom:speed>0.0</gom:speed></extensions></trkpt>
   <trkpt lat="59.0704681652" lon="30.0329388887"><ele>94.358</ele><time>2026-04-20T19:41:28.076Z</time><hdop>21.375</hdop><vdop>9.187</vdop><extensions><gom:speed>0.0</gom:speed></extensions></trkpt>
   <trkpt lat="59.0704681652" lon="30.0329387211"><ele>94.361</ele><time>2026-04-20T19:41:29.075Z</time><hdop>19.375</hdop><vdop>8.625</vdop><extensions><gom:speed>0.0</gom:speed></extensions></trkpt>
   <trkpt lat="59.0704681652" lon="30.0329387211"><ele>94.363</ele><time>2026-04-20T19:41:30.075Z</time><hdop>17.0</hdop><vdop>8.375</vdop><extensions><gom:speed>0.0</gom:speed></extensions></trkpt>
   <trkpt lat="59.0704680814" lon="30.0329386373"><ele>94.365</ele><time>2026-04-20T19:41:31.076Z</time><hdop>15.562</hdop><vdop>8.875</vdop><extensions><gom:speed>0.0</gom:speed></extensions></trkpt>
   <trkpt lat="59.0704680814" lon="30.0329386373"><ele>94.366</ele><time>2026-04-20T19:41:32.075Z</time><hdop>14.437</hdop><vdop>8.437</vdop><extensions><gom:speed>0.0</gom:speed></extensions></trkpt>
   <trkpt lat="59.0704680814" lon="30.0329385534"><ele>94.367</ele><time>2026-04-20T19:41:33.075Z</time><hdop>13.75</hdop><vdop>8.75</vdop><extensions><gom:speed>0.0</gom:speed></extensions></trkpt>
   <trkpt lat="59.0704679975" lon="30.0329385534"><ele>94.366</ele><time>2026-04-20T19:41:34.075Z</time><hdop>13.187</hdop><vdop>8.062</vdop><extensions><gom:speed>0.0</gom:speed></extensions></trkpt>
   <trkpt lat="59.0704679975" lon="30.0329385534"><ele>94.365</ele><time>2026-04-20T19:41:35.075Z</time><hdop>12.812</hdop><vdop>8.187</vdop><extensions><gom:speed>0.0</gom:speed></extensions></trkpt>
   <trkpt lat="59.0704679975" lon="30.0329385534"><ele>94.365</ele><time>2026-04-20T19:41:36.075Z</time><hdop>12.562</hdop><vdop>8.0</vdop><extensions><gom:speed>0.0</gom:speed></extensions></trkpt>
   <trkpt lat="59.0704679975" lon="30.0329385534"><ele>94.364</ele><time>2026-04-20T19:41:37.075Z</time><hdop>12.25</hdop><vdop>8.187</vdop><extensions><gom:speed>0.0</gom:speed></extensions></trkpt>
   <trkpt lat="59.0704679975" lon="30.0329385534"><ele>94.362</ele><time>2026-04-20T19:41:38.075Z</time><hdop>12.062</hdop><vdop>8.062</vdop><extensions><gom:speed>0.0</gom:speed></extensions></trkpt>
   <trkpt lat="59.0704678718" lon="30.0329385534"><ele>94.361</ele><time>2026-04-20T19:41:39.075Z</time><hdop>11.812</hdop><vdop>7.687</vdop><extensions><gom:speed>0.0</gom:speed></extensions></trkpt>
   <trkpt lat="59.0704678718" lon="30.0329385534"><ele>94.36</ele><time>2026-04-20T19:41:40.075Z</time><hdop>11.562</hdop><vdop>7.312</vdop><extensions><gom:speed>0.0</gom:speed></extensions></trkpt>
   <trkpt lat="59.0704678718" lon="30.0329385534"><ele>94.356</ele><time>2026-04-20T19:41:41.075Z</time><hdop>11.312</hdop><vdop>7.062</vdop><extensions><gom:speed>0.0</gom:speed></extensions></trkpt>
   <trkpt lat="59.070467788" lon="30.0329384696"><ele>94.354</ele><time>2026-04-20T19:41:42.075Z</time><hdop>11.125</hdop><vdop>6.687</vdop><extensions><gom:speed>0.0</gom:speed></extensions></trkpt>
   <trkpt lat="59.070467788" lon="30.0329384696"><ele>94.349</ele><time>2026-04-20T19:41:43.075Z</time><hdop>11.0</hdop><vdop>7.187</vdop><extensions><gom:speed>0.0</gom:speed></extensions></trkpt>
   <trkpt lat="59.0704676623" lon="30.0329383858"><ele>94.345</ele><time>2026-04-20T19:41:44.075Z</time><hdop>10.937</hdop><vdop>7.5</vdop><extensions><gom:speed>0.0</gom:speed></extensions></trkpt>
   <trkpt lat="59.0704676623" lon="30.0329382182"><ele>94.341</ele><time>2026-04-20T19:41:45.075Z</time><hdop>10.875</hdop><vdop>7.75</vdop><extensions><gom:speed>0.0</gom:speed></extensions></trkpt>
   <trkpt lat="59.0704676623" lon="30.0329382182"><ele>94.339</ele><time>2026-04-20T19:41:46.075Z</time><hdop>10.937</hdop><vdop>8.062</vdop><extensions><gom:speed>0.0</gom:speed></extensions></trkpt>
   <trkpt lat="59.0704676623" lon="30.0329381343"><ele>94.335</ele><time>2026-04-20T19:41:47.075Z</time><hdop>11.0</hdop><vdop>8.125</vdop><extensions><gom:speed>0.0</gom:speed></extensions></trkpt>
   <trkpt lat="59.0704676623" lon="30.0329381343"><ele>94.331</ele><time>2026-04-20T19:41:48.075Z</time><hdop>11.062</hdop><vdop>8.187</vdop><extensions><gom:speed>0.0</gom:speed></extensions></trkpt>
   <trkpt lat="59.0704676623" lon="30.0329381343"><ele>94.328</ele><time>2026-04-20T19:41:49.075Z</time><hdop>11.125</hdop><vdop>8.0</vdop><extensions><gom:speed>0.0</gom:speed></extensions></trkpt>
   <trkpt lat="59.0704675784" lon="30.0329380505"><ele>94.324</ele><time>2026-04-20T19:41:50.075Z</time><hdop>11.125</hdop><vdop>8.062</vdop><extensions><gom:speed>0.0</gom:speed></extensions></trkpt>
   <trkpt lat="59.0704676623" lon="30.0329380505"><ele>94.321</ele><time>2026-04-20T19:41:51.075Z</time><hdop>11.062</hdop><vdop>7.687</vdop><extensions><gom:speed>0.0</gom:speed></extensions></trkpt>
   <trkpt lat="59.0704675784" lon="30.0329381343"><ele>94.318</ele><time>2026-04-20T19:41:52.075Z</time><hdop>11.0</hdop><vdop>7.0</vdop><extensions><gom:speed>0.0</gom:speed></extensions></trkpt>
   <trkpt lat="59.0704675784" lon="30.0329381343"><ele>94.318</ele><time>2026-04-20T19:41:53.076Z</time><hdop>10.937</hdop><vdop>6.75</vdop><extensions><gom:speed>0.0</gom:speed></extensions></trkpt>
   <trkpt lat="59.0704675784" lon="30.0329381343"><ele>94.317</ele><time>2026-04-20T19:41:54.076Z</time><hdop>10.812</hdop><vdop>6.562</vdop><extensions><gom:speed>0.0</gom:speed></extensions></trkpt>
   <trkpt lat="59.0704674946" lon="30.0329381343"><ele>94.317</ele><time>2026-04-20T19:41:55.075Z</time><hdop>10.75</hdop><vdop>6.562</vdop><extensions><gom:speed>0.0</gom:speed></extensions></trkpt>
   <trkpt lat="59.0704674946" lon="30.0329381343"><ele>94.318</ele><time>2026-04-20T19:41:56.075Z</time><hdop>10.687</hdop><vdop>6.562</vdop><extensions><gom:speed>0.0</gom:speed></extensions></trkpt>
   <trkpt lat="59.0704674946" lon="30.0329382182"><ele>94.318</ele><time>2026-04-20T19:41:57.075Z</time><hdop>10.625</hdop><vdop>6.5</vdop><extensions><gom:speed>0.0</gom:speed></extensions></trkpt>
   <trkpt lat="59.0704674946" lon="30.0329382182"><ele>94.322</ele><time>2026-04-20T19:41:58.075Z</time><hdop>10.625</hdop><vdop>6.375</vdop><extensions><gom:speed>0.0</gom:speed></extensions></trkpt>
   <trkpt lat="59.0704674946" lon="30.0329383858"><ele>94.326</ele><time>2026-04-20T19:41:59.075Z</time><hdop>10.562</hdop><vdop>6.25</vdop><extensions><gom:speed>0.0</gom:speed></extensions></trkpt>
   <trkpt lat="59.0704673689" lon="30.0329384696"><ele>94.33</ele><time>2026-04-20T19:42:00.076Z</time><hdop>10.562</hdop><vdop>6.062</vdop><extensions><gom:speed>0.0</gom:speed></extensions></trkpt>
   <trkpt lat="59.0704673689" lon="30.0329385534"><ele>94.332</ele><time>2026-04-20T19:42:01.075Z</time><hdop>10.5</hdop><vdop>6.0</vdop><extensions><gom:speed>0.0</gom:speed></extensions></trkpt>
   <trkpt lat="59.0704672851" lon="30.0329387211"><ele>94.342</ele><time>2026-04-20T19:42:02.075Z</time><hdop>10.437</hdop><vdop>5.75</vdop><extensions><gom:speed>0.0</gom:speed></extensions></trkpt>
   <trkpt lat="59.0704672851" lon="30.0329388887"><ele>94.348</ele><time>2026-04-20T19:42:03.075Z</time><hdop>10.437</hdop><vdop>5.75</vdop><extensions><gom:speed>0.0</gom:speed></extensions></trkpt>
   <trkpt lat="59.0704671594" lon="30.0329388887"><ele>94.35</ele><time>2026-04-20T19:42:04.075Z</time><hdop>10.375</hdop><vdop>5.875</vdop><extensions><gom:speed>0.0</gom:speed></extensions></trkpt>
   <trkpt lat="59.0704671594" lon="30.0329388887"><ele>94.355</ele><time>2026-04-20T19:42:05.076Z</time><hdop>10.375</hdop><vdop>5.937</vdop><extensions><gom:speed>0.0</gom:speed></extensions></trkpt>
   <trkpt lat="59.0704670755" lon="30.0329388887"><ele>94.356</ele><time>2026-04-20T19:42:06.076Z</time><hdop>10.375</hdop><vdop>5.625</vdop><extensions><gom:speed>0.0</gom:speed></extensions></trkpt>
   <trkpt lat="59.0704670755" lon="30.0329387211"><ele>94.356</ele><time>2026-04-20T19:42:07.075Z</time><hdop>10.312</hdop><vdop>5.312</vdop><extensions><gom:speed>0.0</gom:speed></extensions></trkpt>
   <trkpt lat="59.0704669917" lon="30.0329387211"><ele>94.355</ele><time>2026-04-20T19:42:08.075Z</time><hdop>10.312</hdop><vdop>5.375</vdop><extensions><gom:speed>0.0</gom:speed></extensions></trkpt>
   <trkpt lat="59.0704669917" lon="30.0329387211"><ele>94.352</ele><time>2026-04-20T19:42:09.075Z</time><hdop>10.312</hdop><vdop>5.437</vdop><extensions><gom:speed>0.0</gom:speed></extensions></trkpt>
   <trkpt lat="59.070466866" lon="30.0329387211"><ele>94.349</ele><time>2026-04-20T19:42:10.075Z</time><hdop>10.375</hdop><vdop>5.5</vdop><extensions><gom:speed>0.0</gom:speed></extensions></trkpt>
   <trkpt lat="59.070466866" lon="30.0329386373"><ele>94.348</ele><time>2026-04-20T19:42:11.075Z</time><hdop>10.375</hdop><vdop>5.562</vdop><extensions><gom:speed>0.0</gom:speed></extensions></trkpt>
   <trkpt lat="59.0704667822" lon="30.0329386373"><ele>94.346</ele><time>2026-04-20T19:42:12.075Z</time><hdop>10.437</hdop><vdop>5.562</vdop><extensions><gom:speed>0.0</gom:speed></extensions></trkpt>
   <trkpt lat="59.0704667822" lon="30.0329385534"><ele>94.343</ele><time>2026-04-20T19:42:13.075Z</time><hdop>10.5</hdop><vdop>5.75</vdop><extensions><gom:speed>0.0</gom:speed></extensions></trkpt>
   <trkpt lat="59.0704667822" lon="30.0329385534"><ele>94.342</ele><time>2026-04-20T19:42:14.075Z</time><hdop>10.625</hdop><vdop>5.937</vdop><extensions><gom:speed>0.0</gom:speed></extensions></trkpt>
   <trkpt lat="59.0704666983" lon="30.0329385534"><ele>94.34</ele><time>2026-04-20T19:42:15.075Z</time><hdop>10.812</hdop><vdop>5.937</vdop><extensions><gom:speed>0.0</gom:speed></extensions></trkpt>
   <trkpt lat="59.0704666983" lon="30.0329385534"><ele>94.337</ele><time>2026-04-20T19:42:16.076Z</time><hdop>10.937</hdop><vdop>6.0</vdop><extensions><gom:speed>0.0</gom:speed></extensions></trkpt>
   <trkpt lat="59.0704665726" lon="30.0329384696"><ele>94.335</ele><time>2026-04-20T19:42:17.075Z</time><hdop>11.125</hdop><vdop>6.0</vdop><extensions><gom:speed>0.0</gom:speed></extensions></trkpt>
   <trkpt lat="59.0704665726" lon="30.0329384696"><ele>94.335</ele><time>2026-04-20T19:42:18.075Z</time><hdop>11.312</hdop><vdop>6.25</vdop><extensions><gom:speed>0.0</gom:speed></extensions></trkpt>
   <trkpt lat="59.0704664888" lon="30.0329383858"><ele>94.334</ele><time>2026-04-20T19:42:19.075Z</time><hdop>11.437</hdop><vdop>6.375</vdop><extensions><gom:speed>0.0</gom:speed></extensions></trkpt>
   <trkpt lat="59.0704663631" lon="30.0329382182"><ele>94.331</ele><time>2026-04-20T19:42:20.075Z</time><hdop>11.562</hdop><vdop>6.562</vdop><extensions><gom:speed>0.0</gom:speed></extensions></trkpt>
   <trkpt lat="59.0704662793" lon="30.0329382182"><ele>94.329</ele><time>2026-04-20T19:42:21.075Z</time><hdop>11.625</hdop><vdop>6.5</vdop><extensions><gom:speed>0.0</gom:speed></extensions></trkpt>
   <trkpt lat="59.0704661954" lon="30.0329381343"><ele>94.327</ele><time>2026-04-20T19:42:22.075Z</time><hdop>11.687</hdop><vdop>6.625</vdop><extensions><gom:speed>0.0</gom:speed></extensions></trkpt>
   <trkpt lat="59.0704661954" lon="30.0329379667"><ele>94.326</ele><time>2026-04-20T19:42:23.076Z</time><hdop>11.687</hdop><vdop>6.687</vdop><extensions><gom:speed>0.0</gom:speed></extensions></trkpt>
   <trkpt lat="59.0704660697" lon="30.0329379667"><ele>94.324</ele><time>2026-04-20T19:42:24.075Z</time><hdop>11.75</hdop><vdop>6.625</vdop><extensions><gom:speed>0.0</gom:speed></extensions></trkpt>
   <trkpt lat="59.0704659859" lon="30.0329378829"><ele>94.322</ele><time>2026-04-20T19:42:25.075Z</time><hdop>11.875</hdop><vdop>6.625</vdop><extensions><gom:speed>0.0</gom:speed></extensions></trkpt>
   <trkpt lat="59.0704659859" lon="30.0329378829"><ele>94.321</ele><time>2026-04-20T19:42:26.075Z</time><hdop>11.937</hdop><vdop>6.437</vdop><extensions><gom:speed>0.0</gom:speed></extensions></trkpt>
   <trkpt lat="59.0704658602" lon="30.0329377991"><ele>94.32</ele><time>2026-04-20T19:42:27.075Z</time><hdop>12.0</hdop><vdop>6.312</vdop><extensions><gom:speed>0.0</gom:speed></extensions></trkpt>
   <trkpt lat="59.0704658602" lon="30.0329377991"><ele>94.318</ele><time>2026-04-20T19:42:28.075Z</time><hdop>12.125</hdop><vdop>6.312</vdop><extensions><gom:speed>0.0</gom:speed></extensions></trkpt>
   <trkpt lat="59.0704658602" lon="30.0329377991"><ele>94.316</ele><time>2026-04-20T19:42:29.076Z</time><hdop>12.125</hdop><vdop>6.437</vdop><extensions><gom:speed>0.0</gom:speed></extensions></trkpt>
   <trkpt lat="59.0704657763" lon="30.0329377991"><ele>94.314</ele><time>2026-04-20T19:42:30.075Z</time><hdop>12.062</hdop><vdop>6.5</vdop><extensions><gom:speed>0.0</gom:speed></extensions></trkpt>
   <trkpt lat="59.0704657763" lon="30.0329376314"><ele>94.314</ele><time>2026-04-20T19:42:31.076Z</time><hdop>12.062</hdop><vdop>6.562</vdop><extensions><gom:speed>0.0</gom:speed></extensions></trkpt>
   <trkpt lat="59.0704656925" lon="30.0329376314"><ele>94.314</ele><time>2026-04-20T19:42:32.075Z</time><hdop>12.0</hdop><vdop>6.625</vdop><extensions><gom:speed>0.0</gom:speed></extensions></trkpt>
   <trkpt lat="59.0704655668" lon="30.0329375476"><ele>94.313</ele><time>2026-04-20T19:42:33.075Z</time><hdop>11.812</hdop><vdop>6.375</vdop><extensions><gom:speed>0.0</gom:speed></extensions></trkpt>
   <trkpt lat="59.070465483" lon="30.0329374638"><ele>94.314</ele><time>2026-04-20T19:42:34.075Z</time><hdop>11.687</hdop><vdop>6.5</vdop><extensions><gom:speed>0.0</gom:speed></extensions></trkpt>
   <trkpt lat="59.0704653992" lon="30.0329374638"><ele>94.315</ele><time>2026-04-20T19:42:35.076Z</time><hdop>11.562</hdop><vdop>6.25</vdop><extensions><gom:speed>0.0</gom:speed></extensions></trkpt>
   <trkpt lat="59.0704652734" lon="30.03293738"><ele>94.315</ele><time>2026-04-20T19:42:36.075Z</time><hdop>11.437</hdop><vdop>6.062</vdop><extensions><gom:speed>0.0</gom:speed></extensions></trkpt>
   <trkpt lat="59.0704651896" lon="30.03293738"><ele>94.316</ele><time>2026-04-20T19:42:37.075Z</time><hdop>11.312</hdop><vdop>6.375</vdop><extensions><gom:speed>0.0</gom:speed></extensions></trkpt>
   <trkpt lat="59.0704650639" lon="30.0329372962"><ele>94.315</ele><time>2026-04-20T19:42:38.075Z</time><hdop>11.187</hdop><vdop>6.062</vdop><extensions><gom:speed>0.0</gom:speed></extensions></trkpt>
   <trkpt lat="59.0704650639" lon="30.0329372962"><ele>94.315</ele><time>2026-04-20T19:42:39.076Z</time><hdop>11.062</hdop><vdop>6.125</vdop><extensions><gom:speed>0.0</gom:speed></extensions></trkpt>
   <trkpt lat="59.0704649801" lon="30.0329372962"><ele>94.314</ele><time>2026-04-20T19:42:40.076Z</time><hdop>10.937</hdop><vdop>5.937</vdop><extensions><gom:speed>0.0</gom:speed></extensions></trkpt>
   <trkpt lat="59.0704648962" lon="30.0329372962"><ele>94.312</ele><time>2026-04-20T19:42:41.075Z</time><hdop>10.812</hdop><vdop>5.75</vdop><extensions><gom:speed>0.0</gom:speed></extensions></trkpt>
   <trkpt lat="59.0704648962" lon="30.0329371285"><ele>94.311</ele><time>2026-04-20T19:42:42.075Z</time><hdop>10.75</hdop><vdop>5.562</vdop><extensions><gom:speed>0.0</gom:speed></extensions></trkpt>
   <trkpt lat="59.0704647705" lon="30.0329371285"><ele>94.31</ele><time>2026-04-20T19:42:43.075Z</time><hdop>10.625</hdop><vdop>5.437</vdop><extensions><gom:speed>0.0</gom:speed></extensions></trkpt>
   <trkpt lat="59.0704646867" lon="30.0329371285"><ele>94.309</ele><time>2026-04-20T19:42:44.075Z</time><hdop>10.562</hdop><vdop>5.562</vdop><extensions><gom:speed>0.0</gom:speed></extensions></trkpt>
   <trkpt lat="59.070464561" lon="30.0329370447"><ele>94.31</ele><time>2026-04-20T19:42:45.075Z</time><hdop>10.5</hdop><vdop>5.562</vdop><extensions><gom:speed>0.0</gom:speed></extensions></trkpt>
   <trkpt lat="59.0704644771" lon="30.0329369609"><ele>94.309</ele><time>2026-04-20T19:42:46.076Z</time><hdop>10.437</hdop><vdop>5.562</vdop><extensions><gom:speed>0.0</gom:speed></extensions></trkpt>
   <trkpt lat="59.0704643933" lon="30.0329369609"><ele>94.313</ele><time>2026-04-20T19:42:47.075Z</time><hdop>10.375</hdop><vdop>5.687</vdop><extensions><gom:speed>0.0</gom:speed></extensions></trkpt>
   <trkpt lat="59.0704642676" lon="30.0329369609"><ele>94.315</ele><time>2026-04-20T19:42:48.075Z</time><hdop>10.375</hdop><vdop>5.812</vdop><extensions><gom:speed>0.0</gom:speed></extensions></trkpt>
   <trkpt lat="59.0704641838" lon="30.0329369609"><ele>94.315</ele><time>2026-04-20T19:42:49.076Z</time><hdop>10.375</hdop><vdop>6.25</vdop><extensions><gom:speed>0.0</gom:speed></extensions></trkpt>
   <trkpt lat="59.0704641838" lon="30.0329369609"><ele>94.313</ele><time>2026-04-20T19:42:50.075Z</time><hdop>10.375</hdop><vdop>6.375</vdop><extensions><gom:speed>0.0</gom:speed></extensions></trkpt>
   <trkpt lat="59.070464058" lon="30.0329368771"><ele>94.31</ele><time>2026-04-20T19:42:51.075Z</time><hdop>10.437</hdop><vdop>6.5</vdop><extensions><gom:speed>0.0</gom:speed></extensions></trkpt>
   <trkpt lat="59.0704639742" lon="30.0329368771"><ele>94.307</ele><time>2026-04-20T19:42:52.075Z</time><hdop>10.437</hdop><vdop>6.625</vdop><extensions><gom:speed>0.0</gom:speed></extensions></trkpt>
   <trkpt lat="59.0704639742" lon="30.0329368771"><ele>94.301</ele><time>2026-04-20T19:42:53.076Z</time><hdop>10.5</hdop><vdop>6.625</vdop><extensions><gom:speed>0.0</gom:speed></extensions></trkpt>
   <trkpt lat="59.0704638904" lon="30.0329367932"><ele>94.296</ele><time>2026-04-20T19:42:54.075Z</time><hdop>10.5</hdop><vdop>6.625</vdop><extensions><gom:speed>0.0</gom:speed></extensions></trkpt>
   <trkpt lat="59.0704637647" lon="30.0329366256"><ele>94.29</ele><time>2026-04-20T19:42:55.075Z</time><hdop>10.562</hdop><vdop>6.75</vdop><extensions><gom:speed>0.0</gom:speed></extensions></trkpt>
   <trkpt lat="59.0704637647" lon="30.0329366256"><ele>94.284</ele><time>2026-04-20T19:42:56.075Z</time><hdop>10.562</hdop><vdop>6.875</vdop><extensions><gom:speed>0.0</gom:speed></extensions></trkpt>
   <trkpt lat="59.0704637647" lon="30.0329365418"><ele>94.276</ele><time>2026-04-20T19:42:57.075Z</time><hdop>10.625</hdop><vdop>7.0</vdop><extensions><gom:speed>0.0</gom:speed></extensions></trkpt>
   <trkpt lat="59.0704637647" lon="30.0329365418"><ele>94.271</ele><time>2026-04-20T19:42:58.075Z</time><hdop>10.625</hdop><vdop>6.875</vdop><extensions><gom:speed>0.0</gom:speed></extensions></trkpt>
   <trkpt lat="59.0704636809" lon="30.0329365418"><ele>94.265</ele><time>2026-04-20T19:42:59.075Z</time><hdop>10.687</hdop><vdop>6.937</vdop><extensions><gom:speed>0.0</gom:speed></extensions></trkpt>
   <trkpt lat="59.0704636809" lon="30.032936458"><ele>94.263</ele><time>2026-04-20T19:43:00.075Z</time><hdop>10.75</hdop><vdop>7.0</vdop><extensions><gom:speed>0.0</gom:speed></extensions></trkpt>
   <trkpt lat="59.070463597" lon="30.032936458"><ele>94.259</ele><time>2026-04-20T19:43:01.075Z</time><hdop>10.75</hdop><vdop>7.0</vdop><extensions><gom:speed>0.0</gom:speed></extensions></trkpt>
   <trkpt lat="59.070463597" lon="30.032936458"><ele>94.258</ele><time>2026-04-20T19:43:02.075Z</time><hdop>10.812</hdop><vdop>7.0</vdop><extensions><gom:speed>0.0</gom:speed></extensions></trkpt>
   <trkpt lat="59.070463597" lon="30.0329363741"><ele>94.254</ele><time>2026-04-20T19:43:03.075Z</time><hdop>10.875</hdop><vdop>7.187</vdop><extensions><gom:speed>0.0</gom:speed></extensions></trkpt>
   <trkpt lat="59.0704634713" lon="30.0329363741"><ele>94.25</ele><time>2026-04-20T19:43:04.075Z</time><hdop>10.937</hdop><vdop>7.0</vdop><extensions><gom:speed>0.0</gom:speed></extensions></trkpt>
   <trkpt lat="59.0704633875" lon="30.0329362903"><ele>94.243</ele><time>2026-04-20T19:43:05.075Z</time><hdop>11.0</hdop><vdop>7.062</vdop><extensions><gom:speed>0.0</gom:speed></extensions></trkpt>
   <trkpt lat="59.0704633875" lon="30.0329361227"><ele>94.239</ele><time>2026-04-20T19:43:06.075Z</time><hdop>11.062</hdop><vdop>6.875</vdop><extensions><gom:speed>0.0</gom:speed></extensions></trkpt>
   <trkpt lat="59.0704632618" lon="30.0329361227"><ele>94.237</ele><time>2026-04-20T19:43:07.075Z</time><hdop>11.062</hdop><vdop>6.812</vdop><extensions><gom:speed>0.0</gom:speed></extensions></trkpt>
   <trkpt lat="59.0704632618" lon="30.0329360389"><ele>94.235</ele><time>2026-04-20T19:43:08.075Z</time><hdop>11.062</hdop><vdop>6.937</vdop><extensions><gom:speed>0.0</gom:speed></extensions></trkpt>
   <trkpt lat="59.0704632618" lon="30.0329360389"><ele>94.236</ele><time>2026-04-20T19:43:09.075Z</time><hdop>11.0</hdop><vdop>7.0</vdop><extensions><gom:speed>0.0</gom:speed></extensions></trkpt>
   <trkpt lat="59.0704631779" lon="30.0329360389"><ele>94.235</ele><time>2026-04-20T19:43:10.075Z</time><hdop>10.937</hdop><vdop>6.625</vdop><extensions><gom:speed>0.0</gom:speed></extensions></trkpt>
   <trkpt lat="59.0704630941" lon="30.0329359551"><ele>94.241</ele><time>2026-04-20T19:43:11.075Z</time><hdop>10.875</hdop><vdop>6.437</vdop><extensions><gom:speed>0.0</gom:speed></extensions></trkpt>
   <trkpt lat="59.0704630941" lon="30.0329359551"><ele>94.244</ele><time>2026-04-20T19:43:12.075Z</time><hdop>10.875</hdop><vdop>6.312</vdop><extensions><gom:speed>0.0</gom:speed></extensions></trkpt>
   <trkpt lat="59.0704630941" lon="30.0329358712"><ele>94.244</ele><time>2026-04-20T19:43:13.076Z</time><hdop>10.875</hdop><vdop>6.125</vdop><extensions><gom:speed>0.0</gom:speed></extensions></trkpt>
   <trkpt lat="59.0704629684" lon="30.0329358712"><ele>94.244</ele><time>2026-04-20T19:43:14.075Z</time><hdop>10.812</hdop><vdop>6.062</vdop><extensions><gom:speed>0.0</gom:speed></extensions></trkpt>
   <trkpt lat="59.0704629684" lon="30.0329357874"><ele>94.243</ele><time>2026-04-20T19:43:15.076Z</time><hdop>10.812</hdop><vdop>5.75</vdop><extensions><gom:speed>0.0</gom:speed></extensions></trkpt>
   <trkpt lat="59.0704628846" lon="30.0329356198"><ele>94.241</ele><time>2026-04-20T19:43:16.075Z</time><hdop>10.812</hdop><vdop>5.75</vdop><extensions><gom:speed>0.0</gom:speed></extensions></trkpt>
   <trkpt lat="59.0704628846" lon="30.0329356198"><ele>94.237</ele><time>2026-04-20T19:43:17.075Z</time><hdop>10.75</hdop><vdop>5.875</vdop><extensions><gom:speed>0.0</gom:speed></extensions></trkpt>
   <trkpt lat="59.0704627589" lon="30.032935536"><ele>94.235</ele><time>2026-04-20T19:43:18.075Z</time><hdop>10.75</hdop><vdop>6.0</vdop><extensions><gom:speed>0.0</gom:speed></extensions></trkpt>
   <trkpt lat="59.0704627589" lon="30.0329354521"><ele>94.234</ele><time>2026-04-20T19:43:19.076Z</time><hdop>10.75</hdop><vdop>5.75</vdop><extensions><gom:speed>0.0</gom:speed></extensions></trkpt>
   <trkpt lat="59.0704627589" lon="30.0329353683"><ele>94.229</ele><time>2026-04-20T19:43:20.075Z</time><hdop>10.75</hdop><vdop>5.625</vdop><extensions><gom:speed>0.0</gom:speed></extensions></trkpt>
   <trkpt lat="59.0704625912" lon="30.0329353683"><ele>94.23</ele><time>2026-04-20T19:43:21.075Z</time><hdop>10.75</hdop><vdop>5.687</vdop><extensions><gom:speed>0.0</gom:speed></extensions></trkpt>
   <trkpt lat="59.0704625912" lon="30.0329352845"><ele>94.23</ele><time>2026-04-20T19:43:22.075Z</time><hdop>10.75</hdop><vdop>5.5</vdop><extensions><gom:speed>0.0</gom:speed></extensions></trkpt>
   <trkpt lat="59.0704624655" lon="30.0329351169"><ele>94.228</ele><time>2026-04-20T19:43:23.075Z</time><hdop>10.75</hdop><vdop>5.437</vdop><extensions><gom:speed>0.0</gom:speed></extensions></trkpt>
   <trkpt lat="59.0704623817" lon="30.0329351169"><ele>94.226</ele><time>2026-04-20T19:43:24.076Z</time><hdop>10.687</hdop><vdop>5.312</vdop><extensions><gom:speed>0.0</gom:speed></extensions></trkpt>
   <trkpt lat="59.0704623817" lon="30.032935033"><ele>94.224</ele><time>2026-04-20T19:43:25.075Z</time><hdop>10.687</hdop><vdop>5.312</vdop><extensions><gom:speed>0.0</gom:speed></extensions></trkpt>
   <trkpt lat="59.0704622978" lon="30.0329348654"><ele>94.22</ele><time>2026-04-20T19:43:26.075Z</time><hdop>10.687</hdop><vdop>5.437</vdop><extensions><gom:speed>0.0</gom:speed></extensions></trkpt>
   <trkpt lat="59.0704621721" lon="30.0329347816"><ele>94.217</ele><time>2026-04-20T19:43:27.075Z</time><hdop>10.687</hdop><vdop>5.625</vdop><extensions><gom:speed>0.0</gom:speed></extensions></trkpt>
   <trkpt lat="59.0704621721" lon="30.0329347816"><ele>94.214</ele><time>2026-04-20T19:43:28.075Z</time><hdop>10.687</hdop><vdop>5.75</vdop><extensions><gom:speed>0.0</gom:speed></extensions></trkpt>
   <trkpt lat="59.0704619626" lon="30.0329346978"><ele>94.21</ele><time>2026-04-20T19:43:29.075Z</time><hdop>10.687</hdop><vdop>5.875</vdop><extensions><gom:speed>0.0</gom:speed></extensions></trkpt>
   <trkpt lat="59.0704618788" lon="30.0329345301"><ele>94.207</ele><time>2026-04-20T19:43:30.076Z</time><hdop>10.75</hdop><vdop>6.25</vdop><extensions><gom:speed>0.0</gom:speed></extensions></trkpt>
   <trkpt lat="59.0704617949" lon="30.0329344463"><ele>94.203</ele><time>2026-04-20T19:43:31.075Z</time><hdop>10.812</hdop><vdop>6.562</vdop><extensions><gom:speed>0.0</gom:speed></extensions></trkpt>
   <trkpt lat="59.0704616692" lon="30.0329344463"><ele>94.199</ele><time>2026-04-20T19:43:32.075Z</time><hdop>10.875</hdop><vdop>6.625</vdop><extensions><gom:speed>0.0</gom:speed></extensions></trkpt>
   <trkpt lat="59.0704615854" lon="30.0329343625"><ele>94.197</ele><time>2026-04-20T19:43:33.075Z</time><hdop>10.937</hdop><vdop>6.562</vdop><extensions><gom:speed>0.0</gom:speed></extensions></trkpt>
   <trkpt lat="59.0704615854" lon="30.0329343625"><ele>94.195</ele><time>2026-04-20T19:43:34.075Z</time><hdop>11.0</hdop><vdop>6.875</vdop><extensions><gom:speed>0.0</gom:speed></extensions></trkpt>
   <trkpt lat="59.0704614597" lon="30.0329342787"><ele>94.194</ele><time>2026-04-20T19:43:35.076Z</time><hdop>11.062</hdop><vdop>6.875</vdop><extensions><gom:speed>0.0</gom:speed></extensions></trkpt>
   <trkpt lat="59.0704613758" lon="30.0329342787"><ele>94.19</ele><time>2026-04-20T19:43:36.076Z</time><hdop>11.125</hdop><vdop>6.75</vdop><extensions><gom:speed>0.0</gom:speed></extensions></trkpt>
   <trkpt lat="59.070461292" lon="30.0329341949"><ele>94.185</ele><time>2026-04-20T19:43:37.076Z</time><hdop>11.125</hdop><vdop>6.687</vdop><extensions><gom:speed>0.0</gom:speed></extensions></trkpt>
   <trkpt lat="59.070461292" lon="30.0329341949"><ele>94.179</ele><time>2026-04-20T19:43:38.075Z</time><hdop>11.125</hdop><vdop>6.687</vdop><extensions><gom:speed>0.0</gom:speed></extensions></trkpt>
   <trkpt lat="59.0704611663" lon="30.0329340272"><ele>94.174</ele><time>2026-04-20T19:43:39.075Z</time><hdop>11.125</hdop><vdop>6.687</vdop><extensions><gom:speed>0.0</gom:speed></extensions></trkpt>
   <trkpt lat="59.0704610825" lon="30.0329339434"><ele>94.167</ele><time>2026-04-20T19:43:40.076Z</time><hdop>11.062</hdop><vdop>6.687</vdop><extensions><gom:speed>0.0</gom:speed></extensions></trkpt>
   <trkpt lat="59.0704609987" lon="30.0329339434"><ele>94.16</ele><time>2026-04-20T19:43:41.075Z</time><hdop>11.0</hdop><vdop>6.687</vdop><extensions><gom:speed>0.0</gom:speed></extensions></trkpt>
   <trkpt lat="59.0704608729" lon="30.0329338596"><ele>94.154</ele><time>2026-04-20T19:43:42.075Z</time><hdop>10.937</hdop><vdop>6.562</vdop><extensions><gom:speed>0.0</gom:speed></extensions></trkpt>
   <trkpt lat="59.0704607891" lon="30.0329337758"><ele>94.148</ele><time>2026-04-20T19:43:43.075Z</time><hdop>10.937</hdop><vdop>6.687</vdop><extensions><gom:speed>0.0</gom:speed></extensions></trkpt>
   <trkpt lat="59.0704606634" lon="30.0329336919"><ele>94.14</ele><time>2026-04-20T19:43:44.076Z</time><hdop>10.875</hdop><vdop>6.625</vdop><extensions><gom:speed>0.0</gom:speed></extensions></trkpt>
   <trkpt lat="59.0704605796" lon="30.0329335243"><ele>94.132</ele><time>2026-04-20T19:43:45.075Z</time><hdop>10.812</hdop><vdop>6.437</vdop><extensions><gom:speed>0.0</gom:speed></extensions></trkpt>
   <trkpt lat="59.0704604957" lon="30.0329335243"><ele>94.128</ele><time>2026-04-20T19:43:46.076Z</time><hdop>10.75</hdop><vdop>6.437</vdop><extensions><gom:speed>0.0</gom:speed></extensions></trkpt>
   <trkpt lat="59.07046037" lon="30.0329334405"><ele>94.121</ele><time>2026-04-20T19:43:47.075Z</time><hdop>10.687</hdop><vdop>6.312</vdop><extensions><gom:speed>0.0</gom:speed></extensions></trkpt>
   <trkpt lat="59.0704602862" lon="30.0329334405"><ele>94.116</ele><time>2026-04-20T19:43:48.075Z</time><hdop>10.687</hdop><vdop>6.5</vdop><extensions><gom:speed>0.0</gom:speed></extensions></trkpt>
   <trkpt lat="59.0704601605" lon="30.0329334405"><ele>94.115</ele><time>2026-04-20T19:43:49.075Z</time><hdop>10.625</hdop><vdop>6.562</vdop><extensions><gom:speed>0.0</gom:speed></extensions></trkpt>
   <trkpt lat="59.0704600766" lon="30.0329335243"><ele>94.115</ele><time>2026-04-20T19:43:50.075Z</time><hdop>10.562</hdop><vdop>6.562</vdop><extensions><gom:speed>0.0</gom:speed></extensions></trkpt>
   <trkpt lat="59.0704599928" lon="30.0329335243"><ele>94.112</ele><time>2026-04-20T19:43:51.075Z</time><hdop>10.562</hdop><vdop>6.437</vdop><extensions><gom:speed>0.0</gom:speed></extensions></trkpt>
   <trkpt lat="59.0704598671" lon="30.0329335243"><ele>94.109</ele><time>2026-04-20T19:43:52.075Z</time><hdop>10.5</hdop><vdop>6.437</vdop><extensions><gom:speed>0.0</gom:speed></extensions></trkpt>
   <trkpt lat="59.0704597833" lon="30.0329334405"><ele>94.105</ele><time>2026-04-20T19:43:53.075Z</time><hdop>10.5</hdop><vdop>6.312</vdop><extensions><gom:speed>0.0</gom:speed></extensions></trkpt>
   <trkpt lat="59.0704596995" lon="30.0329334405"><ele>94.101</ele><time>2026-04-20T19:43:54.075Z</time><hdop>10.5</hdop><vdop>6.187</vdop><extensions><gom:speed>0.0</gom:speed></extensions></trkpt>
   <trkpt lat="59.0704595737" lon="30.0329334405"><ele>94.097</ele><time>2026-04-20T19:43:55.076Z</time><hdop>10.5</hdop><vdop>5.937</vdop><extensions><gom:speed>0.0</gom:speed></extensions></trkpt>
   <trkpt lat="59.0704594899" lon="30.0329334405"><ele>94.096</ele><time>2026-04-20T19:43:56.075Z</time><hdop>10.5</hdop><vdop>5.937</vdop><extensions><gom:speed>0.0</gom:speed></extensions></trkpt>
   <trkpt lat="59.0704594899" lon="30.0329334405"><ele>94.094</ele><time>2026-04-20T19:43:57.075Z</time><hdop>10.5</hdop><vdop>6.0</vdop><extensions><gom:speed>0.0</gom:speed></extensions></trkpt>
   <trkpt lat="59.0704593642" lon="30.0329334405"><ele>94.093</ele><time>2026-04-20T19:43:58.075Z</time><hdop>10.5</hdop><vdop>5.937</vdop><extensions><gom:speed>0.0</gom:speed></extensions></trkpt>
   <trkpt lat="59.0704592804" lon="30.0329334405"><ele>94.091</ele><time>2026-04-20T19:43:59.075Z</time><hdop>10.5</hdop><vdop>6.0</vdop><extensions><gom:speed>0.0</gom:speed></extensions></trkpt>
   <trkpt lat="59.0704592804" lon="30.0329334405"><ele>94.091</ele><time>2026-04-20T19:44:00.075Z</time><hdop>10.562</hdop><vdop>6.312</vdop><extensions><gom:speed>0.0</gom:speed></extensions></trkpt>
   <trkpt lat="59.0704591965" lon="30.0329334405"><ele>94.09</ele><time>2026-04-20T19:44:01.075Z</time><hdop>10.687</hdop><vdop>6.875</vdop><extensions><gom:speed>0.0</gom:speed></extensions></trkpt>
   <trkpt lat="59.0704590708" lon="30.0329335243"><ele>94.089</ele><time>2026-04-20T19:44:02.075Z</time><hdop>10.75</hdop><vdop>6.812</vdop><extensions><gom:speed>0.0</gom:speed></extensions></trkpt>
   <trkpt lat="59.070458987" lon="30.0329335243"><ele>94.086</ele><time>2026-04-20T19:44:03.075Z</time><hdop>10.687</hdop><vdop>6.562</vdop><extensions><gom:speed>0.0</gom:speed></extensions></trkpt>
   <trkpt lat="59.0704588613" lon="30.0329335243"><ele>94.084</ele><time>2026-04-20T19:44:04.076Z</time><hdop>10.687</hdop><vdop>6.437</vdop><extensions><gom:speed>0.0</gom:speed></extensions></trkpt>
   <trkpt lat="59.0704588613" lon="30.0329334405"><ele>94.081</ele><time>2026-04-20T19:44:05.075Z</time><hdop>10.625</hdop><vdop>6.312</vdop><extensions><gom:speed>0.0</gom:speed></extensions></trkpt>
   <trkpt lat="59.0704587774" lon="30.0329334405"><ele>94.077</ele><time>2026-04-20T19:44:06.075Z</time><hdop>10.5</hdop><vdop>6.125</vdop><extensions><gom:speed>0.0</gom:speed></extensions></trkpt>
   <trkpt lat="59.0704586936" lon="30.0329333567"><ele>94.071</ele><time>2026-04-20T19:44:07.075Z</time><hdop>10.437</hdop><vdop>5.937</vdop><extensions><gom:speed>0.0</gom:speed></extensions></trkpt>
   <trkpt lat="59.0704585679" lon="30.0329333567"><ele>94.067</ele><time>2026-04-20T19:44:08.075Z</time><hdop>10.312</hdop><vdop>5.5</vdop><extensions><gom:speed>0.0</gom:speed></extensions></trkpt>
   <trkpt lat="59.0704584841" lon="30.0329332728"><ele>94.062</ele><time>2026-04-20T19:44:09.076Z</time><hdop>10.25</hdop><vdop>5.312</vdop><extensions><gom:speed>0.0</gom:speed></extensions></trkpt>
   <trkpt lat="59.0704583584" lon="30.0329332728"><ele>94.056</ele><time>2026-04-20T19:44:10.075Z</time><hdop>10.187</hdop><vdop>5.25</vdop><extensions><gom:speed>0.0</gom:speed></extensions></trkpt>
   <trkpt lat="59.0704582745" lon="30.0329332728"><ele>94.052</ele><time>2026-04-20T19:44:11.076Z</time><hdop>10.125</hdop><vdop>5.312</vdop><extensions><gom:speed>0.0</gom:speed></extensions></trkpt>
   <trkpt lat="59.0704581907" lon="30.0329332728"><ele>94.047</ele><time>2026-04-20T19:44:12.075Z</time><hdop>10.125</hdop><vdop>5.125</vdop><extensions><gom:speed>0.0</gom:speed></extensions></trkpt>
   <trkpt lat="59.070458065" lon="30.0329332728"><ele>94.044</ele><time>2026-04-20T19:44:13.075Z</time><hdop>10.125</hdop><vdop>5.0</vdop><extensions><gom:speed>0.0</gom:speed></extensions></trkpt>
   <trkpt lat="59.0704579812" lon="30.0329332728"><ele>94.04</ele><time>2026-04-20T19:44:14.075Z</time><hdop>10.125</hdop><vdop>5.0</vdop><extensions><gom:speed>0.0</gom:speed></extensions></trkpt>
   <trkpt lat="59.0704579812" lon="30.0329333567"><ele>94.038</ele><time>2026-04-20T19:44:15.075Z</time><hdop>10.125</hdop><vdop>4.812</vdop><extensions><gom:speed>0.0</gom:speed></extensions></trkpt>
   <trkpt lat="59.0704577716" lon="30.0329333567"><ele>94.034</ele><time>2026-04-20T19:44:16.076Z</time><hdop>10.125</hdop><vdop>4.875</vdop><extensions><gom:speed>0.0</gom:speed></extensions></trkpt>
   <trkpt lat="59.0704577716" lon="30.0329334405"><ele>94.029</ele><time>2026-04-20T19:44:17.075Z</time><hdop>10.125</hdop><vdop>4.875</vdop><extensions><gom:speed>0.0</gom:speed></extensions></trkpt>
   <trkpt lat="59.0704576878" lon="30.0329335243"><ele>94.025</ele><time>2026-04-20T19:44:18.075Z</time><hdop>10.125</hdop><vdop>4.875</vdop><extensions><gom:speed>0.0</gom:speed></extensions></trkpt>
   <trkpt lat="59.0704575621" lon="30.0329335243"><ele>94.021</ele><time>2026-04-20T19:44:19.075Z</time><hdop>10.125</hdop><vdop>4.937</vdop><extensions><gom:speed>0.0</gom:speed></extensions></trkpt>
   <trkpt lat="59.0704574783" lon="30.0329335243"><ele>94.017</ele><time>2026-04-20T19:44:20.075Z</time><hdop>10.125</hdop><vdop>5.125</vdop><extensions><gom:speed>0.0</gom:speed></extensions></trkpt>
   <trkpt lat="59.0704573944" lon="30.0329335243"><ele>94.013</ele><time>2026-04-20T19:44:21.075Z</time><hdop>10.187</hdop><vdop>5.437</vdop><extensions><gom:speed>0.0</gom:speed></extensions></trkpt>
   <trkpt lat="59.0704572687" lon="30.0329335243"><ele>94.009</ele><time>2026-04-20T19:44:22.076Z</time><hdop>10.312</hdop><vdop>5.687</vdop><extensions><gom:speed>0.0</gom:speed></extensions></trkpt>
   <trkpt lat="59.0704571849" lon="30.0329336919"><ele>94.005</ele><time>2026-04-20T19:44:23.076Z</time><hdop>10.375</hdop><vdop>5.687</vdop><extensions><gom:speed>0.0</gom:speed></extensions></trkpt>
   <trkpt lat="59.0704571849" lon="30.0329336919"><ele>94.0</ele><time>2026-04-20T19:44:24.075Z</time><hdop>10.437</hdop><vdop>5.75</vdop><extensions><gom:speed>0.0</gom:speed></extensions></trkpt>
   <trkpt lat="59.0704570592" lon="30.0329336919"><ele>93.995</ele><time>2026-04-20T19:44:25.075Z</time><hdop>10.562</hdop><vdop>5.625</vdop><extensions><gom:speed>0.0</gom:speed></extensions></trkpt>
   <trkpt lat="59.0704569753" lon="30.0329337758"><ele>93.99</ele><time>2026-04-20T19:44:26.075Z</time><hdop>10.562</hdop><vdop>5.5</vdop><extensions><gom:speed>0.0</gom:speed></extensions></trkpt>
   <trkpt lat="59.0704568915" lon="30.0329337758"><ele>93.985</ele><time>2026-04-20T19:44:27.075Z</time><hdop>10.562</hdop><vdop>5.562</vdop><extensions><gom:speed>0.0</gom:speed></extensions></trkpt>
   <trkpt lat="59.0704568915" lon="30.0329338596"><ele>93.98</ele><time>2026-04-20T19:44:28.075Z</time><hdop>10.562</hdop><vdop>5.687</vdop><extensions><gom:speed>0.0</gom:speed></extensions></trkpt>
   <trkpt lat="59.0704567658" lon="30.0329338596"><ele>93.976</ele><time>2026-04-20T19:44:29.075Z</time><hdop>10.562</hdop><vdop>5.812</vdop><extensions><gom:speed>0.0</gom:speed></extensions></trkpt>
   <trkpt lat="59.070456682" lon="30.0329338596"><ele>93.974</ele><time>2026-04-20T19:44:30.075Z</time><hdop>10.562</hdop><vdop>5.625</vdop><extensions><gom:speed>0.0</gom:speed></extensions></trkpt>
   <trkpt lat="59.0704564724" lon="30.0329339434"><ele>93.973</ele><time>2026-04-20T19:44:31.075Z</time><hdop>10.625</hdop><vdop>5.75</vdop><extensions><gom:speed>0.0</gom:speed></extensions></trkpt>
   <trkpt lat="59.0704563886" lon="30.0329340272"><ele>93.974</ele><time>2026-04-20T19:44:32.075Z</time><hdop>10.687</hdop><vdop>5.937</vdop><extensions><gom:speed>0.0</gom:speed></extensions></trkpt>
   <trkpt lat="59.0704562629" lon="30.0329341949"><ele>93.975</ele><time>2026-04-20T19:44:33.076Z</time><hdop>10.75</hdop><vdop>6.062</vdop><extensions><gom:speed>0.0</gom:speed></extensions></trkpt>
   <trkpt lat="59.0704561791" lon="30.0329342787"><ele>93.978</ele><time>2026-04-20T19:44:34.075Z</time><hdop>10.875</hdop><vdop>6.375</vdop><extensions><gom:speed>0.0</gom:speed></extensions></trkpt>
   <trkpt lat="59.0704560952" lon="30.0329343625"><ele>93.979</ele><time>2026-04-20T19:44:35.075Z</time><hdop>11.0</hdop><vdop>6.687</vdop><extensions><gom:speed>0.0</gom:speed></extensions></trkpt>
   <trkpt lat="59.0704558857" lon="30.0329344463"><ele>93.979</ele><time>2026-04-20T19:44:36.075Z</time><hdop>11.125</hdop><vdop>6.812</vdop><extensions><gom:speed>0.0</gom:speed></extensions></trkpt>
   <trkpt lat="59.0704556761" lon="30.0329345301"><ele>93.977</ele><time>2026-04-20T19:44:37.075Z</time><hdop>11.187</hdop><vdop>6.562</vdop><extensions><gom:speed>0.0</gom:speed></extensions></trkpt>
   <trkpt lat="59.0704555923" lon="30.0329346978"><ele>93.975</ele><time>2026-04-20T19:44:38.075Z</time><hdop>11.312</hdop><vdop>6.687</vdop><extensions><gom:speed>0.0</gom:speed></extensions></trkpt>
   <trkpt lat="59.0704554666" lon="30.0329347816"><ele>93.973</ele><time>2026-04-20T19:44:39.075Z</time><hdop>11.437</hdop><vdop>6.875</vdop><extensions><gom:speed>0.0</gom:speed></extensions></trkpt>
   <trkpt lat="59.0704553828" lon="30.0329348654"><ele>93.971</ele><time>2026-04-20T19:44:40.076Z</time><hdop>11.5</hdop><vdop>7.0</vdop><extensions><gom:speed>0.0</gom:speed></extensions></trkpt>
   <trkpt lat="59.070455299" lon="30.0329348654"><ele>93.971</ele><time>2026-04-20T19:44:41.075Z</time><hdop>11.562</hdop><vdop>7.0</vdop><extensions><gom:speed>0.0</gom:speed></extensions></trkpt>
   <trkpt lat="59.0704551732" lon="30.0329349492"><ele>93.968</ele><time>2026-04-20T19:44:42.075Z</time><hdop>11.562</hdop><vdop>7.0</vdop><extensions><gom:speed>0.0</gom:speed></extensions></trkpt>
   <trkpt lat="59.0704550894" lon="30.032935033"><ele>93.967</ele><time>2026-04-20T19:44:43.075Z</time><hdop>11.625</hdop><vdop>6.812</vdop><extensions><gom:speed>0.0</gom:speed></extensions></trkpt>
   <trkpt lat="59.0704550894" lon="30.032935033"><ele>93.964</ele><time>2026-04-20T19:44:44.075Z</time><hdop>11.625</hdop><vdop>6.75</vdop><extensions><gom:speed>0.0</gom:speed></extensions></trkpt>
   <trkpt lat="59.0704549637" lon="30.0329351169"><ele>93.963</ele><time>2026-04-20T19:44:45.075Z</time><hdop>11.562</hdop><vdop>6.5</vdop><extensions><gom:speed>0.0</gom:speed></extensions></trkpt>
   <trkpt lat="59.0704548799" lon="30.0329352845"><ele>93.962</ele><time>2026-04-20T19:44:46.076Z</time><hdop>11.437</hdop><vdop>6.062</vdop><extensions><gom:speed>0.0</gom:speed></extensions></trkpt>
   <trkpt lat="59.0704548799" lon="30.0329353683"><ele>93.962</ele><time>2026-04-20T19:44:47.075Z</time><hdop>11.312</hdop><vdop>5.937</vdop><extensions><gom:speed>0.0</gom:speed></extensions></trkpt>
   <trkpt lat="59.070454796" lon="30.0329354521"><ele>93.958</ele><time>2026-04-20T19:44:48.075Z</time><hdop>11.125</hdop><vdop>5.937</vdop><extensions><gom:speed>0.0</gom:speed></extensions></trkpt>
   <trkpt lat="59.0704546703" lon="30.032935536"><ele>93.957</ele><time>2026-04-20T19:44:49.075Z</time><hdop>11.0</hdop><vdop>6.375</vdop><extensions><gom:speed>0.0</gom:speed></extensions></trkpt>
   <trkpt lat="59.0704544608" lon="30.0329357874"><ele>93.962</ele><time>2026-04-20T19:44:50.075Z</time><hdop>10.875</hdop><vdop>6.625</vdop><extensions><gom:speed>0.0</gom:speed></extensions></trkpt>
   <trkpt lat="59.0704542931" lon="30.0329359551"><ele>93.963</ele><time>2026-04-20T19:44:51.075Z</time><hdop>10.812</hdop><vdop>7.0</vdop><extensions><gom:speed>0.0</gom:speed></extensions></trkpt>
   <trkpt lat="59.0704541674" lon="30.0329360389"><ele>93.962</ele><time>2026-04-20T19:44:52.075Z</time><hdop>10.875</hdop><vdop>7.187</vdop><extensions><gom:speed>0.0</gom:speed></extensions></trkpt>
   <trkpt lat="59.0704540836" lon="30.0329361227"><ele>93.963</ele><time>2026-04-20T19:44:53.076Z</time><hdop>10.937</hdop><vdop>7.312</vdop><extensions><gom:speed>0.0</gom:speed></extensions></trkpt>
   <trkpt lat="59.0704539998" lon="30.0329362903"><ele>93.961</ele><time>2026-04-20T19:44:54.075Z</time><hdop>11.0</hdop><vdop>7.312</vdop><extensions><gom:speed>0.0</gom:speed></extensions></trkpt>
   <trkpt lat="59.070453874" lon="30.0329363741"><ele>93.958</ele><time>2026-04-20T19:44:55.075Z</time><hdop>11.062</hdop><vdop>7.312</vdop><extensions><gom:speed>0.0</gom:speed></extensions></trkpt>
   <trkpt lat="59.0704537902" lon="30.032936458"><ele>93.954</ele><time>2026-04-20T19:44:56.075Z</time><hdop>11.062</hdop><vdop>7.125</vdop><extensions><gom:speed>0.0</gom:speed></extensions></trkpt>
   <trkpt lat="59.0704536645" lon="30.0329365418"><ele>93.952</ele><time>2026-04-20T19:44:57.075Z</time><hdop>11.062</hdop><vdop>6.687</vdop><extensions><gom:speed>0.0</gom:speed></extensions></trkpt>
   <trkpt lat="59.0704535807" lon="30.0329365418"><ele>93.951</ele><time>2026-04-20T19:44:58.076Z</time><hdop>11.0</hdop><vdop>6.562</vdop><extensions><gom:speed>0.0</gom:speed></extensions></trkpt>
   <trkpt lat="59.0704534968" lon="30.0329367932"><ele>93.949</ele><time>2026-04-20T19:44:59.075Z</time><hdop>10.937</hdop><vdop>6.625</vdop><extensions><gom:speed>0.0</gom:speed></extensions></trkpt>
   <trkpt lat="59.0704533711" lon="30.0329368771"><ele>93.946</ele><time>2026-04-20T19:45:00.075Z</time><hdop>10.875</hdop><vdop>6.812</vdop><extensions><gom:speed>0.0</gom:speed></extensions></trkpt>
   <trkpt lat="59.0704531616" lon="30.0329370447"><ele>93.948</ele><time>2026-04-20T19:45:01.075Z</time><hdop>10.812</hdop><vdop>6.937</vdop><extensions><gom:speed>0.0</gom:speed></extensions></trkpt>
   <trkpt lat="59.0704529939" lon="30.0329372962"><ele>93.951</ele><time>2026-04-20T19:45:02.075Z</time><hdop>10.75</hdop><vdop>7.062</vdop><extensions><gom:speed>0.0</gom:speed></extensions></trkpt>
   <trkpt lat="59.0704528682" lon="30.03293738"><ele>93.954</ele><time>2026-04-20T19:45:03.075Z</time><hdop>10.812</hdop><vdop>7.187</vdop><extensions><gom:speed>0.0</gom:speed></extensions></trkpt>
   <trkpt lat="59.0704526587" lon="30.0329375476"><ele>93.958</ele><time>2026-04-20T19:45:04.075Z</time><hdop>10.812</hdop><vdop>7.312</vdop><extensions><gom:speed>0.0</gom:speed></extensions></trkpt>
   <trkpt lat="59.070452491" lon="30.0329377991"><ele>93.963</ele><time>2026-04-20T19:45:05.075Z</time><hdop>10.812</hdop><vdop>7.375</vdop><extensions><gom:speed>0.0</gom:speed></extensions></trkpt>
   <trkpt lat="59.0704523653" lon="30.0329379667"><ele>93.967</ele><time>2026-04-20T19:45:06.076Z</time><hdop>10.812</hdop><vdop>7.5</vdop><extensions><gom:speed>0.0</gom:speed></extensions></trkpt>
   <trkpt lat="59.0704521977" lon="30.0329381343"><ele>93.975</ele><time>2026-04-20T19:45:07.075Z</time><hdop>10.875</hdop><vdop>7.562</vdop><extensions><gom:speed>0.0</gom:speed></extensions></trkpt>
   <trkpt lat="59.0704519881" lon="30.0329383858"><ele>93.988</ele><time>2026-04-20T19:45:08.075Z</time><hdop>10.875</hdop><vdop>7.312</vdop><extensions><gom:speed>0.0</gom:speed></extensions></trkpt>
   <trkpt lat="59.0704517786" lon="30.0329386373"><ele>94.003</ele><time>2026-04-20T19:45:09.075Z</time><hdop>10.875</hdop><vdop>7.562</vdop><extensions><gom:speed>0.0</gom:speed></extensions></trkpt>
   <trkpt lat="59.0704516947" lon="30.0329388887"><ele>94.014</ele><time>2026-04-20T19:45:10.075Z</time><hdop>10.875</hdop><vdop>7.562</vdop><extensions><gom:speed>0.0</gom:speed></extensions></trkpt>
   <trkpt lat="59.070451569" lon="30.0329389725"><ele>94.024</ele><time>2026-04-20T19:45:11.075Z</time><hdop>10.875</hdop><vdop>7.5</vdop><extensions><gom:speed>0.0</gom:speed></extensions></trkpt>
   <trkpt lat="59.0704514852" lon="30.0329391402"><ele>94.028</ele><time>2026-04-20T19:45:12.075Z</time><hdop>10.875</hdop><vdop>7.25</vdop><extensions><gom:speed>0.0</gom:speed></extensions></trkpt>
   <trkpt lat="59.0704513595" lon="30.032939224"><ele>94.03</ele><time>2026-04-20T19:45:13.075Z</time><hdop>10.875</hdop><vdop>7.187</vdop><extensions><gom:speed>0.0</gom:speed></extensions></trkpt>
   <trkpt lat="59.0704512756" lon="30.0329394755"><ele>94.033</ele><time>2026-04-20T19:45:14.075Z</time><hdop>10.875</hdop><vdop>6.937</vdop><extensions><gom:speed>0.0</gom:speed></extensions></trkpt>
   <trkpt lat="59.0704511918" lon="30.0329396431"><ele>94.034</ele><time>2026-04-20T19:45:15.075Z</time><hdop>10.875</hdop><vdop>6.812</vdop><extensions><gom:speed>0.0</gom:speed></extensions></trkpt>
   <trkpt lat="59.0704510661" lon="30.0329398945"><ele>94.037</ele><time>2026-04-20T19:45:16.075Z</time><hdop>10.812</hdop><vdop>6.562</vdop><extensions><gom:speed>0.0</gom:speed></extensions></trkpt>
   <trkpt lat="59.0704508985" lon="30.0329400622"><ele>94.037</ele><time>2026-04-20T19:45:17.076Z</time><hdop>10.75</hdop><vdop>6.312</vdop><extensions><gom:speed>0.0</gom:speed></extensions></trkpt>
   <trkpt lat="59.0704507727" lon="30.0329402298"><ele>94.038</ele><time>2026-04-20T19:45:18.076Z</time><hdop>10.687</hdop><vdop>6.312</vdop><extensions><gom:speed>0.0</gom:speed></extensions></trkpt>
   <trkpt lat="59.0704506889" lon="30.0329404813"><ele>94.036</ele><time>2026-04-20T19:45:19.075Z</time><hdop>10.625</hdop><vdop>6.375</vdop><extensions><gom:speed>0.0</gom:speed></extensions></trkpt>
   <trkpt lat="59.0704505632" lon="30.0329406489"><ele>94.037</ele><time>2026-04-20T19:45:20.075Z</time><hdop>10.625</hdop><vdop>6.312</vdop><extensions><gom:speed>0.0</gom:speed></extensions></trkpt>
   <trkpt lat="59.0704504794" lon="30.0329407327"><ele>94.038</ele><time>2026-04-20T19:45:21.075Z</time><hdop>10.562</hdop><vdop>6.437</vdop><extensions><gom:speed>0.0</gom:speed></extensions></trkpt>
   <trkpt lat="59.0704503955" lon="30.0329409842"><ele>94.039</ele><time>2026-04-20T19:45:22.075Z</time><hdop>10.625</hdop><vdop>6.375</vdop><extensions><gom:speed>0.0</gom:speed></extensions></trkpt>
   <trkpt lat="59.0704502698" lon="30.0329411518"><ele>94.039</ele><time>2026-04-20T19:45:23.075Z</time><hdop>10.625</hdop><vdop>6.625</vdop><extensions><gom:speed>0.0</gom:speed></extensions></trkpt>
   <trkpt lat="59.0704502698" lon="30.0329413195"><ele>94.039</ele><time>2026-04-20T19:45:24.076Z</time><hdop>10.687</hdop><vdop>6.687</vdop><extensions><gom:speed>0.0</gom:speed></extensions></trkpt>
   <trkpt lat="59.070450186" lon="30.0329414871"><ele>94.039</ele><time>2026-04-20T19:45:25.075Z</time><hdop>10.75</hdop><vdop>6.875</vdop><extensions><gom:speed>0.0</gom:speed></extensions></trkpt>
   <trkpt lat="59.0704500603" lon="30.0329416547"><ele>94.039</ele><time>2026-04-20T19:45:26.076Z</time><hdop>10.875</hdop><vdop>7.062</vdop><extensions><gom:speed>0.0</gom:speed></extensions></trkpt>
   <trkpt lat="59.0704499764" lon="30.03294199"><ele>94.042</ele><time>2026-04-20T19:45:27.075Z</time><hdop>10.937</hdop><vdop>7.125</vdop><extensions><gom:speed>0.0</gom:speed></extensions></trkpt>
   <trkpt lat="59.0704498926" lon="30.0329421577"><ele>94.045</ele><time>2026-04-20T19:45:28.075Z</time><hdop>11.0</hdop><vdop>7.125</vdop><extensions><gom:speed>0.0</gom:speed></extensions></trkpt>
   <trkpt lat="59.0704497669" lon="30.0329424929"><ele>94.049</ele><time>2026-04-20T19:45:29.075Z</time><hdop>11.062</hdop><vdop>7.25</vdop><extensions><gom:speed>0.0</gom:speed></extensions></trkpt>
   <trkpt lat="59.0704496831" lon="30.0329426606"><ele>94.052</ele><time>2026-04-20T19:45:30.075Z</time><hdop>11.125</hdop><vdop>7.437</vdop><extensions><gom:speed>0.0</gom:speed></extensions></trkpt>
   <trkpt lat="59.0704495993" lon="30.0329428282"><ele>94.052</ele><time>2026-04-20T19:45:31.075Z</time><hdop>11.187</hdop><vdop>7.687</vdop><extensions><gom:speed>0.0</gom:speed></extensions></trkpt>
   <trkpt lat="59.0704494735" lon="30.0329431635"><ele>94.055</ele><time>2026-04-20T19:45:32.076Z</time><hdop>11.25</hdop><vdop>7.812</vdop><extensions><gom:speed>0.0</gom:speed></extensions></trkpt>
   <trkpt lat="59.0704493897" lon="30.0329434988"><ele>94.056</ele><time>2026-04-20T19:45:33.075Z</time><hdop>11.312</hdop><vdop>7.937</vdop><extensions><gom:speed>0.0</gom:speed></extensions></trkpt>
   <trkpt lat="59.0704491802" lon="30.0329436664"><ele>94.054</ele><time>2026-04-20T19:45:34.075Z</time><hdop>11.437</hdop><vdop>8.187</vdop><extensions><gom:speed>0.0</gom:speed></extensions></trkpt>
   <trkpt lat="59.0704428937" lon="30.0329979811"><ele>91.852</ele><time>2026-04-20T19:45:35.075Z</time><hdop>11.437</hdop><vdop>7.5</vdop><extensions><gom:speed>0.0</gom:speed></extensions></trkpt>
   <trkpt lat="59.0704412593" lon="30.0330442492"><ele>89.142</ele><time>2026-04-20T19:45:36.075Z</time><hdop>11.375</hdop><vdop>6.875</vdop><extensions><gom:speed>0.309</gom:speed></extensions></trkpt>
   <trkpt lat="59.0704386609" lon="30.0330757652"><ele>86.308</ele><time>2026-04-20T19:45:37.076Z</time><hdop>11.25</hdop><vdop>6.25</vdop><extensions><gom:speed>0.349</gom:speed></extensions></trkpt>
   <trkpt lat="59.0704405887" lon="30.0331024197"><ele>84.903</ele><time>2026-04-20T19:45:38.075Z</time><hdop>11.125</hdop><vdop>5.562</vdop><extensions><gom:speed>0.0</gom:speed></extensions></trkpt>
   <trkpt lat="59.0704461627" lon="30.0331246317"><ele>82.804</ele><time>2026-04-20T19:45:39.075Z</time><hdop>11.0</hdop><vdop>5.187</vdop><extensions><gom:speed>0.0</gom:speed></extensions></trkpt>
   <trkpt lat="59.0704532873" lon="30.0331447483"><ele>81.152</ele><time>2026-04-20T19:45:40.075Z</time><hdop>10.75</hdop><vdop>5.125</vdop><extensions><gom:speed>0.0</gom:speed></extensions></trkpt>
   <trkpt lat="59.0704611663" lon="30.0331645296"><ele>79.738</ele><time>2026-04-20T19:45:41.075Z</time><hdop>10.687</hdop><vdop>5.062</vdop><extensions><gom:speed>0.0</gom:speed></extensions></trkpt>
   <trkpt lat="59.0704705959" lon="30.0331852329"><ele>78.424</ele><time>2026-04-20T19:45:42.076Z</time><hdop>10.625</hdop><vdop>5.125</vdop><extensions><gom:speed>0.159</gom:speed></extensions></trkpt>
   <trkpt lat="59.0704936881" lon="30.0332260527"><ele>77.293</ele><time>2026-04-20T19:45:43.075Z</time><hdop>10.812</hdop><vdop>9.812</vdop><extensions><gom:speed>0.0</gom:speed></extensions></trkpt>
   <trkpt lat="59.0705083983" lon="30.0332494382"><ele>76.333</ele><time>2026-04-20T19:45:44.075Z</time><hdop>11.0</hdop><vdop>9.687</vdop><extensions><gom:speed>0.0</gom:speed></extensions></trkpt>
   <trkpt lat="59.0705160678" lon="30.0332647771"><ele>75.759</ele><time>2026-04-20T19:45:45.075Z</time><hdop>11.25</hdop><vdop>9.625</vdop><extensions><gom:speed>0.0</gom:speed></extensions></trkpt>
   <trkpt lat="59.070520594" lon="30.0332754221"><ele>75.433</ele><time>2026-04-20T19:45:46.076Z</time><hdop>11.437</hdop><vdop>9.312</vdop><extensions><gom:speed>0.0</gom:speed></extensions></trkpt>
   <trkpt lat="59.0705232762" lon="30.033284726"><ele>75.075</ele><time>2026-04-20T19:45:47.075Z</time><hdop>11.625</hdop><vdop>8.812</vdop><extensions><gom:speed>0.0</gom:speed></extensions></trkpt>
   <trkpt lat="59.0705247849" lon="30.0332915992"><ele>74.722</ele><time>2026-04-20T19:45:48.075Z</time><hdop>11.75</hdop><vdop>8.625</vdop><extensions><gom:speed>0.0</gom:speed></extensions></trkpt>
   <trkpt lat="59.0705254974" lon="30.0332964607"><ele>74.266</ele><time>2026-04-20T19:45:49.075Z</time><hdop>11.687</hdop><vdop>8.5</vdop><extensions><gom:speed>0.0</gom:speed></extensions></trkpt>
   <trkpt lat="59.0705252878" lon="30.033300484"><ele>74.034</ele><time>2026-04-20T19:45:50.075Z</time><hdop>11.562</hdop><vdop>8.062</vdop><extensions><gom:speed>0.0</gom:speed></extensions></trkpt>
   <trkpt lat="59.0705243658" lon="30.0333013222"><ele>73.902</ele><time>2026-04-20T19:45:51.076Z</time><hdop>11.437</hdop><vdop>7.5</vdop><extensions><gom:speed>0.0</gom:speed></extensions></trkpt>
   <trkpt lat="59.0705223961" lon="30.0333031662"><ele>73.787</ele><time>2026-04-20T19:45:52.075Z</time><hdop>11.375</hdop><vdop>7.187</vdop><extensions><gom:speed>0.0</gom:speed></extensions></trkpt>
   <trkpt lat="59.070518289" lon="30.0333043397"><ele>73.86</ele><time>2026-04-20T19:45:53.075Z</time><hdop>11.25</hdop><vdop>6.875</vdop><extensions><gom:speed>0.0</gom:speed></extensions></trkpt>
   <trkpt lat="59.0705150619" lon="30.0333059323"><ele>73.967</ele><time>2026-04-20T19:45:54.075Z</time><hdop>11.125</hdop><vdop>6.5</vdop><extensions><gom:speed>0.0</gom:speed></extensions></trkpt>
   <trkpt lat="59.0705120864" lon="30.0333071895"><ele>74.152</ele><time>2026-04-20T19:45:55.075Z</time><hdop>11.0</hdop><vdop>6.062</vdop><extensions><gom:speed>0.0</gom:speed></extensions></trkpt>
   <trkpt lat="59.0705091946" lon="30.033308363"><ele>74.363</ele><time>2026-04-20T19:45:56.076Z</time><hdop>10.875</hdop><vdop>5.75</vdop><extensions><gom:speed>0.0</gom:speed></extensions></trkpt>
   <trkpt lat="59.0705073925" lon="30.0333086983"><ele>74.49</ele><time>2026-04-20T19:45:57.075Z</time><hdop>10.75</hdop><vdop>5.812</vdop><extensions><gom:speed>0.0</gom:speed></extensions></trkpt>
   <trkpt lat="59.0705063867" lon="30.0333086983"><ele>74.583</ele><time>2026-04-20T19:45:58.075Z</time><hdop>10.687</hdop><vdop>5.75</vdop><extensions><gom:speed>0.0</gom:speed></extensions></trkpt>
   <trkpt lat="59.070505297" lon="30.0333087821"><ele>74.689</ele><time>2026-04-20T19:45:59.075Z</time><hdop>10.562</hdop><vdop>5.625</vdop><extensions><gom:speed>0.0</gom:speed></extensions></trkpt>
   <trkpt lat="59.0705038721" lon="30.0333090336"><ele>74.827</ele><time>2026-04-20T19:46:00.075Z</time><hdop>10.5</hdop><vdop>5.5</vdop><extensions><gom:speed>0.0</gom:speed></extensions></trkpt>
   <trkpt lat="59.0705022795" lon="30.0333094527"><ele>75.005</ele><time>2026-04-20T19:46:01.075Z</time><hdop>10.437</hdop><vdop>5.312</vdop><extensions><gom:speed>0.0</gom:speed></extensions></trkpt>
   <trkpt lat="59.0705009803" lon="30.0333096203"><ele>75.157</ele><time>2026-04-20T19:46:02.075Z</time><hdop>10.437</hdop><vdop>5.312</vdop><extensions><gom:speed>0.0</gom:speed></extensions></trkpt>
   <trkpt lat="59.0704998907" lon="30.0333095365"><ele>75.292</ele><time>2026-04-20T19:46:03.075Z</time><hdop>10.375</hdop><vdop>5.25</vdop><extensions><gom:speed>0.0</gom:speed></extensions></trkpt>
   <trkpt lat="59.0704988849" lon="30.0333090336"><ele>75.408</ele><time>2026-04-20T19:46:04.075Z</time><hdop>10.312</hdop><vdop>5.25</vdop><extensions><gom:speed>0.0</gom:speed></extensions></trkpt>
   <trkpt lat="59.0704982981" lon="30.0333088659"><ele>75.493</ele><time>2026-04-20T19:46:05.075Z</time><hdop>10.312</hdop><vdop>5.312</vdop><extensions><gom:speed>0.0</gom:speed></extensions></trkpt>
   <trkpt lat="59.0704977952" lon="30.0333088659"><ele>75.557</ele><time>2026-04-20T19:46:06.075Z</time><hdop>10.312</hdop><vdop>5.312</vdop><extensions><gom:speed>0.0</gom:speed></extensions></trkpt>
   <trkpt lat="59.0704973761" lon="30.0333088659"><ele>75.606</ele><time>2026-04-20T19:46:07.075Z</time><hdop>10.437</hdop><vdop>5.5</vdop><extensions><gom:speed>0.0</gom:speed></extensions></trkpt>
   <trkpt lat="59.0704970827" lon="30.0333087821"><ele>75.65</ele><time>2026-04-20T19:46:08.075Z</time><hdop>10.5</hdop><vdop>5.5</vdop><extensions><gom:speed>0.0</gom:speed></extensions></trkpt>
   <trkpt lat="59.0704967894" lon="30.0333087821"><ele>75.696</ele><time>2026-04-20T19:46:09.075Z</time><hdop>10.625</hdop><vdop>5.687</vdop><extensions><gom:speed>0.0</gom:speed></extensions></trkpt>
   <trkpt lat="59.0704963703" lon="30.0333088659"><ele>75.746</ele><time>2026-04-20T19:46:10.075Z</time><hdop>10.75</hdop><vdop>5.812</vdop><extensions><gom:speed>0.0</gom:speed></extensions></trkpt>
   <trkpt lat="59.0704961607" lon="30.0333088659"><ele>75.785</ele><time>2026-04-20T19:46:11.075Z</time><hdop>10.812</hdop><vdop>5.875</vdop><extensions><gom:speed>0.0</gom:speed></extensions></trkpt>
   <trkpt lat="59.0704957836" lon="30.0333089497"><ele>75.826</ele><time>2026-04-20T19:46:12.075Z</time><hdop>10.875</hdop><vdop>6.0</vdop><extensions><gom:speed>0.0</gom:speed></extensions></trkpt>
   <trkpt lat="59.0704953645" lon="30.0333088659"><ele>75.879</ele><time>2026-04-20T19:46:13.075Z</time><hdop>10.875</hdop><vdop>6.062</vdop><extensions><gom:speed>0.0</gom:speed></extensions></trkpt>
   <trkpt lat="59.0704949873" lon="30.0333088659"><ele>75.923</ele><time>2026-04-20T19:46:14.076Z</time><hdop>10.937</hdop><vdop>6.062</vdop><extensions><gom:speed>0.0</gom:speed></extensions></trkpt>
   <trkpt lat="59.0704945682" lon="30.0333088659"><ele>75.966</ele><time>2026-04-20T19:46:15.075Z</time><hdop>10.937</hdop><vdop>6.062</vdop><extensions><gom:speed>0.0</gom:speed></extensions></trkpt>
   <trkpt lat="59.0704943586" lon="30.0333088659"><ele>76.001</ele><time>2026-04-20T19:46:16.075Z</time><hdop>11.062</hdop><vdop>6.187</vdop><extensions><gom:speed>0.0</gom:speed></extensions></trkpt>
   <trkpt lat="59.0704940653" lon="30.0333088659"><ele>76.034</ele><time>2026-04-20T19:46:17.075Z</time><hdop>11.25</hdop><vdop>6.25</vdop><extensions><gom:speed>0.0</gom:speed></extensions></trkpt>
   <trkpt lat="59.0704938976" lon="30.0333089497"><ele>76.067</ele><time>2026-04-20T19:46:18.075Z</time><hdop>11.437</hdop><vdop>6.312</vdop><extensions><gom:speed>0.0</gom:speed></extensions></trkpt>
   <trkpt lat="59.0704933947" lon="30.0333089497"><ele>76.123</ele><time>2026-04-20T19:46:19.075Z</time><hdop>11.625</hdop><vdop>6.25</vdop><extensions><gom:speed>0.0</gom:speed></extensions></trkpt>
   <trkpt lat="59.0704929756" lon="30.0333089497"><ele>76.169</ele><time>2026-04-20T19:46:20.075Z</time><hdop>11.875</hdop><vdop>6.062</vdop><extensions><gom:speed>0.0</gom:speed></extensions></trkpt>
   <trkpt lat="59.0704923889" lon="30.0333089497"><ele>76.238</ele><time>2026-04-20T19:46:21.075Z</time><hdop>12.187</hdop><vdop>6.312</vdop><extensions><gom:speed>0.0</gom:speed></extensions></trkpt>
   <trkpt lat="59.0704919698" lon="30.0333090336"><ele>76.29</ele><time>2026-04-20T19:46:22.076Z</time><hdop>12.375</hdop><vdop>6.5</vdop><extensions><gom:speed>0.0</gom:speed></extensions></trkpt>
   <trkpt lat="59.0704915926" lon="30.0333090336"><ele>76.336</ele><time>2026-04-20T19:46:23.075Z</time><hdop>12.5</hdop><vdop>6.687</vdop><extensions><gom:speed>0.0</gom:speed></extensions></trkpt>
   <trkpt lat="59.0704912992" lon="30.0333090336"><ele>76.373</ele><time>2026-04-20T19:46:24.075Z</time><hdop>12.625</hdop><vdop>6.812</vdop><extensions><gom:speed>0.0</gom:speed></extensions></trkpt>
   <trkpt lat="59.070490964" lon="30.0333089497"><ele>76.413</ele><time>2026-04-20T19:46:25.075Z</time><hdop>12.687</hdop><vdop>7.125</vdop><extensions><gom:speed>0.0</gom:speed></extensions></trkpt>
   <trkpt lat="59.0704907963" lon="30.0333089497"><ele>76.439</ele><time>2026-04-20T19:46:26.075Z</time><hdop>12.812</hdop><vdop>7.312</vdop><extensions><gom:speed>0.0</gom:speed></extensions></trkpt>
   <trkpt lat="59.0704906706" lon="30.0333090336"><ele>76.461</ele><time>2026-04-20T19:46:27.075Z</time><hdop>12.937</hdop><vdop>7.562</vdop><extensions><gom:speed>0.0</gom:speed></extensions></trkpt>
   <trkpt lat="59.0704895809" lon="30.0333089497"><ele>76.566</ele><time>2026-04-20T19:46:28.076Z</time><hdop>13.062</hdop><vdop>7.562</vdop><extensions><gom:speed>0.0</gom:speed></extensions></trkpt>
   <trkpt lat="59.0704888685" lon="30.0333089497"><ele>76.649</ele><time>2026-04-20T19:46:29.075Z</time><hdop>13.312</hdop><vdop>7.625</vdop><extensions><gom:speed>0.0</gom:speed></extensions></trkpt>
   <trkpt lat="59.0704878627" lon="30.0333089497"><ele>76.756</ele><time>2026-04-20T19:46:30.075Z</time><hdop>13.437</hdop><vdop>7.25</vdop><extensions><gom:speed>0.0</gom:speed></extensions></trkpt>
   <trkpt lat="59.0704868987" lon="30.0333089497"><ele>76.872</ele><time>2026-04-20T19:46:31.075Z</time><hdop>13.562</hdop><vdop>7.25</vdop><extensions><gom:speed>0.0</gom:speed></extensions></trkpt>
   <trkpt lat="59.0704862701" lon="30.0333090336"><ele>76.95</ele><time>2026-04-20T19:46:32.075Z</time><hdop>13.625</hdop><vdop>7.125</vdop><extensions><gom:speed>0.0</gom:speed></extensions></trkpt>
   <trkpt lat="59.0704856834" lon="30.0333090336"><ele>77.017</ele><time>2026-04-20T19:46:33.075Z</time><hdop>13.562</hdop><vdop>7.0</vdop><extensions><gom:speed>0.0</gom:speed></extensions></trkpt>
   <trkpt lat="59.07048539" lon="30.0333091174"><ele>77.063</ele><time>2026-04-20T19:46:34.076Z</time><hdop>13.5</hdop><vdop>7.125</vdop><extensions><gom:speed>0.0</gom:speed></extensions></trkpt>
   <trkpt lat="59.0704851804" lon="30.033309285"><ele>77.096</ele><time>2026-04-20T19:46:35.075Z</time><hdop>13.437</hdop><vdop>7.562</vdop><extensions><gom:speed>0.0</gom:speed></extensions></trkpt>
   <trkpt lat="59.0705070991" lon="30.0332989753"><ele>77.125</ele><time>2026-04-20T19:46:35.966Z</time><hdop>12.375</hdop><vdop>8.0</vdop><extensions><gom:speed>0.31</gom:speed></extensions></trkpt>
   <trkpt lat="59.070508566" lon="30.0333032501"><ele>77.206</ele><time>2026-04-20T19:46:37.033Z</time><hdop>10.875</hdop><vdop>8.187</vdop><extensions><gom:speed>0.312</gom:speed></extensions></trkpt>
   <trkpt lat="59.0705097813" lon="30.0333077763"><ele>77.267</ele><time>2026-04-20T19:46:37.981Z</time><hdop>9.75</hdop><vdop>8.375</vdop><extensions><gom:speed>0.353</gom:speed></extensions></trkpt>
   <trkpt lat="59.0705083983" lon="30.0333128892"><ele>77.313</ele><time>2026-04-20T19:46:39.075Z</time><hdop>8.875</hdop><vdop>8.562</vdop><extensions><gom:speed>0.366</gom:speed></extensions></trkpt>
   <trkpt lat="59.070508566" lon="30.0333225284"><ele>77.35</ele><time>2026-04-20T19:46:39.994Z</time><hdop>8.062</hdop><vdop>8.875</vdop><extensions><gom:speed>0.453</gom:speed></extensions></trkpt>
   <trkpt lat="59.070508985" lon="30.0333272223"><ele>77.372</ele><time>2026-04-20T19:46:40.621Z</time><hdop>7.562</hdop><vdop>8.875</vdop><extensions><gom:speed>0.466</gom:speed></extensions></trkpt>
   <trkpt lat="59.0705088593" lon="30.0333323353"><ele>77.404</ele><time>2026-04-20T19:46:41.261Z</time><hdop>7.687</hdop><vdop>8.812</vdop><extensions><gom:speed>0.478</gom:speed></extensions></trkpt>
   <trkpt lat="59.0705078954" lon="30.0333381188"><ele>77.429</ele><time>2026-04-20T19:46:42.008Z</time><hdop>7.75</hdop><vdop>8.812</vdop><extensions><gom:speed>0.451</gom:speed></extensions></trkpt>
   <trkpt lat="59.0705060933" lon="30.033341723"><ele>77.447</ele><time>2026-04-20T19:46:42.955Z</time><hdop>7.875</hdop><vdop>9.0</vdop><extensions><gom:speed>0.308</gom:speed></extensions></trkpt>
   <trkpt lat="59.0705057999" lon="30.0333393761"><ele>77.462</ele><time>2026-04-20T19:46:44.022Z</time><hdop>8.0</hdop><vdop>8.937</vdop><extensions><gom:speed>0.154</gom:speed></extensions></trkpt>
   <trkpt lat="59.0705062609" lon="30.0333369453"><ele>77.477</ele><time>2026-04-20T19:46:44.970Z</time><hdop>8.187</hdop><vdop>8.875</vdop><extensions><gom:speed>0.104</gom:speed></extensions></trkpt>
   <trkpt lat="59.0705074763" lon="30.0333341793"><ele>77.492</ele><time>2026-04-20T19:46:46.036Z</time><hdop>8.312</hdop><vdop>8.812</vdop><extensions><gom:speed>0.088</gom:speed></extensions></trkpt>
   <trkpt lat="59.0705083983" lon="30.0333332573"><ele>77.501</ele><time>2026-04-20T19:46:47.037Z</time><hdop>8.437</hdop><vdop>8.812</vdop><extensions><gom:speed>0.09</gom:speed></extensions></trkpt>
   <trkpt lat="59.0705087755" lon="30.0333428965"><ele>74.233</ele><time>2026-04-20T19:46:48.075Z</time><hdop>8.312</hdop><vdop>7.0</vdop><extensions><gom:speed>0.126</gom:speed></extensions></trkpt>
   <trkpt lat="59.0705086917" lon="30.0333598279"><ele>71.824</ele><time>2026-04-20T19:46:49.075Z</time><hdop>7.937</hdop><vdop>5.625</vdop><extensions><gom:speed>0.127</gom:speed></extensions></trkpt>
   <trkpt lat="59.0705082726" lon="30.0333661981"><ele>70.386</ele><time>2026-04-20T19:46:49.683Z</time><hdop>7.625</hdop><vdop>5.625</vdop><extensions><gom:speed>0.138</gom:speed></extensions></trkpt>
   <trkpt lat="59.0705062609" lon="30.0333886616"><ele>70.744</ele><time>2026-04-20T19:46:50.482Z</time><hdop>7.0</hdop><vdop>4.812</vdop><extensions><gom:speed>0.267</gom:speed></extensions></trkpt>
   <trkpt lat="59.070504375" lon="30.0334072695"><ele>70.657</ele><time>2026-04-20T19:46:51.075Z</time><hdop>6.875</hdop><vdop>4.312</vdop><extensions><gom:speed>0.304</gom:speed></extensions></trkpt>
   <trkpt lat="59.0705018604" lon="30.0334353488"><ele>70.326</ele><time>2026-04-20T19:46:52.075Z</time><hdop>6.062</hdop><vdop>4.375</vdop><extensions><gom:speed>0.398</gom:speed></extensions></trkpt>
   <trkpt lat="59.0704999745" lon="30.0334549625"><ele>70.129</ele><time>2026-04-20T19:46:52.941Z</time><hdop>5.937</hdop><vdop>4.375</vdop><extensions><gom:speed>0.427</gom:speed></extensions></trkpt>
   <trkpt lat="59.0704995973" lon="30.0334767554"><ele>69.276</ele><time>2026-04-20T19:46:53.600Z</time><hdop>5.687</hdop><vdop>4.375</vdop><extensions><gom:speed>0.513</gom:speed></extensions></trkpt>
   <trkpt lat="59.0704993878" lon="30.03349595"><ele>68.244</ele><time>2026-04-20T19:46:54.076Z</time><hdop>5.687</hdop><vdop>4.125</vdop><extensions><gom:speed>0.559</gom:speed></extensions></trkpt>
   <trkpt lat="59.0704982981" lon="30.0335110374"><ele>67.627</ele><time>2026-04-20T19:46:54.756Z</time><hdop>5.625</hdop><vdop>4.125</vdop><extensions><gom:speed>0.588</gom:speed></extensions></trkpt>
   <trkpt lat="59.0704976695" lon="30.0335435592"><ele>66.725</ele><time>2026-04-20T19:46:55.694Z</time><hdop>5.562</hdop><vdop>3.937</vdop><extensions><gom:speed>0.639</gom:speed></extensions></trkpt>
   <trkpt lat="59.0704974599" lon="30.0335687887"><ele>65.919</ele><time>2026-04-20T19:46:56.661Z</time><hdop>5.437</hdop><vdop>3.937</vdop><extensions><gom:speed>0.539</gom:speed></extensions></trkpt>
   <trkpt lat="59.0704960769" lon="30.0335951917"><ele>65.098</ele><time>2026-04-20T19:46:58.076Z</time><hdop>5.187</hdop><vdop>3.5</vdop><extensions><gom:speed>0.347</gom:speed></extensions></trkpt>
   <trkpt lat="59.0704965798" lon="30.0335993827"><ele>64.608</ele><time>2026-04-20T19:46:59.021Z</time><hdop>4.937</hdop><vdop>3.5</vdop><extensions><gom:speed>0.242</gom:speed></extensions></trkpt>
   <trkpt lat="59.0704952806" lon="30.0336086866"><ele>64.953</ele><time>2026-04-20T19:47:00.075Z</time><hdop>4.687</hdop><vdop>3.312</vdop><extensions><gom:speed>0.224</gom:speed></extensions></trkpt>
   <trkpt lat="59.0704947777" lon="30.0336118717"><ele>65.16</ele><time>2026-04-20T19:47:01.014Z</time><hdop>4.437</hdop><vdop>3.312</vdop><extensions><gom:speed>0.168</gom:speed></extensions></trkpt>
   <trkpt lat="59.0704929756" lon="30.0336209242"><ele>65.811</ele><time>2026-04-20T19:47:01.963Z</time><hdop>4.25</hdop><vdop>3.25</vdop><extensions><gom:speed>0.171</gom:speed></extensions></trkpt>
   <trkpt lat="59.0704889942" lon="30.0336299766"><ele>66.285</ele><time>2026-04-20T19:47:02.684Z</time><hdop>4.187</hdop><vdop>3.187</vdop><extensions><gom:speed>0.189</gom:speed></extensions></trkpt>
   <trkpt lat="59.0704772595" lon="30.0336487521"><ele>66.279</ele><time>2026-04-20T19:47:04.075Z</time><hdop>4.187</hdop><vdop>3.187</vdop><extensions><gom:speed>0.325</gom:speed></extensions></trkpt>
   <trkpt lat="59.0704768824" lon="30.0336493388"><ele>66.276</ele><time>2026-04-20T19:47:04.635Z</time><hdop>4.187</hdop><vdop>3.187</vdop><extensions><gom:speed>0.28</gom:speed></extensions></trkpt>
   <trkpt lat="59.0704707636" lon="30.0336590618"><ele>65.857</ele><time>2026-04-20T19:47:05.575Z</time><hdop>4.25</hdop><vdop>3.187</vdop><extensions><gom:speed>0.227</gom:speed></extensions></trkpt>
   <trkpt lat="59.0704659859" lon="30.0336653483"><ele>65.868</ele><time>2026-04-20T19:47:06.075Z</time><hdop>4.25</hdop><vdop>3.375</vdop><extensions><gom:speed>0.33</gom:speed></extensions></trkpt>
   <trkpt lat="59.0704588613" lon="30.0336748198"><ele>65.854</ele><time>2026-04-20T19:47:07.075Z</time><hdop>4.375</hdop><vdop>3.312</vdop><extensions><gom:speed>0.355</gom:speed></extensions></trkpt>
   <trkpt lat="59.0704544608" lon="30.0336813577"><ele>65.65</ele><time>2026-04-20T19:47:08.076Z</time><hdop>4.437</hdop><vdop>3.437</vdop><extensions><gom:speed>0.323</gom:speed></extensions></trkpt>
   <trkpt lat="59.0704503955" lon="30.0336884823"><ele>65.788</ele><time>2026-04-20T19:47:09.075Z</time><hdop>4.5</hdop><vdop>3.625</vdop><extensions><gom:speed>0.291</gom:speed></extensions></trkpt>
   <trkpt lat="59.0704441929" lon="30.0337017257"><ele>65.691</ele><time>2026-04-20T19:47:10.075Z</time><hdop>4.562</hdop><vdop>3.625</vdop><extensions><gom:speed>0.394</gom:speed></extensions></trkpt>
   <trkpt lat="59.0704408821" lon="30.0337092694"><ele>65.633</ele><time>2026-04-20T19:47:10.896Z</time><hdop>4.687</hdop><vdop>3.625</vdop><extensions><gom:speed>0.425</gom:speed></extensions></trkpt>
   <trkpt lat="59.0704318715" lon="30.0337259494"><ele>65.602</ele><time>2026-04-20T19:47:11.835Z</time><hdop>4.812</hdop><vdop>3.5</vdop><extensions><gom:speed>0.544</gom:speed></extensions></trkpt>
   <trkpt lat="59.0704239925" lon="30.0337382708"><ele>65.649</ele><time>2026-04-20T19:47:12.762Z</time><hdop>5.0</hdop><vdop>3.375</vdop><extensions><gom:speed>0.597</gom:speed></extensions></trkpt>
   <trkpt lat="59.0704114616" lon="30.033753023"><ele>65.753</ele><time>2026-04-20T19:47:13.620Z</time><hdop>5.062</hdop><vdop>3.5</vdop><extensions><gom:speed>0.685</gom:speed></extensions></trkpt>
   <trkpt lat="59.0704055943" lon="30.0337596447"><ele>65.831</ele><time>2026-04-20T19:47:14.075Z</time><hdop>5.062</hdop><vdop>3.687</vdop><extensions><gom:speed>0.696</gom:speed></extensions></trkpt>
   <trkpt lat="59.0703968771" lon="30.0337737263"><ele>66.19</ele><time>2026-04-20T19:47:15.075Z</time><hdop>5.062</hdop><vdop>3.75</vdop><extensions><gom:speed>0.727</gom:speed></extensions></trkpt>
   <trkpt lat="59.070389962" lon="30.0337855448"><ele>67.158</ele><time>2026-04-20T19:47:16.075Z</time><hdop>5.0</hdop><vdop>3.75</vdop><extensions><gom:speed>0.714</gom:speed></extensions></trkpt>
   <trkpt lat="59.0703815801" lon="30.0337917474"><ele>68.18</ele><time>2026-04-20T19:47:17.076Z</time><hdop>4.875</hdop><vdop>3.812</vdop><extensions><gom:speed>0.666</gom:speed></extensions></trkpt>
   <trkpt lat="59.0703755871" lon="30.0337892328"><ele>68.791</ele><time>2026-04-20T19:47:17.955Z</time><hdop>4.687</hdop><vdop>3.812</vdop><extensions><gom:speed>0.564</gom:speed></extensions></trkpt>
   <trkpt lat="59.0703698874" lon="30.0337800965"><ele>68.683</ele><time>2026-04-20T19:47:18.967Z</time><hdop>4.625</hdop><vdop>3.562</vdop><extensions><gom:speed>0.434</gom:speed></extensions></trkpt>
   <trkpt lat="59.0703641877" lon="30.0337796774"><ele>69.001</ele><time>2026-04-20T19:47:20.075Z</time><hdop>4.562</hdop><vdop>3.625</vdop><extensions><gom:speed>0.346</gom:speed></extensions></trkpt>
   <trkpt lat="59.070360793" lon="30.0337789231"><ele>69.545</ele><time>2026-04-20T19:47:21.076Z</time><hdop>4.562</hdop><vdop>3.75</vdop><extensions><gom:speed>0.215</gom:speed></extensions></trkpt>
   <trkpt lat="59.070357566" lon="30.0337779172"><ele>69.912</ele><time>2026-04-20T19:47:22.076Z</time><hdop>4.5</hdop><vdop>3.5</vdop><extensions><gom:speed>0.15</gom:speed></extensions></trkpt>
   <trkpt lat="59.0703520758" lon="30.0337768276"><ele>70.623</ele><time>2026-04-20T19:47:23.076Z</time><hdop>4.437</hdop><vdop>5.562</vdop><extensions><gom:speed>0.144</gom:speed></extensions></trkpt>
   <trkpt lat="59.0703420594" lon="30.0337746483"><ele>71.719</ele><time>2026-04-20T19:47:24.076Z</time><hdop>4.437</hdop><vdop>5.312</vdop><extensions><gom:speed>0.147</gom:speed></extensions></trkpt>
   <trkpt lat="59.0703347672" lon="30.0337745645"><ele>71.12</ele><time>2026-04-20T19:47:25.075Z</time><hdop>4.375</hdop><vdop>4.75</vdop><extensions><gom:speed>0.16</gom:speed></extensions></trkpt>
   <trkpt lat="59.0703325879" lon="30.0337755703"><ele>70.763</ele><time>2026-04-20T19:47:25.881Z</time><hdop>4.375</hdop><vdop>4.75</vdop><extensions><gom:speed>0.17</gom:speed></extensions></trkpt>
   <trkpt lat="59.0703258824" lon="30.0337778334"><ele>70.141</ele><time>2026-04-20T19:47:27.017Z</time><hdop>4.312</hdop><vdop>4.437</vdop><extensions><gom:speed>0.193</gom:speed></extensions></trkpt>
   <trkpt lat="59.0703202665" lon="30.0337798451"><ele>70.308</ele><time>2026-04-20T19:47:28.075Z</time><hdop>4.312</hdop><vdop>6.062</vdop><extensions><gom:speed>0.221</gom:speed></extensions></trkpt>
   <trkpt lat="59.0703185901" lon="30.0337818567"><ele>70.408</ele><time>2026-04-20T19:47:28.882Z</time><hdop>4.375</hdop><vdop>6.062</vdop><extensions><gom:speed>0.203</gom:speed></extensions></trkpt>
   <trkpt lat="59.0703176681" lon="30.0337833655"><ele>70.765</ele><time>2026-04-20T19:47:29.392Z</time><hdop>4.375</hdop><vdop>6.312</vdop><extensions><gom:speed>0.23</gom:speed></extensions></trkpt>
   <trkpt lat="59.0703132676" lon="30.033789149"><ele>71.061</ele><time>2026-04-20T19:47:30.075Z</time><hdop>4.437</hdop><vdop>6.187</vdop><extensions><gom:speed>0.272</gom:speed></extensions></trkpt>
   <trkpt lat="59.0703108788" lon="30.0337943458"><ele>71.238</ele><time>2026-04-20T19:47:30.659Z</time><hdop>4.5</hdop><vdop>6.187</vdop><extensions><gom:speed>0.373</gom:speed></extensions></trkpt>
   <trkpt lat="59.0703045923" lon="30.0338043202"><ele>71.916</ele><time>2026-04-20T19:47:31.577Z</time><hdop>4.625</hdop><vdop>5.062</vdop><extensions><gom:speed>0.46</gom:speed></extensions></trkpt>
   <trkpt lat="59.0703012815" lon="30.0338103552"><ele>71.647</ele><time>2026-04-20T19:47:32.075Z</time><hdop>4.625</hdop><vdop>4.5</vdop><extensions><gom:speed>0.476</gom:speed></extensions></trkpt>
   <trkpt lat="59.0703000661" lon="30.0338259455"><ele>71.486</ele><time>2026-04-20T19:47:32.998Z</time><hdop>4.687</hdop><vdop>4.5</vdop><extensions><gom:speed>0.643</gom:speed></extensions></trkpt>
   <trkpt lat="59.0702977611" lon="30.0338425417"><ele>71.063</ele><time>2026-04-20T19:47:33.857Z</time><hdop>4.812</hdop><vdop>4.062</vdop><extensions><gom:speed>0.727</gom:speed></extensions></trkpt>
   <trkpt lat="59.0702949951" lon="30.033854444"><ele>70.844</ele><time>2026-04-20T19:47:34.736Z</time><hdop>4.875</hdop><vdop>3.812</vdop><extensions><gom:speed>0.668</gom:speed></extensions></trkpt>
   <trkpt lat="59.0702915585" lon="30.0338626583"><ele>71.166</ele><time>2026-04-20T19:47:35.654Z</time><hdop>5.0</hdop><vdop>3.5</vdop><extensions><gom:speed>0.624</gom:speed></extensions></trkpt>
   <trkpt lat="59.0702873675" lon="30.0338671845"><ele>71.485</ele><time>2026-04-20T19:47:36.316Z</time><hdop>5.0</hdop><vdop>3.125</vdop><extensions><gom:speed>0.613</gom:speed></extensions></trkpt>
   <trkpt lat="59.0702860683" lon="30.0338707887"><ele>71.675</ele><time>2026-04-20T19:47:36.799Z</time><hdop>5.062</hdop><vdop>3.125</vdop><extensions><gom:speed>0.575</gom:speed></extensions></trkpt>
   <trkpt lat="59.0702842662" lon="30.0338755664"><ele>71.779</ele><time>2026-04-20T19:47:37.680Z</time><hdop>5.062</hdop><vdop>3.0</vdop><extensions><gom:speed>0.496</gom:speed></extensions></trkpt>
   <trkpt lat="59.0702817936" lon="30.0338820205"><ele>71.706</ele><time>2026-04-20T19:47:38.577Z</time><hdop>5.0</hdop><vdop>3.0</vdop><extensions><gom:speed>0.488</gom:speed></extensions></trkpt>
   <trkpt lat="59.0702794885" lon="30.0338888936"><ele>71.278</ele><time>2026-04-20T19:47:39.076Z</time><hdop>5.0</hdop><vdop>3.187</vdop><extensions><gom:speed>0.556</gom:speed></extensions></trkpt>
   <trkpt lat="59.0702757586" lon="30.0339018856"><ele>71.124</ele><time>2026-04-20T19:47:40.076Z</time><hdop>4.937</hdop><vdop>3.375</vdop><extensions><gom:speed>0.588</gom:speed></extensions></trkpt>
   <trkpt lat="59.0702737888" lon="30.0339154643"><ele>71.033</ele><time>2026-04-20T19:47:40.897Z</time><hdop>4.875</hdop><vdop>3.375</vdop><extensions><gom:speed>0.651</gom:speed></extensions></trkpt>
   <trkpt lat="59.070272783" lon="30.0339224212"><ele>70.806</ele><time>2026-04-20T19:47:41.711Z</time><hdop>4.875</hdop><vdop>3.5</vdop><extensions><gom:speed>0.623</gom:speed></extensions></trkpt>
   <trkpt lat="59.0702695979" lon="30.0339398556"><ele>70.443</ele><time>2026-04-20T19:47:42.880Z</time><hdop>4.812</hdop><vdop>3.375</vdop><extensions><gom:speed>0.515</gom:speed></extensions></trkpt>
   <trkpt lat="59.0702674605" lon="30.0339468964"><ele>70.543</ele><time>2026-04-20T19:47:43.721Z</time><hdop>4.812</hdop><vdop>3.375</vdop><extensions><gom:speed>0.507</gom:speed></extensions></trkpt>
   <trkpt lat="59.0702660775" lon="30.0339556974"><ele>70.268</ele><time>2026-04-20T19:47:44.658Z</time><hdop>4.75</hdop><vdop>3.437</vdop><extensions><gom:speed>0.472</gom:speed></extensions></trkpt>
   <trkpt lat="59.0702666642" lon="30.0339622353"><ele>69.831</ele><time>2026-04-20T19:47:45.303Z</time><hdop>4.75</hdop><vdop>8.0</vdop><extensions><gom:speed>0.479</gom:speed></extensions></trkpt>
   <trkpt lat="59.0702677958" lon="30.0339644984"><ele>69.287</ele><time>2026-04-20T19:47:46.076Z</time><hdop>4.75</hdop><vdop>8.312</vdop><extensions><gom:speed>0.347</gom:speed></extensions></trkpt>
   <trkpt lat="59.0702692626" lon="30.0339624867"><ele>68.688</ele><time>2026-04-20T19:47:47.075Z</time><hdop>4.75</hdop><vdop>8.625</vdop><extensions><gom:speed>0.213</gom:speed></extensions></trkpt>
   <trkpt lat="59.0702698913" lon="30.0339613971"><ele>68.33</ele><time>2026-04-20T19:47:47.991Z</time><hdop>4.75</hdop><vdop>8.625</vdop><extensions><gom:speed>0.161</gom:speed></extensions></trkpt>
   <trkpt lat="59.0702716934" lon="30.0339640793"><ele>68.079</ele><time>2026-04-20T19:47:49.075Z</time><hdop>4.75</hdop><vdop>8.812</vdop><extensions><gom:speed>0.127</gom:speed></extensions></trkpt>
   <trkpt lat="59.0702738727" lon="30.0339667615"><ele>67.705</ele><time>2026-04-20T19:47:50.075Z</time><hdop>4.75</hdop><vdop>8.875</vdop><extensions><gom:speed>0.117</gom:speed></extensions></trkpt>
   <trkpt lat="59.0702743756" lon="30.0339670968"><ele>67.83</ele><time>2026-04-20T19:47:50.952Z</time><hdop>4.812</hdop><vdop>8.937</vdop><extensions><gom:speed>0.122</gom:speed></extensions></trkpt>
   <trkpt lat="59.0702737888" lon="30.0339663424"><ele>67.904</ele><time>2026-04-20T19:47:51.637Z</time><hdop>4.812</hdop><vdop>8.937</vdop><extensions><gom:speed>0.147</gom:speed></extensions></trkpt>
   <trkpt lat="59.0702714838" lon="30.0339664262"><ele>67.937</ele><time>2026-04-20T19:47:52.722Z</time><hdop>4.937</hdop><vdop>8.75</vdop><extensions><gom:speed>0.208</gom:speed></extensions></trkpt>
   <trkpt lat="59.0702678796" lon="30.0339674321"><ele>68.029</ele><time>2026-04-20T19:47:53.621Z</time><hdop>5.0</hdop><vdop>8.437</vdop><extensions><gom:speed>0.333</gom:speed></extensions></trkpt>
   <trkpt lat="59.0702675862" lon="30.0339683541"><ele>68.255</ele><time>2026-04-20T19:47:54.075Z</time><hdop>5.062</hdop><vdop>8.125</vdop><extensions><gom:speed>0.354</gom:speed></extensions></trkpt>
   <trkpt lat="59.0702646945" lon="30.033968857"><ele>68.391</ele><time>2026-04-20T19:47:54.716Z</time><hdop>5.125</hdop><vdop>8.125</vdop><extensions><gom:speed>0.385</gom:speed></extensions></trkpt>
   <trkpt lat="59.0702620961" lon="30.0339686893"><ele>68.444</ele><time>2026-04-20T19:47:55.536Z</time><hdop>5.25</hdop><vdop>7.875</vdop><extensions><gom:speed>0.405</gom:speed></extensions></trkpt>
   <trkpt lat="59.0702599587" lon="30.0339689408"><ele>68.473</ele><time>2026-04-20T19:47:56.045Z</time><hdop>5.312</hdop><vdop>7.687</vdop><extensions><gom:speed>0.415</gom:speed></extensions></trkpt>
   <trkpt lat="59.0702589948" lon="30.033972545"><ele>68.611</ele><time>2026-04-20T19:47:57.075Z</time><hdop>5.437</hdop><vdop>7.312</vdop><extensions><gom:speed>0.388</gom:speed></extensions></trkpt>
   <trkpt lat="59.070256564" lon="30.0339721259"><ele>68.855</ele><time>2026-04-20T19:47:58.059Z</time><hdop>5.5</hdop><vdop>6.937</vdop><extensions><gom:speed>0.413</gom:speed></extensions></trkpt>
   <trkpt lat="59.0702552648" lon="30.0339704495"><ele>69.167</ele><time>2026-04-20T19:47:59.075Z</time><hdop>5.5</hdop><vdop>6.75</vdop><extensions><gom:speed>0.447</gom:speed></extensions></trkpt>
   <trkpt lat="59.0702545943" lon="30.0339704495"><ele>69.354</ele><time>2026-04-20T19:47:59.534Z</time><hdop>5.562</hdop><vdop>6.75</vdop><extensions><gom:speed>0.404</gom:speed></extensions></trkpt>
   <trkpt lat="59.0702529598" lon="30.0339711201"><ele>69.523</ele><time>2026-04-20T19:48:00.074Z</time><hdop>5.562</hdop><vdop>6.75</vdop><extensions><gom:speed>0.409</gom:speed></extensions></trkpt>
   <trkpt lat="59.070253798" lon="30.0339791667"><ele>69.725</ele><time>2026-04-20T19:48:01.076Z</time><hdop>5.625</hdop><vdop>6.625</vdop><extensions><gom:speed>0.346</gom:speed></extensions></trkpt>
   <trkpt lat="59.0702555582" lon="30.0339863752"><ele>69.894</ele><time>2026-04-20T19:48:01.968Z</time><hdop>5.562</hdop><vdop>7.312</vdop><extensions><gom:speed>0.358</gom:speed></extensions></trkpt>
   <trkpt lat="59.0702570669" lon="30.0339926616"><ele>69.994</ele><time>2026-04-20T19:48:02.998Z</time><hdop>5.625</hdop><vdop>7.312</vdop><extensions><gom:speed>0.353</gom:speed></extensions></trkpt>
   <trkpt lat="59.070259372" lon="30.0340012949"><ele>70.233</ele><time>2026-04-20T19:48:03.997Z</time><hdop>5.625</hdop><vdop>7.812</vdop><extensions><gom:speed>0.349</gom:speed></extensions></trkpt>
   <trkpt lat="59.0702585757" lon="30.0340045639"><ele>70.459</ele><time>2026-04-20T19:48:04.659Z</time><hdop>5.687</hdop><vdop>8.25</vdop><extensions><gom:speed>0.339</gom:speed></extensions></trkpt>
   <trkpt lat="59.0702562707" lon="30.0340078328"><ele>70.659</ele><time>2026-04-20T19:48:05.678Z</time><hdop>5.75</hdop><vdop>8.75</vdop><extensions><gom:speed>0.357</gom:speed></extensions></trkpt>
   <trkpt lat="59.0702561868" lon="30.034011018"><ele>70.849</ele><time>2026-04-20T19:48:06.452Z</time><hdop>5.812</hdop><vdop>9.25</vdop><extensions><gom:speed>0.376</gom:speed></extensions></trkpt>
   <trkpt lat="59.0702546781" lon="30.0340151251"><ele>71.001</ele><time>2026-04-20T19:48:06.943Z</time><hdop>5.812</hdop><vdop>9.5</vdop><extensions><gom:speed>0.394</gom:speed></extensions></trkpt>
   <trkpt lat="59.0702531694" lon="30.0340179749"><ele>71.092</ele><time>2026-04-20T19:48:07.717Z</time><hdop>5.875</hdop><vdop>9.5</vdop><extensions><gom:speed>0.382</gom:speed></extensions></trkpt>
   <trkpt lat="59.0702501938" lon="30.034022585"><ele>71.199</ele><time>2026-04-20T19:48:08.957Z</time><hdop>6.0</hdop><vdop>8.875</vdop><extensions><gom:speed>0.363</gom:speed></extensions></trkpt>
   <trkpt lat="59.0702490622" lon="30.0340245966"><ele>71.263</ele><time>2026-04-20T19:48:09.742Z</time><hdop>6.062</hdop><vdop>8.875</vdop><extensions><gom:speed>0.372</gom:speed></extensions></trkpt>
   <trkpt lat="59.0702469668" lon="30.0340278656"><ele>71.352</ele><time>2026-04-20T19:48:10.876Z</time><hdop>6.25</hdop><vdop>8.25</vdop><extensions><gom:speed>0.352</gom:speed></extensions></trkpt>
   <trkpt lat="59.0702482659" lon="30.0340270274"><ele>71.427</ele><time>2026-04-20T19:48:11.853Z</time><hdop>6.375</hdop><vdop>8.125</vdop><extensions><gom:speed>0.327</gom:speed></extensions></trkpt>
   <trkpt lat="59.0702483917" lon="30.0340272788"><ele>71.508</ele><time>2026-04-20T19:48:12.629Z</time><hdop>6.437</hdop><vdop>7.937</vdop><extensions><gom:speed>0.301</gom:speed></extensions></trkpt>
   <trkpt lat="59.0702468829" lon="30.0340278656"><ele>72.039</ele><time>2026-04-20T19:48:13.275Z</time><hdop>6.437</hdop><vdop>6.125</vdop><extensions><gom:speed>0.272</gom:speed></extensions></trkpt>
   <trkpt lat="59.0702432787" lon="30.0340299611"><ele>72.536</ele><time>2026-04-20T19:48:14.075Z</time><hdop>6.375</hdop><vdop>4.937</vdop><extensions><gom:speed>0.282</gom:speed></extensions></trkpt>
   <trkpt lat="59.070238962" lon="30.0340322242"><ele>72.833</ele><time>2026-04-20T19:48:15.083Z</time><hdop>6.187</hdop><vdop>4.937</vdop><extensions><gom:speed>0.357</gom:speed></extensions></trkpt>
   <trkpt lat="59.0702252995" lon="30.0340407737"><ele>73.685</ele><time>2026-04-20T19:48:16.075Z</time><hdop>6.062</hdop><vdop>3.75</vdop><extensions><gom:speed>0.447</gom:speed></extensions></trkpt>
   <trkpt lat="59.0702138582" lon="30.0340476469"><ele>73.568</ele><time>2026-04-20T19:48:17.075Z</time><hdop>5.75</hdop><vdop>3.625</vdop><extensions><gom:speed>0.393</gom:speed></extensions></trkpt>
   <trkpt lat="59.0702098768" lon="30.0340510835"><ele>73.498</ele><time>2026-04-20T19:48:18.043Z</time><hdop>5.625</hdop><vdop>3.625</vdop><extensions><gom:speed>0.356</gom:speed></extensions></trkpt>
   <trkpt lat="59.070203758" lon="30.0340547715"><ele>73.574</ele><time>2026-04-20T19:48:18.789Z</time><hdop>5.562</hdop><vdop>3.562</vdop><extensions><gom:speed>0.368</gom:speed></extensions></trkpt>
   <trkpt lat="59.070184773" lon="30.0340704456"><ele>73.451</ele><time>2026-04-20T19:48:20.076Z</time><hdop>5.312</hdop><vdop>3.75</vdop><extensions><gom:speed>0.392</gom:speed></extensions></trkpt>
   <trkpt lat="59.0701761816" lon="30.0340734631"><ele>73.767</ele><time>2026-04-20T19:48:21.076Z</time><hdop>5.187</hdop><vdop>3.875</vdop><extensions><gom:speed>0.286</gom:speed></extensions></trkpt>
   <trkpt lat="59.0701731641" lon="30.034074469"><ele>73.956</ele><time>2026-04-20T19:48:21.813Z</time><hdop>5.062</hdop><vdop>3.875</vdop><extensions><gom:speed>0.278</gom:speed></extensions></trkpt>
   <trkpt lat="59.0701615971" lon="30.0340784923"><ele>74.24</ele><time>2026-04-20T19:48:23.075Z</time><hdop>4.937</hdop><vdop>10.75</vdop><extensions><gom:speed>0.241</gom:speed></extensions></trkpt>
   <trkpt lat="59.0701587891" lon="30.034078157"><ele>74.217</ele><time>2026-04-20T19:48:24.001Z</time><hdop>4.812</hdop><vdop>11.0</vdop><extensions><gom:speed>0.141</gom:speed></extensions></trkpt>
   <trkpt lat="59.0701580767" lon="30.0340792466"><ele>74.203</ele><time>2026-04-20T19:48:24.943Z</time><hdop>4.812</hdop><vdop>11.0</vdop><extensions><gom:speed>0.127</gom:speed></extensions></trkpt>
   <trkpt lat="59.070152377" lon="30.0340802525"><ele>74.391</ele><time>2026-04-20T19:48:26.076Z</time><hdop>4.812</hdop><vdop>10.5</vdop><extensions><gom:speed>0.1</gom:speed></extensions></trkpt>
   <trkpt lat="59.0701512873" lon="30.034079079"><ele>74.286</ele><time>2026-04-20T19:48:26.963Z</time><hdop>4.75</hdop><vdop>9.875</vdop><extensions><gom:speed>0.072</gom:speed></extensions></trkpt>
   <trkpt lat="59.0701515807" lon="30.0340786599"><ele>74.433</ele><time>2026-04-20T19:48:28.029Z</time><hdop>4.812</hdop><vdop>9.375</vdop><extensions><gom:speed>0.078</gom:speed></extensions></trkpt>
   <trkpt lat="59.0701522932" lon="30.0340786599"><ele>74.52</ele><time>2026-04-20T19:48:28.881Z</time><hdop>4.812</hdop><vdop>9.375</vdop><extensions><gom:speed>0.093</gom:speed></extensions></trkpt>
   <trkpt lat="59.0701516645" lon="30.0340786599"><ele>74.728</ele><time>2026-04-20T19:48:29.939Z</time><hdop>4.937</hdop><vdop>9.125</vdop><extensions><gom:speed>0.089</gom:speed></extensions></trkpt>
   <trkpt lat="59.070145881" lon="30.0340813421"><ele>74.818</ele><time>2026-04-20T19:48:30.816Z</time><hdop>5.0</hdop><vdop>8.687</vdop><extensions><gom:speed>0.124</gom:speed></extensions></trkpt>
   <trkpt lat="59.0701431988" lon="30.0340812583"><ele>74.815</ele><time>2026-04-20T19:48:31.938Z</time><hdop>5.062</hdop><vdop>8.187</vdop><extensions><gom:speed>0.135</gom:speed></extensions></trkpt>
   <trkpt lat="59.0701424863" lon="30.0340814259"><ele>75.054</ele><time>2026-04-20T19:48:33.004Z</time><hdop>5.125</hdop><vdop>7.937</vdop><extensions><gom:speed>0.147</gom:speed></extensions></trkpt>
   <trkpt lat="59.0701415643" lon="30.0340822641"><ele>75.197</ele><time>2026-04-20T19:48:33.817Z</time><hdop>5.187</hdop><vdop>7.937</vdop><extensions><gom:speed>0.188</gom:speed></extensions></trkpt>
   <trkpt lat="59.0701344816" lon="30.0340872933"><ele>75.455</ele><time>2026-04-20T19:48:34.463Z</time><hdop>5.375</hdop><vdop>7.75</vdop><extensions><gom:speed>0.231</gom:speed></extensions></trkpt>
   <trkpt lat="59.07013247" lon="30.0340895564"><ele>75.61</ele><time>2026-04-20T19:48:34.913Z</time><hdop>5.375</hdop><vdop>7.75</vdop><extensions><gom:speed>0.242</gom:speed></extensions></trkpt>
   <trkpt lat="59.0701256806" lon="30.0340939988"><ele>75.926</ele><time>2026-04-20T19:48:35.417Z</time><hdop>5.5</hdop><vdop>7.687</vdop><extensions><gom:speed>0.235</gom:speed></extensions></trkpt>
   <trkpt lat="59.070123166" lon="30.0340951723"><ele>76.115</ele><time>2026-04-20T19:48:36.018Z</time><hdop>5.562</hdop><vdop>7.687</vdop><extensions><gom:speed>0.251</gom:speed></extensions></trkpt>
   <trkpt lat="59.0701155804" lon="30.0340992794"><ele>76.429</ele><time>2026-04-20T19:48:36.839Z</time><hdop>5.562</hdop><vdop>7.625</vdop><extensions><gom:speed>0.261</gom:speed></extensions></trkpt>
   <trkpt lat="59.070112982" lon="30.0341002852"><ele>76.616</ele><time>2026-04-20T19:48:37.460Z</time><hdop>5.625</hdop><vdop>7.625</vdop><extensions><gom:speed>0.284</gom:speed></extensions></trkpt>
   <trkpt lat="59.0701103836" lon="30.034100369"><ele>76.728</ele><time>2026-04-20T19:48:38.535Z</time><hdop>5.687</hdop><vdop>7.625</vdop><extensions><gom:speed>0.298</gom:speed></extensions></trkpt>
   <trkpt lat="59.0701088749" lon="30.0340988603"><ele>76.795</ele><time>2026-04-20T19:48:39.138Z</time><hdop>5.687</hdop><vdop>7.625</vdop><extensions><gom:speed>0.307</gom:speed></extensions></trkpt>
   <trkpt lat="59.0701068632" lon="30.034095759"><ele>76.835</ele><time>2026-04-20T19:48:39.919Z</time><hdop>5.75</hdop><vdop>7.625</vdop><extensions><gom:speed>0.323</gom:speed></extensions></trkpt>
   <trkpt lat="59.0701043906" lon="30.0340934959"><ele>76.859</ele><time>2026-04-20T19:48:40.639Z</time><hdop>5.937</hdop><vdop>7.625</vdop><extensions><gom:speed>0.37</gom:speed></extensions></trkpt>
   <trkpt lat="59.0700962601" lon="30.0340982736"><ele>77.075</ele><time>2026-04-20T19:48:41.458Z</time><hdop>6.125</hdop><vdop>7.625</vdop><extensions><gom:speed>0.392</gom:speed></extensions></trkpt>
   <trkpt lat="59.0700946676" lon="30.0341002852"><ele>77.232</ele><time>2026-04-20T19:48:42.007Z</time><hdop>6.25</hdop><vdop>7.75</vdop><extensions><gom:speed>0.403</gom:speed></extensions></trkpt>
   <trkpt lat="59.0700910634" lon="30.0341052305"><ele>77.345</ele><time>2026-04-20T19:48:42.955Z</time><hdop>6.312</hdop><vdop>7.875</vdop><extensions><gom:speed>0.465</gom:speed></extensions></trkpt>
   <trkpt lat="59.0700889679" lon="30.034108248"><ele>77.412</ele><time>2026-04-20T19:48:43.547Z</time><hdop>6.375</hdop><vdop>7.875</vdop><extensions><gom:speed>0.495</gom:speed></extensions></trkpt>
   <trkpt lat="59.0700832682" lon="30.0341177196"><ele>77.469</ele><time>2026-04-20T19:48:44.075Z</time><hdop>6.437</hdop><vdop>8.0</vdop><extensions><gom:speed>0.514</gom:speed></extensions></trkpt>
   <trkpt lat="59.0700804602" lon="30.0341245927"><ele>77.514</ele><time>2026-04-20T19:48:44.970Z</time><hdop>6.5</hdop><vdop>8.187</vdop><extensions><gom:speed>0.469</gom:speed></extensions></trkpt>
   <trkpt lat="59.0700798735" lon="30.0341313821"><ele>77.541</ele><time>2026-04-20T19:48:45.939Z</time><hdop>6.5</hdop><vdop>8.187</vdop><extensions><gom:speed>0.415</gom:speed></extensions></trkpt>
   <trkpt lat="59.0700798735" lon="30.0341363274"><ele>77.595</ele><time>2026-04-20T19:48:46.983Z</time><hdop>6.625</hdop><vdop>8.5</vdop><extensions><gom:speed>0.328</gom:speed></extensions></trkpt>
   <trkpt lat="59.0700806698" lon="30.0341377523"><ele>77.633</ele><time>2026-04-20T19:48:48.048Z</time><hdop>6.75</hdop><vdop>8.312</vdop><extensions><gom:speed>0.23</gom:speed></extensions></trkpt>
   <trkpt lat="59.0700827653" lon="30.0341357407"><ele>77.662</ele><time>2026-04-20T19:48:48.996Z</time><hdop>6.812</hdop><vdop>8.25</vdop><extensions><gom:speed>0.155</gom:speed></extensions></trkpt>
   <trkpt lat="59.070082891" lon="30.034136076"><ele>77.679</ele><time>2026-04-20T19:48:49.475Z</time><hdop>7.0</hdop><vdop>8.25</vdop><extensions><gom:speed>0.165</gom:speed></extensions></trkpt>
   <trkpt lat="59.0700822624" lon="30.0341375847"><ele>77.699</ele><time>2026-04-20T19:48:49.945Z</time><hdop>7.062</hdop><vdop>8.5</vdop><extensions><gom:speed>0.164</gom:speed></extensions></trkpt>
   <trkpt lat="59.0700812984" lon="30.0341386743"><ele>77.718</ele><time>2026-04-20T19:48:51.010Z</time><hdop>7.187</hdop><vdop>8.812</vdop><extensions><gom:speed>0.199</gom:speed></extensions></trkpt>
   <trkpt lat="59.0700806698" lon="30.0341387582"><ele>77.751</ele><time>2026-04-20T19:48:51.958Z</time><hdop>7.25</hdop><vdop>8.812</vdop><extensions><gom:speed>0.2</gom:speed></extensions></trkpt>
   <trkpt lat="59.0700797897" lon="30.0341385905"><ele>77.775</ele><time>2026-04-20T19:48:53.024Z</time><hdop>7.312</hdop><vdop>8.937</vdop><extensions><gom:speed>0.193</gom:speed></extensions></trkpt>
   <trkpt lat="59.0700791611" lon="30.0341387582"><ele>77.79</ele><time>2026-04-20T19:48:53.955Z</time><hdop>7.437</hdop><vdop>8.937</vdop><extensions><gom:speed>0.16</gom:speed></extensions></trkpt>
   <trkpt lat="59.0700783648" lon="30.0341396802"><ele>77.844</ele><time>2026-04-20T19:48:55.021Z</time><hdop>7.562</hdop><vdop>8.937</vdop><extensions><gom:speed>0.128</gom:speed></extensions></trkpt>
   <trkpt lat="59.0700781971" lon="30.0341399316"><ele>77.882</ele><time>2026-04-20T19:48:55.985Z</time><hdop>7.625</hdop><vdop>8.937</vdop><extensions><gom:speed>0.126</gom:speed></extensions></trkpt>
   <trkpt lat="59.0700738805" lon="30.0341428653"><ele>77.91</ele><time>2026-04-20T19:48:57.056Z</time><hdop>7.625</hdop><vdop>8.5</vdop><extensions><gom:speed>0.148</gom:speed></extensions></trkpt>
   <trkpt lat="59.0700720783" lon="30.0341439549"><ele>77.932</ele><time>2026-04-20T19:48:58.043Z</time><hdop>7.562</hdop><vdop>8.312</vdop><extensions><gom:speed>0.209</gom:speed></extensions></trkpt>
   <trkpt lat="59.0700707792" lon="30.0341474753"><ele>77.96</ele><time>2026-04-20T19:48:58.947Z</time><hdop>7.562</hdop><vdop>8.0</vdop><extensions><gom:speed>0.259</gom:speed></extensions></trkpt>
   <trkpt lat="59.0700697733" lon="30.0341527559"><ele>77.954</ele><time>2026-04-20T19:49:00.013Z</time><hdop>7.437</hdop><vdop>8.0</vdop><extensions><gom:speed>0.273</gom:speed></extensions></trkpt>
   <trkpt lat="59.0700690609" lon="30.0341560249"><ele>77.95</ele><time>2026-04-20T19:49:00.619Z</time><hdop>7.5</hdop><vdop>8.0</vdop><extensions><gom:speed>0.269</gom:speed></extensions></trkpt>
   <trkpt lat="59.0700676778" lon="30.0341622275"><ele>77.956</ele><time>2026-04-20T19:49:02.027Z</time><hdop>7.687</hdop><vdop>8.312</vdop><extensions><gom:speed>0.273</gom:speed></extensions></trkpt>
   <trkpt lat="59.0700662948" lon="30.0341654964"><ele>77.967</ele><time>2026-04-20T19:49:02.974Z</time><hdop>7.812</hdop><vdop>8.375</vdop><extensions><gom:speed>0.224</gom:speed></extensions></trkpt>
   <trkpt lat="59.0700654986" lon="30.0341673404"><ele>77.987</ele><time>2026-04-20T19:49:04.041Z</time><hdop>7.937</hdop><vdop>8.187</vdop><extensions><gom:speed>0.245</gom:speed></extensions></trkpt>
   <trkpt lat="59.0700653728" lon="30.0341682625"><ele>78.008</ele><time>2026-04-20T19:49:04.988Z</time><hdop>8.062</hdop><vdop>8.125</vdop><extensions><gom:speed>0.173</gom:speed></extensions></trkpt>
   <trkpt lat="59.0700659596" lon="30.0341666699"><ele>78.036</ele><time>2026-04-20T19:49:06.054Z</time><hdop>8.25</hdop><vdop>8.0</vdop><extensions><gom:speed>0.121</gom:speed></extensions></trkpt>
   <trkpt lat="59.0700669654" lon="30.0341642391"><ele>78.046</ele><time>2026-04-20T19:49:07.002Z</time><hdop>8.312</hdop><vdop>7.875</vdop><extensions><gom:speed>0.102</gom:speed></extensions></trkpt>
   <trkpt lat="59.0700667977" lon="30.0341624789"><ele>78.065</ele><time>2026-04-20T19:49:07.951Z</time><hdop>8.437</hdop><vdop>7.937</vdop><extensions><gom:speed>0.079</gom:speed></extensions></trkpt>
   <trkpt lat="59.0700668816" lon="30.0341621437"><ele>78.083</ele><time>2026-04-20T19:49:09.017Z</time><hdop>8.375</hdop><vdop>7.75</vdop><extensions><gom:speed>0.078</gom:speed></extensions></trkpt>
   <trkpt lat="59.0700676778" lon="30.0341608864"><ele>78.104</ele><time>2026-04-20T19:49:09.964Z</time><hdop>8.375</hdop><vdop>7.375</vdop><extensions><gom:speed>0.079</gom:speed></extensions></trkpt>
   <trkpt lat="59.0700685999" lon="30.0341593776"><ele>78.177</ele><time>2026-04-20T19:49:11.030Z</time><hdop>8.437</hdop><vdop>7.812</vdop><extensions><gom:speed>0.084</gom:speed></extensions></trkpt>
   <trkpt lat="59.0700697733" lon="30.034157366"><ele>78.278</ele><time>2026-04-20T19:49:12.076Z</time><hdop>8.437</hdop><vdop>8.0</vdop><extensions><gom:speed>0.106</gom:speed></extensions></trkpt>
   <trkpt lat="59.0700714916" lon="30.0341566954"><ele>78.357</ele><time>2026-04-20T19:49:13.043Z</time><hdop>8.437</hdop><vdop>8.0</vdop><extensions><gom:speed>0.09</gom:speed></extensions></trkpt>
   <trkpt lat="59.0700720783" lon="30.0341559411"><ele>78.404</ele><time>2026-04-20T19:49:14.014Z</time><hdop>8.437</hdop><vdop>8.0</vdop><extensions><gom:speed>0.102</gom:speed></extensions></trkpt>
   <trkpt lat="59.0700720783" lon="30.0341533427"><ele>78.48</ele><time>2026-04-20T19:49:14.577Z</time><hdop>8.5</hdop><vdop>8.187</vdop><extensions><gom:speed>0.08</gom:speed></extensions></trkpt>
   <trkpt lat="59.0700721622" lon="30.0341521692"><ele>78.591</ele><time>2026-04-20T19:49:15.057Z</time><hdop>8.5</hdop><vdop>7.875</vdop><extensions><gom:speed>0.118</gom:speed></extensions></trkpt>
   <trkpt lat="59.0700714916" lon="30.034152253"><ele>78.658</ele><time>2026-04-20T19:49:16.040Z</time><hdop>8.5</hdop><vdop>7.875</vdop><extensions><gom:speed>0.115</gom:speed></extensions></trkpt>
   <trkpt lat="59.0700705696" lon="30.0341549352"><ele>78.73</ele><time>2026-04-20T19:49:16.740Z</time><hdop>8.5</hdop><vdop>7.812</vdop><extensions><gom:speed>0.132</gom:speed></extensions></trkpt>
   <trkpt lat="59.0700682646" lon="30.0341551867"><ele>78.804</ele><time>2026-04-20T19:49:17.342Z</time><hdop>8.437</hdop><vdop>7.875</vdop><extensions><gom:speed>0.195</gom:speed></extensions></trkpt>
   <trkpt lat="59.070067594" lon="30.0341577851"><ele>78.849</ele><time>2026-04-20T19:49:17.835Z</time><hdop>8.375</hdop><vdop>7.875</vdop><extensions><gom:speed>0.188</gom:speed></extensions></trkpt>
   <trkpt lat="59.0700662948" lon="30.0341655802"><ele>78.907</ele><time>2026-04-20T19:49:18.967Z</time><hdop>8.375</hdop><vdop>7.937</vdop><extensions><gom:speed>0.294</gom:speed></extensions></trkpt>
   <trkpt lat="59.0700649956" lon="30.0341668375"><ele>78.942</ele><time>2026-04-20T19:49:19.622Z</time><hdop>8.375</hdop><vdop>7.937</vdop><extensions><gom:speed>0.292</gom:speed></extensions></trkpt>
   <trkpt lat="59.0700634869" lon="30.034167089"><ele>78.986</ele><time>2026-04-20T19:49:20.540Z</time><hdop>8.375</hdop><vdop>7.437</vdop><extensions><gom:speed>0.225</gom:speed></extensions></trkpt>
   <trkpt lat="59.0700622715" lon="30.0341684301"><ele>79.032</ele><time>2026-04-20T19:49:21.596Z</time><hdop>8.375</hdop><vdop>7.312</vdop><extensions><gom:speed>0.272</gom:speed></extensions></trkpt>
   <trkpt lat="59.0700619782" lon="30.0341702741"><ele>79.081</ele><time>2026-04-20T19:49:22.047Z</time><hdop>8.375</hdop><vdop>7.312</vdop><extensions><gom:speed>0.301</gom:speed></extensions></trkpt>
   <trkpt lat="59.070062062" lon="30.0341723696"><ele>79.115</ele><time>2026-04-20T19:49:22.994Z</time><hdop>8.562</hdop><vdop>7.437</vdop><extensions><gom:speed>0.252</gom:speed></extensions></trkpt>
   <trkpt lat="59.0700625649" lon="30.034166167"><ele>79.158</ele><time>2026-04-20T19:49:24.075Z</time><hdop>8.625</hdop><vdop>7.75</vdop><extensions><gom:speed>0.171</gom:speed></extensions></trkpt>
   <trkpt lat="59.0700628583" lon="30.0341616408"><ele>79.183</ele><time>2026-04-20T19:49:24.814Z</time><hdop>8.437</hdop><vdop>7.75</vdop><extensions><gom:speed>0.159</gom:speed></extensions></trkpt>
   <trkpt lat="59.0700633612" lon="30.0341577851"><ele>79.204</ele><time>2026-04-20T19:49:25.764Z</time><hdop>8.25</hdop><vdop>7.687</vdop><extensions><gom:speed>0.058</gom:speed></extensions></trkpt>
   <trkpt lat="59.0700638641" lon="30.0341537618"><ele>79.221</ele><time>2026-04-20T19:49:26.903Z</time><hdop>8.125</hdop><vdop>7.625</vdop><extensions><gom:speed>0.082</gom:speed></extensions></trkpt>
   <trkpt lat="59.0700609723" lon="30.0341546838"><ele>78.963</ele><time>2026-04-20T19:49:27.973Z</time><hdop>7.562</hdop><vdop>6.625</vdop><extensions><gom:speed>0.121</gom:speed></extensions></trkpt>
   <trkpt lat="59.0700577872" lon="30.0341624789"><ele>78.537</ele><time>2026-04-20T19:49:28.980Z</time><hdop>7.125</hdop><vdop>6.062</vdop><extensions><gom:speed>0.132</gom:speed></extensions></trkpt>
   <trkpt lat="59.0700533867" lon="30.0341770635"><ele>77.539</ele><time>2026-04-20T19:49:29.781Z</time><hdop>6.875</hdop><vdop>5.187</vdop><extensions><gom:speed>0.189</gom:speed></extensions></trkpt>
   <trkpt lat="59.0700457592" lon="30.034201371"><ele>77.76</ele><time>2026-04-20T19:49:30.956Z</time><hdop>6.5</hdop><vdop>4.812</vdop><extensions><gom:speed>0.232</gom:speed></extensions></trkpt>
   <trkpt lat="59.070037964" lon="30.0342238345"><ele>77.765</ele><time>2026-04-20T19:49:31.656Z</time><hdop>6.25</hdop><vdop>4.5</vdop><extensions><gom:speed>0.212</gom:speed></extensions></trkpt>
   <trkpt lat="59.0700288696" lon="30.0342456274"><ele>77.877</ele><time>2026-04-20T19:49:32.553Z</time><hdop>6.0</hdop><vdop>4.125</vdop><extensions><gom:speed>0.199</gom:speed></extensions></trkpt>
   <trkpt lat="59.0700243853" lon="30.0342556857"><ele>78.126</ele><time>2026-04-20T19:49:33.075Z</time><hdop>5.812</hdop><vdop>3.812</vdop><extensions><gom:speed>0.235</gom:speed></extensions></trkpt>
   <trkpt lat="59.0700176798" lon="30.0342720304"><ele>77.963</ele><time>2026-04-20T19:49:34.075Z</time><hdop>5.5</hdop><vdop>3.812</vdop><extensions><gom:speed>0.264</gom:speed></extensions></trkpt>
   <trkpt lat="59.0700141594" lon="30.034284268"><ele>77.777</ele><time>2026-04-20T19:49:35.075Z</time><hdop>5.25</hdop><vdop>3.562</vdop><extensions><gom:speed>0.233</gom:speed></extensions></trkpt>
   <trkpt lat="59.0700099684" lon="30.0342994392"><ele>77.8</ele><time>2026-04-20T19:49:36.075Z</time><hdop>5.0</hdop><vdop>3.5</vdop><extensions><gom:speed>0.294</gom:speed></extensions></trkpt>
   <trkpt lat="59.0700043945" lon="30.0343148619"><ele>77.689</ele><time>2026-04-20T19:49:37.075Z</time><hdop>4.812</hdop><vdop>7.562</vdop><extensions><gom:speed>0.315</gom:speed></extensions></trkpt>
   <trkpt lat="59.0699987786" lon="30.0343249202"><ele>77.495</ele><time>2026-04-20T19:49:38.075Z</time><hdop>4.687</hdop><vdop>7.625</vdop><extensions><gom:speed>0.259</gom:speed></extensions></trkpt>
   <trkpt lat="59.0699955935" lon="30.034332883"><ele>77.328</ele><time>2026-04-20T19:49:39.075Z</time><hdop>4.625</hdop><vdop>7.562</vdop><extensions><gom:speed>0.146</gom:speed></extensions></trkpt>
   <trkpt lat="59.0699953839" lon="30.0343343918"><ele>77.305</ele><time>2026-04-20T19:49:40.052Z</time><hdop>4.687</hdop><vdop>7.5</vdop><extensions><gom:speed>0.12</gom:speed></extensions></trkpt>
   <trkpt lat="59.0699920731" lon="30.0343438633"><ele>77.35</ele><time>2026-04-20T19:49:41.075Z</time><hdop>4.812</hdop><vdop>7.312</vdop><extensions><gom:speed>0.12</gom:speed></extensions></trkpt>
   <trkpt lat="59.069991193" lon="30.034348641"><ele>77.41</ele><time>2026-04-20T19:49:41.947Z</time><hdop>4.812</hdop><vdop>7.375</vdop><extensions><gom:speed>0.098</gom:speed></extensions></trkpt>
   <trkpt lat="59.0699909834" lon="30.0343513232"><ele>77.419</ele><time>2026-04-20T19:49:43.014Z</time><hdop>4.812</hdop><vdop>7.5</vdop><extensions><gom:speed>0.11</gom:speed></extensions></trkpt>
   <trkpt lat="59.0699909834" lon="30.0343530834"><ele>77.344</ele><time>2026-04-20T19:49:43.961Z</time><hdop>4.812</hdop><vdop>7.312</vdop><extensions><gom:speed>0.12</gom:speed></extensions></trkpt>
   <trkpt lat="59.069988888" lon="30.0343644828"><ele>77.38</ele><time>2026-04-20T19:49:45.075Z</time><hdop>4.812</hdop><vdop>7.312</vdop><extensions><gom:speed>0.106</gom:speed></extensions></trkpt>
   <trkpt lat="59.0699884689" lon="30.0343691767"><ele>77.505</ele><time>2026-04-20T19:49:45.975Z</time><hdop>4.812</hdop><vdop>7.312</vdop><extensions><gom:speed>0.074</gom:speed></extensions></trkpt>
   <trkpt lat="59.069988888" lon="30.0343707692"><ele>77.625</ele><time>2026-04-20T19:49:47.041Z</time><hdop>4.812</hdop><vdop>7.125</vdop><extensions><gom:speed>0.104</gom:speed></extensions></trkpt>
   <trkpt lat="59.0699894747" lon="30.0343735353"><ele>77.758</ele><time>2026-04-20T19:49:47.989Z</time><hdop>4.875</hdop><vdop>6.875</vdop><extensions><gom:speed>0.158</gom:speed></extensions></trkpt>
   <trkpt lat="59.0699875888" lon="30.0343929813"><ele>77.839</ele><time>2026-04-20T19:49:49.075Z</time><hdop>4.937</hdop><vdop>6.562</vdop><extensions><gom:speed>0.231</gom:speed></extensions></trkpt>
   <trkpt lat="59.0699899776" lon="30.0343959988"><ele>77.921</ele><time>2026-04-20T19:49:50.003Z</time><hdop>5.062</hdop><vdop>6.687</vdop><extensions><gom:speed>0.125</gom:speed></extensions></trkpt>
   <trkpt lat="59.0699908996" lon="30.0343951606"><ele>77.97</ele><time>2026-04-20T19:49:51.033Z</time><hdop>5.187</hdop><vdop>6.687</vdop><extensions><gom:speed>0.094</gom:speed></extensions></trkpt>
   <trkpt lat="59.0699912768" lon="30.0343945738"><ele>78.08</ele><time>2026-04-20T19:49:51.661Z</time><hdop>5.187</hdop><vdop>6.5</vdop><extensions><gom:speed>0.074</gom:speed></extensions></trkpt>
   <trkpt lat="59.0699913606" lon="30.0343962502"><ele>78.249</ele><time>2026-04-20T19:49:52.999Z</time><hdop>5.437</hdop><vdop>6.25</vdop><extensions><gom:speed>0.128</gom:speed></extensions></trkpt>
   <trkpt lat="59.0699871697" lon="30.0344100804"><ele>78.511</ele><time>2026-04-20T19:49:54.030Z</time><hdop>5.437</hdop><vdop>6.125</vdop><extensions><gom:speed>0.115</gom:speed></extensions></trkpt>
   <trkpt lat="59.06998608" lon="30.0344128464"><ele>78.668</ele><time>2026-04-20T19:49:55.060Z</time><hdop>5.437</hdop><vdop>6.125</vdop><extensions><gom:speed>0.14</gom:speed></extensions></trkpt>
   <trkpt lat="59.0699824758" lon="30.0344271794"><ele>78.848</ele><time>2026-04-20T19:49:56.045Z</time><hdop>5.375</hdop><vdop>6.187</vdop><extensions><gom:speed>0.2</gom:speed></extensions></trkpt>
   <trkpt lat="59.0699812604" lon="30.0344302808"><ele>78.956</ele><time>2026-04-20T19:49:56.842Z</time><hdop>5.375</hdop><vdop>6.187</vdop><extensions><gom:speed>0.202</gom:speed></extensions></trkpt>
   <trkpt lat="59.0699806737" lon="30.0344323762"><ele>79.067</ele><time>2026-04-20T19:49:57.578Z</time><hdop>5.375</hdop><vdop>6.375</vdop><extensions><gom:speed>0.153</gom:speed></extensions></trkpt>
   <trkpt lat="59.0699776981" lon="30.0344438594"><ele>79.176</ele><time>2026-04-20T19:49:58.075Z</time><hdop>5.437</hdop><vdop>6.5</vdop><extensions><gom:speed>0.202</gom:speed></extensions></trkpt>
   <trkpt lat="59.069977279" lon="30.0344459549"><ele>79.241</ele><time>2026-04-20T19:49:58.635Z</time><hdop>5.5</hdop><vdop>6.5</vdop><extensions><gom:speed>0.154</gom:speed></extensions></trkpt>
   <trkpt lat="59.0699770695" lon="30.0344474637"><ele>79.299</ele><time>2026-04-20T19:49:59.542Z</time><hdop>5.562</hdop><vdop>6.375</vdop><extensions><gom:speed>0.156</gom:speed></extensions></trkpt>
   <trkpt lat="59.0699774886" lon="30.0344495591"><ele>79.377</ele><time>2026-04-20T19:50:01.020Z</time><hdop>5.625</hdop><vdop>6.437</vdop><extensions><gom:speed>0.152</gom:speed></extensions></trkpt>
   <trkpt lat="59.0699782848" lon="30.0344504811"><ele>79.481</ele><time>2026-04-20T19:50:01.967Z</time><hdop>5.687</hdop><vdop>6.5</vdop><extensions><gom:speed>0.136</gom:speed></extensions></trkpt>
   <trkpt lat="59.0699785782" lon="30.0344529957"><ele>79.543</ele><time>2026-04-20T19:50:02.938Z</time><hdop>5.75</hdop><vdop>6.5</vdop><extensions><gom:speed>0.178</gom:speed></extensions></trkpt>
   <trkpt lat="59.0699788716" lon="30.0344546721"><ele>79.59</ele><time>2026-04-20T19:50:03.981Z</time><hdop>5.75</hdop><vdop>6.562</vdop><extensions><gom:speed>0.183</gom:speed></extensions></trkpt>
   <trkpt lat="59.0699787878" lon="30.0344590307"><ele>79.629</ele><time>2026-04-20T19:50:05.002Z</time><hdop>5.937</hdop><vdop>6.625</vdop><extensions><gom:speed>0.183</gom:speed></extensions></trkpt>
   <trkpt lat="59.0699740939" lon="30.034470933"><ele>79.664</ele><time>2026-04-20T19:50:05.634Z</time><hdop>5.937</hdop><vdop>6.375</vdop><extensions><gom:speed>0.178</gom:speed></extensions></trkpt>
   <trkpt lat="59.0699717889" lon="30.0344765489"><ele>79.696</ele><time>2026-04-20T19:50:06.444Z</time><hdop>6.0</hdop><vdop>6.312</vdop><extensions><gom:speed>0.252</gom:speed></extensions></trkpt>
   <trkpt lat="59.069970364" lon="30.0344793987"><ele>79.736</ele><time>2026-04-20T19:50:06.942Z</time><hdop>6.062</hdop><vdop>6.187</vdop><extensions><gom:speed>0.26</gom:speed></extensions></trkpt>
   <trkpt lat="59.0699678913" lon="30.0344856851"><ele>79.76</ele><time>2026-04-20T19:50:08.062Z</time><hdop>6.187</hdop><vdop>6.187</vdop><extensions><gom:speed>0.326</gom:speed></extensions></trkpt>
   <trkpt lat="59.0699644966" lon="30.0344958272"><ele>79.787</ele><time>2026-04-20T19:50:08.921Z</time><hdop>6.312</hdop><vdop>6.375</vdop><extensions><gom:speed>0.467</gom:speed></extensions></trkpt>
   <trkpt lat="59.0699594675" lon="30.0345099927"><ele>79.828</ele><time>2026-04-20T19:50:10.076Z</time><hdop>6.5</hdop><vdop>6.312</vdop><extensions><gom:speed>0.544</gom:speed></extensions></trkpt>
   <trkpt lat="59.0699546898" lon="30.0345224817"><ele>79.859</ele><time>2026-04-20T19:50:11.015Z</time><hdop>6.75</hdop><vdop>6.625</vdop><extensions><gom:speed>0.512</gom:speed></extensions></trkpt>
   <trkpt lat="59.069953684" lon="30.0345209729"><ele>79.956</ele><time>2026-04-20T19:50:12.036Z</time><hdop>7.0</hdop><vdop>6.562</vdop><extensions><gom:speed>0.389</gom:speed></extensions></trkpt>
   <trkpt lat="59.0699545641" lon="30.0345109985"><ele>80.072</ele><time>2026-04-20T19:50:12.984Z</time><hdop>7.375</hdop><vdop>6.25</vdop><extensions><gom:speed>0.2</gom:speed></extensions></trkpt>
   <trkpt lat="59.0699572882" lon="30.0345021975"><ele>80.15</ele><time>2026-04-20T19:50:14.050Z</time><hdop>7.5</hdop><vdop>6.0</vdop><extensions><gom:speed>0.119</gom:speed></extensions></trkpt>
   <trkpt lat="59.069955067" lon="30.034507059"><ele>80.207</ele><time>2026-04-20T19:50:15.076Z</time><hdop>7.5</hdop><vdop>5.75</vdop><extensions><gom:speed>0.12</gom:speed></extensions></trkpt>
   <trkpt lat="59.0699542707" lon="30.0345072266"><ele>80.248</ele><time>2026-04-20T19:50:15.945Z</time><hdop>7.312</hdop><vdop>5.562</vdop><extensions><gom:speed>0.077</gom:speed></extensions></trkpt>
   <trkpt lat="59.0699552765" lon="30.034509825"><ele>80.326</ele><time>2026-04-20T19:50:17.011Z</time><hdop>7.062</hdop><vdop>5.562</vdop><extensions><gom:speed>0.071</gom:speed></extensions></trkpt>
   <trkpt lat="59.0699558633" lon="30.0345113338"><ele>80.392</ele><time>2026-04-20T19:50:17.959Z</time><hdop>6.875</hdop><vdop>5.687</vdop><extensions><gom:speed>0.07</gom:speed></extensions></trkpt>
   <trkpt lat="59.0699558633" lon="30.0345144351"><ele>80.44</ele><time>2026-04-20T19:50:19.025Z</time><hdop>6.625</hdop><vdop>5.625</vdop><extensions><gom:speed>0.066</gom:speed></extensions></trkpt>
   <trkpt lat="59.0699507922" lon="30.0345232361"><ele>80.771</ele><time>2026-04-20T19:50:20.076Z</time><hdop>6.312</hdop><vdop>5.0</vdop><extensions><gom:speed>0.073</gom:speed></extensions></trkpt>
   <trkpt lat="59.0699422846" lon="30.0345319532"><ele>79.668</ele><time>2026-04-20T19:50:21.075Z</time><hdop>6.062</hdop><vdop>5.875</vdop><extensions><gom:speed>0.078</gom:speed></extensions></trkpt>
   <trkpt lat="59.0699354952" lon="30.0345406704"><ele>78.042</ele><time>2026-04-20T19:50:22.075Z</time><hdop>5.812</hdop><vdop>6.25</vdop><extensions><gom:speed>0.111</gom:speed></extensions></trkpt>
   <trkpt lat="59.0699338608" lon="30.034541341"><ele>77.071</ele><time>2026-04-20T19:50:22.579Z</time><hdop>5.687</hdop><vdop>6.25</vdop><extensions><gom:speed>0.097</gom:speed></extensions></trkpt>
   <trkpt lat="59.0699278677" lon="30.0345483818"><ele>76.093</ele><time>2026-04-20T19:50:23.075Z</time><hdop>5.375</hdop><vdop>6.437</vdop><extensions><gom:speed>0.088</gom:speed></extensions></trkpt>
   <trkpt lat="59.0699233834" lon="30.0345553387"><ele>75.722</ele><time>2026-04-20T19:50:24.075Z</time><hdop>5.125</hdop><vdop>6.375</vdop><extensions><gom:speed>0.084</gom:speed></extensions></trkpt>
   <trkpt lat="59.0699197792" lon="30.0345643912"><ele>75.602</ele><time>2026-04-20T19:50:25.075Z</time><hdop>4.937</hdop><vdop>6.25</vdop><extensions><gom:speed>0.068</gom:speed></extensions></trkpt>
   <trkpt lat="59.0699176837" lon="30.0345748686"><ele>75.636</ele><time>2026-04-20T19:50:26.075Z</time><hdop>4.812</hdop><vdop>5.875</vdop><extensions><gom:speed>0.112</gom:speed></extensions></trkpt>
   <trkpt lat="59.069916594" lon="30.0345849269"><ele>75.5</ele><time>2026-04-20T19:50:27.076Z</time><hdop>4.625</hdop><vdop>5.812</vdop><extensions><gom:speed>0.076</gom:speed></extensions></trkpt>
   <trkpt lat="59.0699153787" lon="30.0345881958"><ele>75.418</ele><time>2026-04-20T19:50:28.063Z</time><hdop>4.562</hdop><vdop>5.812</vdop><extensions><gom:speed>0.087</gom:speed></extensions></trkpt>
   <trkpt lat="59.0699161749" lon="30.0345956557"><ele>75.301</ele><time>2026-04-20T19:50:28.739Z</time><hdop>4.562</hdop><vdop>5.687</vdop><extensions><gom:speed>0.074</gom:speed></extensions></trkpt>
   <trkpt lat="59.0699169712" lon="30.0346118328"><ele>75.711</ele><time>2026-04-20T19:50:29.700Z</time><hdop>4.5</hdop><vdop>5.875</vdop><extensions><gom:speed>0.124</gom:speed></extensions></trkpt>
   <trkpt lat="59.0699164683" lon="30.0346153532"><ele>75.854</ele><time>2026-04-20T19:50:30.598Z</time><hdop>4.5</hdop><vdop>6.0</vdop><extensions><gom:speed>0.198</gom:speed></extensions></trkpt>
   <trkpt lat="59.0699162588" lon="30.0346239865"><ele>76.242</ele><time>2026-04-20T19:50:31.075Z</time><hdop>4.5</hdop><vdop>6.437</vdop><extensions><gom:speed>0.2</gom:speed></extensions></trkpt>
   <trkpt lat="59.0699122774" lon="30.0346308597"><ele>76.717</ele><time>2026-04-20T19:50:32.055Z</time><hdop>4.437</hdop><vdop>6.437</vdop><extensions><gom:speed>0.383</gom:speed></extensions></trkpt>
   <trkpt lat="59.0699051947" lon="30.0346377329"><ele>77.0</ele><time>2026-04-20T19:50:33.057Z</time><hdop>4.5</hdop><vdop>6.437</vdop><extensions><gom:speed>0.553</gom:speed></extensions></trkpt>
   <trkpt lat="59.0699015904" lon="30.0346529879"><ele>77.193</ele><time>2026-04-20T19:50:33.737Z</time><hdop>4.5</hdop><vdop>6.312</vdop><extensions><gom:speed>0.578</gom:speed></extensions></trkpt>
   <trkpt lat="59.0698971899" lon="30.0346629624"><ele>77.419</ele><time>2026-04-20T19:50:34.538Z</time><hdop>4.5</hdop><vdop>6.437</vdop><extensions><gom:speed>0.651</gom:speed></extensions></trkpt>
   <trkpt lat="59.0698932924" lon="30.0346783851"><ele>77.708</ele><time>2026-04-20T19:50:35.075Z</time><hdop>4.5</hdop><vdop>6.75</vdop><extensions><gom:speed>0.645</gom:speed></extensions></trkpt>
   <trkpt lat="59.0698891852" lon="30.0346915447"><ele>77.99</ele><time>2026-04-20T19:50:35.965Z</time><hdop>4.437</hdop><vdop>6.812</vdop><extensions><gom:speed>0.743</gom:speed></extensions></trkpt>
   <trkpt lat="59.0698835693" lon="30.0347036984"><ele>78.198</ele><time>2026-04-20T19:50:37.031Z</time><hdop>4.562</hdop><vdop>6.812</vdop><extensions><gom:speed>0.757</gom:speed></extensions></trkpt>
   <trkpt lat="59.0698777858" lon="30.0347155169"><ele>78.322</ele><time>2026-04-20T19:50:38.042Z</time><hdop>4.625</hdop><vdop>6.812</vdop><extensions><gom:speed>0.78</gom:speed></extensions></trkpt>
   <trkpt lat="59.0698726729" lon="30.0347313587"><ele>78.409</ele><time>2026-04-20T19:50:38.980Z</time><hdop>4.687</hdop><vdop>6.75</vdop><extensions><gom:speed>0.789</gom:speed></extensions></trkpt>
   <trkpt lat="59.0698680628" lon="30.0347418361"><ele>78.511</ele><time>2026-04-20T19:50:39.839Z</time><hdop>4.812</hdop><vdop>6.687</vdop><extensions><gom:speed>0.769</gom:speed></extensions></trkpt>
   <trkpt lat="59.0698671827" lon="30.034758097"><ele>78.007</ele><time>2026-04-20T19:50:40.600Z</time><hdop>5.0</hdop><vdop>5.5</vdop><extensions><gom:speed>0.712</gom:speed></extensions></trkpt>
   <trkpt lat="59.0698660931" lon="30.0347694964"><ele>78.195</ele><time>2026-04-20T19:50:41.075Z</time><hdop>5.0</hdop><vdop>4.75</vdop><extensions><gom:speed>0.703</gom:speed></extensions></trkpt>
   <trkpt lat="59.0698603934" lon="30.0347911217"><ele>78.078</ele><time>2026-04-20T19:50:42.075Z</time><hdop>5.062</hdop><vdop>4.312</vdop><extensions><gom:speed>0.721</gom:speed></extensions></trkpt>
   <trkpt lat="59.0698558672" lon="30.0348012638"><ele>78.009</ele><time>2026-04-20T19:50:42.800Z</time><hdop>5.062</hdop><vdop>4.312</vdop><extensions><gom:speed>0.786</gom:speed></extensions></trkpt>
   <trkpt lat="59.0698523887" lon="30.0348157645"><ele>78.037</ele><time>2026-04-20T19:50:43.441Z</time><hdop>5.0</hdop><vdop>4.375</vdop><extensions><gom:speed>0.757</gom:speed></extensions></trkpt>
   <trkpt lat="59.0698496645" lon="30.0348296784"><ele>77.68</ele><time>2026-04-20T19:50:44.075Z</time><hdop>5.0</hdop><vdop>4.125</vdop><extensions><gom:speed>0.761</gom:speed></extensions></trkpt>
   <trkpt lat="59.0698465632" lon="30.0348493759"><ele>76.91</ele><time>2026-04-20T19:50:45.076Z</time><hdop>4.875</hdop><vdop>3.875</vdop><extensions><gom:speed>0.727</gom:speed></extensions></trkpt>
   <trkpt lat="59.0698437972" lon="30.0348682352"><ele>76.341</ele><time>2026-04-20T19:50:46.075Z</time><hdop>4.875</hdop><vdop>7.437</vdop><extensions><gom:speed>0.662</gom:speed></extensions></trkpt>
   <trkpt lat="59.0698421627" lon="30.03487712"><ele>76.001</ele><time>2026-04-20T19:50:46.679Z</time><hdop>4.812</hdop><vdop>7.437</vdop><extensions><gom:speed>0.665</gom:speed></extensions></trkpt>
   <trkpt lat="59.0698411988" lon="30.0348887709"><ele>75.864</ele><time>2026-04-20T19:50:47.351Z</time><hdop>4.812</hdop><vdop>7.562</vdop><extensions><gom:speed>0.659</gom:speed></extensions></trkpt>
   <trkpt lat="59.0698397739" lon="30.034906289"><ele>75.796</ele><time>2026-04-20T19:50:48.075Z</time><hdop>4.812</hdop><vdop>7.5</vdop><extensions><gom:speed>0.646</gom:speed></extensions></trkpt>
   <trkpt lat="59.0698385585" lon="30.0349153415"><ele>75.755</ele><time>2026-04-20T19:50:48.961Z</time><hdop>4.812</hdop><vdop>7.5</vdop><extensions><gom:speed>0.569</gom:speed></extensions></trkpt>
   <trkpt lat="59.0698365888" lon="30.0349224661"><ele>75.463</ele><time>2026-04-20T19:50:49.843Z</time><hdop>4.937</hdop><vdop>7.312</vdop><extensions><gom:speed>0.548</gom:speed></extensions></trkpt>
   <trkpt lat="59.0698324816" lon="30.0349335302"><ele>75.092</ele><time>2026-04-20T19:50:50.777Z</time><hdop>5.0</hdop><vdop>7.0</vdop><extensions><gom:speed>0.574</gom:speed></extensions></trkpt>
   <trkpt lat="59.0698288774" lon="30.0349397328"><ele>74.842</ele><time>2026-04-20T19:50:51.957Z</time><hdop>5.187</hdop><vdop>6.687</vdop><extensions><gom:speed>0.406</gom:speed></extensions></trkpt>
   <trkpt lat="59.0698280811" lon="30.0349415768"><ele>74.693</ele><time>2026-04-20T19:50:52.563Z</time><hdop>5.312</hdop><vdop>6.687</vdop><extensions><gom:speed>0.396</gom:speed></extensions></trkpt>
   <trkpt lat="59.0698271591" lon="30.0349463545"><ele>74.79</ele><time>2026-04-20T19:50:53.076Z</time><hdop>5.375</hdop><vdop>6.562</vdop><extensions><gom:speed>0.393</gom:speed></extensions></trkpt>
   <trkpt lat="59.0698242674" lon="30.0349565805"><ele>74.688</ele><time>2026-04-20T19:50:53.971Z</time><hdop>5.562</hdop><vdop>6.437</vdop><extensions><gom:speed>0.431</gom:speed></extensions></trkpt>
   <trkpt lat="59.0698226748" lon="30.0349635374"><ele>74.618</ele><time>2026-04-20T19:50:55.036Z</time><hdop>5.75</hdop><vdop>6.5</vdop><extensions><gom:speed>0.431</gom:speed></extensions></trkpt>
   <trkpt lat="59.0698233873" lon="30.0349664711"><ele>74.576</ele><time>2026-04-20T19:50:56.057Z</time><hdop>5.875</hdop><vdop>6.5</vdop><extensions><gom:speed>0.328</gom:speed></extensions></trkpt>
   <trkpt lat="59.0698231777" lon="30.0349717517"><ele>74.475</ele><time>2026-04-20T19:50:56.777Z</time><hdop>6.0</hdop><vdop>6.625</vdop><extensions><gom:speed>0.349</gom:speed></extensions></trkpt>
   <trkpt lat="59.0698221719" lon="30.0349795469"><ele>74.702</ele><time>2026-04-20T19:50:58.075Z</time><hdop>6.125</hdop><vdop>6.187</vdop><extensions><gom:speed>0.318</gom:speed></extensions></trkpt>
   <trkpt lat="59.0698221719" lon="30.0349811394"><ele>74.838</ele><time>2026-04-20T19:50:59.019Z</time><hdop>6.187</hdop><vdop>6.187</vdop><extensions><gom:speed>0.239</gom:speed></extensions></trkpt>
   <trkpt lat="59.0698217947" lon="30.0349843246"><ele>75.025</ele><time>2026-04-20T19:50:59.720Z</time><hdop>6.25</hdop><vdop>6.187</vdop><extensions><gom:speed>0.279</gom:speed></extensions></trkpt>
   <trkpt lat="59.0698184839" lon="30.0349900242"><ele>75.31</ele><time>2026-04-20T19:51:00.959Z</time><hdop>6.187</hdop><vdop>6.25</vdop><extensions><gom:speed>0.29</gom:speed></extensions></trkpt>
   <trkpt lat="59.069817478" lon="30.0349894375"><ele>75.497</ele><time>2026-04-20T19:51:02.025Z</time><hdop>6.187</hdop><vdop>6.437</vdop><extensions><gom:speed>0.183</gom:speed></extensions></trkpt>
   <trkpt lat="59.0698158855" lon="30.0349886831"><ele>75.625</ele><time>2026-04-20T19:51:03.075Z</time><hdop>6.062</hdop><vdop>6.625</vdop><extensions><gom:speed>0.115</gom:speed></extensions></trkpt>
   <trkpt lat="59.0698157597" lon="30.0349888508"><ele>75.706</ele><time>2026-04-20T19:51:04.040Z</time><hdop>6.0</hdop><vdop>6.687</vdop><extensions><gom:speed>0.105</gom:speed></extensions></trkpt>
   <trkpt lat="59.0698152987" lon="30.0349890184"><ele>75.78</ele><time>2026-04-20T19:51:04.987Z</time><hdop>5.937</hdop><vdop>6.687</vdop><extensions><gom:speed>0.079</gom:speed></extensions></trkpt>
   <trkpt lat="59.0698147958" lon="30.0349886831"><ele>75.823</ele><time>2026-04-20T19:51:05.935Z</time><hdop>5.875</hdop><vdop>6.687</vdop><extensions><gom:speed>0.075</gom:speed></extensions></trkpt>
   <trkpt lat="59.0698117783" lon="30.034988264"><ele>75.874</ele><time>2026-04-20T19:51:07.002Z</time><hdop>5.875</hdop><vdop>6.812</vdop><extensions><gom:speed>0.066</gom:speed></extensions></trkpt>
   <trkpt lat="59.0698102696" lon="30.0349879288"><ele>75.919</ele><time>2026-04-20T19:51:07.948Z</time><hdop>5.812</hdop><vdop>6.937</vdop><extensions><gom:speed>0.073</gom:speed></extensions></trkpt>
   <trkpt lat="59.069809599" lon="30.0349875935"><ele>75.963</ele><time>2026-04-20T19:51:09.015Z</time><hdop>5.875</hdop><vdop>7.375</vdop><extensions><gom:speed>0.084</gom:speed></extensions></trkpt>
   <trkpt lat="59.0698093895" lon="30.03498642"><ele>75.99</ele><time>2026-04-20T19:51:09.962Z</time><hdop>5.937</hdop><vdop>7.562</vdop><extensions><gom:speed>0.092</gom:speed></extensions></trkpt>
   <trkpt lat="59.0698088866" lon="30.0349877611"><ele>76.013</ele><time>2026-04-20T19:51:11.028Z</time><hdop>5.937</hdop><vdop>7.75</vdop><extensions><gom:speed>0.081</gom:speed></extensions></trkpt>
   <trkpt lat="59.0698084675" lon="30.034987845"><ele>76.027</ele><time>2026-04-20T19:51:11.496Z</time><hdop>5.937</hdop><vdop>7.75</vdop><extensions><gom:speed>0.095</gom:speed></extensions></trkpt>
   <trkpt lat="59.0698082999" lon="30.0349885993"><ele>76.058</ele><time>2026-04-20T19:51:11.976Z</time><hdop>5.937</hdop><vdop>7.5</vdop><extensions><gom:speed>0.096</gom:speed></extensions></trkpt>
   <trkpt lat="59.0698079646" lon="30.0349886831"><ele>76.076</ele><time>2026-04-20T19:51:12.741Z</time><hdop>6.0</hdop><vdop>7.5</vdop><extensions><gom:speed>0.112</gom:speed></extensions></trkpt>
   <trkpt lat="59.069807294" lon="30.0349901919"><ele>76.111</ele><time>2026-04-20T19:51:13.580Z</time><hdop>6.062</hdop><vdop>7.187</vdop><extensions><gom:speed>0.065</gom:speed></extensions></trkpt>
   <trkpt lat="59.0698065816" lon="30.034991533"><ele>76.134</ele><time>2026-04-20T19:51:14.075Z</time><hdop>6.062</hdop><vdop>6.937</vdop><extensions><gom:speed>0.1</gom:speed></extensions></trkpt>
   <trkpt lat="59.0698058691" lon="30.0349936285"><ele>76.149</ele><time>2026-04-20T19:51:15.056Z</time><hdop>6.0</hdop><vdop>7.25</vdop><extensions><gom:speed>0.124</gom:speed></extensions></trkpt>
   <trkpt lat="59.0698058691" lon="30.0349965621"><ele>76.169</ele><time>2026-04-20T19:51:16.005Z</time><hdop>6.062</hdop><vdop>7.312</vdop><extensions><gom:speed>0.158</gom:speed></extensions></trkpt>
   <trkpt lat="59.0698055757" lon="30.0349981547"><ele>76.182</ele><time>2026-04-20T19:51:16.580Z</time><hdop>6.062</hdop><vdop>7.312</vdop><extensions><gom:speed>0.169</gom:speed></extensions></trkpt>
   <trkpt lat="59.0698046956" lon="30.0350007531"><ele>76.203</ele><time>2026-04-20T19:51:17.441Z</time><hdop>6.125</hdop><vdop>7.375</vdop><extensions><gom:speed>0.262</gom:speed></extensions></trkpt>
   <trkpt lat="59.0698038994" lon="30.0350031838"><ele>76.216</ele><time>2026-04-20T19:51:17.942Z</time><hdop>6.125</hdop><vdop>7.375</vdop><extensions><gom:speed>0.276</gom:speed></extensions></trkpt>
   <trkpt lat="59.0698024744" lon="30.0350083806"><ele>76.244</ele><time>2026-04-20T19:51:18.801Z</time><hdop>6.25</hdop><vdop>7.562</vdop><extensions><gom:speed>0.281</gom:speed></extensions></trkpt>
   <trkpt lat="59.0698005885" lon="30.0350096379"><ele>76.293</ele><time>2026-04-20T19:51:20.031Z</time><hdop>6.437</hdop><vdop>7.937</vdop><extensions><gom:speed>0.248</gom:speed></extensions></trkpt>
   <trkpt lat="59.0697997922" lon="30.0350078777"><ele>76.321</ele><time>2026-04-20T19:51:20.659Z</time><hdop>6.562</hdop><vdop>7.937</vdop><extensions><gom:speed>0.2</gom:speed></extensions></trkpt>
   <trkpt lat="59.0697989959" lon="30.0350060337"><ele>76.39</ele><time>2026-04-20T19:51:21.219Z</time><hdop>6.625</hdop><vdop>8.062</vdop><extensions><gom:speed>0.218</gom:speed></extensions></trkpt>
   <trkpt lat="59.0697979901" lon="30.0350034353"><ele>76.503</ele><time>2026-04-20T19:51:22.045Z</time><hdop>6.75</hdop><vdop>8.062</vdop><extensions><gom:speed>0.233</gom:speed></extensions></trkpt>
   <trkpt lat="59.0697974872" lon="30.0350004178"><ele>76.571</ele><time>2026-04-20T19:51:23.056Z</time><hdop>6.875</hdop><vdop>8.062</vdop><extensions><gom:speed>0.189</gom:speed></extensions></trkpt>
   <trkpt lat="59.0697966909" lon="30.0349965621"><ele>76.713</ele><time>2026-04-20T19:51:23.940Z</time><hdop>6.812</hdop><vdop>8.062</vdop><extensions><gom:speed>0.208</gom:speed></extensions></trkpt>
   <trkpt lat="59.0697962718" lon="30.0349962269"><ele>76.798</ele><time>2026-04-20T19:51:24.414Z</time><hdop>6.812</hdop><vdop>8.062</vdop><extensions><gom:speed>0.198</gom:speed></extensions></trkpt>
   <trkpt lat="59.0697946793" lon="30.0349953887"><ele>76.928</ele><time>2026-04-20T19:51:25.006Z</time><hdop>6.812</hdop><vdop>7.875</vdop><extensions><gom:speed>0.212</gom:speed></extensions></trkpt>
   <trkpt lat="59.0697937992" lon="30.0349957239"><ele>77.005</ele><time>2026-04-20T19:51:25.517Z</time><hdop>6.75</hdop><vdop>7.875</vdop><extensions><gom:speed>0.223</gom:speed></extensions></trkpt>
   <trkpt lat="59.0697918713" lon="30.0349957239"><ele>77.086</ele><time>2026-04-20T19:51:26.294Z</time><hdop>6.75</hdop><vdop>7.625</vdop><extensions><gom:speed>0.246</gom:speed></extensions></trkpt>
   <trkpt lat="59.0697897758" lon="30.0349959754"><ele>77.134</ele><time>2026-04-20T19:51:27.036Z</time><hdop>6.75</hdop><vdop>7.625</vdop><extensions><gom:speed>0.306</gom:speed></extensions></trkpt>
   <trkpt lat="59.0697857944" lon="30.0349946343"><ele>77.182</ele><time>2026-04-20T19:51:27.736Z</time><hdop>6.75</hdop><vdop>7.5</vdop><extensions><gom:speed>0.443</gom:speed></extensions></trkpt>
   <trkpt lat="59.0697803881" lon="30.0349936285"><ele>77.232</ele><time>2026-04-20T19:51:28.535Z</time><hdop>6.75</hdop><vdop>7.312</vdop><extensions><gom:speed>0.575</gom:speed></extensions></trkpt>
   <trkpt lat="59.0697767839" lon="30.0349936285"><ele>77.342</ele><time>2026-04-20T19:51:29.034Z</time><hdop>6.812</hdop><vdop>7.312</vdop><extensions><gom:speed>0.601</gom:speed></extensions></trkpt>
   <trkpt lat="59.0697701622" lon="30.034997065"><ele>77.42</ele><time>2026-04-20T19:51:29.983Z</time><hdop>6.875</hdop><vdop>7.437</vdop><extensions><gom:speed>0.648</gom:speed></extensions></trkpt>
   <trkpt lat="59.0697678991" lon="30.0349991605"><ele>77.466</ele><time>2026-04-20T19:51:30.574Z</time><hdop>6.937</hdop><vdop>7.437</vdop><extensions><gom:speed>0.71</gom:speed></extensions></trkpt>
   <trkpt lat="59.0697616965" lon="30.0350097217"><ele>77.511</ele><time>2026-04-20T19:51:31.048Z</time><hdop>7.062</hdop><vdop>7.437</vdop><extensions><gom:speed>0.777</gom:speed></extensions></trkpt>
   <trkpt lat="59.0697592657" lon="30.0350159243"><ele>77.538</ele><time>2026-04-20T19:51:31.676Z</time><hdop>7.125</hdop><vdop>7.437</vdop><extensions><gom:speed>0.816</gom:speed></extensions></trkpt>
   <trkpt lat="59.0697577989" lon="30.0350251444"><ele>77.58</ele><time>2026-04-20T19:51:32.394Z</time><hdop>7.187</hdop><vdop>7.562</vdop><extensions><gom:speed>0.821</gom:speed></extensions></trkpt>
   <trkpt lat="59.069756374" lon="30.0350315985"><ele>77.606</ele><time>2026-04-20T19:51:32.959Z</time><hdop>7.25</hdop><vdop>7.562</vdop><extensions><gom:speed>0.785</gom:speed></extensions></trkpt>
   <trkpt lat="59.0697546976" lon="30.0350402318"><ele>77.654</ele><time>2026-04-20T19:51:33.697Z</time><hdop>7.437</hdop><vdop>7.562</vdop><extensions><gom:speed>0.809</gom:speed></extensions></trkpt>
   <trkpt lat="59.0697578827" lon="30.0350432493"><ele>77.691</ele><time>2026-04-20T19:51:34.459Z</time><hdop>7.437</hdop><vdop>7.312</vdop><extensions><gom:speed>0.785</gom:speed></extensions></trkpt>
   <trkpt lat="59.0697566673" lon="30.0350503739"><ele>77.761</ele><time>2026-04-20T19:51:35.075Z</time><hdop>7.437</hdop><vdop>7.375</vdop><extensions><gom:speed>0.776</gom:speed></extensions></trkpt>
   <trkpt lat="59.0697517639" lon="30.0350611866"><ele>77.803</ele><time>2026-04-20T19:51:36.057Z</time><hdop>7.625</hdop><vdop>7.375</vdop><extensions><gom:speed>0.823</gom:speed></extensions></trkpt>
   <trkpt lat="59.0697469862" lon="30.0350692332"><ele>77.841</ele><time>2026-04-20T19:51:36.739Z</time><hdop>7.687</hdop><vdop>7.375</vdop><extensions><gom:speed>0.941</gom:speed></extensions></trkpt>
   <trkpt lat="59.0697401969" lon="30.0350801297"><ele>77.886</ele><time>2026-04-20T19:51:37.345Z</time><hdop>7.937</hdop><vdop>7.25</vdop><extensions><gom:speed>0.965</gom:speed></extensions></trkpt>
   <trkpt lat="59.0697351677" lon="30.0350877572"><ele>77.942</ele><time>2026-04-20T19:51:38.037Z</time><hdop>8.0</hdop><vdop>7.125</vdop><extensions><gom:speed>1.001</gom:speed></extensions></trkpt>
   <trkpt lat="59.0697312702" lon="30.0350899365"><ele>77.267</ele><time>2026-04-20T19:51:39.075Z</time><hdop>8.125</hdop><vdop>5.437</vdop><extensions><gom:speed>1.023</gom:speed></extensions></trkpt>
   <trkpt lat="59.0697244808" lon="30.0350872543"><ele>76.71</ele><time>2026-04-20T19:51:40.075Z</time><hdop>8.125</hdop><vdop>4.937</vdop><extensions><gom:speed>1.001</gom:speed></extensions></trkpt>
   <trkpt lat="59.069713291" lon="30.0350831472"><ele>76.706</ele><time>2026-04-20T19:51:41.075Z</time><hdop>8.0</hdop><vdop>4.75</vdop><extensions><gom:speed>0.986</gom:speed></extensions></trkpt>
   <trkpt lat="59.06970076" lon="30.0350756873"><ele>78.011</ele><time>2026-04-20T19:51:42.076Z</time><hdop>7.687</hdop><vdop>4.312</vdop><extensions><gom:speed>1.01</gom:speed></extensions></trkpt>
   <trkpt lat="59.0696897797" lon="30.0350675568"><ele>78.791</ele><time>2026-04-20T19:51:43.074Z</time><hdop>7.312</hdop><vdop>4.312</vdop><extensions><gom:speed>1.045</gom:speed></extensions></trkpt>
   <trkpt lat="59.0696766621" lon="30.0350743462"><ele>79.513</ele><time>2026-04-20T19:51:43.836Z</time><hdop>6.75</hdop><vdop>3.812</vdop><extensions><gom:speed>1.058</gom:speed></extensions></trkpt>
   <trkpt lat="59.0696628738" lon="30.0350873381"><ele>80.294</ele><time>2026-04-20T19:51:44.497Z</time><hdop>6.437</hdop><vdop>3.687</vdop><extensions><gom:speed>1.032</gom:speed></extensions></trkpt>
   <trkpt lat="59.069653989" lon="30.0351034314"><ele>80.624</ele><time>2026-04-20T19:51:45.075Z</time><hdop>6.375</hdop><vdop>3.5</vdop><extensions><gom:speed>0.984</gom:speed></extensions></trkpt>
   <trkpt lat="59.0696459843" lon="30.0351252243"><ele>80.509</ele><time>2026-04-20T19:51:46.075Z</time><hdop>6.125</hdop><vdop>3.375</vdop><extensions><gom:speed>0.844</gom:speed></extensions></trkpt>
   <trkpt lat="59.0696353812" lon="30.0351370428"><ele>80.774</ele><time>2026-04-20T19:51:47.075Z</time><hdop>5.937</hdop><vdop>3.187</vdop><extensions><gom:speed>0.714</gom:speed></extensions></trkpt>
   <trkpt lat="59.0696300587" lon="30.0351368752"><ele>80.932</ele><time>2026-04-20T19:51:47.599Z</time><hdop>5.875</hdop><vdop>3.187</vdop><extensions><gom:speed>0.691</gom:speed></extensions></trkpt>
   <trkpt lat="59.0696225988" lon="30.0351389707"><ele>80.945</ele><time>2026-04-20T19:51:48.075Z</time><hdop>5.75</hdop><vdop>3.125</vdop><extensions><gom:speed>0.715</gom:speed></extensions></trkpt>
   <trkpt lat="59.0696089782" lon="30.03514115"><ele>81.373</ele><time>2026-04-20T19:51:49.075Z</time><hdop>5.625</hdop><vdop>3.062</vdop><extensions><gom:speed>0.787</gom:speed></extensions></trkpt>
   <trkpt lat="59.0695966987" lon="30.0351394736"><ele>81.58</ele><time>2026-04-20T19:51:50.075Z</time><hdop>5.437</hdop><vdop>3.062</vdop><extensions><gom:speed>0.687</gom:speed></extensions></trkpt>
   <trkpt lat="59.0695910828" lon="30.0351374619"><ele>82.229</ele><time>2026-04-20T19:51:51.075Z</time><hdop>5.437</hdop><vdop>3.062</vdop><extensions><gom:speed>0.525</gom:speed></extensions></trkpt>
   <trkpt lat="59.0695876882" lon="30.035140647"><ele>83.099</ele><time>2026-04-20T19:51:52.075Z</time><hdop>5.375</hdop><vdop>3.125</vdop><extensions><gom:speed>0.32</gom:speed></extensions></trkpt>
   <trkpt lat="59.0695825752" lon="30.0351454247"><ele>83.856</ele><time>2026-04-20T19:51:53.075Z</time><hdop>5.312</hdop><vdop>3.187</vdop><extensions><gom:speed>0.232</gom:speed></extensions></trkpt>
   <trkpt lat="59.0695745705" lon="30.0351486937"><ele>84.418</ele><time>2026-04-20T19:51:54.075Z</time><hdop>5.062</hdop><vdop>3.312</vdop><extensions><gom:speed>0.179</gom:speed></extensions></trkpt>
   <trkpt lat="59.0695708824" lon="30.0351501186"><ele>84.754</ele><time>2026-04-20T19:51:55.039Z</time><hdop>4.812</hdop><vdop>3.312</vdop><extensions><gom:speed>0.155</gom:speed></extensions></trkpt>
   <trkpt lat="59.0695574714" lon="30.0351472687"><ele>85.377</ele><time>2026-04-20T19:51:55.861Z</time><hdop>4.562</hdop><vdop>3.437</vdop><extensions><gom:speed>0.181</gom:speed></extensions></trkpt>
   <trkpt lat="59.0695444794" lon="30.0351433293"><ele>85.332</ele><time>2026-04-20T19:51:56.738Z</time><hdop>4.312</hdop><vdop>3.312</vdop><extensions><gom:speed>0.25</gom:speed></extensions></trkpt>
   <trkpt lat="59.0695324933" lon="30.0351354503"><ele>85.494</ele><time>2026-04-20T19:51:57.408Z</time><hdop>4.062</hdop><vdop>3.25</vdop><extensions><gom:speed>0.506</gom:speed></extensions></trkpt>
   <trkpt lat="59.0695230637" lon="30.0351255596"><ele>85.545</ele><time>2026-04-20T19:51:58.075Z</time><hdop>3.937</hdop><vdop>3.312</vdop><extensions><gom:speed>0.632</gom:speed></extensions></trkpt>
   <trkpt lat="59.0695134664" lon="30.035113322"><ele>85.575</ele><time>2026-04-20T19:51:58.921Z</time><hdop>3.687</hdop><vdop>3.312</vdop><extensions><gom:speed>0.781</gom:speed></extensions></trkpt>
   <trkpt lat="59.0695002649" lon="30.0351011683"><ele>85.744</ele><time>2026-04-20T19:51:59.720Z</time><hdop>3.437</hdop><vdop>3.187</vdop><extensions><gom:speed>0.913</gom:speed></extensions></trkpt>
   <trkpt lat="59.0694876921" lon="30.0350915291"><ele>86.169</ele><time>2026-04-20T19:52:00.413Z</time><hdop>3.25</hdop><vdop>3.062</vdop><extensions><gom:speed>0.988</gom:speed></extensions></trkpt>
   <trkpt lat="59.069476586" lon="30.0350845721"><ele>86.696</ele><time>2026-04-20T19:52:01.075Z</time><hdop>3.125</hdop><vdop>3.062</vdop><extensions><gom:speed>1.016</gom:speed></extensions></trkpt>
   <trkpt lat="59.0694628816" lon="30.0350790401"><ele>87.01</ele><time>2026-04-20T19:52:01.822Z</time><hdop>3.0</hdop><vdop>3.062</vdop><extensions><gom:speed>1.034</gom:speed></extensions></trkpt>
   <trkpt lat="59.0694512727" lon="30.0350728374"><ele>86.669</ele><time>2026-04-20T19:52:02.641Z</time><hdop>3.062</hdop><vdop>3.0</vdop><extensions><gom:speed>1.046</gom:speed></extensions></trkpt>
   <trkpt lat="59.0694384903" lon="30.0350659643"><ele>86.818</ele><time>2026-04-20T19:52:03.343Z</time><hdop>3.125</hdop><vdop>2.937</vdop><extensions><gom:speed>1.055</gom:speed></extensions></trkpt>
   <trkpt lat="59.0694267975" lon="30.0350591749"><ele>86.443</ele><time>2026-04-20T19:52:04.075Z</time><hdop>3.187</hdop><vdop>3.0</vdop><extensions><gom:speed>1.042</gom:speed></extensions></trkpt>
   <trkpt lat="59.069416865" lon="30.0350501225"><ele>86.219</ele><time>2026-04-20T19:52:05.001Z</time><hdop>3.312</hdop><vdop>3.0</vdop><extensions><gom:speed>0.95</gom:speed></extensions></trkpt>
   <trkpt lat="59.0694106624" lon="30.0350408186"><ele>85.835</ele><time>2026-04-20T19:52:05.978Z</time><hdop>3.562</hdop><vdop>3.062</vdop><extensions><gom:speed>0.874</gom:speed></extensions></trkpt>
   <trkpt lat="59.0694008974" lon="30.0350338616"><ele>85.284</ele><time>2026-04-20T19:52:06.738Z</time><hdop>3.75</hdop><vdop>3.125</vdop><extensions><gom:speed>0.816</gom:speed></extensions></trkpt>
   <trkpt lat="59.0693921803" lon="30.0350317661"><ele>84.837</ele><time>2026-04-20T19:52:07.770Z</time><hdop>3.875</hdop><vdop>3.125</vdop><extensions><gom:speed>0.767</gom:speed></extensions></trkpt>
   <trkpt lat="59.0693763804" lon="30.035027659"><ele>84.545</ele><time>2026-04-20T19:52:08.702Z</time><hdop>4.25</hdop><vdop>3.187</vdop><extensions><gom:speed>0.739</gom:speed></extensions></trkpt>
   <trkpt lat="59.0693657773" lon="30.0350223784"><ele>84.655</ele><time>2026-04-20T19:52:09.582Z</time><hdop>4.375</hdop><vdop>3.187</vdop><extensions><gom:speed>0.722</gom:speed></extensions></trkpt>
   <trkpt lat="59.0693591975" lon="30.0350210373"><ele>84.821</ele><time>2026-04-20T19:52:10.075Z</time><hdop>4.437</hdop><vdop>3.25</vdop><extensions><gom:speed>0.739</gom:speed></extensions></trkpt>
   <trkpt lat="59.0693535816" lon="30.0350211211"><ele>84.919</ele><time>2026-04-20T19:52:10.676Z</time><hdop>4.562</hdop><vdop>3.25</vdop><extensions><gom:speed>0.742</gom:speed></extensions></trkpt>
   <trkpt lat="59.0693438586" lon="30.035023971"><ele>85.597</ele><time>2026-04-20T19:52:11.357Z</time><hdop>4.687</hdop><vdop>3.375</vdop><extensions><gom:speed>0.772</gom:speed></extensions></trkpt>
   <trkpt lat="59.0693351833" lon="30.035026737"><ele>86.264</ele><time>2026-04-20T19:52:12.075Z</time><hdop>4.687</hdop><vdop>3.5</vdop><extensions><gom:speed>0.8</gom:speed></extensions></trkpt>
   <trkpt lat="59.0693261728" lon="30.035032269"><ele>86.663</ele><time>2026-04-20T19:52:12.939Z</time><hdop>4.75</hdop><vdop>3.5</vdop><extensions><gom:speed>0.865</gom:speed></extensions></trkpt>
   <trkpt lat="59.0693154859" lon="30.0350330234"><ele>87.069</ele><time>2026-04-20T19:52:13.697Z</time><hdop>4.812</hdop><vdop>3.5</vdop><extensions><gom:speed>0.928</gom:speed></extensions></trkpt>
   <trkpt lat="59.0693023682" lon="30.0350321852"><ele>87.584</ele><time>2026-04-20T19:52:14.456Z</time><hdop>4.812</hdop><vdop>3.437</vdop><extensions><gom:speed>0.951</gom:speed></extensions></trkpt>
   <trkpt lat="59.0692949921" lon="30.0350314308"><ele>87.752</ele><time>2026-04-20T19:52:15.075Z</time><hdop>4.812</hdop><vdop>3.437</vdop><extensions><gom:speed>0.954</gom:speed></extensions></trkpt>
   <trkpt lat="59.0692846824" lon="30.0350316823"><ele>87.852</ele><time>2026-04-20T19:52:16.017Z</time><hdop>4.812</hdop><vdop>3.437</vdop><extensions><gom:speed>0.936</gom:speed></extensions></trkpt>
   <trkpt lat="59.0692745822" lon="30.0350289163"><ele>87.857</ele><time>2026-04-20T19:52:16.757Z</time><hdop>4.812</hdop><vdop>3.562</vdop><extensions><gom:speed>0.964</gom:speed></extensions></trkpt>
   <trkpt lat="59.0692642724" lon="30.0350258988"><ele>87.564</ele><time>2026-04-20T19:52:17.522Z</time><hdop>4.875</hdop><vdop>3.75</vdop><extensions><gom:speed>0.976</gom:speed></extensions></trkpt>
   <trkpt lat="59.0692571897" lon="30.035023971"><ele>87.175</ele><time>2026-04-20T19:52:18.075Z</time><hdop>4.812</hdop><vdop>3.437</vdop><extensions><gom:speed>0.986</gom:speed></extensions></trkpt>
   <trkpt lat="59.0692471733" lon="30.0350193609"><ele>86.942</ele><time>2026-04-20T19:52:18.996Z</time><hdop>4.875</hdop><vdop>3.437</vdop><extensions><gom:speed>0.994</gom:speed></extensions></trkpt>
   <trkpt lat="59.0692385819" lon="30.0350161758"><ele>86.71</ele><time>2026-04-20T19:52:19.699Z</time><hdop>4.875</hdop><vdop>3.312</vdop><extensions><gom:speed>0.972</gom:speed></extensions></trkpt>
   <trkpt lat="59.0692254642" lon="30.0350113981"><ele>86.482</ele><time>2026-04-20T19:52:20.617Z</time><hdop>4.875</hdop><vdop>3.25</vdop><extensions><gom:speed>0.928</gom:speed></extensions></trkpt>
   <trkpt lat="59.0692219857" lon="30.0350104761"><ele>86.295</ele><time>2026-04-20T19:52:21.076Z</time><hdop>4.875</hdop><vdop>3.125</vdop><extensions><gom:speed>0.934</gom:speed></extensions></trkpt>
   <trkpt lat="59.0692179624" lon="30.0350087997"><ele>86.184</ele><time>2026-04-20T19:52:21.554Z</time><hdop>4.875</hdop><vdop>3.125</vdop><extensions><gom:speed>0.923</gom:speed></extensions></trkpt>
   <trkpt lat="59.0692129752" lon="30.0350075424"><ele>86.044</ele><time>2026-04-20T19:52:22.075Z</time><hdop>4.875</hdop><vdop>3.125</vdop><extensions><gom:speed>0.921</gom:speed></extensions></trkpt>
   <trkpt lat="59.0692034617" lon="30.0350065366"><ele>86.173</ele><time>2026-04-20T19:52:23.075Z</time><hdop>4.812</hdop><vdop>3.125</vdop><extensions><gom:speed>0.883</gom:speed></extensions></trkpt>
   <trkpt lat="59.0691957923" lon="30.0350079615"><ele>86.25</ele><time>2026-04-20T19:52:23.964Z</time><hdop>4.812</hdop><vdop>3.125</vdop><extensions><gom:speed>0.874</gom:speed></extensions></trkpt>
   <trkpt lat="59.0691882905" lon="30.0350105599"><ele>86.207</ele><time>2026-04-20T19:52:24.784Z</time><hdop>4.812</hdop><vdop>3.187</vdop><extensions><gom:speed>0.875</gom:speed></extensions></trkpt>
   <trkpt lat="59.06918016" lon="30.0350123201"><ele>86.241</ele><time>2026-04-20T19:52:25.641Z</time><hdop>4.75</hdop><vdop>3.187</vdop><extensions><gom:speed>0.855</gom:speed></extensions></trkpt>
   <trkpt lat="59.069175089" lon="30.0350136612"><ele>86.159</ele><time>2026-04-20T19:52:26.249Z</time><hdop>4.75</hdop><vdop>3.375</vdop><extensions><gom:speed>0.841</gom:speed></extensions></trkpt>
   <trkpt lat="59.0691650726" lon="30.0350155891"><ele>85.58</ele><time>2026-04-20T19:52:27.075Z</time><hdop>4.75</hdop><vdop>3.562</vdop><extensions><gom:speed>0.87</gom:speed></extensions></trkpt>
   <trkpt lat="59.0691582833" lon="30.0350154214"><ele>85.234</ele><time>2026-04-20T19:52:27.844Z</time><hdop>4.812</hdop><vdop>3.562</vdop><extensions><gom:speed>0.914</gom:speed></extensions></trkpt>
   <trkpt lat="59.0691494823" lon="30.0350162596"><ele>84.845</ele><time>2026-04-20T19:52:28.644Z</time><hdop>4.875</hdop><vdop>3.687</vdop><extensions><gom:speed>0.927</gom:speed></extensions></trkpt>
   <trkpt lat="59.0691422738" lon="30.0350209535"><ele>84.489</ele><time>2026-04-20T19:52:29.362Z</time><hdop>4.937</hdop><vdop>3.437</vdop><extensions><gom:speed>0.911</gom:speed></extensions></trkpt>
   <trkpt lat="59.0691364903" lon="30.0350262341"><ele>84.161</ele><time>2026-04-20T19:52:30.075Z</time><hdop>4.937</hdop><vdop>3.437</vdop><extensions><gom:speed>0.854</gom:speed></extensions></trkpt>
   <trkpt lat="59.0691304973" lon="30.0350339454"><ele>83.965</ele><time>2026-04-20T19:52:31.002Z</time><hdop>5.0</hdop><vdop>3.437</vdop><extensions><gom:speed>0.787</gom:speed></extensions></trkpt>
   <trkpt lat="59.0691269769" lon="30.0350448419"><ele>83.683</ele><time>2026-04-20T19:52:31.782Z</time><hdop>5.0</hdop><vdop>3.625</vdop><extensions><gom:speed>0.78</gom:speed></extensions></trkpt>
   <trkpt lat="59.0691257615" lon="30.0350530562"><ele>83.818</ele><time>2026-04-20T19:52:32.409Z</time><hdop>5.0</hdop><vdop>3.75</vdop><extensions><gom:speed>0.784</gom:speed></extensions></trkpt>
   <trkpt lat="59.0691216963" lon="30.0350677245"><ele>83.476</ele><time>2026-04-20T19:52:33.075Z</time><hdop>4.937</hdop><vdop>4.062</vdop><extensions><gom:speed>0.788</gom:speed></extensions></trkpt>
   <trkpt lat="59.0691158708" lon="30.0350757711"><ele>83.06</ele><time>2026-04-20T19:52:34.075Z</time><hdop>4.937</hdop><vdop>4.312</vdop><extensions><gom:speed>0.802</gom:speed></extensions></trkpt>
   <trkpt lat="59.0691089977" lon="30.0350755197"><ele>82.811</ele><time>2026-04-20T19:52:34.979Z</time><hdop>4.937</hdop><vdop>4.312</vdop><extensions><gom:speed>0.811</gom:speed></extensions></trkpt>
   <trkpt lat="59.0691038847" lon="30.0350727536"><ele>82.318</ele><time>2026-04-20T19:52:35.722Z</time><hdop>4.937</hdop><vdop>4.375</vdop><extensions><gom:speed>0.82</gom:speed></extensions></trkpt>
   <trkpt lat="59.0690978916" lon="30.0350699876"><ele>81.906</ele><time>2026-04-20T19:52:36.501Z</time><hdop>4.937</hdop><vdop>4.25</vdop><extensions><gom:speed>0.819</gom:speed></extensions></trkpt>
   <trkpt lat="59.0690936588" lon="30.0350687303"><ele>81.394</ele><time>2026-04-20T19:52:37.075Z</time><hdop>4.875</hdop><vdop>4.25</vdop><extensions><gom:speed>0.806</gom:speed></extensions></trkpt>
   <trkpt lat="59.0690863665" lon="30.0350660481"><ele>81.318</ele><time>2026-04-20T19:52:38.075Z</time><hdop>4.937</hdop><vdop>4.062</vdop><extensions><gom:speed>0.74</gom:speed></extensions></trkpt>
   <trkpt lat="59.0690832652" lon="30.035063785"><ele>81.273</ele><time>2026-04-20T19:52:38.584Z</time><hdop>4.937</hdop><vdop>4.062</vdop><extensions><gom:speed>0.715</gom:speed></extensions></trkpt>
   <trkpt lat="59.0690781942" lon="30.0350585882"><ele>80.567</ele><time>2026-04-20T19:52:39.075Z</time><hdop>4.937</hdop><vdop>4.062</vdop><extensions><gom:speed>0.72</gom:speed></extensions></trkpt>
   <trkpt lat="59.0690725783" lon="30.0350545649"><ele>79.911</ele><time>2026-04-20T19:52:40.076Z</time><hdop>4.875</hdop><vdop>4.125</vdop><extensions><gom:speed>0.703</gom:speed></extensions></trkpt>
   <trkpt lat="59.0690658728" lon="30.035052218"><ele>79.147</ele><time>2026-04-20T19:52:41.076Z</time><hdop>4.875</hdop><vdop>4.25</vdop><extensions><gom:speed>0.621</gom:speed></extensions></trkpt>
   <trkpt lat="59.0690582872" lon="30.0350495358"><ele>79.308</ele><time>2026-04-20T19:52:42.075Z</time><hdop>4.812</hdop><vdop>4.187</vdop><extensions><gom:speed>0.696</gom:speed></extensions></trkpt>
   <trkpt lat="59.0690512883" lon="30.0350458477"><ele>79.405</ele><time>2026-04-20T19:52:42.936Z</time><hdop>4.812</hdop><vdop>4.187</vdop><extensions><gom:speed>0.737</gom:speed></extensions></trkpt>
   <trkpt lat="59.0690417748" lon="30.035042495"><ele>79.306</ele><time>2026-04-20T19:52:43.914Z</time><hdop>4.75</hdop><vdop>4.375</vdop><extensions><gom:speed>0.737</gom:speed></extensions></trkpt>
   <trkpt lat="59.0690332672" lon="30.0350377173"><ele>78.891</ele><time>2026-04-20T19:52:44.979Z</time><hdop>4.687</hdop><vdop>4.562</vdop><extensions><gom:speed>0.689</gom:speed></extensions></trkpt>
   <trkpt lat="59.0690251786" lon="30.0350387231"><ele>78.002</ele><time>2026-04-20T19:52:45.898Z</time><hdop>4.625</hdop><vdop>4.562</vdop><extensions><gom:speed>0.643</gom:speed></extensions></trkpt>
   <trkpt lat="59.0690188922" lon="30.0350479432"><ele>77.418</ele><time>2026-04-20T19:52:46.777Z</time><hdop>4.5</hdop><vdop>4.5</vdop><extensions><gom:speed>0.582</gom:speed></extensions></trkpt>
   <trkpt lat="59.0690144917" lon="30.0350676407"><ele>76.895</ele><time>2026-04-20T19:52:48.075Z</time><hdop>4.375</hdop><vdop>4.187</vdop><extensions><gom:speed>0.531</gom:speed></extensions></trkpt>
   <trkpt lat="59.0690116838" lon="30.035075352"><ele>76.582</ele><time>2026-04-20T19:52:48.761Z</time><hdop>4.375</hdop><vdop>4.187</vdop><extensions><gom:speed>0.567</gom:speed></extensions></trkpt>
   <trkpt lat="59.0690045592" lon="30.035084153"><ele>76.446</ele><time>2026-04-20T19:52:49.522Z</time><hdop>4.312</hdop><vdop>4.187</vdop><extensions><gom:speed>0.678</gom:speed></extensions></trkpt>
   <trkpt lat="59.0689985661" lon="30.0350897689"><ele>75.964</ele><time>2026-04-20T19:52:50.075Z</time><hdop>4.312</hdop><vdop>4.0</vdop><extensions><gom:speed>0.707</gom:speed></extensions></trkpt>
   <trkpt lat="59.0689901842" lon="30.0350960553"><ele>75.676</ele><time>2026-04-20T19:52:51.022Z</time><hdop>4.312</hdop><vdop>4.0</vdop><extensions><gom:speed>0.733</gom:speed></extensions></trkpt>
   <trkpt lat="59.0689793715" lon="30.0351074547"><ele>75.375</ele><time>2026-04-20T19:52:51.741Z</time><hdop>4.312</hdop><vdop>4.125</vdop><extensions><gom:speed>0.808</gom:speed></extensions></trkpt>
   <trkpt lat="59.0689725822" lon="30.0351153337"><ele>74.725</ele><time>2026-04-20T19:52:52.482Z</time><hdop>4.375</hdop><vdop>3.875</vdop><extensions><gom:speed>0.846</gom:speed></extensions></trkpt>
   <trkpt lat="59.068967092" lon="30.0351242185"><ele>73.807</ele><time>2026-04-20T19:52:53.075Z</time><hdop>4.375</hdop><vdop>3.937</vdop><extensions><gom:speed>0.868</gom:speed></extensions></trkpt>
   <trkpt lat="59.0689582911" lon="30.0351410661"><ele>72.804</ele><time>2026-04-20T19:52:54.075Z</time><hdop>4.437</hdop><vdop>3.937</vdop><extensions><gom:speed>0.886</gom:speed></extensions></trkpt>
   <trkpt lat="59.0689518789" lon="30.035153639"><ele>72.205</ele><time>2026-04-20T19:52:54.921Z</time><hdop>4.437</hdop><vdop>3.937</vdop><extensions><gom:speed>0.897</gom:speed></extensions></trkpt>
   <trkpt lat="59.0689456763" lon="30.0351702352"><ele>71.554</ele><time>2026-04-20T19:52:55.742Z</time><hdop>4.5</hdop><vdop>4.0</vdop><extensions><gom:speed>0.89</gom:speed></extensions></trkpt>
   <trkpt lat="59.0689394737" lon="30.0351866637"><ele>70.708</ele><time>2026-04-20T19:52:56.421Z</time><hdop>4.5</hdop><vdop>4.125</vdop><extensions><gom:speed>0.947</gom:speed></extensions></trkpt>
   <trkpt lat="59.0689335644" lon="30.0352006615"><ele>70.647</ele><time>2026-04-20T19:52:57.075Z</time><hdop>4.5</hdop><vdop>4.0</vdop><extensions><gom:speed>0.961</gom:speed></extensions></trkpt>
   <trkpt lat="59.0689229613" lon="30.0352202751"><ele>70.61</ele><time>2026-04-20T19:52:58.019Z</time><hdop>4.5</hdop><vdop>4.0</vdop><extensions><gom:speed>1.007</gom:speed></extensions></trkpt>
   <trkpt lat="59.0689174712" lon="30.035232848"><ele>70.777</ele><time>2026-04-20T19:52:58.780Z</time><hdop>4.5</hdop><vdop>3.937</vdop><extensions><gom:speed>1.031</gom:speed></extensions></trkpt>
   <trkpt lat="59.0689111848" lon="30.0352477678"><ele>70.83</ele><time>2026-04-20T19:52:59.482Z</time><hdop>4.5</hdop><vdop>3.75</vdop><extensions><gom:speed>1.022</gom:speed></extensions></trkpt>
   <trkpt lat="59.068905988" lon="30.035259251"><ele>70.937</ele><time>2026-04-20T19:53:00.075Z</time><hdop>4.5</hdop><vdop>3.562</vdop><extensions><gom:speed>1.025</gom:speed></extensions></trkpt>
   <trkpt lat="59.0688995758" lon="30.0352756795"><ele>71.001</ele><time>2026-04-20T19:53:01.020Z</time><hdop>4.5</hdop><vdop>3.562</vdop><extensions><gom:speed>1.023</gom:speed></extensions></trkpt>
   <trkpt lat="59.0688944629" lon="30.0352901802"><ele>70.884</ele><time>2026-04-20T19:53:01.821Z</time><hdop>4.562</hdop><vdop>3.562</vdop><extensions><gom:speed>0.988</gom:speed></extensions></trkpt>
   <trkpt lat="59.0688872963" lon="30.0353047647"><ele>71.292</ele><time>2026-04-20T19:53:02.619Z</time><hdop>4.625</hdop><vdop>3.5</vdop><extensions><gom:speed>0.987</gom:speed></extensions></trkpt>
   <trkpt lat="59.0688813871" lon="30.0353149906"><ele>71.313</ele><time>2026-04-20T19:53:03.480Z</time><hdop>4.75</hdop><vdop>8.625</vdop><extensions><gom:speed>0.891</gom:speed></extensions></trkpt>
   <trkpt lat="59.06887728" lon="30.0353204389"><ele>71.418</ele><time>2026-04-20T19:53:04.037Z</time><hdop>4.75</hdop><vdop>8.437</vdop><extensions><gom:speed>0.884</gom:speed></extensions></trkpt>
   <trkpt lat="59.0688719994" lon="30.0353244622"><ele>71.345</ele><time>2026-04-20T19:53:05.075Z</time><hdop>4.937</hdop><vdop>8.375</vdop><extensions><gom:speed>0.725</gom:speed></extensions></trkpt>
   <trkpt lat="59.0688669702" lon="30.0353249651"><ele>70.957</ele><time>2026-04-20T19:53:06.051Z</time><hdop>5.125</hdop><vdop>8.187</vdop><extensions><gom:speed>0.591</gom:speed></extensions></trkpt>
   <trkpt lat="59.0688631984" lon="30.0353233725"><ele>70.647</ele><time>2026-04-20T19:53:06.999Z</time><hdop>5.312</hdop><vdop>7.812</vdop><extensions><gom:speed>0.442</gom:speed></extensions></trkpt>
   <trkpt lat="59.0688614801" lon="30.0353230373"><ele>70.462</ele><time>2026-04-20T19:53:08.079Z</time><hdop>5.687</hdop><vdop>7.812</vdop><extensions><gom:speed>0.398</gom:speed></extensions></trkpt>
   <trkpt lat="59.068859175" lon="30.03532639"><ele>70.233</ele><time>2026-04-20T19:53:08.997Z</time><hdop>5.75</hdop><vdop>7.5</vdop><extensions><gom:speed>0.427</gom:speed></extensions></trkpt>
   <trkpt lat="59.0688556966" lon="30.035329659"><ele>70.231</ele><time>2026-04-20T19:53:09.876Z</time><hdop>5.937</hdop><vdop>7.375</vdop><extensions><gom:speed>0.447</gom:speed></extensions></trkpt>
   <trkpt lat="59.0688498711" lon="30.0353321735"><ele>70.055</ele><time>2026-04-20T19:53:10.822Z</time><hdop>6.125</hdop><vdop>7.062</vdop><extensions><gom:speed>0.524</gom:speed></extensions></trkpt>
   <trkpt lat="59.0688465603" lon="30.0353345205"><ele>69.803</ele><time>2026-04-20T19:53:11.603Z</time><hdop>6.125</hdop><vdop>7.0</vdop><extensions><gom:speed>0.576</gom:speed></extensions></trkpt>
   <trkpt lat="59.0688431656" lon="30.0353356939"><ele>69.479</ele><time>2026-04-20T19:53:12.351Z</time><hdop>6.187</hdop><vdop>7.062</vdop><extensions><gom:speed>0.591</gom:speed></extensions></trkpt>
   <trkpt lat="59.0688363763" lon="30.035337538"><ele>69.386</ele><time>2026-04-20T19:53:13.040Z</time><hdop>6.187</hdop><vdop>6.937</vdop><extensions><gom:speed>0.599</gom:speed></extensions></trkpt>
   <trkpt lat="59.0688310957" lon="30.0353410584"><ele>69.359</ele><time>2026-04-20T19:53:13.988Z</time><hdop>6.312</hdop><vdop>6.687</vdop><extensions><gom:speed>0.617</gom:speed></extensions></trkpt>
   <trkpt lat="59.0688296707" lon="30.0353461713"><ele>69.309</ele><time>2026-04-20T19:53:15.076Z</time><hdop>6.375</hdop><vdop>6.562</vdop><extensions><gom:speed>0.556</gom:speed></extensions></trkpt>
   <trkpt lat="59.0688269885" lon="30.0353473448"><ele>69.377</ele><time>2026-04-20T19:53:16.001Z</time><hdop>6.437</hdop><vdop>6.5</vdop><extensions><gom:speed>0.518</gom:speed></extensions></trkpt>
   <trkpt lat="59.0688227976" lon="30.0353465904"><ele>69.418</ele><time>2026-04-20T19:53:17.043Z</time><hdop>6.562</hdop><vdop>6.5</vdop><extensions><gom:speed>0.493</gom:speed></extensions></trkpt>
   <trkpt lat="59.0688191934" lon="30.0353452493"><ele>69.496</ele><time>2026-04-20T19:53:18.015Z</time><hdop>6.625</hdop><vdop>6.375</vdop><extensions><gom:speed>0.43</gom:speed></extensions></trkpt>
   <trkpt lat="59.0688182714" lon="30.0353449978"><ele>69.542</ele><time>2026-04-20T19:53:18.608Z</time><hdop>6.687</hdop><vdop>6.375</vdop><extensions><gom:speed>0.423</gom:speed></extensions></trkpt>
   <trkpt lat="59.0688143738" lon="30.0353436567"><ele>69.556</ele><time>2026-04-20T19:53:19.265Z</time><hdop>6.75</hdop><vdop>6.25</vdop><extensions><gom:speed>0.421</gom:speed></extensions></trkpt>
   <trkpt lat="59.0688119849" lon="30.0353427347"><ele>69.565</ele><time>2026-04-20T19:53:20.085Z</time><hdop>6.812</hdop><vdop>6.25</vdop><extensions><gom:speed>0.387</gom:speed></extensions></trkpt>
   <trkpt lat="59.0688082969" lon="30.0353416451"><ele>69.623</ele><time>2026-04-20T19:53:21.021Z</time><hdop>6.937</hdop><vdop>6.125</vdop><extensions><gom:speed>0.419</gom:speed></extensions></trkpt>
   <trkpt lat="59.0688090932" lon="30.035337035"><ele>68.905</ele><time>2026-04-20T19:53:22.037Z</time><hdop>6.937</hdop><vdop>5.062</vdop><extensions><gom:speed>0.471</gom:speed></extensions></trkpt>
   <trkpt lat="59.0688064948" lon="30.0353298266"><ele>66.03</ele><time>2026-04-20T19:53:22.935Z</time><hdop>6.812</hdop><vdop>4.5</vdop><extensions><gom:speed>0.579</gom:speed></extensions></trkpt>
   <trkpt lat="59.0688007951" lon="30.0353214447"><ele>62.545</ele><time>2026-04-20T19:53:23.858Z</time><hdop>6.562</hdop><vdop>4.312</vdop><extensions><gom:speed>0.63</gom:speed></extensions></trkpt>
   <trkpt lat="59.0687940896" lon="30.0353149906"><ele>59.393</ele><time>2026-04-20T19:53:24.704Z</time><hdop>6.312</hdop><vdop>4.125</vdop><extensions><gom:speed>0.636</gom:speed></extensions></trkpt>
   <trkpt lat="59.0687852886" lon="30.0353118893"><ele>56.672</ele><time>2026-04-20T19:53:25.620Z</time><hdop>6.0</hdop><vdop>4.0</vdop><extensions><gom:speed>0.636</gom:speed></extensions></trkpt>
   <trkpt lat="59.0687812653" lon="30.0353138172"><ele>54.661</ele><time>2026-04-20T19:53:26.075Z</time><hdop>5.812</hdop><vdop>4.062</vdop><extensions><gom:speed>0.637</gom:speed></extensions></trkpt>
   <trkpt lat="59.0687729672" lon="30.035319936"><ele>52.498</ele><time>2026-04-20T19:53:27.075Z</time><hdop>5.625</hdop><vdop>4.0</vdop><extensions><gom:speed>0.644</gom:speed></extensions></trkpt>
   <trkpt lat="59.0687639985" lon="30.0353264738"><ele>51.056</ele><time>2026-04-20T19:53:28.075Z</time><hdop>5.437</hdop><vdop>4.125</vdop><extensions><gom:speed>0.57</gom:speed></extensions></trkpt>
   <trkpt lat="59.0687560776" lon="30.0353330955"><ele>50.174</ele><time>2026-04-20T19:53:29.075Z</time><hdop>5.187</hdop><vdop>4.25</vdop><extensions><gom:speed>0.507</gom:speed></extensions></trkpt>
   <trkpt lat="59.0687513838" lon="30.0353380409"><ele>49.647</ele><time>2026-04-20T19:53:29.796Z</time><hdop>5.062</hdop><vdop>4.25</vdop><extensions><gom:speed>0.542</gom:speed></extensions></trkpt>
   <trkpt lat="59.0687448878" lon="30.0353486859"><ele>49.186</ele><time>2026-04-20T19:53:30.804Z</time><hdop>4.937</hdop><vdop>4.375</vdop><extensions><gom:speed>0.587</gom:speed></extensions></trkpt>
   <trkpt lat="59.0687374698" lon="30.0353612587"><ele>48.359</ele><time>2026-04-20T19:53:31.782Z</time><hdop>4.812</hdop><vdop>4.312</vdop><extensions><gom:speed>0.608</gom:speed></extensions></trkpt>
   <trkpt lat="59.0687339913" lon="30.0353718199"><ele>47.386</ele><time>2026-04-20T19:53:32.581Z</time><hdop>4.687</hdop><vdop>4.25</vdop><extensions><gom:speed>0.602</gom:speed></extensions></trkpt>
   <trkpt lat="59.0687315606" lon="30.0353783578"><ele>46.632</ele><time>2026-04-20T19:53:33.075Z</time><hdop>4.687</hdop><vdop>4.187</vdop><extensions><gom:speed>0.601</gom:speed></extensions></trkpt>
   <trkpt lat="59.0687256932" lon="30.0353838899"><ele>46.53</ele><time>2026-04-20T19:53:34.007Z</time><hdop>4.625</hdop><vdop>4.25</vdop><extensions><gom:speed>0.597</gom:speed></extensions></trkpt>
   <trkpt lat="59.0687198678" lon="30.0353863206"><ele>46.469</ele><time>2026-04-20T19:53:35.038Z</time><hdop>4.625</hdop><vdop>4.25</vdop><extensions><gom:speed>0.606</gom:speed></extensions></trkpt>
   <trkpt lat="59.0687139586" lon="30.0353888352"><ele>46.141</ele><time>2026-04-20T19:53:35.936Z</time><hdop>4.687</hdop><vdop>4.0</vdop><extensions><gom:speed>0.654</gom:speed></extensions></trkpt>
   <trkpt lat="59.068708678" lon="30.0353926909"><ele>45.379</ele><time>2026-04-20T19:53:36.715Z</time><hdop>4.75</hdop><vdop>3.937</vdop><extensions><gom:speed>0.697</gom:speed></extensions></trkpt>
   <trkpt lat="59.0687029783" lon="30.0353981391"><ele>44.794</ele><time>2026-04-20T19:53:37.515Z</time><hdop>4.75</hdop><vdop>3.937</vdop><extensions><gom:speed>0.72</gom:speed></extensions></trkpt>
   <trkpt lat="59.06870126" lon="30.0354018271"><ele>44.048</ele><time>2026-04-20T19:53:38.075Z</time><hdop>4.75</hdop><vdop>3.937</vdop><extensions><gom:speed>0.712</gom:speed></extensions></trkpt>
   <trkpt lat="59.0686966919" lon="30.0354085327"><ele>43.444</ele><time>2026-04-20T19:53:39.075Z</time><hdop>4.812</hdop><vdop>4.0</vdop><extensions><gom:speed>0.718</gom:speed></extensions></trkpt>
   <trkpt lat="59.0686911598" lon="30.0354131427"><ele>43.082</ele><time>2026-04-20T19:53:40.024Z</time><hdop>4.812</hdop><vdop>4.0</vdop><extensions><gom:speed>0.73</gom:speed></extensions></trkpt>
   <trkpt lat="59.0686856697" lon="30.0354231172"><ele>42.846</ele><time>2026-04-20T19:53:40.980Z</time><hdop>4.75</hdop><vdop>4.312</vdop><extensions><gom:speed>0.688</gom:speed></extensions></trkpt>
   <trkpt lat="59.0686798861" lon="30.0354332593"><ele>42.101</ele><time>2026-04-20T19:53:41.938Z</time><hdop>4.75</hdop><vdop>4.437</vdop><extensions><gom:speed>0.67</gom:speed></extensions></trkpt>
   <trkpt lat="59.0686721748" lon="30.0354441558"><ele>41.53</ele><time>2026-04-20T19:53:43.075Z</time><hdop>4.687</hdop><vdop>8.187</vdop><extensions><gom:speed>0.59</gom:speed></extensions></trkpt>
   <trkpt lat="59.0686674809" lon="30.035446838"><ele>41.122</ele><time>2026-04-20T19:53:43.957Z</time><hdop>4.75</hdop><vdop>8.75</vdop><extensions><gom:speed>0.477</gom:speed></extensions></trkpt>
   <trkpt lat="59.0686671876" lon="30.0354474247"><ele>40.878</ele><time>2026-04-20T19:53:44.644Z</time><hdop>4.75</hdop><vdop>8.75</vdop><extensions><gom:speed>0.407</gom:speed></extensions></trkpt>
   <trkpt lat="59.068664673" lon="30.0354515318"><ele>40.454</ele><time>2026-04-20T19:53:45.443Z</time><hdop>4.812</hdop><vdop>8.875</vdop><extensions><gom:speed>0.337</gom:speed></extensions></trkpt>
   <trkpt lat="59.0686629966" lon="30.0354517833"><ele>40.114</ele><time>2026-04-20T19:53:45.971Z</time><hdop>4.812</hdop><vdop>9.0</vdop><extensions><gom:speed>0.34</gom:speed></extensions></trkpt>
   <trkpt lat="59.0686596858" lon="30.0354524538"><ele>40.602</ele><time>2026-04-20T19:53:47.075Z</time><hdop>4.937</hdop><vdop>8.937</vdop><extensions><gom:speed>0.336</gom:speed></extensions></trkpt>
   <trkpt lat="59.0686566683" lon="30.035454717"><ele>40.894</ele><time>2026-04-20T19:53:47.999Z</time><hdop>5.062</hdop><vdop>8.937</vdop><extensions><gom:speed>0.352</gom:speed></extensions></trkpt>
   <trkpt lat="59.0686533993" lon="30.0354579859"><ele>39.891</ele><time>2026-04-20T19:53:48.877Z</time><hdop>5.187</hdop><vdop>8.687</vdop><extensions><gom:speed>0.374</gom:speed></extensions></trkpt>
   <trkpt lat="59.068650759" lon="30.0354621769"><ele>38.345</ele><time>2026-04-20T19:53:49.541Z</time><hdop>5.312</hdop><vdop>8.312</vdop><extensions><gom:speed>0.426</gom:speed></extensions></trkpt>
   <trkpt lat="59.0686490826" lon="30.0354678765"><ele>38.498</ele><time>2026-04-20T19:53:50.075Z</time><hdop>5.375</hdop><vdop>7.5</vdop><extensions><gom:speed>0.444</gom:speed></extensions></trkpt>
   <trkpt lat="59.0686465681" lon="30.0354767614"><ele>38.427</ele><time>2026-04-20T19:53:50.946Z</time><hdop>5.562</hdop><vdop>7.125</vdop><extensions><gom:speed>0.478</gom:speed></extensions></trkpt>
   <trkpt lat="59.0686422933" lon="30.0354844727"><ele>38.026</ele><time>2026-04-20T19:53:52.076Z</time><hdop>5.687</hdop><vdop>6.687</vdop><extensions><gom:speed>0.5</gom:speed></extensions></trkpt>
   <trkpt lat="59.0686387729" lon="30.0354880769"><ele>37.787</ele><time>2026-04-20T19:53:53.013Z</time><hdop>5.812</hdop><vdop>6.687</vdop><extensions><gom:speed>0.456</gom:speed></extensions></trkpt>
   <trkpt lat="59.0686363841" lon="30.035492687"><ele>36.821</ele><time>2026-04-20T19:53:54.075Z</time><hdop>5.75</hdop><vdop>5.812</vdop><extensions><gom:speed>0.366</gom:speed></extensions></trkpt>
   <trkpt lat="59.0686364679" lon="30.0354966265"><ele>36.243</ele><time>2026-04-20T19:53:54.721Z</time><hdop>5.75</hdop><vdop>5.812</vdop><extensions><gom:speed>0.374</gom:speed></extensions></trkpt>
   <trkpt lat="59.0686372642" lon="30.0355055951"><ele>35.803</ele><time>2026-04-20T19:53:55.619Z</time><hdop>5.625</hdop><vdop>5.562</vdop><extensions><gom:speed>0.424</gom:speed></extensions></trkpt>
   <trkpt lat="59.0686383957" lon="30.0355165754"><ele>34.69</ele><time>2026-04-20T19:53:56.075Z</time><hdop>5.562</hdop><vdop>5.312</vdop><extensions><gom:speed>0.468</gom:speed></extensions></trkpt>
   <trkpt lat="59.0686388986" lon="30.0355200958"><ele>34.025</ele><time>2026-04-20T19:53:56.557Z</time><hdop>5.437</hdop><vdop>5.312</vdop><extensions><gom:speed>0.459</gom:speed></extensions></trkpt>
   <trkpt lat="59.0686396949" lon="30.0355263822"><ele>33.637</ele><time>2026-04-20T19:53:57.075Z</time><hdop>5.437</hdop><vdop>5.375</vdop><extensions><gom:speed>0.45</gom:speed></extensions></trkpt>
   <trkpt lat="59.0686396949" lon="30.0355332554"><ele>33.264</ele><time>2026-04-20T19:53:58.075Z</time><hdop>5.25</hdop><vdop>9.5</vdop><extensions><gom:speed>0.312</gom:speed></extensions></trkpt>
   <trkpt lat="59.0686389825" lon="30.0355325848"><ele>33.041</ele><time>2026-04-20T19:53:58.759Z</time><hdop>5.25</hdop><vdop>9.5</vdop><extensions><gom:speed>0.24</gom:speed></extensions></trkpt>
   <trkpt lat="59.0686369708" lon="30.0355381169"><ele>32.42</ele><time>2026-04-20T19:53:59.737Z</time><hdop>5.125</hdop><vdop>9.437</vdop><extensions><gom:speed>0.263</gom:speed></extensions></trkpt>
   <trkpt lat="59.0686351687" lon="30.0355462473"><ele>30.931</ele><time>2026-04-20T19:54:00.379Z</time><hdop>5.125</hdop><vdop>7.937</vdop><extensions><gom:speed>0.29</gom:speed></extensions></trkpt>
   <trkpt lat="59.0686335761" lon="30.0355487619"><ele>30.041</ele><time>2026-04-20T19:54:00.999Z</time><hdop>5.125</hdop><vdop>7.937</vdop><extensions><gom:speed>0.295</gom:speed></extensions></trkpt>
   <trkpt lat="59.0686309777" lon="30.0355562218"><ele>29.308</ele><time>2026-04-20T19:54:01.721Z</time><hdop>5.062</hdop><vdop>7.062</vdop><extensions><gom:speed>0.3</gom:speed></extensions></trkpt>
   <trkpt lat="59.0686275831" lon="30.0355650228"><ele>27.878</ele><time>2026-04-20T19:54:02.659Z</time><hdop>5.125</hdop><vdop>6.687</vdop><extensions><gom:speed>0.31</gom:speed></extensions></trkpt>
   <trkpt lat="59.0686241884" lon="30.035575584"><ele>27.023</ele><time>2026-04-20T19:54:03.358Z</time><hdop>5.125</hdop><vdop>6.312</vdop><extensions><gom:speed>0.36</gom:speed></extensions></trkpt>
   <trkpt lat="59.0686203746" lon="30.035583463"><ele>26.716</ele><time>2026-04-20T19:54:04.076Z</time><hdop>5.062</hdop><vdop>6.437</vdop><extensions><gom:speed>0.386</gom:speed></extensions></trkpt>
   <trkpt lat="59.0686139625" lon="30.0355927669"><ele>26.139</ele><time>2026-04-20T19:54:05.075Z</time><hdop>5.062</hdop><vdop>6.312</vdop><extensions><gom:speed>0.393</gom:speed></extensions></trkpt>
   <trkpt lat="59.0686069636" lon="30.0355993886"><ele>25.547</ele><time>2026-04-20T19:54:06.075Z</time><hdop>5.062</hdop><vdop>6.125</vdop><extensions><gom:speed>0.391</gom:speed></extensions></trkpt>
   <trkpt lat="59.0685992941" lon="30.035603831"><ele>24.964</ele><time>2026-04-20T19:54:07.075Z</time><hdop>5.062</hdop><vdop>6.125</vdop><extensions><gom:speed>0.408</gom:speed></extensions></trkpt>
   <trkpt lat="59.0685913732" lon="30.0356079381"><ele>24.899</ele><time>2026-04-20T19:54:08.076Z</time><hdop>5.0</hdop><vdop>6.0</vdop><extensions><gom:speed>0.4</gom:speed></extensions></trkpt>
   <trkpt lat="59.068584081" lon="30.0356148951"><ele>25.015</ele><time>2026-04-20T19:54:09.075Z</time><hdop>5.0</hdop><vdop>6.0</vdop><extensions><gom:speed>0.425</gom:speed></extensions></trkpt>
   <trkpt lat="59.0685791776" lon="30.0356220197"><ele>25.085</ele><time>2026-04-20T19:54:09.854Z</time><hdop>5.0</hdop><vdop>6.0</vdop><extensions><gom:speed>0.525</gom:speed></extensions></trkpt>
   <trkpt lat="59.0685706699" lon="30.0356290605"><ele>26.114</ele><time>2026-04-20T19:54:10.724Z</time><hdop>4.937</hdop><vdop>5.937</vdop><extensions><gom:speed>0.547</gom:speed></extensions></trkpt>
   <trkpt lat="59.0685615756" lon="30.0356349279"><ele>26.877</ele><time>2026-04-20T19:54:12.032Z</time><hdop>4.937</hdop><vdop>5.812</vdop><extensions><gom:speed>0.472</gom:speed></extensions></trkpt>
   <trkpt lat="59.0685566722" lon="30.0356370234"><ele>26.879</ele><time>2026-04-20T19:54:13.075Z</time><hdop>4.875</hdop><vdop>5.687</vdop><extensions><gom:speed>0.381</gom:speed></extensions></trkpt>
   <trkpt lat="59.0685557921" lon="30.0356356822"><ele>27.22</ele><time>2026-04-20T19:54:14.046Z</time><hdop>4.875</hdop><vdop>5.562</vdop><extensions><gom:speed>0.219</gom:speed></extensions></trkpt>
   <trkpt lat="59.0685579714" lon="30.0356319942"><ele>27.424</ele><time>2026-04-20T19:54:14.919Z</time><hdop>4.812</hdop><vdop>5.562</vdop><extensions><gom:speed>0.124</gom:speed></extensions></trkpt>
   <trkpt lat="59.0685545767" lon="30.0356329162"><ele>27.482</ele><time>2026-04-20T19:54:15.659Z</time><hdop>4.812</hdop><vdop>5.5</vdop><extensions><gom:speed>0.122</gom:speed></extensions></trkpt>
   <trkpt lat="59.0685498828" lon="30.0356346764"><ele>27.436</ele><time>2026-04-20T19:54:17.008Z</time><hdop>4.75</hdop><vdop>5.25</vdop><extensions><gom:speed>0.12</gom:speed></extensions></trkpt>
   <trkpt lat="59.0685466977" lon="30.0356360175"><ele>27.076</ele><time>2026-04-20T19:54:18.075Z</time><hdop>4.687</hdop><vdop>4.875</vdop><extensions><gom:speed>0.09</gom:speed></extensions></trkpt>
   <trkpt lat="59.0685453985" lon="30.0356363528"><ele>26.47</ele><time>2026-04-20T19:54:19.021Z</time><hdop>4.687</hdop><vdop>4.687</vdop><extensions><gom:speed>0.092</gom:speed></extensions></trkpt>
   <trkpt lat="59.068542381" lon="30.035639035"><ele>25.629</ele><time>2026-04-20T19:54:20.075Z</time><hdop>4.625</hdop><vdop>4.437</vdop><extensions><gom:speed>0.097</gom:speed></extensions></trkpt>
   <trkpt lat="59.0685385673" lon="30.0356410467"><ele>25.122</ele><time>2026-04-20T19:54:21.076Z</time><hdop>4.687</hdop><vdop>4.25</vdop><extensions><gom:speed>0.087</gom:speed></extensions></trkpt>
   <trkpt lat="59.068536388" lon="30.0356420525"><ele>24.477</ele><time>2026-04-20T19:54:22.075Z</time><hdop>4.687</hdop><vdop>4.062</vdop><extensions><gom:speed>0.111</gom:speed></extensions></trkpt>
   <trkpt lat="59.0685356755" lon="30.0356428907"><ele>23.688</ele><time>2026-04-20T19:54:23.075Z</time><hdop>4.625</hdop><vdop>3.937</vdop><extensions><gom:speed>0.079</gom:speed></extensions></trkpt>
   <trkpt lat="59.0685341668" lon="30.03564507"><ele>23.173</ele><time>2026-04-20T19:54:24.075Z</time><hdop>4.562</hdop><vdop>4.0</vdop><extensions><gom:speed>0.073</gom:speed></extensions></trkpt>
   <trkpt lat="59.0685334962" lon="30.035645992"><ele>22.613</ele><time>2026-04-20T19:54:24.944Z</time><hdop>4.375</hdop><vdop>4.062</vdop><extensions><gom:speed>0.061</gom:speed></extensions></trkpt>
   <trkpt lat="59.0685328676" lon="30.0356454891"><ele>22.278</ele><time>2026-04-20T19:54:25.441Z</time><hdop>4.312</hdop><vdop>4.062</vdop><extensions><gom:speed>0.031</gom:speed></extensions></trkpt>
   <trkpt lat="59.0685325742" lon="30.0356455729"><ele>22.078</ele><time>2026-04-20T19:54:26.035Z</time><hdop>4.312</hdop><vdop>4.062</vdop><extensions><gom:speed>0.074</gom:speed></extensions></trkpt>
   <trkpt lat="59.0685313588" lon="30.0356481713"><ele>21.778</ele><time>2026-04-20T19:54:26.602Z</time><hdop>4.312</hdop><vdop>4.187</vdop><extensions><gom:speed>0.063</gom:speed></extensions></trkpt>
   <trkpt lat="59.0685286766" lon="30.0356540386"><ele>21.678</ele><time>2026-04-20T19:54:27.075Z</time><hdop>4.25</hdop><vdop>4.0</vdop><extensions><gom:speed>0.101</gom:speed></extensions></trkpt>
   <trkpt lat="59.0685256591" lon="30.0356592354"><ele>21.379</ele><time>2026-04-20T19:54:28.075Z</time><hdop>4.187</hdop><vdop>3.875</vdop><extensions><gom:speed>0.134</gom:speed></extensions></trkpt>
   <trkpt lat="59.0685239827" lon="30.03566175"><ele>20.891</ele><time>2026-04-20T19:54:28.971Z</time><hdop>4.187</hdop><vdop>3.875</vdop><extensions><gom:speed>0.138</gom:speed></extensions></trkpt>
   <trkpt lat="59.0685234798" lon="30.0356636778"><ele>20.599</ele><time>2026-04-20T19:54:29.578Z</time><hdop>4.25</hdop><vdop>3.875</vdop><extensions><gom:speed>0.19</gom:speed></extensions></trkpt>
   <trkpt lat="59.0685206719" lon="30.0356694613"><ele>19.818</ele><time>2026-04-20T19:54:30.075Z</time><hdop>4.25</hdop><vdop>3.687</vdop><extensions><gom:speed>0.245</gom:speed></extensions></trkpt>
   <trkpt lat="59.0685158942" lon="30.0356812798"><ele>18.857</ele><time>2026-04-20T19:54:31.076Z</time><hdop>4.312</hdop><vdop>3.75</vdop><extensions><gom:speed>0.319</gom:speed></extensions></trkpt>
   <trkpt lat="59.068511368" lon="30.0356948585"><ele>18.255</ele><time>2026-04-20T19:54:32.075Z</time><hdop>4.375</hdop><vdop>9.75</vdop><extensions><gom:speed>0.392</gom:speed></extensions></trkpt>
   <trkpt lat="59.0685098592" lon="30.0356988818"><ele>17.895</ele><time>2026-04-20T19:54:32.763Z</time><hdop>4.5</hdop><vdop>9.75</vdop><extensions><gom:speed>0.382</gom:speed></extensions></trkpt>
   <trkpt lat="59.0685053749" lon="30.0357106165"><ele>17.623</ele><time>2026-04-20T19:54:33.496Z</time><hdop>4.562</hdop><vdop>10.0</vdop><extensions><gom:speed>0.372</gom:speed></extensions></trkpt>
   <trkpt lat="59.0685047882" lon="30.0357141369"><ele>17.445</ele><time>2026-04-20T19:54:33.947Z</time><hdop>4.625</hdop><vdop>9.687</vdop><extensions><gom:speed>0.373</gom:speed></extensions></trkpt>
   <trkpt lat="59.0685046625" lon="30.0357212615"><ele>17.338</ele><time>2026-04-20T19:54:35.038Z</time><hdop>4.687</hdop><vdop>9.687</vdop><extensions><gom:speed>0.406</gom:speed></extensions></trkpt>
   <trkpt lat="59.0685041595" lon="30.0357335829"><ele>17.746</ele><time>2026-04-20T19:54:35.898Z</time><hdop>4.812</hdop><vdop>8.125</vdop><extensions><gom:speed>0.465</gom:speed></extensions></trkpt>
   <trkpt lat="59.0684980827" lon="30.0357496761"><ele>18.743</ele><time>2026-04-20T19:54:37.075Z</time><hdop>4.937</hdop><vdop>6.75</vdop><extensions><gom:speed>0.375</gom:speed></extensions></trkpt>
   <trkpt lat="59.0684928859" lon="30.0357542862"><ele>19.237</ele><time>2026-04-20T19:54:38.076Z</time><hdop>5.0</hdop><vdop>6.437</vdop><extensions><gom:speed>0.267</gom:speed></extensions></trkpt>
   <trkpt lat="59.0684907904" lon="30.0357553758"><ele>19.533</ele><time>2026-04-20T19:54:38.660Z</time><hdop>5.125</hdop><vdop>6.437</vdop><extensions><gom:speed>0.256</gom:speed></extensions></trkpt>
   <trkpt lat="59.0684852583" lon="30.0357653503"><ele>18.777</ele><time>2026-04-20T19:54:39.989Z</time><hdop>5.125</hdop><vdop>5.812</vdop><extensions><gom:speed>0.275</gom:speed></extensions></trkpt>
   <trkpt lat="59.0684825761" lon="30.0357692898"><ele>18.441</ele><time>2026-04-20T19:54:41.076Z</time><hdop>5.125</hdop><vdop>5.875</vdop><extensions><gom:speed>0.196</gom:speed></extensions></trkpt>
   <trkpt lat="59.0684818637" lon="30.0357711338"><ele>18.241</ele><time>2026-04-20T19:54:42.056Z</time><hdop>5.187</hdop><vdop>5.875</vdop><extensions><gom:speed>0.177</gom:speed></extensions></trkpt>
   <trkpt lat="59.0684786786" lon="30.0357790966"><ele>18.117</ele><time>2026-04-20T19:54:42.984Z</time><hdop>5.187</hdop><vdop>5.625</vdop><extensions><gom:speed>0.205</gom:speed></extensions></trkpt>
   <trkpt lat="59.0684715958" lon="30.0357939326"><ele>18.426</ele><time>2026-04-20T19:54:44.075Z</time><hdop>5.125</hdop><vdop>5.75</vdop><extensions><gom:speed>0.293</gom:speed></extensions></trkpt>
   <trkpt lat="59.0684653932" lon="30.0358088524"><ele>18.383</ele><time>2026-04-20T19:54:45.076Z</time><hdop>5.062</hdop><vdop>5.687</vdop><extensions><gom:speed>0.424</gom:speed></extensions></trkpt>
   <trkpt lat="59.0684607832" lon="30.0358201679"><ele>18.358</ele><time>2026-04-20T19:54:45.914Z</time><hdop>5.0</hdop><vdop>5.687</vdop><extensions><gom:speed>0.529</gom:speed></extensions></trkpt>
   <trkpt lat="59.068452066" lon="30.0358434696"><ele>17.98</ele><time>2026-04-20T19:54:47.001Z</time><hdop>4.937</hdop><vdop>5.75</vdop><extensions><gom:speed>0.607</gom:speed></extensions></trkpt>
   <trkpt lat="59.0684456958" lon="30.0358657655"><ele>17.098</ele><time>2026-04-20T19:54:48.076Z</time><hdop>4.75</hdop><vdop>5.937</vdop><extensions><gom:speed>0.587</gom:speed></extensions></trkpt>
   <trkpt lat="59.0684450671" lon="30.0358777516"><ele>16.57</ele><time>2026-04-20T19:54:49.054Z</time><hdop>4.687</hdop><vdop>5.937</vdop><extensions><gom:speed>0.561</gom:speed></extensions></trkpt>
   <trkpt lat="59.0684402894" lon="30.0358901568"><ele>15.785</ele><time>2026-04-20T19:54:49.716Z</time><hdop>4.625</hdop><vdop>5.687</vdop><extensions><gom:speed>0.601</gom:speed></extensions></trkpt>
   <trkpt lat="59.0684315723" lon="30.0359021429"><ele>15.161</ele><time>2026-04-20T19:54:50.940Z</time><hdop>4.437</hdop><vdop>5.5</vdop><extensions><gom:speed>0.509</gom:speed></extensions></trkpt>
   <trkpt lat="59.0684234837" lon="30.0359115307"><ele>14.598</ele><time>2026-04-20T19:54:51.699Z</time><hdop>4.312</hdop><vdop>5.437</vdop><extensions><gom:speed>0.548</gom:speed></extensions></trkpt>
   <trkpt lat="59.0684208853" lon="30.0359149673"><ele>13.963</ele><time>2026-04-20T19:54:52.411Z</time><hdop>4.25</hdop><vdop>5.5</vdop><extensions><gom:speed>0.575</gom:speed></extensions></trkpt>
   <trkpt lat="59.0684155628" lon="30.0359217566"><ele>13.602</ele><time>2026-04-20T19:54:53.075Z</time><hdop>4.25</hdop><vdop>5.375</vdop><extensions><gom:speed>0.592</gom:speed></extensions></trkpt>
   <trkpt lat="59.0684100727" lon="30.0359239359"><ele>13.498</ele><time>2026-04-20T19:54:53.967Z</time><hdop>4.25</hdop><vdop>5.375</vdop><extensions><gom:speed>0.558</gom:speed></extensions></trkpt>
   <trkpt lat="59.0684063846" lon="30.035928043"><ele>13.563</ele><time>2026-04-20T19:54:55.075Z</time><hdop>4.25</hdop><vdop>5.25</vdop><extensions><gom:speed>0.382</gom:speed></extensions></trkpt>
   <trkpt lat="59.0684054626" lon="30.0359387719"><ele>13.619</ele><time>2026-04-20T19:54:56.075Z</time><hdop>4.375</hdop><vdop>5.312</vdop><extensions><gom:speed>0.391</gom:speed></extensions></trkpt>
   <trkpt lat="59.0684051693" lon="30.0359457288"><ele>13.653</ele><time>2026-04-20T19:54:57.020Z</time><hdop>4.5</hdop><vdop>5.312</vdop><extensions><gom:speed>0.369</gom:speed></extensions></trkpt>
   <trkpt lat="59.0684039958" lon="30.0359505903"><ele>13.542</ele><time>2026-04-20T19:54:57.520Z</time><hdop>4.5</hdop><vdop>5.437</vdop><extensions><gom:speed>0.396</gom:speed></extensions></trkpt>
   <trkpt lat="59.0684019841" lon="30.0359603972"><ele>13.326</ele><time>2026-04-20T19:54:57.993Z</time><hdop>4.625</hdop><vdop>5.437</vdop><extensions><gom:speed>0.456</gom:speed></extensions></trkpt>
   <trkpt lat="59.0684004754" lon="30.0359671865"><ele>13.196</ele><time>2026-04-20T19:54:58.975Z</time><hdop>4.75</hdop><vdop>5.437</vdop><extensions><gom:speed>0.476</gom:speed></extensions></trkpt>
   <trkpt lat="59.0683979608" lon="30.0359770772"><ele>12.769</ele><time>2026-04-20T19:54:59.813Z</time><hdop>4.812</hdop><vdop>5.5</vdop><extensions><gom:speed>0.539</gom:speed></extensions></trkpt>
   <trkpt lat="59.0683953624" lon="30.0359883927"><ele>12.166</ele><time>2026-04-20T19:55:00.475Z</time><hdop>4.937</hdop><vdop>5.437</vdop><extensions><gom:speed>0.589</gom:speed></extensions></trkpt>
   <trkpt lat="59.0683923869" lon="30.0359962717"><ele>11.604</ele><time>2026-04-20T19:55:01.075Z</time><hdop>4.937</hdop><vdop>5.562</vdop><extensions><gom:speed>0.607</gom:speed></extensions></trkpt>
   <trkpt lat="59.0683851784" lon="30.0360074197"><ele>11.315</ele><time>2026-04-20T19:55:02.075Z</time><hdop>5.125</hdop><vdop>5.562</vdop><extensions><gom:speed>0.623</gom:speed></extensions></trkpt>
   <trkpt lat="59.0683792692" lon="30.0360141252"><ele>11.141</ele><time>2026-04-20T19:55:02.874Z</time><hdop>5.187</hdop><vdop>5.562</vdop><extensions><gom:speed>0.682</gom:speed></extensions></trkpt>
   <trkpt lat="59.0683704682" lon="30.0360236805"><ele>10.987</ele><time>2026-04-20T19:55:03.636Z</time><hdop>5.25</hdop><vdop>5.625</vdop><extensions><gom:speed>0.801</gom:speed></extensions></trkpt>
   <trkpt lat="59.0683591945" lon="30.0360381812"><ele>10.445</ele><time>2026-04-20T19:55:04.503Z</time><hdop>5.25</hdop><vdop>5.312</vdop><extensions><gom:speed>0.829</gom:speed></extensions></trkpt>
   <trkpt lat="59.0683536625" lon="30.0360494968"><ele>9.777</ele><time>2026-04-20T19:55:05.075Z</time><hdop>5.187</hdop><vdop>5.187</vdop><extensions><gom:speed>0.871</gom:speed></extensions></trkpt>
   <trkpt lat="59.0683484657" lon="30.0360648357"><ele>9.377</ele><time>2026-04-20T19:55:06.004Z</time><hdop>5.187</hdop><vdop>5.187</vdop><extensions><gom:speed>0.85</gom:speed></extensions></trkpt>
   <trkpt lat="59.0683431851" lon="30.0360841979"><ele>8.699</ele><time>2026-04-20T19:55:06.979Z</time><hdop>5.187</hdop><vdop>4.875</vdop><extensions><gom:speed>0.836</gom:speed></extensions></trkpt>
   <trkpt lat="59.0683395809" lon="30.0360988662"><ele>8.434</ele><time>2026-04-20T19:55:07.702Z</time><hdop>5.25</hdop><vdop>4.812</vdop><extensions><gom:speed>0.752</gom:speed></extensions></trkpt>
   <trkpt lat="59.0683341745" lon="30.0361211621"><ele>8.612</ele><time>2026-04-20T19:55:09.075Z</time><hdop>5.25</hdop><vdop>5.0</vdop><extensions><gom:speed>0.651</gom:speed></extensions></trkpt>
   <trkpt lat="59.0683340907" lon="30.0361217488"><ele>8.718</ele><time>2026-04-20T19:55:09.839Z</time><hdop>5.25</hdop><vdop>5.0</vdop><extensions><gom:speed>0.528</gom:speed></extensions></trkpt>
   <trkpt lat="59.0683314923" lon="30.0361274485"><ele>9.471</ele><time>2026-04-20T19:55:11.025Z</time><hdop>5.25</hdop><vdop>4.875</vdop><extensions><gom:speed>0.326</gom:speed></extensions></trkpt>
   <trkpt lat="59.0683308637" lon="30.0361263589"><ele>10.734</ele><time>2026-04-20T19:55:12.075Z</time><hdop>5.187</hdop><vdop>4.75</vdop><extensions><gom:speed>0.242</gom:speed></extensions></trkpt>
   <trkpt lat="59.0683301931" lon="30.0361236766"><ele>12.14</ele><time>2026-04-20T19:55:13.075Z</time><hdop>5.062</hdop><vdop>4.687</vdop><extensions><gom:speed>0.133</gom:speed></extensions></trkpt>
   <trkpt lat="59.0683285587" lon="30.0361217488"><ele>13.428</ele><time>2026-04-20T19:55:14.075Z</time><hdop>4.875</hdop><vdop>4.687</vdop><extensions><gom:speed>0.103</gom:speed></extensions></trkpt>
   <trkpt lat="59.0683259603" lon="30.0361186475"><ele>13.976</ele><time>2026-04-20T19:55:15.076Z</time><hdop>4.75</hdop><vdop>4.437</vdop><extensions><gom:speed>0.136</gom:speed></extensions></trkpt>
   <trkpt lat="59.0683249964" lon="30.0361187313"><ele>14.303</ele><time>2026-04-20T19:55:15.682Z</time><hdop>4.562</hdop><vdop>4.437</vdop><extensions><gom:speed>0.119</gom:speed></extensions></trkpt>
   <trkpt lat="59.0683205959" lon="30.0361168873"><ele>14.653</ele><time>2026-04-20T19:55:16.864Z</time><hdop>4.437</hdop><vdop>4.437</vdop><extensions><gom:speed>0.12</gom:speed></extensions></trkpt>
   <trkpt lat="59.0683158601" lon="30.0361143727"><ele>14.457</ele><time>2026-04-20T19:55:18.013Z</time><hdop>4.437</hdop><vdop>4.187</vdop><extensions><gom:speed>0.127</gom:speed></extensions></trkpt>
   <trkpt lat="59.0683109986" lon="30.0361104332"><ele>14.775</ele><time>2026-04-20T19:55:19.075Z</time><hdop>4.5</hdop><vdop>4.25</vdop><extensions><gom:speed>0.125</gom:speed></extensions></trkpt>
   <trkpt lat="59.0683063885" lon="30.0361059908"><ele>14.819</ele><time>2026-04-20T19:55:20.075Z</time><hdop>4.562</hdop><vdop>4.125</vdop><extensions><gom:speed>0.113</gom:speed></extensions></trkpt>
   <trkpt lat="59.0683022814" lon="30.0360993691"><ele>15.017</ele><time>2026-04-20T19:55:21.075Z</time><hdop>4.687</hdop><vdop>4.125</vdop><extensions><gom:speed>0.1</gom:speed></extensions></trkpt>
   <trkpt lat="59.0682988867" lon="30.0360941724"><ele>15.474</ele><time>2026-04-20T19:55:22.075Z</time><hdop>4.75</hdop><vdop>4.062</vdop><extensions><gom:speed>0.123</gom:speed></extensions></trkpt>
   <trkpt lat="59.0682980904" lon="30.0360922445"><ele>15.748</ele><time>2026-04-20T19:55:22.943Z</time><hdop>4.75</hdop><vdop>4.062</vdop><extensions><gom:speed>0.103</gom:speed></extensions></trkpt>
   <trkpt lat="59.0682967913" lon="30.0360879697"><ele>16.989</ele><time>2026-04-20T19:55:24.075Z</time><hdop>4.75</hdop><vdop>3.75</vdop><extensions><gom:speed>0.102</gom:speed></extensions></trkpt>
   <trkpt lat="59.0682963722" lon="30.0360869639"><ele>17.798</ele><time>2026-04-20T19:55:25.001Z</time><hdop>4.75</hdop><vdop>3.625</vdop><extensions><gom:speed>0.107</gom:speed></extensions></trkpt>
   <trkpt lat="59.0682962883" lon="30.036087383"><ele>17.755</ele><time>2026-04-20T19:55:25.950Z</time><hdop>4.75</hdop><vdop>3.562</vdop><extensions><gom:speed>0.099</gom:speed></extensions></trkpt>
   <trkpt lat="59.0682953663" lon="30.0360851199"><ele>18.085</ele><time>2026-04-20T19:55:27.075Z</time><hdop>4.687</hdop><vdop>3.562</vdop><extensions><gom:speed>0.128</gom:speed></extensions></trkpt>
   <trkpt lat="59.0682943605" lon="30.0360842817"><ele>18.135</ele><time>2026-04-20T19:55:27.964Z</time><hdop>4.625</hdop><vdop>3.75</vdop><extensions><gom:speed>0.115</gom:speed></extensions></trkpt>
   <trkpt lat="59.0682941929" lon="30.0360842817"><ele>18.165</ele><time>2026-04-20T19:55:28.618Z</time><hdop>4.625</hdop><vdop>3.75</vdop><extensions><gom:speed>0.086</gom:speed></extensions></trkpt>
   <trkpt lat="59.0682934804" lon="30.0360821862"><ele>18.441</ele><time>2026-04-20T19:55:29.076Z</time><hdop>4.625</hdop><vdop>4.0</vdop><extensions><gom:speed>0.122</gom:speed></extensions></trkpt>
   <trkpt lat="59.0682930613" lon="30.0360811804"><ele>18.606</ele><time>2026-04-20T19:55:29.717Z</time><hdop>4.625</hdop><vdop>4.0</vdop><extensions><gom:speed>0.122</gom:speed></extensions></trkpt>
   <trkpt lat="59.0682917621" lon="30.036080426"><ele>18.776</ele><time>2026-04-20T19:55:30.474Z</time><hdop>4.562</hdop><vdop>4.062</vdop><extensions><gom:speed>0.132</gom:speed></extensions></trkpt>
   <trkpt lat="59.0682901695" lon="30.0360808451"><ele>19.273</ele><time>2026-04-20T19:55:31.075Z</time><hdop>4.5</hdop><vdop>4.187</vdop><extensions><gom:speed>0.179</gom:speed></extensions></trkpt>
   <trkpt lat="59.0682850985" lon="30.0360825215"><ele>19.558</ele><time>2026-04-20T19:55:32.075Z</time><hdop>4.5</hdop><vdop>4.25</vdop><extensions><gom:speed>0.279</gom:speed></extensions></trkpt>
   <trkpt lat="59.0682781834" lon="30.036082773"><ele>19.728</ele><time>2026-04-20T19:55:32.945Z</time><hdop>4.5</hdop><vdop>4.25</vdop><extensions><gom:speed>0.44</gom:speed></extensions></trkpt>
   <trkpt lat="59.0682669936" lon="30.0360826891"><ele>20.201</ele><time>2026-04-20T19:55:33.922Z</time><hdop>4.5</hdop><vdop>4.125</vdop><extensions><gom:speed>0.613</gom:speed></extensions></trkpt>
   <trkpt lat="59.0682614615" lon="30.0360844493"><ele>20.7</ele><time>2026-04-20T19:55:34.596Z</time><hdop>4.562</hdop><vdop>4.312</vdop><extensions><gom:speed>0.669</gom:speed></extensions></trkpt>
   <trkpt lat="59.0682531634" lon="30.0360876345"><ele>20.751</ele><time>2026-04-20T19:55:35.075Z</time><hdop>4.625</hdop><vdop>4.25</vdop><extensions><gom:speed>0.691</gom:speed></extensions></trkpt>
   <trkpt lat="59.0682486791" lon="30.0360884727"><ele>20.782</ele><time>2026-04-20T19:55:35.696Z</time><hdop>4.687</hdop><vdop>4.25</vdop><extensions><gom:speed>0.698</gom:speed></extensions></trkpt>
   <trkpt lat="59.0682412611" lon="30.0360871316"><ele>21.073</ele><time>2026-04-20T19:55:36.653Z</time><hdop>4.687</hdop><vdop>4.312</vdop><extensions><gom:speed>0.635</gom:speed></extensions></trkpt>
   <trkpt lat="59.0682356872" lon="30.0360862934"><ele>21.555</ele><time>2026-04-20T19:55:37.433Z</time><hdop>4.687</hdop><vdop>4.25</vdop><extensions><gom:speed>0.55</gom:speed></extensions></trkpt>
   <trkpt lat="59.0682308676" lon="30.0360869639"><ele>21.544</ele><time>2026-04-20T19:55:38.075Z</time><hdop>4.687</hdop><vdop>4.312</vdop><extensions><gom:speed>0.547</gom:speed></extensions></trkpt>
   <trkpt lat="59.0682236591" lon="30.0360894785"><ele>21.915</ele><time>2026-04-20T19:55:39.075Z</time><hdop>4.625</hdop><vdop>4.375</vdop><extensions><gom:speed>0.529</gom:speed></extensions></trkpt>
   <trkpt lat="59.0682177918" lon="30.0360931665"><ele>22.527</ele><time>2026-04-20T19:55:40.075Z</time><hdop>4.562</hdop><vdop>4.5</vdop><extensions><gom:speed>0.467</gom:speed></extensions></trkpt>
   <trkpt lat="59.068215864" lon="30.0360951782"><ele>22.892</ele><time>2026-04-20T19:55:40.756Z</time><hdop>4.562</hdop><vdop>4.5</vdop><extensions><gom:speed>0.448</gom:speed></extensions></trkpt>
   <trkpt lat="59.0682126789" lon="30.0360984471"><ele>23.297</ele><time>2026-04-20T19:55:41.325Z</time><hdop>4.562</hdop><vdop>4.75</vdop><extensions><gom:speed>0.437</gom:speed></extensions></trkpt>
   <trkpt lat="59.0682149839" lon="30.036098028"><ele>23.081</ele><time>2026-04-20T19:55:41.942Z</time><hdop>4.625</hdop><vdop>4.937</vdop><extensions><gom:speed>0.258</gom:speed></extensions></trkpt>
   <trkpt lat="59.0682182947" lon="30.0360958487"><ele>22.952</ele><time>2026-04-20T19:55:42.868Z</time><hdop>4.687</hdop><vdop>4.937</vdop><extensions><gom:speed>0.136</gom:speed></extensions></trkpt>
   <trkpt lat="59.0682196777" lon="30.0360947591"><ele>22.525</ele><time>2026-04-20T19:55:43.762Z</time><hdop>4.75</hdop><vdop>4.875</vdop><extensions><gom:speed>0.094</gom:speed></extensions></trkpt>
   <trkpt lat="59.0682192586" lon="30.0360940885"><ele>22.001</ele><time>2026-04-20T19:55:44.584Z</time><hdop>4.75</hdop><vdop>4.75</vdop><extensions><gom:speed>0.158</gom:speed></extensions></trkpt>
   <trkpt lat="59.0682174984" lon="30.03609434"><ele>22.172</ele><time>2026-04-20T19:55:45.075Z</time><hdop>4.75</hdop><vdop>4.75</vdop><extensions><gom:speed>0.171</gom:speed></extensions></trkpt>
   <trkpt lat="59.0682134751" lon="30.036095262"><ele>21.937</ele><time>2026-04-20T19:55:46.075Z</time><hdop>4.75</hdop><vdop>4.75</vdop><extensions><gom:speed>0.201</gom:speed></extensions></trkpt>
   <trkpt lat="59.0682120921" lon="30.0360958487"><ele>21.797</ele><time>2026-04-20T19:55:46.916Z</time><hdop>4.75</hdop><vdop>4.75</vdop><extensions><gom:speed>0.222</gom:speed></extensions></trkpt>
   <trkpt lat="59.0682092842" lon="30.0360963516"><ele>21.429</ele><time>2026-04-20T19:55:47.643Z</time><hdop>4.687</hdop><vdop>5.0</vdop><extensions><gom:speed>0.233</gom:speed></extensions></trkpt>
   <trkpt lat="59.068204297" lon="30.0360999559"><ele>21.155</ele><time>2026-04-20T19:55:49.042Z</time><hdop>4.687</hdop><vdop>5.25</vdop><extensions><gom:speed>0.253</gom:speed></extensions></trkpt>
   <trkpt lat="59.0682001898" lon="30.0361019675"><ele>21.247</ele><time>2026-04-20T19:55:49.940Z</time><hdop>4.687</hdop><vdop>5.25</vdop><extensions><gom:speed>0.267</gom:speed></extensions></trkpt>
   <trkpt lat="59.0681941968" lon="30.0361029733"><ele>21.343</ele><time>2026-04-20T19:55:51.078Z</time><hdop>4.75</hdop><vdop>5.375</vdop><extensions><gom:speed>0.3</gom:speed></extensions></trkpt>
   <trkpt lat="59.0681867788" lon="30.0361037277"><ele>21.033</ele><time>2026-04-20T19:55:51.994Z</time><hdop>4.812</hdop><vdop>5.437</vdop><extensions><gom:speed>0.394</gom:speed></extensions></trkpt>
   <trkpt lat="59.0681762595" lon="30.0361050688"><ele>20.896</ele><time>2026-04-20T19:55:52.862Z</time><hdop>4.812</hdop><vdop>5.375</vdop><extensions><gom:speed>0.501</gom:speed></extensions></trkpt>
   <trkpt lat="59.0681655726" lon="30.0361036439"><ele>20.907</ele><time>2026-04-20T19:55:53.900Z</time><hdop>4.875</hdop><vdop>5.187</vdop><extensions><gom:speed>0.534</gom:speed></extensions></trkpt>
   <trkpt lat="59.0681576936" lon="30.0361036439"><ele>20.547</ele><time>2026-04-20T19:55:54.619Z</time><hdop>4.812</hdop><vdop>5.062</vdop><extensions><gom:speed>0.556</gom:speed></extensions></trkpt>
   <trkpt lat="59.0681510719" lon="30.0361045659"><ele>20.13</ele><time>2026-04-20T19:55:55.579Z</time><hdop>4.875</hdop><vdop>5.0</vdop><extensions><gom:speed>0.58</gom:speed></extensions></trkpt>
   <trkpt lat="59.0681481801" lon="30.0361063261"><ele>20.113</ele><time>2026-04-20T19:55:56.037Z</time><hdop>4.875</hdop><vdop>9.187</vdop><extensions><gom:speed>0.591</gom:speed></extensions></trkpt>
   <trkpt lat="59.0681446597" lon="30.0361090921"><ele>20.102</ele><time>2026-04-20T19:55:56.666Z</time><hdop>4.937</hdop><vdop>9.187</vdop><extensions><gom:speed>0.597</gom:speed></extensions></trkpt>
   <trkpt lat="59.0681394629" lon="30.036112864"><ele>20.089</ele><time>2026-04-20T19:55:57.523Z</time><hdop>5.0</hdop><vdop>8.812</vdop><extensions><gom:speed>0.651</gom:speed></extensions></trkpt>
   <trkpt lat="59.0681357749" lon="30.0361154624"><ele>19.558</ele><time>2026-04-20T19:55:58.075Z</time><hdop>5.062</hdop><vdop>7.875</vdop><extensions><gom:speed>0.649</gom:speed></extensions></trkpt>
   <trkpt lat="59.0681298657" lon="30.0361195695"><ele>20.731</ele><time>2026-04-20T19:55:59.075Z</time><hdop>5.125</hdop><vdop>6.75</vdop><extensions><gom:speed>0.613</gom:speed></extensions></trkpt>
   <trkpt lat="59.0681249622" lon="30.0361260236"><ele>21.205</ele><time>2026-04-20T19:56:00.075Z</time><hdop>5.187</hdop><vdop>6.437</vdop><extensions><gom:speed>0.59</gom:speed></extensions></trkpt>
   <trkpt lat="59.0681201846" lon="30.0361334835"><ele>21.489</ele><time>2026-04-20T19:56:01.057Z</time><hdop>5.25</hdop><vdop>6.437</vdop><extensions><gom:speed>0.637</gom:speed></extensions></trkpt>
   <trkpt lat="59.0681125989" lon="30.0361403566"><ele>21.189</ele><time>2026-04-20T19:56:01.895Z</time><hdop>5.187</hdop><vdop>6.0</vdop><extensions><gom:speed>0.722</gom:speed></extensions></trkpt>
   <trkpt lat="59.0681027921" lon="30.0361453858"><ele>21.352</ele><time>2026-04-20T19:56:02.882Z</time><hdop>5.125</hdop><vdop>5.562</vdop><extensions><gom:speed>0.712</gom:speed></extensions></trkpt>
   <trkpt lat="59.0680937816" lon="30.0361486547"><ele>21.63</ele><time>2026-04-20T19:56:03.878Z</time><hdop>5.125</hdop><vdop>8.812</vdop><extensions><gom:speed>0.703</gom:speed></extensions></trkpt>
   <trkpt lat="59.0680858607" lon="30.0361529295"><ele>22.794</ele><time>2026-04-20T19:56:04.738Z</time><hdop>5.125</hdop><vdop>7.062</vdop><extensions><gom:speed>0.714</gom:speed></extensions></trkpt>
   <trkpt lat="59.0680806639" lon="30.0361590483"><ele>22.936</ele><time>2026-04-20T19:56:05.558Z</time><hdop>5.25</hdop><vdop>6.375</vdop><extensions><gom:speed>0.698</gom:speed></extensions></trkpt>
   <trkpt lat="59.0680773949" lon="30.0361633231"><ele>22.459</ele><time>2026-04-20T19:56:06.075Z</time><hdop>5.25</hdop><vdop>8.25</vdop><extensions><gom:speed>0.687</gom:speed></extensions></trkpt>
   <trkpt lat="59.0680749642" lon="30.0361670949"><ele>22.174</ele><time>2026-04-20T19:56:06.556Z</time><hdop>5.312</hdop><vdop>8.25</vdop><extensions><gom:speed>0.665</gom:speed></extensions></trkpt>
   <trkpt lat="59.0680719886" lon="30.0361705315"><ele>21.695</ele><time>2026-04-20T19:56:07.075Z</time><hdop>5.312</hdop><vdop>7.375</vdop><extensions><gom:speed>0.643</gom:speed></extensions></trkpt>
   <trkpt lat="59.0680688873" lon="30.036174471"><ele>21.408</ele><time>2026-04-20T19:56:07.660Z</time><hdop>5.375</hdop><vdop>7.375</vdop><extensions><gom:speed>0.663</gom:speed></extensions></trkpt>
   <trkpt lat="59.0680633972" lon="30.0361789972"><ele>21.339</ele><time>2026-04-20T19:56:08.617Z</time><hdop>5.562</hdop><vdop>6.312</vdop><extensions><gom:speed>0.658</gom:speed></extensions></trkpt>
   <trkpt lat="59.0680602959" lon="30.0361784943"><ele>22.154</ele><time>2026-04-20T19:56:09.075Z</time><hdop>5.562</hdop><vdop>6.125</vdop><extensions><gom:speed>0.643</gom:speed></extensions></trkpt>
   <trkpt lat="59.0680541771" lon="30.0361747224"><ele>23.229</ele><time>2026-04-20T19:56:10.075Z</time><hdop>5.625</hdop><vdop>5.875</vdop><extensions><gom:speed>0.547</gom:speed></extensions></trkpt>
   <trkpt lat="59.0680488965" lon="30.0361727946"><ele>23.983</ele><time>2026-04-20T19:56:11.075Z</time><hdop>5.687</hdop><vdop>5.625</vdop><extensions><gom:speed>0.488</gom:speed></extensions></trkpt>
   <trkpt lat="59.0680475973" lon="30.0361718726"><ele>24.434</ele><time>2026-04-20T19:56:11.673Z</time><hdop>5.687</hdop><vdop>5.625</vdop><extensions><gom:speed>0.471</gom:speed></extensions></trkpt>
   <trkpt lat="59.0680412689" lon="30.0361707829"><ele>24.805</ele><time>2026-04-20T19:56:12.303Z</time><hdop>5.75</hdop><vdop>5.562</vdop><extensions><gom:speed>0.473</gom:speed></extensions></trkpt>
   <trkpt lat="59.0680389639" lon="30.0361705315"><ele>25.028</ele><time>2026-04-20T19:56:12.822Z</time><hdop>5.75</hdop><vdop>5.562</vdop><extensions><gom:speed>0.463</gom:speed></extensions></trkpt>
   <trkpt lat="59.0680359883" lon="30.0361717888"><ele>25.391</ele><time>2026-04-20T19:56:13.276Z</time><hdop>5.687</hdop><vdop>5.625</vdop><extensions><gom:speed>0.468</gom:speed></extensions></trkpt>
   <trkpt lat="59.0680317974" lon="30.0361737166"><ele>25.153</ele><time>2026-04-20T19:56:14.075Z</time><hdop>5.687</hdop><vdop>5.562</vdop><extensions><gom:speed>0.411</gom:speed></extensions></trkpt>
   <trkpt lat="59.068030582" lon="30.0361747224"><ele>25.011</ele><time>2026-04-20T19:56:14.619Z</time><hdop>5.625</hdop><vdop>5.562</vdop><extensions><gom:speed>0.334</gom:speed></extensions></trkpt>
   <trkpt lat="59.0680285704" lon="30.0361767341"><ele>24.696</ele><time>2026-04-20T19:56:15.075Z</time><hdop>5.625</hdop><vdop>5.437</vdop><extensions><gom:speed>0.341</gom:speed></extensions></trkpt>
   <trkpt lat="59.0680269778" lon="30.0361774885"><ele>24.508</ele><time>2026-04-20T19:56:15.620Z</time><hdop>5.5</hdop><vdop>5.437</vdop><extensions><gom:speed>0.327</gom:speed></extensions></trkpt>
   <trkpt lat="59.0680246728" lon="30.0361795839"><ele>24.094</ele><time>2026-04-20T19:56:16.076Z</time><hdop>5.5</hdop><vdop>5.375</vdop><extensions><gom:speed>0.329</gom:speed></extensions></trkpt>
   <trkpt lat="59.0680225773" lon="30.0361804221"><ele>23.847</ele><time>2026-04-20T19:56:16.555Z</time><hdop>5.437</hdop><vdop>5.375</vdop><extensions><gom:speed>0.345</gom:speed></extensions></trkpt>
   <trkpt lat="59.0680193922" lon="30.0361834396"><ele>23.06</ele><time>2026-04-20T19:56:17.075Z</time><hdop>5.437</hdop><vdop>5.375</vdop><extensions><gom:speed>0.363</gom:speed></extensions></trkpt>
   <trkpt lat="59.0680184702" lon="30.0361845293"><ele>22.589</ele><time>2026-04-20T19:56:17.833Z</time><hdop>5.437</hdop><vdop>5.375</vdop><extensions><gom:speed>0.338</gom:speed></extensions></trkpt>
   <trkpt lat="59.0680105912" lon="30.0361961801"><ele>21.833</ele><time>2026-04-20T19:56:19.075Z</time><hdop>5.187</hdop><vdop>5.25</vdop><extensions><gom:speed>0.367</gom:speed></extensions></trkpt>
   <trkpt lat="59.0680066936" lon="30.0361971859"><ele>21.38</ele><time>2026-04-20T19:56:19.900Z</time><hdop>5.125</hdop><vdop>5.25</vdop><extensions><gom:speed>0.41</gom:speed></extensions></trkpt>
   <trkpt lat="59.0680022931" lon="30.036196683"><ele>20.93</ele><time>2026-04-20T19:56:20.583Z</time><hdop>5.125</hdop><vdop>5.562</vdop><extensions><gom:speed>0.54</gom:speed></extensions></trkpt>
   <trkpt lat="59.0679977669" lon="30.0361983594"><ele>20.63</ele><time>2026-04-20T19:56:21.075Z</time><hdop>5.125</hdop><vdop>5.625</vdop><extensions><gom:speed>0.626</gom:speed></extensions></trkpt>
   <trkpt lat="59.0679883791" lon="30.0361971859"><ele>20.451</ele><time>2026-04-20T19:56:22.082Z</time><hdop>5.187</hdop><vdop>5.625</vdop><extensions><gom:speed>0.76</gom:speed></extensions></trkpt>
   <trkpt lat="59.067979159" lon="30.0362003711"><ele>20.184</ele><time>2026-04-20T19:56:22.901Z</time><hdop>5.187</hdop><vdop>5.687</vdop><extensions><gom:speed>0.808</gom:speed></extensions></trkpt>
   <trkpt lat="59.0679706933" lon="30.0362077471"><ele>19.961</ele><time>2026-04-20T19:56:23.762Z</time><hdop>5.312</hdop><vdop>5.812</vdop><extensions><gom:speed>0.778</gom:speed></extensions></trkpt>
   <trkpt lat="59.067961096" lon="30.0362118543"><ele>19.915</ele><time>2026-04-20T19:56:24.602Z</time><hdop>5.312</hdop><vdop>5.812</vdop><extensions><gom:speed>0.714</gom:speed></extensions></trkpt>
   <trkpt lat="59.0679585815" lon="30.0362123572"><ele>19.59</ele><time>2026-04-20T19:56:25.075Z</time><hdop>5.312</hdop><vdop>5.75</vdop><extensions><gom:speed>0.728</gom:speed></extensions></trkpt>
   <trkpt lat="59.0679517921" lon="30.0362100941"><ele>19.347</ele><time>2026-04-20T19:56:26.075Z</time><hdop>5.25</hdop><vdop>5.437</vdop><extensions><gom:speed>0.715</gom:speed></extensions></trkpt>
   <trkpt lat="59.0679466792" lon="30.0362028856"><ele>19.29</ele><time>2026-04-20T19:56:26.955Z</time><hdop>5.25</hdop><vdop>5.187</vdop><extensions><gom:speed>0.705</gom:speed></extensions></trkpt>
   <trkpt lat="59.067942572" lon="30.0361956772"><ele>18.149</ele><time>2026-04-20T19:56:28.020Z</time><hdop>5.312</hdop><vdop>4.875</vdop><extensions><gom:speed>0.62</gom:speed></extensions></trkpt>
   <trkpt lat="59.067937962" lon="30.0361961801"><ele>17.348</ele><time>2026-04-20T19:56:29.075Z</time><hdop>5.312</hdop><vdop>4.75</vdop><extensions><gom:speed>0.582</gom:speed></extensions></trkpt>
   <trkpt lat="59.0679339806" lon="30.0362019636"><ele>16.586</ele><time>2026-04-20T19:56:30.075Z</time><hdop>5.375</hdop><vdop>9.0</vdop><extensions><gom:speed>0.565</gom:speed></extensions></trkpt>
   <trkpt lat="59.0679280713" lon="30.0362077471"><ele>16.131</ele><time>2026-04-20T19:56:31.075Z</time><hdop>5.437</hdop><vdop>9.0</vdop><extensions><gom:speed>0.546</gom:speed></extensions></trkpt>
   <trkpt lat="59.0679282809" lon="30.0362102617"><ele>14.918</ele><time>2026-04-20T19:56:32.075Z</time><hdop>5.5</hdop><vdop>8.75</vdop><extensions><gom:speed>0.504</gom:speed></extensions></trkpt>
   <trkpt lat="59.0679253891" lon="30.0362088368"><ele>14.193</ele><time>2026-04-20T19:56:32.921Z</time><hdop>5.5</hdop><vdop>8.75</vdop><extensions><gom:speed>0.546</gom:speed></extensions></trkpt>
   <trkpt lat="59.0679224974" lon="30.0362060708"><ele>13.898</ele><time>2026-04-20T19:56:34.075Z</time><hdop>5.375</hdop><vdop>8.375</vdop><extensions><gom:speed>0.491</gom:speed></extensions></trkpt>
   <trkpt lat="59.0679188931" lon="30.0362079986"><ele>13.804</ele><time>2026-04-20T19:56:35.009Z</time><hdop>5.312</hdop><vdop>7.187</vdop><extensions><gom:speed>0.502</gom:speed></extensions></trkpt>
   <trkpt lat="59.0679156661" lon="30.0362109323"><ele>13.748</ele><time>2026-04-20T19:56:35.844Z</time><hdop>5.312</hdop><vdop>7.187</vdop><extensions><gom:speed>0.462</gom:speed></extensions></trkpt>
   <trkpt lat="59.0679157918" lon="30.0362110999"><ele>14.027</ele><time>2026-04-20T19:56:36.431Z</time><hdop>5.25</hdop><vdop>6.687</vdop><extensions><gom:speed>0.416</gom:speed></extensions></trkpt>
   <trkpt lat="59.0679129839" lon="30.0362144527"><ele>13.823</ele><time>2026-04-20T19:56:37.024Z</time><hdop>5.187</hdop><vdop>6.25</vdop><extensions><gom:speed>0.394</gom:speed></extensions></trkpt>
   <trkpt lat="59.0679114752" lon="30.0362139497"><ele>13.701</ele><time>2026-04-20T19:56:37.837Z</time><hdop>5.187</hdop><vdop>6.25</vdop><extensions><gom:speed>0.362</gom:speed></extensions></trkpt>
   <trkpt lat="59.0679099664" lon="30.0362107646"><ele>13.38</ele><time>2026-04-20T19:56:38.775Z</time><hdop>5.187</hdop><vdop>6.062</vdop><extensions><gom:speed>0.355</gom:speed></extensions></trkpt>
   <trkpt lat="59.06790829" lon="30.0362081662"><ele>13.137</ele><time>2026-04-20T19:56:39.613Z</time><hdop>5.187</hdop><vdop>5.937</vdop><extensions><gom:speed>0.352</gom:speed></extensions></trkpt>
   <trkpt lat="59.0679066975" lon="30.0362074957"><ele>13.003</ele><time>2026-04-20T19:56:40.076Z</time><hdop>5.125</hdop><vdop>5.5</vdop><extensions><gom:speed>0.366</gom:speed></extensions></trkpt>
   <trkpt lat="59.0679051887" lon="30.0362051487"><ele>12.872</ele><time>2026-04-20T19:56:41.075Z</time><hdop>5.062</hdop><vdop>5.375</vdop><extensions><gom:speed>0.265</gom:speed></extensions></trkpt>
   <trkpt lat="59.0679058593" lon="30.03620364"><ele>12.575</ele><time>2026-04-20T19:56:41.998Z</time><hdop>5.062</hdop><vdop>8.062</vdop><extensions><gom:speed>0.152</gom:speed></extensions></trkpt>
   <trkpt lat="59.0679065718" lon="30.0362032209"><ele>12.398</ele><time>2026-04-20T19:56:42.591Z</time><hdop>5.0</hdop><vdop>8.062</vdop><extensions><gom:speed>0.136</gom:speed></extensions></trkpt>
   <trkpt lat="59.0679066975" lon="30.0362018798"><ele>12.619</ele><time>2026-04-20T19:56:43.415Z</time><hdop>4.937</hdop><vdop>7.125</vdop><extensions><gom:speed>0.112</gom:speed></extensions></trkpt>
   <trkpt lat="59.0679061946" lon="30.0362007902"><ele>13.504</ele><time>2026-04-20T19:56:44.075Z</time><hdop>4.937</hdop><vdop>7.375</vdop><extensions><gom:speed>0.143</gom:speed></extensions></trkpt>
   <trkpt lat="59.0679057755" lon="30.0361994491"><ele>14.032</ele><time>2026-04-20T19:56:44.995Z</time><hdop>4.937</hdop><vdop>7.375</vdop><extensions><gom:speed>0.148</gom:speed></extensions></trkpt>
   <trkpt lat="59.0679046858" lon="30.0361958448"><ele>14.958</ele><time>2026-04-20T19:56:45.694Z</time><hdop>4.937</hdop><vdop>6.812</vdop><extensions><gom:speed>0.171</gom:speed></extensions></trkpt>
   <trkpt lat="59.0679024646" lon="30.0361906481"><ele>15.398</ele><time>2026-04-20T19:56:46.436Z</time><hdop>4.937</hdop><vdop>6.125</vdop><extensions><gom:speed>0.191</gom:speed></extensions></trkpt>
   <trkpt lat="59.0679001596" lon="30.0361868762"><ele>16.431</ele><time>2026-04-20T19:56:47.075Z</time><hdop>4.875</hdop><vdop>6.062</vdop><extensions><gom:speed>0.213</gom:speed></extensions></trkpt>
   <trkpt lat="59.067897184" lon="30.0361807574"><ele>17.493</ele><time>2026-04-20T19:56:48.076Z</time><hdop>4.812</hdop><vdop>5.875</vdop><extensions><gom:speed>0.195</gom:speed></extensions></trkpt>
   <trkpt lat="59.0678966811" lon="30.0361792487"><ele>18.127</ele><time>2026-04-20T19:56:48.750Z</time><hdop>4.812</hdop><vdop>5.875</vdop><extensions><gom:speed>0.179</gom:speed></extensions></trkpt>
   <trkpt lat="59.0678913586" lon="30.0361737166"><ele>19.291</ele><time>2026-04-20T19:56:49.862Z</time><hdop>4.687</hdop><vdop>5.812</vdop><extensions><gom:speed>0.209</gom:speed></extensions></trkpt>
   <trkpt lat="59.0678878801" lon="30.0361683522"><ele>19.23</ele><time>2026-04-20T19:56:50.443Z</time><hdop>4.625</hdop><vdop>5.5</vdop><extensions><gom:speed>0.135</gom:speed></extensions></trkpt>
   <trkpt lat="59.067884695" lon="30.0361650833"><ele>19.165</ele><time>2026-04-20T19:56:51.075Z</time><hdop>4.562</hdop><vdop>5.812</vdop><extensions><gom:speed>0.174</gom:speed></extensions></trkpt>
   <trkpt lat="59.0678828929" lon="30.0361628201"><ele>19.126</ele><time>2026-04-20T19:56:52.042Z</time><hdop>4.5</hdop><vdop>5.812</vdop><extensions><gom:speed>0.158</gom:speed></extensions></trkpt>
   <trkpt lat="59.0678811746" lon="30.0361609761"><ele>19.525</ele><time>2026-04-20T19:56:52.723Z</time><hdop>4.562</hdop><vdop>6.062</vdop><extensions><gom:speed>0.18</gom:speed></extensions></trkpt>
   <trkpt lat="59.0678741757" lon="30.0361553602"><ele>20.533</ele><time>2026-04-20T19:56:53.433Z</time><hdop>4.625</hdop><vdop>6.062</vdop><extensions><gom:speed>0.341</gom:speed></extensions></trkpt>
   <trkpt lat="59.0678705715" lon="30.0361533486"><ele>21.388</ele><time>2026-04-20T19:56:54.082Z</time><hdop>4.75</hdop><vdop>6.125</vdop><extensions><gom:speed>0.369</gom:speed></extensions></trkpt>
   <trkpt lat="59.0678627763" lon="30.0361466431"><ele>21.899</ele><time>2026-04-20T19:56:54.910Z</time><hdop>4.937</hdop><vdop>6.125</vdop><extensions><gom:speed>0.534</gom:speed></extensions></trkpt>
   <trkpt lat="59.0678399775" lon="30.0361235928"><ele>22.316</ele><time>2026-04-20T19:56:55.882Z</time><hdop>5.312</hdop><vdop>6.125</vdop><extensions><gom:speed>0.799</gom:speed></extensions></trkpt>
   <trkpt lat="59.067826776" lon="30.0361045659"><ele>22.423</ele><time>2026-04-20T19:56:56.662Z</time><hdop>5.375</hdop><vdop>5.812</vdop><extensions><gom:speed>0.887</gom:speed></extensions></trkpt>
   <trkpt lat="59.0678183941" lon="30.036089227"><ele>23.058</ele><time>2026-04-20T19:56:57.273Z</time><hdop>5.375</hdop><vdop>5.625</vdop><extensions><gom:speed>0.896</gom:speed></extensions></trkpt>
   <trkpt lat="59.0678128621" lon="30.036080426"><ele>23.437</ele><time>2026-04-20T19:56:58.014Z</time><hdop>5.437</hdop><vdop>5.625</vdop><extensions><gom:speed>0.886</gom:speed></extensions></trkpt>
   <trkpt lat="59.0678053603" lon="30.0360662606"><ele>23.332</ele><time>2026-04-20T19:56:59.056Z</time><hdop>5.375</hdop><vdop>5.25</vdop><extensions><gom:speed>0.788</gom:speed></extensions></trkpt>
   <trkpt lat="59.0677999959" lon="30.0360570405"><ele>23.398</ele><time>2026-04-20T19:57:00.075Z</time><hdop>5.25</hdop><vdop>5.187</vdop><extensions><gom:speed>0.652</gom:speed></extensions></trkpt>
   <trkpt lat="59.0677969784" lon="30.0360518437"><ele>23.783</ele><time>2026-04-20T19:57:00.951Z</time><hdop>5.125</hdop><vdop>5.25</vdop><extensions><gom:speed>0.51</gom:speed></extensions></trkpt>
   <trkpt lat="59.0677952601" lon="30.0360450544"><ele>24.013</ele><time>2026-04-20T19:57:01.638Z</time><hdop>5.062</hdop><vdop>5.25</vdop><extensions><gom:speed>0.49</gom:speed></extensions></trkpt>
   <trkpt lat="59.0677955954" lon="30.0360347447"><ele>23.16</ele><time>2026-04-20T19:57:02.965Z</time><hdop>5.0</hdop><vdop>4.937</vdop><extensions><gom:speed>0.365</gom:speed></extensions></trkpt>
   <trkpt lat="59.0677961821" lon="30.0360260275"><ele>21.984</ele><time>2026-04-20T19:57:04.076Z</time><hdop>5.0</hdop><vdop>4.625</vdop><extensions><gom:speed>0.346</gom:speed></extensions></trkpt>
   <trkpt lat="59.067795763" lon="30.0360195734"><ele>21.28</ele><time>2026-04-20T19:57:04.778Z</time><hdop>5.0</hdop><vdop>4.625</vdop><extensions><gom:speed>0.384</gom:speed></extensions></trkpt>
   <trkpt lat="59.0677950924" lon="30.0360108562"><ele>20.901</ele><time>2026-04-20T19:57:05.694Z</time><hdop>5.062</hdop><vdop>4.437</vdop><extensions><gom:speed>0.413</gom:speed></extensions></trkpt>
   <trkpt lat="59.0677953858" lon="30.0359987863"><ele>19.709</ele><time>2026-04-20T19:57:07.075Z</time><hdop>5.0</hdop><vdop>3.812</vdop><extensions><gom:speed>0.391</gom:speed></extensions></trkpt>
   <trkpt lat="59.0677964755" lon="30.0359912426"><ele>18.617</ele><time>2026-04-20T19:57:08.075Z</time><hdop>4.937</hdop><vdop>3.562</vdop><extensions><gom:speed>0.352</gom:speed></extensions></trkpt>
   <trkpt lat="59.067796685" lon="30.0359894824"><ele>17.457</ele><time>2026-04-20T19:57:09.075Z</time><hdop>4.875</hdop><vdop>3.625</vdop><extensions><gom:speed>0.288</gom:speed></extensions></trkpt>
   <trkpt lat="59.0677963916" lon="30.0359895662"><ele>16.764</ele><time>2026-04-20T19:57:10.056Z</time><hdop>4.75</hdop><vdop>3.625</vdop><extensions><gom:speed>0.23</gom:speed></extensions></trkpt>
   <trkpt lat="59.0677956792" lon="30.035992919"><ele>16.511</ele><time>2026-04-20T19:57:11.075Z</time><hdop>4.562</hdop><vdop>9.125</vdop><extensions><gom:speed>0.212</gom:speed></extensions></trkpt>
   <trkpt lat="59.0677962659" lon="30.0359918293"><ele>16.361</ele><time>2026-04-20T19:57:11.775Z</time><hdop>4.437</hdop><vdop>9.125</vdop><extensions><gom:speed>0.193</gom:speed></extensions></trkpt>
   <trkpt lat="59.0677964755" lon="30.0359921646"><ele>15.99</ele><time>2026-04-20T19:57:13.075Z</time><hdop>4.437</hdop><vdop>10.187</vdop><extensions><gom:speed>0.152</gom:speed></extensions></trkpt>
   <trkpt lat="59.0677968945" lon="30.0359913264"><ele>15.513</ele><time>2026-04-20T19:57:13.982Z</time><hdop>4.437</hdop><vdop>10.5</vdop><extensions><gom:speed>0.165</gom:speed></extensions></trkpt>
   <trkpt lat="59.0677967688" lon="30.035991494"><ele>15.086</ele><time>2026-04-20T19:57:15.075Z</time><hdop>4.5</hdop><vdop>11.0</vdop><extensions><gom:speed>0.201</gom:speed></extensions></trkpt>
   <trkpt lat="59.0677968945" lon="30.03598965"><ele>14.7</ele><time>2026-04-20T19:57:15.995Z</time><hdop>4.5</hdop><vdop>11.25</vdop><extensions><gom:speed>0.21</gom:speed></extensions></trkpt>
   <trkpt lat="59.0677969784" lon="30.0359882251"><ele>14.691</ele><time>2026-04-20T19:57:17.062Z</time><hdop>4.625</hdop><vdop>11.562</vdop><extensions><gom:speed>0.16</gom:speed></extensions></trkpt>
   <trkpt lat="59.0677965593" lon="30.035986884"><ele>14.641</ele><time>2026-04-20T19:57:18.010Z</time><hdop>4.687</hdop><vdop>11.375</vdop><extensions><gom:speed>0.163</gom:speed></extensions></trkpt>
   <trkpt lat="59.067795763" lon="30.0359843694"><ele>14.611</ele><time>2026-04-20T19:57:19.080Z</time><hdop>4.812</hdop><vdop>11.375</vdop><extensions><gom:speed>0.189</gom:speed></extensions></trkpt>
   <trkpt lat="59.0677954696" lon="30.0359844532"><ele>14.548</ele><time>2026-04-20T19:57:19.668Z</time><hdop>4.875</hdop><vdop>10.937</vdop><extensions><gom:speed>0.153</gom:speed></extensions></trkpt>
   <trkpt lat="59.067792997" lon="30.0359852914"><ele>16.174</ele><time>2026-04-20T19:57:21.075Z</time><hdop>5.062</hdop><vdop>8.375</vdop><extensions><gom:speed>0.195</gom:speed></extensions></trkpt>
   <trkpt lat="59.0677914882" lon="30.0359858782"><ele>17.145</ele><time>2026-04-20T19:57:21.834Z</time><hdop>5.062</hdop><vdop>8.375</vdop><extensions><gom:speed>0.242</gom:speed></extensions></trkpt>
   <trkpt lat="59.0677865848" lon="30.0359819387"><ele>17.516</ele><time>2026-04-20T19:57:23.076Z</time><hdop>5.062</hdop><vdop>7.125</vdop><extensions><gom:speed>0.264</gom:speed></extensions></trkpt>
   <trkpt lat="59.0677848665" lon="30.0359789212"><ele>17.737</ele><time>2026-04-20T19:57:23.857Z</time><hdop>5.062</hdop><vdop>7.125</vdop><extensions><gom:speed>0.239</gom:speed></extensions></trkpt>
   <trkpt lat="59.067779083" lon="30.0359691982"><ele>19.154</ele><time>2026-04-20T19:57:25.075Z</time><hdop>5.0</hdop><vdop>6.625</vdop><extensions><gom:speed>0.19</gom:speed></extensions></trkpt>
   <trkpt lat="59.0677778676" lon="30.0359668512"><ele>20.0</ele><time>2026-04-20T19:57:25.762Z</time><hdop>4.937</hdop><vdop>6.625</vdop><extensions><gom:speed>0.185</gom:speed></extensions></trkpt>
   <trkpt lat="59.0677745987" lon="30.0359587208"><ele>20.788</ele><time>2026-04-20T19:57:26.897Z</time><hdop>4.812</hdop><vdop>6.375</vdop><extensions><gom:speed>0.167</gom:speed></extensions></trkpt>
   <trkpt lat="59.0677719584" lon="30.0359530211"><ele>21.311</ele><time>2026-04-20T19:57:28.075Z</time><hdop>4.75</hdop><vdop>6.437</vdop><extensions><gom:speed>0.155</gom:speed></extensions></trkpt>
   <trkpt lat="59.0677711621" lon="30.0359501713"><ele>21.623</ele><time>2026-04-20T19:57:28.983Z</time><hdop>4.75</hdop><vdop>6.437</vdop><extensions><gom:speed>0.136</gom:speed></extensions></trkpt>
   <trkpt lat="59.0677706592" lon="30.0359488301"><ele>21.278</ele><time>2026-04-20T19:57:29.522Z</time><hdop>4.75</hdop><vdop>6.437</vdop><extensions><gom:speed>0.142</gom:speed></extensions></trkpt>
   <trkpt lat="59.0677701982" lon="30.0359482434"><ele>21.055</ele><time>2026-04-20T19:57:29.973Z</time><hdop>4.75</hdop><vdop>6.187</vdop><extensions><gom:speed>0.142</gom:speed></extensions></trkpt>
   <trkpt lat="59.0677669712" lon="30.0359430466"><ele>20.541</ele><time>2026-04-20T19:57:31.075Z</time><hdop>4.75</hdop><vdop>6.062</vdop><extensions><gom:speed>0.186</gom:speed></extensions></trkpt>
   <trkpt lat="59.0677624868" lon="30.035935922"><ele>20.173</ele><time>2026-04-20T19:57:32.075Z</time><hdop>4.75</hdop><vdop>5.875</vdop><extensions><gom:speed>0.21</gom:speed></extensions></trkpt>
   <trkpt lat="59.0677576672" lon="30.0359300547"><ele>19.744</ele><time>2026-04-20T19:57:33.075Z</time><hdop>4.75</hdop><vdop>6.187</vdop><extensions><gom:speed>0.247</gom:speed></extensions></trkpt>
   <trkpt lat="59.0677527638" lon="30.0359265343"><ele>19.488</ele><time>2026-04-20T19:57:33.798Z</time><hdop>4.75</hdop><vdop>6.187</vdop><extensions><gom:speed>0.367</gom:speed></extensions></trkpt>
   <trkpt lat="59.0677434599" lon="30.0359180686"><ele>19.051</ele><time>2026-04-20T19:57:34.734Z</time><hdop>4.812</hdop><vdop>6.562</vdop><extensions><gom:speed>0.55</gom:speed></extensions></trkpt>
   <trkpt lat="59.0677340722" lon="30.0359098543"><ele>18.56</ele><time>2026-04-20T19:57:35.615Z</time><hdop>4.812</hdop><vdop>6.312</vdop><extensions><gom:speed>0.65</gom:speed></extensions></trkpt>
   <trkpt lat="59.0677289592" lon="30.0359065854"><ele>17.858</ele><time>2026-04-20T19:57:36.075Z</time><hdop>4.875</hdop><vdop>6.187</vdop><extensions><gom:speed>0.66</gom:speed></extensions></trkpt>
   <trkpt lat="59.0677230919" lon="30.0359024782"><ele>17.439</ele><time>2026-04-20T19:57:36.936Z</time><hdop>4.937</hdop><vdop>6.187</vdop><extensions><gom:speed>0.608</gom:speed></extensions></trkpt>
   <trkpt lat="59.0677201582" lon="30.0358981196"><ele>16.664</ele><time>2026-04-20T19:57:37.639Z</time><hdop>5.062</hdop><vdop>5.875</vdop><extensions><gom:speed>0.51</gom:speed></extensions></trkpt>
   <trkpt lat="59.067718859" lon="30.0358939287"><ele>15.982</ele><time>2026-04-20T19:57:38.182Z</time><hdop>5.312</hdop><vdop>8.937</vdop><extensions><gom:speed>0.513</gom:speed></extensions></trkpt>
   <trkpt lat="59.0677180627" lon="30.0358864688"><ele>15.575</ele><time>2026-04-20T19:57:38.822Z</time><hdop>5.375</hdop><vdop>8.937</vdop><extensions><gom:speed>0.449</gom:speed></extensions></trkpt>
   <trkpt lat="59.0677144585" lon="30.0358811882"><ele>15.364</ele><time>2026-04-20T19:57:39.859Z</time><hdop>5.5</hdop><vdop>8.312</vdop><extensions><gom:speed>0.457</gom:speed></extensions></trkpt>
   <trkpt lat="59.0677097647" lon="30.0358810206"><ele>15.208</ele><time>2026-04-20T19:57:40.700Z</time><hdop>5.625</hdop><vdop>7.562</vdop><extensions><gom:speed>0.481</gom:speed></extensions></trkpt>
   <trkpt lat="59.0677066634" lon="30.0358832837"><ele>15.695</ele><time>2026-04-20T19:57:41.657Z</time><hdop>5.687</hdop><vdop>7.312</vdop><extensions><gom:speed>0.411</gom:speed></extensions></trkpt>
   <trkpt lat="59.0677029753" lon="30.0358827808"><ele>16.001</ele><time>2026-04-20T19:57:42.721Z</time><hdop>5.75</hdop><vdop>7.0</vdop><extensions><gom:speed>0.437</gom:speed></extensions></trkpt>
   <trkpt lat="59.0676973594" lon="30.0358772487"><ele>16.988</ele><time>2026-04-20T19:57:44.075Z</time><hdop>5.687</hdop><vdop>6.687</vdop><extensions><gom:speed>0.414</gom:speed></extensions></trkpt>
   <trkpt lat="59.0676954735" lon="30.0358730577"><ele>17.578</ele><time>2026-04-20T19:57:44.677Z</time><hdop>5.625</hdop><vdop>6.687</vdop><extensions><gom:speed>0.365</gom:speed></extensions></trkpt>
   <trkpt lat="59.067693378" lon="30.0358707946"><ele>18.398</ele><time>2026-04-20T19:57:45.515Z</time><hdop>5.5</hdop><vdop>6.5</vdop><extensions><gom:speed>0.358</gom:speed></extensions></trkpt>
   <trkpt lat="59.0676905701" lon="30.0358702917"><ele>18.603</ele><time>2026-04-20T19:57:46.075Z</time><hdop>5.375</hdop><vdop>6.375</vdop><extensions><gom:speed>0.373</gom:speed></extensions></trkpt>
   <trkpt lat="59.0676882651" lon="30.0358719681"><ele>18.236</ele><time>2026-04-20T19:57:47.031Z</time><hdop>5.25</hdop><vdop>6.187</vdop><extensions><gom:speed>0.304</gom:speed></extensions></trkpt>
   <trkpt lat="59.0676860858" lon="30.0358713814"><ele>17.667</ele><time>2026-04-20T19:57:48.075Z</time><hdop>5.125</hdop><vdop>6.0</vdop><extensions><gom:speed>0.215</gom:speed></extensions></trkpt>
   <trkpt lat="59.0676855829" lon="30.0358710461"><ele>16.824</ele><time>2026-04-20T19:57:49.045Z</time><hdop>5.0</hdop><vdop>5.687</vdop><extensions><gom:speed>0.174</gom:speed></extensions></trkpt>
   <trkpt lat="59.0676843675" lon="30.0358704594"><ele>16.207</ele><time>2026-04-20T19:57:50.075Z</time><hdop>4.937</hdop><vdop>5.375</vdop><extensions><gom:speed>0.118</gom:speed></extensions></trkpt>
   <trkpt lat="59.0676847866" lon="30.0358699564"><ele>15.839</ele><time>2026-04-20T19:57:50.580Z</time><hdop>4.875</hdop><vdop>5.375</vdop><extensions><gom:speed>0.058</gom:speed></extensions></trkpt>
   <trkpt lat="59.067683194" lon="30.0358709623"><ele>15.651</ele><time>2026-04-20T19:57:52.075Z</time><hdop>4.812</hdop><vdop>4.937</vdop><extensions><gom:speed>0.088</gom:speed></extensions></trkpt>
   <trkpt lat="59.0676830683" lon="30.0358718843"><ele>15.634</ele><time>2026-04-20T19:57:52.954Z</time><hdop>4.812</hdop><vdop>4.812</vdop><extensions><gom:speed>0.072</gom:speed></extensions></trkpt>
   <trkpt lat="59.0676829845" lon="30.0358727225"><ele>15.767</ele><time>2026-04-20T19:57:54.021Z</time><hdop>4.812</hdop><vdop>4.562</vdop><extensions><gom:speed>0.081</gom:speed></extensions></trkpt>
   <trkpt lat="59.0676827749" lon="30.0358731416"><ele>15.786</ele><time>2026-04-20T19:57:54.968Z</time><hdop>4.812</hdop><vdop>4.312</vdop><extensions><gom:speed>0.105</gom:speed></extensions></trkpt>
   <trkpt lat="59.067682272" lon="30.0358735607"><ele>15.798</ele><time>2026-04-20T19:57:55.645Z</time><hdop>4.875</hdop><vdop>4.312</vdop><extensions><gom:speed>0.1</gom:speed></extensions></trkpt>
   <trkpt lat="59.0676797994" lon="30.0358747341"><ele>16.206</ele><time>2026-04-20T19:57:56.745Z</time><hdop>4.875</hdop><vdop>4.375</vdop><extensions><gom:speed>0.125</gom:speed></extensions></trkpt>
   <trkpt lat="59.0676750636" lon="30.0358754885"><ele>16.754</ele><time>2026-04-20T19:57:58.075Z</time><hdop>4.875</hdop><vdop>4.687</vdop><extensions><gom:speed>0.118</gom:speed></extensions></trkpt>
   <trkpt lat="59.0676703697" lon="30.0358762429"><ele>16.737</ele><time>2026-04-20T19:57:59.076Z</time><hdop>4.875</hdop><vdop>4.75</vdop><extensions><gom:speed>0.125</gom:speed></extensions></trkpt>
   <trkpt lat="59.0676652987" lon="30.035876159"><ele>17.181</ele><time>2026-04-20T19:58:00.076Z</time><hdop>4.75</hdop><vdop>4.812</vdop><extensions><gom:speed>0.145</gom:speed></extensions></trkpt>
   <trkpt lat="59.0676640833" lon="30.0358769972"><ele>17.445</ele><time>2026-04-20T19:58:00.602Z</time><hdop>4.687</hdop><vdop>4.812</vdop><extensions><gom:speed>0.117</gom:speed></extensions></trkpt>
   <trkpt lat="59.0676615687" lon="30.035876159"><ele>17.578</ele><time>2026-04-20T19:58:01.075Z</time><hdop>4.5</hdop><vdop>4.812</vdop><extensions><gom:speed>0.123</gom:speed></extensions></trkpt>
   <trkpt lat="59.0676603953" lon="30.0358759914"><ele>17.658</ele><time>2026-04-20T19:58:01.803Z</time><hdop>4.437</hdop><vdop>4.812</vdop><extensions><gom:speed>0.128</gom:speed></extensions></trkpt>
   <trkpt lat="59.0676573778" lon="30.0358750694"><ele>17.92</ele><time>2026-04-20T19:58:03.023Z</time><hdop>4.375</hdop><vdop>4.875</vdop><extensions><gom:speed>0.144</gom:speed></extensions></trkpt>
   <trkpt lat="59.0676522648" lon="30.0358748179"><ele>18.1</ele><time>2026-04-20T19:58:04.076Z</time><hdop>4.25</hdop><vdop>4.875</vdop><extensions><gom:speed>0.17</gom:speed></extensions></trkpt>
   <trkpt lat="59.0676482834" lon="30.0358747341"><ele>18.274</ele><time>2026-04-20T19:58:05.075Z</time><hdop>4.187</hdop><vdop>5.0</vdop><extensions><gom:speed>0.16</gom:speed></extensions></trkpt>
   <trkpt lat="59.0676428771" lon="30.0358759914"><ele>18.64</ele><time>2026-04-20T19:58:06.075Z</time><hdop>4.187</hdop><vdop>5.062</vdop><extensions><gom:speed>0.236</gom:speed></extensions></trkpt>
   <trkpt lat="59.0676399853" lon="30.0358791765"><ele>18.858</ele><time>2026-04-20T19:58:06.915Z</time><hdop>4.125</hdop><vdop>5.062</vdop><extensions><gom:speed>0.296</gom:speed></extensions></trkpt>
   <trkpt lat="59.0676334893" lon="30.035881272"><ele>19.199</ele><time>2026-04-20T19:58:07.922Z</time><hdop>4.187</hdop><vdop>5.125</vdop><extensions><gom:speed>0.332</gom:speed></extensions></trkpt>
   <trkpt lat="59.0676277897" lon="30.0358798471"><ele>19.081</ele><time>2026-04-20T19:58:08.496Z</time><hdop>4.187</hdop><vdop>5.25</vdop><extensions><gom:speed>0.379</gom:speed></extensions></trkpt>
   <trkpt lat="59.0676248979" lon="30.0358790927"><ele>19.062</ele><time>2026-04-20T19:58:09.182Z</time><hdop>4.187</hdop><vdop>5.375</vdop><extensions><gom:speed>0.403</gom:speed></extensions></trkpt>
   <trkpt lat="59.0676158873" lon="30.0358749856"><ele>18.753</ele><time>2026-04-20T19:58:10.075Z</time><hdop>4.25</hdop><vdop>5.375</vdop><extensions><gom:speed>0.513</gom:speed></extensions></trkpt>
   <trkpt lat="59.0676078826" lon="30.0358713814"><ele>18.567</ele><time>2026-04-20T19:58:11.042Z</time><hdop>4.375</hdop><vdop>5.375</vdop><extensions><gom:speed>0.608</gom:speed></extensions></trkpt>
   <trkpt lat="59.0676019734" lon="30.0358686992"><ele>18.323</ele><time>2026-04-20T19:58:11.715Z</time><hdop>4.5</hdop><vdop>5.187</vdop><extensions><gom:speed>0.698</gom:speed></extensions></trkpt>
   <trkpt lat="59.0675917894" lon="30.0358593952"><ele>18.66</ele><time>2026-04-20T19:58:12.524Z</time><hdop>4.562</hdop><vdop>5.0</vdop><extensions><gom:speed>0.77</gom:speed></extensions></trkpt>
   <trkpt lat="59.0675853772" lon="30.0358537794"><ele>18.604</ele><time>2026-04-20T19:58:13.075Z</time><hdop>4.625</hdop><vdop>5.062</vdop><extensions><gom:speed>0.785</gom:speed></extensions></trkpt>
   <trkpt lat="59.0675755704" lon="30.0358455651"><ele>17.948</ele><time>2026-04-20T19:58:14.075Z</time><hdop>4.687</hdop><vdop>5.062</vdop><extensions><gom:speed>0.77</gom:speed></extensions></trkpt>
   <trkpt lat="59.067571589" lon="30.0358417932"><ele>17.556</ele><time>2026-04-20T19:58:14.536Z</time><hdop>4.75</hdop><vdop>5.062</vdop><extensions><gom:speed>0.764</gom:speed></extensions></trkpt>
   <trkpt lat="59.0675681943" lon="30.0358377699"><ele>17.119</ele><time>2026-04-20T19:58:14.987Z</time><hdop>4.75</hdop><vdop>5.125</vdop><extensions><gom:speed>0.76</gom:speed></extensions></trkpt>
   <trkpt lat="59.0675629975" lon="30.0358296395"><ele>16.858</ele><time>2026-04-20T19:58:15.898Z</time><hdop>4.875</hdop><vdop>5.125</vdop><extensions><gom:speed>0.666</gom:speed></extensions></trkpt>
   <trkpt lat="59.0675580941" lon="30.0358143844"><ele>16.955</ele><time>2026-04-20T19:58:17.075Z</time><hdop>4.875</hdop><vdop>5.25</vdop><extensions><gom:speed>0.602</gom:speed></extensions></trkpt>
   <trkpt lat="59.0675547833" lon="30.0358096906"><ele>17.013</ele><time>2026-04-20T19:58:17.984Z</time><hdop>4.875</hdop><vdop>5.25</vdop><extensions><gom:speed>0.515</gom:speed></extensions></trkpt>
   <trkpt lat="59.0675501732" lon="30.0358060863"><ele>17.177</ele><time>2026-04-20T19:58:18.761Z</time><hdop>4.937</hdop><vdop>5.125</vdop><extensions><gom:speed>0.547</gom:speed></extensions></trkpt>
   <trkpt lat="59.0675446831" lon="30.0358079304"><ele>17.456</ele><time>2026-04-20T19:58:19.760Z</time><hdop>4.937</hdop><vdop>5.5</vdop><extensions><gom:speed>0.544</gom:speed></extensions></trkpt>
   <trkpt lat="59.0675396958" lon="30.0358106964"><ele>17.22</ele><time>2026-04-20T19:58:20.617Z</time><hdop>5.0</hdop><vdop>5.5</vdop><extensions><gom:speed>0.575</gom:speed></extensions></trkpt>
   <trkpt lat="59.0675368879" lon="30.0358072598"><ele>17.063</ele><time>2026-04-20T19:58:21.075Z</time><hdop>5.0</hdop><vdop>5.187</vdop><extensions><gom:speed>0.58</gom:speed></extensions></trkpt>
   <trkpt lat="59.0675292604" lon="30.0358006381"><ele>16.969</ele><time>2026-04-20T19:58:21.960Z</time><hdop>5.062</hdop><vdop>5.187</vdop><extensions><gom:speed>0.616</gom:speed></extensions></trkpt>
   <trkpt lat="59.0675243989" lon="30.0357920886"><ele>16.69</ele><time>2026-04-20T19:58:23.075Z</time><hdop>5.125</hdop><vdop>4.812</vdop><extensions><gom:speed>0.639</gom:speed></extensions></trkpt>
   <trkpt lat="59.0675181963" lon="30.0357817788"><ele>16.196</ele><time>2026-04-20T19:58:24.075Z</time><hdop>5.187</hdop><vdop>5.0</vdop><extensions><gom:speed>0.646</gom:speed></extensions></trkpt>
   <trkpt lat="59.0675124966" lon="30.0357723911"><ele>15.728</ele><time>2026-04-20T19:58:25.075Z</time><hdop>5.25</hdop><vdop>5.187</vdop><extensions><gom:speed>0.647</gom:speed></extensions></trkpt>
   <trkpt lat="59.0675075932" lon="30.0357649312"><ele>15.149</ele><time>2026-04-20T19:58:26.004Z</time><hdop>5.25</hdop><vdop>5.187</vdop><extensions><gom:speed>0.633</gom:speed></extensions></trkpt>
   <trkpt lat="59.0675040728" lon="30.035758058"><ele>15.118</ele><time>2026-04-20T19:58:27.076Z</time><hdop>5.312</hdop><vdop>5.375</vdop><extensions><gom:speed>0.563</gom:speed></extensions></trkpt>
   <trkpt lat="59.0675041985" lon="30.0357588962"><ele>15.1</ele><time>2026-04-20T19:58:27.780Z</time><hdop>5.312</hdop><vdop>5.375</vdop><extensions><gom:speed>0.437</gom:speed></extensions></trkpt>
   <trkpt lat="59.0675008876" lon="30.0357562978"><ele>15.018</ele><time>2026-04-20T19:58:28.624Z</time><hdop>5.312</hdop><vdop>5.375</vdop><extensions><gom:speed>0.423</gom:speed></extensions></trkpt>
   <trkpt lat="59.0674998818" lon="30.0357538671"><ele>14.987</ele><time>2026-04-20T19:58:29.075Z</time><hdop>5.312</hdop><vdop>5.437</vdop><extensions><gom:speed>0.416</gom:speed></extensions></trkpt>
   <trkpt lat="59.0674966967" lon="30.035750682"><ele>14.969</ele><time>2026-04-20T19:58:29.995Z</time><hdop>5.312</hdop><vdop>5.437</vdop><extensions><gom:speed>0.433</gom:speed></extensions></trkpt>
   <trkpt lat="59.0674942659" lon="30.0357442279"><ele>14.624</ele><time>2026-04-20T19:58:30.618Z</time><hdop>5.375</hdop><vdop>5.5</vdop><extensions><gom:speed>0.517</gom:speed></extensions></trkpt>
   <trkpt lat="59.0674914999" lon="30.0357377738"><ele>14.551</ele><time>2026-04-20T19:58:31.075Z</time><hdop>5.312</hdop><vdop>5.5</vdop><extensions><gom:speed>0.563</gom:speed></extensions></trkpt>
   <trkpt lat="59.0674857583" lon="30.0357286376"><ele>14.76</ele><time>2026-04-20T19:58:32.075Z</time><hdop>5.312</hdop><vdop>5.437</vdop><extensions><gom:speed>0.557</gom:speed></extensions></trkpt>
   <trkpt lat="59.0674797652" lon="30.0357232731"><ele>14.885</ele><time>2026-04-20T19:58:32.800Z</time><hdop>5.312</hdop><vdop>5.437</vdop><extensions><gom:speed>0.704</gom:speed></extensions></trkpt>
   <trkpt lat="59.0674735626" lon="30.0357170705"><ele>14.792</ele><time>2026-04-20T19:58:33.578Z</time><hdop>5.437</hdop><vdop>5.312</vdop><extensions><gom:speed>0.724</gom:speed></extensions></trkpt>
   <trkpt lat="59.06747109" lon="30.0357089401"><ele>14.769</ele><time>2026-04-20T19:58:34.075Z</time><hdop>5.5</hdop><vdop>5.187</vdop><extensions><gom:speed>0.668</gom:speed></extensions></trkpt>
   <trkpt lat="59.0674720958" lon="30.0357007258"><ele>14.723</ele><time>2026-04-20T19:58:35.006Z</time><hdop>5.562</hdop><vdop>5.187</vdop><extensions><gom:speed>0.605</gom:speed></extensions></trkpt>
   <trkpt lat="59.0674712995" lon="30.0356901646"><ele>14.696</ele><time>2026-04-20T19:58:35.878Z</time><hdop>5.687</hdop><vdop>5.187</vdop><extensions><gom:speed>0.695</gom:speed></extensions></trkpt>
   <trkpt lat="59.0674666895" lon="30.035676083"><ele>14.386</ele><time>2026-04-20T19:58:36.857Z</time><hdop>5.75</hdop><vdop>5.375</vdop><extensions><gom:speed>0.821</gom:speed></extensions></trkpt>
   <trkpt lat="59.0674555835" lon="30.0356679526"><ele>14.061</ele><time>2026-04-20T19:58:38.075Z</time><hdop>5.812</hdop><vdop>5.75</vdop><extensions><gom:speed>0.803</gom:speed></extensions></trkpt>
   <trkpt lat="59.0674499676" lon="30.0356623367"><ele>13.866</ele><time>2026-04-20T19:58:38.762Z</time><hdop>5.812</hdop><vdop>5.75</vdop><extensions><gom:speed>0.796</gom:speed></extensions></trkpt>
   <trkpt lat="59.0674405798" lon="30.0356554635"><ele>13.78</ele><time>2026-04-20T19:58:39.580Z</time><hdop>5.812</hdop><vdop>5.75</vdop><extensions><gom:speed>0.864</gom:speed></extensions></trkpt>
   <trkpt lat="59.0674347963" lon="30.0356513564"><ele>13.891</ele><time>2026-04-20T19:58:40.075Z</time><hdop>5.75</hdop><vdop>5.5</vdop><extensions><gom:speed>0.875</gom:speed></extensions></trkpt>
   <trkpt lat="59.067427085" lon="30.0356435612"><ele>13.957</ele><time>2026-04-20T19:58:40.736Z</time><hdop>5.687</hdop><vdop>5.5</vdop><extensions><gom:speed>0.849</gom:speed></extensions></trkpt>
   <trkpt lat="59.0674193736" lon="30.0356435612"><ele>13.983</ele><time>2026-04-20T19:58:41.575Z</time><hdop>5.562</hdop><vdop>5.5</vdop><extensions><gom:speed>0.839</gom:speed></extensions></trkpt>
   <trkpt lat="59.0674142607" lon="30.035644148"><ele>13.913</ele><time>2026-04-20T19:58:42.075Z</time><hdop>5.5</hdop><vdop>5.437</vdop><extensions><gom:speed>0.815</gom:speed></extensions></trkpt>
   <trkpt lat="59.0674046634" lon="30.0356422201"><ele>13.983</ele><time>2026-04-20T19:58:43.076Z</time><hdop>5.375</hdop><vdop>5.5</vdop><extensions><gom:speed>0.841</gom:speed></extensions></trkpt>
   <trkpt lat="59.0673969939" lon="30.035637191"><ele>14.025</ele><time>2026-04-20T19:58:43.874Z</time><hdop>5.25</hdop><vdop>5.5</vdop><extensions><gom:speed>0.912</gom:speed></extensions></trkpt>
   <trkpt lat="59.0673873967" lon="30.035627468"><ele>14.116</ele><time>2026-04-20T19:58:44.842Z</time><hdop>5.187</hdop><vdop>5.375</vdop><extensions><gom:speed>0.992</gom:speed></extensions></trkpt>
   <trkpt lat="59.0673754944" lon="30.0356088602"><ele>14.235</ele><time>2026-04-20T19:58:45.961Z</time><hdop>5.062</hdop><vdop>5.312</vdop><extensions><gom:speed>1.145</gom:speed></extensions></trkpt>
   <trkpt lat="59.0673658971" lon="30.0355908391"><ele>14.29</ele><time>2026-04-20T19:58:46.758Z</time><hdop>5.062</hdop><vdop>5.437</vdop><extensions><gom:speed>1.274</gom:speed></extensions></trkpt>
   <trkpt lat="59.0673593592" lon="30.0355745782"><ele>14.422</ele><time>2026-04-20T19:58:47.358Z</time><hdop>5.125</hdop><vdop>5.625</vdop><extensions><gom:speed>1.311</gom:speed></extensions></trkpt>
   <trkpt lat="59.0673528632" lon="30.0355594907"><ele>14.501</ele><time>2026-04-20T19:58:48.086Z</time><hdop>5.125</hdop><vdop>5.625</vdop><extensions><gom:speed>1.314</gom:speed></extensions></trkpt>
   <trkpt lat="59.0673477922" lon="30.0355428946"><ele>14.264</ele><time>2026-04-20T19:58:48.839Z</time><hdop>5.125</hdop><vdop>5.625</vdop><extensions><gom:speed>1.206</gom:speed></extensions></trkpt>
   <trkpt lat="59.067342763" lon="30.0355243706"><ele>13.982</ele><time>2026-04-20T19:58:49.835Z</time><hdop>5.187</hdop><vdop>5.625</vdop><extensions><gom:speed>1.061</gom:speed></extensions></trkpt>
   <trkpt lat="59.067339997" lon="30.0355124683"><ele>13.921</ele><time>2026-04-20T19:58:50.598Z</time><hdop>5.187</hdop><vdop>5.937</vdop><extensions><gom:speed>0.952</gom:speed></extensions></trkpt>
   <trkpt lat="59.0673388654" lon="30.0355044216"><ele>13.986</ele><time>2026-04-20T19:58:51.075Z</time><hdop>5.187</hdop><vdop>6.312</vdop><extensions><gom:speed>0.941</gom:speed></extensions></trkpt>
   <trkpt lat="59.0673355965" lon="30.0354895857"><ele>14.024</ele><time>2026-04-20T19:58:52.020Z</time><hdop>5.187</hdop><vdop>6.312</vdop><extensions><gom:speed>0.9</gom:speed></extensions></trkpt>
   <trkpt lat="59.0673350936" lon="30.0354705588"><ele>14.564</ele><time>2026-04-20T19:58:52.760Z</time><hdop>5.125</hdop><vdop>6.187</vdop><extensions><gom:speed>0.879</gom:speed></extensions></trkpt>
   <trkpt lat="59.0673351774" lon="30.035456561"><ele>14.684</ele><time>2026-04-20T19:58:53.618Z</time><hdop>5.062</hdop><vdop>5.937</vdop><extensions><gom:speed>0.848</gom:speed></extensions></trkpt>
   <trkpt lat="59.0673351774" lon="30.0354479276"><ele>14.664</ele><time>2026-04-20T19:58:54.075Z</time><hdop>5.0</hdop><vdop>5.687</vdop><extensions><gom:speed>0.839</gom:speed></extensions></trkpt>
   <trkpt lat="59.0673326628" lon="30.0354309962"><ele>14.179</ele><time>2026-04-20T19:58:55.075Z</time><hdop>4.937</hdop><vdop>5.562</vdop><extensions><gom:speed>0.833</gom:speed></extensions></trkpt>
   <trkpt lat="59.0673285976" lon="30.0354192615"><ele>13.888</ele><time>2026-04-20T19:58:56.075Z</time><hdop>4.937</hdop><vdop>5.562</vdop><extensions><gom:speed>0.78</gom:speed></extensions></trkpt>
   <trkpt lat="59.0673249934" lon="30.0354126398"><ele>13.955</ele><time>2026-04-20T19:58:56.934Z</time><hdop>5.0</hdop><vdop>5.437</vdop><extensions><gom:speed>0.741</gom:speed></extensions></trkpt>
   <trkpt lat="59.0673222693" lon="30.0354051799"><ele>13.159</ele><time>2026-04-20T19:58:58.075Z</time><hdop>5.125</hdop><vdop>5.25</vdop><extensions><gom:speed>0.646</gom:speed></extensions></trkpt>
   <trkpt lat="59.0673217664" lon="30.0354036712"><ele>12.684</ele><time>2026-04-20T19:58:58.697Z</time><hdop>5.187</hdop><vdop>5.25</vdop><extensions><gom:speed>0.591</gom:speed></extensions></trkpt>
   <trkpt lat="59.0673174916" lon="30.0354006537"><ele>12.744</ele><time>2026-04-20T19:58:59.253Z</time><hdop>5.25</hdop><vdop>5.375</vdop><extensions><gom:speed>0.58</gom:speed></extensions></trkpt>
   <trkpt lat="59.0673127977" lon="30.0353983906"><ele>12.78</ele><time>2026-04-20T19:58:59.997Z</time><hdop>5.312</hdop><vdop>5.375</vdop><extensions><gom:speed>0.634</gom:speed></extensions></trkpt>
   <trkpt lat="59.0673055893" lon="30.0353983906"><ele>12.851</ele><time>2026-04-20T19:59:00.757Z</time><hdop>5.375</hdop><vdop>5.437</vdop><extensions><gom:speed>0.681</gom:speed></extensions></trkpt>
   <trkpt lat="59.0672981713" lon="30.0353999831"><ele>13.297</ele><time>2026-04-20T19:59:01.593Z</time><hdop>5.312</hdop><vdop>5.375</vdop><extensions><gom:speed>0.688</gom:speed></extensions></trkpt>
   <trkpt lat="59.0672935613" lon="30.0354012404"><ele>13.637</ele><time>2026-04-20T19:59:02.075Z</time><hdop>5.312</hdop><vdop>5.25</vdop><extensions><gom:speed>0.694</gom:speed></extensions></trkpt>
   <trkpt lat="59.0672896637" lon="30.0354022462"><ele>13.841</ele><time>2026-04-20T19:59:02.583Z</time><hdop>5.25</hdop><vdop>5.25</vdop><extensions><gom:speed>0.687</gom:speed></extensions></trkpt>
   <trkpt lat="59.0672847603" lon="30.0354015757"><ele>14.126</ele><time>2026-04-20T19:59:03.075Z</time><hdop>5.187</hdop><vdop>5.312</vdop><extensions><gom:speed>0.692</gom:speed></extensions></trkpt>
   <trkpt lat="59.0672765879" lon="30.0353962951"><ele>14.292</ele><time>2026-04-20T19:59:04.075Z</time><hdop>5.125</hdop><vdop>5.312</vdop><extensions><gom:speed>0.675</gom:speed></extensions></trkpt>
   <trkpt lat="59.0672745763" lon="30.0353914336"><ele>14.391</ele><time>2026-04-20T19:59:04.574Z</time><hdop>5.062</hdop><vdop>5.312</vdop><extensions><gom:speed>0.624</gom:speed></extensions></trkpt>
   <trkpt lat="59.0672701758" lon="30.0353844766"><ele>14.837</ele><time>2026-04-20T19:59:05.075Z</time><hdop>5.0</hdop><vdop>5.312</vdop><extensions><gom:speed>0.63</gom:speed></extensions></trkpt>
   <trkpt lat="59.0672656914" lon="30.0353797827"><ele>14.879</ele><time>2026-04-20T19:59:06.075Z</time><hdop>4.937</hdop><vdop>5.187</vdop><extensions><gom:speed>0.556</gom:speed></extensions></trkpt>
   <trkpt lat="59.0672623806" lon="30.0353743345"><ele>14.745</ele><time>2026-04-20T19:59:06.990Z</time><hdop>4.875</hdop><vdop>5.187</vdop><extensions><gom:speed>0.5</gom:speed></extensions></trkpt>
   <trkpt lat="59.0672608718" lon="30.0353667908"><ele>14.665</ele><time>2026-04-20T19:59:07.920Z</time><hdop>4.937</hdop><vdop>5.187</vdop><extensions><gom:speed>0.51</gom:speed></extensions></trkpt>
   <trkpt lat="59.0672593631" lon="30.0353562296"><ele>14.368</ele><time>2026-04-20T19:59:08.800Z</time><hdop>5.0</hdop><vdop>10.562</vdop><extensions><gom:speed>0.566</gom:speed></extensions></trkpt>
   <trkpt lat="59.0672574772" lon="30.0353456684"><ele>14.342</ele><time>2026-04-20T19:59:09.678Z</time><hdop>5.187</hdop><vdop>10.5</vdop><extensions><gom:speed>0.591</gom:speed></extensions></trkpt>
   <trkpt lat="59.0672548788" lon="30.0353397172"><ele>14.294</ele><time>2026-04-20T19:59:10.301Z</time><hdop>5.375</hdop><vdop>10.375</vdop><extensions><gom:speed>0.601</gom:speed></extensions></trkpt>
   <trkpt lat="59.0672505621" lon="30.0353339337"><ele>14.494</ele><time>2026-04-20T19:59:11.075Z</time><hdop>5.437</hdop><vdop>10.25</vdop><extensions><gom:speed>0.645</gom:speed></extensions></trkpt>
   <trkpt lat="59.0672461616" lon="30.0353253842"><ele>14.614</ele><time>2026-04-20T19:59:11.860Z</time><hdop>5.625</hdop><vdop>10.25</vdop><extensions><gom:speed>0.698</gom:speed></extensions></trkpt>
   <trkpt lat="59.0672425993" lon="30.0353168347"><ele>14.617</ele><time>2026-04-20T19:59:12.540Z</time><hdop>5.812</hdop><vdop>10.312</vdop><extensions><gom:speed>0.738</gom:speed></extensions></trkpt>
   <trkpt lat="59.067239959" lon="30.0353124761"><ele>14.861</ele><time>2026-04-20T19:59:13.075Z</time><hdop>5.812</hdop><vdop>9.875</vdop><extensions><gom:speed>0.737</gom:speed></extensions></trkpt>
   <trkpt lat="59.0672351813" lon="30.0353034236"><ele>15.007</ele><time>2026-04-20T19:59:14.044Z</time><hdop>5.937</hdop><vdop>9.875</vdop><extensions><gom:speed>0.733</gom:speed></extensions></trkpt>
   <trkpt lat="59.0672311999" lon="30.0352957961"><ele>15.146</ele><time>2026-04-20T19:59:14.821Z</time><hdop>6.062</hdop><vdop>9.687</vdop><extensions><gom:speed>0.733</gom:speed></extensions></trkpt>
   <trkpt lat="59.0672275957" lon="30.0352885876"><ele>15.217</ele><time>2026-04-20T19:59:15.799Z</time><hdop>6.125</hdop><vdop>9.562</vdop><extensions><gom:speed>0.737</gom:speed></extensions></trkpt>
   <trkpt lat="59.0672242848" lon="30.0352776912"><ele>14.897</ele><time>2026-04-20T19:59:17.082Z</time><hdop>6.125</hdop><vdop>8.75</vdop><extensions><gom:speed>0.589</gom:speed></extensions></trkpt>
   <trkpt lat="59.0672229856" lon="30.0352692254"><ele>16.065</ele><time>2026-04-20T19:59:17.841Z</time><hdop>6.062</hdop><vdop>8.687</vdop><extensions><gom:speed>0.552</gom:speed></extensions></trkpt>
   <trkpt lat="59.0672217703" lon="30.0352641963"><ele>18.245</ele><time>2026-04-20T19:59:18.582Z</time><hdop>5.937</hdop><vdop>7.937</vdop><extensions><gom:speed>0.574</gom:speed></extensions></trkpt>
   <trkpt lat="59.0672203872" lon="30.0352585804"><ele>19.467</ele><time>2026-04-20T19:59:19.075Z</time><hdop>5.812</hdop><vdop>7.75</vdop><extensions><gom:speed>0.578</gom:speed></extensions></trkpt>
   <trkpt lat="59.0672162801" lon="30.0352442474"><ele>20.72</ele><time>2026-04-20T19:59:20.075Z</time><hdop>5.625</hdop><vdop>7.5</vdop><extensions><gom:speed>0.646</gom:speed></extensions></trkpt>
   <trkpt lat="59.0672129693" lon="30.0352333509"><ele>21.468</ele><time>2026-04-20T19:59:20.885Z</time><hdop>5.437</hdop><vdop>7.5</vdop><extensions><gom:speed>0.657</gom:speed></extensions></trkpt>
   <trkpt lat="59.067209868" lon="30.0352186826"><ele>23.258</ele><time>2026-04-20T19:59:21.533Z</time><hdop>5.25</hdop><vdop>7.437</vdop><extensions><gom:speed>0.721</gom:speed></extensions></trkpt>
   <trkpt lat="59.0672064733" lon="30.0352050201"><ele>25.858</ele><time>2026-04-20T19:59:22.075Z</time><hdop>5.25</hdop><vdop>7.437</vdop><extensions><gom:speed>0.732</gom:speed></extensions></trkpt>
   <trkpt lat="59.067201989" lon="30.035190687"><ele>27.412</ele><time>2026-04-20T19:59:22.837Z</time><hdop>5.125</hdop><vdop>7.437</vdop><extensions><gom:speed>0.803</gom:speed></extensions></trkpt>
   <trkpt lat="59.0671956606" lon="30.0351760187"><ele>28.81</ele><time>2026-04-20T19:59:23.442Z</time><hdop>5.0</hdop><vdop>7.5</vdop><extensions><gom:speed>0.805</gom:speed></extensions></trkpt>
   <trkpt lat="59.0671881588" lon="30.0351641164"><ele>30.355</ele><time>2026-04-20T19:59:24.075Z</time><hdop>5.0</hdop><vdop>7.625</vdop><extensions><gom:speed>0.82</gom:speed></extensions></trkpt>
   <trkpt lat="59.0671796931" lon="30.0351584167"><ele>31.279</ele><time>2026-04-20T19:59:24.978Z</time><hdop>4.937</hdop><vdop>7.625</vdop><extensions><gom:speed>0.776</gom:speed></extensions></trkpt>
   <trkpt lat="59.0671687966" lon="30.0351481908"><ele>32.102</ele><time>2026-04-20T19:59:25.817Z</time><hdop>4.937</hdop><vdop>7.5</vdop><extensions><gom:speed>0.768</gom:speed></extensions></trkpt>
   <trkpt lat="59.0671607919" lon="30.0351342768"><ele>33.17</ele><time>2026-04-20T19:59:26.320Z</time><hdop>4.937</hdop><vdop>7.187</vdop><extensions><gom:speed>0.794</gom:speed></extensions></trkpt>
   <trkpt lat="59.0671522843" lon="30.0351144955"><ele>34.178</ele><time>2026-04-20T19:59:27.075Z</time><hdop>4.937</hdop><vdop>7.125</vdop><extensions><gom:speed>0.821</gom:speed></extensions></trkpt>
   <trkpt lat="59.0671430642" lon="30.0350854941"><ele>36.309</ele><time>2026-04-20T19:59:28.075Z</time><hdop>4.937</hdop><vdop>7.062</vdop><extensions><gom:speed>0.814</gom:speed></extensions></trkpt>
   <trkpt lat="59.0671363587" lon="30.0350542296"><ele>39.369</ele><time>2026-04-20T19:59:29.075Z</time><hdop>5.0</hdop><vdop>6.75</vdop><extensions><gom:speed>0.783</gom:speed></extensions></trkpt>
   <trkpt lat="59.067130659" lon="30.0350223784"><ele>39.379</ele><time>2026-04-20T19:59:30.075Z</time><hdop>5.0</hdop><vdop>6.375</vdop><extensions><gom:speed>0.785</gom:speed></extensions></trkpt>
   <trkpt lat="59.067125085" lon="30.0350018427"><ele>38.179</ele><time>2026-04-20T19:59:31.035Z</time><hdop>5.0</hdop><vdop>5.937</vdop><extensions><gom:speed>0.756</gom:speed></extensions></trkpt>
   <trkpt lat="59.0671215646" lon="30.0349965621"><ele>37.461</ele><time>2026-04-20T19:59:31.938Z</time><hdop>5.0</hdop><vdop>5.937</vdop><extensions><gom:speed>0.691</gom:speed></extensions></trkpt>
   <trkpt lat="59.0671142724" lon="30.0349803851"><ele>35.712</ele><time>2026-04-20T19:59:33.076Z</time><hdop>5.0</hdop><vdop>5.437</vdop><extensions><gom:speed>0.626</gom:speed></extensions></trkpt>
   <trkpt lat="59.0671057647" lon="30.0349654653"><ele>33.508</ele><time>2026-04-20T19:59:34.075Z</time><hdop>4.937</hdop><vdop>5.125</vdop><extensions><gom:speed>0.585</gom:speed></extensions></trkpt>
   <trkpt lat="59.0670971733" lon="30.0349519704"><ele>32.142</ele><time>2026-04-20T19:59:35.075Z</time><hdop>4.812</hdop><vdop>5.062</vdop><extensions><gom:speed>0.61</gom:speed></extensions></trkpt>
   <trkpt lat="59.0670880789" lon="30.0349404872"><ele>30.211</ele><time>2026-04-20T19:59:36.075Z</time><hdop>4.687</hdop><vdop>4.875</vdop><extensions><gom:speed>0.638</gom:speed></extensions></trkpt>
   <trkpt lat="59.0670792779" lon="30.0349351228"><ele>29.225</ele><time>2026-04-20T19:59:37.075Z</time><hdop>4.5</hdop><vdop>4.937</vdop><extensions><gom:speed>0.615</gom:speed></extensions></trkpt>
   <trkpt lat="59.0670727819" lon="30.0349349551"><ele>28.617</ele><time>2026-04-20T19:59:38.024Z</time><hdop>4.375</hdop><vdop>5.125</vdop><extensions><gom:speed>0.608</gom:speed></extensions></trkpt>
   <trkpt lat="59.0670675852" lon="30.0349335302"><ele>28.319</ele><time>2026-04-20T19:59:38.972Z</time><hdop>4.375</hdop><vdop>5.312</vdop><extensions><gom:speed>0.571</gom:speed></extensions></trkpt>
   <trkpt lat="59.0670613825" lon="30.034928082"><ele>28.697</ele><time>2026-04-20T19:59:40.075Z</time><hdop>4.375</hdop><vdop>5.5</vdop><extensions><gom:speed>0.516</gom:speed></extensions></trkpt>
   <trkpt lat="59.0670544675" lon="30.0349217956"><ele>29.369</ele><time>2026-04-20T19:59:41.075Z</time><hdop>4.437</hdop><vdop>5.437</vdop><extensions><gom:speed>0.505</gom:speed></extensions></trkpt>
   <trkpt lat="59.0670522882" lon="30.0349205383"><ele>29.77</ele><time>2026-04-20T19:59:41.578Z</time><hdop>4.437</hdop><vdop>5.437</vdop><extensions><gom:speed>0.541</gom:speed></extensions></trkpt>
   <trkpt lat="59.0670436967" lon="30.0349164311"><ele>30.753</ele><time>2026-04-20T19:59:42.075Z</time><hdop>4.5</hdop><vdop>5.312</vdop><extensions><gom:speed>0.608</gom:speed></extensions></trkpt>
   <trkpt lat="59.0670311658" lon="30.034912324"><ele>32.261</ele><time>2026-04-20T19:59:43.075Z</time><hdop>4.625</hdop><vdop>5.25</vdop><extensions><gom:speed>0.761</gom:speed></extensions></trkpt>
   <trkpt lat="59.0670218619" lon="30.0349056185"><ele>33.163</ele><time>2026-04-20T19:59:44.002Z</time><hdop>4.687</hdop><vdop>5.25</vdop><extensions><gom:speed>0.826</gom:speed></extensions></trkpt>
   <trkpt lat="59.0670144858" lon="30.0348972366"><ele>34.181</ele><time>2026-04-20T19:59:44.641Z</time><hdop>4.687</hdop><vdop>5.25</vdop><extensions><gom:speed>0.852</gom:speed></extensions></trkpt>
   <trkpt lat="59.0670088699" lon="30.0348865916"><ele>34.882</ele><time>2026-04-20T19:59:45.313Z</time><hdop>4.75</hdop><vdop>5.562</vdop><extensions><gom:speed>0.852</gom:speed></extensions></trkpt>
   <trkpt lat="59.0670049723" lon="30.0348735996"><ele>36.421</ele><time>2026-04-20T19:59:46.075Z</time><hdop>4.687</hdop><vdop>5.75</vdop><extensions><gom:speed>0.855</gom:speed></extensions></trkpt>
   <trkpt lat="59.0670035893" lon="30.0348607753"><ele>37.34</ele><time>2026-04-20T19:59:46.815Z</time><hdop>4.75</hdop><vdop>5.75</vdop><extensions><gom:speed>0.861</gom:speed></extensions></trkpt>
   <trkpt lat="59.0670035893" lon="30.0348458555"><ele>36.706</ele><time>2026-04-20T19:59:47.574Z</time><hdop>4.687</hdop><vdop>5.687</vdop><extensions><gom:speed>0.875</gom:speed></extensions></trkpt>
   <trkpt lat="59.0670041761" lon="30.0348306843"><ele>35.512</ele><time>2026-04-20T19:59:48.075Z</time><hdop>4.687</hdop><vdop>5.562</vdop><extensions><gom:speed>0.896</gom:speed></extensions></trkpt>
   <trkpt lat="59.067002793" lon="30.03481786"><ele>34.798</ele><time>2026-04-20T19:59:48.996Z</time><hdop>4.687</hdop><vdop>5.562</vdop><extensions><gom:speed>0.891</gom:speed></extensions></trkpt>
   <trkpt lat="59.0669994822" lon="30.0348052871"><ele>33.73</ele><time>2026-04-20T19:59:49.795Z</time><hdop>4.625</hdop><vdop>5.25</vdop><extensions><gom:speed>0.86</gom:speed></extensions></trkpt>
   <trkpt lat="59.0669965904" lon="30.034796067"><ele>31.972</ele><time>2026-04-20T19:59:50.457Z</time><hdop>4.562</hdop><vdop>5.25</vdop><extensions><gom:speed>0.841</gom:speed></extensions></trkpt>
   <trkpt lat="59.0669932796" lon="30.0347885233"><ele>30.191</ele><time>2026-04-20T19:59:51.075Z</time><hdop>4.562</hdop><vdop>5.125</vdop><extensions><gom:speed>0.865</gom:speed></extensions></trkpt>
   <trkpt lat="59.0669862807" lon="30.0347807281"><ele>29.127</ele><time>2026-04-20T19:59:51.940Z</time><hdop>4.562</hdop><vdop>5.125</vdop><extensions><gom:speed>0.9</gom:speed></extensions></trkpt>
   <trkpt lat="59.0669799943" lon="30.0347749446"><ele>28.468</ele><time>2026-04-20T19:59:52.677Z</time><hdop>4.625</hdop><vdop>5.187</vdop><extensions><gom:speed>0.944</gom:speed></extensions></trkpt>
   <trkpt lat="59.0669730792" lon="30.034769664"><ele>27.859</ele><time>2026-04-20T19:59:53.458Z</time><hdop>4.75</hdop><vdop>4.875</vdop><extensions><gom:speed>0.906</gom:speed></extensions></trkpt>
   <trkpt lat="59.0669678824" lon="30.0347665627"><ele>26.615</ele><time>2026-04-20T19:59:54.075Z</time><hdop>4.812</hdop><vdop>4.75</vdop><extensions><gom:speed>0.848</gom:speed></extensions></trkpt>
   <trkpt lat="59.0669623923" lon="30.0347635452"><ele>25.439</ele><time>2026-04-20T19:59:54.964Z</time><hdop>4.937</hdop><vdop>4.687</vdop><extensions><gom:speed>0.839</gom:speed></extensions></trkpt>
   <trkpt lat="59.0669579918" lon="30.0347587675"><ele>24.212</ele><time>2026-04-20T19:59:56.076Z</time><hdop>5.062</hdop><vdop>4.812</vdop><extensions><gom:speed>0.808</gom:speed></extensions></trkpt>
   <trkpt lat="59.0669534655" lon="30.0347522297"><ele>23.478</ele><time>2026-04-20T19:59:57.021Z</time><hdop>5.25</hdop><vdop>4.812</vdop><extensions><gom:speed>0.78</gom:speed></extensions></trkpt>
   <trkpt lat="59.0669507833" lon="30.0347508885"><ele>22.683</ele><time>2026-04-20T19:59:57.920Z</time><hdop>5.375</hdop><vdop>4.875</vdop><extensions><gom:speed>0.732</gom:speed></extensions></trkpt>
   <trkpt lat="59.0669491908" lon="30.0347522297"><ele>21.74</ele><time>2026-04-20T19:59:58.702Z</time><hdop>5.437</hdop><vdop>4.875</vdop><extensions><gom:speed>0.722</gom:speed></extensions></trkpt>
   <trkpt lat="59.0669452932" lon="30.0347556662"><ele>20.488</ele><time>2026-04-20T19:59:59.500Z</time><hdop>5.437</hdop><vdop>4.812</vdop><extensions><gom:speed>0.734</gom:speed></extensions></trkpt>
   <trkpt lat="59.0669418985" lon="30.0347581808"><ele>19.662</ele><time>2026-04-20T20:00:00.075Z</time><hdop>5.437</hdop><vdop>4.875</vdop><extensions><gom:speed>0.742</gom:speed></extensions></trkpt>
   <trkpt lat="59.0669341872" lon="30.0347537384"><ele>19.169</ele><time>2026-04-20T20:00:01.059Z</time><hdop>5.375</hdop><vdop>4.875</vdop><extensions><gom:speed>0.79</gom:speed></extensions></trkpt>
   <trkpt lat="59.0669296609" lon="30.0347555824"><ele>18.423</ele><time>2026-04-20T20:00:01.919Z</time><hdop>5.375</hdop><vdop>4.875</vdop><extensions><gom:speed>0.78</gom:speed></extensions></trkpt>
   <trkpt lat="59.0669259729" lon="30.0347549957"><ele>18.06</ele><time>2026-04-20T20:00:02.580Z</time><hdop>5.312</hdop><vdop>5.062</vdop><extensions><gom:speed>0.702</gom:speed></extensions></trkpt>
   <trkpt lat="59.0669244642" lon="30.0347591866"><ele>17.234</ele><time>2026-04-20T20:00:03.075Z</time><hdop>5.312</hdop><vdop>5.375</vdop><extensions><gom:speed>0.669</gom:speed></extensions></trkpt>
   <trkpt lat="59.0669214886" lon="30.0347569235"><ele>16.196</ele><time>2026-04-20T20:00:03.966Z</time><hdop>5.375</hdop><vdop>5.625</vdop><extensions><gom:speed>0.613</gom:speed></extensions></trkpt>
   <trkpt lat="59.0669182615" lon="30.0347487931"><ele>15.576</ele><time>2026-04-20T20:00:04.997Z</time><hdop>5.5</hdop><vdop>5.625</vdop><extensions><gom:speed>0.624</gom:speed></extensions></trkpt>
   <trkpt lat="59.0669197703" lon="30.0347519782"><ele>15.303</ele><time>2026-04-20T20:00:05.604Z</time><hdop>5.562</hdop><vdop>5.562</vdop><extensions><gom:speed>0.618</gom:speed></extensions></trkpt>
   <trkpt lat="59.0669222849" lon="30.0347545766"><ele>15.077</ele><time>2026-04-20T20:00:06.075Z</time><hdop>5.562</hdop><vdop>5.687</vdop><extensions><gom:speed>0.657</gom:speed></extensions></trkpt>
   <trkpt lat="59.0669247994" lon="30.0347415846"><ele>14.942</ele><time>2026-04-20T20:00:06.862Z</time><hdop>5.562</hdop><vdop>5.687</vdop><extensions><gom:speed>0.776</gom:speed></extensions></trkpt>
   <trkpt lat="59.0669285713" lon="30.0347398244"><ele>14.768</ele><time>2026-04-20T20:00:07.641Z</time><hdop>5.562</hdop><vdop>5.687</vdop><extensions><gom:speed>0.762</gom:speed></extensions></trkpt>
   <trkpt lat="59.0669302896" lon="30.0347397406"><ele>14.581</ele><time>2026-04-20T20:00:08.505Z</time><hdop>5.5</hdop><vdop>5.625</vdop><extensions><gom:speed>0.69</gom:speed></extensions></trkpt>
   <trkpt lat="59.0669269787" lon="30.0347363879"><ele>14.321</ele><time>2026-04-20T20:00:09.320Z</time><hdop>5.562</hdop><vdop>10.375</vdop><extensions><gom:speed>0.688</gom:speed></extensions></trkpt>
   <trkpt lat="59.0669262663" lon="30.0347424228"><ele>14.107</ele><time>2026-04-20T20:00:10.075Z</time><hdop>5.5</hdop><vdop>10.5</vdop><extensions><gom:speed>0.56</gom:speed></extensions></trkpt>
   <trkpt lat="59.0669249671" lon="30.0347447698"><ele>13.98</ele><time>2026-04-20T20:00:10.682Z</time><hdop>5.5</hdop><vdop>10.5</vdop><extensions><gom:speed>0.489</gom:speed></extensions></trkpt>
   <trkpt lat="59.066922662" lon="30.0347454403"><ele>13.973</ele><time>2026-04-20T20:00:11.702Z</time><hdop>5.687</hdop><vdop>10.562</vdop><extensions><gom:speed>0.405</gom:speed></extensions></trkpt>
   <trkpt lat="59.0669251766" lon="30.0347555824"><ele>13.962</ele><time>2026-04-20T20:00:12.495Z</time><hdop>5.75</hdop><vdop>10.25</vdop><extensions><gom:speed>0.353</gom:speed></extensions></trkpt>
   <trkpt lat="59.0669241708" lon="30.0347596895"><ele>13.92</ele><time>2026-04-20T20:00:12.969Z</time><hdop>5.937</hdop><vdop>10.125</vdop><extensions><gom:speed>0.329</gom:speed></extensions></trkpt>
   <trkpt lat="59.0669228716" lon="30.0347604439"><ele>13.895</ele><time>2026-04-20T20:00:13.694Z</time><hdop>6.062</hdop><vdop>10.125</vdop><extensions><gom:speed>0.345</gom:speed></extensions></trkpt>
   <trkpt lat="59.0669238774" lon="30.0347680714"><ele>13.829</ele><time>2026-04-20T20:00:14.524Z</time><hdop>6.062</hdop><vdop>9.937</vdop><extensions><gom:speed>0.362</gom:speed></extensions></trkpt>
   <trkpt lat="59.0669249671" lon="30.0347734359"><ele>13.714</ele><time>2026-04-20T20:00:15.075Z</time><hdop>6.062</hdop><vdop>9.812</vdop><extensions><gom:speed>0.357</gom:speed></extensions></trkpt>
   <trkpt lat="59.066924087" lon="30.0347776268"><ele>13.869</ele><time>2026-04-20T20:00:16.075Z</time><hdop>6.0</hdop><vdop>8.375</vdop><extensions><gom:speed>0.415</gom:speed></extensions></trkpt>
   <trkpt lat="59.0669210695" lon="30.0347746932"><ele>13.962</ele><time>2026-04-20T20:00:17.003Z</time><hdop>5.937</hdop><vdop>8.375</vdop><extensions><gom:speed>0.455</gom:speed></extensions></trkpt>
   <trkpt lat="59.0669219915" lon="30.0347647187"><ele>13.464</ele><time>2026-04-20T20:00:18.038Z</time><hdop>5.875</hdop><vdop>7.625</vdop><extensions><gom:speed>0.461</gom:speed></extensions></trkpt>
   <trkpt lat="59.066924087" lon="30.0347624556"><ele>12.616</ele><time>2026-04-20T20:00:18.655Z</time><hdop>5.812</hdop><vdop>7.062</vdop><extensions><gom:speed>0.439</gom:speed></extensions></trkpt>
   <trkpt lat="59.0669256795" lon="30.0347552471"><ele>11.83</ele><time>2026-04-20T20:00:19.924Z</time><hdop>5.625</hdop><vdop>7.125</vdop><extensions><gom:speed>0.338</gom:speed></extensions></trkpt>
   <trkpt lat="59.0669253862" lon="30.0347564206"><ele>11.946</ele><time>2026-04-20T20:00:20.643Z</time><hdop>5.625</hdop><vdop>7.312</vdop><extensions><gom:speed>0.328</gom:speed></extensions></trkpt>
   <trkpt lat="59.0669225782" lon="30.034756253"><ele>11.886</ele><time>2026-04-20T20:00:21.777Z</time><hdop>5.5</hdop><vdop>7.062</vdop><extensions><gom:speed>0.335</gom:speed></extensions></trkpt>
   <trkpt lat="59.0669182615" lon="30.0347519782"><ele>11.616</ele><time>2026-04-20T20:00:23.075Z</time><hdop>5.25</hdop><vdop>6.937</vdop><extensions><gom:speed>0.338</gom:speed></extensions></trkpt>
   <trkpt lat="59.0669165852" lon="30.0347471167"><ele>11.59</ele><time>2026-04-20T20:00:24.075Z</time><hdop>5.125</hdop><vdop>6.75</vdop><extensions><gom:speed>0.302</gom:speed></extensions></trkpt>
   <trkpt lat="59.0669160823" lon="30.0347444345"><ele>11.574</ele><time>2026-04-20T20:00:24.856Z</time><hdop>5.062</hdop><vdop>6.75</vdop><extensions><gom:speed>0.271</gom:speed></extensions></trkpt>
   <trkpt lat="59.0669153698" lon="30.034738651"><ele>11.677</ele><time>2026-04-20T20:00:26.082Z</time><hdop>4.812</hdop><vdop>6.687</vdop><extensions><gom:speed>0.202</gom:speed></extensions></trkpt>
   <trkpt lat="59.0669132743" lon="30.0347339571"><ele>12.073</ele><time>2026-04-20T20:00:27.075Z</time><hdop>4.75</hdop><vdop>6.937</vdop><extensions><gom:speed>0.178</gom:speed></extensions></trkpt>
   <trkpt lat="59.0669107597" lon="30.0347309396"><ele>12.673</ele><time>2026-04-20T20:00:28.075Z</time><hdop>4.75</hdop><vdop>7.062</vdop><extensions><gom:speed>0.167</gom:speed></extensions></trkpt>
   <trkpt lat="59.06690879" lon="30.0347271678"><ele>13.219</ele><time>2026-04-20T20:00:29.075Z</time><hdop>4.625</hdop><vdop>7.062</vdop><extensions><gom:speed>0.126</gom:speed></extensions></trkpt>
   <trkpt lat="59.0669067783" lon="30.0347243179"><ele>13.849</ele><time>2026-04-20T20:00:30.075Z</time><hdop>4.5</hdop><vdop>7.0</vdop><extensions><gom:speed>0.123</gom:speed></extensions></trkpt>
   <trkpt lat="59.0669048924" lon="30.0347216357"><ele>14.565</ele><time>2026-04-20T20:00:31.075Z</time><hdop>4.5</hdop><vdop>7.187</vdop><extensions><gom:speed>0.092</gom:speed></extensions></trkpt>
   <trkpt lat="59.0669042638" lon="30.0347200431"><ele>15.401</ele><time>2026-04-20T20:00:32.040Z</time><hdop>4.437</hdop><vdop>7.125</vdop><extensions><gom:speed>0.11</gom:speed></extensions></trkpt>
   <trkpt lat="59.0669026712" lon="30.0347154331"><ele>16.639</ele><time>2026-04-20T20:00:33.075Z</time><hdop>4.437</hdop><vdop>7.0</vdop><extensions><gom:speed>0.069</gom:speed></extensions></trkpt>
   <trkpt lat="59.0669003662" lon="30.034708979"><ele>17.784</ele><time>2026-04-20T20:00:34.075Z</time><hdop>4.437</hdop><vdop>7.062</vdop><extensions><gom:speed>0.074</gom:speed></extensions></trkpt>
   <trkpt lat="59.0668980612" lon="30.0347022735"><ele>18.779</ele><time>2026-04-20T20:00:35.075Z</time><hdop>4.5</hdop><vdop>10.0</vdop><extensions><gom:speed>0.071</gom:speed></extensions></trkpt>
   <trkpt lat="59.0668954628" lon="30.0346970767"><ele>19.646</ele><time>2026-04-20T20:00:36.076Z</time><hdop>4.5</hdop><vdop>9.437</vdop><extensions><gom:speed>0.099</gom:speed></extensions></trkpt>
   <trkpt lat="59.0668946665" lon="30.0346947298"><ele>19.761</ele><time>2026-04-20T20:00:37.015Z</time><hdop>4.562</hdop><vdop>8.5</vdop><extensions><gom:speed>0.082</gom:speed></extensions></trkpt>
   <trkpt lat="59.0668941636" lon="30.0346936401"><ele>19.829</ele><time>2026-04-20T20:00:37.998Z</time><hdop>4.687</hdop><vdop>8.5</vdop><extensions><gom:speed>0.097</gom:speed></extensions></trkpt>
   <trkpt lat="59.0668884639" lon="30.0346820731"><ele>19.733</ele><time>2026-04-20T20:00:39.075Z</time><hdop>4.75</hdop><vdop>7.187</vdop><extensions><gom:speed>0.124</gom:speed></extensions></trkpt>
   <trkpt lat="59.0668833928" lon="30.0346729368"><ele>19.5</ele><time>2026-04-20T20:00:40.075Z</time><hdop>4.812</hdop><vdop>6.625</vdop><extensions><gom:speed>0.179</gom:speed></extensions></trkpt>
   <trkpt lat="59.0668805849" lon="30.0346721825"><ele>19.36</ele><time>2026-04-20T20:00:40.978Z</time><hdop>4.812</hdop><vdop>6.625</vdop><extensions><gom:speed>0.233</gom:speed></extensions></trkpt>
   <trkpt lat="59.0668738794" lon="30.0346688297"><ele>19.852</ele><time>2026-04-20T20:00:42.053Z</time><hdop>4.875</hdop><vdop>6.375</vdop><extensions><gom:speed>0.338</gom:speed></extensions></trkpt>
   <trkpt lat="59.0668677606" lon="30.034666399"><ele>19.629</ele><time>2026-04-20T20:00:43.057Z</time><hdop>4.875</hdop><vdop>6.312</vdop><extensions><gom:speed>0.335</gom:speed></extensions></trkpt>
   <trkpt lat="59.0668604683" lon="30.034666399"><ele>19.546</ele><time>2026-04-20T20:00:44.075Z</time><hdop>4.812</hdop><vdop>5.937</vdop><extensions><gom:speed>0.381</gom:speed></extensions></trkpt>
   <trkpt lat="59.0668570737" lon="30.0346653931"><ele>19.496</ele><time>2026-04-20T20:00:44.799Z</time><hdop>4.812</hdop><vdop>5.937</vdop><extensions><gom:speed>0.393</gom:speed></extensions></trkpt>
   <trkpt lat="59.0668516673" lon="30.0346605316"><ele>19.388</ele><time>2026-04-20T20:00:45.302Z</time><hdop>4.75</hdop><vdop>6.062</vdop><extensions><gom:speed>0.418</gom:speed></extensions></trkpt>
   <trkpt lat="59.0668502843" lon="30.0346572627"><ele>19.287</ele><time>2026-04-20T20:00:46.018Z</time><hdop>4.75</hdop><vdop>6.0</vdop><extensions><gom:speed>0.347</gom:speed></extensions></trkpt>
   <trkpt lat="59.0668452971" lon="30.0346510601"><ele>18.872</ele><time>2026-04-20T20:00:47.075Z</time><hdop>4.687</hdop><vdop>5.937</vdop><extensions><gom:speed>0.334</gom:speed></extensions></trkpt>
   <trkpt lat="59.0668416929" lon="30.0346486293"><ele>18.625</ele><time>2026-04-20T20:00:48.096Z</time><hdop>4.687</hdop><vdop>5.937</vdop><extensions><gom:speed>0.32</gom:speed></extensions></trkpt>
   <trkpt lat="59.0668320956" lon="30.0346475397"><ele>17.08</ele><time>2026-04-20T20:00:49.075Z</time><hdop>4.625</hdop><vdop>5.687</vdop><extensions><gom:speed>0.364</gom:speed></extensions></trkpt>
   <trkpt lat="59.0668310898" lon="30.0346471206"><ele>16.158</ele><time>2026-04-20T20:00:49.571Z</time><hdop>4.625</hdop><vdop>5.687</vdop><extensions><gom:speed>0.294</gom:speed></extensions></trkpt>
   <trkpt lat="59.066823588" lon="30.0346482941"><ele>15.33</ele><time>2026-04-20T20:00:50.075Z</time><hdop>4.625</hdop><vdop>5.812</vdop><extensions><gom:speed>0.306</gom:speed></extensions></trkpt>
   <trkpt lat="59.0668166729" lon="30.0346493837"><ele>14.745</ele><time>2026-04-20T20:00:51.076Z</time><hdop>4.562</hdop><vdop>5.875</vdop><extensions><gom:speed>0.319</gom:speed></extensions></trkpt>
   <trkpt lat="59.0668099674" lon="30.0346540776"><ele>14.585</ele><time>2026-04-20T20:00:52.075Z</time><hdop>4.562</hdop><vdop>5.937</vdop><extensions><gom:speed>0.337</gom:speed></extensions></trkpt>
   <trkpt lat="59.0668070756" lon="30.0346592743"><ele>14.489</ele><time>2026-04-20T20:00:52.864Z</time><hdop>4.5</hdop><vdop>5.937</vdop><extensions><gom:speed>0.357</gom:speed></extensions></trkpt>
   <trkpt lat="59.0668018788" lon="30.0346659799"><ele>14.491</ele><time>2026-04-20T20:00:53.534Z</time><hdop>4.5</hdop><vdop>5.937</vdop><extensions><gom:speed>0.455</gom:speed></extensions></trkpt>
   <trkpt lat="59.0667970592" lon="30.0346726854"><ele>14.438</ele><time>2026-04-20T20:00:54.075Z</time><hdop>4.5</hdop><vdop>5.812</vdop><extensions><gom:speed>0.506</gom:speed></extensions></trkpt>
   <trkpt lat="59.0667874619" lon="30.0346844201"><ele>14.407</ele><time>2026-04-20T20:00:54.859Z</time><hdop>4.562</hdop><vdop>5.812</vdop><extensions><gom:speed>0.775</gom:speed></extensions></trkpt>
   <trkpt lat="59.0667765655" lon="30.0346951489"><ele>13.973</ele><time>2026-04-20T20:00:55.478Z</time><hdop>4.625</hdop><vdop>5.75</vdop><extensions><gom:speed>0.93</gom:speed></extensions></trkpt>
   <trkpt lat="59.0667661719" lon="30.0347040337"><ele>13.672</ele><time>2026-04-20T20:00:56.075Z</time><hdop>4.625</hdop><vdop>5.562</vdop><extensions><gom:speed>0.944</gom:speed></extensions></trkpt>
   <trkpt lat="59.0667593826" lon="30.0347074703"><ele>13.492</ele><time>2026-04-20T20:00:56.920Z</time><hdop>4.625</hdop><vdop>5.562</vdop><extensions><gom:speed>0.938</gom:speed></extensions></trkpt>
   <trkpt lat="59.0667519646" lon="30.0347120803"><ele>13.08</ele><time>2026-04-20T20:00:57.641Z</time><hdop>4.687</hdop><vdop>5.125</vdop><extensions><gom:speed>0.942</gom:speed></extensions></trkpt>
   <trkpt lat="59.0667435827" lon="30.0347179477"><ele>12.535</ele><time>2026-04-20T20:00:58.400Z</time><hdop>4.75</hdop><vdop>4.875</vdop><extensions><gom:speed>0.946</gom:speed></extensions></trkpt>
   <trkpt lat="59.0667385955" lon="30.0347211328"><ele>12.209</ele><time>2026-04-20T20:00:58.933Z</time><hdop>4.75</hdop><vdop>4.875</vdop><extensions><gom:speed>0.945</gom:speed></extensions></trkpt>
   <trkpt lat="59.0667302974" lon="30.0347303529"><ele>11.892</ele><time>2026-04-20T20:00:59.820Z</time><hdop>4.812</hdop><vdop>4.812</vdop><extensions><gom:speed>0.914</gom:speed></extensions></trkpt>
   <trkpt lat="59.0667218736" lon="30.0347422552"><ele>11.631</ele><time>2026-04-20T20:01:00.762Z</time><hdop>4.937</hdop><vdop>4.625</vdop><extensions><gom:speed>0.891</gom:speed></extensions></trkpt>
   <trkpt lat="59.0667147908" lon="30.0347550795"><ele>10.958</ele><time>2026-04-20T20:01:01.481Z</time><hdop>5.062</hdop><vdop>4.562</vdop><extensions><gom:speed>0.91</gom:speed></extensions></trkpt>
   <trkpt lat="59.0667131983" lon="30.0347572588"><ele>10.557</ele><time>2026-04-20T20:01:02.009Z</time><hdop>5.125</hdop><vdop>4.562</vdop><extensions><gom:speed>0.906</gom:speed></extensions></trkpt>
   <trkpt lat="59.0667000806" lon="30.0347759504"><ele>10.167</ele><time>2026-04-20T20:01:02.882Z</time><hdop>5.25</hdop><vdop>4.25</vdop><extensions><gom:speed>0.877</gom:speed></extensions></trkpt>
   <trkpt lat="59.0666916987" lon="30.034781734"><ele>10.177</ele><time>2026-04-20T20:01:03.704Z</time><hdop>5.375</hdop><vdop>4.062</vdop><extensions><gom:speed>0.884</gom:speed></extensions></trkpt>
   <trkpt lat="59.0666843645" lon="30.0347877689"><ele>9.784</ele><time>2026-04-20T20:01:04.481Z</time><hdop>5.437</hdop><vdop>3.937</vdop><extensions><gom:speed>0.876</gom:speed></extensions></trkpt>
   <trkpt lat="59.0666789582" lon="30.0347917922"><ele>9.448</ele><time>2026-04-20T20:01:05.076Z</time><hdop>5.437</hdop><vdop>4.125</vdop><extensions><gom:speed>0.859</gom:speed></extensions></trkpt>
   <trkpt lat="59.0666712888" lon="30.0347938877"><ele>9.247</ele><time>2026-04-20T20:01:06.020Z</time><hdop>5.375</hdop><vdop>4.125</vdop><extensions><gom:speed>0.827</gom:speed></extensions></trkpt>
   <trkpt lat="59.0666645832" lon="30.0348026887"><ele>9.132</ele><time>2026-04-20T20:01:06.919Z</time><hdop>5.25</hdop><vdop>4.0</vdop><extensions><gom:speed>0.789</gom:speed></extensions></trkpt>
   <trkpt lat="59.066660979" lon="30.0348174409"><ele>8.975</ele><time>2026-04-20T20:01:07.639Z</time><hdop>5.187</hdop><vdop>3.875</vdop><extensions><gom:speed>0.781</gom:speed></extensions></trkpt>
   <trkpt lat="59.0666596798" lon="30.034829427"><ele>8.776</ele><time>2026-04-20T20:01:08.169Z</time><hdop>5.062</hdop><vdop>3.75</vdop><extensions><gom:speed>0.738</gom:speed></extensions></trkpt>
   <trkpt lat="59.0666557822" lon="30.0348458555"><ele>8.68</ele><time>2026-04-20T20:01:09.076Z</time><hdop>4.937</hdop><vdop>3.75</vdop><extensions><gom:speed>0.692</gom:speed></extensions></trkpt>
   <trkpt lat="59.0666499987" lon="30.0348541536"><ele>8.464</ele><time>2026-04-20T20:01:10.075Z</time><hdop>4.875</hdop><vdop>3.625</vdop><extensions><gom:speed>0.692</gom:speed></extensions></trkpt>
   <trkpt lat="59.0666429998" lon="30.0348580931"><ele>8.335</ele><time>2026-04-20T20:01:11.016Z</time><hdop>4.812</hdop><vdop>3.625</vdop><extensions><gom:speed>0.7</gom:speed></extensions></trkpt>
   <trkpt lat="59.0666355819" lon="30.0348584284"><ele>8.386</ele><time>2026-04-20T20:01:11.858Z</time><hdop>4.75</hdop><vdop>3.625</vdop><extensions><gom:speed>0.693</gom:speed></extensions></trkpt>
   <trkpt lat="59.0666277867" lon="30.0348602724"><ele>8.28</ele><time>2026-04-20T20:01:12.763Z</time><hdop>4.687</hdop><vdop>3.625</vdop><extensions><gom:speed>0.673</gom:speed></extensions></trkpt>
   <trkpt lat="59.0666198658" lon="30.0348679837"><ele>7.988</ele><time>2026-04-20T20:01:13.939Z</time><hdop>4.625</hdop><vdop>3.625</vdop><extensions><gom:speed>0.641</gom:speed></extensions></trkpt>
   <trkpt lat="59.0666151719" lon="30.0348773715"><ele>7.708</ele><time>2026-04-20T20:01:14.698Z</time><hdop>4.625</hdop><vdop>3.5</vdop><extensions><gom:speed>0.624</gom:speed></extensions></trkpt>
   <trkpt lat="59.0666131603" lon="30.0348856696"><ele>7.479</ele><time>2026-04-20T20:01:15.695Z</time><hdop>4.562</hdop><vdop>3.5</vdop><extensions><gom:speed>0.516</gom:speed></extensions></trkpt>
   <trkpt lat="59.0666111905" lon="30.034892878"><ele>6.828</ele><time>2026-04-20T20:01:16.436Z</time><hdop>4.562</hdop><vdop>3.5</vdop><extensions><gom:speed>0.479</gom:speed></extensions></trkpt>
   <trkpt lat="59.0666097656" lon="30.0348995835"><ele>6.534</ele><time>2026-04-20T20:01:17.075Z</time><hdop>4.5</hdop><vdop>3.625</vdop><extensions><gom:speed>0.492</gom:speed></extensions></trkpt>
   <trkpt lat="59.066608173" lon="30.0349100609"><ele>6.358</ele><time>2026-04-20T20:01:18.055Z</time><hdop>4.5</hdop><vdop>3.625</vdop><extensions><gom:speed>0.536</gom:speed></extensions></trkpt>
   <trkpt lat="59.0666053651" lon="30.0349216279"><ele>6.217</ele><time>2026-04-20T20:01:18.715Z</time><hdop>4.5</hdop><vdop>3.625</vdop><extensions><gom:speed>0.652</gom:speed></extensions></trkpt>
   <trkpt lat="59.0666014675" lon="30.0349339493"><ele>5.748</ele><time>2026-04-20T20:01:19.416Z</time><hdop>4.5</hdop><vdop>3.5</vdop><extensions><gom:speed>0.679</gom:speed></extensions></trkpt>
   <trkpt lat="59.0665991625" lon="30.0349452649"><ele>5.553</ele><time>2026-04-20T20:01:20.075Z</time><hdop>4.5</hdop><vdop>3.312</vdop><extensions><gom:speed>0.708</gom:speed></extensions></trkpt>
   <trkpt lat="59.0666017609" lon="30.034961442"><ele>5.437</ele><time>2026-04-20T20:01:20.957Z</time><hdop>4.5</hdop><vdop>3.312</vdop><extensions><gom:speed>0.722</gom:speed></extensions></trkpt>
   <trkpt lat="59.0666034792" lon="30.0349719193"><ele>5.213</ele><time>2026-04-20T20:01:21.696Z</time><hdop>4.5</hdop><vdop>3.25</vdop><extensions><gom:speed>0.77</gom:speed></extensions></trkpt>
   <trkpt lat="59.0666043593" lon="30.0349841569"><ele>5.14</ele><time>2026-04-20T20:01:22.518Z</time><hdop>4.437</hdop><vdop>3.187</vdop><extensions><gom:speed>0.678</gom:speed></extensions></trkpt>
   <trkpt lat="59.0666039821" lon="30.0349931255"><ele>4.972</ele><time>2026-04-20T20:01:23.075Z</time><hdop>4.437</hdop><vdop>3.125</vdop><extensions><gom:speed>0.682</gom:speed></extensions></trkpt>
   <trkpt lat="59.0666024733" lon="30.0350055308"><ele>4.657</ele><time>2026-04-20T20:01:24.075Z</time><hdop>4.375</hdop><vdop>3.187</vdop><extensions><gom:speed>0.568</gom:speed></extensions></trkpt>
   <trkpt lat="59.0665996654" lon="30.0350135774"><ele>4.469</ele><time>2026-04-20T20:01:25.023Z</time><hdop>4.375</hdop><vdop>3.187</vdop><extensions><gom:speed>0.538</gom:speed></extensions></trkpt>
   <trkpt lat="59.0665981986" lon="30.0350240548"><ele>4.114</ele><time>2026-04-20T20:01:25.882Z</time><hdop>4.312</hdop><vdop>3.062</vdop><extensions><gom:speed>0.536</gom:speed></extensions></trkpt>
   <trkpt lat="59.0666001683" lon="30.035035538"><ele>4.044</ele><time>2026-04-20T20:01:26.742Z</time><hdop>4.312</hdop><vdop>3.25</vdop><extensions><gom:speed>0.55</gom:speed></extensions></trkpt>
   <trkpt lat="59.0666023895" lon="30.0350440875"><ele>4.178</ele><time>2026-04-20T20:01:27.215Z</time><hdop>4.375</hdop><vdop>3.562</vdop><extensions><gom:speed>0.533</gom:speed></extensions></trkpt>
   <trkpt lat="59.0666053651" lon="30.0350534753"><ele>3.995</ele><time>2026-04-20T20:01:28.075Z</time><hdop>4.375</hdop><vdop>3.812</vdop><extensions><gom:speed>0.625</gom:speed></extensions></trkpt>
   <trkpt lat="59.0666118611" lon="30.0350670539"><ele>4.179</ele><time>2026-04-20T20:01:29.075Z</time><hdop>4.375</hdop><vdop>4.062</vdop><extensions><gom:speed>0.786</gom:speed></extensions></trkpt>
   <trkpt lat="59.0666184828" lon="30.035080465"><ele>4.389</ele><time>2026-04-20T20:01:30.075Z</time><hdop>4.437</hdop><vdop>4.25</vdop><extensions><gom:speed>0.794</gom:speed></extensions></trkpt>
   <trkpt lat="59.0666214584" lon="30.0350948819"><ele>4.514</ele><time>2026-04-20T20:01:31.035Z</time><hdop>4.5</hdop><vdop>4.25</vdop><extensions><gom:speed>0.806</gom:speed></extensions></trkpt>
   <trkpt lat="59.0666223804" lon="30.0351098855"><ele>4.317</ele><time>2026-04-20T20:01:31.834Z</time><hdop>4.625</hdop><vdop>4.312</vdop><extensions><gom:speed>0.866</gom:speed></extensions></trkpt>
   <trkpt lat="59.0666221708" lon="30.0351279904"><ele>4.26</ele><time>2026-04-20T20:01:32.881Z</time><hdop>4.812</hdop><vdop>4.25</vdop><extensions><gom:speed>0.873</gom:speed></extensions></trkpt>
   <trkpt lat="59.0666203687" lon="30.0351416529"><ele>4.173</ele><time>2026-04-20T20:01:33.463Z</time><hdop>5.062</hdop><vdop>4.187</vdop><extensions><gom:speed>0.84</gom:speed></extensions></trkpt>
   <trkpt lat="59.0666192791" lon="30.0351464306"><ele>4.146</ele><time>2026-04-20T20:01:34.075Z</time><hdop>5.062</hdop><vdop>4.187</vdop><extensions><gom:speed>0.823</gom:speed></extensions></trkpt>
   <trkpt lat="59.0666156748" lon="30.0351544772"><ele>4.202</ele><time>2026-04-20T20:01:35.075Z</time><hdop>5.187</hdop><vdop>4.312</vdop><extensions><gom:speed>0.793</gom:speed></extensions></trkpt>
   <trkpt lat="59.0666111905" lon="30.0351611827"><ele>4.236</ele><time>2026-04-20T20:01:35.804Z</time><hdop>5.187</hdop><vdop>4.312</vdop><extensions><gom:speed>0.843</gom:speed></extensions></trkpt>
   <trkpt lat="59.0666053651" lon="30.0351729174"><ele>4.549</ele><time>2026-04-20T20:01:36.878Z</time><hdop>5.25</hdop><vdop>4.437</vdop><extensions><gom:speed>0.777</gom:speed></extensions></trkpt>
   <trkpt lat="59.0666046945" lon="30.0351742585"><ele>5.025</ele><time>2026-04-20T20:01:37.583Z</time><hdop>5.312</hdop><vdop>4.375</vdop><extensions><gom:speed>0.576</gom:speed></extensions></trkpt>
   <trkpt lat="59.066604485" lon="30.0351740908"><ele>5.285</ele><time>2026-04-20T20:01:38.075Z</time><hdop>5.312</hdop><vdop>4.437</vdop><extensions><gom:speed>0.547</gom:speed></extensions></trkpt>
   <trkpt lat="59.0666043593" lon="30.0351773598"><ele>5.44</ele><time>2026-04-20T20:01:38.902Z</time><hdop>5.375</hdop><vdop>4.437</vdop><extensions><gom:speed>0.46</gom:speed></extensions></trkpt>
   <trkpt lat="59.0666024733" lon="30.0351865799"><ele>5.492</ele><time>2026-04-20T20:01:39.898Z</time><hdop>5.5</hdop><vdop>4.437</vdop><extensions><gom:speed>0.473</gom:speed></extensions></trkpt>
   <trkpt lat="59.0666006712" lon="30.0351850711"><ele>5.71</ele><time>2026-04-20T20:01:40.698Z</time><hdop>5.562</hdop><vdop>4.375</vdop><extensions><gom:speed>0.496</gom:speed></extensions></trkpt>
   <trkpt lat="59.0665976957" lon="30.0351823889"><ele>6.276</ele><time>2026-04-20T20:01:41.676Z</time><hdop>5.625</hdop><vdop>4.5</vdop><extensions><gom:speed>0.479</gom:speed></extensions></trkpt>
   <trkpt lat="59.0665945944" lon="30.0351817184"><ele>6.546</ele><time>2026-04-20T20:01:42.456Z</time><hdop>5.625</hdop><vdop>4.625</vdop><extensions><gom:speed>0.515</gom:speed></extensions></trkpt>
   <trkpt lat="59.0665916607" lon="30.0351824727"><ele>6.646</ele><time>2026-04-20T20:01:43.075Z</time><hdop>5.562</hdop><vdop>4.75</vdop><extensions><gom:speed>0.51</gom:speed></extensions></trkpt>
   <trkpt lat="59.0665863801" lon="30.0351836462"><ele>6.803</ele><time>2026-04-20T20:01:44.075Z</time><hdop>5.562</hdop><vdop>4.812</vdop><extensions><gom:speed>0.503</gom:speed></extensions></trkpt>
   <trkpt lat="59.0665806804" lon="30.0351844844"><ele>7.057</ele><time>2026-04-20T20:01:45.075Z</time><hdop>5.437</hdop><vdop>4.937</vdop><extensions><gom:speed>0.507</gom:speed></extensions></trkpt>
   <trkpt lat="59.0665732624" lon="30.0351868313"><ele>7.119</ele><time>2026-04-20T20:01:46.075Z</time><hdop>5.312</hdop><vdop>5.0</vdop><extensions><gom:speed>0.575</gom:speed></extensions></trkpt>
   <trkpt lat="59.0665653834" lon="30.0351911899"><ele>6.687</ele><time>2026-04-20T20:01:47.075Z</time><hdop>5.25</hdop><vdop>4.937</vdop><extensions><gom:speed>0.678</gom:speed></extensions></trkpt>
   <trkpt lat="59.0665588874" lon="30.0351966382"><ele>6.429</ele><time>2026-04-20T20:01:48.043Z</time><hdop>5.187</hdop><vdop>4.937</vdop><extensions><gom:speed>0.665</gom:speed></extensions></trkpt>
   <trkpt lat="59.0665528944" lon="30.0351927825"><ele>6.343</ele><time>2026-04-20T20:01:48.861Z</time><hdop>5.125</hdop><vdop>4.812</vdop><extensions><gom:speed>0.596</gom:speed></extensions></trkpt>
   <trkpt lat="59.0665461889" lon="30.0351850711"><ele>6.279</ele><time>2026-04-20T20:01:49.840Z</time><hdop>5.0</hdop><vdop>4.687</vdop><extensions><gom:speed>0.623</gom:speed></extensions></trkpt>
   <trkpt lat="59.0665404892" lon="30.0351780303"><ele>6.415</ele><time>2026-04-20T20:01:50.817Z</time><hdop>4.937</hdop><vdop>4.625</vdop><extensions><gom:speed>0.595</gom:speed></extensions></trkpt>
   <trkpt lat="59.0665378908" lon="30.0351750967"><ele>6.455</ele><time>2026-04-20T20:01:51.523Z</time><hdop>4.875</hdop><vdop>4.625</vdop><extensions><gom:speed>0.544</gom:speed></extensions></trkpt>
   <trkpt lat="59.0665327778" lon="30.0351707381"><ele>7.2</ele><time>2026-04-20T20:01:52.075Z</time><hdop>4.75</hdop><vdop>4.75</vdop><extensions><gom:speed>0.5</gom:speed></extensions></trkpt>
   <trkpt lat="59.0665274972" lon="30.0351718277"><ele>8.256</ele><time>2026-04-20T20:01:53.075Z</time><hdop>4.625</hdop><vdop>4.875</vdop><extensions><gom:speed>0.483</gom:speed></extensions></trkpt>
   <trkpt lat="59.0665234739" lon="30.0351755996"><ele>8.888</ele><time>2026-04-20T20:01:53.938Z</time><hdop>4.562</hdop><vdop>4.875</vdop><extensions><gom:speed>0.494</gom:speed></extensions></trkpt>
   <trkpt lat="59.06651878" lon="30.035177276"><ele>9.523</ele><time>2026-04-20T20:01:54.558Z</time><hdop>4.562</hdop><vdop>4.812</vdop><extensions><gom:speed>0.545</gom:speed></extensions></trkpt>
   <trkpt lat="59.0665159721" lon="30.0351810478"><ele>9.823</ele><time>2026-04-20T20:01:55.078Z</time><hdop>4.562</hdop><vdop>4.812</vdop><extensions><gom:speed>0.549</gom:speed></extensions></trkpt>
   <trkpt lat="59.066508596" lon="30.0351853226"><ele>9.947</ele><time>2026-04-20T20:01:56.076Z</time><hdop>4.562</hdop><vdop>4.75</vdop><extensions><gom:speed>0.563</gom:speed></extensions></trkpt>
   <trkpt lat="59.0665028963" lon="30.0351910223"><ele>10.26</ele><time>2026-04-20T20:01:57.076Z</time><hdop>4.625</hdop><vdop>4.875</vdop><extensions><gom:speed>0.55</gom:speed></extensions></trkpt>
   <trkpt lat="59.0665015971" lon="30.0351927825"><ele>10.447</ele><time>2026-04-20T20:01:57.683Z</time><hdop>4.625</hdop><vdop>4.875</vdop><extensions><gom:speed>0.517</gom:speed></extensions></trkpt>
   <trkpt lat="59.066496568" lon="30.0351960514"><ele>10.794</ele><time>2026-04-20T20:01:58.180Z</time><hdop>4.687</hdop><vdop>4.812</vdop><extensions><gom:speed>0.492</gom:speed></extensions></trkpt>
   <trkpt lat="59.0664912874" lon="30.035198566"><ele>11.073</ele><time>2026-04-20T20:01:59.075Z</time><hdop>4.687</hdop><vdop>4.812</vdop><extensions><gom:speed>0.487</gom:speed></extensions></trkpt>
   <trkpt lat="59.0664857973" lon="30.0352011644"><ele>11.239</ele><time>2026-04-20T20:01:59.917Z</time><hdop>4.75</hdop><vdop>4.812</vdop><extensions><gom:speed>0.543</gom:speed></extensions></trkpt>
   <trkpt lat="59.0664785888" lon="30.0352087919"><ele>11.22</ele><time>2026-04-20T20:02:01.014Z</time><hdop>4.75</hdop><vdop>5.0</vdop><extensions><gom:speed>0.506</gom:speed></extensions></trkpt>
   <trkpt lat="59.0664740626" lon="30.0352180958"><ele>11.015</ele><time>2026-04-20T20:02:02.001Z</time><hdop>4.812</hdop><vdop>5.125</vdop><extensions><gom:speed>0.474</gom:speed></extensions></trkpt>
   <trkpt lat="59.0664685724" lon="30.0352316745"><ele>10.521</ele><time>2026-04-20T20:02:03.075Z</time><hdop>4.812</hdop><vdop>5.562</vdop><extensions><gom:speed>0.488</gom:speed></extensions></trkpt>
   <trkpt lat="59.0664668961" lon="30.0352373742"><ele>10.226</ele><time>2026-04-20T20:02:03.843Z</time><hdop>4.812</hdop><vdop>5.562</vdop><extensions><gom:speed>0.475</gom:speed></extensions></trkpt>
   <trkpt lat="59.0664635852" lon="30.0352516234"><ele>9.742</ele><time>2026-04-20T20:02:04.860Z</time><hdop>4.875</hdop><vdop>5.625</vdop><extensions><gom:speed>0.509</gom:speed></extensions></trkpt>
   <trkpt lat="59.0664591847" lon="30.035264783"><ele>9.477</ele><time>2026-04-20T20:02:05.615Z</time><hdop>4.937</hdop><vdop>5.625</vdop><extensions><gom:speed>0.734</gom:speed></extensions></trkpt>
   <trkpt lat="59.0664559996" lon="30.0352728297"><ele>8.936</ele><time>2026-04-20T20:02:06.075Z</time><hdop>4.937</hdop><vdop>5.562</vdop><extensions><gom:speed>0.725</gom:speed></extensions></trkpt>
   <trkpt lat="59.0664529821" lon="30.0352812954"><ele>8.613</ele><time>2026-04-20T20:02:06.542Z</time><hdop>5.0</hdop><vdop>5.562</vdop><extensions><gom:speed>0.786</gom:speed></extensions></trkpt>
   <trkpt lat="59.066449797" lon="30.0352890906"><ele>8.349</ele><time>2026-04-20T20:02:07.075Z</time><hdop>5.0</hdop><vdop>5.625</vdop><extensions><gom:speed>0.78</gom:speed></extensions></trkpt>
   <trkpt lat="59.0664438877" lon="30.0353006576"><ele>8.301</ele><time>2026-04-20T20:02:08.075Z</time><hdop>5.062</hdop><vdop>5.625</vdop><extensions><gom:speed>0.751</gom:speed></extensions></trkpt>
   <trkpt lat="59.066437266" lon="30.0353110511"><ele>8.176</ele><time>2026-04-20T20:02:09.076Z</time><hdop>5.125</hdop><vdop>5.625</vdop><extensions><gom:speed>0.782</gom:speed></extensions></trkpt>
   <trkpt lat="59.0664328655" lon="30.0353224505"><ele>8.101</ele><time>2026-04-20T20:02:09.938Z</time><hdop>5.187</hdop><vdop>5.625</vdop><extensions><gom:speed>0.791</gom:speed></extensions></trkpt>
   <trkpt lat="59.0664290937" lon="30.0353343528"><ele>7.883</ele><time>2026-04-20T20:02:10.697Z</time><hdop>5.25</hdop><vdop>5.75</vdop><extensions><gom:speed>0.791</gom:speed></extensions></trkpt>
   <trkpt lat="59.0664228911" lon="30.0353414774"><ele>8.022</ele><time>2026-04-20T20:02:11.538Z</time><hdop>5.187</hdop><vdop>5.75</vdop><extensions><gom:speed>0.723</gom:speed></extensions></trkpt>
   <trkpt lat="59.0664181972" lon="30.035343992"><ele>7.959</ele><time>2026-04-20T20:02:12.075Z</time><hdop>5.187</hdop><vdop>5.937</vdop><extensions><gom:speed>0.735</gom:speed></extensions></trkpt>
   <trkpt lat="59.0664099829" lon="30.0353477639"><ele>8.24</ele><time>2026-04-20T20:02:13.075Z</time><hdop>5.125</hdop><vdop>5.75</vdop><extensions><gom:speed>0.747</gom:speed></extensions></trkpt>
   <trkpt lat="59.0664014753" lon="30.0353575707"><ele>8.292</ele><time>2026-04-20T20:02:14.075Z</time><hdop>5.062</hdop><vdop>11.5</vdop><extensions><gom:speed>0.758</gom:speed></extensions></trkpt>
   <trkpt lat="59.0663939735" lon="30.035365785"><ele>8.322</ele><time>2026-04-20T20:02:14.943Z</time><hdop>5.062</hdop><vdop>11.5</vdop><extensions><gom:speed>0.822</gom:speed></extensions></trkpt>
   <trkpt lat="59.0663885672" lon="30.0353687186"><ele>8.58</ele><time>2026-04-20T20:02:15.534Z</time><hdop>5.125</hdop><vdop>11.562</vdop><extensions><gom:speed>0.838</gom:speed></extensions></trkpt>
   <trkpt lat="59.0663828675" lon="30.0353702274"><ele>8.476</ele><time>2026-04-20T20:02:16.075Z</time><hdop>5.125</hdop><vdop>9.312</vdop><extensions><gom:speed>0.837</gom:speed></extensions></trkpt>
   <trkpt lat="59.0663730607" lon="30.0353717361"><ele>7.657</ele><time>2026-04-20T20:02:17.075Z</time><hdop>5.125</hdop><vdop>8.437</vdop><extensions><gom:speed>0.759</gom:speed></extensions></trkpt>
   <trkpt lat="59.0663665647" lon="30.0353766814"><ele>7.167</ele><time>2026-04-20T20:02:18.062Z</time><hdop>5.187</hdop><vdop>8.437</vdop><extensions><gom:speed>0.783</gom:speed></extensions></trkpt>
   <trkpt lat="59.0663583923" lon="30.0353836384"><ele>6.56</ele><time>2026-04-20T20:02:19.079Z</time><hdop>5.25</hdop><vdop>7.687</vdop><extensions><gom:speed>0.8</gom:speed></extensions></trkpt>
   <trkpt lat="59.0663513934" lon="30.0353853986"><ele>6.181</ele><time>2026-04-20T20:02:19.878Z</time><hdop>5.25</hdop><vdop>7.25</vdop><extensions><gom:speed>0.805</gom:speed></extensions></trkpt>
   <trkpt lat="59.0663449813" lon="30.0353906792"><ele>6.221</ele><time>2026-04-20T20:02:20.657Z</time><hdop>5.187</hdop><vdop>7.062</vdop><extensions><gom:speed>0.767</gom:speed></extensions></trkpt>
   <trkpt lat="59.0663393654" lon="30.0354017433"><ele>6.903</ele><time>2026-04-20T20:02:21.437Z</time><hdop>5.125</hdop><vdop>6.875</vdop><extensions><gom:speed>0.767</gom:speed></extensions></trkpt>
   <trkpt lat="59.0663361803" lon="30.0354129751"><ele>7.377</ele><time>2026-04-20T20:02:22.075Z</time><hdop>5.062</hdop><vdop>6.687</vdop><extensions><gom:speed>0.786</gom:speed></extensions></trkpt>
   <trkpt lat="59.0663312769" lon="30.0354288169"><ele>7.66</ele><time>2026-04-20T20:02:22.938Z</time><hdop>5.062</hdop><vdop>6.687</vdop><extensions><gom:speed>0.789</gom:speed></extensions></trkpt>
   <trkpt lat="59.0663255772" lon="30.0354332593"><ele>7.674</ele><time>2026-04-20T20:02:23.639Z</time><hdop>5.0</hdop><vdop>6.5</vdop><extensions><gom:speed>0.839</gom:speed></extensions></trkpt>
   <trkpt lat="59.0663170695" lon="30.03543569"><ele>7.735</ele><time>2026-04-20T20:02:24.477Z</time><hdop>5.0</hdop><vdop>6.312</vdop><extensions><gom:speed>0.793</gom:speed></extensions></trkpt>
   <trkpt lat="59.0663114956" lon="30.0354387913"><ele>7.764</ele><time>2026-04-20T20:02:25.075Z</time><hdop>4.937</hdop><vdop>6.0</vdop><extensions><gom:speed>0.779</gom:speed></extensions></trkpt>
   <trkpt lat="59.0663026946" lon="30.0354464189"><ele>7.492</ele><time>2026-04-20T20:02:26.075Z</time><hdop>4.875</hdop><vdop>5.75</vdop><extensions><gom:speed>0.768</gom:speed></extensions></trkpt>
   <trkpt lat="59.0662945641" lon="30.0354508613"><ele>7.329</ele><time>2026-04-20T20:02:27.035Z</time><hdop>4.812</hdop><vdop>5.75</vdop><extensions><gom:speed>0.757</gom:speed></extensions></trkpt>
   <trkpt lat="59.0662883615" lon="30.0354552199"><ele>7.228</ele><time>2026-04-20T20:02:27.883Z</time><hdop>4.812</hdop><vdop>5.625</vdop><extensions><gom:speed>0.738</gom:speed></extensions></trkpt>
   <trkpt lat="59.0662864756" lon="30.035459327"><ele>7.646</ele><time>2026-04-20T20:02:28.600Z</time><hdop>4.687</hdop><vdop>5.625</vdop><extensions><gom:speed>0.706</gom:speed></extensions></trkpt>
   <trkpt lat="59.0662803987" lon="30.0354660325"><ele>8.137</ele><time>2026-04-20T20:02:29.075Z</time><hdop>4.625</hdop><vdop>5.625</vdop><extensions><gom:speed>0.659</gom:speed></extensions></trkpt>
   <trkpt lat="59.0662761659" lon="30.0354677927"><ele>8.709</ele><time>2026-04-20T20:02:30.075Z</time><hdop>4.562</hdop><vdop>11.125</vdop><extensions><gom:speed>0.548</gom:speed></extensions></trkpt>
   <trkpt lat="59.0662704662" lon="30.0354684633"><ele>9.144</ele><time>2026-04-20T20:02:31.075Z</time><hdop>4.562</hdop><vdop>11.312</vdop><extensions><gom:speed>0.594</gom:speed></extensions></trkpt>
   <trkpt lat="59.0662661914" lon="30.03546905"><ele>9.404</ele><time>2026-04-20T20:02:31.802Z</time><hdop>4.562</hdop><vdop>11.312</vdop><extensions><gom:speed>0.584</gom:speed></extensions></trkpt>
   <trkpt lat="59.0662598631" lon="30.0354676251"><ele>9.852</ele><time>2026-04-20T20:02:32.982Z</time><hdop>4.5</hdop><vdop>11.125</vdop><extensions><gom:speed>0.563</gom:speed></extensions></trkpt>
   <trkpt lat="59.0662554626" lon="30.0354674575"><ele>10.119</ele><time>2026-04-20T20:02:33.756Z</time><hdop>4.625</hdop><vdop>11.125</vdop><extensions><gom:speed>0.622</gom:speed></extensions></trkpt>
   <trkpt lat="59.0662527803" lon="30.0354652782"><ele>11.204</ele><time>2026-04-20T20:02:34.760Z</time><hdop>4.625</hdop><vdop>9.187</vdop><extensions><gom:speed>0.603</gom:speed></extensions></trkpt>
   <trkpt lat="59.0662474997" lon="30.0354606681"><ele>10.64</ele><time>2026-04-20T20:02:35.335Z</time><hdop>4.75</hdop><vdop>8.125</vdop><extensions><gom:speed>0.574</gom:speed></extensions></trkpt>
   <trkpt lat="59.0662435603" lon="30.0354579859"><ele>11.189</ele><time>2026-04-20T20:02:36.075Z</time><hdop>4.75</hdop><vdop>7.562</vdop><extensions><gom:speed>0.546</gom:speed></extensions></trkpt>
   <trkpt lat="59.0662382797" lon="30.035455639"><ele>12.448</ele><time>2026-04-20T20:02:37.075Z</time><hdop>4.75</hdop><vdop>7.312</vdop><extensions><gom:speed>0.58</gom:speed></extensions></trkpt>
   <trkpt lat="59.0662328733" lon="30.03545237"><ele>13.378</ele><time>2026-04-20T20:02:38.075Z</time><hdop>4.75</hdop><vdop>7.187</vdop><extensions><gom:speed>0.534</gom:speed></extensions></trkpt>
   <trkpt lat="59.0662296882" lon="30.0354512804"><ele>13.934</ele><time>2026-04-20T20:02:38.662Z</time><hdop>4.75</hdop><vdop>7.187</vdop><extensions><gom:speed>0.548</gom:speed></extensions></trkpt>
   <trkpt lat="59.0662245752" lon="30.0354489334"><ele>14.407</ele><time>2026-04-20T20:02:39.680Z</time><hdop>4.75</hdop><vdop>6.937</vdop><extensions><gom:speed>0.47</gom:speed></extensions></trkpt>
   <trkpt lat="59.0662213901" lon="30.0354453292"><ele>14.042</ele><time>2026-04-20T20:02:40.322Z</time><hdop>4.75</hdop><vdop>6.75</vdop><extensions><gom:speed>0.451</gom:speed></extensions></trkpt>
   <trkpt lat="59.0662203843" lon="30.0354459998"><ele>13.824</ele><time>2026-04-20T20:02:40.920Z</time><hdop>4.75</hdop><vdop>6.75</vdop><extensions><gom:speed>0.447</gom:speed></extensions></trkpt>
   <trkpt lat="59.0662148941" lon="30.035446838"><ele>13.947</ele><time>2026-04-20T20:02:41.653Z</time><hdop>4.75</hdop><vdop>6.875</vdop><extensions><gom:speed>0.427</gom:speed></extensions></trkpt>
   <trkpt lat="59.0662129663" lon="30.0354544655"><ele>14.466</ele><time>2026-04-20T20:02:42.819Z</time><hdop>4.812</hdop><vdop>6.562</vdop><extensions><gom:speed>0.404</gom:speed></extensions></trkpt>
   <trkpt lat="59.066210787" lon="30.0354571477"><ele>14.49</ele><time>2026-04-20T20:02:43.619Z</time><hdop>4.875</hdop><vdop>6.375</vdop><extensions><gom:speed>0.347</gom:speed></extensions></trkpt>
   <trkpt lat="59.0662097812" lon="30.0354516995"><ele>14.385</ele><time>2026-04-20T20:02:44.076Z</time><hdop>4.875</hdop><vdop>6.375</vdop><extensions><gom:speed>0.333</gom:speed></extensions></trkpt>
   <trkpt lat="59.0662085658" lon="30.0354447425"><ele>14.323</ele><time>2026-04-20T20:02:44.881Z</time><hdop>4.937</hdop><vdop>6.375</vdop><extensions><gom:speed>0.331</gom:speed></extensions></trkpt>
   <trkpt lat="59.0662077695" lon="30.0354396295"><ele>14.172</ele><time>2026-04-20T20:02:45.503Z</time><hdop>5.062</hdop><vdop>6.25</vdop><extensions><gom:speed>0.312</gom:speed></extensions></trkpt>
   <trkpt lat="59.0662062608" lon="30.0354381208"><ele>13.707</ele><time>2026-04-20T20:02:46.012Z</time><hdop>5.125</hdop><vdop>6.187</vdop><extensions><gom:speed>0.318</gom:speed></extensions></trkpt>
   <trkpt lat="59.0662035786" lon="30.0354397972"><ele>13.429</ele><time>2026-04-20T20:02:47.083Z</time><hdop>5.312</hdop><vdop>6.187</vdop><extensions><gom:speed>0.322</gom:speed></extensions></trkpt>
   <trkpt lat="59.0662036624" lon="30.0354413897"><ele>12.333</ele><time>2026-04-20T20:02:48.076Z</time><hdop>5.312</hdop><vdop>6.562</vdop><extensions><gom:speed>0.332</gom:speed></extensions></trkpt>
   <trkpt lat="59.066203369" lon="30.0354462512"><ele>11.285</ele><time>2026-04-20T20:02:48.974Z</time><hdop>5.375</hdop><vdop>6.437</vdop><extensions><gom:speed>0.34</gom:speed></extensions></trkpt>
   <trkpt lat="59.0662005611" lon="30.0354517833"><ele>10.659</ele><time>2026-04-20T20:02:50.054Z</time><hdop>5.562</hdop><vdop>6.437</vdop><extensions><gom:speed>0.373</gom:speed></extensions></trkpt>
   <trkpt lat="59.0661984656" lon="30.0354516995"><ele>10.381</ele><time>2026-04-20T20:02:50.942Z</time><hdop>5.625</hdop><vdop>6.25</vdop><extensions><gom:speed>0.424</gom:speed></extensions></trkpt>
   <trkpt lat="59.066197376" lon="30.0354549684"><ele>10.089</ele><time>2026-04-20T20:02:51.921Z</time><hdop>5.562</hdop><vdop>5.875</vdop><extensions><gom:speed>0.401</gom:speed></extensions></trkpt>
   <trkpt lat="59.0661998905" lon="30.0354619254"><ele>10.122</ele><time>2026-04-20T20:02:53.075Z</time><hdop>5.437</hdop><vdop>5.562</vdop><extensions><gom:speed>0.351</gom:speed></extensions></trkpt>
   <trkpt lat="59.066201064" lon="30.035466284"><ele>9.924</ele><time>2026-04-20T20:02:53.949Z</time><hdop>5.375</hdop><vdop>5.312</vdop><extensions><gom:speed>0.274</gom:speed></extensions></trkpt>
   <trkpt lat="59.0662015669" lon="30.0354664516"><ele>9.806</ele><time>2026-04-20T20:02:54.782Z</time><hdop>5.312</hdop><vdop>5.312</vdop><extensions><gom:speed>0.186</gom:speed></extensions></trkpt>
   <trkpt lat="59.0662030757" lon="30.0354683795"><ele>9.963</ele><time>2026-04-20T20:02:55.819Z</time><hdop>5.125</hdop><vdop>5.437</vdop><extensions><gom:speed>0.185</gom:speed></extensions></trkpt>
   <trkpt lat="59.066203369" lon="30.0354689662"><ele>10.167</ele><time>2026-04-20T20:02:56.480Z</time><hdop>5.062</hdop><vdop>9.0</vdop><extensions><gom:speed>0.143</gom:speed></extensions></trkpt>
   <trkpt lat="59.0662032852" lon="30.0354702235"><ele>10.239</ele><time>2026-04-20T20:02:57.030Z</time><hdop>5.0</hdop><vdop>9.187</vdop><extensions><gom:speed>0.168</gom:speed></extensions></trkpt>
   <trkpt lat="59.0662035786" lon="30.0354694691"><ele>10.282</ele><time>2026-04-20T20:02:57.842Z</time><hdop>5.062</hdop><vdop>9.187</vdop><extensions><gom:speed>0.152</gom:speed></extensions></trkpt>
   <trkpt lat="59.0662036624" lon="30.0354698882"><ele>10.629</ele><time>2026-04-20T20:02:58.455Z</time><hdop>5.125</hdop><vdop>8.0</vdop><extensions><gom:speed>0.145</gom:speed></extensions></trkpt>
   <trkpt lat="59.0662034948" lon="30.035470894"><ele>10.836</ele><time>2026-04-20T20:02:58.918Z</time><hdop>5.125</hdop><vdop>8.0</vdop><extensions><gom:speed>0.168</gom:speed></extensions></trkpt>
   <trkpt lat="59.0662038719" lon="30.0354717322"><ele>10.128</ele><time>2026-04-20T20:02:59.516Z</time><hdop>5.125</hdop><vdop>8.625</vdop><extensions><gom:speed>0.189</gom:speed></extensions></trkpt>
   <trkpt lat="59.066203369" lon="30.0354753364"><ele>9.852</ele><time>2026-04-20T20:02:59.990Z</time><hdop>5.125</hdop><vdop>8.687</vdop><extensions><gom:speed>0.225</gom:speed></extensions></trkpt>
   <trkpt lat="59.0662027823" lon="30.0354786892"><ele>9.686</ele><time>2026-04-20T20:03:00.814Z</time><hdop>5.187</hdop><vdop>8.687</vdop><extensions><gom:speed>0.264</gom:speed></extensions></trkpt>
   <trkpt lat="59.0662059674" lon="30.0354865682"><ele>9.447</ele><time>2026-04-20T20:03:02.075Z</time><hdop>5.187</hdop><vdop>8.375</vdop><extensions><gom:speed>0.312</gom:speed></extensions></trkpt>
   <trkpt lat="59.0662086915" lon="30.0354913459"><ele>11.312</ele><time>2026-04-20T20:03:03.075Z</time><hdop>5.187</hdop><vdop>7.312</vdop><extensions><gom:speed>0.317</gom:speed></extensions></trkpt>
   <trkpt lat="59.0662081886" lon="30.0355028291"><ele>12.287</ele><time>2026-04-20T20:03:04.075Z</time><hdop>5.312</hdop><vdop>7.0</vdop><extensions><gom:speed>0.439</gom:speed></extensions></trkpt>
   <trkpt lat="59.0662015669" lon="30.0355176651"><ele>12.334</ele><time>2026-04-20T20:03:05.075Z</time><hdop>5.437</hdop><vdop>6.5</vdop><extensions><gom:speed>0.627</gom:speed></extensions></trkpt>
   <trkpt lat="59.0661985913" lon="30.0355197605"><ele>12.362</ele><time>2026-04-20T20:03:05.677Z</time><hdop>5.562</hdop><vdop>6.5</vdop><extensions><gom:speed>0.685</gom:speed></extensions></trkpt>
   <trkpt lat="59.0661914667" lon="30.0355212693"><ele>11.684</ele><time>2026-04-20T20:03:06.133Z</time><hdop>5.625</hdop><vdop>6.437</vdop><extensions><gom:speed>0.73</gom:speed></extensions></trkpt>
   <trkpt lat="59.0661861861" lon="30.035521856"><ele>11.279</ele><time>2026-04-20T20:03:06.836Z</time><hdop>5.687</hdop><vdop>6.437</vdop><extensions><gom:speed>0.759</gom:speed></extensions></trkpt>
   <trkpt lat="59.0661780976" lon="30.035526047"><ele>10.725</ele><time>2026-04-20T20:03:07.763Z</time><hdop>5.75</hdop><vdop>6.437</vdop><extensions><gom:speed>0.75</gom:speed></extensions></trkpt>
   <trkpt lat="59.0661721883" lon="30.0355272204"><ele>10.122</ele><time>2026-04-20T20:03:08.472Z</time><hdop>5.812</hdop><vdop>6.25</vdop><extensions><gom:speed>0.704</gom:speed></extensions></trkpt>
   <trkpt lat="59.0661687937" lon="30.0355248735"><ele>9.832</ele><time>2026-04-20T20:03:08.994Z</time><hdop>5.812</hdop><vdop>6.25</vdop><extensions><gom:speed>0.697</gom:speed></extensions></trkpt>
   <trkpt lat="59.0661623815" lon="30.0355195929"><ele>9.659</ele><time>2026-04-20T20:03:09.976Z</time><hdop>5.812</hdop><vdop>6.25</vdop><extensions><gom:speed>0.736</gom:speed></extensions></trkpt>
   <trkpt lat="59.0661574781" lon="30.0355184194"><ele>9.727</ele><time>2026-04-20T20:03:10.478Z</time><hdop>5.875</hdop><vdop>6.437</vdop><extensions><gom:speed>0.809</gom:speed></extensions></trkpt>
   <trkpt lat="59.0661525747" lon="30.0355194252"><ele>10.167</ele><time>2026-04-20T20:03:11.006Z</time><hdop>5.937</hdop><vdop>6.375</vdop><extensions><gom:speed>0.841</gom:speed></extensions></trkpt>
   <trkpt lat="59.0661487609" lon="30.0355194252"><ele>10.429</ele><time>2026-04-20T20:03:11.836Z</time><hdop>6.125</hdop><vdop>6.375</vdop><extensions><gom:speed>0.842</gom:speed></extensions></trkpt>
   <trkpt lat="59.066136691" lon="30.0355280586"><ele>10.689</ele><time>2026-04-20T20:03:13.014Z</time><hdop>6.375</hdop><vdop>6.5</vdop><extensions><gom:speed>0.912</gom:speed></extensions></trkpt>
   <trkpt lat="59.0661285605" lon="30.0355392904"><ele>11.157</ele><time>2026-04-20T20:03:13.902Z</time><hdop>6.562</hdop><vdop>6.625</vdop><extensions><gom:speed>0.992</gom:speed></extensions></trkpt>
   <trkpt lat="59.0661244953" lon="30.0355536234"><ele>11.372</ele><time>2026-04-20T20:03:14.416Z</time><hdop>6.687</hdop><vdop>6.562</vdop><extensions><gom:speed>0.97</gom:speed></extensions></trkpt>
   <trkpt lat="59.0661205977" lon="30.0355689623"><ele>11.564</ele><time>2026-04-20T20:03:15.075Z</time><hdop>6.687</hdop><vdop>8.812</vdop><extensions><gom:speed>0.986</gom:speed></extensions></trkpt>
   <trkpt lat="59.0661176641" lon="30.0355882407"><ele>11.679</ele><time>2026-04-20T20:03:15.996Z</time><hdop>6.75</hdop><vdop>8.812</vdop><extensions><gom:speed>0.982</gom:speed></extensions></trkpt>
   <trkpt lat="59.0661175802" lon="30.0356110395"><ele>11.832</ele><time>2026-04-20T20:03:16.756Z</time><hdop>6.687</hdop><vdop>8.0</vdop><extensions><gom:speed>0.991</gom:speed></extensions></trkpt>
   <trkpt lat="59.0661174964" lon="30.0356345926"><ele>11.673</ele><time>2026-04-20T20:03:17.477Z</time><hdop>6.562</hdop><vdop>7.0</vdop><extensions><gom:speed>0.982</gom:speed></extensions></trkpt>
   <trkpt lat="59.0661168678" lon="30.0356513564"><ele>11.915</ele><time>2026-04-20T20:03:18.076Z</time><hdop>6.5</hdop><vdop>6.5</vdop><extensions><gom:speed>0.984</gom:speed></extensions></trkpt>
   <trkpt lat="59.0661150657" lon="30.0356698804"><ele>12.059</ele><time>2026-04-20T20:03:18.864Z</time><hdop>6.375</hdop><vdop>6.5</vdop><extensions><gom:speed>0.998</gom:speed></extensions></trkpt>
   <trkpt lat="59.0661154848" lon="30.0356886559"><ele>12.302</ele><time>2026-04-20T20:03:19.696Z</time><hdop>6.187</hdop><vdop>6.25</vdop><extensions><gom:speed>0.894</gom:speed></extensions></trkpt>
   <trkpt lat="59.0661147723" lon="30.0357035757"><ele>12.393</ele><time>2026-04-20T20:03:20.596Z</time><hdop>6.0</hdop><vdop>6.25</vdop><extensions><gom:speed>0.771</gom:speed></extensions></trkpt>
   <trkpt lat="59.0661145628" lon="30.035711287"><ele>12.503</ele><time>2026-04-20T20:03:21.075Z</time><hdop>5.875</hdop><vdop>6.062</vdop><extensions><gom:speed>0.759</gom:speed></extensions></trkpt>
   <trkpt lat="59.066115359" lon="30.0357255362"><ele>12.629</ele><time>2026-04-20T20:03:22.075Z</time><hdop>5.687</hdop><vdop>9.0</vdop><extensions><gom:speed>0.651</gom:speed></extensions></trkpt>
   <trkpt lat="59.0661183765" lon="30.0357385282"><ele>12.759</ele><time>2026-04-20T20:03:23.076Z</time><hdop>5.562</hdop><vdop>8.25</vdop><extensions><gom:speed>0.615</gom:speed></extensions></trkpt>
   <trkpt lat="59.0661212683" lon="30.0357491732"><ele>12.501</ele><time>2026-04-20T20:03:24.075Z</time><hdop>5.375</hdop><vdop>7.312</vdop><extensions><gom:speed>0.538</gom:speed></extensions></trkpt>
   <trkpt lat="59.066120472" lon="30.0357575551"><ele>12.346</ele><time>2026-04-20T20:03:25.037Z</time><hdop>5.312</hdop><vdop>7.312</vdop><extensions><gom:speed>0.5</gom:speed></extensions></trkpt>
   <trkpt lat="59.0661178736" lon="30.0357641768"><ele>11.862</ele><time>2026-04-20T20:03:25.996Z</time><hdop>5.312</hdop><vdop>6.687</vdop><extensions><gom:speed>0.496</gom:speed></extensions></trkpt>
   <trkpt lat="59.0661177898" lon="30.03577105"><ele>11.678</ele><time>2026-04-20T20:03:26.883Z</time><hdop>5.375</hdop><vdop>6.125</vdop><extensions><gom:speed>0.447</gom:speed></extensions></trkpt>
   <trkpt lat="59.0661184603" lon="30.0357774202"><ele>11.217</ele><time>2026-04-20T20:03:27.475Z</time><hdop>5.375</hdop><vdop>5.875</vdop><extensions><gom:speed>0.436</gom:speed></extensions></trkpt>
   <trkpt lat="59.0661182927" lon="30.0357839581"><ele>10.723</ele><time>2026-04-20T20:03:28.075Z</time><hdop>5.375</hdop><vdop>5.812</vdop><extensions><gom:speed>0.438</gom:speed></extensions></trkpt>
   <trkpt lat="59.0661159877" lon="30.0357910827"><ele>10.587</ele><time>2026-04-20T20:03:29.075Z</time><hdop>5.375</hdop><vdop>5.5</vdop><extensions><gom:speed>0.373</gom:speed></extensions></trkpt>
   <trkpt lat="59.0661127607" lon="30.0357953575"><ele>10.884</ele><time>2026-04-20T20:03:30.075Z</time><hdop>5.437</hdop><vdop>5.25</vdop><extensions><gom:speed>0.276</gom:speed></extensions></trkpt>
   <trkpt lat="59.0661113776" lon="30.0357976206"><ele>11.061</ele><time>2026-04-20T20:03:30.743Z</time><hdop>5.375</hdop><vdop>5.25</vdop><extensions><gom:speed>0.276</gom:speed></extensions></trkpt>
   <trkpt lat="59.0661074801" lon="30.0358051643"><ele>10.84</ele><time>2026-04-20T20:03:31.998Z</time><hdop>5.25</hdop><vdop>5.062</vdop><extensions><gom:speed>0.29</gom:speed></extensions></trkpt>
   <trkpt lat="59.0661050912" lon="30.0358113669"><ele>10.402</ele><time>2026-04-20T20:03:32.521Z</time><hdop>5.125</hdop><vdop>4.875</vdop><extensions><gom:speed>0.301</gom:speed></extensions></trkpt>
   <trkpt lat="59.0661049655" lon="30.0358138815"><ele>10.141</ele><time>2026-04-20T20:03:32.993Z</time><hdop>5.125</hdop><vdop>4.875</vdop><extensions><gom:speed>0.318</gom:speed></extensions></trkpt>
   <trkpt lat="59.0661045883" lon="30.0358214252"><ele>9.87</ele><time>2026-04-20T20:03:33.477Z</time><hdop>5.062</hdop><vdop>4.875</vdop><extensions><gom:speed>0.413</gom:speed></extensions></trkpt>
   <trkpt lat="59.0661052588" lon="30.0358305615"><ele>9.032</ele><time>2026-04-20T20:03:34.075Z</time><hdop>5.062</hdop><vdop>4.937</vdop><extensions><gom:speed>0.472</gom:speed></extensions></trkpt>
   <trkpt lat="59.0661073962" lon="30.0358464871"><ele>8.213</ele><time>2026-04-20T20:03:35.075Z</time><hdop>5.0</hdop><vdop>5.062</vdop><extensions><gom:speed>0.539</gom:speed></extensions></trkpt>
   <trkpt lat="59.0661098689" lon="30.0358617422"><ele>7.51</ele><time>2026-04-20T20:03:36.075Z</time><hdop>4.937</hdop><vdop>5.25</vdop><extensions><gom:speed>0.612</gom:speed></extensions></trkpt>
   <trkpt lat="59.0661109585" lon="30.0358662684"><ele>7.09</ele><time>2026-04-20T20:03:36.592Z</time><hdop>5.0</hdop><vdop>5.25</vdop><extensions><gom:speed>0.6</gom:speed></extensions></trkpt>
   <trkpt lat="59.0661119644" lon="30.0358802662"><ele>7.145</ele><time>2026-04-20T20:03:37.076Z</time><hdop>4.937</hdop><vdop>5.437</vdop><extensions><gom:speed>0.626</gom:speed></extensions></trkpt>
   <trkpt lat="59.0661111681" lon="30.035892839"><ele>6.877</ele><time>2026-04-20T20:03:38.076Z</time><hdop>4.937</hdop><vdop>5.437</vdop><extensions><gom:speed>0.588</gom:speed></extensions></trkpt>
   <trkpt lat="59.066110288" lon="30.0358908274"><ele>6.717</ele><time>2026-04-20T20:03:38.879Z</time><hdop>5.062</hdop><vdop>5.437</vdop><extensions><gom:speed>0.406</gom:speed></extensions></trkpt>
   <trkpt lat="59.0661082763" lon="30.0359022268"><ele>7.107</ele><time>2026-04-20T20:03:39.755Z</time><hdop>5.187</hdop><vdop>5.562</vdop><extensions><gom:speed>0.423</gom:speed></extensions></trkpt>
   <trkpt lat="59.0661033729" lon="30.035920164"><ele>7.571</ele><time>2026-04-20T20:03:40.458Z</time><hdop>5.375</hdop><vdop>5.75</vdop><extensions><gom:speed>0.58</gom:speed></extensions></trkpt>
   <trkpt lat="59.0660981761" lon="30.0359347486"><ele>8.141</ele><time>2026-04-20T20:03:41.075Z</time><hdop>5.437</hdop><vdop>5.937</vdop><extensions><gom:speed>0.665</gom:speed></extensions></trkpt>
   <trkpt lat="59.0660920993" lon="30.0359490816"><ele>8.481</ele><time>2026-04-20T20:03:41.760Z</time><hdop>5.562</hdop><vdop>5.937</vdop><extensions><gom:speed>0.729</gom:speed></extensions></trkpt>
   <trkpt lat="59.0660824601" lon="30.0359661807"><ele>9.122</ele><time>2026-04-20T20:03:42.538Z</time><hdop>5.687</hdop><vdop>6.125</vdop><extensions><gom:speed>0.812</gom:speed></extensions></trkpt>
   <trkpt lat="59.0660734914" lon="30.0359825254"><ele>9.035</ele><time>2026-04-20T20:03:43.075Z</time><hdop>5.625</hdop><vdop>5.875</vdop><extensions><gom:speed>0.847</gom:speed></extensions></trkpt>
   <trkpt lat="59.0660692586" lon="30.0359961879"><ele>8.984</ele><time>2026-04-20T20:03:43.940Z</time><hdop>5.562</hdop><vdop>5.875</vdop><extensions><gom:speed>0.878</gom:speed></extensions></trkpt>
   <trkpt lat="59.0660637684" lon="30.0360110239"><ele>9.251</ele><time>2026-04-20T20:03:44.624Z</time><hdop>5.5</hdop><vdop>5.562</vdop><extensions><gom:speed>0.921</gom:speed></extensions></trkpt>
   <trkpt lat="59.0660590746" lon="30.0360209983"><ele>9.363</ele><time>2026-04-20T20:03:45.075Z</time><hdop>5.437</hdop><vdop>5.5</vdop><extensions><gom:speed>0.943</gom:speed></extensions></trkpt>
   <trkpt lat="59.0660503993" lon="30.0360325654"><ele>9.43</ele><time>2026-04-20T20:03:46.013Z</time><hdop>5.312</hdop><vdop>5.5</vdop><extensions><gom:speed>0.91</gom:speed></extensions></trkpt>
   <trkpt lat="59.0660424784" lon="30.0360402767"><ele>10.432</ele><time>2026-04-20T20:03:46.715Z</time><hdop>5.187</hdop><vdop>5.187</vdop><extensions><gom:speed>0.932</gom:speed></extensions></trkpt>
   <trkpt lat="59.0660354795" lon="30.0360447191"><ele>10.244</ele><time>2026-04-20T20:03:47.455Z</time><hdop>5.125</hdop><vdop>4.937</vdop><extensions><gom:speed>0.941</gom:speed></extensions></trkpt>
   <trkpt lat="59.0660309952" lon="30.0360472337"><ele>9.877</ele><time>2026-04-20T20:03:48.076Z</time><hdop>5.062</hdop><vdop>4.875</vdop><extensions><gom:speed>0.938</gom:speed></extensions></trkpt>
   <trkpt lat="59.0660279777" lon="30.0360476528"><ele>9.658</ele><time>2026-04-20T20:03:48.912Z</time><hdop>5.0</hdop><vdop>4.875</vdop><extensions><gom:speed>0.901</gom:speed></extensions></trkpt>
   <trkpt lat="59.0660172908" lon="30.0360551965"><ele>9.243</ele><time>2026-04-20T20:03:49.962Z</time><hdop>5.0</hdop><vdop>4.875</vdop><extensions><gom:speed>0.836</gom:speed></extensions></trkpt>
   <trkpt lat="59.0660129741" lon="30.0360670988"><ele>8.897</ele><time>2026-04-20T20:03:50.781Z</time><hdop>5.0</hdop><vdop>4.625</vdop><extensions><gom:speed>0.84</gom:speed></extensions></trkpt>
   <trkpt lat="59.0660072744" lon="30.0360833597"><ele>8.389</ele><time>2026-04-20T20:03:52.075Z</time><hdop>4.875</hdop><vdop>4.687</vdop><extensions><gom:speed>0.689</gom:speed></extensions></trkpt>
   <trkpt lat="59.0660034606" lon="30.0360874668"><ele>8.085</ele><time>2026-04-20T20:03:53.062Z</time><hdop>4.875</hdop><vdop>4.687</vdop><extensions><gom:speed>0.561</gom:speed></extensions></trkpt>
   <trkpt lat="59.066000066" lon="30.0360970222"><ele>7.45</ele><time>2026-04-20T20:03:53.822Z</time><hdop>4.875</hdop><vdop>4.875</vdop><extensions><gom:speed>0.567</gom:speed></extensions></trkpt>
   <trkpt lat="59.0659966713" lon="30.036107751"><ele>7.037</ele><time>2026-04-20T20:03:54.719Z</time><hdop>4.812</hdop><vdop>9.25</vdop><extensions><gom:speed>0.594</gom:speed></extensions></trkpt>
   <trkpt lat="59.0659923965" lon="30.0361192342"><ele>7.076</ele><time>2026-04-20T20:03:55.520Z</time><hdop>4.812</hdop><vdop>8.562</vdop><extensions><gom:speed>0.621</gom:speed></extensions></trkpt>
   <trkpt lat="59.0659903849" lon="30.0361232576"><ele>7.375</ele><time>2026-04-20T20:03:56.075Z</time><hdop>4.812</hdop><vdop>7.687</vdop><extensions><gom:speed>0.622</gom:speed></extensions></trkpt>
   <trkpt lat="59.0659850624" lon="30.0361299631"><ele>7.239</ele><time>2026-04-20T20:03:57.075Z</time><hdop>4.875</hdop><vdop>7.312</vdop><extensions><gom:speed>0.626</gom:speed></extensions></trkpt>
   <trkpt lat="59.0659786921" lon="30.0361333997"><ele>7.158</ele><time>2026-04-20T20:03:57.937Z</time><hdop>4.937</hdop><vdop>7.312</vdop><extensions><gom:speed>0.68</gom:speed></extensions></trkpt>
   <trkpt lat="59.0659723638" lon="30.0361378421"><ele>7.488</ele><time>2026-04-20T20:03:58.800Z</time><hdop>4.937</hdop><vdop>7.25</vdop><extensions><gom:speed>0.689</gom:speed></extensions></trkpt>
   <trkpt lat="59.0659661612" lon="30.0361491576"><ele>7.399</ele><time>2026-04-20T20:03:59.755Z</time><hdop>5.0</hdop><vdop>7.125</vdop><extensions><gom:speed>0.765</gom:speed></extensions></trkpt>
   <trkpt lat="59.0659590785" lon="30.0361590483"><ele>7.489</ele><time>2026-04-20T20:04:00.643Z</time><hdop>5.0</hdop><vdop>9.625</vdop><extensions><gom:speed>0.753</gom:speed></extensions></trkpt>
   <trkpt lat="59.0659539655" lon="30.0361635745"><ele>8.151</ele><time>2026-04-20T20:04:01.349Z</time><hdop>5.062</hdop><vdop>8.75</vdop><extensions><gom:speed>0.762</gom:speed></extensions></trkpt>
   <trkpt lat="59.0659454998" lon="30.0361703639"><ele>8.672</ele><time>2026-04-20T20:04:02.075Z</time><hdop>5.062</hdop><vdop>7.937</vdop><extensions><gom:speed>0.759</gom:speed></extensions></trkpt>
   <trkpt lat="59.0659371598" lon="30.0361775723"><ele>9.176</ele><time>2026-04-20T20:04:03.075Z</time><hdop>5.125</hdop><vdop>7.437</vdop><extensions><gom:speed>0.759</gom:speed></extensions></trkpt>
   <trkpt lat="59.0659268919" lon="30.036183272"><ele>9.963</ele><time>2026-04-20T20:04:04.075Z</time><hdop>5.187</hdop><vdop>7.25</vdop><extensions><gom:speed>0.781</gom:speed></extensions></trkpt>
   <trkpt lat="59.0659185939" lon="30.0361851998"><ele>10.434</ele><time>2026-04-20T20:04:04.918Z</time><hdop>5.25</hdop><vdop>7.25</vdop><extensions><gom:speed>0.802</gom:speed></extensions></trkpt>
   <trkpt lat="59.0659093738" lon="30.0361838587"><ele>10.829</ele><time>2026-04-20T20:04:05.716Z</time><hdop>5.312</hdop><vdop>7.062</vdop><extensions><gom:speed>0.801</gom:speed></extensions></trkpt>
   <trkpt lat="59.0659017881" lon="30.0361836911"><ele>11.163</ele><time>2026-04-20T20:04:06.320Z</time><hdop>5.312</hdop><vdop>6.812</vdop><extensions><gom:speed>0.805</gom:speed></extensions></trkpt>
   <trkpt lat="59.0658954598" lon="30.0361866247"><ele>11.363</ele><time>2026-04-20T20:04:06.940Z</time><hdop>5.312</hdop><vdop>6.812</vdop><extensions><gom:speed>0.846</gom:speed></extensions></trkpt>
   <trkpt lat="59.0658904726" lon="30.0361873791"><ele>11.321</ele><time>2026-04-20T20:04:07.510Z</time><hdop>5.312</hdop><vdop>9.187</vdop><extensions><gom:speed>0.898</gom:speed></extensions></trkpt>
   <trkpt lat="59.065878696" lon="30.0361894746"><ele>10.697</ele><time>2026-04-20T20:04:08.076Z</time><hdop>5.312</hdop><vdop>8.312</vdop><extensions><gom:speed>0.948</gom:speed></extensions></trkpt>
   <trkpt lat="59.065866668" lon="30.0361887202"><ele>10.285</ele><time>2026-04-20T20:04:09.075Z</time><hdop>5.312</hdop><vdop>7.312</vdop><extensions><gom:speed>0.991</gom:speed></extensions></trkpt>
   <trkpt lat="59.0658574898" lon="30.0361890555"><ele>10.039</ele><time>2026-04-20T20:04:09.901Z</time><hdop>5.375</hdop><vdop>7.312</vdop><extensions><gom:speed>1.033</gom:speed></extensions></trkpt>
   <trkpt lat="59.0658484792" lon="30.0361884688"><ele>10.581</ele><time>2026-04-20T20:04:10.642Z</time><hdop>5.312</hdop><vdop>6.937</vdop><extensions><gom:speed>0.995</gom:speed></extensions></trkpt>
   <trkpt lat="59.0658376666" lon="30.0361854513"><ele>10.992</ele><time>2026-04-20T20:04:11.659Z</time><hdop>5.312</hdop><vdop>6.687</vdop><extensions><gom:speed>0.907</gom:speed></extensions></trkpt>
   <trkpt lat="59.0658287818" lon="30.036183272"><ele>11.807</ele><time>2026-04-20T20:04:12.439Z</time><hdop>5.312</hdop><vdop>6.5</vdop><extensions><gom:speed>0.956</gom:speed></extensions></trkpt>
   <trkpt lat="59.0658227887" lon="30.0361836911"><ele>12.294</ele><time>2026-04-20T20:04:13.021Z</time><hdop>5.312</hdop><vdop>6.5</vdop><extensions><gom:speed>0.961</gom:speed></extensions></trkpt>
   <trkpt lat="59.0658185978" lon="30.0361826852"><ele>12.311</ele><time>2026-04-20T20:04:13.668Z</time><hdop>5.25</hdop><vdop>6.25</vdop><extensions><gom:speed>1.018</gom:speed></extensions></trkpt>
   <trkpt lat="59.0658016663" lon="30.0361806736"><ele>11.752</ele><time>2026-04-20T20:04:14.481Z</time><hdop>5.25</hdop><vdop>6.062</vdop><extensions><gom:speed>1.047</gom:speed></extensions></trkpt>
   <trkpt lat="59.0657941645" lon="30.0361786619"><ele>11.388</ele><time>2026-04-20T20:04:15.075Z</time><hdop>5.187</hdop><vdop>5.875</vdop><extensions><gom:speed>1.053</gom:speed></extensions></trkpt>
   <trkpt lat="59.0657849863" lon="30.0361763988"><ele>11.17</ele><time>2026-04-20T20:04:15.815Z</time><hdop>5.187</hdop><vdop>5.875</vdop><extensions><gom:speed>1.096</gom:speed></extensions></trkpt>
   <trkpt lat="59.0657750957" lon="30.0361734652"><ele>10.536</ele><time>2026-04-20T20:04:16.576Z</time><hdop>5.187</hdop><vdop>5.937</vdop><extensions><gom:speed>1.074</gom:speed></extensions></trkpt>
   <trkpt lat="59.0657687673" lon="30.0361708668"><ele>9.651</ele><time>2026-04-20T20:04:17.075Z</time><hdop>5.125</hdop><vdop>5.937</vdop><extensions><gom:speed>1.097</gom:speed></extensions></trkpt>
   <trkpt lat="59.0657588767" lon="30.0361651671"><ele>9.122</ele><time>2026-04-20T20:04:17.996Z</time><hdop>5.187</hdop><vdop>5.937</vdop><extensions><gom:speed>1.032</gom:speed></extensions></trkpt>
   <trkpt lat="59.0657509977" lon="30.0361612276"><ele>9.144</ele><time>2026-04-20T20:04:18.680Z</time><hdop>5.25</hdop><vdop>5.875</vdop><extensions><gom:speed>0.985</gom:speed></extensions></trkpt>
   <trkpt lat="59.0657425739" lon="30.0361618981"><ele>9.047</ele><time>2026-04-20T20:04:19.359Z</time><hdop>5.25</hdop><vdop>5.875</vdop><extensions><gom:speed>0.995</gom:speed></extensions></trkpt>
   <trkpt lat="59.0657412747" lon="30.0361627363"><ele>8.989</ele><time>2026-04-20T20:04:19.828Z</time><hdop>5.25</hdop><vdop>5.875</vdop><extensions><gom:speed>0.954</gom:speed></extensions></trkpt>
   <trkpt lat="59.0657287857" lon="30.0361759797"><ele>9.003</ele><time>2026-04-20T20:04:20.958Z</time><hdop>5.437</hdop><vdop>5.875</vdop><extensions><gom:speed>0.919</gom:speed></extensions></trkpt>
   <trkpt lat="59.0657252653" lon="30.0361799192"><ele>9.012</ele><time>2026-04-20T20:04:21.480Z</time><hdop>5.5</hdop><vdop>5.812</vdop><extensions><gom:speed>0.928</gom:speed></extensions></trkpt>
   <trkpt lat="59.0657204876" lon="30.0361818471"><ele>8.665</ele><time>2026-04-20T20:04:22.075Z</time><hdop>5.5</hdop><vdop>5.625</vdop><extensions><gom:speed>0.917</gom:speed></extensions></trkpt>
   <trkpt lat="59.06571198" lon="30.0361799192"><ele>8.458</ele><time>2026-04-20T20:04:23.041Z</time><hdop>5.625</hdop><vdop>5.625</vdop><extensions><gom:speed>0.905</gom:speed></extensions></trkpt>
   <trkpt lat="59.0657065736" lon="30.0361692742"><ele>8.199</ele><time>2026-04-20T20:04:23.938Z</time><hdop>5.687</hdop><vdop>5.562</vdop><extensions><gom:speed>0.844</gom:speed></extensions></trkpt>
   <trkpt lat="59.0657011673" lon="30.0361631554"><ele>8.086</ele><time>2026-04-20T20:04:24.758Z</time><hdop>5.812</hdop><vdop>5.437</vdop><extensions><gom:speed>0.821</gom:speed></extensions></trkpt>
   <trkpt lat="59.0656946713" lon="30.0361606408"><ele>7.465</ele><time>2026-04-20T20:04:25.597Z</time><hdop>5.937</hdop><vdop>5.312</vdop><extensions><gom:speed>0.843</gom:speed></extensions></trkpt>
   <trkpt lat="59.0656922825" lon="30.036159635"><ele>7.48</ele><time>2026-04-20T20:04:26.075Z</time><hdop>6.0</hdop><vdop>5.25</vdop><extensions><gom:speed>0.862</gom:speed></extensions></trkpt>
   <trkpt lat="59.0656868762" lon="30.0361575395"><ele>7.486</ele><time>2026-04-20T20:04:27.076Z</time><hdop>6.062</hdop><vdop>10.0</vdop><extensions><gom:speed>0.833</gom:speed></extensions></trkpt>
   <trkpt lat="59.0656815956" lon="30.0361560308"><ele>7.491</ele><time>2026-04-20T20:04:27.878Z</time><hdop>6.125</hdop><vdop>10.0</vdop><extensions><gom:speed>0.815</gom:speed></extensions></trkpt>
   <trkpt lat="59.0656772789" lon="30.0361514207"><ele>7.585</ele><time>2026-04-20T20:04:28.597Z</time><hdop>6.125</hdop><vdop>8.875</vdop><extensions><gom:speed>0.857</gom:speed></extensions></trkpt>
   <trkpt lat="59.0656743871" lon="30.036146224"><ele>8.246</ele><time>2026-04-20T20:04:29.075Z</time><hdop>6.062</hdop><vdop>7.937</vdop><extensions><gom:speed>0.854</gom:speed></extensions></trkpt>
   <trkpt lat="59.0656677654" lon="30.0361344893"><ele>7.872</ele><time>2026-04-20T20:04:30.075Z</time><hdop>6.0</hdop><vdop>7.062</vdop><extensions><gom:speed>0.865</gom:speed></extensions></trkpt>
   <trkpt lat="59.0656612694" lon="30.0361275323"><ele>7.649</ele><time>2026-04-20T20:04:30.881Z</time><hdop>5.812</hdop><vdop>7.062</vdop><extensions><gom:speed>0.884</gom:speed></extensions></trkpt>
   <trkpt lat="59.0656551926" lon="30.036124431"><ele>7.685</ele><time>2026-04-20T20:04:31.541Z</time><hdop>5.687</hdop><vdop>6.562</vdop><extensions><gom:speed>0.92</gom:speed></extensions></trkpt>
   <trkpt lat="59.0656509597" lon="30.0361229223"><ele>7.666</ele><time>2026-04-20T20:04:32.075Z</time><hdop>5.687</hdop><vdop>6.187</vdop><extensions><gom:speed>0.908</gom:speed></extensions></trkpt>
   <trkpt lat="59.0656423682" lon="30.0361170549"><ele>7.437</ele><time>2026-04-20T20:04:32.977Z</time><hdop>5.562</hdop><vdop>5.937</vdop><extensions><gom:speed>0.855</gom:speed></extensions></trkpt>
   <trkpt lat="59.0656407757" lon="30.036104063"><ele>6.921</ele><time>2026-04-20T20:04:34.075Z</time><hdop>5.5</hdop><vdop>5.5</vdop><extensions><gom:speed>0.714</gom:speed></extensions></trkpt>
   <trkpt lat="59.0656388898" lon="30.0360949267"><ele>6.612</ele><time>2026-04-20T20:04:35.084Z</time><hdop>5.562</hdop><vdop>5.5</vdop><extensions><gom:speed>0.606</gom:speed></extensions></trkpt>
   <trkpt lat="59.0656351598" lon="30.0360935856"><ele>6.398</ele><time>2026-04-20T20:04:35.776Z</time><hdop>5.562</hdop><vdop>5.437</vdop><extensions><gom:speed>0.634</gom:speed></extensions></trkpt>
   <trkpt lat="59.0656304659" lon="30.036090149"><ele>5.982</ele><time>2026-04-20T20:04:36.495Z</time><hdop>5.562</hdop><vdop>5.437</vdop><extensions><gom:speed>0.701</gom:speed></extensions></trkpt>
   <trkpt lat="59.0656275742" lon="30.036084617"><ele>5.44</ele><time>2026-04-20T20:04:37.075Z</time><hdop>5.562</hdop><vdop>5.25</vdop><extensions><gom:speed>0.711</gom:speed></extensions></trkpt>
   <trkpt lat="59.0656237604" lon="30.0360779953"><ele>5.116</ele><time>2026-04-20T20:04:37.699Z</time><hdop>5.562</hdop><vdop>5.25</vdop><extensions><gom:speed>0.803</gom:speed></extensions></trkpt>
   <trkpt lat="59.0656208687" lon="30.0360698648"><ele>5.455</ele><time>2026-04-20T20:04:38.425Z</time><hdop>5.562</hdop><vdop>5.5</vdop><extensions><gom:speed>0.863</gom:speed></extensions></trkpt>
   <trkpt lat="59.0656144984" lon="30.0360553641"><ele>5.743</ele><time>2026-04-20T20:04:39.075Z</time><hdop>5.5</hdop><vdop>5.5</vdop><extensions><gom:speed>0.901</gom:speed></extensions></trkpt>
   <trkpt lat="59.0656059908" lon="30.0360458926"><ele>5.915</ele><time>2026-04-20T20:04:40.061Z</time><hdop>5.5</hdop><vdop>5.5</vdop><extensions><gom:speed>1.027</gom:speed></extensions></trkpt>
   <trkpt lat="59.0655979861" lon="30.0360377621"><ele>6.295</ele><time>2026-04-20T20:04:40.778Z</time><hdop>5.5</hdop><vdop>5.562</vdop><extensions><gom:speed>1.111</gom:speed></extensions></trkpt>
   <trkpt lat="59.0655915739" lon="30.0360297993"><ele>6.223</ele><time>2026-04-20T20:04:41.480Z</time><hdop>5.437</hdop><vdop>5.562</vdop><extensions><gom:speed>1.077</gom:speed></extensions></trkpt>
   <trkpt lat="59.0655863771" lon="30.0360232614"><ele>6.694</ele><time>2026-04-20T20:04:42.075Z</time><hdop>5.437</hdop><vdop>5.562</vdop><extensions><gom:speed>1.085</gom:speed></extensions></trkpt>
   <trkpt lat="59.0655779952" lon="30.0360162207"><ele>6.975</ele><time>2026-04-20T20:04:42.941Z</time><hdop>5.375</hdop><vdop>5.562</vdop><extensions><gom:speed>1.076</gom:speed></extensions></trkpt>
   <trkpt lat="59.0655707868" lon="30.0360097666"><ele>6.565</ele><time>2026-04-20T20:04:43.661Z</time><hdop>5.375</hdop><vdop>5.437</vdop><extensions><gom:speed>1.079</gom:speed></extensions></trkpt>
   <trkpt lat="59.0655619858" lon="30.0360058271"><ele>6.361</ele><time>2026-04-20T20:04:44.520Z</time><hdop>5.25</hdop><vdop>5.5</vdop><extensions><gom:speed>1.008</gom:speed></extensions></trkpt>
   <trkpt lat="59.0655543583" lon="30.0359981996"><ele>6.188</ele><time>2026-04-20T20:04:45.075Z</time><hdop>5.187</hdop><vdop>5.687</vdop><extensions><gom:speed>1.023</gom:speed></extensions></trkpt>
   <trkpt lat="59.0655503769" lon="30.0359903206"><ele>6.085</ele><time>2026-04-20T20:04:45.822Z</time><hdop>5.125</hdop><vdop>5.687</vdop><extensions><gom:speed>0.969</gom:speed></extensions></trkpt>
   <trkpt lat="59.0655445933" lon="30.0359796756"><ele>5.816</ele><time>2026-04-20T20:04:46.623Z</time><hdop>5.125</hdop><vdop>5.562</vdop><extensions><gom:speed>0.963</gom:speed></extensions></trkpt>
   <trkpt lat="59.0655406958" lon="30.0359741435"><ele>5.532</ele><time>2026-04-20T20:04:47.075Z</time><hdop>5.125</hdop><vdop>5.75</vdop><extensions><gom:speed>0.958</gom:speed></extensions></trkpt>
   <trkpt lat="59.065531769" lon="30.0359671865"><ele>5.123</ele><time>2026-04-20T20:04:48.076Z</time><hdop>5.125</hdop><vdop>5.875</vdop><extensions><gom:speed>0.907</gom:speed></extensions></trkpt>
   <trkpt lat="59.0655249797" lon="30.0359672703"><ele>4.878</ele><time>2026-04-20T20:04:48.775Z</time><hdop>5.062</hdop><vdop>5.875</vdop><extensions><gom:speed>0.896</gom:speed></extensions></trkpt>
   <trkpt lat="59.0655177713" lon="30.0359644205"><ele>5.105</ele><time>2026-04-20T20:04:49.702Z</time><hdop>5.062</hdop><vdop>5.937</vdop><extensions><gom:speed>0.74</gom:speed></extensions></trkpt>
   <trkpt lat="59.0655144604" lon="30.0359585532"><ele>5.192</ele><time>2026-04-20T20:04:50.333Z</time><hdop>5.062</hdop><vdop>5.875</vdop><extensions><gom:speed>0.745</gom:speed></extensions></trkpt>
   <trkpt lat="59.0655140832" lon="30.0359577988"><ele>5.243</ele><time>2026-04-20T20:04:50.864Z</time><hdop>5.062</hdop><vdop>5.875</vdop><extensions><gom:speed>0.686</gom:speed></extensions></trkpt>
   <trkpt lat="59.0655112753" lon="30.0359436334"><ele>5.366</ele><time>2026-04-20T20:04:52.047Z</time><hdop>5.0</hdop><vdop>5.937</vdop><extensions><gom:speed>0.537</gom:speed></extensions></trkpt>
   <trkpt lat="59.0655092636" lon="30.0359387719"><ele>5.918</ele><time>2026-04-20T20:04:53.075Z</time><hdop>4.937</hdop><vdop>6.062</vdop><extensions><gom:speed>0.402</gom:speed></extensions></trkpt>
   <trkpt lat="59.0655057851" lon="30.0359366764"><ele>6.248</ele><time>2026-04-20T20:04:54.018Z</time><hdop>4.937</hdop><vdop>6.062</vdop><extensions><gom:speed>0.402</gom:speed></extensions></trkpt>
   <trkpt lat="59.065500295" lon="30.0359336589"><ele>6.79</ele><time>2026-04-20T20:04:54.855Z</time><hdop>4.937</hdop><vdop>5.875</vdop><extensions><gom:speed>0.485</gom:speed></extensions></trkpt>
   <trkpt lat="59.0654908653" lon="30.0359244388"><ele>7.761</ele><time>2026-04-20T20:04:55.556Z</time><hdop>5.0</hdop><vdop>5.562</vdop><extensions><gom:speed>0.759</gom:speed></extensions></trkpt>
   <trkpt lat="59.0654842856" lon="30.0359170627"><ele>8.19</ele><time>2026-04-20T20:04:56.075Z</time><hdop>5.0</hdop><vdop>5.437</vdop><extensions><gom:speed>0.802</gom:speed></extensions></trkpt>
   <trkpt lat="59.0654745625" lon="30.0359098543"><ele>8.446</ele><time>2026-04-20T20:04:56.939Z</time><hdop>5.125</hdop><vdop>5.437</vdop><extensions><gom:speed>0.892</gom:speed></extensions></trkpt>
   <trkpt lat="59.0654662645" lon="30.0359021429"><ele>8.488</ele><time>2026-04-20T20:04:57.461Z</time><hdop>5.125</hdop><vdop>5.375</vdop><extensions><gom:speed>0.914</gom:speed></extensions></trkpt>
   <trkpt lat="59.0654597685" lon="30.0358935934"><ele>8.659</ele><time>2026-04-20T20:04:58.075Z</time><hdop>5.125</hdop><vdop>5.437</vdop><extensions><gom:speed>0.932</gom:speed></extensions></trkpt>
   <trkpt lat="59.0654503808" lon="30.0358875584"><ele>8.762</ele><time>2026-04-20T20:04:58.961Z</time><hdop>5.187</hdop><vdop>5.437</vdop><extensions><gom:speed>0.949</gom:speed></extensions></trkpt>
   <trkpt lat="59.0654412864" lon="30.0358834513"><ele>8.337</ele><time>2026-04-20T20:04:59.822Z</time><hdop>5.25</hdop><vdop>5.25</vdop><extensions><gom:speed>0.944</gom:speed></extensions></trkpt>
   <trkpt lat="59.0654342875" lon="30.0358742312"><ele>8.081</ele><time>2026-04-20T20:05:00.580Z</time><hdop>5.312</hdop><vdop>5.25</vdop><extensions><gom:speed>0.897</gom:speed></extensions></trkpt>
   <trkpt lat="59.0654301804" lon="30.0358667713"><ele>8.033</ele><time>2026-04-20T20:05:01.075Z</time><hdop>5.312</hdop><vdop>5.312</vdop><extensions><gom:speed>0.906</gom:speed></extensions></trkpt>
   <trkpt lat="59.0654238939" lon="30.0358556234"><ele>8.004</ele><time>2026-04-20T20:05:02.081Z</time><hdop>5.375</hdop><vdop>5.312</vdop><extensions><gom:speed>0.838</gom:speed></extensions></trkpt>
   <trkpt lat="59.0654169789" lon="30.0358513486"><ele>8.005</ele><time>2026-04-20T20:05:02.864Z</time><hdop>5.375</hdop><vdop>5.312</vdop><extensions><gom:speed>0.793</gom:speed></extensions></trkpt>
   <trkpt lat="59.0654055795" lon="30.0358438887"><ele>8.087</ele><time>2026-04-20T20:05:03.720Z</time><hdop>5.375</hdop><vdop>5.5</vdop><extensions><gom:speed>0.798</gom:speed></extensions></trkpt>
   <trkpt lat="59.0653982872" lon="30.0358392787"><ele>8.083</ele><time>2026-04-20T20:05:04.599Z</time><hdop>5.312</hdop><vdop>5.375</vdop><extensions><gom:speed>0.75</gom:speed></extensions></trkpt>
   <trkpt lat="59.0653934676" lon="30.0358356745"><ele>8.416</ele><time>2026-04-20T20:05:05.075Z</time><hdop>5.25</hdop><vdop>5.437</vdop><extensions><gom:speed>0.754</gom:speed></extensions></trkpt>
   <trkpt lat="59.0653866783" lon="30.0358282984"><ele>8.567</ele><time>2026-04-20T20:05:06.075Z</time><hdop>5.25</hdop><vdop>5.312</vdop><extensions><gom:speed>0.669</gom:speed></extensions></trkpt>
   <trkpt lat="59.0653822778" lon="30.0358202518"><ele>8.657</ele><time>2026-04-20T20:05:07.036Z</time><hdop>5.187</hdop><vdop>5.312</vdop><extensions><gom:speed>0.602</gom:speed></extensions></trkpt>
   <trkpt lat="59.0653766619" lon="30.0358101935"><ele>9.092</ele><time>2026-04-20T20:05:07.937Z</time><hdop>5.125</hdop><vdop>5.312</vdop><extensions><gom:speed>0.605</gom:speed></extensions></trkpt>
   <trkpt lat="59.0653697888" lon="30.035802063"><ele>9.207</ele><time>2026-04-20T20:05:08.804Z</time><hdop>5.062</hdop><vdop>5.125</vdop><extensions><gom:speed>0.632</gom:speed></extensions></trkpt>
   <trkpt lat="59.0653661845" lon="30.0357969501"><ele>8.931</ele><time>2026-04-20T20:05:09.351Z</time><hdop>5.062</hdop><vdop>5.0</vdop><extensions><gom:speed>0.65</gom:speed></extensions></trkpt>
   <trkpt lat="59.0653600657" lon="30.0357920886"><ele>8.766</ele><time>2026-04-20T20:05:09.860Z</time><hdop>5.062</hdop><vdop>5.0</vdop><extensions><gom:speed>0.657</gom:speed></extensions></trkpt>
   <trkpt lat="59.0653543661" lon="30.0357860536"><ele>8.865</ele><time>2026-04-20T20:05:10.757Z</time><hdop>5.062</hdop><vdop>4.937</vdop><extensions><gom:speed>0.632</gom:speed></extensions></trkpt>
   <trkpt lat="59.0653462775" lon="30.0357801863"><ele>8.47</ele><time>2026-04-20T20:05:11.616Z</time><hdop>5.0</hdop><vdop>5.0</vdop><extensions><gom:speed>0.676</gom:speed></extensions></trkpt>
   <trkpt lat="59.0653420866" lon="30.0357751571"><ele>8.134</ele><time>2026-04-20T20:05:12.075Z</time><hdop>5.0</hdop><vdop>4.812</vdop><extensions><gom:speed>0.671</gom:speed></extensions></trkpt>
   <trkpt lat="59.0653348781" lon="30.0357627519"><ele>8.287</ele><time>2026-04-20T20:05:13.075Z</time><hdop>4.937</hdop><vdop>4.937</vdop><extensions><gom:speed>0.667</gom:speed></extensions></trkpt>
   <trkpt lat="59.0653291784" lon="30.035752526"><ele>8.378</ele><time>2026-04-20T20:05:13.957Z</time><hdop>4.937</hdop><vdop>4.937</vdop><extensions><gom:speed>0.712</gom:speed></extensions></trkpt>
   <trkpt lat="59.0653240655" lon="30.0357466586"><ele>8.419</ele><time>2026-04-20T20:05:14.795Z</time><hdop>4.937</hdop><vdop>4.875</vdop><extensions><gom:speed>0.668</gom:speed></extensions></trkpt>
   <trkpt lat="59.06532197" lon="30.0357459881"><ele>8.464</ele><time>2026-04-20T20:05:15.501Z</time><hdop>4.937</hdop><vdop>10.5</vdop><extensions><gom:speed>0.621</gom:speed></extensions></trkpt>
   <trkpt lat="59.0653170666" lon="30.0357438926"><ele>8.491</ele><time>2026-04-20T20:05:15.998Z</time><hdop>4.937</hdop><vdop>10.5</vdop><extensions><gom:speed>0.56</gom:speed></extensions></trkpt>
   <trkpt lat="59.0653130852" lon="30.0357381929"><ele>8.714</ele><time>2026-04-20T20:05:17.075Z</time><hdop>5.0</hdop><vdop>10.375</vdop><extensions><gom:speed>0.519</gom:speed></extensions></trkpt>
   <trkpt lat="59.0653083913" lon="30.0357299787"><ele>9.677</ele><time>2026-04-20T20:05:18.076Z</time><hdop>5.062</hdop><vdop>8.25</vdop><extensions><gom:speed>0.536</gom:speed></extensions></trkpt>
   <trkpt lat="59.065304368" lon="30.0357232731"><ele>10.623</ele><time>2026-04-20T20:05:19.076Z</time><hdop>5.125</hdop><vdop>7.25</vdop><extensions><gom:speed>0.489</gom:speed></extensions></trkpt>
   <trkpt lat="59.0652990874" lon="30.0357199204"><ele>11.696</ele><time>2026-04-20T20:05:20.075Z</time><hdop>5.125</hdop><vdop>6.687</vdop><extensions><gom:speed>0.478</gom:speed></extensions></trkpt>
   <trkpt lat="59.0652934715" lon="30.0357202556"><ele>12.337</ele><time>2026-04-20T20:05:20.697Z</time><hdop>5.125</hdop><vdop>6.687</vdop><extensions><gom:speed>0.585</gom:speed></extensions></trkpt>
   <trkpt lat="59.0652848801" lon="30.0357190822"><ele>12.49</ele><time>2026-04-20T20:05:21.577Z</time><hdop>5.125</hdop><vdop>6.25</vdop><extensions><gom:speed>0.64</gom:speed></extensions></trkpt>
   <trkpt lat="59.0652780907" lon="30.0357150589"><ele>12.523</ele><time>2026-04-20T20:05:22.075Z</time><hdop>5.062</hdop><vdop>5.937</vdop><extensions><gom:speed>0.669</gom:speed></extensions></trkpt>
   <trkpt lat="59.0652735645" lon="30.035705252"><ele>12.699</ele><time>2026-04-20T20:05:23.082Z</time><hdop>5.062</hdop><vdop>5.625</vdop><extensions><gom:speed>0.663</gom:speed></extensions></trkpt>
   <trkpt lat="59.0652724749" lon="30.0356893264"><ele>12.805</ele><time>2026-04-20T20:05:23.896Z</time><hdop>5.0</hdop><vdop>5.625</vdop><extensions><gom:speed>0.776</gom:speed></extensions></trkpt>
   <trkpt lat="59.0652735645" lon="30.0356767536"><ele>12.483</ele><time>2026-04-20T20:05:24.658Z</time><hdop>4.937</hdop><vdop>5.562</vdop><extensions><gom:speed>0.71</gom:speed></extensions></trkpt>
   <trkpt lat="59.0652724749" lon="30.0356637616"><ele>11.598</ele><time>2026-04-20T20:05:25.494Z</time><hdop>4.875</hdop><vdop>5.312</vdop><extensions><gom:speed>0.662</gom:speed></extensions></trkpt>
   <trkpt lat="59.065270086" lon="30.0356555474"><ele>11.669</ele><time>2026-04-20T20:05:26.075Z</time><hdop>4.812</hdop><vdop>5.062</vdop><extensions><gom:speed>0.661</gom:speed></extensions></trkpt>
   <trkpt lat="59.0652642606" lon="30.0356429745"><ele>11.754</ele><time>2026-04-20T20:05:27.075Z</time><hdop>4.75</hdop><vdop>5.0</vdop><extensions><gom:speed>0.686</gom:speed></extensions></trkpt>
   <trkpt lat="59.0652587704" lon="30.035634425"><ele>11.805</ele><time>2026-04-20T20:05:27.962Z</time><hdop>4.687</hdop><vdop>5.0</vdop><extensions><gom:speed>0.705</gom:speed></extensions></trkpt>
   <trkpt lat="59.0652525678" lon="30.0356280547"><ele>12.01</ele><time>2026-04-20T20:05:28.762Z</time><hdop>4.625</hdop><vdop>5.0</vdop><extensions><gom:speed>0.751</gom:speed></extensions></trkpt>
   <trkpt lat="59.065246491" lon="30.0356243667"><ele>12.251</ele><time>2026-04-20T20:05:29.434Z</time><hdop>4.625</hdop><vdop>4.937</vdop><extensions><gom:speed>0.821</gom:speed></extensions></trkpt>
   <trkpt lat="59.0652409589" lon="30.0356209301"><ele>12.74</ele><time>2026-04-20T20:05:30.075Z</time><hdop>4.625</hdop><vdop>4.937</vdop><extensions><gom:speed>0.822</gom:speed></extensions></trkpt>
   <trkpt lat="59.0652324932" lon="30.0356163201"><ele>13.032</ele><time>2026-04-20T20:05:31.004Z</time><hdop>4.687</hdop><vdop>4.937</vdop><extensions><gom:speed>0.907</gom:speed></extensions></trkpt>
   <trkpt lat="59.0652248656" lon="30.0356103689"><ele>12.435</ele><time>2026-04-20T20:05:31.734Z</time><hdop>4.75</hdop><vdop>4.75</vdop><extensions><gom:speed>0.967</gom:speed></extensions></trkpt>
   <trkpt lat="59.0652174896" lon="30.0356042501"><ele>12.196</ele><time>2026-04-20T20:05:32.475Z</time><hdop>4.812</hdop><vdop>4.687</vdop><extensions><gom:speed>0.962</gom:speed></extensions></trkpt>
   <trkpt lat="59.0652123766" lon="30.0355990533"><ele>11.609</ele><time>2026-04-20T20:05:33.075Z</time><hdop>4.75</hdop><vdop>4.562</vdop><extensions><gom:speed>0.957</gom:speed></extensions></trkpt>
   <trkpt lat="59.0652057968" lon="30.035591342"><ele>11.259</ele><time>2026-04-20T20:05:33.976Z</time><hdop>4.812</hdop><vdop>4.562</vdop><extensions><gom:speed>0.904</gom:speed></extensions></trkpt>
   <trkpt lat="59.065198295" lon="30.0355808646"><ele>11.805</ele><time>2026-04-20T20:05:35.075Z</time><hdop>4.875</hdop><vdop>4.437</vdop><extensions><gom:speed>0.758</gom:speed></extensions></trkpt>
   <trkpt lat="59.0651966605" lon="30.0355781824"><ele>11.827</ele><time>2026-04-20T20:05:35.994Z</time><hdop>4.937</hdop><vdop>4.437</vdop><extensions><gom:speed>0.58</gom:speed></extensions></trkpt>
   <trkpt lat="59.0651977921" lon="30.0355751649"><ele>11.776</ele><time>2026-04-20T20:05:37.075Z</time><hdop>4.937</hdop><vdop>4.187</vdop><extensions><gom:speed>0.392</gom:speed></extensions></trkpt>
   <trkpt lat="59.0652007677" lon="30.0355757516"><ele>12.044</ele><time>2026-04-20T20:05:38.007Z</time><hdop>5.125</hdop><vdop>4.25</vdop><extensions><gom:speed>0.245</gom:speed></extensions></trkpt>
   <trkpt lat="59.0652016897" lon="30.0355766736"><ele>12.204</ele><time>2026-04-20T20:05:38.741Z</time><hdop>5.25</hdop><vdop>4.25</vdop><extensions><gom:speed>0.179</gom:speed></extensions></trkpt>
   <trkpt lat="59.0652032822" lon="30.0355767575"><ele>12.759</ele><time>2026-04-20T20:05:39.444Z</time><hdop>5.25</hdop><vdop>4.437</vdop><extensions><gom:speed>0.12</gom:speed></extensions></trkpt>
   <trkpt lat="59.0652031984" lon="30.035575584"><ele>13.293</ele><time>2026-04-20T20:05:40.075Z</time><hdop>5.25</hdop><vdop>4.625</vdop><extensions><gom:speed>0.146</gom:speed></extensions></trkpt>
   <trkpt lat="59.0652028632" lon="30.0355749973"><ele>13.612</ele><time>2026-04-20T20:05:40.637Z</time><hdop>5.187</hdop><vdop>4.625</vdop><extensions><gom:speed>0.133</gom:speed></extensions></trkpt>
   <trkpt lat="59.0652002648" lon="30.0355694652"><ele>14.028</ele><time>2026-04-20T20:05:42.075Z</time><hdop>5.125</hdop><vdop>4.562</vdop><extensions><gom:speed>0.181</gom:speed></extensions></trkpt>
   <trkpt lat="59.0651989656" lon="30.0355680403"><ele>14.276</ele><time>2026-04-20T20:05:42.582Z</time><hdop>5.0</hdop><vdop>4.562</vdop><extensions><gom:speed>0.233</gom:speed></extensions></trkpt>
   <trkpt lat="59.0651975826" lon="30.0355679565"><ele>14.248</ele><time>2026-04-20T20:05:43.118Z</time><hdop>5.0</hdop><vdop>4.562</vdop><extensions><gom:speed>0.25</gom:speed></extensions></trkpt>
   <trkpt lat="59.0651954871" lon="30.035568627"><ele>14.23</ele><time>2026-04-20T20:05:43.835Z</time><hdop>4.937</hdop><vdop>4.562</vdop><extensions><gom:speed>0.274</gom:speed></extensions></trkpt>
   <trkpt lat="59.065193685" lon="30.0355669506"><ele>13.598</ele><time>2026-04-20T20:05:44.996Z</time><hdop>4.875</hdop><vdop>4.312</vdop><extensions><gom:speed>0.216</gom:speed></extensions></trkpt>
   <trkpt lat="59.0651937688" lon="30.035565861"><ele>12.941</ele><time>2026-04-20T20:05:46.075Z</time><hdop>4.875</hdop><vdop>4.062</vdop><extensions><gom:speed>0.155</gom:speed></extensions></trkpt>
   <trkpt lat="59.0651948584" lon="30.0355632626"><ele>12.468</ele><time>2026-04-20T20:05:47.075Z</time><hdop>4.875</hdop><vdop>3.937</vdop><extensions><gom:speed>0.095</gom:speed></extensions></trkpt>
   <trkpt lat="59.0651958643" lon="30.0355612509"><ele>12.114</ele><time>2026-04-20T20:05:48.075Z</time><hdop>4.875</hdop><vdop>3.875</vdop><extensions><gom:speed>0.084</gom:speed></extensions></trkpt>
   <trkpt lat="59.0651970796" lon="30.0355590717"><ele>12.158</ele><time>2026-04-20T20:05:49.075Z</time><hdop>4.75</hdop><vdop>3.875</vdop><extensions><gom:speed>0.068</gom:speed></extensions></trkpt>
   <trkpt lat="59.0651967863" lon="30.0355578982"><ele>12.244</ele><time>2026-04-20T20:05:50.075Z</time><hdop>4.625</hdop><vdop>3.812</vdop><extensions><gom:speed>0.096</gom:speed></extensions></trkpt>
   <trkpt lat="59.0651961995" lon="30.0355578982"><ele>12.296</ele><time>2026-04-20T20:05:50.618Z</time><hdop>4.375</hdop><vdop>3.812</vdop><extensions><gom:speed>0.094</gom:speed></extensions></trkpt>
   <trkpt lat="59.0651954871" lon="30.0355573953"><ele>12.587</ele><time>2026-04-20T20:05:51.456Z</time><hdop>4.187</hdop><vdop>3.937</vdop><extensions><gom:speed>0.075</gom:speed></extensions></trkpt>
   <trkpt lat="59.0651941879" lon="30.0355559703"><ele>12.677</ele><time>2026-04-20T20:05:52.075Z</time><hdop>4.187</hdop><vdop>4.125</vdop><extensions><gom:speed>0.122</gom:speed></extensions></trkpt>
   <trkpt lat="59.0651935592" lon="30.0355555513"><ele>12.731</ele><time>2026-04-20T20:05:52.697Z</time><hdop>4.125</hdop><vdop>4.125</vdop><extensions><gom:speed>0.116</gom:speed></extensions></trkpt>
   <trkpt lat="59.0651928887" lon="30.035554294"><ele>12.85</ele><time>2026-04-20T20:05:53.263Z</time><hdop>4.125</hdop><vdop>7.75</vdop><extensions><gom:speed>0.158</gom:speed></extensions></trkpt>
   <trkpt lat="59.0651911704" lon="30.0355514441"><ele>12.922</ele><time>2026-04-20T20:05:54.042Z</time><hdop>4.125</hdop><vdop>7.75</vdop><extensions><gom:speed>0.253</gom:speed></extensions></trkpt>
   <trkpt lat="59.0651845906" lon="30.0355423917"><ele>12.881</ele><time>2026-04-20T20:05:54.803Z</time><hdop>4.25</hdop><vdop>7.75</vdop><extensions><gom:speed>0.492</gom:speed></extensions></trkpt>
   <trkpt lat="59.0651780946" lon="30.0355309923"><ele>12.53</ele><time>2026-04-20T20:05:55.502Z</time><hdop>4.437</hdop><vdop>6.937</vdop><extensions><gom:speed>0.666</gom:speed></extensions></trkpt>
   <trkpt lat="59.0651733589" lon="30.0355212693"><ele>12.525</ele><time>2026-04-20T20:05:56.075Z</time><hdop>4.5</hdop><vdop>6.375</vdop><extensions><gom:speed>0.728</gom:speed></extensions></trkpt>
   <trkpt lat="59.0651657732" lon="30.0355105404"><ele>12.521</ele><time>2026-04-20T20:05:57.043Z</time><hdop>4.812</hdop><vdop>6.375</vdop><extensions><gom:speed>0.76</gom:speed></extensions></trkpt>
   <trkpt lat="59.0651578942" lon="30.0355075229"><ele>12.775</ele><time>2026-04-20T20:05:57.903Z</time><hdop>5.0</hdop><vdop>5.875</vdop><extensions><gom:speed>0.758</gom:speed></extensions></trkpt>
   <trkpt lat="59.0651505601" lon="30.0355072715"><ele>12.837</ele><time>2026-04-20T20:05:58.681Z</time><hdop>5.187</hdop><vdop>5.312</vdop><extensions><gom:speed>0.812</gom:speed></extensions></trkpt>
   <trkpt lat="59.0651420944" lon="30.0355036673"><ele>13.231</ele><time>2026-04-20T20:05:59.581Z</time><hdop>5.375</hdop><vdop>5.25</vdop><extensions><gom:speed>0.745</gom:speed></extensions></trkpt>
   <trkpt lat="59.0651392864" lon="30.0354976323"><ele>13.292</ele><time>2026-04-20T20:06:00.076Z</time><hdop>5.375</hdop><vdop>5.25</vdop><extensions><gom:speed>0.707</gom:speed></extensions></trkpt>
   <trkpt lat="59.0651363947" lon="30.0354870711"><ele>13.328</ele><time>2026-04-20T20:06:01.081Z</time><hdop>5.375</hdop><vdop>5.25</vdop><extensions><gom:speed>0.673</gom:speed></extensions></trkpt>
   <trkpt lat="59.0651317846" lon="30.0354756717"><ele>13.321</ele><time>2026-04-20T20:06:02.075Z</time><hdop>5.375</hdop><vdop>5.0</vdop><extensions><gom:speed>0.63</gom:speed></extensions></trkpt>
   <trkpt lat="59.0651295634" lon="30.0354734924"><ele>13.317</ele><time>2026-04-20T20:06:02.622Z</time><hdop>5.375</hdop><vdop>5.0</vdop><extensions><gom:speed>0.557</gom:speed></extensions></trkpt>
   <trkpt lat="59.0651271746" lon="30.0354695529"><ele>13.938</ele><time>2026-04-20T20:06:03.075Z</time><hdop>5.312</hdop><vdop>5.0</vdop><extensions><gom:speed>0.543</gom:speed></extensions></trkpt>
   <trkpt lat="59.065123277" lon="30.0354676251"><ele>14.309</ele><time>2026-04-20T20:06:04.081Z</time><hdop>5.312</hdop><vdop>5.0</vdop><extensions><gom:speed>0.479</gom:speed></extensions></trkpt>
   <trkpt lat="59.0651198823" lon="30.035460249"><ele>14.538</ele><time>2026-04-20T20:06:04.900Z</time><hdop>5.312</hdop><vdop>5.0</vdop><extensions><gom:speed>0.524</gom:speed></extensions></trkpt>
   <trkpt lat="59.0651141826" lon="30.0354431499"><ele>14.775</ele><time>2026-04-20T20:06:06.075Z</time><hdop>5.312</hdop><vdop>4.75</vdop><extensions><gom:speed>0.532</gom:speed></extensions></trkpt>
   <trkpt lat="59.0651122967" lon="30.035439881"><ele>14.657</ele><time>2026-04-20T20:06:07.029Z</time><hdop>5.312</hdop><vdop>4.625</vdop><extensions><gom:speed>0.435</gom:speed></extensions></trkpt>
   <trkpt lat="59.0651114585" lon="30.0354381208"><ele>14.587</ele><time>2026-04-20T20:06:07.576Z</time><hdop>5.375</hdop><vdop>4.625</vdop><extensions><gom:speed>0.398</gom:speed></extensions></trkpt>
   <trkpt lat="59.0651098659" lon="30.0354324211"><ele>14.314</ele><time>2026-04-20T20:06:08.075Z</time><hdop>5.437</hdop><vdop>4.687</vdop><extensions><gom:speed>0.402</gom:speed></extensions></trkpt>
   <trkpt lat="59.0651074771" lon="30.0354236201"><ele>14.379</ele><time>2026-04-20T20:06:09.042Z</time><hdop>5.562</hdop><vdop>7.625</vdop><extensions><gom:speed>0.433</gom:speed></extensions></trkpt>
   <trkpt lat="59.0651073933" lon="30.0354216923"><ele>14.418</ele><time>2026-04-20T20:06:09.620Z</time><hdop>5.687</hdop><vdop>7.625</vdop><extensions><gom:speed>0.323</gom:speed></extensions></trkpt>
   <trkpt lat="59.0651069742" lon="30.0354176689"><ele>15.186</ele><time>2026-04-20T20:06:10.075Z</time><hdop>5.687</hdop><vdop>6.75</vdop><extensions><gom:speed>0.312</gom:speed></extensions></trkpt>
   <trkpt lat="59.0651054654" lon="30.0354079459"><ele>16.107</ele><time>2026-04-20T20:06:11.076Z</time><hdop>5.75</hdop><vdop>7.25</vdop><extensions><gom:speed>0.301</gom:speed></extensions></trkpt>
   <trkpt lat="59.0651029928" lon="30.0353966304"><ele>17.627</ele><time>2026-04-20T20:06:12.075Z</time><hdop>5.812</hdop><vdop>7.312</vdop><extensions><gom:speed>0.297</gom:speed></extensions></trkpt>
   <trkpt lat="59.0651003944" lon="30.0353858177"><ele>20.715</ele><time>2026-04-20T20:06:13.075Z</time><hdop>5.75</hdop><vdop>6.562</vdop><extensions><gom:speed>0.312</gom:speed></extensions></trkpt>
   <trkpt lat="59.0650971674" lon="30.0353804533"><ele>22.561</ele><time>2026-04-20T20:06:14.103Z</time><hdop>5.687</hdop><vdop>6.562</vdop><extensions><gom:speed>0.298</gom:speed></extensions></trkpt>
   <trkpt lat="59.0650937727" lon="30.0353705626"><ele>23.131</ele><time>2026-04-20T20:06:14.941Z</time><hdop>5.625</hdop><vdop>6.25</vdop><extensions><gom:speed>0.329</gom:speed></extensions></trkpt>
   <trkpt lat="59.0650893722" lon="30.0353557267"><ele>22.994</ele><time>2026-04-20T20:06:15.916Z</time><hdop>5.437</hdop><vdop>5.875</vdop><extensions><gom:speed>0.356</gom:speed></extensions></trkpt>
   <trkpt lat="59.0650845945" lon="30.0353426509"><ele>23.808</ele><time>2026-04-20T20:06:16.717Z</time><hdop>5.25</hdop><vdop>5.562</vdop><extensions><gom:speed>0.417</gom:speed></extensions></trkpt>
   <trkpt lat="59.0650799845" lon="30.0353292399"><ele>23.73</ele><time>2026-04-20T20:06:17.475Z</time><hdop>5.062</hdop><vdop>5.375</vdop><extensions><gom:speed>0.452</gom:speed></extensions></trkpt>
   <trkpt lat="59.0650771765" lon="30.0353180919"><ele>23.447</ele><time>2026-04-20T20:06:18.076Z</time><hdop>5.0</hdop><vdop>5.312</vdop><extensions><gom:speed>0.482</gom:speed></extensions></trkpt>
   <trkpt lat="59.0650742848" lon="30.0353068602"><ele>23.278</ele><time>2026-04-20T20:06:19.055Z</time><hdop>4.812</hdop><vdop>5.312</vdop><extensions><gom:speed>0.478</gom:speed></extensions></trkpt>
   <trkpt lat="59.0650700938" lon="30.035296299"><ele>23.324</ele><time>2026-04-20T20:06:19.817Z</time><hdop>4.687</hdop><vdop>5.062</vdop><extensions><gom:speed>0.487</gom:speed></extensions></trkpt>
   <trkpt lat="59.0650642684" lon="30.0352889229"><ele>23.113</ele><time>2026-04-20T20:06:20.617Z</time><hdop>4.625</hdop><vdop>5.0</vdop><extensions><gom:speed>0.55</gom:speed></extensions></trkpt>
   <trkpt lat="59.0650612928" lon="30.0352845643"><ele>22.895</ele><time>2026-04-20T20:06:21.075Z</time><hdop>4.625</hdop><vdop>4.812</vdop><extensions><gom:speed>0.573</gom:speed></extensions></trkpt>
   <trkpt lat="59.0650516955" lon="30.0352819659"><ele>23.2</ele><time>2026-04-20T20:06:22.075Z</time><hdop>4.625</hdop><vdop>4.812</vdop><extensions><gom:speed>0.719</gom:speed></extensions></trkpt>
   <trkpt lat="59.0650427688" lon="30.0352757633"><ele>22.971</ele><time>2026-04-20T20:06:23.075Z</time><hdop>4.687</hdop><vdop>4.625</vdop><extensions><gom:speed>0.691</gom:speed></extensions></trkpt>
   <trkpt lat="59.0650416792" lon="30.0352709856"><ele>22.835</ele><time>2026-04-20T20:06:23.612Z</time><hdop>4.75</hdop><vdop>4.625</vdop><extensions><gom:speed>0.58</gom:speed></extensions></trkpt>
   <trkpt lat="59.0650406733" lon="30.0352586642"><ele>22.753</ele><time>2026-04-20T20:06:24.081Z</time><hdop>4.812</hdop><vdop>4.625</vdop><extensions><gom:speed>0.641</gom:speed></extensions></trkpt>
   <trkpt lat="59.0650445709" lon="30.0352502823"><ele>21.836</ele><time>2026-04-20T20:06:25.076Z</time><hdop>4.875</hdop><vdop>4.5</vdop><extensions><gom:speed>0.539</gom:speed></extensions></trkpt>
   <trkpt lat="59.0650454929" lon="30.0352443312"><ele>21.097</ele><time>2026-04-20T20:06:25.917Z</time><hdop>4.875</hdop><vdop>4.562</vdop><extensions><gom:speed>0.432</gom:speed></extensions></trkpt>
   <trkpt lat="59.0650450738" lon="30.0352402241"><ele>20.46</ele><time>2026-04-20T20:06:26.776Z</time><hdop>4.875</hdop><vdop>4.687</vdop><extensions><gom:speed>0.319</gom:speed></extensions></trkpt>
   <trkpt lat="59.0650458701" lon="30.0352385477"><ele>19.478</ele><time>2026-04-20T20:06:27.685Z</time><hdop>4.937</hdop><vdop>4.562</vdop><extensions><gom:speed>0.227</gom:speed></extensions></trkpt>
   <trkpt lat="59.0650466664" lon="30.0352382962"><ele>18.692</ele><time>2026-04-20T20:06:28.627Z</time><hdop>5.0</hdop><vdop>4.562</vdop><extensions><gom:speed>0.2</gom:speed></extensions></trkpt>
   <trkpt lat="59.0650464987" lon="30.0352370389"><ele>18.138</ele><time>2026-04-20T20:06:29.637Z</time><hdop>4.937</hdop><vdop>4.687</vdop><extensions><gom:speed>0.198</gom:speed></extensions></trkpt>
   <trkpt lat="59.065046373" lon="30.0352331833"><ele>17.569</ele><time>2026-04-20T20:06:30.820Z</time><hdop>4.937</hdop><vdop>4.687</vdop><extensions><gom:speed>0.195</gom:speed></extensions></trkpt>
   <trkpt lat="59.0650460797" lon="30.0352301658"><ele>16.662</ele><time>2026-04-20T20:06:31.662Z</time><hdop>5.0</hdop><vdop>4.5</vdop><extensions><gom:speed>0.224</gom:speed></extensions></trkpt>
   <trkpt lat="59.0650454929" lon="30.0352247175"><ele>15.728</ele><time>2026-04-20T20:06:32.322Z</time><hdop>4.937</hdop><vdop>4.312</vdop><extensions><gom:speed>0.272</gom:speed></extensions></trkpt>
   <trkpt lat="59.0650443614" lon="30.0352154974"><ele>14.308</ele><time>2026-04-20T20:06:33.075Z</time><hdop>4.937</hdop><vdop>4.187</vdop><extensions><gom:speed>0.392</gom:speed></extensions></trkpt>
   <trkpt lat="59.0650435651" lon="30.0352098816"><ele>13.459</ele><time>2026-04-20T20:06:33.558Z</time><hdop>4.937</hdop><vdop>4.187</vdop><extensions><gom:speed>0.417</gom:speed></extensions></trkpt>
   <trkpt lat="59.0650419725" lon="30.035203679"><ele>12.58</ele><time>2026-04-20T20:06:34.075Z</time><hdop>4.875</hdop><vdop>4.187</vdop><extensions><gom:speed>0.451</gom:speed></extensions></trkpt>
   <trkpt lat="59.0650380749" lon="30.0351912737"><ele>11.849</ele><time>2026-04-20T20:06:35.076Z</time><hdop>4.812</hdop><vdop>4.187</vdop><extensions><gom:speed>0.556</gom:speed></extensions></trkpt>
   <trkpt lat="59.065036189" lon="30.0351852388"><ele>11.412</ele><time>2026-04-20T20:06:35.931Z</time><hdop>4.812</hdop><vdop>4.187</vdop><extensions><gom:speed>0.577</gom:speed></extensions></trkpt>
   <trkpt lat="59.0650312856" lon="30.0351657928"><ele>10.882</ele><time>2026-04-20T20:06:36.942Z</time><hdop>4.687</hdop><vdop>4.187</vdop><extensions><gom:speed>0.633</gom:speed></extensions></trkpt>
   <trkpt lat="59.0650321657" lon="30.035153639"><ele>10.354</ele><time>2026-04-20T20:06:37.682Z</time><hdop>4.625</hdop><vdop>4.062</vdop><extensions><gom:speed>0.75</gom:speed></extensions></trkpt>
   <trkpt lat="59.0650333811" lon="30.0351446704"><ele>9.779</ele><time>2026-04-20T20:06:38.336Z</time><hdop>4.625</hdop><vdop>4.0</vdop><extensions><gom:speed>0.768</gom:speed></extensions></trkpt>
   <trkpt lat="59.0650346803" lon="30.0351352826"><ele>9.038</ele><time>2026-04-20T20:06:39.075Z</time><hdop>4.625</hdop><vdop>3.937</vdop><extensions><gom:speed>0.783</gom:speed></extensions></trkpt>
   <trkpt lat="59.0650355604" lon="30.035123548"><ele>8.421</ele><time>2026-04-20T20:06:40.075Z</time><hdop>4.625</hdop><vdop>3.812</vdop><extensions><gom:speed>0.764</gom:speed></extensions></trkpt>
   <trkpt lat="59.0650363986" lon="30.035110556"><ele>8.052</ele><time>2026-04-20T20:06:41.020Z</time><hdop>4.625</hdop><vdop>3.812</vdop><extensions><gom:speed>0.778</gom:speed></extensions></trkpt>
   <trkpt lat="59.0650378654" lon="30.0350990728"><ele>7.454</ele><time>2026-04-20T20:06:41.739Z</time><hdop>4.687</hdop><vdop>3.75</vdop><extensions><gom:speed>0.829</gom:speed></extensions></trkpt>
   <trkpt lat="59.0650409667" lon="30.0350819737"><ele>6.947</ele><time>2026-04-20T20:06:42.677Z</time><hdop>4.687</hdop><vdop>3.687</vdop><extensions><gom:speed>0.778</gom:speed></extensions></trkpt>
   <trkpt lat="59.0650392903" lon="30.0350774475"><ele>6.52</ele><time>2026-04-20T20:06:43.515Z</time><hdop>4.625</hdop><vdop>3.687</vdop><extensions><gom:speed>0.673</gom:speed></extensions></trkpt>
   <trkpt lat="59.0650369853" lon="30.0350754358"><ele>6.389</ele><time>2026-04-20T20:06:44.075Z</time><hdop>4.625</hdop><vdop>3.75</vdop><extensions><gom:speed>0.676</gom:speed></extensions></trkpt>
   <trkpt lat="59.0650301959" lon="30.0350747653"><ele>6.507</ele><time>2026-04-20T20:06:45.075Z</time><hdop>4.625</hdop><vdop>3.875</vdop><extensions><gom:speed>0.693</gom:speed></extensions></trkpt>
   <trkpt lat="59.065024161" lon="30.0350756873"><ele>6.578</ele><time>2026-04-20T20:06:46.062Z</time><hdop>4.625</hdop><vdop>3.875</vdop><extensions><gom:speed>0.594</gom:speed></extensions></trkpt>
   <trkpt lat="59.0650191737" lon="30.0350778666"><ele>6.519</ele><time>2026-04-20T20:06:46.942Z</time><hdop>4.562</hdop><vdop>4.0</vdop><extensions><gom:speed>0.57</gom:speed></extensions></trkpt>
   <trkpt lat="59.0650141865" lon="30.035078118"><ele>6.329</ele><time>2026-04-20T20:06:47.661Z</time><hdop>4.562</hdop><vdop>4.125</vdop><extensions><gom:speed>0.631</gom:speed></extensions></trkpt>
   <trkpt lat="59.0650095765" lon="30.0350775313"><ele>6.069</ele><time>2026-04-20T20:06:48.214Z</time><hdop>4.5</hdop><vdop>4.25</vdop><extensions><gom:speed>0.643</gom:speed></extensions></trkpt>
   <trkpt lat="59.0650011946" lon="30.0350724184"><ele>5.914</ele><time>2026-04-20T20:06:49.083Z</time><hdop>4.5</hdop><vdop>4.25</vdop><extensions><gom:speed>0.736</gom:speed></extensions></trkpt>
   <trkpt lat="59.0649951596" lon="30.0350699876"><ele>5.655</ele><time>2026-04-20T20:06:49.695Z</time><hdop>4.5</hdop><vdop>4.125</vdop><extensions><gom:speed>0.841</gom:speed></extensions></trkpt>
   <trkpt lat="59.0649852689" lon="30.0350678921"><ele>5.507</ele><time>2026-04-20T20:06:50.644Z</time><hdop>4.5</hdop><vdop>4.0</vdop><extensions><gom:speed>0.864</gom:speed></extensions></trkpt>
   <trkpt lat="59.0649782701" lon="30.0350691494"><ele>5.484</ele><time>2026-04-20T20:06:51.254Z</time><hdop>4.5</hdop><vdop>4.125</vdop><extensions><gom:speed>0.875</gom:speed></extensions></trkpt>
   <trkpt lat="59.0649717741" lon="30.0350717478"><ele>5.47</ele><time>2026-04-20T20:06:51.958Z</time><hdop>4.5</hdop><vdop>4.125</vdop><extensions><gom:speed>0.909</gom:speed></extensions></trkpt>
   <trkpt lat="59.0649645656" lon="30.0350767769"><ele>5.47</ele><time>2026-04-20T20:06:52.656Z</time><hdop>4.5</hdop><vdop>4.25</vdop><extensions><gom:speed>0.936</gom:speed></extensions></trkpt>
   <trkpt lat="59.0649564771" lon="30.0350800459"><ele>4.944</ele><time>2026-04-20T20:06:53.417Z</time><hdop>4.5</hdop><vdop>4.25</vdop><extensions><gom:speed>0.94</gom:speed></extensions></trkpt>
   <trkpt lat="59.0649493944" lon="30.0350812194"><ele>4.427</ele><time>2026-04-20T20:06:54.075Z</time><hdop>4.5</hdop><vdop>4.187</vdop><extensions><gom:speed>0.975</gom:speed></extensions></trkpt>
   <trkpt lat="59.0649469636" lon="30.0350812194"><ele>4.118</ele><time>2026-04-20T20:06:54.528Z</time><hdop>4.5</hdop><vdop>4.187</vdop><extensions><gom:speed>0.97</gom:speed></extensions></trkpt>
   <trkpt lat="59.064937073" lon="30.0350839854"><ele>3.985</ele><time>2026-04-20T20:06:55.075Z</time><hdop>4.562</hdop><vdop>4.187</vdop><extensions><gom:speed>0.962</gom:speed></extensions></trkpt>
   <trkpt lat="59.0649310799" lon="30.0350863323"><ele>3.906</ele><time>2026-04-20T20:06:55.716Z</time><hdop>4.562</hdop><vdop>4.187</vdop><extensions><gom:speed>0.944</gom:speed></extensions></trkpt>
   <trkpt lat="59.0649238715" lon="30.0350923673"><ele>3.897</ele><time>2026-04-20T20:06:56.458Z</time><hdop>4.562</hdop><vdop>4.062</vdop><extensions><gom:speed>0.959</gom:speed></extensions></trkpt>
   <trkpt lat="59.0649176689" lon="30.0350969773"><ele>4.006</ele><time>2026-04-20T20:06:57.075Z</time><hdop>4.562</hdop><vdop>4.125</vdop><extensions><gom:speed>0.961</gom:speed></extensions></trkpt>
   <trkpt lat="59.0649081973" lon="30.0351022579"><ele>3.652</ele><time>2026-04-20T20:06:58.075Z</time><hdop>4.625</hdop><vdop>3.937</vdop><extensions><gom:speed>0.932</gom:speed></extensions></trkpt>
   <trkpt lat="59.0649011985" lon="30.035104521"><ele>3.441</ele><time>2026-04-20T20:06:58.855Z</time><hdop>4.625</hdop><vdop>3.937</vdop><extensions><gom:speed>0.903</gom:speed></extensions></trkpt>
   <trkpt lat="59.0648929842" lon="30.0351052754"><ele>3.957</ele><time>2026-04-20T20:06:59.716Z</time><hdop>4.687</hdop><vdop>3.875</vdop><extensions><gom:speed>0.857</gom:speed></extensions></trkpt>
   <trkpt lat="59.064887075" lon="30.035104521"><ele>4.264</ele><time>2026-04-20T20:07:00.473Z</time><hdop>4.625</hdop><vdop>4.062</vdop><extensions><gom:speed>0.76</gom:speed></extensions></trkpt>
   <trkpt lat="59.0648809981" lon="30.0351046887"><ele>4.448</ele><time>2026-04-20T20:07:01.057Z</time><hdop>4.625</hdop><vdop>4.062</vdop><extensions><gom:speed>0.756</gom:speed></extensions></trkpt>
   <trkpt lat="59.064878274" lon="30.0351055269"><ele>4.513</ele><time>2026-04-20T20:07:01.836Z</time><hdop>4.625</hdop><vdop>4.25</vdop><extensions><gom:speed>0.672</gom:speed></extensions></trkpt>
   <trkpt lat="59.0648732867" lon="30.0351088796"><ele>4.469</ele><time>2026-04-20T20:07:02.775Z</time><hdop>4.625</hdop><vdop>4.312</vdop><extensions><gom:speed>0.628</gom:speed></extensions></trkpt>
   <trkpt lat="59.0648663717" lon="30.0351154175"><ele>4.33</ele><time>2026-04-20T20:07:04.076Z</time><hdop>4.562</hdop><vdop>4.875</vdop><extensions><gom:speed>0.576</gom:speed></extensions></trkpt>
   <trkpt lat="59.0648640666" lon="30.0351153337"><ele>4.247</ele><time>2026-04-20T20:07:04.561Z</time><hdop>4.562</hdop><vdop>4.875</vdop><extensions><gom:speed>0.535</gom:speed></extensions></trkpt>
   <trkpt lat="59.0648607977" lon="30.0351136573"><ele>4.458</ele><time>2026-04-20T20:07:05.075Z</time><hdop>4.5</hdop><vdop>5.0</vdop><extensions><gom:speed>0.54</gom:speed></extensions></trkpt>
   <trkpt lat="59.0648551818" lon="30.0351118971"><ele>4.585</ele><time>2026-04-20T20:07:05.982Z</time><hdop>4.562</hdop><vdop>5.0</vdop><extensions><gom:speed>0.563</gom:speed></extensions></trkpt>
   <trkpt lat="59.0648487697" lon="30.0351102207"><ele>4.852</ele><time>2026-04-20T20:07:06.704Z</time><hdop>4.5</hdop><vdop>5.312</vdop><extensions><gom:speed>0.673</gom:speed></extensions></trkpt>
   <trkpt lat="59.0648400944" lon="30.0351084605"><ele>5.503</ele><time>2026-04-20T20:07:07.408Z</time><hdop>4.5</hdop><vdop>5.5</vdop><extensions><gom:speed>0.761</gom:speed></extensions></trkpt>
   <trkpt lat="59.0648358615" lon="30.03510779"><ele>5.892</ele><time>2026-04-20T20:07:07.956Z</time><hdop>4.562</hdop><vdop>5.5</vdop><extensions><gom:speed>0.772</gom:speed></extensions></trkpt>
   <trkpt lat="59.0648268929" lon="30.0351039343"><ele>6.172</ele><time>2026-04-20T20:07:08.757Z</time><hdop>4.625</hdop><vdop>5.437</vdop><extensions><gom:speed>0.899</gom:speed></extensions></trkpt>
   <trkpt lat="59.064817589" lon="30.0350977317"><ele>5.792</ele><time>2026-04-20T20:07:09.516Z</time><hdop>4.687</hdop><vdop>5.187</vdop><extensions><gom:speed>0.94</gom:speed></extensions></trkpt>
   <trkpt lat="59.0648109673" lon="30.0350922835"><ele>5.737</ele><time>2026-04-20T20:07:10.076Z</time><hdop>4.687</hdop><vdop>5.125</vdop><extensions><gom:speed>0.941</gom:speed></extensions></trkpt>
   <trkpt lat="59.0648026692" lon="30.0350867514"><ele>5.704</ele><time>2026-04-20T20:07:10.878Z</time><hdop>4.812</hdop><vdop>5.125</vdop><extensions><gom:speed>0.971</gom:speed></extensions></trkpt>
   <trkpt lat="59.0647944968" lon="30.035080465"><ele>5.351</ele><time>2026-04-20T20:07:11.639Z</time><hdop>4.875</hdop><vdop>5.0</vdop><extensions><gom:speed>0.931</gom:speed></extensions></trkpt>
   <trkpt lat="59.0647872884" lon="30.0350770284"><ele>5.403</ele><time>2026-04-20T20:07:12.418Z</time><hdop>4.937</hdop><vdop>5.0</vdop><extensions><gom:speed>0.892</gom:speed></extensions></trkpt>
   <trkpt lat="59.0647816725" lon="30.0350763578"><ele>5.53</ele><time>2026-04-20T20:07:13.075Z</time><hdop>4.875</hdop><vdop>5.187</vdop><extensions><gom:speed>0.878</gom:speed></extensions></trkpt>
   <trkpt lat="59.0647724943" lon="30.0350763578"><ele>5.447</ele><time>2026-04-20T20:07:14.076Z</time><hdop>4.812</hdop><vdop>5.125</vdop><extensions><gom:speed>0.829</gom:speed></extensions></trkpt>
   <trkpt lat="59.0647652859" lon="30.0350752682"><ele>5.398</ele><time>2026-04-20T20:07:15.015Z</time><hdop>4.75</hdop><vdop>5.125</vdop><extensions><gom:speed>0.802</gom:speed></extensions></trkpt>
   <trkpt lat="59.0647584966" lon="30.0350705743"><ele>5.512</ele><time>2026-04-20T20:07:15.943Z</time><hdop>4.687</hdop><vdop>5.0</vdop><extensions><gom:speed>0.768</gom:speed></extensions></trkpt>
   <trkpt lat="59.0647519587" lon="30.0350669701"><ele>5.943</ele><time>2026-04-20T20:07:17.075Z</time><hdop>4.562</hdop><vdop>4.937</vdop><extensions><gom:speed>0.646</gom:speed></extensions></trkpt>
   <trkpt lat="59.0647478934" lon="30.035065629"><ele>5.899</ele><time>2026-04-20T20:07:18.076Z</time><hdop>4.437</hdop><vdop>4.812</vdop><extensions><gom:speed>0.533</gom:speed></extensions></trkpt>
   <trkpt lat="59.0647437863" lon="30.035062863"><ele>5.873</ele><time>2026-04-20T20:07:19.023Z</time><hdop>4.437</hdop><vdop>4.812</vdop><extensions><gom:speed>0.531</gom:speed></extensions></trkpt>
   <trkpt lat="59.0647376675" lon="30.0350584206"><ele>5.881</ele><time>2026-04-20T20:07:19.939Z</time><hdop>4.375</hdop><vdop>4.687</vdop><extensions><gom:speed>0.507</gom:speed></extensions></trkpt>
   <trkpt lat="59.0647336861" lon="30.0350547325"><ele>5.845</ele><time>2026-04-20T20:07:20.838Z</time><hdop>4.312</hdop><vdop>4.937</vdop><extensions><gom:speed>0.471</gom:speed></extensions></trkpt>
   <trkpt lat="59.0647297885" lon="30.0350506254"><ele>6.048</ele><time>2026-04-20T20:07:21.638Z</time><hdop>4.25</hdop><vdop>4.937</vdop><extensions><gom:speed>0.459</gom:speed></extensions></trkpt>
   <trkpt lat="59.0647270644" lon="30.0350468535"><ele>6.124</ele><time>2026-04-20T20:07:22.418Z</time><hdop>4.312</hdop><vdop>4.812</vdop><extensions><gom:speed>0.472</gom:speed></extensions></trkpt>
   <trkpt lat="59.0647238793" lon="30.035041992"><ele>6.103</ele><time>2026-04-20T20:07:23.076Z</time><hdop>4.312</hdop><vdop>4.5</vdop><extensions><gom:speed>0.5</gom:speed></extensions></trkpt>
   <trkpt lat="59.0647176767" lon="30.035035538"><ele>6.282</ele><time>2026-04-20T20:07:24.075Z</time><hdop>4.312</hdop><vdop>4.375</vdop><extensions><gom:speed>0.519</gom:speed></extensions></trkpt>
   <trkpt lat="59.0647115998" lon="30.0350326881"><ele>6.389</ele><time>2026-04-20T20:07:24.935Z</time><hdop>4.375</hdop><vdop>4.375</vdop><extensions><gom:speed>0.598</gom:speed></extensions></trkpt>
   <trkpt lat="59.0647088757" lon="30.0350303412"><ele>6.34</ele><time>2026-04-20T20:07:25.444Z</time><hdop>4.375</hdop><vdop>4.062</vdop><extensions><gom:speed>0.592</gom:speed></extensions></trkpt>
   <trkpt lat="59.0647023797" lon="30.0350249768"><ele>6.438</ele><time>2026-04-20T20:07:26.075Z</time><hdop>4.437</hdop><vdop>3.937</vdop><extensions><gom:speed>0.589</gom:speed></extensions></trkpt>
   <trkpt lat="59.0646987755" lon="30.0350194447"><ele>6.498</ele><time>2026-04-20T20:07:26.880Z</time><hdop>4.5</hdop><vdop>3.937</vdop><extensions><gom:speed>0.599</gom:speed></extensions></trkpt>
   <trkpt lat="59.064694375" lon="30.0350094703"><ele>6.625</ele><time>2026-04-20T20:07:27.660Z</time><hdop>4.5</hdop><vdop>3.75</vdop><extensions><gom:speed>0.652</gom:speed></extensions></trkpt>
   <trkpt lat="59.0646880886" lon="30.0349979871"><ele>6.72</ele><time>2026-04-20T20:07:28.579Z</time><hdop>4.5</hdop><vdop>3.937</vdop><extensions><gom:speed>0.706</gom:speed></extensions></trkpt>
   <trkpt lat="59.0646845682" lon="30.0349925388"><ele>6.588</ele><time>2026-04-20T20:07:29.075Z</time><hdop>4.5</hdop><vdop>4.062</vdop><extensions><gom:speed>0.702</gom:speed></extensions></trkpt>
   <trkpt lat="59.0646779884" lon="30.0349865877"><ele>6.51</ele><time>2026-04-20T20:07:30.020Z</time><hdop>4.562</hdop><vdop>4.062</vdop><extensions><gom:speed>0.695</gom:speed></extensions></trkpt>
   <trkpt lat="59.0646720791" lon="30.0349844922"><ele>6.362</ele><time>2026-04-20T20:07:30.640Z</time><hdop>4.625</hdop><vdop>4.125</vdop><extensions><gom:speed>0.798</gom:speed></extensions></trkpt>
   <trkpt lat="59.0646654993" lon="30.0349831511"><ele>6.155</ele><time>2026-04-20T20:07:31.384Z</time><hdop>4.687</hdop><vdop>4.062</vdop><extensions><gom:speed>0.801</gom:speed></extensions></trkpt>
   <trkpt lat="59.0646567822" lon="30.034983654"><ele>6.031</ele><time>2026-04-20T20:07:32.044Z</time><hdop>4.75</hdop><vdop>4.062</vdop><extensions><gom:speed>0.832</gom:speed></extensions></trkpt>
   <trkpt lat="59.0646515854" lon="30.0349828996"><ele>5.945</ele><time>2026-04-20T20:07:32.922Z</time><hdop>4.875</hdop><vdop>4.0</vdop><extensions><gom:speed>0.823</gom:speed></extensions></trkpt>
   <trkpt lat="59.0646453828" lon="30.0349822291"><ele>5.983</ele><time>2026-04-20T20:07:33.721Z</time><hdop>4.937</hdop><vdop>4.0</vdop><extensions><gom:speed>0.803</gom:speed></extensions></trkpt>
   <trkpt lat="59.0646384677" lon="30.0349821453"><ele>5.326</ele><time>2026-04-20T20:07:34.638Z</time><hdop>5.0</hdop><vdop>4.062</vdop><extensions><gom:speed>0.785</gom:speed></extensions></trkpt>
   <trkpt lat="59.0646318879" lon="30.0349789601"><ele>5.214</ele><time>2026-04-20T20:07:35.556Z</time><hdop>5.0</hdop><vdop>4.125</vdop><extensions><gom:speed>0.763</gom:speed></extensions></trkpt>
   <trkpt lat="59.0646282837" lon="30.0349759426"><ele>4.897</ele><time>2026-04-20T20:07:36.075Z</time><hdop>5.0</hdop><vdop>4.125</vdop><extensions><gom:speed>0.766</gom:speed></extensions></trkpt>
   <trkpt lat="59.0646214943" lon="30.0349726737"><ele>4.701</ele><time>2026-04-20T20:07:37.076Z</time><hdop>4.937</hdop><vdop>4.187</vdop><extensions><gom:speed>0.714</gom:speed></extensions></trkpt>
   <trkpt lat="59.0646180997" lon="30.0349725899"><ele>4.583</ele><time>2026-04-20T20:07:37.881Z</time><hdop>5.0</hdop><vdop>4.187</vdop><extensions><gom:speed>0.724</gom:speed></extensions></trkpt>
   <trkpt lat="59.0646074966" lon="30.034972087"><ele>4.545</ele><time>2026-04-20T20:07:38.794Z</time><hdop>5.0</hdop><vdop>4.375</vdop><extensions><gom:speed>0.756</gom:speed></extensions></trkpt>
   <trkpt lat="59.0645997852" lon="30.0349679798"><ele>4.786</ele><time>2026-04-20T20:07:39.513Z</time><hdop>5.0</hdop><vdop>4.5</vdop><extensions><gom:speed>0.834</gom:speed></extensions></trkpt>
   <trkpt lat="59.0645936664" lon="30.0349657167"><ele>4.873</ele><time>2026-04-20T20:07:40.075Z</time><hdop>5.0</hdop><vdop>4.437</vdop><extensions><gom:speed>0.849</gom:speed></extensions></trkpt>
   <trkpt lat="59.0645855779" lon="30.0349625316"><ele>4.925</ele><time>2026-04-20T20:07:40.917Z</time><hdop>5.062</hdop><vdop>4.437</vdop><extensions><gom:speed>0.888</gom:speed></extensions></trkpt>
   <trkpt lat="59.0645778665" lon="30.0349597656"><ele>5.05</ele><time>2026-04-20T20:07:41.598Z</time><hdop>5.062</hdop><vdop>4.437</vdop><extensions><gom:speed>0.9</gom:speed></extensions></trkpt>
   <trkpt lat="59.0645721668" lon="30.0349579216"><ele>5.045</ele><time>2026-04-20T20:07:42.075Z</time><hdop>5.062</hdop><vdop>4.562</vdop><extensions><gom:speed>0.913</gom:speed></extensions></trkpt>
   <trkpt lat="59.0645631982" lon="30.0349573348"><ele>5.043</ele><time>2026-04-20T20:07:42.918Z</time><hdop>5.062</hdop><vdop>4.562</vdop><extensions><gom:speed>0.937</gom:speed></extensions></trkpt>
   <trkpt lat="59.0645555707" lon="30.0349576701"><ele>5.136</ele><time>2026-04-20T20:07:43.522Z</time><hdop>5.0</hdop><vdop>4.562</vdop><extensions><gom:speed>0.989</gom:speed></extensions></trkpt>
   <trkpt lat="59.0645488652" lon="30.0349592627"><ele>4.718</ele><time>2026-04-20T20:07:44.075Z</time><hdop>5.0</hdop><vdop>4.25</vdop><extensions><gom:speed>0.996</gom:speed></extensions></trkpt>
   <trkpt lat="59.0645389745" lon="30.034961442"><ele>4.468</ele><time>2026-04-20T20:07:45.023Z</time><hdop>5.0</hdop><vdop>4.25</vdop><extensions><gom:speed>0.969</gom:speed></extensions></trkpt>
   <trkpt lat="59.0645307602" lon="30.0349571672"><ele>4.458</ele><time>2026-04-20T20:07:45.783Z</time><hdop>4.937</hdop><vdop>4.187</vdop><extensions><gom:speed>0.915</gom:speed></extensions></trkpt>
   <trkpt lat="59.0645229651" lon="30.0349511322"><ele>4.197</ele><time>2026-04-20T20:07:46.603Z</time><hdop>4.875</hdop><vdop>4.0</vdop><extensions><gom:speed>0.846</gom:speed></extensions></trkpt>
   <trkpt lat="59.0645190675" lon="30.0349465222"><ele>4.015</ele><time>2026-04-20T20:07:47.075Z</time><hdop>4.875</hdop><vdop>3.875</vdop><extensions><gom:speed>0.835</gom:speed></extensions></trkpt>
   <trkpt lat="59.0645127811" lon="30.0349381403"><ele>3.834</ele><time>2026-04-20T20:07:48.075Z</time><hdop>4.812</hdop><vdop>3.875</vdop><extensions><gom:speed>0.74</gom:speed></extensions></trkpt>
   <trkpt lat="59.0645073747" lon="30.034932692"><ele>3.803</ele><time>2026-04-20T20:07:49.075Z</time><hdop>4.75</hdop><vdop>4.0</vdop><extensions><gom:speed>0.629</gom:speed></extensions></trkpt>
   <trkpt lat="59.064503561" lon="30.0349301775"><ele>3.785</ele><time>2026-04-20T20:07:49.998Z</time><hdop>4.687</hdop><vdop>4.0</vdop><extensions><gom:speed>0.532</gom:speed></extensions></trkpt>
   <trkpt lat="59.0644976936" lon="30.0349305966"><ele>3.762</ele><time>2026-04-20T20:07:50.857Z</time><hdop>4.625</hdop><vdop>4.0</vdop><extensions><gom:speed>0.536</gom:speed></extensions></trkpt>
   <trkpt lat="59.0644930836" lon="30.0349351228"><ele>3.605</ele><time>2026-04-20T20:07:51.617Z</time><hdop>4.625</hdop><vdop>3.812</vdop><extensions><gom:speed>0.617</gom:speed></extensions></trkpt>
   <trkpt lat="59.0644894794" lon="30.0349382241"><ele>3.629</ele><time>2026-04-20T20:07:52.075Z</time><hdop>4.625</hdop><vdop>3.75</vdop><extensions><gom:speed>0.636</gom:speed></extensions></trkpt>
   <trkpt lat="59.0644806784" lon="30.034941493"><ele>3.73</ele><time>2026-04-20T20:07:53.075Z</time><hdop>4.562</hdop><vdop>3.5</vdop><extensions><gom:speed>0.704</gom:speed></extensions></trkpt>
   <trkpt lat="59.0644731766" lon="30.0349413254"><ele>3.791</ele><time>2026-04-20T20:07:53.837Z</time><hdop>4.562</hdop><vdop>3.5</vdop><extensions><gom:speed>0.785</gom:speed></extensions></trkpt>
   <trkpt lat="59.0644644594" lon="30.0349410739"><ele>3.953</ele><time>2026-04-20T20:07:54.578Z</time><hdop>4.625</hdop><vdop>3.437</vdop><extensions><gom:speed>0.866</gom:speed></extensions></trkpt>
   <trkpt lat="59.0644591788" lon="30.0349402357"><ele>3.901</ele><time>2026-04-20T20:07:55.075Z</time><hdop>4.625</hdop><vdop>3.312</vdop><extensions><gom:speed>0.855</gom:speed></extensions></trkpt>
   <trkpt lat="59.0644494977" lon="30.0349397328"><ele>4.195</ele><time>2026-04-20T20:07:56.075Z</time><hdop>4.625</hdop><vdop>3.312</vdop><extensions><gom:speed>0.875</gom:speed></extensions></trkpt>
   <trkpt lat="59.0644384755" lon="30.0349416607"><ele>4.371</ele><time>2026-04-20T20:07:57.015Z</time><hdop>4.625</hdop><vdop>3.312</vdop><extensions><gom:speed>0.889</gom:speed></extensions></trkpt>
   <trkpt lat="59.0644330692" lon="30.0349404872"><ele>4.143</ele><time>2026-04-20T20:07:57.678Z</time><hdop>4.687</hdop><vdop>3.125</vdop><extensions><gom:speed>0.927</gom:speed></extensions></trkpt>
   <trkpt lat="59.0644239748" lon="30.034935961"><ele>4.15</ele><time>2026-04-20T20:07:58.634Z</time><hdop>4.75</hdop><vdop>3.0</vdop><extensions><gom:speed>0.873</gom:speed></extensions></trkpt>
   <trkpt lat="59.0644176884" lon="30.0349331949"><ele>4.184</ele><time>2026-04-20T20:07:59.337Z</time><hdop>4.75</hdop><vdop>2.812</vdop><extensions><gom:speed>0.846</gom:speed></extensions></trkpt>
   <trkpt lat="59.0644123659" lon="30.0349346199"><ele>4.205</ele><time>2026-04-20T20:08:00.017Z</time><hdop>4.75</hdop><vdop>2.812</vdop><extensions><gom:speed>0.79</gom:speed></extensions></trkpt>
   <trkpt lat="59.0644061633" lon="30.0349342846"><ele>4.272</ele><time>2026-04-20T20:08:00.817Z</time><hdop>4.812</hdop><vdop>2.75</vdop><extensions><gom:speed>0.765</gom:speed></extensions></trkpt>
   <trkpt lat="59.0644010922" lon="30.0349315186"><ele>4.378</ele><time>2026-04-20T20:08:01.477Z</time><hdop>4.812</hdop><vdop>2.75</vdop><extensions><gom:speed>0.76</gom:speed></extensions></trkpt>
   <trkpt lat="59.0643966917" lon="30.0349276629"><ele>4.197</ele><time>2026-04-20T20:08:02.075Z</time><hdop>4.75</hdop><vdop>2.687</vdop><extensions><gom:speed>0.746</gom:speed></extensions></trkpt>
   <trkpt lat="59.0643892737" lon="30.034919281"><ele>3.876</ele><time>2026-04-20T20:08:03.075Z</time><hdop>4.75</hdop><vdop>2.687</vdop><extensions><gom:speed>0.661</gom:speed></extensions></trkpt>
   <trkpt lat="59.0643853761" lon="30.0349180237"><ele>3.685</ele><time>2026-04-20T20:08:03.859Z</time><hdop>4.75</hdop><vdop>2.687</vdop><extensions><gom:speed>0.666</gom:speed></extensions></trkpt>
   <trkpt lat="59.0643810595" lon="30.0349175208"><ele>3.405</ele><time>2026-04-20T20:08:04.597Z</time><hdop>4.75</hdop><vdop>2.75</vdop><extensions><gom:speed>0.665</gom:speed></extensions></trkpt>
   <trkpt lat="59.0643780839" lon="30.0349184428"><ele>3.216</ele><time>2026-04-20T20:08:05.075Z</time><hdop>4.687</hdop><vdop>2.75</vdop><extensions><gom:speed>0.68</gom:speed></extensions></trkpt>
   <trkpt lat="59.0643715879" lon="30.0349237234"><ele>3.103</ele><time>2026-04-20T20:08:06.037Z</time><hdop>4.687</hdop><vdop>2.75</vdop><extensions><gom:speed>0.704</gom:speed></extensions></trkpt>
   <trkpt lat="59.0643652596" lon="30.0349304289"><ele>2.674</ele><time>2026-04-20T20:08:06.837Z</time><hdop>4.75</hdop><vdop>2.687</vdop><extensions><gom:speed>0.749</gom:speed></extensions></trkpt>
   <trkpt lat="59.0643605657" lon="30.0349390623"><ele>2.363</ele><time>2026-04-20T20:08:07.597Z</time><hdop>4.75</hdop><vdop>2.687</vdop><extensions><gom:speed>0.781</gom:speed></extensions></trkpt>
   <trkpt lat="59.0643570872" lon="30.0349434209"><ele>2.612</ele><time>2026-04-20T20:08:08.076Z</time><hdop>4.75</hdop><vdop>2.75</vdop><extensions><gom:speed>0.794</gom:speed></extensions></trkpt>
   <trkpt lat="59.0643526867" lon="30.0349457678"><ele>2.761</ele><time>2026-04-20T20:08:08.798Z</time><hdop>4.75</hdop><vdop>2.75</vdop><extensions><gom:speed>0.793</gom:speed></extensions></trkpt>
   <trkpt lat="59.064340994" lon="30.0349389785"><ele>2.626</ele><time>2026-04-20T20:08:09.978Z</time><hdop>4.75</hdop><vdop>2.812</vdop><extensions><gom:speed>0.782</gom:speed></extensions></trkpt>
   <trkpt lat="59.0643350847" lon="30.0349294231"><ele>2.835</ele><time>2026-04-20T20:08:10.834Z</time><hdop>4.75</hdop><vdop>2.75</vdop><extensions><gom:speed>0.791</gom:speed></extensions></trkpt>
   <trkpt lat="59.0643271638" lon="30.0349231367"><ele>2.91</ele><time>2026-04-20T20:08:11.655Z</time><hdop>4.75</hdop><vdop>2.812</vdop><extensions><gom:speed>0.825</gom:speed></extensions></trkpt>
   <trkpt lat="59.0643198716" lon="30.0349196163"><ele>2.816</ele><time>2026-04-20T20:08:12.336Z</time><hdop>4.75</hdop><vdop>2.687</vdop><extensions><gom:speed>0.836</gom:speed></extensions></trkpt>
   <trkpt lat="59.0643129984" lon="30.0349162635"><ele>2.811</ele><time>2026-04-20T20:08:13.075Z</time><hdop>4.75</hdop><vdop>2.625</vdop><extensions><gom:speed>0.828</gom:speed></extensions></trkpt>
   <trkpt lat="59.0643053709" lon="30.0349119887"><ele>2.809</ele><time>2026-04-20T20:08:13.895Z</time><hdop>4.75</hdop><vdop>2.625</vdop><extensions><gom:speed>0.868</gom:speed></extensions></trkpt>
   <trkpt lat="59.0642974919" lon="30.0349050317"><ele>2.657</ele><time>2026-04-20T20:08:14.655Z</time><hdop>4.75</hdop><vdop>2.687</vdop><extensions><gom:speed>0.863</gom:speed></extensions></trkpt>
   <trkpt lat="59.0642901996" lon="30.0348942191"><ele>2.642</ele><time>2026-04-20T20:08:15.299Z</time><hdop>4.75</hdop><vdop>2.687</vdop><extensions><gom:speed>0.873</gom:speed></extensions></trkpt>
   <trkpt lat="59.0642854639" lon="30.0348854181"><ele>2.634</ele><time>2026-04-20T20:08:16.058Z</time><hdop>4.75</hdop><vdop>2.687</vdop><extensions><gom:speed>0.896</gom:speed></extensions></trkpt>
   <trkpt lat="59.0642800994" lon="30.0348733482"><ele>2.65</ele><time>2026-04-20T20:08:16.817Z</time><hdop>4.687</hdop><vdop>2.687</vdop><extensions><gom:speed>0.914</gom:speed></extensions></trkpt>
   <trkpt lat="59.0642756989" lon="30.0348594342"><ele>2.63</ele><time>2026-04-20T20:08:17.557Z</time><hdop>4.687</hdop><vdop>2.687</vdop><extensions><gom:speed>0.926</gom:speed></extensions></trkpt>
   <trkpt lat="59.0642725976" lon="30.0348494597"><ele>2.468</ele><time>2026-04-20T20:08:18.075Z</time><hdop>4.625</hdop><vdop>2.75</vdop><extensions><gom:speed>0.932</gom:speed></extensions></trkpt>
   <trkpt lat="59.0642646767" lon="30.0348403235"><ele>2.372</ele><time>2026-04-20T20:08:19.098Z</time><hdop>4.625</hdop><vdop>2.75</vdop><extensions><gom:speed>0.878</gom:speed></extensions></trkpt>
   <trkpt lat="59.0642570911" lon="30.0348431733"><ele>2.245</ele><time>2026-04-20T20:08:19.937Z</time><hdop>4.625</hdop><vdop>2.75</vdop><extensions><gom:speed>0.879</gom:speed></extensions></trkpt>
   <trkpt lat="59.0642507628" lon="30.0348484539"><ele>2.005</ele><time>2026-04-20T20:08:20.775Z</time><hdop>4.562</hdop><vdop>2.625</vdop><extensions><gom:speed>0.824</gom:speed></extensions></trkpt>
   <trkpt lat="59.0642443925" lon="30.0348569196"><ele>1.849</ele><time>2026-04-20T20:08:21.495Z</time><hdop>4.5</hdop><vdop>2.625</vdop><extensions><gom:speed>0.837</gom:speed></extensions></trkpt>
   <trkpt lat="59.064241878" lon="30.0348596857"><ele>1.721</ele><time>2026-04-20T20:08:22.075Z</time><hdop>4.5</hdop><vdop>2.625</vdop><extensions><gom:speed>0.81</gom:speed></extensions></trkpt>
   <trkpt lat="59.0642362621" lon="30.0348690734"><ele>1.645</ele><time>2026-04-20T20:08:23.094Z</time><hdop>4.5</hdop><vdop>2.625</vdop><extensions><gom:speed>0.831</gom:speed></extensions></trkpt>
   <trkpt lat="59.0642315682" lon="30.0348767847"><ele>1.421</ele><time>2026-04-20T20:08:23.915Z</time><hdop>4.5</hdop><vdop>2.625</vdop><extensions><gom:speed>0.832</gom:speed></extensions></trkpt>
   <trkpt lat="59.0642271677" lon="30.0348843284"><ele>1.085</ele><time>2026-04-20T20:08:24.673Z</time><hdop>4.437</hdop><vdop>2.75</vdop><extensions><gom:speed>0.84</gom:speed></extensions></trkpt>
   <trkpt lat="59.0642222643" lon="30.0348941353"><ele>1.095</ele><time>2026-04-20T20:08:25.603Z</time><hdop>4.5</hdop><vdop>2.812</vdop><extensions><gom:speed>0.806</gom:speed></extensions></trkpt>
   <trkpt lat="59.0642197916" lon="30.0348968175"><ele>1.243</ele><time>2026-04-20T20:08:26.075Z</time><hdop>4.5</hdop><vdop>2.875</vdop><extensions><gom:speed>0.791</gom:speed></extensions></trkpt>
   <trkpt lat="59.0642133795" lon="30.0349018466"><ele>1.19</ele><time>2026-04-20T20:08:27.075Z</time><hdop>4.5</hdop><vdop>2.937</vdop><extensions><gom:speed>0.792</gom:speed></extensions></trkpt>
   <trkpt lat="59.0642065901" lon="30.0349042774"><ele>1.159</ele><time>2026-04-20T20:08:27.922Z</time><hdop>4.562</hdop><vdop>2.937</vdop><extensions><gom:speed>0.719</gom:speed></extensions></trkpt>
   <trkpt lat="59.0642040756" lon="30.0349051994"><ele>0.989</ele><time>2026-04-20T20:08:28.859Z</time><hdop>4.625</hdop><vdop>2.937</vdop><extensions><gom:speed>0.642</gom:speed></extensions></trkpt>
   <trkpt lat="59.0642006809" lon="30.0349066243"><ele>0.924</ele><time>2026-04-20T20:08:29.897Z</time><hdop>4.625</hdop><vdop>2.937</vdop><extensions><gom:speed>0.586</gom:speed></extensions></trkpt>
   <trkpt lat="59.0641971605" lon="30.0349046965"><ele>0.993</ele><time>2026-04-20T20:08:31.081Z</time><hdop>4.625</hdop><vdop>3.062</vdop><extensions><gom:speed>0.502</gom:speed></extensions></trkpt>
   <trkpt lat="59.0641946878" lon="30.0349049479"><ele>1.089</ele><time>2026-04-20T20:08:32.058Z</time><hdop>4.625</hdop><vdop>3.125</vdop><extensions><gom:speed>0.444</gom:speed></extensions></trkpt>
   <trkpt lat="59.0641923828" lon="30.0349059538"><ele>1.022</ele><time>2026-04-20T20:08:33.093Z</time><hdop>4.625</hdop><vdop>3.437</vdop><extensions><gom:speed>0.459</gom:speed></extensions></trkpt>
   <trkpt lat="59.0641873956" lon="30.0349037745"><ele>1.224</ele><time>2026-04-20T20:08:33.913Z</time><hdop>4.625</hdop><vdop>3.687</vdop><extensions><gom:speed>0.502</gom:speed></extensions></trkpt>
   <trkpt lat="59.064184881" lon="30.0349039421"><ele>1.101</ele><time>2026-04-20T20:08:34.744Z</time><hdop>4.625</hdop><vdop>4.062</vdop><extensions><gom:speed>0.494</gom:speed></extensions></trkpt>
   <trkpt lat="59.0641809834" lon="30.0349066243"><ele>1.645</ele><time>2026-04-20T20:08:36.042Z</time><hdop>4.625</hdop><vdop>4.437</vdop><extensions><gom:speed>0.41</gom:speed></extensions></trkpt>
   <trkpt lat="59.0641803967" lon="30.0349076301"><ele>1.864</ele><time>2026-04-20T20:08:37.076Z</time><hdop>4.625</hdop><vdop>4.75</vdop><extensions><gom:speed>0.296</gom:speed></extensions></trkpt>
   <trkpt lat="59.0641796842" lon="30.0349090551"><ele>1.995</ele><time>2026-04-20T20:08:37.764Z</time><hdop>4.625</hdop><vdop>4.75</vdop><extensions><gom:speed>0.294</gom:speed></extensions></trkpt>
   <trkpt lat="59.0641780917" lon="30.0349106476"><ele>2.3</ele><time>2026-04-20T20:08:38.582Z</time><hdop>4.625</hdop><vdop>5.062</vdop><extensions><gom:speed>0.273</gom:speed></extensions></trkpt>
   <trkpt lat="59.0641768763" lon="30.0349117373"><ele>2.732</ele><time>2026-04-20T20:08:39.075Z</time><hdop>4.625</hdop><vdop>5.062</vdop><extensions><gom:speed>0.283</gom:speed></extensions></trkpt>
   <trkpt lat="59.0641768763" lon="30.0349118211"><ele>2.99</ele><time>2026-04-20T20:08:39.714Z</time><hdop>4.625</hdop><vdop>5.062</vdop><extensions><gom:speed>0.248</gom:speed></extensions></trkpt>
   <trkpt lat="59.0641753676" lon="30.0349135813"><ele>3.346</ele><time>2026-04-20T20:08:40.863Z</time><hdop>4.75</hdop><vdop>5.312</vdop><extensions><gom:speed>0.179</gom:speed></extensions></trkpt>
   <trkpt lat="59.0641731883" lon="30.0349140842"><ele>3.385</ele><time>2026-04-20T20:08:41.937Z</time><hdop>4.75</hdop><vdop>5.312</vdop><extensions><gom:speed>0.192</gom:speed></extensions></trkpt>
   <trkpt lat="59.0641698774" lon="30.0349147548"><ele>3.437</ele><time>2026-04-20T20:08:43.075Z</time><hdop>4.75</hdop><vdop>5.75</vdop><extensions><gom:speed>0.201</gom:speed></extensions></trkpt>
   <trkpt lat="59.0641678657" lon="30.0349136651"><ele>3.841</ele><time>2026-04-20T20:08:43.979Z</time><hdop>4.75</hdop><vdop>5.562</vdop><extensions><gom:speed>0.176</gom:speed></extensions></trkpt>
   <trkpt lat="59.0641663989" lon="30.0349119887"><ele>4.372</ele><time>2026-04-20T20:08:45.075Z</time><hdop>4.75</hdop><vdop>5.312</vdop><extensions><gom:speed>0.149</gom:speed></extensions></trkpt>
   <trkpt lat="59.0641663989" lon="30.0349116535"><ele>4.662</ele><time>2026-04-20T20:08:45.992Z</time><hdop>4.75</hdop><vdop>5.437</vdop><extensions><gom:speed>0.111</gom:speed></extensions></trkpt>
   <trkpt lat="59.0641651835" lon="30.0349092227"><ele>5.061</ele><time>2026-04-20T20:08:47.075Z</time><hdop>4.875</hdop><vdop>5.437</vdop><extensions><gom:speed>0.126</gom:speed></extensions></trkpt>
   <trkpt lat="59.0641650997" lon="30.0349091389"><ele>5.468</ele><time>2026-04-20T20:08:48.005Z</time><hdop>4.875</hdop><vdop>5.437</vdop><extensions><gom:speed>0.097</gom:speed></extensions></trkpt>
   <trkpt lat="59.0641647644" lon="30.0349090551"><ele>5.711</ele><time>2026-04-20T20:08:49.036Z</time><hdop>5.0</hdop><vdop>5.437</vdop><extensions><gom:speed>0.089</gom:speed></extensions></trkpt>
   <trkpt lat="59.0641617889" lon="30.0349061214"><ele>6.523</ele><time>2026-04-20T20:08:49.854Z</time><hdop>5.0</hdop><vdop>5.125</vdop><extensions><gom:speed>0.137</gom:speed></extensions></trkpt>
   <trkpt lat="59.0641573884" lon="30.0349021819"><ele>7.455</ele><time>2026-04-20T20:08:50.695Z</time><hdop>4.937</hdop><vdop>4.875</vdop><extensions><gom:speed>0.2</gom:speed></extensions></trkpt>
   <trkpt lat="59.064152485" lon="30.0348972366"><ele>8.151</ele><time>2026-04-20T20:08:51.544Z</time><hdop>4.875</hdop><vdop>4.875</vdop><extensions><gom:speed>0.246</gom:speed></extensions></trkpt>
   <trkpt lat="59.0641493837" lon="30.0348926265"><ele>8.406</ele><time>2026-04-20T20:08:52.075Z</time><hdop>4.812</hdop><vdop>4.812</vdop><extensions><gom:speed>0.255</gom:speed></extensions></trkpt>
   <trkpt lat="59.0641465757" lon="30.0348883518"><ele>8.559</ele><time>2026-04-20T20:08:52.817Z</time><hdop>4.812</hdop><vdop>4.812</vdop><extensions><gom:speed>0.284</gom:speed></extensions></trkpt>
   <trkpt lat="59.0641406665" lon="30.0348820653"><ele>8.552</ele><time>2026-04-20T20:08:53.864Z</time><hdop>4.75</hdop><vdop>5.0</vdop><extensions><gom:speed>0.343</gom:speed></extensions></trkpt>
   <trkpt lat="59.0641366851" lon="30.0348781258"><ele>8.625</ele><time>2026-04-20T20:08:54.553Z</time><hdop>4.687</hdop><vdop>5.062</vdop><extensions><gom:speed>0.336</gom:speed></extensions></trkpt>
   <trkpt lat="59.0641334999" lon="30.0348746893"><ele>8.965</ele><time>2026-04-20T20:08:55.075Z</time><hdop>4.625</hdop><vdop>5.125</vdop><extensions><gom:speed>0.344</gom:speed></extensions></trkpt>
   <trkpt lat="59.0641312787" lon="30.0348728452"><ele>9.369</ele><time>2026-04-20T20:08:55.941Z</time><hdop>4.625</hdop><vdop>5.062</vdop><extensions><gom:speed>0.253</gom:speed></extensions></trkpt>
   <trkpt lat="59.0641290994" lon="30.0348714203"><ele>9.611</ele><time>2026-04-20T20:08:57.080Z</time><hdop>4.687</hdop><vdop>5.062</vdop><extensions><gom:speed>0.274</gom:speed></extensions></trkpt>
   <trkpt lat="59.0641253695" lon="30.0348668941"><ele>9.832</ele><time>2026-04-20T20:08:57.722Z</time><hdop>4.75</hdop><vdop>5.125</vdop><extensions><gom:speed>0.286</gom:speed></extensions></trkpt>
   <trkpt lat="59.0641211785" lon="30.0348609429"><ele>9.862</ele><time>2026-04-20T20:08:58.429Z</time><hdop>4.75</hdop><vdop>5.25</vdop><extensions><gom:speed>0.329</gom:speed></extensions></trkpt>
   <trkpt lat="59.0641173648" lon="30.0348571711"><ele>9.329</ele><time>2026-04-20T20:08:59.021Z</time><hdop>4.812</hdop><vdop>5.625</vdop><extensions><gom:speed>0.354</gom:speed></extensions></trkpt>
   <trkpt lat="59.0641159818" lon="30.0348568358"><ele>9.011</ele><time>2026-04-20T20:08:59.697Z</time><hdop>4.875</hdop><vdop>5.625</vdop><extensions><gom:speed>0.329</gom:speed></extensions></trkpt>
   <trkpt lat="59.0641122937" lon="30.0348535669"><ele>8.734</ele><time>2026-04-20T20:09:00.260Z</time><hdop>4.937</hdop><vdop>5.625</vdop><extensions><gom:speed>0.355</gom:speed></extensions></trkpt>
   <trkpt lat="59.0641089829" lon="30.0348520581"><ele>8.57</ele><time>2026-04-20T20:09:00.900Z</time><hdop>4.937</hdop><vdop>5.625</vdop><extensions><gom:speed>0.406</gom:speed></extensions></trkpt>
   <trkpt lat="59.0641025707" lon="30.0348448497"><ele>8.35</ele><time>2026-04-20T20:09:01.543Z</time><hdop>5.0</hdop><vdop>5.875</vdop><extensions><gom:speed>0.508</gom:speed></extensions></trkpt>
   <trkpt lat="59.0640976673" lon="30.0348388985"><ele>7.946</ele><time>2026-04-20T20:09:02.075Z</time><hdop>5.0</hdop><vdop>5.812</vdop><extensions><gom:speed>0.547</gom:speed></extensions></trkpt>
   <trkpt lat="59.0640895788" lon="30.0348319416"><ele>7.705</ele><time>2026-04-20T20:09:02.875Z</time><hdop>5.125</hdop><vdop>5.812</vdop><extensions><gom:speed>0.707</gom:speed></extensions></trkpt>
   <trkpt lat="59.0640794786" lon="30.034820626"><ele>7.228</ele><time>2026-04-20T20:09:03.538Z</time><hdop>5.187</hdop><vdop>5.75</vdop><extensions><gom:speed>0.858</gom:speed></extensions></trkpt>
   <trkpt lat="59.064073276" lon="30.0348121603"><ele>7.035</ele><time>2026-04-20T20:09:04.075Z</time><hdop>5.187</hdop><vdop>5.625</vdop><extensions><gom:speed>0.892</gom:speed></extensions></trkpt>
   <trkpt lat="59.064069085" lon="30.0348078855"><ele>6.921</ele><time>2026-04-20T20:09:04.707Z</time><hdop>5.25</hdop><vdop>5.625</vdop><extensions><gom:speed>0.927</gom:speed></extensions></trkpt>
   <trkpt lat="59.0640564703" lon="30.0347955641"><ele>6.62</ele><time>2026-04-20T20:09:05.638Z</time><hdop>5.375</hdop><vdop>5.562</vdop><extensions><gom:speed>0.923</gom:speed></extensions></trkpt>
   <trkpt lat="59.0640502676" lon="30.0347901997"><ele>6.31</ele><time>2026-04-20T20:09:06.383Z</time><hdop>5.437</hdop><vdop>5.812</vdop><extensions><gom:speed>0.893</gom:speed></extensions></trkpt>
   <trkpt lat="59.064044568" lon="30.0347888586"><ele>6.076</ele><time>2026-04-20T20:09:07.076Z</time><hdop>5.437</hdop><vdop>6.0</vdop><extensions><gom:speed>0.885</gom:speed></extensions></trkpt>
   <trkpt lat="59.0640409637" lon="30.0347783812"><ele>5.689</ele><time>2026-04-20T20:09:08.023Z</time><hdop>5.5</hdop><vdop>6.25</vdop><extensions><gom:speed>0.727</gom:speed></extensions></trkpt>
   <trkpt lat="59.0640393712" lon="30.0347694964"><ele>5.457</ele><time>2026-04-20T20:09:08.955Z</time><hdop>5.625</hdop><vdop>6.25</vdop><extensions><gom:speed>0.646</gom:speed></extensions></trkpt>
   <trkpt lat="59.0640381977" lon="30.0347600248"><ele>4.808</ele><time>2026-04-20T20:09:10.037Z</time><hdop>5.625</hdop><vdop>8.75</vdop><extensions><gom:speed>0.454</gom:speed></extensions></trkpt>
   <trkpt lat="59.0640385749" lon="30.0347601925"><ele>4.421</ele><time>2026-04-20T20:09:10.867Z</time><hdop>5.687</hdop><vdop>8.75</vdop><extensions><gom:speed>0.327</gom:speed></extensions></trkpt>
   <trkpt lat="59.0640384911" lon="30.0347542413"><ele>3.779</ele><time>2026-04-20T20:09:12.051Z</time><hdop>5.75</hdop><vdop>7.812</vdop><extensions><gom:speed>0.11</gom:speed></extensions></trkpt>
   <trkpt lat="59.064038072" lon="30.0347558339"><ele>3.147</ele><time>2026-04-20T20:09:12.999Z</time><hdop>5.687</hdop><vdop>7.562</vdop><extensions><gom:speed>0.092</gom:speed></extensions></trkpt>
   <trkpt lat="59.0640378624" lon="30.0347539899"><ele>2.922</ele><time>2026-04-20T20:09:14.075Z</time><hdop>5.625</hdop><vdop>7.187</vdop><extensions><gom:speed>0.101</gom:speed></extensions></trkpt>
   <trkpt lat="59.0640367728" lon="30.0347536546"><ele>3.051</ele><time>2026-04-20T20:09:15.075Z</time><hdop>5.437</hdop><vdop>6.875</vdop><extensions><gom:speed>0.12</gom:speed></extensions></trkpt>
   <trkpt lat="59.0640369823" lon="30.0347528164"><ele>3.249</ele><time>2026-04-20T20:09:16.078Z</time><hdop>5.312</hdop><vdop>6.875</vdop><extensions><gom:speed>0.09</gom:speed></extensions></trkpt>
   <trkpt lat="59.0640339648" lon="30.0347498827"><ele>3.979</ele><time>2026-04-20T20:09:17.076Z</time><hdop>5.062</hdop><vdop>6.875</vdop><extensions><gom:speed>0.116</gom:speed></extensions></trkpt>
   <trkpt lat="59.0640311988" lon="30.0347461947"><ele>4.714</ele><time>2026-04-20T20:09:18.075Z</time><hdop>4.937</hdop><vdop>6.75</vdop><extensions><gom:speed>0.129</gom:speed></extensions></trkpt>
   <trkpt lat="59.0640277622" lon="30.034742339"><ele>5.656</ele><time>2026-04-20T20:09:19.075Z</time><hdop>4.75</hdop><vdop>6.75</vdop><extensions><gom:speed>0.151</gom:speed></extensions></trkpt>
   <trkpt lat="59.0640267983" lon="30.0347416685"><ele>6.219</ele><time>2026-04-20T20:09:19.754Z</time><hdop>4.625</hdop><vdop>6.75</vdop><extensions><gom:speed>0.134</gom:speed></extensions></trkpt>
   <trkpt lat="59.0640199671" lon="30.0347366393"><ele>6.461</ele><time>2026-04-20T20:09:21.075Z</time><hdop>4.562</hdop><vdop>8.75</vdop><extensions><gom:speed>0.153</gom:speed></extensions></trkpt>
   <trkpt lat="59.0640180811" lon="30.0347359688"><ele>6.849</ele><time>2026-04-20T20:09:22.001Z</time><hdop>4.5</hdop><vdop>7.937</vdop><extensions><gom:speed>0.168</gom:speed></extensions></trkpt>
   <trkpt lat="59.0640171591" lon="30.0347363879"><ele>7.08</ele><time>2026-04-20T20:09:22.834Z</time><hdop>4.5</hdop><vdop>7.937</vdop><extensions><gom:speed>0.145</gom:speed></extensions></trkpt>
   <trkpt lat="59.0640113756" lon="30.0347343762"><ele>6.759</ele><time>2026-04-20T20:09:23.901Z</time><hdop>4.5</hdop><vdop>7.312</vdop><extensions><gom:speed>0.211</gom:speed></extensions></trkpt>
   <trkpt lat="59.0640062627" lon="30.0347323645"><ele>6.861</ele><time>2026-04-20T20:09:25.075Z</time><hdop>4.562</hdop><vdop>6.0</vdop><extensions><gom:speed>0.218</gom:speed></extensions></trkpt>
   <trkpt lat="59.0640017783" lon="30.0347303529"><ele>7.142</ele><time>2026-04-20T20:09:26.075Z</time><hdop>4.562</hdop><vdop>8.187</vdop><extensions><gom:speed>0.211</gom:speed></extensions></trkpt>
   <trkpt lat="59.0639978808" lon="30.0347277545"><ele>8.055</ele><time>2026-04-20T20:09:27.075Z</time><hdop>4.625</hdop><vdop>7.125</vdop><extensions><gom:speed>0.183</gom:speed></extensions></trkpt>
   <trkpt lat="59.0639941927" lon="30.0347241503"><ele>9.134</ele><time>2026-04-20T20:09:28.075Z</time><hdop>4.75</hdop><vdop>6.5</vdop><extensions><gom:speed>0.134</gom:speed></extensions></trkpt>
   <trkpt lat="59.0639935641" lon="30.0347235635"><ele>9.778</ele><time>2026-04-20T20:09:28.540Z</time><hdop>4.812</hdop><vdop>6.5</vdop><extensions><gom:speed>0.07</gom:speed></extensions></trkpt>
   <trkpt lat="59.0639908819" lon="30.034721049"><ele>10.536</ele><time>2026-04-20T20:09:29.075Z</time><hdop>4.812</hdop><vdop>7.312</vdop><extensions><gom:speed>0.112</gom:speed></extensions></trkpt>
   <trkpt lat="59.0639891636" lon="30.0347202946"><ele>11.535</ele><time>2026-04-20T20:09:30.055Z</time><hdop>4.875</hdop><vdop>7.312</vdop><extensions><gom:speed>0.135</gom:speed></extensions></trkpt>
   <trkpt lat="59.063985266" lon="30.0347195402"><ele>12.072</ele><time>2026-04-20T20:09:31.075Z</time><hdop>4.875</hdop><vdop>7.25</vdop><extensions><gom:speed>0.128</gom:speed></extensions></trkpt>
   <trkpt lat="59.0639804883" lon="30.0347170257"><ele>12.711</ele><time>2026-04-20T20:09:32.075Z</time><hdop>4.812</hdop><vdop>6.437</vdop><extensions><gom:speed>0.1</gom:speed></extensions></trkpt>
   <trkpt lat="59.06397877" lon="30.0347169418"><ele>13.093</ele><time>2026-04-20T20:09:32.864Z</time><hdop>4.812</hdop><vdop>6.437</vdop><extensions><gom:speed>0.128</gom:speed></extensions></trkpt>
   <trkpt lat="59.0639737828" lon="30.0347134214"><ele>13.09</ele><time>2026-04-20T20:09:33.885Z</time><hdop>4.687</hdop><vdop>6.062</vdop><extensions><gom:speed>0.133</gom:speed></extensions></trkpt>
   <trkpt lat="59.0639645627" lon="30.0347030279"><ele>12.974</ele><time>2026-04-20T20:09:35.076Z</time><hdop>4.625</hdop><vdop>5.937</vdop><extensions><gom:speed>0.188</gom:speed></extensions></trkpt>
   <trkpt lat="59.0639635988" lon="30.0347012677"><ele>12.904</ele><time>2026-04-20T20:09:35.623Z</time><hdop>4.562</hdop><vdop>5.937</vdop><extensions><gom:speed>0.17</gom:speed></extensions></trkpt>
   <trkpt lat="59.0639592821" lon="30.0346939754"><ele>12.902</ele><time>2026-04-20T20:09:36.075Z</time><hdop>4.5</hdop><vdop>5.812</vdop><extensions><gom:speed>0.196</gom:speed></extensions></trkpt>
   <trkpt lat="59.0639575638" lon="30.0346911256"><ele>12.901</ele><time>2026-04-20T20:09:36.743Z</time><hdop>4.5</hdop><vdop>5.812</vdop><extensions><gom:speed>0.242</gom:speed></extensions></trkpt>
   <trkpt lat="59.0639498944" lon="30.0346823246"><ele>13.069</ele><time>2026-04-20T20:09:37.602Z</time><hdop>4.437</hdop><vdop>5.75</vdop><extensions><gom:speed>0.42</gom:speed></extensions></trkpt>
   <trkpt lat="59.063944488" lon="30.0346768763"><ele>13.108</ele><time>2026-04-20T20:09:38.075Z</time><hdop>4.375</hdop><vdop>5.625</vdop><extensions><gom:speed>0.496</gom:speed></extensions></trkpt>
   <trkpt lat="59.0639318733" lon="30.0346659799"><ele>13.278</ele><time>2026-04-20T20:09:39.075Z</time><hdop>4.312</hdop><vdop>5.625</vdop><extensions><gom:speed>0.68</gom:speed></extensions></trkpt>
   <trkpt lat="59.0639258802" lon="30.0346599449"><ele>13.309</ele><time>2026-04-20T20:09:40.005Z</time><hdop>4.25</hdop><vdop>5.812</vdop><extensions><gom:speed>0.618</gom:speed></extensions></trkpt>
   <trkpt lat="59.0639201805" lon="30.0346532394"><ele>13.548</ele><time>2026-04-20T20:09:41.075Z</time><hdop>4.25</hdop><vdop>5.687</vdop><extensions><gom:speed>0.527</gom:speed></extensions></trkpt>
   <trkpt lat="59.0639198871" lon="30.034651563"><ele>13.691</ele><time>2026-04-20T20:09:41.782Z</time><hdop>4.25</hdop><vdop>5.687</vdop><extensions><gom:speed>0.475</gom:speed></extensions></trkpt>
   <trkpt lat="59.0639152771" lon="30.0346382358"><ele>13.401</ele><time>2026-04-20T20:09:43.085Z</time><hdop>4.187</hdop><vdop>5.437</vdop><extensions><gom:speed>0.406</gom:speed></extensions></trkpt>
   <trkpt lat="59.0639118824" lon="30.0346296862"><ele>13.06</ele><time>2026-04-20T20:09:44.075Z</time><hdop>4.25</hdop><vdop>5.25</vdop><extensions><gom:speed>0.329</gom:speed></extensions></trkpt>
   <trkpt lat="59.0639100803" lon="30.0346220587"><ele>12.5</ele><time>2026-04-20T20:09:45.076Z</time><hdop>4.312</hdop><vdop>5.062</vdop><extensions><gom:speed>0.278</gom:speed></extensions></trkpt>
   <trkpt lat="59.063909284" lon="30.0346160237"><ele>12.166</ele><time>2026-04-20T20:09:46.002Z</time><hdop>4.312</hdop><vdop>5.062</vdop><extensions><gom:speed>0.305</gom:speed></extensions></trkpt>
   <trkpt lat="59.0639067695" lon="30.0346053787"><ele>11.78</ele><time>2026-04-20T20:09:46.860Z</time><hdop>4.375</hdop><vdop>4.75</vdop><extensions><gom:speed>0.347</gom:speed></extensions></trkpt>
   <trkpt lat="59.0639036682" lon="30.0345923868"><ele>11.646</ele><time>2026-04-20T20:09:47.915Z</time><hdop>4.437</hdop><vdop>4.687</vdop><extensions><gom:speed>0.389</gom:speed></extensions></trkpt>
   <trkpt lat="59.0639012793" lon="30.034583921"><ele>11.789</ele><time>2026-04-20T20:09:48.855Z</time><hdop>4.5</hdop><vdop>4.562</vdop><extensions><gom:speed>0.32</gom:speed></extensions></trkpt>
   <trkpt lat="59.0639016984" lon="30.0345868547"><ele>11.823</ele><time>2026-04-20T20:09:49.956Z</time><hdop>4.562</hdop><vdop>4.562</vdop><extensions><gom:speed>0.231</gom:speed></extensions></trkpt>
   <trkpt lat="59.0639011955" lon="30.0345889502"><ele>11.771</ele><time>2026-04-20T20:09:51.075Z</time><hdop>4.687</hdop><vdop>6.75</vdop><extensions><gom:speed>0.18</gom:speed></extensions></trkpt>
  </trkseg>
 </trk>
</gpx>